<?xml version="1.0" encoding="UTF-8" standalone="no" ?>
<gpx xmlns="http://www.topografix.com/GPX/1/1" xmlns:xsi="http://www.w3.org/2001/XMLSchema-instance" xsi:schemaLocation="http://www.topografix.com/GPX/1/1 http://www.topografix.com/GPX/1/1/gpx.xsd" version="1.1" creator="VisuGPX - https://www.visugpx.com">
  <metadata>
    <name>05/08/2021</name>
    <desc><![CDATA[boucle au départ de Payolle puis col d'Aspin par la forêt puis col de Beyrède puis retour par single jusqu'à la carrière]]></desc>
  </metadata>
  <trk>
    <name><![CDATA[05/08/2021_1]]></name>
    <trkseg>
      <trkpt lat="42.94223" lon="0.28489">
        <ele>1112.4</ele>
        <time>2021-08-05T07:11:38Z</time>
      </trkpt>
      <trkpt lat="42.94203" lon="0.28511">
        <ele>1097</ele>
        <time>2021-08-05T07:11:47Z</time>
      </trkpt>
      <trkpt lat="42.942" lon="0.28513">
        <ele>1097.6</ele>
        <time>2021-08-05T07:11:48Z</time>
      </trkpt>
      <trkpt lat="42.94182" lon="0.2853">
        <ele>1097.6</ele>
        <time>2021-08-05T07:11:54Z</time>
      </trkpt>
      <trkpt lat="42.94151" lon="0.28565">
        <ele>1098.4</ele>
        <time>2021-08-05T07:12:04Z</time>
      </trkpt>
      <trkpt lat="42.94148" lon="0.28569">
        <ele>1098.6</ele>
        <time>2021-08-05T07:12:05Z</time>
      </trkpt>
      <trkpt lat="42.94145" lon="0.28573">
        <ele>1098.6</ele>
        <time>2021-08-05T07:12:06Z</time>
      </trkpt>
      <trkpt lat="42.94138" lon="0.28584">
        <ele>1098.8</ele>
        <time>2021-08-05T07:12:09Z</time>
      </trkpt>
      <trkpt lat="42.94135" lon="0.28587">
        <ele>1099</ele>
        <time>2021-08-05T07:12:10Z</time>
      </trkpt>
      <trkpt lat="42.94132" lon="0.2859">
        <ele>1099.2</ele>
        <time>2021-08-05T07:12:11Z</time>
      </trkpt>
      <trkpt lat="42.94129" lon="0.28592">
        <ele>1099.2</ele>
        <time>2021-08-05T07:12:12Z</time>
      </trkpt>
      <trkpt lat="42.94126" lon="0.28595">
        <ele>1099.2</ele>
        <time>2021-08-05T07:12:13Z</time>
      </trkpt>
      <trkpt lat="42.94122" lon="0.28597">
        <ele>1099.4</ele>
        <time>2021-08-05T07:12:14Z</time>
      </trkpt>
      <trkpt lat="42.94114" lon="0.28607">
        <ele>1099.6</ele>
        <time>2021-08-05T07:12:17Z</time>
      </trkpt>
      <trkpt lat="42.94103" lon="0.28621">
        <ele>1099.8</ele>
        <time>2021-08-05T07:12:21Z</time>
      </trkpt>
      <trkpt lat="42.94088" lon="0.28645">
        <ele>1100.2</ele>
        <time>2021-08-05T07:12:27Z</time>
      </trkpt>
      <trkpt lat="42.94086" lon="0.28648">
        <ele>1100.4</ele>
        <time>2021-08-05T07:12:28Z</time>
      </trkpt>
      <trkpt lat="42.94077" lon="0.28664">
        <ele>1100.8</ele>
        <time>2021-08-05T07:12:32Z</time>
      </trkpt>
      <trkpt lat="42.94075" lon="0.28669">
        <ele>1100.8</ele>
        <time>2021-08-05T07:12:33Z</time>
      </trkpt>
      <trkpt lat="42.94074" lon="0.28673">
        <ele>1101</ele>
        <time>2021-08-05T07:12:34Z</time>
      </trkpt>
      <trkpt lat="42.94072" lon="0.28677">
        <ele>1101</ele>
        <time>2021-08-05T07:12:35Z</time>
      </trkpt>
      <trkpt lat="42.94071" lon="0.28681">
        <ele>1101.2</ele>
        <time>2021-08-05T07:12:36Z</time>
      </trkpt>
      <trkpt lat="42.94065" lon="0.28705">
        <ele>1101.8</ele>
        <time>2021-08-05T07:12:41Z</time>
      </trkpt>
      <trkpt lat="42.94061" lon="0.28724">
        <ele>1102.2</ele>
        <time>2021-08-05T07:12:45Z</time>
      </trkpt>
      <trkpt lat="42.9406" lon="0.28728">
        <ele>1102.4</ele>
        <time>2021-08-05T07:12:46Z</time>
      </trkpt>
      <trkpt lat="42.94059" lon="0.28733">
        <ele>1102.6</ele>
        <time>2021-08-05T07:12:47Z</time>
      </trkpt>
      <trkpt lat="42.94058" lon="0.28737">
        <ele>1102.6</ele>
        <time>2021-08-05T07:12:48Z</time>
      </trkpt>
      <trkpt lat="42.94057" lon="0.28741">
        <ele>1102.8</ele>
        <time>2021-08-05T07:12:49Z</time>
      </trkpt>
      <trkpt lat="42.94056" lon="0.28745">
        <ele>1103</ele>
        <time>2021-08-05T07:12:50Z</time>
      </trkpt>
      <trkpt lat="42.94055" lon="0.28749">
        <ele>1103.2</ele>
        <time>2021-08-05T07:12:51Z</time>
      </trkpt>
      <trkpt lat="42.94054" lon="0.28754">
        <ele>1103.2</ele>
        <time>2021-08-05T07:12:52Z</time>
      </trkpt>
      <trkpt lat="42.94053" lon="0.28758">
        <ele>1103.6</ele>
        <time>2021-08-05T07:12:53Z</time>
      </trkpt>
      <trkpt lat="42.94052" lon="0.28762">
        <ele>1103.8</ele>
        <time>2021-08-05T07:12:54Z</time>
      </trkpt>
      <trkpt lat="42.94051" lon="0.28766">
        <ele>1104</ele>
        <time>2021-08-05T07:12:55Z</time>
      </trkpt>
      <trkpt lat="42.9405" lon="0.28771">
        <ele>1104.2</ele>
        <time>2021-08-05T07:12:56Z</time>
      </trkpt>
      <trkpt lat="42.94049" lon="0.28775">
        <ele>1104.4</ele>
        <time>2021-08-05T07:12:57Z</time>
      </trkpt>
      <trkpt lat="42.94048" lon="0.28779">
        <ele>1104.6</ele>
        <time>2021-08-05T07:12:58Z</time>
      </trkpt>
      <trkpt lat="42.94046" lon="0.28783">
        <ele>1104.8</ele>
        <time>2021-08-05T07:12:59Z</time>
      </trkpt>
      <trkpt lat="42.94045" lon="0.28787">
        <ele>1105</ele>
        <time>2021-08-05T07:13:00Z</time>
      </trkpt>
      <trkpt lat="42.94044" lon="0.28791">
        <ele>1105.2</ele>
        <time>2021-08-05T07:13:01Z</time>
      </trkpt>
      <trkpt lat="42.94043" lon="0.28795">
        <ele>1105.4</ele>
        <time>2021-08-05T07:13:02Z</time>
      </trkpt>
      <trkpt lat="42.94042" lon="0.28798">
        <ele>1105.6</ele>
        <time>2021-08-05T07:13:03Z</time>
      </trkpt>
      <trkpt lat="42.94041" lon="0.28801">
        <ele>1105.6</ele>
        <time>2021-08-05T07:13:04Z</time>
      </trkpt>
      <trkpt lat="42.9404" lon="0.28804">
        <ele>1105.6</ele>
        <time>2021-08-05T07:13:05Z</time>
      </trkpt>
      <trkpt lat="42.94039" lon="0.28807">
        <ele>1106</ele>
        <time>2021-08-05T07:13:06Z</time>
      </trkpt>
      <trkpt lat="42.94038" lon="0.2881">
        <ele>1106.4</ele>
        <time>2021-08-05T07:13:07Z</time>
      </trkpt>
      <trkpt lat="42.94037" lon="0.28812">
        <ele>1106.4</ele>
        <time>2021-08-05T07:13:08Z</time>
      </trkpt>
      <trkpt lat="42.94036" lon="0.28815">
        <ele>1106.6</ele>
        <time>2021-08-05T07:13:09Z</time>
      </trkpt>
      <trkpt lat="42.94035" lon="0.28818">
        <ele>1106.8</ele>
        <time>2021-08-05T07:13:10Z</time>
      </trkpt>
      <trkpt lat="42.94034" lon="0.28821">
        <ele>1106.8</ele>
        <time>2021-08-05T07:13:11Z</time>
      </trkpt>
      <trkpt lat="42.94033" lon="0.28824">
        <ele>1107</ele>
        <time>2021-08-05T07:13:12Z</time>
      </trkpt>
      <trkpt lat="42.94032" lon="0.28827">
        <ele>1107</ele>
        <time>2021-08-05T07:13:13Z</time>
      </trkpt>
      <trkpt lat="42.94031" lon="0.2883">
        <ele>1107.2</ele>
        <time>2021-08-05T07:13:14Z</time>
      </trkpt>
      <trkpt lat="42.9403" lon="0.28832">
        <ele>1107.4</ele>
        <time>2021-08-05T07:13:15Z</time>
      </trkpt>
      <trkpt lat="42.94029" lon="0.28835">
        <ele>1107.6</ele>
        <time>2021-08-05T07:13:16Z</time>
      </trkpt>
      <trkpt lat="42.94028" lon="0.28837">
        <ele>1107.6</ele>
        <time>2021-08-05T07:13:17Z</time>
      </trkpt>
      <trkpt lat="42.94027" lon="0.2884">
        <ele>1107.8</ele>
        <time>2021-08-05T07:13:18Z</time>
      </trkpt>
      <trkpt lat="42.94026" lon="0.28843">
        <ele>1108</ele>
        <time>2021-08-05T07:13:19Z</time>
      </trkpt>
      <trkpt lat="42.94026" lon="0.28846">
        <ele>1108</ele>
        <time>2021-08-05T07:13:20Z</time>
      </trkpt>
      <trkpt lat="42.94025" lon="0.28849">
        <ele>1108.2</ele>
        <time>2021-08-05T07:13:21Z</time>
      </trkpt>
      <trkpt lat="42.94024" lon="0.28852">
        <ele>1108.4</ele>
        <time>2021-08-05T07:13:22Z</time>
      </trkpt>
      <trkpt lat="42.94023" lon="0.28855">
        <ele>1108.6</ele>
        <time>2021-08-05T07:13:23Z</time>
      </trkpt>
      <trkpt lat="42.94022" lon="0.28858">
        <ele>1108.8</ele>
        <time>2021-08-05T07:13:24Z</time>
      </trkpt>
      <trkpt lat="42.94021" lon="0.28861">
        <ele>1108.8</ele>
        <time>2021-08-05T07:13:25Z</time>
      </trkpt>
      <trkpt lat="42.94019" lon="0.28864">
        <ele>1109</ele>
        <time>2021-08-05T07:13:26Z</time>
      </trkpt>
      <trkpt lat="42.94019" lon="0.28868">
        <ele>1109</ele>
        <time>2021-08-05T07:13:27Z</time>
      </trkpt>
      <trkpt lat="42.94019" lon="0.28871">
        <ele>1109</ele>
        <time>2021-08-05T07:13:28Z</time>
      </trkpt>
      <trkpt lat="42.94019" lon="0.28875">
        <ele>1109.2</ele>
        <time>2021-08-05T07:13:29Z</time>
      </trkpt>
      <trkpt lat="42.94018" lon="0.28878">
        <ele>1109.2</ele>
        <time>2021-08-05T07:13:30Z</time>
      </trkpt>
      <trkpt lat="42.94017" lon="0.28881">
        <ele>1109.4</ele>
        <time>2021-08-05T07:13:31Z</time>
      </trkpt>
      <trkpt lat="42.94016" lon="0.28885">
        <ele>1109.6</ele>
        <time>2021-08-05T07:13:32Z</time>
      </trkpt>
      <trkpt lat="42.94015" lon="0.28888">
        <ele>1109.8</ele>
        <time>2021-08-05T07:13:33Z</time>
      </trkpt>
      <trkpt lat="42.94014" lon="0.28892">
        <ele>1110</ele>
        <time>2021-08-05T07:13:34Z</time>
      </trkpt>
      <trkpt lat="42.94014" lon="0.28895">
        <ele>1110.2</ele>
        <time>2021-08-05T07:13:35Z</time>
      </trkpt>
      <trkpt lat="42.94013" lon="0.28899">
        <ele>1110.2</ele>
        <time>2021-08-05T07:13:36Z</time>
      </trkpt>
      <trkpt lat="42.94013" lon="0.28902">
        <ele>1110.4</ele>
        <time>2021-08-05T07:13:37Z</time>
      </trkpt>
      <trkpt lat="42.94013" lon="0.28906">
        <ele>1110.4</ele>
        <time>2021-08-05T07:13:38Z</time>
      </trkpt>
      <trkpt lat="42.94012" lon="0.28909">
        <ele>1110.6</ele>
        <time>2021-08-05T07:13:39Z</time>
      </trkpt>
      <trkpt lat="42.94011" lon="0.28912">
        <ele>1110.6</ele>
        <time>2021-08-05T07:13:40Z</time>
      </trkpt>
      <trkpt lat="42.9401" lon="0.28915">
        <ele>1110.6</ele>
        <time>2021-08-05T07:13:41Z</time>
      </trkpt>
      <trkpt lat="42.94009" lon="0.28918">
        <ele>1110.6</ele>
        <time>2021-08-05T07:13:42Z</time>
      </trkpt>
      <trkpt lat="42.94008" lon="0.28922">
        <ele>1110.8</ele>
        <time>2021-08-05T07:13:43Z</time>
      </trkpt>
      <trkpt lat="42.94008" lon="0.28926">
        <ele>1110.8</ele>
        <time>2021-08-05T07:13:44Z</time>
      </trkpt>
      <trkpt lat="42.94007" lon="0.2893">
        <ele>1110.8</ele>
        <time>2021-08-05T07:13:45Z</time>
      </trkpt>
      <trkpt lat="42.94007" lon="0.28933">
        <ele>1111</ele>
        <time>2021-08-05T07:13:46Z</time>
      </trkpt>
      <trkpt lat="42.94006" lon="0.28937">
        <ele>1111.2</ele>
        <time>2021-08-05T07:13:47Z</time>
      </trkpt>
      <trkpt lat="42.94006" lon="0.28941">
        <ele>1111.2</ele>
        <time>2021-08-05T07:13:48Z</time>
      </trkpt>
      <trkpt lat="42.94005" lon="0.28945">
        <ele>1111.4</ele>
        <time>2021-08-05T07:13:49Z</time>
      </trkpt>
      <trkpt lat="42.94004" lon="0.28949">
        <ele>1111.6</ele>
        <time>2021-08-05T07:13:50Z</time>
      </trkpt>
      <trkpt lat="42.94004" lon="0.28952">
        <ele>1111.8</ele>
        <time>2021-08-05T07:13:51Z</time>
      </trkpt>
      <trkpt lat="42.94004" lon="0.28956">
        <ele>1112</ele>
        <time>2021-08-05T07:13:52Z</time>
      </trkpt>
      <trkpt lat="42.94003" lon="0.2896">
        <ele>1112</ele>
        <time>2021-08-05T07:13:53Z</time>
      </trkpt>
      <trkpt lat="42.94003" lon="0.28964">
        <ele>1112</ele>
        <time>2021-08-05T07:13:54Z</time>
      </trkpt>
      <trkpt lat="42.94003" lon="0.28968">
        <ele>1112.2</ele>
        <time>2021-08-05T07:13:55Z</time>
      </trkpt>
      <trkpt lat="42.94003" lon="0.28972">
        <ele>1112.4</ele>
        <time>2021-08-05T07:13:56Z</time>
      </trkpt>
      <trkpt lat="42.94003" lon="0.28976">
        <ele>1112.4</ele>
        <time>2021-08-05T07:13:57Z</time>
      </trkpt>
      <trkpt lat="42.94003" lon="0.2898">
        <ele>1112.4</ele>
        <time>2021-08-05T07:13:58Z</time>
      </trkpt>
      <trkpt lat="42.94003" lon="0.28985">
        <ele>1112.6</ele>
        <time>2021-08-05T07:13:59Z</time>
      </trkpt>
      <trkpt lat="42.94002" lon="0.28989">
        <ele>1112.8</ele>
        <time>2021-08-05T07:14:00Z</time>
      </trkpt>
      <trkpt lat="42.94002" lon="0.28993">
        <ele>1112.8</ele>
        <time>2021-08-05T07:14:01Z</time>
      </trkpt>
      <trkpt lat="42.94002" lon="0.28997">
        <ele>1112.8</ele>
        <time>2021-08-05T07:14:02Z</time>
      </trkpt>
      <trkpt lat="42.94002" lon="0.29001">
        <ele>1113</ele>
        <time>2021-08-05T07:14:03Z</time>
      </trkpt>
      <trkpt lat="42.94002" lon="0.29006">
        <ele>1113</ele>
        <time>2021-08-05T07:14:04Z</time>
      </trkpt>
      <trkpt lat="42.94002" lon="0.2901">
        <ele>1113.2</ele>
        <time>2021-08-05T07:14:05Z</time>
      </trkpt>
      <trkpt lat="42.94002" lon="0.29014">
        <ele>1113.2</ele>
        <time>2021-08-05T07:14:06Z</time>
      </trkpt>
      <trkpt lat="42.94002" lon="0.29018">
        <ele>1113.4</ele>
        <time>2021-08-05T07:14:07Z</time>
      </trkpt>
      <trkpt lat="42.94002" lon="0.29022">
        <ele>1113.4</ele>
        <time>2021-08-05T07:14:08Z</time>
      </trkpt>
      <trkpt lat="42.94002" lon="0.29027">
        <ele>1113.6</ele>
        <time>2021-08-05T07:14:09Z</time>
      </trkpt>
      <trkpt lat="42.94001" lon="0.29031">
        <ele>1113.6</ele>
        <time>2021-08-05T07:14:10Z</time>
      </trkpt>
      <trkpt lat="42.94001" lon="0.29035">
        <ele>1113.8</ele>
        <time>2021-08-05T07:14:11Z</time>
      </trkpt>
      <trkpt lat="42.94001" lon="0.2904">
        <ele>1113.8</ele>
        <time>2021-08-05T07:14:12Z</time>
      </trkpt>
      <trkpt lat="42.94001" lon="0.29043">
        <ele>1113.8</ele>
        <time>2021-08-05T07:14:13Z</time>
      </trkpt>
      <trkpt lat="42.94" lon="0.29048">
        <ele>1114</ele>
        <time>2021-08-05T07:14:14Z</time>
      </trkpt>
      <trkpt lat="42.93999" lon="0.29052">
        <ele>1114.2</ele>
        <time>2021-08-05T07:14:15Z</time>
      </trkpt>
      <trkpt lat="42.93998" lon="0.29056">
        <ele>1114.2</ele>
        <time>2021-08-05T07:14:16Z</time>
      </trkpt>
      <trkpt lat="42.93997" lon="0.29061">
        <ele>1114.4</ele>
        <time>2021-08-05T07:14:17Z</time>
      </trkpt>
      <trkpt lat="42.93996" lon="0.29065">
        <ele>1114.6</ele>
        <time>2021-08-05T07:14:18Z</time>
      </trkpt>
      <trkpt lat="42.93994" lon="0.29069">
        <ele>1114.8</ele>
        <time>2021-08-05T07:14:19Z</time>
      </trkpt>
      <trkpt lat="42.93992" lon="0.29073">
        <ele>1114.8</ele>
        <time>2021-08-05T07:14:20Z</time>
      </trkpt>
      <trkpt lat="42.9399" lon="0.29076">
        <ele>1114.8</ele>
        <time>2021-08-05T07:14:21Z</time>
      </trkpt>
      <trkpt lat="42.93988" lon="0.2908">
        <ele>1115</ele>
        <time>2021-08-05T07:14:22Z</time>
      </trkpt>
      <trkpt lat="42.93986" lon="0.29084">
        <ele>1115</ele>
        <time>2021-08-05T07:14:23Z</time>
      </trkpt>
      <trkpt lat="42.93985" lon="0.29088">
        <ele>1115.2</ele>
        <time>2021-08-05T07:14:24Z</time>
      </trkpt>
      <trkpt lat="42.93983" lon="0.29092">
        <ele>1115.4</ele>
        <time>2021-08-05T07:14:25Z</time>
      </trkpt>
      <trkpt lat="42.9398" lon="0.29096">
        <ele>1115.4</ele>
        <time>2021-08-05T07:14:26Z</time>
      </trkpt>
      <trkpt lat="42.93979" lon="0.29099">
        <ele>1115.4</ele>
        <time>2021-08-05T07:14:27Z</time>
      </trkpt>
      <trkpt lat="42.93976" lon="0.29103">
        <ele>1115.6</ele>
        <time>2021-08-05T07:14:28Z</time>
      </trkpt>
      <trkpt lat="42.93974" lon="0.29106">
        <ele>1115.6</ele>
        <time>2021-08-05T07:14:29Z</time>
      </trkpt>
      <trkpt lat="42.93972" lon="0.29109">
        <ele>1115.6</ele>
        <time>2021-08-05T07:14:30Z</time>
      </trkpt>
      <trkpt lat="42.93969" lon="0.29112">
        <ele>1115.6</ele>
        <time>2021-08-05T07:14:31Z</time>
      </trkpt>
      <trkpt lat="42.93966" lon="0.29114">
        <ele>1115.8</ele>
        <time>2021-08-05T07:14:32Z</time>
      </trkpt>
      <trkpt lat="42.93964" lon="0.29117">
        <ele>1115.8</ele>
        <time>2021-08-05T07:14:33Z</time>
      </trkpt>
      <trkpt lat="42.93962" lon="0.29119">
        <ele>1116.2</ele>
        <time>2021-08-05T07:14:34Z</time>
      </trkpt>
      <trkpt lat="42.93959" lon="0.29122">
        <ele>1116.2</ele>
        <time>2021-08-05T07:14:35Z</time>
      </trkpt>
      <trkpt lat="42.93957" lon="0.29124">
        <ele>1116.2</ele>
        <time>2021-08-05T07:14:36Z</time>
      </trkpt>
      <trkpt lat="42.93954" lon="0.29125">
        <ele>1116.4</ele>
        <time>2021-08-05T07:14:37Z</time>
      </trkpt>
      <trkpt lat="42.93952" lon="0.29127">
        <ele>1116.4</ele>
        <time>2021-08-05T07:14:38Z</time>
      </trkpt>
      <trkpt lat="42.93949" lon="0.29128">
        <ele>1116.6</ele>
        <time>2021-08-05T07:14:39Z</time>
      </trkpt>
      <trkpt lat="42.93947" lon="0.29129">
        <ele>1116.6</ele>
        <time>2021-08-05T07:14:40Z</time>
      </trkpt>
      <trkpt lat="42.93946" lon="0.29129">
        <ele>1116.6</ele>
        <time>2021-08-05T07:14:41Z</time>
      </trkpt>
      <trkpt lat="42.93944" lon="0.29129">
        <ele>1116.8</ele>
        <time>2021-08-05T07:14:42Z</time>
      </trkpt>
      <trkpt lat="42.93943" lon="0.29128">
        <ele>1116.8</ele>
        <time>2021-08-05T07:14:43Z</time>
      </trkpt>
      <trkpt lat="42.93941" lon="0.29127">
        <ele>1116.8</ele>
        <time>2021-08-05T07:14:44Z</time>
      </trkpt>
      <trkpt lat="42.9394" lon="0.29127">
        <ele>1116.8</ele>
        <time>2021-08-05T07:14:45Z</time>
      </trkpt>
      <trkpt lat="42.9394" lon="0.29127">
        <ele>1116.8</ele>
        <time>2021-08-05T07:14:46Z</time>
      </trkpt>
      <trkpt lat="42.9394" lon="0.29127">
        <ele>1116.8</ele>
        <time>2021-08-05T07:14:47Z</time>
      </trkpt>
      <trkpt lat="42.93941" lon="0.29129">
        <ele>1116</ele>
        <time>2021-08-05T07:14:57Z</time>
      </trkpt>
      <trkpt lat="42.93941" lon="0.29129">
        <ele>1115.6</ele>
        <time>2021-08-05T07:15:09Z</time>
      </trkpt>
      <trkpt lat="42.93939" lon="0.29127">
        <ele>1115.2</ele>
        <time>2021-08-05T07:16:08Z</time>
      </trkpt>
      <trkpt lat="42.93933" lon="0.29129">
        <ele>1115</ele>
        <time>2021-08-05T07:16:20Z</time>
      </trkpt>
      <trkpt lat="42.93915" lon="0.29131">
        <ele>1114.8</ele>
        <time>2021-08-05T07:16:26Z</time>
      </trkpt>
      <trkpt lat="42.93889" lon="0.29131">
        <ele>1114.6</ele>
        <time>2021-08-05T07:16:32Z</time>
      </trkpt>
      <trkpt lat="42.93884" lon="0.2913">
        <ele>1114.6</ele>
        <time>2021-08-05T07:16:33Z</time>
      </trkpt>
      <trkpt lat="42.93879" lon="0.29129">
        <ele>1114.2</ele>
        <time>2021-08-05T07:16:34Z</time>
      </trkpt>
      <trkpt lat="42.93857" lon="0.29123">
        <ele>1113.6</ele>
        <time>2021-08-05T07:16:38Z</time>
      </trkpt>
      <trkpt lat="42.93845" lon="0.2912">
        <ele>1113.2</ele>
        <time>2021-08-05T07:16:40Z</time>
      </trkpt>
      <trkpt lat="42.9384" lon="0.2912">
        <ele>1113.2</ele>
        <time>2021-08-05T07:16:41Z</time>
      </trkpt>
      <trkpt lat="42.93833" lon="0.29125">
        <ele>1113</ele>
        <time>2021-08-05T07:16:43Z</time>
      </trkpt>
      <trkpt lat="42.93829" lon="0.29129">
        <ele>1112.6</ele>
        <time>2021-08-05T07:16:44Z</time>
      </trkpt>
      <trkpt lat="42.93826" lon="0.29134">
        <ele>1113</ele>
        <time>2021-08-05T07:16:45Z</time>
      </trkpt>
      <trkpt lat="42.93823" lon="0.29138">
        <ele>1113</ele>
        <time>2021-08-05T07:16:46Z</time>
      </trkpt>
      <trkpt lat="42.93821" lon="0.29141">
        <ele>1113</ele>
        <time>2021-08-05T07:16:47Z</time>
      </trkpt>
      <trkpt lat="42.93819" lon="0.29145">
        <ele>1113</ele>
        <time>2021-08-05T07:16:48Z</time>
      </trkpt>
      <trkpt lat="42.93816" lon="0.2915">
        <ele>1113</ele>
        <time>2021-08-05T07:16:49Z</time>
      </trkpt>
      <trkpt lat="42.93812" lon="0.29155">
        <ele>1113.6</ele>
        <time>2021-08-05T07:16:51Z</time>
      </trkpt>
      <trkpt lat="42.93809" lon="0.29158">
        <ele>1113.8</ele>
        <time>2021-08-05T07:16:52Z</time>
      </trkpt>
      <trkpt lat="42.93807" lon="0.29161">
        <ele>1114.2</ele>
        <time>2021-08-05T07:16:53Z</time>
      </trkpt>
      <trkpt lat="42.93804" lon="0.29164">
        <ele>1114.4</ele>
        <time>2021-08-05T07:16:54Z</time>
      </trkpt>
      <trkpt lat="42.93802" lon="0.29166">
        <ele>1114.8</ele>
        <time>2021-08-05T07:16:55Z</time>
      </trkpt>
      <trkpt lat="42.938" lon="0.29169">
        <ele>1115</ele>
        <time>2021-08-05T07:16:56Z</time>
      </trkpt>
      <trkpt lat="42.93797" lon="0.29171">
        <ele>1115.4</ele>
        <time>2021-08-05T07:16:57Z</time>
      </trkpt>
      <trkpt lat="42.93795" lon="0.29172">
        <ele>1115.4</ele>
        <time>2021-08-05T07:16:58Z</time>
      </trkpt>
      <trkpt lat="42.93791" lon="0.29175">
        <ele>1115.6</ele>
        <time>2021-08-05T07:16:59Z</time>
      </trkpt>
      <trkpt lat="42.93789" lon="0.29177">
        <ele>1116</ele>
        <time>2021-08-05T07:17:00Z</time>
      </trkpt>
      <trkpt lat="42.93787" lon="0.29179">
        <ele>1116.2</ele>
        <time>2021-08-05T07:17:01Z</time>
      </trkpt>
      <trkpt lat="42.93785" lon="0.29182">
        <ele>1116.4</ele>
        <time>2021-08-05T07:17:02Z</time>
      </trkpt>
      <trkpt lat="42.93783" lon="0.29184">
        <ele>1116.4</ele>
        <time>2021-08-05T07:17:03Z</time>
      </trkpt>
      <trkpt lat="42.93781" lon="0.29186">
        <ele>1116.6</ele>
        <time>2021-08-05T07:17:04Z</time>
      </trkpt>
      <trkpt lat="42.93778" lon="0.29187">
        <ele>1116.8</ele>
        <time>2021-08-05T07:17:05Z</time>
      </trkpt>
      <trkpt lat="42.93776" lon="0.29189">
        <ele>1117.2</ele>
        <time>2021-08-05T07:17:06Z</time>
      </trkpt>
      <trkpt lat="42.93774" lon="0.29192">
        <ele>1117.4</ele>
        <time>2021-08-05T07:17:07Z</time>
      </trkpt>
      <trkpt lat="42.93772" lon="0.29194">
        <ele>1117.6</ele>
        <time>2021-08-05T07:17:08Z</time>
      </trkpt>
      <trkpt lat="42.9377" lon="0.29196">
        <ele>1117.8</ele>
        <time>2021-08-05T07:17:09Z</time>
      </trkpt>
      <trkpt lat="42.93767" lon="0.29198">
        <ele>1118</ele>
        <time>2021-08-05T07:17:10Z</time>
      </trkpt>
      <trkpt lat="42.93765" lon="0.292">
        <ele>1118.2</ele>
        <time>2021-08-05T07:17:11Z</time>
      </trkpt>
      <trkpt lat="42.93763" lon="0.29203">
        <ele>1118.4</ele>
        <time>2021-08-05T07:17:12Z</time>
      </trkpt>
      <trkpt lat="42.93761" lon="0.29206">
        <ele>1118.6</ele>
        <time>2021-08-05T07:17:13Z</time>
      </trkpt>
      <trkpt lat="42.93759" lon="0.29208">
        <ele>1119.2</ele>
        <time>2021-08-05T07:17:14Z</time>
      </trkpt>
      <trkpt lat="42.93757" lon="0.29211">
        <ele>1119.2</ele>
        <time>2021-08-05T07:17:15Z</time>
      </trkpt>
      <trkpt lat="42.93754" lon="0.29213">
        <ele>1119.4</ele>
        <time>2021-08-05T07:17:16Z</time>
      </trkpt>
      <trkpt lat="42.93752" lon="0.29216">
        <ele>1119.6</ele>
        <time>2021-08-05T07:17:17Z</time>
      </trkpt>
      <trkpt lat="42.93749" lon="0.29219">
        <ele>1119.8</ele>
        <time>2021-08-05T07:17:18Z</time>
      </trkpt>
      <trkpt lat="42.93746" lon="0.29221">
        <ele>1120</ele>
        <time>2021-08-05T07:17:19Z</time>
      </trkpt>
      <trkpt lat="42.93744" lon="0.29224">
        <ele>1120.2</ele>
        <time>2021-08-05T07:17:20Z</time>
      </trkpt>
      <trkpt lat="42.93742" lon="0.29227">
        <ele>1120.2</ele>
        <time>2021-08-05T07:17:21Z</time>
      </trkpt>
      <trkpt lat="42.93739" lon="0.2923">
        <ele>1120.4</ele>
        <time>2021-08-05T07:17:22Z</time>
      </trkpt>
      <trkpt lat="42.93737" lon="0.29233">
        <ele>1120.4</ele>
        <time>2021-08-05T07:17:23Z</time>
      </trkpt>
      <trkpt lat="42.93734" lon="0.29234">
        <ele>1120.4</ele>
        <time>2021-08-05T07:17:24Z</time>
      </trkpt>
      <trkpt lat="42.93731" lon="0.29236">
        <ele>1120.4</ele>
        <time>2021-08-05T07:17:25Z</time>
      </trkpt>
      <trkpt lat="42.93729" lon="0.29238">
        <ele>1120.6</ele>
        <time>2021-08-05T07:17:26Z</time>
      </trkpt>
      <trkpt lat="42.93726" lon="0.2924">
        <ele>1120.8</ele>
        <time>2021-08-05T07:17:27Z</time>
      </trkpt>
      <trkpt lat="42.93723" lon="0.29242">
        <ele>1121</ele>
        <time>2021-08-05T07:17:28Z</time>
      </trkpt>
      <trkpt lat="42.9372" lon="0.29244">
        <ele>1121.2</ele>
        <time>2021-08-05T07:17:29Z</time>
      </trkpt>
      <trkpt lat="42.93718" lon="0.29245">
        <ele>1121.2</ele>
        <time>2021-08-05T07:17:30Z</time>
      </trkpt>
      <trkpt lat="42.93715" lon="0.29246">
        <ele>1121.4</ele>
        <time>2021-08-05T07:17:31Z</time>
      </trkpt>
      <trkpt lat="42.93712" lon="0.29247">
        <ele>1121.6</ele>
        <time>2021-08-05T07:17:32Z</time>
      </trkpt>
      <trkpt lat="42.93709" lon="0.29248">
        <ele>1121.8</ele>
        <time>2021-08-05T07:17:33Z</time>
      </trkpt>
      <trkpt lat="42.93706" lon="0.29249">
        <ele>1122</ele>
        <time>2021-08-05T07:17:34Z</time>
      </trkpt>
      <trkpt lat="42.93703" lon="0.2925">
        <ele>1122</ele>
        <time>2021-08-05T07:17:35Z</time>
      </trkpt>
      <trkpt lat="42.937" lon="0.2925">
        <ele>1122.2</ele>
        <time>2021-08-05T07:17:36Z</time>
      </trkpt>
      <trkpt lat="42.93697" lon="0.2925">
        <ele>1122.4</ele>
        <time>2021-08-05T07:17:37Z</time>
      </trkpt>
      <trkpt lat="42.93694" lon="0.2925">
        <ele>1122.6</ele>
        <time>2021-08-05T07:17:38Z</time>
      </trkpt>
      <trkpt lat="42.93691" lon="0.2925">
        <ele>1122.6</ele>
        <time>2021-08-05T07:17:39Z</time>
      </trkpt>
      <trkpt lat="42.93687" lon="0.29249">
        <ele>1122.8</ele>
        <time>2021-08-05T07:17:40Z</time>
      </trkpt>
      <trkpt lat="42.93684" lon="0.29249">
        <ele>1122.8</ele>
        <time>2021-08-05T07:17:41Z</time>
      </trkpt>
      <trkpt lat="42.93681" lon="0.29248">
        <ele>1123</ele>
        <time>2021-08-05T07:17:42Z</time>
      </trkpt>
      <trkpt lat="42.93677" lon="0.29246">
        <ele>1123</ele>
        <time>2021-08-05T07:17:43Z</time>
      </trkpt>
      <trkpt lat="42.93674" lon="0.29244">
        <ele>1123</ele>
        <time>2021-08-05T07:17:44Z</time>
      </trkpt>
      <trkpt lat="42.93671" lon="0.29241">
        <ele>1123.2</ele>
        <time>2021-08-05T07:17:45Z</time>
      </trkpt>
      <trkpt lat="42.93668" lon="0.29239">
        <ele>1123.2</ele>
        <time>2021-08-05T07:17:46Z</time>
      </trkpt>
      <trkpt lat="42.93665" lon="0.29237">
        <ele>1123.2</ele>
        <time>2021-08-05T07:17:47Z</time>
      </trkpt>
      <trkpt lat="42.93661" lon="0.29235">
        <ele>1123.4</ele>
        <time>2021-08-05T07:17:48Z</time>
      </trkpt>
      <trkpt lat="42.93658" lon="0.29233">
        <ele>1123.6</ele>
        <time>2021-08-05T07:17:49Z</time>
      </trkpt>
      <trkpt lat="42.93655" lon="0.2923">
        <ele>1123.6</ele>
        <time>2021-08-05T07:17:50Z</time>
      </trkpt>
      <trkpt lat="42.93652" lon="0.29228">
        <ele>1123.8</ele>
        <time>2021-08-05T07:17:51Z</time>
      </trkpt>
      <trkpt lat="42.93649" lon="0.29225">
        <ele>1124</ele>
        <time>2021-08-05T07:17:52Z</time>
      </trkpt>
      <trkpt lat="42.93646" lon="0.29222">
        <ele>1124</ele>
        <time>2021-08-05T07:17:53Z</time>
      </trkpt>
      <trkpt lat="42.93643" lon="0.2922">
        <ele>1124.2</ele>
        <time>2021-08-05T07:17:54Z</time>
      </trkpt>
      <trkpt lat="42.9364" lon="0.29217">
        <ele>1124.4</ele>
        <time>2021-08-05T07:17:55Z</time>
      </trkpt>
      <trkpt lat="42.93637" lon="0.29214">
        <ele>1124.2</ele>
        <time>2021-08-05T07:17:56Z</time>
      </trkpt>
      <trkpt lat="42.93634" lon="0.29212">
        <ele>1124.4</ele>
        <time>2021-08-05T07:17:57Z</time>
      </trkpt>
      <trkpt lat="42.93631" lon="0.29209">
        <ele>1124.8</ele>
        <time>2021-08-05T07:17:58Z</time>
      </trkpt>
      <trkpt lat="42.93628" lon="0.29207">
        <ele>1125</ele>
        <time>2021-08-05T07:17:59Z</time>
      </trkpt>
      <trkpt lat="42.93626" lon="0.29205">
        <ele>1125</ele>
        <time>2021-08-05T07:18:00Z</time>
      </trkpt>
      <trkpt lat="42.93623" lon="0.29202">
        <ele>1125.2</ele>
        <time>2021-08-05T07:18:01Z</time>
      </trkpt>
      <trkpt lat="42.9362" lon="0.29199">
        <ele>1125.2</ele>
        <time>2021-08-05T07:18:02Z</time>
      </trkpt>
      <trkpt lat="42.93618" lon="0.29197">
        <ele>1125.2</ele>
        <time>2021-08-05T07:18:03Z</time>
      </trkpt>
      <trkpt lat="42.93615" lon="0.29195">
        <ele>1125.4</ele>
        <time>2021-08-05T07:18:04Z</time>
      </trkpt>
      <trkpt lat="42.93612" lon="0.29192">
        <ele>1125.6</ele>
        <time>2021-08-05T07:18:05Z</time>
      </trkpt>
      <trkpt lat="42.93609" lon="0.2919">
        <ele>1125.8</ele>
        <time>2021-08-05T07:18:06Z</time>
      </trkpt>
      <trkpt lat="42.93606" lon="0.29187">
        <ele>1126</ele>
        <time>2021-08-05T07:18:07Z</time>
      </trkpt>
      <trkpt lat="42.93603" lon="0.29184">
        <ele>1126.2</ele>
        <time>2021-08-05T07:18:08Z</time>
      </trkpt>
      <trkpt lat="42.936" lon="0.29182">
        <ele>1126.4</ele>
        <time>2021-08-05T07:18:09Z</time>
      </trkpt>
      <trkpt lat="42.93597" lon="0.29179">
        <ele>1126.6</ele>
        <time>2021-08-05T07:18:10Z</time>
      </trkpt>
      <trkpt lat="42.93594" lon="0.29177">
        <ele>1126.6</ele>
        <time>2021-08-05T07:18:11Z</time>
      </trkpt>
      <trkpt lat="42.93592" lon="0.29174">
        <ele>1126.8</ele>
        <time>2021-08-05T07:18:12Z</time>
      </trkpt>
      <trkpt lat="42.93589" lon="0.29171">
        <ele>1126.8</ele>
        <time>2021-08-05T07:18:13Z</time>
      </trkpt>
      <trkpt lat="42.93586" lon="0.29169">
        <ele>1127</ele>
        <time>2021-08-05T07:18:14Z</time>
      </trkpt>
      <trkpt lat="42.93583" lon="0.29166">
        <ele>1127</ele>
        <time>2021-08-05T07:18:15Z</time>
      </trkpt>
      <trkpt lat="42.9358" lon="0.29164">
        <ele>1127.2</ele>
        <time>2021-08-05T07:18:16Z</time>
      </trkpt>
      <trkpt lat="42.93577" lon="0.29161">
        <ele>1127.2</ele>
        <time>2021-08-05T07:18:17Z</time>
      </trkpt>
      <trkpt lat="42.93574" lon="0.29158">
        <ele>1127.6</ele>
        <time>2021-08-05T07:18:18Z</time>
      </trkpt>
      <trkpt lat="42.93571" lon="0.29156">
        <ele>1127.6</ele>
        <time>2021-08-05T07:18:19Z</time>
      </trkpt>
      <trkpt lat="42.93568" lon="0.29153">
        <ele>1127.8</ele>
        <time>2021-08-05T07:18:20Z</time>
      </trkpt>
      <trkpt lat="42.93565" lon="0.2915">
        <ele>1127.8</ele>
        <time>2021-08-05T07:18:21Z</time>
      </trkpt>
      <trkpt lat="42.93562" lon="0.29148">
        <ele>1128</ele>
        <time>2021-08-05T07:18:22Z</time>
      </trkpt>
      <trkpt lat="42.93559" lon="0.29145">
        <ele>1128.2</ele>
        <time>2021-08-05T07:18:23Z</time>
      </trkpt>
      <trkpt lat="42.93556" lon="0.29143">
        <ele>1128.2</ele>
        <time>2021-08-05T07:18:24Z</time>
      </trkpt>
      <trkpt lat="42.93553" lon="0.2914">
        <ele>1128.2</ele>
        <time>2021-08-05T07:18:25Z</time>
      </trkpt>
      <trkpt lat="42.9355" lon="0.29138">
        <ele>1128.4</ele>
        <time>2021-08-05T07:18:26Z</time>
      </trkpt>
      <trkpt lat="42.93547" lon="0.29135">
        <ele>1128.6</ele>
        <time>2021-08-05T07:18:27Z</time>
      </trkpt>
      <trkpt lat="42.93544" lon="0.29132">
        <ele>1128.6</ele>
        <time>2021-08-05T07:18:28Z</time>
      </trkpt>
      <trkpt lat="42.93541" lon="0.2913">
        <ele>1128.8</ele>
        <time>2021-08-05T07:18:29Z</time>
      </trkpt>
      <trkpt lat="42.93538" lon="0.29128">
        <ele>1129</ele>
        <time>2021-08-05T07:18:30Z</time>
      </trkpt>
      <trkpt lat="42.93535" lon="0.29125">
        <ele>1129</ele>
        <time>2021-08-05T07:18:31Z</time>
      </trkpt>
      <trkpt lat="42.93532" lon="0.29123">
        <ele>1129</ele>
        <time>2021-08-05T07:18:32Z</time>
      </trkpt>
      <trkpt lat="42.93529" lon="0.29121">
        <ele>1129.2</ele>
        <time>2021-08-05T07:18:33Z</time>
      </trkpt>
      <trkpt lat="42.93526" lon="0.29119">
        <ele>1129.2</ele>
        <time>2021-08-05T07:18:34Z</time>
      </trkpt>
      <trkpt lat="42.93523" lon="0.29117">
        <ele>1129.4</ele>
        <time>2021-08-05T07:18:35Z</time>
      </trkpt>
      <trkpt lat="42.9352" lon="0.29115">
        <ele>1129.4</ele>
        <time>2021-08-05T07:18:36Z</time>
      </trkpt>
      <trkpt lat="42.93517" lon="0.29114">
        <ele>1129.6</ele>
        <time>2021-08-05T07:18:37Z</time>
      </trkpt>
      <trkpt lat="42.93513" lon="0.29114">
        <ele>1129.8</ele>
        <time>2021-08-05T07:18:38Z</time>
      </trkpt>
      <trkpt lat="42.9351" lon="0.29115">
        <ele>1129.8</ele>
        <time>2021-08-05T07:18:39Z</time>
      </trkpt>
      <trkpt lat="42.93507" lon="0.29116">
        <ele>1130</ele>
        <time>2021-08-05T07:18:40Z</time>
      </trkpt>
      <trkpt lat="42.93504" lon="0.29118">
        <ele>1130</ele>
        <time>2021-08-05T07:18:41Z</time>
      </trkpt>
      <trkpt lat="42.93501" lon="0.29119">
        <ele>1130.2</ele>
        <time>2021-08-05T07:18:42Z</time>
      </trkpt>
      <trkpt lat="42.93498" lon="0.2912">
        <ele>1130.2</ele>
        <time>2021-08-05T07:18:43Z</time>
      </trkpt>
      <trkpt lat="42.93494" lon="0.29121">
        <ele>1130.4</ele>
        <time>2021-08-05T07:18:44Z</time>
      </trkpt>
      <trkpt lat="42.93491" lon="0.29122">
        <ele>1130.4</ele>
        <time>2021-08-05T07:18:45Z</time>
      </trkpt>
      <trkpt lat="42.93488" lon="0.29124">
        <ele>1130.4</ele>
        <time>2021-08-05T07:18:46Z</time>
      </trkpt>
      <trkpt lat="42.93485" lon="0.29125">
        <ele>1130.4</ele>
        <time>2021-08-05T07:18:47Z</time>
      </trkpt>
      <trkpt lat="42.93482" lon="0.29127">
        <ele>1130.6</ele>
        <time>2021-08-05T07:18:48Z</time>
      </trkpt>
      <trkpt lat="42.93479" lon="0.29128">
        <ele>1130.8</ele>
        <time>2021-08-05T07:18:49Z</time>
      </trkpt>
      <trkpt lat="42.93476" lon="0.2913">
        <ele>1131</ele>
        <time>2021-08-05T07:18:50Z</time>
      </trkpt>
      <trkpt lat="42.93473" lon="0.29131">
        <ele>1131</ele>
        <time>2021-08-05T07:18:51Z</time>
      </trkpt>
      <trkpt lat="42.93469" lon="0.29133">
        <ele>1131.2</ele>
        <time>2021-08-05T07:18:52Z</time>
      </trkpt>
      <trkpt lat="42.93466" lon="0.29134">
        <ele>1131.4</ele>
        <time>2021-08-05T07:18:53Z</time>
      </trkpt>
      <trkpt lat="42.93463" lon="0.29136">
        <ele>1131.6</ele>
        <time>2021-08-05T07:18:54Z</time>
      </trkpt>
      <trkpt lat="42.9346" lon="0.29137">
        <ele>1131.8</ele>
        <time>2021-08-05T07:18:55Z</time>
      </trkpt>
      <trkpt lat="42.93457" lon="0.29139">
        <ele>1131.8</ele>
        <time>2021-08-05T07:18:56Z</time>
      </trkpt>
      <trkpt lat="42.93454" lon="0.29141">
        <ele>1131.8</ele>
        <time>2021-08-05T07:18:57Z</time>
      </trkpt>
      <trkpt lat="42.93451" lon="0.29143">
        <ele>1132</ele>
        <time>2021-08-05T07:18:58Z</time>
      </trkpt>
      <trkpt lat="42.93448" lon="0.29144">
        <ele>1132</ele>
        <time>2021-08-05T07:18:59Z</time>
      </trkpt>
      <trkpt lat="42.93445" lon="0.29146">
        <ele>1132.4</ele>
        <time>2021-08-05T07:19:00Z</time>
      </trkpt>
      <trkpt lat="42.93442" lon="0.29148">
        <ele>1132.6</ele>
        <time>2021-08-05T07:19:01Z</time>
      </trkpt>
      <trkpt lat="42.93439" lon="0.29151">
        <ele>1132.8</ele>
        <time>2021-08-05T07:19:02Z</time>
      </trkpt>
      <trkpt lat="42.93436" lon="0.29153">
        <ele>1133</ele>
        <time>2021-08-05T07:19:03Z</time>
      </trkpt>
      <trkpt lat="42.93433" lon="0.29155">
        <ele>1133</ele>
        <time>2021-08-05T07:19:04Z</time>
      </trkpt>
      <trkpt lat="42.9343" lon="0.29157">
        <ele>1133</ele>
        <time>2021-08-05T07:19:05Z</time>
      </trkpt>
      <trkpt lat="42.93427" lon="0.29159">
        <ele>1133.2</ele>
        <time>2021-08-05T07:19:06Z</time>
      </trkpt>
      <trkpt lat="42.93424" lon="0.29161">
        <ele>1133.2</ele>
        <time>2021-08-05T07:19:07Z</time>
      </trkpt>
      <trkpt lat="42.93421" lon="0.29163">
        <ele>1133.4</ele>
        <time>2021-08-05T07:19:08Z</time>
      </trkpt>
      <trkpt lat="42.93418" lon="0.29165">
        <ele>1133.6</ele>
        <time>2021-08-05T07:19:09Z</time>
      </trkpt>
      <trkpt lat="42.93416" lon="0.29168">
        <ele>1133.6</ele>
        <time>2021-08-05T07:19:10Z</time>
      </trkpt>
      <trkpt lat="42.93413" lon="0.2917">
        <ele>1133.8</ele>
        <time>2021-08-05T07:19:11Z</time>
      </trkpt>
      <trkpt lat="42.9341" lon="0.29172">
        <ele>1134</ele>
        <time>2021-08-05T07:19:12Z</time>
      </trkpt>
      <trkpt lat="42.93408" lon="0.29174">
        <ele>1134</ele>
        <time>2021-08-05T07:19:13Z</time>
      </trkpt>
      <trkpt lat="42.93405" lon="0.29176">
        <ele>1134.2</ele>
        <time>2021-08-05T07:19:14Z</time>
      </trkpt>
      <trkpt lat="42.93403" lon="0.29178">
        <ele>1134.4</ele>
        <time>2021-08-05T07:19:15Z</time>
      </trkpt>
      <trkpt lat="42.934" lon="0.2918">
        <ele>1134.6</ele>
        <time>2021-08-05T07:19:16Z</time>
      </trkpt>
      <trkpt lat="42.93397" lon="0.29182">
        <ele>1134.8</ele>
        <time>2021-08-05T07:19:17Z</time>
      </trkpt>
      <trkpt lat="42.93394" lon="0.29184">
        <ele>1135</ele>
        <time>2021-08-05T07:19:18Z</time>
      </trkpt>
      <trkpt lat="42.93392" lon="0.29186">
        <ele>1135</ele>
        <time>2021-08-05T07:19:19Z</time>
      </trkpt>
      <trkpt lat="42.93389" lon="0.29188">
        <ele>1135.4</ele>
        <time>2021-08-05T07:19:20Z</time>
      </trkpt>
      <trkpt lat="42.93386" lon="0.29189">
        <ele>1135.4</ele>
        <time>2021-08-05T07:19:21Z</time>
      </trkpt>
      <trkpt lat="42.93384" lon="0.29191">
        <ele>1135.6</ele>
        <time>2021-08-05T07:19:22Z</time>
      </trkpt>
      <trkpt lat="42.93381" lon="0.29193">
        <ele>1135.8</ele>
        <time>2021-08-05T07:19:23Z</time>
      </trkpt>
      <trkpt lat="42.93378" lon="0.29195">
        <ele>1136</ele>
        <time>2021-08-05T07:19:24Z</time>
      </trkpt>
      <trkpt lat="42.93375" lon="0.29197">
        <ele>1136</ele>
        <time>2021-08-05T07:19:25Z</time>
      </trkpt>
      <trkpt lat="42.93372" lon="0.29199">
        <ele>1136.2</ele>
        <time>2021-08-05T07:19:26Z</time>
      </trkpt>
      <trkpt lat="42.9337" lon="0.29201">
        <ele>1136.4</ele>
        <time>2021-08-05T07:19:27Z</time>
      </trkpt>
      <trkpt lat="42.93367" lon="0.29203">
        <ele>1136.4</ele>
        <time>2021-08-05T07:19:28Z</time>
      </trkpt>
      <trkpt lat="42.93364" lon="0.29205">
        <ele>1136.6</ele>
        <time>2021-08-05T07:19:29Z</time>
      </trkpt>
      <trkpt lat="42.93361" lon="0.29207">
        <ele>1136.6</ele>
        <time>2021-08-05T07:19:30Z</time>
      </trkpt>
      <trkpt lat="42.93359" lon="0.29209">
        <ele>1136.8</ele>
        <time>2021-08-05T07:19:31Z</time>
      </trkpt>
      <trkpt lat="42.93356" lon="0.29211">
        <ele>1137</ele>
        <time>2021-08-05T07:19:32Z</time>
      </trkpt>
      <trkpt lat="42.93353" lon="0.29213">
        <ele>1137.2</ele>
        <time>2021-08-05T07:19:33Z</time>
      </trkpt>
      <trkpt lat="42.93351" lon="0.29216">
        <ele>1137.4</ele>
        <time>2021-08-05T07:19:34Z</time>
      </trkpt>
      <trkpt lat="42.93348" lon="0.29218">
        <ele>1137.6</ele>
        <time>2021-08-05T07:19:35Z</time>
      </trkpt>
      <trkpt lat="42.93346" lon="0.29221">
        <ele>1137.6</ele>
        <time>2021-08-05T07:19:36Z</time>
      </trkpt>
      <trkpt lat="42.93344" lon="0.29223">
        <ele>1138</ele>
        <time>2021-08-05T07:19:37Z</time>
      </trkpt>
      <trkpt lat="42.93341" lon="0.29226">
        <ele>1138.2</ele>
        <time>2021-08-05T07:19:38Z</time>
      </trkpt>
      <trkpt lat="42.93339" lon="0.29229">
        <ele>1138.4</ele>
        <time>2021-08-05T07:19:39Z</time>
      </trkpt>
      <trkpt lat="42.93337" lon="0.29232">
        <ele>1138.4</ele>
        <time>2021-08-05T07:19:40Z</time>
      </trkpt>
      <trkpt lat="42.93334" lon="0.29235">
        <ele>1138.6</ele>
        <time>2021-08-05T07:19:41Z</time>
      </trkpt>
      <trkpt lat="42.93332" lon="0.29239">
        <ele>1138.6</ele>
        <time>2021-08-05T07:19:42Z</time>
      </trkpt>
      <trkpt lat="42.93331" lon="0.29242">
        <ele>1138.8</ele>
        <time>2021-08-05T07:19:43Z</time>
      </trkpt>
      <trkpt lat="42.93329" lon="0.29246">
        <ele>1139</ele>
        <time>2021-08-05T07:19:44Z</time>
      </trkpt>
      <trkpt lat="42.93327" lon="0.29249">
        <ele>1139</ele>
        <time>2021-08-05T07:19:45Z</time>
      </trkpt>
      <trkpt lat="42.93326" lon="0.29252">
        <ele>1139.4</ele>
        <time>2021-08-05T07:19:46Z</time>
      </trkpt>
      <trkpt lat="42.93324" lon="0.29255">
        <ele>1139.4</ele>
        <time>2021-08-05T07:19:47Z</time>
      </trkpt>
      <trkpt lat="42.93322" lon="0.29257">
        <ele>1139.8</ele>
        <time>2021-08-05T07:19:48Z</time>
      </trkpt>
      <trkpt lat="42.93321" lon="0.2926">
        <ele>1140</ele>
        <time>2021-08-05T07:19:49Z</time>
      </trkpt>
      <trkpt lat="42.93319" lon="0.29262">
        <ele>1140.2</ele>
        <time>2021-08-05T07:19:50Z</time>
      </trkpt>
      <trkpt lat="42.93317" lon="0.29265">
        <ele>1140.4</ele>
        <time>2021-08-05T07:19:51Z</time>
      </trkpt>
      <trkpt lat="42.93316" lon="0.29268">
        <ele>1140.6</ele>
        <time>2021-08-05T07:19:52Z</time>
      </trkpt>
      <trkpt lat="42.93314" lon="0.2927">
        <ele>1140.8</ele>
        <time>2021-08-05T07:19:53Z</time>
      </trkpt>
      <trkpt lat="42.93312" lon="0.29272">
        <ele>1141.2</ele>
        <time>2021-08-05T07:19:54Z</time>
      </trkpt>
      <trkpt lat="42.9331" lon="0.29274">
        <ele>1141.2</ele>
        <time>2021-08-05T07:19:55Z</time>
      </trkpt>
      <trkpt lat="42.93308" lon="0.29276">
        <ele>1141.4</ele>
        <time>2021-08-05T07:19:56Z</time>
      </trkpt>
      <trkpt lat="42.93306" lon="0.29279">
        <ele>1141.4</ele>
        <time>2021-08-05T07:19:57Z</time>
      </trkpt>
      <trkpt lat="42.93305" lon="0.29281">
        <ele>1141.8</ele>
        <time>2021-08-05T07:19:58Z</time>
      </trkpt>
      <trkpt lat="42.93303" lon="0.29284">
        <ele>1142</ele>
        <time>2021-08-05T07:19:59Z</time>
      </trkpt>
      <trkpt lat="42.93301" lon="0.29286">
        <ele>1142</ele>
        <time>2021-08-05T07:20:00Z</time>
      </trkpt>
      <trkpt lat="42.93299" lon="0.29288">
        <ele>1142.4</ele>
        <time>2021-08-05T07:20:01Z</time>
      </trkpt>
      <trkpt lat="42.93297" lon="0.2929">
        <ele>1142.4</ele>
        <time>2021-08-05T07:20:02Z</time>
      </trkpt>
      <trkpt lat="42.93295" lon="0.29292">
        <ele>1142.6</ele>
        <time>2021-08-05T07:20:03Z</time>
      </trkpt>
      <trkpt lat="42.93293" lon="0.29294">
        <ele>1142.8</ele>
        <time>2021-08-05T07:20:04Z</time>
      </trkpt>
      <trkpt lat="42.93291" lon="0.29296">
        <ele>1142.8</ele>
        <time>2021-08-05T07:20:05Z</time>
      </trkpt>
      <trkpt lat="42.93289" lon="0.29298">
        <ele>1143</ele>
        <time>2021-08-05T07:20:06Z</time>
      </trkpt>
      <trkpt lat="42.93286" lon="0.293">
        <ele>1143</ele>
        <time>2021-08-05T07:20:07Z</time>
      </trkpt>
      <trkpt lat="42.93284" lon="0.29302">
        <ele>1143.2</ele>
        <time>2021-08-05T07:20:08Z</time>
      </trkpt>
      <trkpt lat="42.93282" lon="0.29304">
        <ele>1143.4</ele>
        <time>2021-08-05T07:20:09Z</time>
      </trkpt>
      <trkpt lat="42.93279" lon="0.29307">
        <ele>1143.6</ele>
        <time>2021-08-05T07:20:10Z</time>
      </trkpt>
      <trkpt lat="42.93277" lon="0.29309">
        <ele>1143.8</ele>
        <time>2021-08-05T07:20:11Z</time>
      </trkpt>
      <trkpt lat="42.93275" lon="0.29311">
        <ele>1143.8</ele>
        <time>2021-08-05T07:20:12Z</time>
      </trkpt>
      <trkpt lat="42.93272" lon="0.29313">
        <ele>1144</ele>
        <time>2021-08-05T07:20:13Z</time>
      </trkpt>
      <trkpt lat="42.9327" lon="0.29314">
        <ele>1144.2</ele>
        <time>2021-08-05T07:20:14Z</time>
      </trkpt>
      <trkpt lat="42.93268" lon="0.29316">
        <ele>1144.2</ele>
        <time>2021-08-05T07:20:15Z</time>
      </trkpt>
      <trkpt lat="42.93265" lon="0.29318">
        <ele>1144.4</ele>
        <time>2021-08-05T07:20:16Z</time>
      </trkpt>
      <trkpt lat="42.93263" lon="0.2932">
        <ele>1144.4</ele>
        <time>2021-08-05T07:20:17Z</time>
      </trkpt>
      <trkpt lat="42.9326" lon="0.29322">
        <ele>1144.6</ele>
        <time>2021-08-05T07:20:18Z</time>
      </trkpt>
      <trkpt lat="42.93258" lon="0.29323">
        <ele>1144.8</ele>
        <time>2021-08-05T07:20:19Z</time>
      </trkpt>
      <trkpt lat="42.93255" lon="0.29325">
        <ele>1144.8</ele>
        <time>2021-08-05T07:20:20Z</time>
      </trkpt>
      <trkpt lat="42.93253" lon="0.29327">
        <ele>1145</ele>
        <time>2021-08-05T07:20:21Z</time>
      </trkpt>
      <trkpt lat="42.9325" lon="0.29329">
        <ele>1145</ele>
        <time>2021-08-05T07:20:22Z</time>
      </trkpt>
      <trkpt lat="42.93247" lon="0.2933">
        <ele>1145</ele>
        <time>2021-08-05T07:20:23Z</time>
      </trkpt>
      <trkpt lat="42.93244" lon="0.29332">
        <ele>1145.2</ele>
        <time>2021-08-05T07:20:24Z</time>
      </trkpt>
      <trkpt lat="42.93241" lon="0.29333">
        <ele>1145.2</ele>
        <time>2021-08-05T07:20:25Z</time>
      </trkpt>
      <trkpt lat="42.93239" lon="0.29335">
        <ele>1145.2</ele>
        <time>2021-08-05T07:20:26Z</time>
      </trkpt>
      <trkpt lat="42.93237" lon="0.29337">
        <ele>1145.2</ele>
        <time>2021-08-05T07:20:27Z</time>
      </trkpt>
      <trkpt lat="42.93234" lon="0.29339">
        <ele>1145.4</ele>
        <time>2021-08-05T07:20:28Z</time>
      </trkpt>
      <trkpt lat="42.93232" lon="0.2934">
        <ele>1145.4</ele>
        <time>2021-08-05T07:20:29Z</time>
      </trkpt>
      <trkpt lat="42.9323" lon="0.29342">
        <ele>1145.6</ele>
        <time>2021-08-05T07:20:30Z</time>
      </trkpt>
      <trkpt lat="42.93227" lon="0.29343">
        <ele>1145.8</ele>
        <time>2021-08-05T07:20:31Z</time>
      </trkpt>
      <trkpt lat="42.93225" lon="0.29345">
        <ele>1145.8</ele>
        <time>2021-08-05T07:20:32Z</time>
      </trkpt>
      <trkpt lat="42.93222" lon="0.29347">
        <ele>1146</ele>
        <time>2021-08-05T07:20:33Z</time>
      </trkpt>
      <trkpt lat="42.9322" lon="0.29348">
        <ele>1146</ele>
        <time>2021-08-05T07:20:34Z</time>
      </trkpt>
      <trkpt lat="42.93218" lon="0.2935">
        <ele>1146.4</ele>
        <time>2021-08-05T07:20:35Z</time>
      </trkpt>
      <trkpt lat="42.93215" lon="0.29352">
        <ele>1146.4</ele>
        <time>2021-08-05T07:20:36Z</time>
      </trkpt>
      <trkpt lat="42.93213" lon="0.29354">
        <ele>1146.6</ele>
        <time>2021-08-05T07:20:37Z</time>
      </trkpt>
      <trkpt lat="42.9321" lon="0.29356">
        <ele>1146.6</ele>
        <time>2021-08-05T07:20:38Z</time>
      </trkpt>
      <trkpt lat="42.93208" lon="0.29357">
        <ele>1147</ele>
        <time>2021-08-05T07:20:39Z</time>
      </trkpt>
      <trkpt lat="42.93206" lon="0.29359">
        <ele>1147</ele>
        <time>2021-08-05T07:20:40Z</time>
      </trkpt>
      <trkpt lat="42.93204" lon="0.2936">
        <ele>1147</ele>
        <time>2021-08-05T07:20:41Z</time>
      </trkpt>
      <trkpt lat="42.93202" lon="0.2936">
        <ele>1147</ele>
        <time>2021-08-05T07:20:42Z</time>
      </trkpt>
      <trkpt lat="42.932" lon="0.29362">
        <ele>1147.4</ele>
        <time>2021-08-05T07:20:43Z</time>
      </trkpt>
      <trkpt lat="42.93198" lon="0.29363">
        <ele>1147.6</ele>
        <time>2021-08-05T07:20:44Z</time>
      </trkpt>
      <trkpt lat="42.93196" lon="0.29364">
        <ele>1147.8</ele>
        <time>2021-08-05T07:20:45Z</time>
      </trkpt>
      <trkpt lat="42.93194" lon="0.29366">
        <ele>1148</ele>
        <time>2021-08-05T07:20:46Z</time>
      </trkpt>
      <trkpt lat="42.93191" lon="0.29366">
        <ele>1148.2</ele>
        <time>2021-08-05T07:20:47Z</time>
      </trkpt>
      <trkpt lat="42.93189" lon="0.29368">
        <ele>1148.6</ele>
        <time>2021-08-05T07:20:48Z</time>
      </trkpt>
      <trkpt lat="42.93187" lon="0.29368">
        <ele>1148.8</ele>
        <time>2021-08-05T07:20:49Z</time>
      </trkpt>
      <trkpt lat="42.93184" lon="0.29369">
        <ele>1149</ele>
        <time>2021-08-05T07:20:50Z</time>
      </trkpt>
      <trkpt lat="42.93181" lon="0.2937">
        <ele>1149.2</ele>
        <time>2021-08-05T07:20:51Z</time>
      </trkpt>
      <trkpt lat="42.93179" lon="0.29371">
        <ele>1149.4</ele>
        <time>2021-08-05T07:20:52Z</time>
      </trkpt>
      <trkpt lat="42.93177" lon="0.29371">
        <ele>1149.6</ele>
        <time>2021-08-05T07:20:53Z</time>
      </trkpt>
      <trkpt lat="42.93175" lon="0.29372">
        <ele>1149.8</ele>
        <time>2021-08-05T07:20:54Z</time>
      </trkpt>
      <trkpt lat="42.93174" lon="0.29373">
        <ele>1150</ele>
        <time>2021-08-05T07:20:55Z</time>
      </trkpt>
      <trkpt lat="42.93171" lon="0.29374">
        <ele>1150.2</ele>
        <time>2021-08-05T07:20:56Z</time>
      </trkpt>
      <trkpt lat="42.93169" lon="0.29374">
        <ele>1150.4</ele>
        <time>2021-08-05T07:20:57Z</time>
      </trkpt>
      <trkpt lat="42.93167" lon="0.29375">
        <ele>1150.8</ele>
        <time>2021-08-05T07:20:58Z</time>
      </trkpt>
      <trkpt lat="42.93165" lon="0.29375">
        <ele>1151</ele>
        <time>2021-08-05T07:20:59Z</time>
      </trkpt>
      <trkpt lat="42.93163" lon="0.29375">
        <ele>1151.4</ele>
        <time>2021-08-05T07:21:00Z</time>
      </trkpt>
      <trkpt lat="42.93161" lon="0.29374">
        <ele>1151.6</ele>
        <time>2021-08-05T07:21:01Z</time>
      </trkpt>
      <trkpt lat="42.9316" lon="0.29374">
        <ele>1151.8</ele>
        <time>2021-08-05T07:21:02Z</time>
      </trkpt>
      <trkpt lat="42.93158" lon="0.29374">
        <ele>1152.2</ele>
        <time>2021-08-05T07:21:03Z</time>
      </trkpt>
      <trkpt lat="42.93156" lon="0.29374">
        <ele>1152.4</ele>
        <time>2021-08-05T07:21:04Z</time>
      </trkpt>
      <trkpt lat="42.93154" lon="0.29374">
        <ele>1152.8</ele>
        <time>2021-08-05T07:21:05Z</time>
      </trkpt>
      <trkpt lat="42.93152" lon="0.29374">
        <ele>1153</ele>
        <time>2021-08-05T07:21:06Z</time>
      </trkpt>
      <trkpt lat="42.9315" lon="0.29375">
        <ele>1153.4</ele>
        <time>2021-08-05T07:21:07Z</time>
      </trkpt>
      <trkpt lat="42.93148" lon="0.29375">
        <ele>1153.4</ele>
        <time>2021-08-05T07:21:08Z</time>
      </trkpt>
      <trkpt lat="42.93146" lon="0.29375">
        <ele>1153.6</ele>
        <time>2021-08-05T07:21:09Z</time>
      </trkpt>
      <trkpt lat="42.93143" lon="0.29375">
        <ele>1153.8</ele>
        <time>2021-08-05T07:21:10Z</time>
      </trkpt>
      <trkpt lat="42.93141" lon="0.29375">
        <ele>1154.2</ele>
        <time>2021-08-05T07:21:11Z</time>
      </trkpt>
      <trkpt lat="42.93139" lon="0.29375">
        <ele>1154.4</ele>
        <time>2021-08-05T07:21:12Z</time>
      </trkpt>
      <trkpt lat="42.93138" lon="0.29374">
        <ele>1154.6</ele>
        <time>2021-08-05T07:21:13Z</time>
      </trkpt>
      <trkpt lat="42.93136" lon="0.29374">
        <ele>1154.8</ele>
        <time>2021-08-05T07:21:14Z</time>
      </trkpt>
      <trkpt lat="42.93134" lon="0.29374">
        <ele>1155.2</ele>
        <time>2021-08-05T07:21:15Z</time>
      </trkpt>
      <trkpt lat="42.93132" lon="0.29374">
        <ele>1155.4</ele>
        <time>2021-08-05T07:21:16Z</time>
      </trkpt>
      <trkpt lat="42.9313" lon="0.29374">
        <ele>1155.6</ele>
        <time>2021-08-05T07:21:17Z</time>
      </trkpt>
      <trkpt lat="42.93128" lon="0.29374">
        <ele>1155.6</ele>
        <time>2021-08-05T07:21:18Z</time>
      </trkpt>
      <trkpt lat="42.93125" lon="0.29374">
        <ele>1156</ele>
        <time>2021-08-05T07:21:19Z</time>
      </trkpt>
      <trkpt lat="42.93122" lon="0.29374">
        <ele>1156.2</ele>
        <time>2021-08-05T07:21:20Z</time>
      </trkpt>
      <trkpt lat="42.93119" lon="0.29374">
        <ele>1156.4</ele>
        <time>2021-08-05T07:21:21Z</time>
      </trkpt>
      <trkpt lat="42.93116" lon="0.29374">
        <ele>1156.6</ele>
        <time>2021-08-05T07:21:22Z</time>
      </trkpt>
      <trkpt lat="42.93113" lon="0.29374">
        <ele>1156.6</ele>
        <time>2021-08-05T07:21:23Z</time>
      </trkpt>
      <trkpt lat="42.9311" lon="0.29374">
        <ele>1157</ele>
        <time>2021-08-05T07:21:24Z</time>
      </trkpt>
      <trkpt lat="42.93106" lon="0.29374">
        <ele>1157</ele>
        <time>2021-08-05T07:21:25Z</time>
      </trkpt>
      <trkpt lat="42.93104" lon="0.29374">
        <ele>1157.4</ele>
        <time>2021-08-05T07:21:26Z</time>
      </trkpt>
      <trkpt lat="42.93101" lon="0.29374">
        <ele>1157.2</ele>
        <time>2021-08-05T07:21:27Z</time>
      </trkpt>
      <trkpt lat="42.93099" lon="0.29374">
        <ele>1157.8</ele>
        <time>2021-08-05T07:21:28Z</time>
      </trkpt>
      <trkpt lat="42.93097" lon="0.29374">
        <ele>1157.8</ele>
        <time>2021-08-05T07:21:29Z</time>
      </trkpt>
      <trkpt lat="42.93095" lon="0.29374">
        <ele>1157.8</ele>
        <time>2021-08-05T07:21:30Z</time>
      </trkpt>
      <trkpt lat="42.93094" lon="0.29374">
        <ele>1158</ele>
        <time>2021-08-05T07:21:31Z</time>
      </trkpt>
      <trkpt lat="42.93092" lon="0.29374">
        <ele>1158.2</ele>
        <time>2021-08-05T07:21:32Z</time>
      </trkpt>
      <trkpt lat="42.9309" lon="0.29373">
        <ele>1158.2</ele>
        <time>2021-08-05T07:21:33Z</time>
      </trkpt>
      <trkpt lat="42.93087" lon="0.29373">
        <ele>1158.6</ele>
        <time>2021-08-05T07:21:34Z</time>
      </trkpt>
      <trkpt lat="42.93083" lon="0.29374">
        <ele>1158.8</ele>
        <time>2021-08-05T07:21:35Z</time>
      </trkpt>
      <trkpt lat="42.93081" lon="0.29375">
        <ele>1159</ele>
        <time>2021-08-05T07:21:36Z</time>
      </trkpt>
      <trkpt lat="42.93079" lon="0.29376">
        <ele>1159</ele>
        <time>2021-08-05T07:21:37Z</time>
      </trkpt>
      <trkpt lat="42.93077" lon="0.29376">
        <ele>1159.2</ele>
        <time>2021-08-05T07:21:38Z</time>
      </trkpt>
      <trkpt lat="42.93074" lon="0.29376">
        <ele>1159.4</ele>
        <time>2021-08-05T07:21:39Z</time>
      </trkpt>
      <trkpt lat="42.93072" lon="0.29376">
        <ele>1159.4</ele>
        <time>2021-08-05T07:21:40Z</time>
      </trkpt>
      <trkpt lat="42.9307" lon="0.29377">
        <ele>1159.6</ele>
        <time>2021-08-05T07:21:41Z</time>
      </trkpt>
      <trkpt lat="42.93067" lon="0.29377">
        <ele>1159.6</ele>
        <time>2021-08-05T07:21:42Z</time>
      </trkpt>
      <trkpt lat="42.93065" lon="0.29377">
        <ele>1159.8</ele>
        <time>2021-08-05T07:21:43Z</time>
      </trkpt>
      <trkpt lat="42.93062" lon="0.29377">
        <ele>1159.8</ele>
        <time>2021-08-05T07:21:44Z</time>
      </trkpt>
      <trkpt lat="42.9306" lon="0.29377">
        <ele>1160</ele>
        <time>2021-08-05T07:21:45Z</time>
      </trkpt>
      <trkpt lat="42.93057" lon="0.29377">
        <ele>1160</ele>
        <time>2021-08-05T07:21:46Z</time>
      </trkpt>
      <trkpt lat="42.93054" lon="0.29378">
        <ele>1160.2</ele>
        <time>2021-08-05T07:21:47Z</time>
      </trkpt>
      <trkpt lat="42.93052" lon="0.29379">
        <ele>1160.4</ele>
        <time>2021-08-05T07:21:48Z</time>
      </trkpt>
      <trkpt lat="42.93049" lon="0.29379">
        <ele>1160.8</ele>
        <time>2021-08-05T07:21:49Z</time>
      </trkpt>
      <trkpt lat="42.93046" lon="0.2938">
        <ele>1160.8</ele>
        <time>2021-08-05T07:21:50Z</time>
      </trkpt>
      <trkpt lat="42.93044" lon="0.2938">
        <ele>1161</ele>
        <time>2021-08-05T07:21:51Z</time>
      </trkpt>
      <trkpt lat="42.93042" lon="0.29379">
        <ele>1161</ele>
        <time>2021-08-05T07:21:52Z</time>
      </trkpt>
      <trkpt lat="42.9304" lon="0.29379">
        <ele>1161.2</ele>
        <time>2021-08-05T07:21:53Z</time>
      </trkpt>
      <trkpt lat="42.93037" lon="0.29378">
        <ele>1161.4</ele>
        <time>2021-08-05T07:21:54Z</time>
      </trkpt>
      <trkpt lat="42.93035" lon="0.29378">
        <ele>1161.6</ele>
        <time>2021-08-05T07:21:55Z</time>
      </trkpt>
      <trkpt lat="42.93032" lon="0.29378">
        <ele>1161.6</ele>
        <time>2021-08-05T07:21:56Z</time>
      </trkpt>
      <trkpt lat="42.93029" lon="0.29378">
        <ele>1161.8</ele>
        <time>2021-08-05T07:21:57Z</time>
      </trkpt>
      <trkpt lat="42.93026" lon="0.29378">
        <ele>1161.8</ele>
        <time>2021-08-05T07:21:58Z</time>
      </trkpt>
      <trkpt lat="42.93024" lon="0.29377">
        <ele>1162</ele>
        <time>2021-08-05T07:21:59Z</time>
      </trkpt>
      <trkpt lat="42.93021" lon="0.29377">
        <ele>1162.4</ele>
        <time>2021-08-05T07:22:00Z</time>
      </trkpt>
      <trkpt lat="42.93018" lon="0.29376">
        <ele>1162.4</ele>
        <time>2021-08-05T07:22:01Z</time>
      </trkpt>
      <trkpt lat="42.93016" lon="0.29376">
        <ele>1162.6</ele>
        <time>2021-08-05T07:22:02Z</time>
      </trkpt>
      <trkpt lat="42.93013" lon="0.29376">
        <ele>1162.6</ele>
        <time>2021-08-05T07:22:03Z</time>
      </trkpt>
      <trkpt lat="42.9301" lon="0.29376">
        <ele>1163</ele>
        <time>2021-08-05T07:22:04Z</time>
      </trkpt>
      <trkpt lat="42.93008" lon="0.29376">
        <ele>1163</ele>
        <time>2021-08-05T07:22:05Z</time>
      </trkpt>
      <trkpt lat="42.93006" lon="0.29375">
        <ele>1163.2</ele>
        <time>2021-08-05T07:22:06Z</time>
      </trkpt>
      <trkpt lat="42.93003" lon="0.29375">
        <ele>1163.2</ele>
        <time>2021-08-05T07:22:07Z</time>
      </trkpt>
      <trkpt lat="42.93001" lon="0.29375">
        <ele>1163.6</ele>
        <time>2021-08-05T07:22:08Z</time>
      </trkpt>
      <trkpt lat="42.92998" lon="0.29375">
        <ele>1163.8</ele>
        <time>2021-08-05T07:22:09Z</time>
      </trkpt>
      <trkpt lat="42.92995" lon="0.29374">
        <ele>1164</ele>
        <time>2021-08-05T07:22:10Z</time>
      </trkpt>
      <trkpt lat="42.92992" lon="0.29374">
        <ele>1164</ele>
        <time>2021-08-05T07:22:11Z</time>
      </trkpt>
      <trkpt lat="42.92989" lon="0.29374">
        <ele>1164.2</ele>
        <time>2021-08-05T07:22:12Z</time>
      </trkpt>
      <trkpt lat="42.92986" lon="0.29374">
        <ele>1164.4</ele>
        <time>2021-08-05T07:22:13Z</time>
      </trkpt>
      <trkpt lat="42.92983" lon="0.29374">
        <ele>1164.6</ele>
        <time>2021-08-05T07:22:14Z</time>
      </trkpt>
      <trkpt lat="42.92981" lon="0.29374">
        <ele>1164.8</ele>
        <time>2021-08-05T07:22:15Z</time>
      </trkpt>
      <trkpt lat="42.92978" lon="0.29374">
        <ele>1164.8</ele>
        <time>2021-08-05T07:22:16Z</time>
      </trkpt>
      <trkpt lat="42.92975" lon="0.29374">
        <ele>1165</ele>
        <time>2021-08-05T07:22:17Z</time>
      </trkpt>
      <trkpt lat="42.92973" lon="0.29374">
        <ele>1165.2</ele>
        <time>2021-08-05T07:22:18Z</time>
      </trkpt>
      <trkpt lat="42.92971" lon="0.29374">
        <ele>1165.2</ele>
        <time>2021-08-05T07:22:19Z</time>
      </trkpt>
      <trkpt lat="42.92968" lon="0.29374">
        <ele>1165.4</ele>
        <time>2021-08-05T07:22:20Z</time>
      </trkpt>
      <trkpt lat="42.92966" lon="0.29374">
        <ele>1165.2</ele>
        <time>2021-08-05T07:22:21Z</time>
      </trkpt>
      <trkpt lat="42.92964" lon="0.29374">
        <ele>1165.4</ele>
        <time>2021-08-05T07:22:22Z</time>
      </trkpt>
      <trkpt lat="42.92962" lon="0.29374">
        <ele>1165.6</ele>
        <time>2021-08-05T07:22:23Z</time>
      </trkpt>
      <trkpt lat="42.9296" lon="0.29374">
        <ele>1165.8</ele>
        <time>2021-08-05T07:22:24Z</time>
      </trkpt>
      <trkpt lat="42.92958" lon="0.29374">
        <ele>1166.2</ele>
        <time>2021-08-05T07:22:25Z</time>
      </trkpt>
      <trkpt lat="42.92956" lon="0.29374">
        <ele>1166.2</ele>
        <time>2021-08-05T07:22:26Z</time>
      </trkpt>
      <trkpt lat="42.92954" lon="0.29374">
        <ele>1166.6</ele>
        <time>2021-08-05T07:22:27Z</time>
      </trkpt>
      <trkpt lat="42.92952" lon="0.29374">
        <ele>1166.8</ele>
        <time>2021-08-05T07:22:28Z</time>
      </trkpt>
      <trkpt lat="42.9295" lon="0.29373">
        <ele>1167</ele>
        <time>2021-08-05T07:22:29Z</time>
      </trkpt>
      <trkpt lat="42.92947" lon="0.29373">
        <ele>1167.2</ele>
        <time>2021-08-05T07:22:30Z</time>
      </trkpt>
      <trkpt lat="42.92945" lon="0.29373">
        <ele>1167.4</ele>
        <time>2021-08-05T07:22:31Z</time>
      </trkpt>
      <trkpt lat="42.92942" lon="0.29373">
        <ele>1167.6</ele>
        <time>2021-08-05T07:22:32Z</time>
      </trkpt>
      <trkpt lat="42.9294" lon="0.29373">
        <ele>1167.6</ele>
        <time>2021-08-05T07:22:33Z</time>
      </trkpt>
      <trkpt lat="42.92938" lon="0.29372">
        <ele>1168</ele>
        <time>2021-08-05T07:22:34Z</time>
      </trkpt>
      <trkpt lat="42.92936" lon="0.29372">
        <ele>1168.2</ele>
        <time>2021-08-05T07:22:35Z</time>
      </trkpt>
      <trkpt lat="42.92933" lon="0.29372">
        <ele>1168.2</ele>
        <time>2021-08-05T07:22:36Z</time>
      </trkpt>
      <trkpt lat="42.92931" lon="0.29371">
        <ele>1168.4</ele>
        <time>2021-08-05T07:22:37Z</time>
      </trkpt>
      <trkpt lat="42.92929" lon="0.29371">
        <ele>1168.6</ele>
        <time>2021-08-05T07:22:38Z</time>
      </trkpt>
      <trkpt lat="42.92927" lon="0.29371">
        <ele>1168.6</ele>
        <time>2021-08-05T07:22:39Z</time>
      </trkpt>
      <trkpt lat="42.92924" lon="0.2937">
        <ele>1168.8</ele>
        <time>2021-08-05T07:22:40Z</time>
      </trkpt>
      <trkpt lat="42.92922" lon="0.29369">
        <ele>1169</ele>
        <time>2021-08-05T07:22:41Z</time>
      </trkpt>
      <trkpt lat="42.9292" lon="0.29369">
        <ele>1169.2</ele>
        <time>2021-08-05T07:22:42Z</time>
      </trkpt>
      <trkpt lat="42.92917" lon="0.29368">
        <ele>1169.4</ele>
        <time>2021-08-05T07:22:43Z</time>
      </trkpt>
      <trkpt lat="42.92915" lon="0.29367">
        <ele>1169.6</ele>
        <time>2021-08-05T07:22:44Z</time>
      </trkpt>
      <trkpt lat="42.92913" lon="0.29367">
        <ele>1169.6</ele>
        <time>2021-08-05T07:22:45Z</time>
      </trkpt>
      <trkpt lat="42.9291" lon="0.29366">
        <ele>1169.8</ele>
        <time>2021-08-05T07:22:46Z</time>
      </trkpt>
      <trkpt lat="42.92908" lon="0.29365">
        <ele>1170</ele>
        <time>2021-08-05T07:22:47Z</time>
      </trkpt>
      <trkpt lat="42.92906" lon="0.29364">
        <ele>1170.2</ele>
        <time>2021-08-05T07:22:48Z</time>
      </trkpt>
      <trkpt lat="42.92903" lon="0.29364">
        <ele>1170.6</ele>
        <time>2021-08-05T07:22:49Z</time>
      </trkpt>
      <trkpt lat="42.929" lon="0.29364">
        <ele>1170.8</ele>
        <time>2021-08-05T07:22:50Z</time>
      </trkpt>
      <trkpt lat="42.92898" lon="0.29364">
        <ele>1171</ele>
        <time>2021-08-05T07:22:51Z</time>
      </trkpt>
      <trkpt lat="42.92896" lon="0.29364">
        <ele>1171</ele>
        <time>2021-08-05T07:22:52Z</time>
      </trkpt>
      <trkpt lat="42.92893" lon="0.29364">
        <ele>1171.4</ele>
        <time>2021-08-05T07:22:53Z</time>
      </trkpt>
      <trkpt lat="42.9289" lon="0.29363">
        <ele>1171.4</ele>
        <time>2021-08-05T07:22:54Z</time>
      </trkpt>
      <trkpt lat="42.92888" lon="0.29363">
        <ele>1171.8</ele>
        <time>2021-08-05T07:22:55Z</time>
      </trkpt>
      <trkpt lat="42.92885" lon="0.29363">
        <ele>1172</ele>
        <time>2021-08-05T07:22:56Z</time>
      </trkpt>
      <trkpt lat="42.92883" lon="0.29362">
        <ele>1172.2</ele>
        <time>2021-08-05T07:22:57Z</time>
      </trkpt>
      <trkpt lat="42.92881" lon="0.29361">
        <ele>1172.4</ele>
        <time>2021-08-05T07:22:58Z</time>
      </trkpt>
      <trkpt lat="42.92878" lon="0.29359">
        <ele>1172.8</ele>
        <time>2021-08-05T07:22:59Z</time>
      </trkpt>
      <trkpt lat="42.92875" lon="0.29358">
        <ele>1172.8</ele>
        <time>2021-08-05T07:23:00Z</time>
      </trkpt>
      <trkpt lat="42.92873" lon="0.29357">
        <ele>1173.2</ele>
        <time>2021-08-05T07:23:01Z</time>
      </trkpt>
      <trkpt lat="42.9287" lon="0.29358">
        <ele>1173.2</ele>
        <time>2021-08-05T07:23:02Z</time>
      </trkpt>
      <trkpt lat="42.92868" lon="0.29357">
        <ele>1173.4</ele>
        <time>2021-08-05T07:23:03Z</time>
      </trkpt>
      <trkpt lat="42.92865" lon="0.29357">
        <ele>1173.6</ele>
        <time>2021-08-05T07:23:04Z</time>
      </trkpt>
      <trkpt lat="42.92863" lon="0.29356">
        <ele>1173.6</ele>
        <time>2021-08-05T07:23:05Z</time>
      </trkpt>
      <trkpt lat="42.92861" lon="0.29356">
        <ele>1173.8</ele>
        <time>2021-08-05T07:23:06Z</time>
      </trkpt>
      <trkpt lat="42.92859" lon="0.29356">
        <ele>1174</ele>
        <time>2021-08-05T07:23:07Z</time>
      </trkpt>
      <trkpt lat="42.92857" lon="0.29355">
        <ele>1174.4</ele>
        <time>2021-08-05T07:23:08Z</time>
      </trkpt>
      <trkpt lat="42.92855" lon="0.29355">
        <ele>1174.6</ele>
        <time>2021-08-05T07:23:09Z</time>
      </trkpt>
      <trkpt lat="42.92852" lon="0.29355">
        <ele>1175</ele>
        <time>2021-08-05T07:23:10Z</time>
      </trkpt>
      <trkpt lat="42.9285" lon="0.29355">
        <ele>1175.2</ele>
        <time>2021-08-05T07:23:11Z</time>
      </trkpt>
      <trkpt lat="42.92848" lon="0.29355">
        <ele>1175.4</ele>
        <time>2021-08-05T07:23:12Z</time>
      </trkpt>
      <trkpt lat="42.92846" lon="0.29354">
        <ele>1175.6</ele>
        <time>2021-08-05T07:23:13Z</time>
      </trkpt>
      <trkpt lat="42.92844" lon="0.29354">
        <ele>1176</ele>
        <time>2021-08-05T07:23:14Z</time>
      </trkpt>
      <trkpt lat="42.92842" lon="0.29354">
        <ele>1176.2</ele>
        <time>2021-08-05T07:23:15Z</time>
      </trkpt>
      <trkpt lat="42.9284" lon="0.29354">
        <ele>1176.6</ele>
        <time>2021-08-05T07:23:16Z</time>
      </trkpt>
      <trkpt lat="42.92838" lon="0.29354">
        <ele>1176.6</ele>
        <time>2021-08-05T07:23:17Z</time>
      </trkpt>
      <trkpt lat="42.92836" lon="0.29355">
        <ele>1177.2</ele>
        <time>2021-08-05T07:23:18Z</time>
      </trkpt>
      <trkpt lat="42.92833" lon="0.29354">
        <ele>1177.2</ele>
        <time>2021-08-05T07:23:19Z</time>
      </trkpt>
      <trkpt lat="42.92831" lon="0.29354">
        <ele>1177.6</ele>
        <time>2021-08-05T07:23:20Z</time>
      </trkpt>
      <trkpt lat="42.92829" lon="0.29354">
        <ele>1177.8</ele>
        <time>2021-08-05T07:23:21Z</time>
      </trkpt>
      <trkpt lat="42.92827" lon="0.29354">
        <ele>1178.2</ele>
        <time>2021-08-05T07:23:22Z</time>
      </trkpt>
      <trkpt lat="42.92826" lon="0.29354">
        <ele>1178.2</ele>
        <time>2021-08-05T07:23:23Z</time>
      </trkpt>
      <trkpt lat="42.92825" lon="0.29355">
        <ele>1178.8</ele>
        <time>2021-08-05T07:23:24Z</time>
      </trkpt>
      <trkpt lat="42.92822" lon="0.29355">
        <ele>1179</ele>
        <time>2021-08-05T07:23:25Z</time>
      </trkpt>
      <trkpt lat="42.9282" lon="0.29355">
        <ele>1179.2</ele>
        <time>2021-08-05T07:23:26Z</time>
      </trkpt>
      <trkpt lat="42.92818" lon="0.29356">
        <ele>1179.4</ele>
        <time>2021-08-05T07:23:27Z</time>
      </trkpt>
      <trkpt lat="42.92816" lon="0.29356">
        <ele>1179.6</ele>
        <time>2021-08-05T07:23:28Z</time>
      </trkpt>
      <trkpt lat="42.92813" lon="0.29357">
        <ele>1180</ele>
        <time>2021-08-05T07:23:29Z</time>
      </trkpt>
      <trkpt lat="42.92811" lon="0.29357">
        <ele>1180.2</ele>
        <time>2021-08-05T07:23:30Z</time>
      </trkpt>
      <trkpt lat="42.9281" lon="0.29357">
        <ele>1180.6</ele>
        <time>2021-08-05T07:23:31Z</time>
      </trkpt>
      <trkpt lat="42.92808" lon="0.29357">
        <ele>1180.8</ele>
        <time>2021-08-05T07:23:32Z</time>
      </trkpt>
      <trkpt lat="42.92806" lon="0.29357">
        <ele>1181</ele>
        <time>2021-08-05T07:23:33Z</time>
      </trkpt>
      <trkpt lat="42.92805" lon="0.29358">
        <ele>1181.2</ele>
        <time>2021-08-05T07:23:34Z</time>
      </trkpt>
      <trkpt lat="42.92803" lon="0.29358">
        <ele>1181.4</ele>
        <time>2021-08-05T07:23:35Z</time>
      </trkpt>
      <trkpt lat="42.92802" lon="0.29358">
        <ele>1181.6</ele>
        <time>2021-08-05T07:23:36Z</time>
      </trkpt>
      <trkpt lat="42.928" lon="0.29358">
        <ele>1182</ele>
        <time>2021-08-05T07:23:37Z</time>
      </trkpt>
      <trkpt lat="42.92799" lon="0.29358">
        <ele>1182.2</ele>
        <time>2021-08-05T07:23:38Z</time>
      </trkpt>
      <trkpt lat="42.92797" lon="0.29357">
        <ele>1182.6</ele>
        <time>2021-08-05T07:23:39Z</time>
      </trkpt>
      <trkpt lat="42.92795" lon="0.29358">
        <ele>1182.6</ele>
        <time>2021-08-05T07:23:40Z</time>
      </trkpt>
      <trkpt lat="42.92793" lon="0.29357">
        <ele>1183</ele>
        <time>2021-08-05T07:23:41Z</time>
      </trkpt>
      <trkpt lat="42.92791" lon="0.29357">
        <ele>1183.2</ele>
        <time>2021-08-05T07:23:42Z</time>
      </trkpt>
      <trkpt lat="42.92789" lon="0.29357">
        <ele>1183.4</ele>
        <time>2021-08-05T07:23:43Z</time>
      </trkpt>
      <trkpt lat="42.92787" lon="0.29357">
        <ele>1183.6</ele>
        <time>2021-08-05T07:23:44Z</time>
      </trkpt>
      <trkpt lat="42.92785" lon="0.29358">
        <ele>1183.6</ele>
        <time>2021-08-05T07:23:45Z</time>
      </trkpt>
      <trkpt lat="42.92784" lon="0.29357">
        <ele>1184</ele>
        <time>2021-08-05T07:23:46Z</time>
      </trkpt>
      <trkpt lat="42.92782" lon="0.29357">
        <ele>1184.2</ele>
        <time>2021-08-05T07:23:47Z</time>
      </trkpt>
      <trkpt lat="42.9278" lon="0.29357">
        <ele>1184.4</ele>
        <time>2021-08-05T07:23:48Z</time>
      </trkpt>
      <trkpt lat="42.92778" lon="0.29357">
        <ele>1184.6</ele>
        <time>2021-08-05T07:23:49Z</time>
      </trkpt>
      <trkpt lat="42.92776" lon="0.29357">
        <ele>1184.8</ele>
        <time>2021-08-05T07:23:50Z</time>
      </trkpt>
      <trkpt lat="42.92774" lon="0.29357">
        <ele>1185</ele>
        <time>2021-08-05T07:23:51Z</time>
      </trkpt>
      <trkpt lat="42.92772" lon="0.29357">
        <ele>1185.2</ele>
        <time>2021-08-05T07:23:52Z</time>
      </trkpt>
      <trkpt lat="42.92769" lon="0.29357">
        <ele>1185.4</ele>
        <time>2021-08-05T07:23:53Z</time>
      </trkpt>
      <trkpt lat="42.92767" lon="0.29357">
        <ele>1185.6</ele>
        <time>2021-08-05T07:23:54Z</time>
      </trkpt>
      <trkpt lat="42.92765" lon="0.29356">
        <ele>1185.6</ele>
        <time>2021-08-05T07:23:55Z</time>
      </trkpt>
      <trkpt lat="42.92763" lon="0.29356">
        <ele>1186</ele>
        <time>2021-08-05T07:23:56Z</time>
      </trkpt>
      <trkpt lat="42.9276" lon="0.29355">
        <ele>1186.2</ele>
        <time>2021-08-05T07:23:57Z</time>
      </trkpt>
      <trkpt lat="42.92758" lon="0.29354">
        <ele>1186.4</ele>
        <time>2021-08-05T07:23:58Z</time>
      </trkpt>
      <trkpt lat="42.92756" lon="0.29353">
        <ele>1186.6</ele>
        <time>2021-08-05T07:23:59Z</time>
      </trkpt>
      <trkpt lat="42.92753" lon="0.29352">
        <ele>1186.8</ele>
        <time>2021-08-05T07:24:00Z</time>
      </trkpt>
      <trkpt lat="42.9275" lon="0.29351">
        <ele>1187</ele>
        <time>2021-08-05T07:24:01Z</time>
      </trkpt>
      <trkpt lat="42.92748" lon="0.29351">
        <ele>1187.2</ele>
        <time>2021-08-05T07:24:02Z</time>
      </trkpt>
      <trkpt lat="42.92745" lon="0.2935">
        <ele>1187.4</ele>
        <time>2021-08-05T07:24:03Z</time>
      </trkpt>
      <trkpt lat="42.92744" lon="0.29349">
        <ele>1187.4</ele>
        <time>2021-08-05T07:24:04Z</time>
      </trkpt>
      <trkpt lat="42.92742" lon="0.29348">
        <ele>1187.6</ele>
        <time>2021-08-05T07:24:05Z</time>
      </trkpt>
      <trkpt lat="42.92741" lon="0.29347">
        <ele>1187.8</ele>
        <time>2021-08-05T07:24:06Z</time>
      </trkpt>
      <trkpt lat="42.9274" lon="0.29347">
        <ele>1188.2</ele>
        <time>2021-08-05T07:24:07Z</time>
      </trkpt>
      <trkpt lat="42.92738" lon="0.29347">
        <ele>1188.2</ele>
        <time>2021-08-05T07:24:08Z</time>
      </trkpt>
      <trkpt lat="42.92736" lon="0.29346">
        <ele>1188.4</ele>
        <time>2021-08-05T07:24:09Z</time>
      </trkpt>
      <trkpt lat="42.92734" lon="0.29345">
        <ele>1188.6</ele>
        <time>2021-08-05T07:24:10Z</time>
      </trkpt>
      <trkpt lat="42.92732" lon="0.29344">
        <ele>1188.8</ele>
        <time>2021-08-05T07:24:11Z</time>
      </trkpt>
      <trkpt lat="42.92729" lon="0.29344">
        <ele>1189</ele>
        <time>2021-08-05T07:24:12Z</time>
      </trkpt>
      <trkpt lat="42.92727" lon="0.29343">
        <ele>1189.2</ele>
        <time>2021-08-05T07:24:13Z</time>
      </trkpt>
      <trkpt lat="42.92725" lon="0.29342">
        <ele>1189.2</ele>
        <time>2021-08-05T07:24:14Z</time>
      </trkpt>
      <trkpt lat="42.92723" lon="0.29342">
        <ele>1189.4</ele>
        <time>2021-08-05T07:24:15Z</time>
      </trkpt>
      <trkpt lat="42.92721" lon="0.29341">
        <ele>1189.6</ele>
        <time>2021-08-05T07:24:16Z</time>
      </trkpt>
      <trkpt lat="42.92719" lon="0.2934">
        <ele>1189.6</ele>
        <time>2021-08-05T07:24:17Z</time>
      </trkpt>
      <trkpt lat="42.92717" lon="0.2934">
        <ele>1189.8</ele>
        <time>2021-08-05T07:24:18Z</time>
      </trkpt>
      <trkpt lat="42.92715" lon="0.29339">
        <ele>1190</ele>
        <time>2021-08-05T07:24:19Z</time>
      </trkpt>
      <trkpt lat="42.92713" lon="0.29339">
        <ele>1190</ele>
        <time>2021-08-05T07:24:20Z</time>
      </trkpt>
      <trkpt lat="42.92711" lon="0.29339">
        <ele>1190.2</ele>
        <time>2021-08-05T07:24:21Z</time>
      </trkpt>
      <trkpt lat="42.92709" lon="0.29338">
        <ele>1190.4</ele>
        <time>2021-08-05T07:24:22Z</time>
      </trkpt>
      <trkpt lat="42.92707" lon="0.29337">
        <ele>1190.4</ele>
        <time>2021-08-05T07:24:23Z</time>
      </trkpt>
      <trkpt lat="42.92705" lon="0.29337">
        <ele>1190.4</ele>
        <time>2021-08-05T07:24:24Z</time>
      </trkpt>
      <trkpt lat="42.92703" lon="0.29336">
        <ele>1190.6</ele>
        <time>2021-08-05T07:24:25Z</time>
      </trkpt>
      <trkpt lat="42.92701" lon="0.29335">
        <ele>1190.8</ele>
        <time>2021-08-05T07:24:26Z</time>
      </trkpt>
      <trkpt lat="42.927" lon="0.29334">
        <ele>1190.8</ele>
        <time>2021-08-05T07:24:27Z</time>
      </trkpt>
      <trkpt lat="42.92698" lon="0.29334">
        <ele>1191</ele>
        <time>2021-08-05T07:24:28Z</time>
      </trkpt>
      <trkpt lat="42.92696" lon="0.29333">
        <ele>1191.2</ele>
        <time>2021-08-05T07:24:29Z</time>
      </trkpt>
      <trkpt lat="42.92694" lon="0.29332">
        <ele>1191.4</ele>
        <time>2021-08-05T07:24:30Z</time>
      </trkpt>
      <trkpt lat="42.92692" lon="0.29331">
        <ele>1191.6</ele>
        <time>2021-08-05T07:24:31Z</time>
      </trkpt>
      <trkpt lat="42.9269" lon="0.29331">
        <ele>1191.8</ele>
        <time>2021-08-05T07:24:32Z</time>
      </trkpt>
      <trkpt lat="42.92688" lon="0.29331">
        <ele>1191.8</ele>
        <time>2021-08-05T07:24:33Z</time>
      </trkpt>
      <trkpt lat="42.92686" lon="0.2933">
        <ele>1192</ele>
        <time>2021-08-05T07:24:34Z</time>
      </trkpt>
      <trkpt lat="42.92684" lon="0.2933">
        <ele>1192.2</ele>
        <time>2021-08-05T07:24:35Z</time>
      </trkpt>
      <trkpt lat="42.92682" lon="0.2933">
        <ele>1192.2</ele>
        <time>2021-08-05T07:24:36Z</time>
      </trkpt>
      <trkpt lat="42.9268" lon="0.2933">
        <ele>1192.2</ele>
        <time>2021-08-05T07:24:37Z</time>
      </trkpt>
      <trkpt lat="42.92678" lon="0.2933">
        <ele>1192.4</ele>
        <time>2021-08-05T07:24:38Z</time>
      </trkpt>
      <trkpt lat="42.92677" lon="0.2933">
        <ele>1192.6</ele>
        <time>2021-08-05T07:24:39Z</time>
      </trkpt>
      <trkpt lat="42.92675" lon="0.29331">
        <ele>1192.8</ele>
        <time>2021-08-05T07:24:40Z</time>
      </trkpt>
      <trkpt lat="42.92674" lon="0.2933">
        <ele>1193.2</ele>
        <time>2021-08-05T07:24:41Z</time>
      </trkpt>
      <trkpt lat="42.92672" lon="0.2933">
        <ele>1193.4</ele>
        <time>2021-08-05T07:24:42Z</time>
      </trkpt>
      <trkpt lat="42.9267" lon="0.29329">
        <ele>1193.6</ele>
        <time>2021-08-05T07:24:43Z</time>
      </trkpt>
      <trkpt lat="42.92668" lon="0.29328">
        <ele>1193.6</ele>
        <time>2021-08-05T07:24:44Z</time>
      </trkpt>
      <trkpt lat="42.92666" lon="0.29326">
        <ele>1193.8</ele>
        <time>2021-08-05T07:24:45Z</time>
      </trkpt>
      <trkpt lat="42.92663" lon="0.29325">
        <ele>1193.8</ele>
        <time>2021-08-05T07:24:46Z</time>
      </trkpt>
      <trkpt lat="42.92662" lon="0.29323">
        <ele>1194</ele>
        <time>2021-08-05T07:24:47Z</time>
      </trkpt>
      <trkpt lat="42.92659" lon="0.29323">
        <ele>1194.2</ele>
        <time>2021-08-05T07:24:48Z</time>
      </trkpt>
      <trkpt lat="42.92657" lon="0.29322">
        <ele>1194.2</ele>
        <time>2021-08-05T07:24:49Z</time>
      </trkpt>
      <trkpt lat="42.92655" lon="0.29321">
        <ele>1194.4</ele>
        <time>2021-08-05T07:24:50Z</time>
      </trkpt>
      <trkpt lat="42.92653" lon="0.29321">
        <ele>1194.6</ele>
        <time>2021-08-05T07:24:51Z</time>
      </trkpt>
      <trkpt lat="42.92651" lon="0.2932">
        <ele>1194.6</ele>
        <time>2021-08-05T07:24:52Z</time>
      </trkpt>
      <trkpt lat="42.92649" lon="0.29319">
        <ele>1195</ele>
        <time>2021-08-05T07:24:53Z</time>
      </trkpt>
      <trkpt lat="42.92647" lon="0.29319">
        <ele>1195.2</ele>
        <time>2021-08-05T07:24:54Z</time>
      </trkpt>
      <trkpt lat="42.92645" lon="0.29318">
        <ele>1195.4</ele>
        <time>2021-08-05T07:24:55Z</time>
      </trkpt>
      <trkpt lat="42.92643" lon="0.29318">
        <ele>1195.6</ele>
        <time>2021-08-05T07:24:56Z</time>
      </trkpt>
      <trkpt lat="42.92641" lon="0.29317">
        <ele>1195.8</ele>
        <time>2021-08-05T07:24:57Z</time>
      </trkpt>
      <trkpt lat="42.92639" lon="0.29317">
        <ele>1195.8</ele>
        <time>2021-08-05T07:24:58Z</time>
      </trkpt>
      <trkpt lat="42.92637" lon="0.29317">
        <ele>1196.2</ele>
        <time>2021-08-05T07:24:59Z</time>
      </trkpt>
      <trkpt lat="42.92635" lon="0.29316">
        <ele>1196.6</ele>
        <time>2021-08-05T07:25:00Z</time>
      </trkpt>
      <trkpt lat="42.92634" lon="0.29315">
        <ele>1196.6</ele>
        <time>2021-08-05T07:25:01Z</time>
      </trkpt>
      <trkpt lat="42.92632" lon="0.29314">
        <ele>1196.8</ele>
        <time>2021-08-05T07:25:02Z</time>
      </trkpt>
      <trkpt lat="42.9263" lon="0.29314">
        <ele>1196.8</ele>
        <time>2021-08-05T07:25:03Z</time>
      </trkpt>
      <trkpt lat="42.92629" lon="0.29314">
        <ele>1197.2</ele>
        <time>2021-08-05T07:25:04Z</time>
      </trkpt>
      <trkpt lat="42.92627" lon="0.29314">
        <ele>1197.2</ele>
        <time>2021-08-05T07:25:05Z</time>
      </trkpt>
      <trkpt lat="42.92625" lon="0.29314">
        <ele>1197.6</ele>
        <time>2021-08-05T07:25:06Z</time>
      </trkpt>
      <trkpt lat="42.92623" lon="0.29314">
        <ele>1197.6</ele>
        <time>2021-08-05T07:25:07Z</time>
      </trkpt>
      <trkpt lat="42.92621" lon="0.29313">
        <ele>1197.6</ele>
        <time>2021-08-05T07:25:08Z</time>
      </trkpt>
      <trkpt lat="42.92619" lon="0.29313">
        <ele>1197.8</ele>
        <time>2021-08-05T07:25:09Z</time>
      </trkpt>
      <trkpt lat="42.92617" lon="0.29312">
        <ele>1198.2</ele>
        <time>2021-08-05T07:25:10Z</time>
      </trkpt>
      <trkpt lat="42.92616" lon="0.29311">
        <ele>1198.2</ele>
        <time>2021-08-05T07:25:11Z</time>
      </trkpt>
      <trkpt lat="42.92614" lon="0.2931">
        <ele>1198.6</ele>
        <time>2021-08-05T07:25:12Z</time>
      </trkpt>
      <trkpt lat="42.92612" lon="0.2931">
        <ele>1198.6</ele>
        <time>2021-08-05T07:25:13Z</time>
      </trkpt>
      <trkpt lat="42.92611" lon="0.29309">
        <ele>1198.8</ele>
        <time>2021-08-05T07:25:14Z</time>
      </trkpt>
      <trkpt lat="42.92609" lon="0.29309">
        <ele>1199</ele>
        <time>2021-08-05T07:25:15Z</time>
      </trkpt>
      <trkpt lat="42.92607" lon="0.29308">
        <ele>1199.4</ele>
        <time>2021-08-05T07:25:16Z</time>
      </trkpt>
      <trkpt lat="42.92606" lon="0.29307">
        <ele>1199.6</ele>
        <time>2021-08-05T07:25:17Z</time>
      </trkpt>
      <trkpt lat="42.92604" lon="0.29306">
        <ele>1199.6</ele>
        <time>2021-08-05T07:25:18Z</time>
      </trkpt>
      <trkpt lat="42.92602" lon="0.29306">
        <ele>1200</ele>
        <time>2021-08-05T07:25:19Z</time>
      </trkpt>
      <trkpt lat="42.926" lon="0.29305">
        <ele>1200</ele>
        <time>2021-08-05T07:25:20Z</time>
      </trkpt>
      <trkpt lat="42.92598" lon="0.29305">
        <ele>1200.2</ele>
        <time>2021-08-05T07:25:21Z</time>
      </trkpt>
      <trkpt lat="42.92596" lon="0.29304">
        <ele>1200.4</ele>
        <time>2021-08-05T07:25:22Z</time>
      </trkpt>
      <trkpt lat="42.92594" lon="0.29302">
        <ele>1200.6</ele>
        <time>2021-08-05T07:25:23Z</time>
      </trkpt>
      <trkpt lat="42.92593" lon="0.293">
        <ele>1200.6</ele>
        <time>2021-08-05T07:25:24Z</time>
      </trkpt>
      <trkpt lat="42.92591" lon="0.29299">
        <ele>1201</ele>
        <time>2021-08-05T07:25:25Z</time>
      </trkpt>
      <trkpt lat="42.92589" lon="0.29298">
        <ele>1201</ele>
        <time>2021-08-05T07:25:26Z</time>
      </trkpt>
      <trkpt lat="42.92587" lon="0.29297">
        <ele>1201.2</ele>
        <time>2021-08-05T07:25:27Z</time>
      </trkpt>
      <trkpt lat="42.92585" lon="0.29296">
        <ele>1201.2</ele>
        <time>2021-08-05T07:25:28Z</time>
      </trkpt>
      <trkpt lat="42.92583" lon="0.29295">
        <ele>1201.6</ele>
        <time>2021-08-05T07:25:29Z</time>
      </trkpt>
      <trkpt lat="42.92582" lon="0.29295">
        <ele>1201.6</ele>
        <time>2021-08-05T07:25:30Z</time>
      </trkpt>
      <trkpt lat="42.9258" lon="0.29294">
        <ele>1202</ele>
        <time>2021-08-05T07:25:31Z</time>
      </trkpt>
      <trkpt lat="42.92579" lon="0.29293">
        <ele>1202</ele>
        <time>2021-08-05T07:25:32Z</time>
      </trkpt>
      <trkpt lat="42.92578" lon="0.29292">
        <ele>1202.2</ele>
        <time>2021-08-05T07:25:33Z</time>
      </trkpt>
      <trkpt lat="42.92576" lon="0.29291">
        <ele>1202</ele>
        <time>2021-08-05T07:25:34Z</time>
      </trkpt>
      <trkpt lat="42.92575" lon="0.2929">
        <ele>1202.2</ele>
        <time>2021-08-05T07:25:35Z</time>
      </trkpt>
      <trkpt lat="42.92572" lon="0.29289">
        <ele>1202.6</ele>
        <time>2021-08-05T07:25:36Z</time>
      </trkpt>
      <trkpt lat="42.9257" lon="0.29289">
        <ele>1202.8</ele>
        <time>2021-08-05T07:25:37Z</time>
      </trkpt>
      <trkpt lat="42.92568" lon="0.29288">
        <ele>1203</ele>
        <time>2021-08-05T07:25:38Z</time>
      </trkpt>
      <trkpt lat="42.92566" lon="0.29287">
        <ele>1203.2</ele>
        <time>2021-08-05T07:25:39Z</time>
      </trkpt>
      <trkpt lat="42.92564" lon="0.29286">
        <ele>1203.6</ele>
        <time>2021-08-05T07:25:40Z</time>
      </trkpt>
      <trkpt lat="42.92562" lon="0.29285">
        <ele>1203.6</ele>
        <time>2021-08-05T07:25:41Z</time>
      </trkpt>
      <trkpt lat="42.92561" lon="0.29284">
        <ele>1203.8</ele>
        <time>2021-08-05T07:25:42Z</time>
      </trkpt>
      <trkpt lat="42.92559" lon="0.29284">
        <ele>1204</ele>
        <time>2021-08-05T07:25:43Z</time>
      </trkpt>
      <trkpt lat="42.92557" lon="0.29283">
        <ele>1204.2</ele>
        <time>2021-08-05T07:25:44Z</time>
      </trkpt>
      <trkpt lat="42.92555" lon="0.29283">
        <ele>1204.2</ele>
        <time>2021-08-05T07:25:45Z</time>
      </trkpt>
      <trkpt lat="42.92553" lon="0.29282">
        <ele>1204.6</ele>
        <time>2021-08-05T07:25:46Z</time>
      </trkpt>
      <trkpt lat="42.92551" lon="0.29282">
        <ele>1204.6</ele>
        <time>2021-08-05T07:25:47Z</time>
      </trkpt>
      <trkpt lat="42.92549" lon="0.29282">
        <ele>1204.8</ele>
        <time>2021-08-05T07:25:48Z</time>
      </trkpt>
      <trkpt lat="42.92547" lon="0.29281">
        <ele>1205</ele>
        <time>2021-08-05T07:25:49Z</time>
      </trkpt>
      <trkpt lat="42.92545" lon="0.2928">
        <ele>1205.2</ele>
        <time>2021-08-05T07:25:50Z</time>
      </trkpt>
      <trkpt lat="42.92544" lon="0.2928">
        <ele>1205.4</ele>
        <time>2021-08-05T07:25:51Z</time>
      </trkpt>
      <trkpt lat="42.92542" lon="0.29279">
        <ele>1205.4</ele>
        <time>2021-08-05T07:25:52Z</time>
      </trkpt>
      <trkpt lat="42.9254" lon="0.29278">
        <ele>1205.8</ele>
        <time>2021-08-05T07:25:53Z</time>
      </trkpt>
      <trkpt lat="42.92539" lon="0.29277">
        <ele>1205.8</ele>
        <time>2021-08-05T07:25:54Z</time>
      </trkpt>
      <trkpt lat="42.92538" lon="0.29277">
        <ele>1206</ele>
        <time>2021-08-05T07:25:55Z</time>
      </trkpt>
      <trkpt lat="42.92537" lon="0.29277">
        <ele>1206.2</ele>
        <time>2021-08-05T07:25:56Z</time>
      </trkpt>
      <trkpt lat="42.92534" lon="0.29277">
        <ele>1206.4</ele>
        <time>2021-08-05T07:25:57Z</time>
      </trkpt>
      <trkpt lat="42.92532" lon="0.29277">
        <ele>1206.6</ele>
        <time>2021-08-05T07:25:58Z</time>
      </trkpt>
      <trkpt lat="42.92529" lon="0.29277">
        <ele>1206.8</ele>
        <time>2021-08-05T07:25:59Z</time>
      </trkpt>
      <trkpt lat="42.92527" lon="0.29276">
        <ele>1207</ele>
        <time>2021-08-05T07:26:00Z</time>
      </trkpt>
      <trkpt lat="42.92525" lon="0.29276">
        <ele>1207</ele>
        <time>2021-08-05T07:26:01Z</time>
      </trkpt>
      <trkpt lat="42.92523" lon="0.29276">
        <ele>1207.2</ele>
        <time>2021-08-05T07:26:02Z</time>
      </trkpt>
      <trkpt lat="42.92521" lon="0.29275">
        <ele>1207.6</ele>
        <time>2021-08-05T07:26:03Z</time>
      </trkpt>
      <trkpt lat="42.92519" lon="0.29275">
        <ele>1207.8</ele>
        <time>2021-08-05T07:26:04Z</time>
      </trkpt>
      <trkpt lat="42.92518" lon="0.29275">
        <ele>1208</ele>
        <time>2021-08-05T07:26:05Z</time>
      </trkpt>
      <trkpt lat="42.92515" lon="0.29275">
        <ele>1208</ele>
        <time>2021-08-05T07:26:06Z</time>
      </trkpt>
      <trkpt lat="42.92512" lon="0.29275">
        <ele>1208</ele>
        <time>2021-08-05T07:26:07Z</time>
      </trkpt>
      <trkpt lat="42.9251" lon="0.29275">
        <ele>1208.2</ele>
        <time>2021-08-05T07:26:08Z</time>
      </trkpt>
      <trkpt lat="42.92509" lon="0.29276">
        <ele>1208.4</ele>
        <time>2021-08-05T07:26:09Z</time>
      </trkpt>
      <trkpt lat="42.92507" lon="0.29276">
        <ele>1208.8</ele>
        <time>2021-08-05T07:26:10Z</time>
      </trkpt>
      <trkpt lat="42.92504" lon="0.29277">
        <ele>1208.8</ele>
        <time>2021-08-05T07:26:11Z</time>
      </trkpt>
      <trkpt lat="42.92501" lon="0.29278">
        <ele>1209</ele>
        <time>2021-08-05T07:26:12Z</time>
      </trkpt>
      <trkpt lat="42.92499" lon="0.29278">
        <ele>1209.2</ele>
        <time>2021-08-05T07:26:13Z</time>
      </trkpt>
      <trkpt lat="42.92496" lon="0.29279">
        <ele>1209.4</ele>
        <time>2021-08-05T07:26:14Z</time>
      </trkpt>
      <trkpt lat="42.92494" lon="0.29279">
        <ele>1209.6</ele>
        <time>2021-08-05T07:26:15Z</time>
      </trkpt>
      <trkpt lat="42.92491" lon="0.2928">
        <ele>1209.8</ele>
        <time>2021-08-05T07:26:16Z</time>
      </trkpt>
      <trkpt lat="42.92488" lon="0.2928">
        <ele>1210</ele>
        <time>2021-08-05T07:26:17Z</time>
      </trkpt>
      <trkpt lat="42.92485" lon="0.29281">
        <ele>1210.2</ele>
        <time>2021-08-05T07:26:18Z</time>
      </trkpt>
      <trkpt lat="42.92482" lon="0.29281">
        <ele>1210.2</ele>
        <time>2021-08-05T07:26:19Z</time>
      </trkpt>
      <trkpt lat="42.92479" lon="0.29282">
        <ele>1210.4</ele>
        <time>2021-08-05T07:26:20Z</time>
      </trkpt>
      <trkpt lat="42.92477" lon="0.29282">
        <ele>1210.6</ele>
        <time>2021-08-05T07:26:21Z</time>
      </trkpt>
      <trkpt lat="42.92475" lon="0.29282">
        <ele>1211</ele>
        <time>2021-08-05T07:26:22Z</time>
      </trkpt>
      <trkpt lat="42.92473" lon="0.29283">
        <ele>1211.2</ele>
        <time>2021-08-05T07:26:23Z</time>
      </trkpt>
      <trkpt lat="42.92472" lon="0.29284">
        <ele>1211.2</ele>
        <time>2021-08-05T07:26:24Z</time>
      </trkpt>
      <trkpt lat="42.9247" lon="0.29284">
        <ele>1211.4</ele>
        <time>2021-08-05T07:26:25Z</time>
      </trkpt>
      <trkpt lat="42.92469" lon="0.29285">
        <ele>1211.6</ele>
        <time>2021-08-05T07:26:26Z</time>
      </trkpt>
      <trkpt lat="42.92467" lon="0.29285">
        <ele>1211.6</ele>
        <time>2021-08-05T07:26:27Z</time>
      </trkpt>
      <trkpt lat="42.92465" lon="0.29285">
        <ele>1211.8</ele>
        <time>2021-08-05T07:26:28Z</time>
      </trkpt>
      <trkpt lat="42.92463" lon="0.29286">
        <ele>1212</ele>
        <time>2021-08-05T07:26:29Z</time>
      </trkpt>
      <trkpt lat="42.92461" lon="0.29286">
        <ele>1212.2</ele>
        <time>2021-08-05T07:26:30Z</time>
      </trkpt>
      <trkpt lat="42.9246" lon="0.29286">
        <ele>1212.4</ele>
        <time>2021-08-05T07:26:31Z</time>
      </trkpt>
      <trkpt lat="42.92459" lon="0.29286">
        <ele>1212.6</ele>
        <time>2021-08-05T07:26:32Z</time>
      </trkpt>
      <trkpt lat="42.92457" lon="0.29286">
        <ele>1212.8</ele>
        <time>2021-08-05T07:26:33Z</time>
      </trkpt>
      <trkpt lat="42.92455" lon="0.29287">
        <ele>1213</ele>
        <time>2021-08-05T07:26:34Z</time>
      </trkpt>
      <trkpt lat="42.92453" lon="0.29288">
        <ele>1213.2</ele>
        <time>2021-08-05T07:26:35Z</time>
      </trkpt>
      <trkpt lat="42.92451" lon="0.29289">
        <ele>1213.4</ele>
        <time>2021-08-05T07:26:36Z</time>
      </trkpt>
      <trkpt lat="42.92449" lon="0.2929">
        <ele>1213.4</ele>
        <time>2021-08-05T07:26:37Z</time>
      </trkpt>
      <trkpt lat="42.92447" lon="0.29291">
        <ele>1213.8</ele>
        <time>2021-08-05T07:26:38Z</time>
      </trkpt>
      <trkpt lat="42.92445" lon="0.29291">
        <ele>1214</ele>
        <time>2021-08-05T07:26:39Z</time>
      </trkpt>
      <trkpt lat="42.92443" lon="0.29292">
        <ele>1214.2</ele>
        <time>2021-08-05T07:26:40Z</time>
      </trkpt>
      <trkpt lat="42.92442" lon="0.29293">
        <ele>1214.4</ele>
        <time>2021-08-05T07:26:41Z</time>
      </trkpt>
      <trkpt lat="42.9244" lon="0.29294">
        <ele>1214.6</ele>
        <time>2021-08-05T07:26:42Z</time>
      </trkpt>
      <trkpt lat="42.92438" lon="0.29295">
        <ele>1214.8</ele>
        <time>2021-08-05T07:26:43Z</time>
      </trkpt>
      <trkpt lat="42.92435" lon="0.29295">
        <ele>1215</ele>
        <time>2021-08-05T07:26:44Z</time>
      </trkpt>
      <trkpt lat="42.92433" lon="0.29296">
        <ele>1215.2</ele>
        <time>2021-08-05T07:26:45Z</time>
      </trkpt>
      <trkpt lat="42.92431" lon="0.29297">
        <ele>1215.2</ele>
        <time>2021-08-05T07:26:46Z</time>
      </trkpt>
      <trkpt lat="42.92429" lon="0.29299">
        <ele>1215.4</ele>
        <time>2021-08-05T07:26:47Z</time>
      </trkpt>
      <trkpt lat="42.92427" lon="0.29299">
        <ele>1215.8</ele>
        <time>2021-08-05T07:26:48Z</time>
      </trkpt>
      <trkpt lat="42.92425" lon="0.29299">
        <ele>1215.6</ele>
        <time>2021-08-05T07:26:49Z</time>
      </trkpt>
      <trkpt lat="42.92422" lon="0.293">
        <ele>1216</ele>
        <time>2021-08-05T07:26:50Z</time>
      </trkpt>
      <trkpt lat="42.9242" lon="0.29301">
        <ele>1216.2</ele>
        <time>2021-08-05T07:26:51Z</time>
      </trkpt>
      <trkpt lat="42.92419" lon="0.29301">
        <ele>1216.4</ele>
        <time>2021-08-05T07:26:52Z</time>
      </trkpt>
      <trkpt lat="42.92417" lon="0.29302">
        <ele>1216.6</ele>
        <time>2021-08-05T07:26:53Z</time>
      </trkpt>
      <trkpt lat="42.92415" lon="0.29303">
        <ele>1216.6</ele>
        <time>2021-08-05T07:26:54Z</time>
      </trkpt>
      <trkpt lat="42.92413" lon="0.29303">
        <ele>1216.8</ele>
        <time>2021-08-05T07:26:55Z</time>
      </trkpt>
      <trkpt lat="42.92411" lon="0.29304">
        <ele>1217</ele>
        <time>2021-08-05T07:26:56Z</time>
      </trkpt>
      <trkpt lat="42.92409" lon="0.29305">
        <ele>1217.2</ele>
        <time>2021-08-05T07:26:57Z</time>
      </trkpt>
      <trkpt lat="42.92407" lon="0.29305">
        <ele>1217.4</ele>
        <time>2021-08-05T07:26:58Z</time>
      </trkpt>
      <trkpt lat="42.92406" lon="0.29306">
        <ele>1217.6</ele>
        <time>2021-08-05T07:26:59Z</time>
      </trkpt>
      <trkpt lat="42.92403" lon="0.29306">
        <ele>1217.8</ele>
        <time>2021-08-05T07:27:00Z</time>
      </trkpt>
      <trkpt lat="42.92402" lon="0.29307">
        <ele>1217.8</ele>
        <time>2021-08-05T07:27:01Z</time>
      </trkpt>
      <trkpt lat="42.924" lon="0.29307">
        <ele>1218</ele>
        <time>2021-08-05T07:27:02Z</time>
      </trkpt>
      <trkpt lat="42.92398" lon="0.29307">
        <ele>1218.4</ele>
        <time>2021-08-05T07:27:03Z</time>
      </trkpt>
      <trkpt lat="42.92396" lon="0.29308">
        <ele>1218.6</ele>
        <time>2021-08-05T07:27:04Z</time>
      </trkpt>
      <trkpt lat="42.92394" lon="0.29309">
        <ele>1218.8</ele>
        <time>2021-08-05T07:27:05Z</time>
      </trkpt>
      <trkpt lat="42.92392" lon="0.29309">
        <ele>1219</ele>
        <time>2021-08-05T07:27:06Z</time>
      </trkpt>
      <trkpt lat="42.92389" lon="0.2931">
        <ele>1219.2</ele>
        <time>2021-08-05T07:27:07Z</time>
      </trkpt>
      <trkpt lat="42.92386" lon="0.2931">
        <ele>1219.2</ele>
        <time>2021-08-05T07:27:08Z</time>
      </trkpt>
      <trkpt lat="42.92384" lon="0.29311">
        <ele>1219.4</ele>
        <time>2021-08-05T07:27:09Z</time>
      </trkpt>
      <trkpt lat="42.92383" lon="0.29312">
        <ele>1219.6</ele>
        <time>2021-08-05T07:27:10Z</time>
      </trkpt>
      <trkpt lat="42.92381" lon="0.29312">
        <ele>1220</ele>
        <time>2021-08-05T07:27:11Z</time>
      </trkpt>
      <trkpt lat="42.92379" lon="0.29313">
        <ele>1220</ele>
        <time>2021-08-05T07:27:12Z</time>
      </trkpt>
      <trkpt lat="42.92377" lon="0.29314">
        <ele>1220.4</ele>
        <time>2021-08-05T07:27:13Z</time>
      </trkpt>
      <trkpt lat="42.92375" lon="0.29315">
        <ele>1220.4</ele>
        <time>2021-08-05T07:27:14Z</time>
      </trkpt>
      <trkpt lat="42.92373" lon="0.29316">
        <ele>1220.6</ele>
        <time>2021-08-05T07:27:15Z</time>
      </trkpt>
      <trkpt lat="42.92372" lon="0.29317">
        <ele>1220.4</ele>
        <time>2021-08-05T07:27:16Z</time>
      </trkpt>
      <trkpt lat="42.9237" lon="0.29317">
        <ele>1220.8</ele>
        <time>2021-08-05T07:27:17Z</time>
      </trkpt>
      <trkpt lat="42.92368" lon="0.29317">
        <ele>1220.8</ele>
        <time>2021-08-05T07:27:18Z</time>
      </trkpt>
      <trkpt lat="42.92366" lon="0.29318">
        <ele>1221.2</ele>
        <time>2021-08-05T07:27:19Z</time>
      </trkpt>
      <trkpt lat="42.92365" lon="0.29318">
        <ele>1221.4</ele>
        <time>2021-08-05T07:27:20Z</time>
      </trkpt>
      <trkpt lat="42.92363" lon="0.29319">
        <ele>1221.4</ele>
        <time>2021-08-05T07:27:21Z</time>
      </trkpt>
      <trkpt lat="42.92361" lon="0.29319">
        <ele>1221.6</ele>
        <time>2021-08-05T07:27:22Z</time>
      </trkpt>
      <trkpt lat="42.92359" lon="0.29319">
        <ele>1221.6</ele>
        <time>2021-08-05T07:27:23Z</time>
      </trkpt>
      <trkpt lat="42.92357" lon="0.29319">
        <ele>1222</ele>
        <time>2021-08-05T07:27:24Z</time>
      </trkpt>
      <trkpt lat="42.92355" lon="0.2932">
        <ele>1222.2</ele>
        <time>2021-08-05T07:27:25Z</time>
      </trkpt>
      <trkpt lat="42.92353" lon="0.29321">
        <ele>1222.4</ele>
        <time>2021-08-05T07:27:26Z</time>
      </trkpt>
      <trkpt lat="42.92352" lon="0.29323">
        <ele>1222.4</ele>
        <time>2021-08-05T07:27:27Z</time>
      </trkpt>
      <trkpt lat="42.92351" lon="0.29324">
        <ele>1222.6</ele>
        <time>2021-08-05T07:27:28Z</time>
      </trkpt>
      <trkpt lat="42.92349" lon="0.29326">
        <ele>1222.8</ele>
        <time>2021-08-05T07:27:29Z</time>
      </trkpt>
      <trkpt lat="42.92349" lon="0.29328">
        <ele>1223.2</ele>
        <time>2021-08-05T07:27:30Z</time>
      </trkpt>
      <trkpt lat="42.92348" lon="0.2933">
        <ele>1223.2</ele>
        <time>2021-08-05T07:27:31Z</time>
      </trkpt>
      <trkpt lat="42.92348" lon="0.29332">
        <ele>1223.4</ele>
        <time>2021-08-05T07:27:32Z</time>
      </trkpt>
      <trkpt lat="42.92349" lon="0.29333">
        <ele>1223.4</ele>
        <time>2021-08-05T07:27:33Z</time>
      </trkpt>
      <trkpt lat="42.92349" lon="0.29334">
        <ele>1223.4</ele>
        <time>2021-08-05T07:27:34Z</time>
      </trkpt>
      <trkpt lat="42.92349" lon="0.29334">
        <ele>1223.6</ele>
        <time>2021-08-05T07:27:35Z</time>
      </trkpt>
      <trkpt lat="42.92349" lon="0.29334">
        <ele>1223.8</ele>
        <time>2021-08-05T07:27:36Z</time>
      </trkpt>
      <trkpt lat="42.92349" lon="0.29334">
        <ele>1223.8</ele>
        <time>2021-08-05T07:27:37Z</time>
      </trkpt>
      <trkpt lat="42.92349" lon="0.29334">
        <ele>1224</ele>
        <time>2021-08-05T07:27:38Z</time>
      </trkpt>
      <trkpt lat="42.92349" lon="0.29334">
        <ele>1224.2</ele>
        <time>2021-08-05T07:27:40Z</time>
      </trkpt>
      <trkpt lat="42.92349" lon="0.29335">
        <ele>1224.2</ele>
        <time>2021-08-05T07:27:41Z</time>
      </trkpt>
      <trkpt lat="42.92349" lon="0.29335">
        <ele>1224.2</ele>
        <time>2021-08-05T07:27:42Z</time>
      </trkpt>
      <trkpt lat="42.9235" lon="0.29334">
        <ele>1224.2</ele>
        <time>2021-08-05T07:27:43Z</time>
      </trkpt>
      <trkpt lat="42.9235" lon="0.29335">
        <ele>1224.2</ele>
        <time>2021-08-05T07:27:44Z</time>
      </trkpt>
      <trkpt lat="42.9235" lon="0.29335">
        <ele>1224.2</ele>
        <time>2021-08-05T07:27:46Z</time>
      </trkpt>
      <trkpt lat="42.9235" lon="0.29334">
        <ele>1224</ele>
        <time>2021-08-05T07:27:59Z</time>
      </trkpt>
      <trkpt lat="42.9235" lon="0.29335">
        <ele>1224</ele>
        <time>2021-08-05T07:28:01Z</time>
      </trkpt>
      <trkpt lat="42.9235" lon="0.29334">
        <ele>1223.8</ele>
        <time>2021-08-05T07:28:52Z</time>
      </trkpt>
      <trkpt lat="42.9235" lon="0.29334">
        <ele>1223.8</ele>
        <time>2021-08-05T07:28:57Z</time>
      </trkpt>
      <trkpt lat="42.92349" lon="0.29334">
        <ele>1224</ele>
        <time>2021-08-05T07:30:36Z</time>
      </trkpt>
      <trkpt lat="42.9235" lon="0.29334">
        <ele>1224.6</ele>
        <time>2021-08-05T07:32:13Z</time>
      </trkpt>
      <trkpt lat="42.92356" lon="0.29334">
        <ele>1224.6</ele>
        <time>2021-08-05T07:32:26Z</time>
      </trkpt>
      <trkpt lat="42.92358" lon="0.29334">
        <ele>1224.6</ele>
        <time>2021-08-05T07:32:27Z</time>
      </trkpt>
      <trkpt lat="42.9236" lon="0.29334">
        <ele>1224.6</ele>
        <time>2021-08-05T07:32:28Z</time>
      </trkpt>
      <trkpt lat="42.92368" lon="0.29333">
        <ele>1224.8</ele>
        <time>2021-08-05T07:32:33Z</time>
      </trkpt>
      <trkpt lat="42.92375" lon="0.29334">
        <ele>1225.4</ele>
        <time>2021-08-05T07:32:38Z</time>
      </trkpt>
      <trkpt lat="42.92377" lon="0.29334">
        <ele>1225.8</ele>
        <time>2021-08-05T07:32:41Z</time>
      </trkpt>
      <trkpt lat="42.92378" lon="0.29334">
        <ele>1225.8</ele>
        <time>2021-08-05T07:32:42Z</time>
      </trkpt>
      <trkpt lat="42.92378" lon="0.29334">
        <ele>1226</ele>
        <time>2021-08-05T07:32:43Z</time>
      </trkpt>
      <trkpt lat="42.92379" lon="0.29333">
        <ele>1226</ele>
        <time>2021-08-05T07:32:44Z</time>
      </trkpt>
      <trkpt lat="42.9238" lon="0.29333">
        <ele>1226.2</ele>
        <time>2021-08-05T07:32:45Z</time>
      </trkpt>
      <trkpt lat="42.92381" lon="0.29334">
        <ele>1226.4</ele>
        <time>2021-08-05T07:32:46Z</time>
      </trkpt>
      <trkpt lat="42.92382" lon="0.29334">
        <ele>1226.6</ele>
        <time>2021-08-05T07:32:47Z</time>
      </trkpt>
      <trkpt lat="42.92384" lon="0.29335">
        <ele>1226.8</ele>
        <time>2021-08-05T07:32:48Z</time>
      </trkpt>
      <trkpt lat="42.92384" lon="0.29335">
        <ele>1227</ele>
        <time>2021-08-05T07:32:49Z</time>
      </trkpt>
      <trkpt lat="42.92386" lon="0.29335">
        <ele>1227</ele>
        <time>2021-08-05T07:32:50Z</time>
      </trkpt>
      <trkpt lat="42.92387" lon="0.29336">
        <ele>1227.2</ele>
        <time>2021-08-05T07:32:51Z</time>
      </trkpt>
      <trkpt lat="42.92388" lon="0.29337">
        <ele>1227.4</ele>
        <time>2021-08-05T07:32:52Z</time>
      </trkpt>
      <trkpt lat="42.9239" lon="0.29337">
        <ele>1227.8</ele>
        <time>2021-08-05T07:32:53Z</time>
      </trkpt>
      <trkpt lat="42.92391" lon="0.29337">
        <ele>1228</ele>
        <time>2021-08-05T07:32:54Z</time>
      </trkpt>
      <trkpt lat="42.92393" lon="0.29337">
        <ele>1228.2</ele>
        <time>2021-08-05T07:32:55Z</time>
      </trkpt>
      <trkpt lat="42.92393" lon="0.29338">
        <ele>1228.4</ele>
        <time>2021-08-05T07:32:56Z</time>
      </trkpt>
      <trkpt lat="42.92395" lon="0.29339">
        <ele>1228.6</ele>
        <time>2021-08-05T07:32:57Z</time>
      </trkpt>
      <trkpt lat="42.92397" lon="0.29342">
        <ele>1228.8</ele>
        <time>2021-08-05T07:32:58Z</time>
      </trkpt>
      <trkpt lat="42.92398" lon="0.29342">
        <ele>1229</ele>
        <time>2021-08-05T07:32:59Z</time>
      </trkpt>
      <trkpt lat="42.92401" lon="0.29344">
        <ele>1229.2</ele>
        <time>2021-08-05T07:33:00Z</time>
      </trkpt>
      <trkpt lat="42.92402" lon="0.29344">
        <ele>1229.4</ele>
        <time>2021-08-05T07:33:01Z</time>
      </trkpt>
      <trkpt lat="42.92404" lon="0.29345">
        <ele>1229.4</ele>
        <time>2021-08-05T07:33:02Z</time>
      </trkpt>
      <trkpt lat="42.92406" lon="0.29347">
        <ele>1229.6</ele>
        <time>2021-08-05T07:33:03Z</time>
      </trkpt>
      <trkpt lat="42.92408" lon="0.29348">
        <ele>1230</ele>
        <time>2021-08-05T07:33:04Z</time>
      </trkpt>
      <trkpt lat="42.92409" lon="0.2935">
        <ele>1230.2</ele>
        <time>2021-08-05T07:33:05Z</time>
      </trkpt>
      <trkpt lat="42.9241" lon="0.2935">
        <ele>1230.6</ele>
        <time>2021-08-05T07:33:06Z</time>
      </trkpt>
      <trkpt lat="42.92412" lon="0.29351">
        <ele>1230.6</ele>
        <time>2021-08-05T07:33:07Z</time>
      </trkpt>
      <trkpt lat="42.92414" lon="0.29353">
        <ele>1231</ele>
        <time>2021-08-05T07:33:08Z</time>
      </trkpt>
      <trkpt lat="42.92416" lon="0.29355">
        <ele>1231</ele>
        <time>2021-08-05T07:33:09Z</time>
      </trkpt>
      <trkpt lat="42.92417" lon="0.29356">
        <ele>1231.2</ele>
        <time>2021-08-05T07:33:10Z</time>
      </trkpt>
      <trkpt lat="42.92419" lon="0.29357">
        <ele>1231.6</ele>
        <time>2021-08-05T07:33:11Z</time>
      </trkpt>
      <trkpt lat="42.92421" lon="0.29359">
        <ele>1231.8</ele>
        <time>2021-08-05T07:33:12Z</time>
      </trkpt>
      <trkpt lat="42.92422" lon="0.29358">
        <ele>1232</ele>
        <time>2021-08-05T07:33:13Z</time>
      </trkpt>
      <trkpt lat="42.92422" lon="0.29359">
        <ele>1232.2</ele>
        <time>2021-08-05T07:33:14Z</time>
      </trkpt>
      <trkpt lat="42.92424" lon="0.2936">
        <ele>1232.4</ele>
        <time>2021-08-05T07:33:15Z</time>
      </trkpt>
      <trkpt lat="42.92426" lon="0.29361">
        <ele>1232.8</ele>
        <time>2021-08-05T07:33:16Z</time>
      </trkpt>
      <trkpt lat="42.92427" lon="0.29362">
        <ele>1233</ele>
        <time>2021-08-05T07:33:17Z</time>
      </trkpt>
      <trkpt lat="42.92428" lon="0.29362">
        <ele>1233</ele>
        <time>2021-08-05T07:33:18Z</time>
      </trkpt>
      <trkpt lat="42.92429" lon="0.29363">
        <ele>1233.2</ele>
        <time>2021-08-05T07:33:19Z</time>
      </trkpt>
      <trkpt lat="42.92431" lon="0.29364">
        <ele>1233.2</ele>
        <time>2021-08-05T07:33:20Z</time>
      </trkpt>
      <trkpt lat="42.92432" lon="0.29365">
        <ele>1233.4</ele>
        <time>2021-08-05T07:33:21Z</time>
      </trkpt>
      <trkpt lat="42.92433" lon="0.29365">
        <ele>1233.6</ele>
        <time>2021-08-05T07:33:22Z</time>
      </trkpt>
      <trkpt lat="42.92434" lon="0.29366">
        <ele>1233.8</ele>
        <time>2021-08-05T07:33:23Z</time>
      </trkpt>
      <trkpt lat="42.92435" lon="0.29367">
        <ele>1234</ele>
        <time>2021-08-05T07:33:24Z</time>
      </trkpt>
      <trkpt lat="42.92435" lon="0.29367">
        <ele>1234.2</ele>
        <time>2021-08-05T07:33:25Z</time>
      </trkpt>
      <trkpt lat="42.92436" lon="0.29367">
        <ele>1234.4</ele>
        <time>2021-08-05T07:33:26Z</time>
      </trkpt>
      <trkpt lat="42.92437" lon="0.29368">
        <ele>1234.6</ele>
        <time>2021-08-05T07:33:27Z</time>
      </trkpt>
      <trkpt lat="42.92439" lon="0.29369">
        <ele>1234.8</ele>
        <time>2021-08-05T07:33:28Z</time>
      </trkpt>
      <trkpt lat="42.92441" lon="0.29372">
        <ele>1235</ele>
        <time>2021-08-05T07:33:29Z</time>
      </trkpt>
      <trkpt lat="42.92442" lon="0.29373">
        <ele>1235.2</ele>
        <time>2021-08-05T07:33:30Z</time>
      </trkpt>
      <trkpt lat="42.92443" lon="0.29374">
        <ele>1235.4</ele>
        <time>2021-08-05T07:33:31Z</time>
      </trkpt>
      <trkpt lat="42.92443" lon="0.29376">
        <ele>1235.6</ele>
        <time>2021-08-05T07:33:32Z</time>
      </trkpt>
      <trkpt lat="42.92444" lon="0.29377">
        <ele>1235.8</ele>
        <time>2021-08-05T07:33:33Z</time>
      </trkpt>
      <trkpt lat="42.92446" lon="0.29379">
        <ele>1236</ele>
        <time>2021-08-05T07:33:34Z</time>
      </trkpt>
      <trkpt lat="42.92447" lon="0.29381">
        <ele>1236</ele>
        <time>2021-08-05T07:33:35Z</time>
      </trkpt>
      <trkpt lat="42.92449" lon="0.29383">
        <ele>1236.2</ele>
        <time>2021-08-05T07:33:36Z</time>
      </trkpt>
      <trkpt lat="42.92451" lon="0.29385">
        <ele>1236.4</ele>
        <time>2021-08-05T07:33:37Z</time>
      </trkpt>
      <trkpt lat="42.92452" lon="0.29387">
        <ele>1236.8</ele>
        <time>2021-08-05T07:33:38Z</time>
      </trkpt>
      <trkpt lat="42.92454" lon="0.29388">
        <ele>1237</ele>
        <time>2021-08-05T07:33:39Z</time>
      </trkpt>
      <trkpt lat="42.92455" lon="0.2939">
        <ele>1237.4</ele>
        <time>2021-08-05T07:33:40Z</time>
      </trkpt>
      <trkpt lat="42.92455" lon="0.29391">
        <ele>1237.6</ele>
        <time>2021-08-05T07:33:41Z</time>
      </trkpt>
      <trkpt lat="42.92456" lon="0.29393">
        <ele>1237.8</ele>
        <time>2021-08-05T07:33:42Z</time>
      </trkpt>
      <trkpt lat="42.92457" lon="0.29395">
        <ele>1238</ele>
        <time>2021-08-05T07:33:43Z</time>
      </trkpt>
      <trkpt lat="42.92459" lon="0.29397">
        <ele>1238.2</ele>
        <time>2021-08-05T07:33:44Z</time>
      </trkpt>
      <trkpt lat="42.92461" lon="0.29399">
        <ele>1238.4</ele>
        <time>2021-08-05T07:33:45Z</time>
      </trkpt>
      <trkpt lat="42.92464" lon="0.29401">
        <ele>1238.4</ele>
        <time>2021-08-05T07:33:46Z</time>
      </trkpt>
      <trkpt lat="42.92465" lon="0.29403">
        <ele>1238.8</ele>
        <time>2021-08-05T07:33:47Z</time>
      </trkpt>
      <trkpt lat="42.92466" lon="0.29404">
        <ele>1239</ele>
        <time>2021-08-05T07:33:48Z</time>
      </trkpt>
      <trkpt lat="42.92467" lon="0.29406">
        <ele>1239.2</ele>
        <time>2021-08-05T07:33:49Z</time>
      </trkpt>
      <trkpt lat="42.92468" lon="0.29407">
        <ele>1239.6</ele>
        <time>2021-08-05T07:33:50Z</time>
      </trkpt>
      <trkpt lat="42.9247" lon="0.29408">
        <ele>1239.6</ele>
        <time>2021-08-05T07:33:51Z</time>
      </trkpt>
      <trkpt lat="42.92472" lon="0.29408">
        <ele>1239.8</ele>
        <time>2021-08-05T07:33:52Z</time>
      </trkpt>
      <trkpt lat="42.92473" lon="0.29409">
        <ele>1240</ele>
        <time>2021-08-05T07:33:53Z</time>
      </trkpt>
      <trkpt lat="42.92476" lon="0.29411">
        <ele>1240.2</ele>
        <time>2021-08-05T07:33:54Z</time>
      </trkpt>
      <trkpt lat="42.92479" lon="0.29415">
        <ele>1240.6</ele>
        <time>2021-08-05T07:33:55Z</time>
      </trkpt>
      <trkpt lat="42.92482" lon="0.29418">
        <ele>1240.6</ele>
        <time>2021-08-05T07:33:56Z</time>
      </trkpt>
      <trkpt lat="42.92485" lon="0.29419">
        <ele>1241</ele>
        <time>2021-08-05T07:33:57Z</time>
      </trkpt>
      <trkpt lat="42.9249" lon="0.29419">
        <ele>1241</ele>
        <time>2021-08-05T07:33:58Z</time>
      </trkpt>
      <trkpt lat="42.92487" lon="0.2942">
        <ele>1241.4</ele>
        <time>2021-08-05T07:33:59Z</time>
      </trkpt>
      <trkpt lat="42.92483" lon="0.29421">
        <ele>1241.4</ele>
        <time>2021-08-05T07:34:00Z</time>
      </trkpt>
      <trkpt lat="42.92477" lon="0.29421">
        <ele>1241.6</ele>
        <time>2021-08-05T07:34:01Z</time>
      </trkpt>
      <trkpt lat="42.92478" lon="0.29424">
        <ele>1241.8</ele>
        <time>2021-08-05T07:34:02Z</time>
      </trkpt>
      <trkpt lat="42.9248" lon="0.29427">
        <ele>1241.8</ele>
        <time>2021-08-05T07:34:03Z</time>
      </trkpt>
      <trkpt lat="42.92483" lon="0.29429">
        <ele>1242</ele>
        <time>2021-08-05T07:34:04Z</time>
      </trkpt>
      <trkpt lat="42.92486" lon="0.29433">
        <ele>1242.4</ele>
        <time>2021-08-05T07:34:05Z</time>
      </trkpt>
      <trkpt lat="42.92488" lon="0.29435">
        <ele>1242.4</ele>
        <time>2021-08-05T07:34:06Z</time>
      </trkpt>
      <trkpt lat="42.92488" lon="0.29436">
        <ele>1242.8</ele>
        <time>2021-08-05T07:34:07Z</time>
      </trkpt>
      <trkpt lat="42.92489" lon="0.29436">
        <ele>1243</ele>
        <time>2021-08-05T07:34:08Z</time>
      </trkpt>
      <trkpt lat="42.92491" lon="0.29437">
        <ele>1243.2</ele>
        <time>2021-08-05T07:34:09Z</time>
      </trkpt>
      <trkpt lat="42.92492" lon="0.29437">
        <ele>1243.2</ele>
        <time>2021-08-05T07:34:10Z</time>
      </trkpt>
      <trkpt lat="42.92493" lon="0.29439">
        <ele>1243.6</ele>
        <time>2021-08-05T07:34:11Z</time>
      </trkpt>
      <trkpt lat="42.92494" lon="0.2944">
        <ele>1243.8</ele>
        <time>2021-08-05T07:34:12Z</time>
      </trkpt>
      <trkpt lat="42.92495" lon="0.2944">
        <ele>1244</ele>
        <time>2021-08-05T07:34:13Z</time>
      </trkpt>
      <trkpt lat="42.92497" lon="0.29441">
        <ele>1244.2</ele>
        <time>2021-08-05T07:34:14Z</time>
      </trkpt>
      <trkpt lat="42.92498" lon="0.29443">
        <ele>1244.4</ele>
        <time>2021-08-05T07:34:15Z</time>
      </trkpt>
      <trkpt lat="42.92499" lon="0.29444">
        <ele>1244.6</ele>
        <time>2021-08-05T07:34:16Z</time>
      </trkpt>
      <trkpt lat="42.92501" lon="0.29444">
        <ele>1244.6</ele>
        <time>2021-08-05T07:34:17Z</time>
      </trkpt>
      <trkpt lat="42.92503" lon="0.29445">
        <ele>1245</ele>
        <time>2021-08-05T07:34:18Z</time>
      </trkpt>
      <trkpt lat="42.92504" lon="0.29446">
        <ele>1245.2</ele>
        <time>2021-08-05T07:34:19Z</time>
      </trkpt>
      <trkpt lat="42.92505" lon="0.29447">
        <ele>1245.6</ele>
        <time>2021-08-05T07:34:20Z</time>
      </trkpt>
      <trkpt lat="42.92507" lon="0.29448">
        <ele>1245.6</ele>
        <time>2021-08-05T07:34:21Z</time>
      </trkpt>
      <trkpt lat="42.92508" lon="0.29449">
        <ele>1246</ele>
        <time>2021-08-05T07:34:22Z</time>
      </trkpt>
      <trkpt lat="42.9251" lon="0.29451">
        <ele>1246</ele>
        <time>2021-08-05T07:34:23Z</time>
      </trkpt>
      <trkpt lat="42.92512" lon="0.29452">
        <ele>1246.2</ele>
        <time>2021-08-05T07:34:24Z</time>
      </trkpt>
      <trkpt lat="42.92513" lon="0.29453">
        <ele>1246.4</ele>
        <time>2021-08-05T07:34:25Z</time>
      </trkpt>
      <trkpt lat="42.92514" lon="0.29454">
        <ele>1246.4</ele>
        <time>2021-08-05T07:34:26Z</time>
      </trkpt>
      <trkpt lat="42.92515" lon="0.29455">
        <ele>1246.6</ele>
        <time>2021-08-05T07:34:27Z</time>
      </trkpt>
      <trkpt lat="42.92516" lon="0.29456">
        <ele>1246.8</ele>
        <time>2021-08-05T07:34:28Z</time>
      </trkpt>
      <trkpt lat="42.92518" lon="0.29457">
        <ele>1246.8</ele>
        <time>2021-08-05T07:34:29Z</time>
      </trkpt>
      <trkpt lat="42.9252" lon="0.29459">
        <ele>1247</ele>
        <time>2021-08-05T07:34:30Z</time>
      </trkpt>
      <trkpt lat="42.92521" lon="0.29459">
        <ele>1247.4</ele>
        <time>2021-08-05T07:34:31Z</time>
      </trkpt>
      <trkpt lat="42.92522" lon="0.2946">
        <ele>1247.6</ele>
        <time>2021-08-05T07:34:32Z</time>
      </trkpt>
      <trkpt lat="42.92524" lon="0.29462">
        <ele>1247.8</ele>
        <time>2021-08-05T07:34:33Z</time>
      </trkpt>
      <trkpt lat="42.92525" lon="0.29463">
        <ele>1248</ele>
        <time>2021-08-05T07:34:34Z</time>
      </trkpt>
      <trkpt lat="42.92526" lon="0.29464">
        <ele>1248.2</ele>
        <time>2021-08-05T07:34:35Z</time>
      </trkpt>
      <trkpt lat="42.92527" lon="0.29464">
        <ele>1248.4</ele>
        <time>2021-08-05T07:34:36Z</time>
      </trkpt>
      <trkpt lat="42.92528" lon="0.29466">
        <ele>1248.6</ele>
        <time>2021-08-05T07:34:37Z</time>
      </trkpt>
      <trkpt lat="42.9253" lon="0.29467">
        <ele>1248.6</ele>
        <time>2021-08-05T07:34:38Z</time>
      </trkpt>
      <trkpt lat="42.92531" lon="0.29468">
        <ele>1248.8</ele>
        <time>2021-08-05T07:34:39Z</time>
      </trkpt>
      <trkpt lat="42.92532" lon="0.29469">
        <ele>1249</ele>
        <time>2021-08-05T07:34:40Z</time>
      </trkpt>
      <trkpt lat="42.92533" lon="0.2947">
        <ele>1249.2</ele>
        <time>2021-08-05T07:34:41Z</time>
      </trkpt>
      <trkpt lat="42.92534" lon="0.29471">
        <ele>1249.2</ele>
        <time>2021-08-05T07:34:42Z</time>
      </trkpt>
      <trkpt lat="42.92535" lon="0.29472">
        <ele>1249.6</ele>
        <time>2021-08-05T07:34:43Z</time>
      </trkpt>
      <trkpt lat="42.92535" lon="0.29473">
        <ele>1249.8</ele>
        <time>2021-08-05T07:34:44Z</time>
      </trkpt>
      <trkpt lat="42.92536" lon="0.29474">
        <ele>1250</ele>
        <time>2021-08-05T07:34:45Z</time>
      </trkpt>
      <trkpt lat="42.92538" lon="0.29475">
        <ele>1250</ele>
        <time>2021-08-05T07:34:46Z</time>
      </trkpt>
      <trkpt lat="42.92539" lon="0.29475">
        <ele>1250.2</ele>
        <time>2021-08-05T07:34:47Z</time>
      </trkpt>
      <trkpt lat="42.92539" lon="0.29476">
        <ele>1250.4</ele>
        <time>2021-08-05T07:34:48Z</time>
      </trkpt>
      <trkpt lat="42.92541" lon="0.29476">
        <ele>1250.6</ele>
        <time>2021-08-05T07:34:49Z</time>
      </trkpt>
      <trkpt lat="42.92541" lon="0.29477">
        <ele>1250.8</ele>
        <time>2021-08-05T07:34:50Z</time>
      </trkpt>
      <trkpt lat="42.92543" lon="0.29478">
        <ele>1251</ele>
        <time>2021-08-05T07:34:51Z</time>
      </trkpt>
      <trkpt lat="42.92544" lon="0.29478">
        <ele>1251.2</ele>
        <time>2021-08-05T07:34:52Z</time>
      </trkpt>
      <trkpt lat="42.92545" lon="0.29479">
        <ele>1251.4</ele>
        <time>2021-08-05T07:34:53Z</time>
      </trkpt>
      <trkpt lat="42.92547" lon="0.2948">
        <ele>1251.6</ele>
        <time>2021-08-05T07:34:54Z</time>
      </trkpt>
      <trkpt lat="42.92548" lon="0.2948">
        <ele>1251.6</ele>
        <time>2021-08-05T07:34:55Z</time>
      </trkpt>
      <trkpt lat="42.9255" lon="0.29481">
        <ele>1251.8</ele>
        <time>2021-08-05T07:34:56Z</time>
      </trkpt>
      <trkpt lat="42.92551" lon="0.29482">
        <ele>1252.2</ele>
        <time>2021-08-05T07:34:57Z</time>
      </trkpt>
      <trkpt lat="42.92553" lon="0.29483">
        <ele>1252.4</ele>
        <time>2021-08-05T07:34:58Z</time>
      </trkpt>
      <trkpt lat="42.92554" lon="0.29484">
        <ele>1252.4</ele>
        <time>2021-08-05T07:34:59Z</time>
      </trkpt>
      <trkpt lat="42.92555" lon="0.29486">
        <ele>1252.6</ele>
        <time>2021-08-05T07:35:00Z</time>
      </trkpt>
      <trkpt lat="42.92556" lon="0.29487">
        <ele>1252.6</ele>
        <time>2021-08-05T07:35:01Z</time>
      </trkpt>
      <trkpt lat="42.92557" lon="0.29487">
        <ele>1252.8</ele>
        <time>2021-08-05T07:35:02Z</time>
      </trkpt>
      <trkpt lat="42.92558" lon="0.29487">
        <ele>1252.8</ele>
        <time>2021-08-05T07:35:03Z</time>
      </trkpt>
      <trkpt lat="42.9256" lon="0.29488">
        <ele>1253.2</ele>
        <time>2021-08-05T07:35:04Z</time>
      </trkpt>
      <trkpt lat="42.9256" lon="0.29488">
        <ele>1253.6</ele>
        <time>2021-08-05T07:35:05Z</time>
      </trkpt>
      <trkpt lat="42.92561" lon="0.29489">
        <ele>1253.8</ele>
        <time>2021-08-05T07:35:06Z</time>
      </trkpt>
      <trkpt lat="42.92561" lon="0.2949">
        <ele>1253.8</ele>
        <time>2021-08-05T07:35:07Z</time>
      </trkpt>
      <trkpt lat="42.92562" lon="0.2949">
        <ele>1254</ele>
        <time>2021-08-05T07:35:08Z</time>
      </trkpt>
      <trkpt lat="42.92562" lon="0.29491">
        <ele>1254.2</ele>
        <time>2021-08-05T07:35:09Z</time>
      </trkpt>
      <trkpt lat="42.92564" lon="0.29492">
        <ele>1254.4</ele>
        <time>2021-08-05T07:35:10Z</time>
      </trkpt>
      <trkpt lat="42.92566" lon="0.29494">
        <ele>1254.6</ele>
        <time>2021-08-05T07:35:11Z</time>
      </trkpt>
      <trkpt lat="42.92567" lon="0.29496">
        <ele>1254.6</ele>
        <time>2021-08-05T07:35:12Z</time>
      </trkpt>
      <trkpt lat="42.92568" lon="0.29497">
        <ele>1255</ele>
        <time>2021-08-05T07:35:13Z</time>
      </trkpt>
      <trkpt lat="42.92568" lon="0.29499">
        <ele>1255</ele>
        <time>2021-08-05T07:35:14Z</time>
      </trkpt>
      <trkpt lat="42.9257" lon="0.29501">
        <ele>1255.4</ele>
        <time>2021-08-05T07:35:15Z</time>
      </trkpt>
      <trkpt lat="42.92572" lon="0.29503">
        <ele>1255.4</ele>
        <time>2021-08-05T07:35:16Z</time>
      </trkpt>
      <trkpt lat="42.92574" lon="0.29504">
        <ele>1255.8</ele>
        <time>2021-08-05T07:35:17Z</time>
      </trkpt>
      <trkpt lat="42.92576" lon="0.29506">
        <ele>1255.8</ele>
        <time>2021-08-05T07:35:18Z</time>
      </trkpt>
      <trkpt lat="42.92578" lon="0.29507">
        <ele>1256</ele>
        <time>2021-08-05T07:35:19Z</time>
      </trkpt>
      <trkpt lat="42.9258" lon="0.29508">
        <ele>1256.2</ele>
        <time>2021-08-05T07:35:20Z</time>
      </trkpt>
      <trkpt lat="42.92581" lon="0.29508">
        <ele>1256.4</ele>
        <time>2021-08-05T07:35:21Z</time>
      </trkpt>
      <trkpt lat="42.92583" lon="0.29509">
        <ele>1256.6</ele>
        <time>2021-08-05T07:35:22Z</time>
      </trkpt>
      <trkpt lat="42.92585" lon="0.29511">
        <ele>1256.6</ele>
        <time>2021-08-05T07:35:23Z</time>
      </trkpt>
      <trkpt lat="42.92587" lon="0.29512">
        <ele>1256.6</ele>
        <time>2021-08-05T07:35:24Z</time>
      </trkpt>
      <trkpt lat="42.92589" lon="0.29514">
        <ele>1257</ele>
        <time>2021-08-05T07:35:25Z</time>
      </trkpt>
      <trkpt lat="42.92591" lon="0.29515">
        <ele>1257.2</ele>
        <time>2021-08-05T07:35:26Z</time>
      </trkpt>
      <trkpt lat="42.92592" lon="0.29515">
        <ele>1257.6</ele>
        <time>2021-08-05T07:35:27Z</time>
      </trkpt>
      <trkpt lat="42.92593" lon="0.29515">
        <ele>1258</ele>
        <time>2021-08-05T07:35:28Z</time>
      </trkpt>
      <trkpt lat="42.92594" lon="0.29517">
        <ele>1258</ele>
        <time>2021-08-05T07:35:29Z</time>
      </trkpt>
      <trkpt lat="42.92596" lon="0.29518">
        <ele>1258.4</ele>
        <time>2021-08-05T07:35:30Z</time>
      </trkpt>
      <trkpt lat="42.92597" lon="0.29519">
        <ele>1258.2</ele>
        <time>2021-08-05T07:35:31Z</time>
      </trkpt>
      <trkpt lat="42.92599" lon="0.29521">
        <ele>1258.6</ele>
        <time>2021-08-05T07:35:32Z</time>
      </trkpt>
      <trkpt lat="42.926" lon="0.29522">
        <ele>1258.6</ele>
        <time>2021-08-05T07:35:33Z</time>
      </trkpt>
      <trkpt lat="42.92601" lon="0.29523">
        <ele>1258.8</ele>
        <time>2021-08-05T07:35:34Z</time>
      </trkpt>
      <trkpt lat="42.92602" lon="0.29524">
        <ele>1259</ele>
        <time>2021-08-05T07:35:35Z</time>
      </trkpt>
      <trkpt lat="42.92603" lon="0.29524">
        <ele>1259</ele>
        <time>2021-08-05T07:35:36Z</time>
      </trkpt>
      <trkpt lat="42.92605" lon="0.29524">
        <ele>1259.2</ele>
        <time>2021-08-05T07:35:37Z</time>
      </trkpt>
      <trkpt lat="42.92606" lon="0.29524">
        <ele>1259.4</ele>
        <time>2021-08-05T07:35:38Z</time>
      </trkpt>
      <trkpt lat="42.92608" lon="0.29525">
        <ele>1259.4</ele>
        <time>2021-08-05T07:35:39Z</time>
      </trkpt>
      <trkpt lat="42.92609" lon="0.29525">
        <ele>1259.6</ele>
        <time>2021-08-05T07:35:40Z</time>
      </trkpt>
      <trkpt lat="42.9261" lon="0.29526">
        <ele>1259.8</ele>
        <time>2021-08-05T07:35:41Z</time>
      </trkpt>
      <trkpt lat="42.92611" lon="0.29526">
        <ele>1260</ele>
        <time>2021-08-05T07:35:42Z</time>
      </trkpt>
      <trkpt lat="42.92611" lon="0.29527">
        <ele>1260.2</ele>
        <time>2021-08-05T07:35:43Z</time>
      </trkpt>
      <trkpt lat="42.92612" lon="0.29528">
        <ele>1260.4</ele>
        <time>2021-08-05T07:35:44Z</time>
      </trkpt>
      <trkpt lat="42.92614" lon="0.29529">
        <ele>1260.6</ele>
        <time>2021-08-05T07:35:45Z</time>
      </trkpt>
      <trkpt lat="42.92616" lon="0.2953">
        <ele>1260.8</ele>
        <time>2021-08-05T07:35:46Z</time>
      </trkpt>
      <trkpt lat="42.92618" lon="0.29531">
        <ele>1261</ele>
        <time>2021-08-05T07:35:47Z</time>
      </trkpt>
      <trkpt lat="42.9262" lon="0.29532">
        <ele>1261.2</ele>
        <time>2021-08-05T07:35:48Z</time>
      </trkpt>
      <trkpt lat="42.92622" lon="0.29533">
        <ele>1261.4</ele>
        <time>2021-08-05T07:35:49Z</time>
      </trkpt>
      <trkpt lat="42.92623" lon="0.29534">
        <ele>1261.4</ele>
        <time>2021-08-05T07:35:50Z</time>
      </trkpt>
      <trkpt lat="42.92625" lon="0.29535">
        <ele>1261.6</ele>
        <time>2021-08-05T07:35:51Z</time>
      </trkpt>
      <trkpt lat="42.92626" lon="0.29536">
        <ele>1261.8</ele>
        <time>2021-08-05T07:35:52Z</time>
      </trkpt>
      <trkpt lat="42.92628" lon="0.29536">
        <ele>1262</ele>
        <time>2021-08-05T07:35:53Z</time>
      </trkpt>
      <trkpt lat="42.92629" lon="0.29537">
        <ele>1262</ele>
        <time>2021-08-05T07:35:54Z</time>
      </trkpt>
      <trkpt lat="42.92629" lon="0.29538">
        <ele>1262.4</ele>
        <time>2021-08-05T07:35:55Z</time>
      </trkpt>
      <trkpt lat="42.9263" lon="0.29538">
        <ele>1262.6</ele>
        <time>2021-08-05T07:35:56Z</time>
      </trkpt>
      <trkpt lat="42.9263" lon="0.29538">
        <ele>1262.8</ele>
        <time>2021-08-05T07:35:57Z</time>
      </trkpt>
      <trkpt lat="42.92632" lon="0.2954">
        <ele>1263</ele>
        <time>2021-08-05T07:35:58Z</time>
      </trkpt>
      <trkpt lat="42.92633" lon="0.2954">
        <ele>1263.2</ele>
        <time>2021-08-05T07:35:59Z</time>
      </trkpt>
      <trkpt lat="42.92635" lon="0.29541">
        <ele>1263.4</ele>
        <time>2021-08-05T07:36:00Z</time>
      </trkpt>
      <trkpt lat="42.92637" lon="0.29542">
        <ele>1263.8</ele>
        <time>2021-08-05T07:36:01Z</time>
      </trkpt>
      <trkpt lat="42.92638" lon="0.29542">
        <ele>1263.8</ele>
        <time>2021-08-05T07:36:02Z</time>
      </trkpt>
      <trkpt lat="42.92639" lon="0.29543">
        <ele>1264</ele>
        <time>2021-08-05T07:36:03Z</time>
      </trkpt>
      <trkpt lat="42.92641" lon="0.29543">
        <ele>1264</ele>
        <time>2021-08-05T07:36:04Z</time>
      </trkpt>
      <trkpt lat="42.92642" lon="0.29544">
        <ele>1264.2</ele>
        <time>2021-08-05T07:36:05Z</time>
      </trkpt>
      <trkpt lat="42.92644" lon="0.29546">
        <ele>1264.4</ele>
        <time>2021-08-05T07:36:06Z</time>
      </trkpt>
      <trkpt lat="42.92646" lon="0.29547">
        <ele>1264.6</ele>
        <time>2021-08-05T07:36:07Z</time>
      </trkpt>
      <trkpt lat="42.92647" lon="0.29548">
        <ele>1265</ele>
        <time>2021-08-05T07:36:08Z</time>
      </trkpt>
      <trkpt lat="42.92648" lon="0.29548">
        <ele>1265.2</ele>
        <time>2021-08-05T07:36:09Z</time>
      </trkpt>
      <trkpt lat="42.92649" lon="0.29549">
        <ele>1265.4</ele>
        <time>2021-08-05T07:36:10Z</time>
      </trkpt>
      <trkpt lat="42.9265" lon="0.29549">
        <ele>1265.6</ele>
        <time>2021-08-05T07:36:11Z</time>
      </trkpt>
      <trkpt lat="42.92651" lon="0.29549">
        <ele>1265.8</ele>
        <time>2021-08-05T07:36:12Z</time>
      </trkpt>
      <trkpt lat="42.92651" lon="0.29549">
        <ele>1265.8</ele>
        <time>2021-08-05T07:36:13Z</time>
      </trkpt>
      <trkpt lat="42.92652" lon="0.29549">
        <ele>1266.2</ele>
        <time>2021-08-05T07:36:14Z</time>
      </trkpt>
      <trkpt lat="42.92652" lon="0.29549">
        <ele>1266.4</ele>
        <time>2021-08-05T07:36:15Z</time>
      </trkpt>
      <trkpt lat="42.92653" lon="0.2955">
        <ele>1266.4</ele>
        <time>2021-08-05T07:36:16Z</time>
      </trkpt>
      <trkpt lat="42.92654" lon="0.29551">
        <ele>1266.6</ele>
        <time>2021-08-05T07:36:17Z</time>
      </trkpt>
      <trkpt lat="42.92656" lon="0.29553">
        <ele>1266.8</ele>
        <time>2021-08-05T07:36:18Z</time>
      </trkpt>
      <trkpt lat="42.92657" lon="0.29553">
        <ele>1266.8</ele>
        <time>2021-08-05T07:36:19Z</time>
      </trkpt>
      <trkpt lat="42.92659" lon="0.29554">
        <ele>1267.2</ele>
        <time>2021-08-05T07:36:20Z</time>
      </trkpt>
      <trkpt lat="42.9266" lon="0.29554">
        <ele>1267.2</ele>
        <time>2021-08-05T07:36:21Z</time>
      </trkpt>
      <trkpt lat="42.92661" lon="0.29555">
        <ele>1267.6</ele>
        <time>2021-08-05T07:36:22Z</time>
      </trkpt>
      <trkpt lat="42.92662" lon="0.29556">
        <ele>1267.8</ele>
        <time>2021-08-05T07:36:23Z</time>
      </trkpt>
      <trkpt lat="42.92664" lon="0.29557">
        <ele>1268.2</ele>
        <time>2021-08-05T07:36:24Z</time>
      </trkpt>
      <trkpt lat="42.92666" lon="0.29559">
        <ele>1268.4</ele>
        <time>2021-08-05T07:36:25Z</time>
      </trkpt>
      <trkpt lat="42.92668" lon="0.2956">
        <ele>1268.4</ele>
        <time>2021-08-05T07:36:26Z</time>
      </trkpt>
      <trkpt lat="42.92669" lon="0.2956">
        <ele>1268.6</ele>
        <time>2021-08-05T07:36:27Z</time>
      </trkpt>
      <trkpt lat="42.9267" lon="0.2956">
        <ele>1268.8</ele>
        <time>2021-08-05T07:36:28Z</time>
      </trkpt>
      <trkpt lat="42.92672" lon="0.29561">
        <ele>1269</ele>
        <time>2021-08-05T07:36:29Z</time>
      </trkpt>
      <trkpt lat="42.92673" lon="0.29562">
        <ele>1269.4</ele>
        <time>2021-08-05T07:36:30Z</time>
      </trkpt>
      <trkpt lat="42.92675" lon="0.29562">
        <ele>1269.6</ele>
        <time>2021-08-05T07:36:31Z</time>
      </trkpt>
      <trkpt lat="42.92677" lon="0.29562">
        <ele>1269.8</ele>
        <time>2021-08-05T07:36:32Z</time>
      </trkpt>
      <trkpt lat="42.92678" lon="0.29563">
        <ele>1270</ele>
        <time>2021-08-05T07:36:33Z</time>
      </trkpt>
      <trkpt lat="42.9268" lon="0.29564">
        <ele>1270.2</ele>
        <time>2021-08-05T07:36:34Z</time>
      </trkpt>
      <trkpt lat="42.92683" lon="0.29567">
        <ele>1270.4</ele>
        <time>2021-08-05T07:36:35Z</time>
      </trkpt>
      <trkpt lat="42.92685" lon="0.29568">
        <ele>1270.6</ele>
        <time>2021-08-05T07:36:36Z</time>
      </trkpt>
      <trkpt lat="42.92687" lon="0.29568">
        <ele>1270.8</ele>
        <time>2021-08-05T07:36:37Z</time>
      </trkpt>
      <trkpt lat="42.92687" lon="0.29568">
        <ele>1271</ele>
        <time>2021-08-05T07:36:38Z</time>
      </trkpt>
      <trkpt lat="42.92688" lon="0.29568">
        <ele>1271.2</ele>
        <time>2021-08-05T07:36:39Z</time>
      </trkpt>
      <trkpt lat="42.9269" lon="0.29569">
        <ele>1271.4</ele>
        <time>2021-08-05T07:36:40Z</time>
      </trkpt>
      <trkpt lat="42.92692" lon="0.29571">
        <ele>1271.8</ele>
        <time>2021-08-05T07:36:41Z</time>
      </trkpt>
      <trkpt lat="42.92695" lon="0.29574">
        <ele>1272</ele>
        <time>2021-08-05T07:36:42Z</time>
      </trkpt>
      <trkpt lat="42.92698" lon="0.29577">
        <ele>1272.2</ele>
        <time>2021-08-05T07:36:43Z</time>
      </trkpt>
      <trkpt lat="42.92701" lon="0.2958">
        <ele>1272.4</ele>
        <time>2021-08-05T07:36:44Z</time>
      </trkpt>
      <trkpt lat="42.92703" lon="0.29582">
        <ele>1272.6</ele>
        <time>2021-08-05T07:36:45Z</time>
      </trkpt>
      <trkpt lat="42.92705" lon="0.29584">
        <ele>1272.8</ele>
        <time>2021-08-05T07:36:46Z</time>
      </trkpt>
      <trkpt lat="42.92706" lon="0.29586">
        <ele>1273</ele>
        <time>2021-08-05T07:36:47Z</time>
      </trkpt>
      <trkpt lat="42.92708" lon="0.29587">
        <ele>1273</ele>
        <time>2021-08-05T07:36:48Z</time>
      </trkpt>
      <trkpt lat="42.92709" lon="0.29589">
        <ele>1273</ele>
        <time>2021-08-05T07:36:49Z</time>
      </trkpt>
      <trkpt lat="42.92711" lon="0.29591">
        <ele>1273.2</ele>
        <time>2021-08-05T07:36:50Z</time>
      </trkpt>
      <trkpt lat="42.92712" lon="0.29591">
        <ele>1273.4</ele>
        <time>2021-08-05T07:36:51Z</time>
      </trkpt>
      <trkpt lat="42.92713" lon="0.29592">
        <ele>1273.6</ele>
        <time>2021-08-05T07:36:52Z</time>
      </trkpt>
      <trkpt lat="42.92714" lon="0.29594">
        <ele>1273.8</ele>
        <time>2021-08-05T07:36:53Z</time>
      </trkpt>
      <trkpt lat="42.92715" lon="0.29595">
        <ele>1274.2</ele>
        <time>2021-08-05T07:36:54Z</time>
      </trkpt>
      <trkpt lat="42.92715" lon="0.29597">
        <ele>1274.2</ele>
        <time>2021-08-05T07:36:55Z</time>
      </trkpt>
      <trkpt lat="42.92716" lon="0.29599">
        <ele>1274.4</ele>
        <time>2021-08-05T07:36:56Z</time>
      </trkpt>
      <trkpt lat="42.92717" lon="0.296">
        <ele>1274.4</ele>
        <time>2021-08-05T07:36:57Z</time>
      </trkpt>
      <trkpt lat="42.92718" lon="0.29602">
        <ele>1274.4</ele>
        <time>2021-08-05T07:36:58Z</time>
      </trkpt>
      <trkpt lat="42.92719" lon="0.29604">
        <ele>1274.6</ele>
        <time>2021-08-05T07:36:59Z</time>
      </trkpt>
      <trkpt lat="42.9272" lon="0.29606">
        <ele>1274.8</ele>
        <time>2021-08-05T07:37:00Z</time>
      </trkpt>
      <trkpt lat="42.9272" lon="0.29608">
        <ele>1274.8</ele>
        <time>2021-08-05T07:37:01Z</time>
      </trkpt>
      <trkpt lat="42.92721" lon="0.2961">
        <ele>1275</ele>
        <time>2021-08-05T07:37:02Z</time>
      </trkpt>
      <trkpt lat="42.92722" lon="0.29611">
        <ele>1275.2</ele>
        <time>2021-08-05T07:37:03Z</time>
      </trkpt>
      <trkpt lat="42.92722" lon="0.29614">
        <ele>1275.4</ele>
        <time>2021-08-05T07:37:04Z</time>
      </trkpt>
      <trkpt lat="42.92723" lon="0.29615">
        <ele>1275.4</ele>
        <time>2021-08-05T07:37:05Z</time>
      </trkpt>
      <trkpt lat="42.92723" lon="0.29617">
        <ele>1275.6</ele>
        <time>2021-08-05T07:37:06Z</time>
      </trkpt>
      <trkpt lat="42.92724" lon="0.29618">
        <ele>1275.6</ele>
        <time>2021-08-05T07:37:07Z</time>
      </trkpt>
      <trkpt lat="42.92724" lon="0.2962">
        <ele>1275.6</ele>
        <time>2021-08-05T07:37:08Z</time>
      </trkpt>
      <trkpt lat="42.92724" lon="0.29622">
        <ele>1275.8</ele>
        <time>2021-08-05T07:37:09Z</time>
      </trkpt>
      <trkpt lat="42.92724" lon="0.29623">
        <ele>1275.8</ele>
        <time>2021-08-05T07:37:10Z</time>
      </trkpt>
      <trkpt lat="42.92723" lon="0.29624">
        <ele>1275.8</ele>
        <time>2021-08-05T07:37:11Z</time>
      </trkpt>
      <trkpt lat="42.92723" lon="0.29624">
        <ele>1276</ele>
        <time>2021-08-05T07:37:13Z</time>
      </trkpt>
      <trkpt lat="42.92723" lon="0.29624">
        <ele>1276.4</ele>
        <time>2021-08-05T07:37:21Z</time>
      </trkpt>
      <trkpt lat="42.92723" lon="0.29624">
        <ele>1276.4</ele>
        <time>2021-08-05T07:37:23Z</time>
      </trkpt>
      <trkpt lat="42.92722" lon="0.29626">
        <ele>1276.4</ele>
        <time>2021-08-05T07:37:41Z</time>
      </trkpt>
      <trkpt lat="42.92722" lon="0.29627">
        <ele>1276.4</ele>
        <time>2021-08-05T07:37:42Z</time>
      </trkpt>
      <trkpt lat="42.92721" lon="0.29628">
        <ele>1276.4</ele>
        <time>2021-08-05T07:37:43Z</time>
      </trkpt>
      <trkpt lat="42.9272" lon="0.29629">
        <ele>1276.4</ele>
        <time>2021-08-05T07:37:44Z</time>
      </trkpt>
      <trkpt lat="42.92718" lon="0.29632">
        <ele>1276.4</ele>
        <time>2021-08-05T07:37:46Z</time>
      </trkpt>
      <trkpt lat="42.92717" lon="0.29633">
        <ele>1276.6</ele>
        <time>2021-08-05T07:37:47Z</time>
      </trkpt>
      <trkpt lat="42.92714" lon="0.29637">
        <ele>1276.6</ele>
        <time>2021-08-05T07:37:50Z</time>
      </trkpt>
      <trkpt lat="42.92712" lon="0.29638">
        <ele>1276.6</ele>
        <time>2021-08-05T07:37:52Z</time>
      </trkpt>
      <trkpt lat="42.92711" lon="0.29639">
        <ele>1276.6</ele>
        <time>2021-08-05T07:37:53Z</time>
      </trkpt>
      <trkpt lat="42.92708" lon="0.29642">
        <ele>1276.6</ele>
        <time>2021-08-05T07:37:56Z</time>
      </trkpt>
      <trkpt lat="42.92707" lon="0.29642">
        <ele>1276.6</ele>
        <time>2021-08-05T07:37:57Z</time>
      </trkpt>
      <trkpt lat="42.92707" lon="0.29642">
        <ele>1276.8</ele>
        <time>2021-08-05T07:37:58Z</time>
      </trkpt>
      <trkpt lat="42.92707" lon="0.29642">
        <ele>1277.2</ele>
        <time>2021-08-05T07:38:10Z</time>
      </trkpt>
      <trkpt lat="42.92707" lon="0.29642">
        <ele>1277</ele>
        <time>2021-08-05T07:38:42Z</time>
      </trkpt>
      <trkpt lat="42.92701" lon="0.29645">
        <ele>1276.8</ele>
        <time>2021-08-05T07:38:56Z</time>
      </trkpt>
      <trkpt lat="42.92694" lon="0.29648">
        <ele>1276.8</ele>
        <time>2021-08-05T07:38:59Z</time>
      </trkpt>
      <trkpt lat="42.92692" lon="0.29649">
        <ele>1276.8</ele>
        <time>2021-08-05T07:39:00Z</time>
      </trkpt>
      <trkpt lat="42.92688" lon="0.29654">
        <ele>1276.8</ele>
        <time>2021-08-05T07:39:02Z</time>
      </trkpt>
      <trkpt lat="42.92686" lon="0.29657">
        <ele>1276.8</ele>
        <time>2021-08-05T07:39:03Z</time>
      </trkpt>
      <trkpt lat="42.92685" lon="0.29659">
        <ele>1276.8</ele>
        <time>2021-08-05T07:39:04Z</time>
      </trkpt>
      <trkpt lat="42.92676" lon="0.29666">
        <ele>1276.8</ele>
        <time>2021-08-05T07:39:08Z</time>
      </trkpt>
      <trkpt lat="42.92659" lon="0.29688">
        <ele>1277.2</ele>
        <time>2021-08-05T07:39:16Z</time>
      </trkpt>
      <trkpt lat="42.9265" lon="0.29705">
        <ele>1277.4</ele>
        <time>2021-08-05T07:39:21Z</time>
      </trkpt>
      <trkpt lat="42.92628" lon="0.29731">
        <ele>1277.8</ele>
        <time>2021-08-05T07:39:28Z</time>
      </trkpt>
      <trkpt lat="42.92626" lon="0.29734">
        <ele>1277.8</ele>
        <time>2021-08-05T07:39:29Z</time>
      </trkpt>
      <trkpt lat="42.92618" lon="0.29744">
        <ele>1277.8</ele>
        <time>2021-08-05T07:39:32Z</time>
      </trkpt>
      <trkpt lat="42.92615" lon="0.29748">
        <ele>1277.8</ele>
        <time>2021-08-05T07:39:33Z</time>
      </trkpt>
      <trkpt lat="42.9261" lon="0.29754">
        <ele>1277.8</ele>
        <time>2021-08-05T07:39:35Z</time>
      </trkpt>
      <trkpt lat="42.92605" lon="0.29761">
        <ele>1278</ele>
        <time>2021-08-05T07:39:37Z</time>
      </trkpt>
      <trkpt lat="42.92589" lon="0.2978">
        <ele>1278.6</ele>
        <time>2021-08-05T07:39:43Z</time>
      </trkpt>
      <trkpt lat="42.92567" lon="0.29806">
        <ele>1278.6</ele>
        <time>2021-08-05T07:39:50Z</time>
      </trkpt>
      <trkpt lat="42.92558" lon="0.29818">
        <ele>1278.8</ele>
        <time>2021-08-05T07:39:53Z</time>
      </trkpt>
      <trkpt lat="42.92552" lon="0.29826">
        <ele>1278.8</ele>
        <time>2021-08-05T07:39:55Z</time>
      </trkpt>
      <trkpt lat="42.92538" lon="0.29847">
        <ele>1278.8</ele>
        <time>2021-08-05T07:40:00Z</time>
      </trkpt>
      <trkpt lat="42.92535" lon="0.29851">
        <ele>1278.8</ele>
        <time>2021-08-05T07:40:01Z</time>
      </trkpt>
      <trkpt lat="42.92533" lon="0.29856">
        <ele>1279</ele>
        <time>2021-08-05T07:40:02Z</time>
      </trkpt>
      <trkpt lat="42.92527" lon="0.29865">
        <ele>1279</ele>
        <time>2021-08-05T07:40:04Z</time>
      </trkpt>
      <trkpt lat="42.92524" lon="0.29869">
        <ele>1279</ele>
        <time>2021-08-05T07:40:05Z</time>
      </trkpt>
      <trkpt lat="42.92522" lon="0.29874">
        <ele>1279</ele>
        <time>2021-08-05T07:40:06Z</time>
      </trkpt>
      <trkpt lat="42.92519" lon="0.29883">
        <ele>1279</ele>
        <time>2021-08-05T07:40:08Z</time>
      </trkpt>
      <trkpt lat="42.92519" lon="0.29887">
        <ele>1279</ele>
        <time>2021-08-05T07:40:09Z</time>
      </trkpt>
      <trkpt lat="42.92518" lon="0.29891">
        <ele>1279.2</ele>
        <time>2021-08-05T07:40:10Z</time>
      </trkpt>
      <trkpt lat="42.92516" lon="0.29895">
        <ele>1279.4</ele>
        <time>2021-08-05T07:40:11Z</time>
      </trkpt>
      <trkpt lat="42.9251" lon="0.29926">
        <ele>1279.8</ele>
        <time>2021-08-05T07:40:17Z</time>
      </trkpt>
      <trkpt lat="42.92509" lon="0.29941">
        <ele>1279.8</ele>
        <time>2021-08-05T07:40:20Z</time>
      </trkpt>
      <trkpt lat="42.92509" lon="0.29947">
        <ele>1280</ele>
        <time>2021-08-05T07:40:21Z</time>
      </trkpt>
      <trkpt lat="42.92509" lon="0.29953">
        <ele>1279.8</ele>
        <time>2021-08-05T07:40:22Z</time>
      </trkpt>
      <trkpt lat="42.92509" lon="0.29967">
        <ele>1279.8</ele>
        <time>2021-08-05T07:40:25Z</time>
      </trkpt>
      <trkpt lat="42.92509" lon="0.29972">
        <ele>1279.8</ele>
        <time>2021-08-05T07:40:26Z</time>
      </trkpt>
      <trkpt lat="42.92508" lon="0.29976">
        <ele>1279.8</ele>
        <time>2021-08-05T07:40:27Z</time>
      </trkpt>
      <trkpt lat="42.92507" lon="0.29979">
        <ele>1280</ele>
        <time>2021-08-05T07:40:28Z</time>
      </trkpt>
      <trkpt lat="42.92506" lon="0.29984">
        <ele>1280</ele>
        <time>2021-08-05T07:40:29Z</time>
      </trkpt>
      <trkpt lat="42.92505" lon="0.29989">
        <ele>1280.2</ele>
        <time>2021-08-05T07:40:30Z</time>
      </trkpt>
      <trkpt lat="42.92505" lon="0.29993">
        <ele>1280.2</ele>
        <time>2021-08-05T07:40:31Z</time>
      </trkpt>
      <trkpt lat="42.92504" lon="0.29997">
        <ele>1280.4</ele>
        <time>2021-08-05T07:40:32Z</time>
      </trkpt>
      <trkpt lat="42.92503" lon="0.30001">
        <ele>1280.4</ele>
        <time>2021-08-05T07:40:33Z</time>
      </trkpt>
      <trkpt lat="42.92502" lon="0.30006">
        <ele>1280.6</ele>
        <time>2021-08-05T07:40:34Z</time>
      </trkpt>
      <trkpt lat="42.925" lon="0.3001">
        <ele>1280.6</ele>
        <time>2021-08-05T07:40:35Z</time>
      </trkpt>
      <trkpt lat="42.92497" lon="0.30018">
        <ele>1280.8</ele>
        <time>2021-08-05T07:40:37Z</time>
      </trkpt>
      <trkpt lat="42.92491" lon="0.30043">
        <ele>1281.8</ele>
        <time>2021-08-05T07:40:43Z</time>
      </trkpt>
      <trkpt lat="42.9249" lon="0.30054">
        <ele>1282.2</ele>
        <time>2021-08-05T07:40:46Z</time>
      </trkpt>
      <trkpt lat="42.92489" lon="0.30058">
        <ele>1282</ele>
        <time>2021-08-05T07:40:47Z</time>
      </trkpt>
      <trkpt lat="42.92488" lon="0.30063">
        <ele>1282.2</ele>
        <time>2021-08-05T07:40:48Z</time>
      </trkpt>
      <trkpt lat="42.92487" lon="0.30067">
        <ele>1282.2</ele>
        <time>2021-08-05T07:40:49Z</time>
      </trkpt>
      <trkpt lat="42.92485" lon="0.3007">
        <ele>1282.4</ele>
        <time>2021-08-05T07:40:50Z</time>
      </trkpt>
      <trkpt lat="42.92483" lon="0.30073">
        <ele>1282.6</ele>
        <time>2021-08-05T07:40:51Z</time>
      </trkpt>
      <trkpt lat="42.92482" lon="0.30077">
        <ele>1282.8</ele>
        <time>2021-08-05T07:40:52Z</time>
      </trkpt>
      <trkpt lat="42.92481" lon="0.30082">
        <ele>1283</ele>
        <time>2021-08-05T07:40:53Z</time>
      </trkpt>
      <trkpt lat="42.92481" lon="0.30086">
        <ele>1283</ele>
        <time>2021-08-05T07:40:54Z</time>
      </trkpt>
      <trkpt lat="42.9248" lon="0.30089">
        <ele>1283.2</ele>
        <time>2021-08-05T07:40:55Z</time>
      </trkpt>
      <trkpt lat="42.92479" lon="0.30092">
        <ele>1283.4</ele>
        <time>2021-08-05T07:40:56Z</time>
      </trkpt>
      <trkpt lat="42.92478" lon="0.30096">
        <ele>1283.8</ele>
        <time>2021-08-05T07:40:57Z</time>
      </trkpt>
      <trkpt lat="42.92476" lon="0.301">
        <ele>1283.8</ele>
        <time>2021-08-05T07:40:58Z</time>
      </trkpt>
      <trkpt lat="42.92474" lon="0.30103">
        <ele>1284.2</ele>
        <time>2021-08-05T07:40:59Z</time>
      </trkpt>
      <trkpt lat="42.92473" lon="0.30106">
        <ele>1284.4</ele>
        <time>2021-08-05T07:41:00Z</time>
      </trkpt>
      <trkpt lat="42.92473" lon="0.30109">
        <ele>1284.8</ele>
        <time>2021-08-05T07:41:01Z</time>
      </trkpt>
      <trkpt lat="42.92472" lon="0.30112">
        <ele>1284.8</ele>
        <time>2021-08-05T07:41:02Z</time>
      </trkpt>
      <trkpt lat="42.92471" lon="0.30115">
        <ele>1285</ele>
        <time>2021-08-05T07:41:03Z</time>
      </trkpt>
      <trkpt lat="42.9247" lon="0.30118">
        <ele>1285.2</ele>
        <time>2021-08-05T07:41:04Z</time>
      </trkpt>
      <trkpt lat="42.92468" lon="0.3012">
        <ele>1285.4</ele>
        <time>2021-08-05T07:41:05Z</time>
      </trkpt>
      <trkpt lat="42.92467" lon="0.30122">
        <ele>1285.6</ele>
        <time>2021-08-05T07:41:06Z</time>
      </trkpt>
      <trkpt lat="42.92466" lon="0.30125">
        <ele>1285.8</ele>
        <time>2021-08-05T07:41:07Z</time>
      </trkpt>
      <trkpt lat="42.92465" lon="0.30127">
        <ele>1286.2</ele>
        <time>2021-08-05T07:41:08Z</time>
      </trkpt>
      <trkpt lat="42.92463" lon="0.30129">
        <ele>1286.4</ele>
        <time>2021-08-05T07:41:09Z</time>
      </trkpt>
      <trkpt lat="42.92462" lon="0.30131">
        <ele>1286.6</ele>
        <time>2021-08-05T07:41:10Z</time>
      </trkpt>
      <trkpt lat="42.92461" lon="0.30133">
        <ele>1286.6</ele>
        <time>2021-08-05T07:41:11Z</time>
      </trkpt>
      <trkpt lat="42.92461" lon="0.30136">
        <ele>1286.8</ele>
        <time>2021-08-05T07:41:12Z</time>
      </trkpt>
      <trkpt lat="42.92461" lon="0.30138">
        <ele>1287</ele>
        <time>2021-08-05T07:41:13Z</time>
      </trkpt>
      <trkpt lat="42.9246" lon="0.30141">
        <ele>1287.2</ele>
        <time>2021-08-05T07:41:14Z</time>
      </trkpt>
      <trkpt lat="42.9246" lon="0.30143">
        <ele>1287</ele>
        <time>2021-08-05T07:41:15Z</time>
      </trkpt>
      <trkpt lat="42.92459" lon="0.30145">
        <ele>1287.2</ele>
        <time>2021-08-05T07:41:16Z</time>
      </trkpt>
      <trkpt lat="42.92459" lon="0.30147">
        <ele>1287.4</ele>
        <time>2021-08-05T07:41:17Z</time>
      </trkpt>
      <trkpt lat="42.92458" lon="0.3015">
        <ele>1287.8</ele>
        <time>2021-08-05T07:41:18Z</time>
      </trkpt>
      <trkpt lat="42.92456" lon="0.30151">
        <ele>1287.8</ele>
        <time>2021-08-05T07:41:19Z</time>
      </trkpt>
      <trkpt lat="42.92455" lon="0.30153">
        <ele>1288</ele>
        <time>2021-08-05T07:41:20Z</time>
      </trkpt>
      <trkpt lat="42.92454" lon="0.30154">
        <ele>1288</ele>
        <time>2021-08-05T07:41:21Z</time>
      </trkpt>
      <trkpt lat="42.92453" lon="0.30157">
        <ele>1288.2</ele>
        <time>2021-08-05T07:41:22Z</time>
      </trkpt>
      <trkpt lat="42.92453" lon="0.3016">
        <ele>1288.6</ele>
        <time>2021-08-05T07:41:23Z</time>
      </trkpt>
      <trkpt lat="42.92453" lon="0.30164">
        <ele>1288.8</ele>
        <time>2021-08-05T07:41:24Z</time>
      </trkpt>
      <trkpt lat="42.92453" lon="0.30167">
        <ele>1289.2</ele>
        <time>2021-08-05T07:41:25Z</time>
      </trkpt>
      <trkpt lat="42.92452" lon="0.30169">
        <ele>1289.4</ele>
        <time>2021-08-05T07:41:26Z</time>
      </trkpt>
      <trkpt lat="42.92452" lon="0.3017">
        <ele>1289.4</ele>
        <time>2021-08-05T07:41:27Z</time>
      </trkpt>
      <trkpt lat="42.92454" lon="0.30171">
        <ele>1289.4</ele>
        <time>2021-08-05T07:41:28Z</time>
      </trkpt>
      <trkpt lat="42.92456" lon="0.30171">
        <ele>1289.6</ele>
        <time>2021-08-05T07:41:29Z</time>
      </trkpt>
      <trkpt lat="42.92457" lon="0.30173">
        <ele>1289.6</ele>
        <time>2021-08-05T07:41:30Z</time>
      </trkpt>
      <trkpt lat="42.92458" lon="0.30175">
        <ele>1289.6</ele>
        <time>2021-08-05T07:41:31Z</time>
      </trkpt>
      <trkpt lat="42.9246" lon="0.30177">
        <ele>1289.8</ele>
        <time>2021-08-05T07:41:32Z</time>
      </trkpt>
      <trkpt lat="42.92462" lon="0.30179">
        <ele>1290</ele>
        <time>2021-08-05T07:41:33Z</time>
      </trkpt>
      <trkpt lat="42.92464" lon="0.30181">
        <ele>1290</ele>
        <time>2021-08-05T07:41:34Z</time>
      </trkpt>
      <trkpt lat="42.92465" lon="0.30182">
        <ele>1290.2</ele>
        <time>2021-08-05T07:41:35Z</time>
      </trkpt>
      <trkpt lat="42.92466" lon="0.30185">
        <ele>1290.4</ele>
        <time>2021-08-05T07:41:36Z</time>
      </trkpt>
      <trkpt lat="42.92467" lon="0.30186">
        <ele>1290.6</ele>
        <time>2021-08-05T07:41:37Z</time>
      </trkpt>
      <trkpt lat="42.92467" lon="0.30186">
        <ele>1290.8</ele>
        <time>2021-08-05T07:41:38Z</time>
      </trkpt>
      <trkpt lat="42.92469" lon="0.30188">
        <ele>1291</ele>
        <time>2021-08-05T07:41:39Z</time>
      </trkpt>
      <trkpt lat="42.92471" lon="0.3019">
        <ele>1291.2</ele>
        <time>2021-08-05T07:41:40Z</time>
      </trkpt>
      <trkpt lat="42.92472" lon="0.30192">
        <ele>1291.4</ele>
        <time>2021-08-05T07:41:41Z</time>
      </trkpt>
      <trkpt lat="42.92474" lon="0.30194">
        <ele>1291.6</ele>
        <time>2021-08-05T07:41:42Z</time>
      </trkpt>
      <trkpt lat="42.92475" lon="0.30195">
        <ele>1291.8</ele>
        <time>2021-08-05T07:41:43Z</time>
      </trkpt>
      <trkpt lat="42.92476" lon="0.30197">
        <ele>1292</ele>
        <time>2021-08-05T07:41:44Z</time>
      </trkpt>
      <trkpt lat="42.92476" lon="0.30199">
        <ele>1292.2</ele>
        <time>2021-08-05T07:41:45Z</time>
      </trkpt>
      <trkpt lat="42.92477" lon="0.30201">
        <ele>1292.4</ele>
        <time>2021-08-05T07:41:46Z</time>
      </trkpt>
      <trkpt lat="42.92478" lon="0.30202">
        <ele>1292.4</ele>
        <time>2021-08-05T07:41:47Z</time>
      </trkpt>
      <trkpt lat="42.92479" lon="0.30203">
        <ele>1292.6</ele>
        <time>2021-08-05T07:41:48Z</time>
      </trkpt>
      <trkpt lat="42.92481" lon="0.30203">
        <ele>1292.6</ele>
        <time>2021-08-05T07:41:49Z</time>
      </trkpt>
      <trkpt lat="42.92481" lon="0.30203">
        <ele>1293</ele>
        <time>2021-08-05T07:41:50Z</time>
      </trkpt>
      <trkpt lat="42.92481" lon="0.30203">
        <ele>1293.2</ele>
        <time>2021-08-05T07:41:51Z</time>
      </trkpt>
      <trkpt lat="42.92483" lon="0.30204">
        <ele>1293.4</ele>
        <time>2021-08-05T07:41:52Z</time>
      </trkpt>
      <trkpt lat="42.92484" lon="0.30204">
        <ele>1293.6</ele>
        <time>2021-08-05T07:41:53Z</time>
      </trkpt>
      <trkpt lat="42.92486" lon="0.30204">
        <ele>1294</ele>
        <time>2021-08-05T07:41:55Z</time>
      </trkpt>
      <trkpt lat="42.92487" lon="0.30204">
        <ele>1294.2</ele>
        <time>2021-08-05T07:41:56Z</time>
      </trkpt>
      <trkpt lat="42.92486" lon="0.30202">
        <ele>1294.4</ele>
        <time>2021-08-05T07:41:57Z</time>
      </trkpt>
      <trkpt lat="42.92487" lon="0.30202">
        <ele>1294.6</ele>
        <time>2021-08-05T07:41:59Z</time>
      </trkpt>
      <trkpt lat="42.92488" lon="0.30203">
        <ele>1294.8</ele>
        <time>2021-08-05T07:42:00Z</time>
      </trkpt>
      <trkpt lat="42.92492" lon="0.30202">
        <ele>1295.2</ele>
        <time>2021-08-05T07:42:01Z</time>
      </trkpt>
      <trkpt lat="42.92496" lon="0.30206">
        <ele>1295.4</ele>
        <time>2021-08-05T07:42:02Z</time>
      </trkpt>
      <trkpt lat="42.925" lon="0.30208">
        <ele>1295.8</ele>
        <time>2021-08-05T07:42:03Z</time>
      </trkpt>
      <trkpt lat="42.925" lon="0.30208">
        <ele>1296</ele>
        <time>2021-08-05T07:42:04Z</time>
      </trkpt>
      <trkpt lat="42.92502" lon="0.30208">
        <ele>1296.2</ele>
        <time>2021-08-05T07:42:05Z</time>
      </trkpt>
      <trkpt lat="42.92501" lon="0.30206">
        <ele>1296.2</ele>
        <time>2021-08-05T07:42:06Z</time>
      </trkpt>
      <trkpt lat="42.92502" lon="0.30205">
        <ele>1296.2</ele>
        <time>2021-08-05T07:42:07Z</time>
      </trkpt>
      <trkpt lat="42.92503" lon="0.30204">
        <ele>1296.2</ele>
        <time>2021-08-05T07:42:08Z</time>
      </trkpt>
      <trkpt lat="42.92504" lon="0.30203">
        <ele>1296.6</ele>
        <time>2021-08-05T07:42:09Z</time>
      </trkpt>
      <trkpt lat="42.92504" lon="0.30203">
        <ele>1296.6</ele>
        <time>2021-08-05T07:42:10Z</time>
      </trkpt>
      <trkpt lat="42.92506" lon="0.30202">
        <ele>1296.8</ele>
        <time>2021-08-05T07:42:11Z</time>
      </trkpt>
      <trkpt lat="42.92507" lon="0.30203">
        <ele>1297</ele>
        <time>2021-08-05T07:42:12Z</time>
      </trkpt>
      <trkpt lat="42.92509" lon="0.30204">
        <ele>1297.2</ele>
        <time>2021-08-05T07:42:13Z</time>
      </trkpt>
      <trkpt lat="42.92511" lon="0.30205">
        <ele>1297.4</ele>
        <time>2021-08-05T07:42:14Z</time>
      </trkpt>
      <trkpt lat="42.92513" lon="0.30204">
        <ele>1297.8</ele>
        <time>2021-08-05T07:42:15Z</time>
      </trkpt>
      <trkpt lat="42.92515" lon="0.30204">
        <ele>1297.8</ele>
        <time>2021-08-05T07:42:16Z</time>
      </trkpt>
      <trkpt lat="42.92516" lon="0.30204">
        <ele>1298.2</ele>
        <time>2021-08-05T07:42:17Z</time>
      </trkpt>
      <trkpt lat="42.92516" lon="0.30204">
        <ele>1298.4</ele>
        <time>2021-08-05T07:42:18Z</time>
      </trkpt>
      <trkpt lat="42.92516" lon="0.30204">
        <ele>1298.4</ele>
        <time>2021-08-05T07:42:19Z</time>
      </trkpt>
      <trkpt lat="42.92518" lon="0.30203">
        <ele>1298.8</ele>
        <time>2021-08-05T07:42:20Z</time>
      </trkpt>
      <trkpt lat="42.92519" lon="0.30202">
        <ele>1298.8</ele>
        <time>2021-08-05T07:42:21Z</time>
      </trkpt>
      <trkpt lat="42.9252" lon="0.30201">
        <ele>1299</ele>
        <time>2021-08-05T07:42:22Z</time>
      </trkpt>
      <trkpt lat="42.92521" lon="0.302">
        <ele>1299.2</ele>
        <time>2021-08-05T07:42:23Z</time>
      </trkpt>
      <trkpt lat="42.92524" lon="0.30203">
        <ele>1299.4</ele>
        <time>2021-08-05T07:42:24Z</time>
      </trkpt>
      <trkpt lat="42.92526" lon="0.30204">
        <ele>1299.6</ele>
        <time>2021-08-05T07:42:25Z</time>
      </trkpt>
      <trkpt lat="42.92528" lon="0.30205">
        <ele>1300</ele>
        <time>2021-08-05T07:42:26Z</time>
      </trkpt>
      <trkpt lat="42.9253" lon="0.30205">
        <ele>1300</ele>
        <time>2021-08-05T07:42:27Z</time>
      </trkpt>
      <trkpt lat="42.92532" lon="0.30205">
        <ele>1300.4</ele>
        <time>2021-08-05T07:42:28Z</time>
      </trkpt>
      <trkpt lat="42.92534" lon="0.30205">
        <ele>1300.4</ele>
        <time>2021-08-05T07:42:29Z</time>
      </trkpt>
      <trkpt lat="42.92534" lon="0.30204">
        <ele>1300.6</ele>
        <time>2021-08-05T07:42:30Z</time>
      </trkpt>
      <trkpt lat="42.92536" lon="0.30205">
        <ele>1300.8</ele>
        <time>2021-08-05T07:42:31Z</time>
      </trkpt>
      <trkpt lat="42.92538" lon="0.30205">
        <ele>1300.8</ele>
        <time>2021-08-05T07:42:32Z</time>
      </trkpt>
      <trkpt lat="42.92539" lon="0.30207">
        <ele>1301</ele>
        <time>2021-08-05T07:42:33Z</time>
      </trkpt>
      <trkpt lat="42.92543" lon="0.3021">
        <ele>1301.2</ele>
        <time>2021-08-05T07:42:34Z</time>
      </trkpt>
      <trkpt lat="42.92546" lon="0.30212">
        <ele>1301.4</ele>
        <time>2021-08-05T07:42:35Z</time>
      </trkpt>
      <trkpt lat="42.92548" lon="0.30212">
        <ele>1301.8</ele>
        <time>2021-08-05T07:42:36Z</time>
      </trkpt>
      <trkpt lat="42.92549" lon="0.30212">
        <ele>1302</ele>
        <time>2021-08-05T07:42:37Z</time>
      </trkpt>
      <trkpt lat="42.9255" lon="0.30214">
        <ele>1302.2</ele>
        <time>2021-08-05T07:42:38Z</time>
      </trkpt>
      <trkpt lat="42.9255" lon="0.30214">
        <ele>1302.2</ele>
        <time>2021-08-05T07:42:39Z</time>
      </trkpt>
      <trkpt lat="42.9255" lon="0.30214">
        <ele>1302.4</ele>
        <time>2021-08-05T07:42:40Z</time>
      </trkpt>
      <trkpt lat="42.92551" lon="0.30214">
        <ele>1302.6</ele>
        <time>2021-08-05T07:42:41Z</time>
      </trkpt>
      <trkpt lat="42.92553" lon="0.30216">
        <ele>1302.6</ele>
        <time>2021-08-05T07:42:42Z</time>
      </trkpt>
      <trkpt lat="42.92555" lon="0.30216">
        <ele>1302.8</ele>
        <time>2021-08-05T07:42:43Z</time>
      </trkpt>
      <trkpt lat="42.92558" lon="0.30217">
        <ele>1303.2</ele>
        <time>2021-08-05T07:42:44Z</time>
      </trkpt>
      <trkpt lat="42.92562" lon="0.30219">
        <ele>1303.4</ele>
        <time>2021-08-05T07:42:45Z</time>
      </trkpt>
      <trkpt lat="42.92564" lon="0.30219">
        <ele>1303.6</ele>
        <time>2021-08-05T07:42:46Z</time>
      </trkpt>
      <trkpt lat="42.92565" lon="0.30217">
        <ele>1303.8</ele>
        <time>2021-08-05T07:42:47Z</time>
      </trkpt>
      <trkpt lat="42.92566" lon="0.30214">
        <ele>1303.8</ele>
        <time>2021-08-05T07:42:48Z</time>
      </trkpt>
      <trkpt lat="42.92568" lon="0.30215">
        <ele>1304</ele>
        <time>2021-08-05T07:42:49Z</time>
      </trkpt>
      <trkpt lat="42.9257" lon="0.30216">
        <ele>1304</ele>
        <time>2021-08-05T07:42:50Z</time>
      </trkpt>
      <trkpt lat="42.92573" lon="0.3022">
        <ele>1304.2</ele>
        <time>2021-08-05T07:42:51Z</time>
      </trkpt>
      <trkpt lat="42.92575" lon="0.30221">
        <ele>1304.4</ele>
        <time>2021-08-05T07:42:52Z</time>
      </trkpt>
      <trkpt lat="42.92575" lon="0.30221">
        <ele>1304.6</ele>
        <time>2021-08-05T07:42:53Z</time>
      </trkpt>
      <trkpt lat="42.92576" lon="0.30221">
        <ele>1304.8</ele>
        <time>2021-08-05T07:42:54Z</time>
      </trkpt>
      <trkpt lat="42.92578" lon="0.3022">
        <ele>1305</ele>
        <time>2021-08-05T07:42:55Z</time>
      </trkpt>
      <trkpt lat="42.92579" lon="0.3022">
        <ele>1305.2</ele>
        <time>2021-08-05T07:42:56Z</time>
      </trkpt>
      <trkpt lat="42.9258" lon="0.30219">
        <ele>1305.4</ele>
        <time>2021-08-05T07:42:57Z</time>
      </trkpt>
      <trkpt lat="42.92582" lon="0.30219">
        <ele>1305.6</ele>
        <time>2021-08-05T07:42:58Z</time>
      </trkpt>
      <trkpt lat="42.92583" lon="0.30219">
        <ele>1305.8</ele>
        <time>2021-08-05T07:42:59Z</time>
      </trkpt>
      <trkpt lat="42.92584" lon="0.3022">
        <ele>1306</ele>
        <time>2021-08-05T07:43:00Z</time>
      </trkpt>
      <trkpt lat="42.92585" lon="0.3022">
        <ele>1306.2</ele>
        <time>2021-08-05T07:43:01Z</time>
      </trkpt>
      <trkpt lat="42.92587" lon="0.30219">
        <ele>1306.2</ele>
        <time>2021-08-05T07:43:02Z</time>
      </trkpt>
      <trkpt lat="42.92587" lon="0.30219">
        <ele>1306.4</ele>
        <time>2021-08-05T07:43:03Z</time>
      </trkpt>
      <trkpt lat="42.92587" lon="0.30219">
        <ele>1306.6</ele>
        <time>2021-08-05T07:43:04Z</time>
      </trkpt>
      <trkpt lat="42.92588" lon="0.30219">
        <ele>1306.8</ele>
        <time>2021-08-05T07:43:05Z</time>
      </trkpt>
      <trkpt lat="42.9259" lon="0.30219">
        <ele>1306.8</ele>
        <time>2021-08-05T07:43:06Z</time>
      </trkpt>
      <trkpt lat="42.92592" lon="0.30219">
        <ele>1307</ele>
        <time>2021-08-05T07:43:07Z</time>
      </trkpt>
      <trkpt lat="42.92594" lon="0.3022">
        <ele>1307.2</ele>
        <time>2021-08-05T07:43:08Z</time>
      </trkpt>
      <trkpt lat="42.92596" lon="0.30221">
        <ele>1307.2</ele>
        <time>2021-08-05T07:43:09Z</time>
      </trkpt>
      <trkpt lat="42.92598" lon="0.30222">
        <ele>1307.4</ele>
        <time>2021-08-05T07:43:10Z</time>
      </trkpt>
      <trkpt lat="42.926" lon="0.30222">
        <ele>1307.4</ele>
        <time>2021-08-05T07:43:11Z</time>
      </trkpt>
      <trkpt lat="42.92602" lon="0.30222">
        <ele>1307.6</ele>
        <time>2021-08-05T07:43:12Z</time>
      </trkpt>
      <trkpt lat="42.92604" lon="0.30221">
        <ele>1307.6</ele>
        <time>2021-08-05T07:43:13Z</time>
      </trkpt>
      <trkpt lat="42.92606" lon="0.30221">
        <ele>1307.8</ele>
        <time>2021-08-05T07:43:14Z</time>
      </trkpt>
      <trkpt lat="42.92609" lon="0.30222">
        <ele>1308.2</ele>
        <time>2021-08-05T07:43:15Z</time>
      </trkpt>
      <trkpt lat="42.92614" lon="0.30223">
        <ele>1308.4</ele>
        <time>2021-08-05T07:43:16Z</time>
      </trkpt>
      <trkpt lat="42.92616" lon="0.30223">
        <ele>1308.6</ele>
        <time>2021-08-05T07:43:17Z</time>
      </trkpt>
      <trkpt lat="42.92618" lon="0.30223">
        <ele>1308.6</ele>
        <time>2021-08-05T07:43:18Z</time>
      </trkpt>
      <trkpt lat="42.9262" lon="0.30224">
        <ele>1308.8</ele>
        <time>2021-08-05T07:43:19Z</time>
      </trkpt>
      <trkpt lat="42.92621" lon="0.30224">
        <ele>1309</ele>
        <time>2021-08-05T07:43:20Z</time>
      </trkpt>
      <trkpt lat="42.92621" lon="0.30224">
        <ele>1309</ele>
        <time>2021-08-05T07:43:21Z</time>
      </trkpt>
      <trkpt lat="42.92623" lon="0.30225">
        <ele>1309.2</ele>
        <time>2021-08-05T07:43:22Z</time>
      </trkpt>
      <trkpt lat="42.92623" lon="0.30225">
        <ele>1309.4</ele>
        <time>2021-08-05T07:43:23Z</time>
      </trkpt>
      <trkpt lat="42.92624" lon="0.30225">
        <ele>1309.4</ele>
        <time>2021-08-05T07:43:24Z</time>
      </trkpt>
      <trkpt lat="42.92626" lon="0.30226">
        <ele>1309.8</ele>
        <time>2021-08-05T07:43:25Z</time>
      </trkpt>
      <trkpt lat="42.92627" lon="0.30226">
        <ele>1310</ele>
        <time>2021-08-05T07:43:26Z</time>
      </trkpt>
      <trkpt lat="42.92628" lon="0.30225">
        <ele>1310.2</ele>
        <time>2021-08-05T07:43:27Z</time>
      </trkpt>
      <trkpt lat="42.9263" lon="0.30226">
        <ele>1310.4</ele>
        <time>2021-08-05T07:43:28Z</time>
      </trkpt>
      <trkpt lat="42.92631" lon="0.30226">
        <ele>1310.4</ele>
        <time>2021-08-05T07:43:29Z</time>
      </trkpt>
      <trkpt lat="42.92631" lon="0.30226">
        <ele>1310.6</ele>
        <time>2021-08-05T07:43:30Z</time>
      </trkpt>
      <trkpt lat="42.92631" lon="0.30226">
        <ele>1310.8</ele>
        <time>2021-08-05T07:43:31Z</time>
      </trkpt>
      <trkpt lat="42.92631" lon="0.30226">
        <ele>1310.8</ele>
        <time>2021-08-05T07:43:32Z</time>
      </trkpt>
      <trkpt lat="42.92633" lon="0.30226">
        <ele>1311</ele>
        <time>2021-08-05T07:43:33Z</time>
      </trkpt>
      <trkpt lat="42.92639" lon="0.30227">
        <ele>1311.2</ele>
        <time>2021-08-05T07:43:34Z</time>
      </trkpt>
      <trkpt lat="42.92642" lon="0.30228">
        <ele>1311.2</ele>
        <time>2021-08-05T07:43:35Z</time>
      </trkpt>
      <trkpt lat="42.92645" lon="0.3023">
        <ele>1311.4</ele>
        <time>2021-08-05T07:43:36Z</time>
      </trkpt>
      <trkpt lat="42.92646" lon="0.30231">
        <ele>1311.6</ele>
        <time>2021-08-05T07:43:37Z</time>
      </trkpt>
      <trkpt lat="42.92646" lon="0.30231">
        <ele>1312</ele>
        <time>2021-08-05T07:43:38Z</time>
      </trkpt>
      <trkpt lat="42.92647" lon="0.30231">
        <ele>1312.2</ele>
        <time>2021-08-05T07:43:39Z</time>
      </trkpt>
      <trkpt lat="42.92648" lon="0.30232">
        <ele>1312.4</ele>
        <time>2021-08-05T07:43:40Z</time>
      </trkpt>
      <trkpt lat="42.9265" lon="0.30234">
        <ele>1312.4</ele>
        <time>2021-08-05T07:43:41Z</time>
      </trkpt>
      <trkpt lat="42.92652" lon="0.30235">
        <ele>1312.8</ele>
        <time>2021-08-05T07:43:42Z</time>
      </trkpt>
      <trkpt lat="42.92652" lon="0.30236">
        <ele>1312.8</ele>
        <time>2021-08-05T07:43:43Z</time>
      </trkpt>
      <trkpt lat="42.92653" lon="0.30236">
        <ele>1313.2</ele>
        <time>2021-08-05T07:43:44Z</time>
      </trkpt>
      <trkpt lat="42.92654" lon="0.30236">
        <ele>1313.4</ele>
        <time>2021-08-05T07:43:45Z</time>
      </trkpt>
      <trkpt lat="42.92655" lon="0.30237">
        <ele>1313.6</ele>
        <time>2021-08-05T07:43:46Z</time>
      </trkpt>
      <trkpt lat="42.92656" lon="0.30238">
        <ele>1313.6</ele>
        <time>2021-08-05T07:43:47Z</time>
      </trkpt>
      <trkpt lat="42.92657" lon="0.30239">
        <ele>1314</ele>
        <time>2021-08-05T07:43:48Z</time>
      </trkpt>
      <trkpt lat="42.92658" lon="0.3024">
        <ele>1314.2</ele>
        <time>2021-08-05T07:43:49Z</time>
      </trkpt>
      <trkpt lat="42.9266" lon="0.30241">
        <ele>1314.4</ele>
        <time>2021-08-05T07:43:50Z</time>
      </trkpt>
      <trkpt lat="42.92661" lon="0.30242">
        <ele>1314.4</ele>
        <time>2021-08-05T07:43:51Z</time>
      </trkpt>
      <trkpt lat="42.92664" lon="0.30242">
        <ele>1314.6</ele>
        <time>2021-08-05T07:43:52Z</time>
      </trkpt>
      <trkpt lat="42.92666" lon="0.30242">
        <ele>1314.6</ele>
        <time>2021-08-05T07:43:53Z</time>
      </trkpt>
      <trkpt lat="42.92668" lon="0.30243">
        <ele>1314.8</ele>
        <time>2021-08-05T07:43:54Z</time>
      </trkpt>
      <trkpt lat="42.9267" lon="0.30245">
        <ele>1315</ele>
        <time>2021-08-05T07:43:55Z</time>
      </trkpt>
      <trkpt lat="42.92672" lon="0.30247">
        <ele>1315.2</ele>
        <time>2021-08-05T07:43:56Z</time>
      </trkpt>
      <trkpt lat="42.92674" lon="0.30249">
        <ele>1315.4</ele>
        <time>2021-08-05T07:43:57Z</time>
      </trkpt>
      <trkpt lat="42.92675" lon="0.30251">
        <ele>1315.6</ele>
        <time>2021-08-05T07:43:58Z</time>
      </trkpt>
      <trkpt lat="42.92677" lon="0.30252">
        <ele>1315.6</ele>
        <time>2021-08-05T07:43:59Z</time>
      </trkpt>
      <trkpt lat="42.92678" lon="0.30252">
        <ele>1315.8</ele>
        <time>2021-08-05T07:44:00Z</time>
      </trkpt>
      <trkpt lat="42.92679" lon="0.30253">
        <ele>1316.2</ele>
        <time>2021-08-05T07:44:01Z</time>
      </trkpt>
      <trkpt lat="42.92681" lon="0.30255">
        <ele>1316.6</ele>
        <time>2021-08-05T07:44:02Z</time>
      </trkpt>
      <trkpt lat="42.92682" lon="0.30256">
        <ele>1316.8</ele>
        <time>2021-08-05T07:44:03Z</time>
      </trkpt>
      <trkpt lat="42.92684" lon="0.30257">
        <ele>1317</ele>
        <time>2021-08-05T07:44:04Z</time>
      </trkpt>
      <trkpt lat="42.92685" lon="0.30259">
        <ele>1317</ele>
        <time>2021-08-05T07:44:05Z</time>
      </trkpt>
      <trkpt lat="42.92687" lon="0.30261">
        <ele>1317.2</ele>
        <time>2021-08-05T07:44:06Z</time>
      </trkpt>
      <trkpt lat="42.92688" lon="0.30262">
        <ele>1317.4</ele>
        <time>2021-08-05T07:44:07Z</time>
      </trkpt>
      <trkpt lat="42.92691" lon="0.30263">
        <ele>1317.4</ele>
        <time>2021-08-05T07:44:08Z</time>
      </trkpt>
      <trkpt lat="42.92692" lon="0.30264">
        <ele>1317.6</ele>
        <time>2021-08-05T07:44:09Z</time>
      </trkpt>
      <trkpt lat="42.92694" lon="0.30266">
        <ele>1317.8</ele>
        <time>2021-08-05T07:44:10Z</time>
      </trkpt>
      <trkpt lat="42.92694" lon="0.30268">
        <ele>1318</ele>
        <time>2021-08-05T07:44:11Z</time>
      </trkpt>
      <trkpt lat="42.92694" lon="0.30271">
        <ele>1318.2</ele>
        <time>2021-08-05T07:44:12Z</time>
      </trkpt>
      <trkpt lat="42.92695" lon="0.30274">
        <ele>1318.2</ele>
        <time>2021-08-05T07:44:13Z</time>
      </trkpt>
      <trkpt lat="42.92695" lon="0.30276">
        <ele>1318.6</ele>
        <time>2021-08-05T07:44:14Z</time>
      </trkpt>
      <trkpt lat="42.92696" lon="0.30277">
        <ele>1318.8</ele>
        <time>2021-08-05T07:44:15Z</time>
      </trkpt>
      <trkpt lat="42.92696" lon="0.30279">
        <ele>1319.2</ele>
        <time>2021-08-05T07:44:16Z</time>
      </trkpt>
      <trkpt lat="42.92697" lon="0.3028">
        <ele>1319.2</ele>
        <time>2021-08-05T07:44:17Z</time>
      </trkpt>
      <trkpt lat="42.92698" lon="0.30281">
        <ele>1319.6</ele>
        <time>2021-08-05T07:44:18Z</time>
      </trkpt>
      <trkpt lat="42.92699" lon="0.30282">
        <ele>1319.6</ele>
        <time>2021-08-05T07:44:19Z</time>
      </trkpt>
      <trkpt lat="42.927" lon="0.30284">
        <ele>1320</ele>
        <time>2021-08-05T07:44:20Z</time>
      </trkpt>
      <trkpt lat="42.927" lon="0.30285">
        <ele>1320</ele>
        <time>2021-08-05T07:44:21Z</time>
      </trkpt>
      <trkpt lat="42.92701" lon="0.30288">
        <ele>1320</ele>
        <time>2021-08-05T07:44:22Z</time>
      </trkpt>
      <trkpt lat="42.92701" lon="0.3029">
        <ele>1320.4</ele>
        <time>2021-08-05T07:44:23Z</time>
      </trkpt>
      <trkpt lat="42.92702" lon="0.30292">
        <ele>1320.6</ele>
        <time>2021-08-05T07:44:24Z</time>
      </trkpt>
      <trkpt lat="42.92703" lon="0.30293">
        <ele>1320.8</ele>
        <time>2021-08-05T07:44:25Z</time>
      </trkpt>
      <trkpt lat="42.92702" lon="0.30294">
        <ele>1321.2</ele>
        <time>2021-08-05T07:44:26Z</time>
      </trkpt>
      <trkpt lat="42.92702" lon="0.30296">
        <ele>1321.4</ele>
        <time>2021-08-05T07:44:27Z</time>
      </trkpt>
      <trkpt lat="42.92703" lon="0.30298">
        <ele>1321.4</ele>
        <time>2021-08-05T07:44:28Z</time>
      </trkpt>
      <trkpt lat="42.92703" lon="0.30299">
        <ele>1321.6</ele>
        <time>2021-08-05T07:44:29Z</time>
      </trkpt>
      <trkpt lat="42.92703" lon="0.30301">
        <ele>1322</ele>
        <time>2021-08-05T07:44:30Z</time>
      </trkpt>
      <trkpt lat="42.92702" lon="0.30302">
        <ele>1322</ele>
        <time>2021-08-05T07:44:31Z</time>
      </trkpt>
      <trkpt lat="42.92702" lon="0.30304">
        <ele>1322</ele>
        <time>2021-08-05T07:44:32Z</time>
      </trkpt>
      <trkpt lat="42.92701" lon="0.30306">
        <ele>1322.2</ele>
        <time>2021-08-05T07:44:33Z</time>
      </trkpt>
      <trkpt lat="42.92701" lon="0.30308">
        <ele>1322.2</ele>
        <time>2021-08-05T07:44:34Z</time>
      </trkpt>
      <trkpt lat="42.92702" lon="0.30309">
        <ele>1322.6</ele>
        <time>2021-08-05T07:44:35Z</time>
      </trkpt>
      <trkpt lat="42.92702" lon="0.30311">
        <ele>1322.6</ele>
        <time>2021-08-05T07:44:36Z</time>
      </trkpt>
      <trkpt lat="42.92701" lon="0.30313">
        <ele>1322.8</ele>
        <time>2021-08-05T07:44:37Z</time>
      </trkpt>
      <trkpt lat="42.92701" lon="0.30314">
        <ele>1323</ele>
        <time>2021-08-05T07:44:38Z</time>
      </trkpt>
      <trkpt lat="42.92701" lon="0.30315">
        <ele>1323.2</ele>
        <time>2021-08-05T07:44:39Z</time>
      </trkpt>
      <trkpt lat="42.92701" lon="0.30317">
        <ele>1323.2</ele>
        <time>2021-08-05T07:44:40Z</time>
      </trkpt>
      <trkpt lat="42.92701" lon="0.30319">
        <ele>1323.4</ele>
        <time>2021-08-05T07:44:41Z</time>
      </trkpt>
      <trkpt lat="42.927" lon="0.30321">
        <ele>1323.4</ele>
        <time>2021-08-05T07:44:42Z</time>
      </trkpt>
      <trkpt lat="42.92701" lon="0.30322">
        <ele>1323.6</ele>
        <time>2021-08-05T07:44:43Z</time>
      </trkpt>
      <trkpt lat="42.92701" lon="0.30324">
        <ele>1323.8</ele>
        <time>2021-08-05T07:44:44Z</time>
      </trkpt>
      <trkpt lat="42.92702" lon="0.30327">
        <ele>1324</ele>
        <time>2021-08-05T07:44:45Z</time>
      </trkpt>
      <trkpt lat="42.92703" lon="0.30328">
        <ele>1324.2</ele>
        <time>2021-08-05T07:44:46Z</time>
      </trkpt>
      <trkpt lat="42.92703" lon="0.30331">
        <ele>1324.4</ele>
        <time>2021-08-05T07:44:47Z</time>
      </trkpt>
      <trkpt lat="42.92703" lon="0.30333">
        <ele>1324.4</ele>
        <time>2021-08-05T07:44:48Z</time>
      </trkpt>
      <trkpt lat="42.92703" lon="0.30335">
        <ele>1324.6</ele>
        <time>2021-08-05T07:44:49Z</time>
      </trkpt>
      <trkpt lat="42.92702" lon="0.30337">
        <ele>1324.8</ele>
        <time>2021-08-05T07:44:50Z</time>
      </trkpt>
      <trkpt lat="42.92702" lon="0.30339">
        <ele>1324.8</ele>
        <time>2021-08-05T07:44:51Z</time>
      </trkpt>
      <trkpt lat="42.92704" lon="0.30341">
        <ele>1325</ele>
        <time>2021-08-05T07:44:52Z</time>
      </trkpt>
      <trkpt lat="42.92704" lon="0.30344">
        <ele>1325.2</ele>
        <time>2021-08-05T07:44:53Z</time>
      </trkpt>
      <trkpt lat="42.92705" lon="0.30346">
        <ele>1325.4</ele>
        <time>2021-08-05T07:44:54Z</time>
      </trkpt>
      <trkpt lat="42.92705" lon="0.30349">
        <ele>1325.6</ele>
        <time>2021-08-05T07:44:55Z</time>
      </trkpt>
      <trkpt lat="42.92706" lon="0.30352">
        <ele>1326</ele>
        <time>2021-08-05T07:44:56Z</time>
      </trkpt>
      <trkpt lat="42.92705" lon="0.30354">
        <ele>1326</ele>
        <time>2021-08-05T07:44:57Z</time>
      </trkpt>
      <trkpt lat="42.92705" lon="0.30356">
        <ele>1326.2</ele>
        <time>2021-08-05T07:44:58Z</time>
      </trkpt>
      <trkpt lat="42.92704" lon="0.30358">
        <ele>1326.2</ele>
        <time>2021-08-05T07:44:59Z</time>
      </trkpt>
      <trkpt lat="42.92703" lon="0.30359">
        <ele>1326.4</ele>
        <time>2021-08-05T07:45:00Z</time>
      </trkpt>
      <trkpt lat="42.92703" lon="0.3036">
        <ele>1326.6</ele>
        <time>2021-08-05T07:45:01Z</time>
      </trkpt>
      <trkpt lat="42.92703" lon="0.30362">
        <ele>1326.8</ele>
        <time>2021-08-05T07:45:02Z</time>
      </trkpt>
      <trkpt lat="42.92704" lon="0.30364">
        <ele>1327</ele>
        <time>2021-08-05T07:45:03Z</time>
      </trkpt>
      <trkpt lat="42.92705" lon="0.30367">
        <ele>1327.2</ele>
        <time>2021-08-05T07:45:04Z</time>
      </trkpt>
      <trkpt lat="42.92705" lon="0.30369">
        <ele>1327.4</ele>
        <time>2021-08-05T07:45:05Z</time>
      </trkpt>
      <trkpt lat="42.92705" lon="0.30372">
        <ele>1327.4</ele>
        <time>2021-08-05T07:45:06Z</time>
      </trkpt>
      <trkpt lat="42.92705" lon="0.30373">
        <ele>1327.6</ele>
        <time>2021-08-05T07:45:07Z</time>
      </trkpt>
      <trkpt lat="42.92706" lon="0.30375">
        <ele>1327.8</ele>
        <time>2021-08-05T07:45:08Z</time>
      </trkpt>
      <trkpt lat="42.92707" lon="0.30377">
        <ele>1328</ele>
        <time>2021-08-05T07:45:09Z</time>
      </trkpt>
      <trkpt lat="42.92707" lon="0.30379">
        <ele>1328</ele>
        <time>2021-08-05T07:45:10Z</time>
      </trkpt>
      <trkpt lat="42.92708" lon="0.30381">
        <ele>1328.6</ele>
        <time>2021-08-05T07:45:11Z</time>
      </trkpt>
      <trkpt lat="42.92707" lon="0.30383">
        <ele>1328.6</ele>
        <time>2021-08-05T07:45:12Z</time>
      </trkpt>
      <trkpt lat="42.92707" lon="0.30387">
        <ele>1329</ele>
        <time>2021-08-05T07:45:13Z</time>
      </trkpt>
      <trkpt lat="42.92707" lon="0.30389">
        <ele>1329</ele>
        <time>2021-08-05T07:45:14Z</time>
      </trkpt>
      <trkpt lat="42.92707" lon="0.3039">
        <ele>1329.2</ele>
        <time>2021-08-05T07:45:15Z</time>
      </trkpt>
      <trkpt lat="42.92707" lon="0.30392">
        <ele>1329.4</ele>
        <time>2021-08-05T07:45:16Z</time>
      </trkpt>
      <trkpt lat="42.92707" lon="0.30395">
        <ele>1329.8</ele>
        <time>2021-08-05T07:45:17Z</time>
      </trkpt>
      <trkpt lat="42.92706" lon="0.30396">
        <ele>1330</ele>
        <time>2021-08-05T07:45:18Z</time>
      </trkpt>
      <trkpt lat="42.92705" lon="0.30397">
        <ele>1330</ele>
        <time>2021-08-05T07:45:19Z</time>
      </trkpt>
      <trkpt lat="42.92705" lon="0.30399">
        <ele>1330.2</ele>
        <time>2021-08-05T07:45:20Z</time>
      </trkpt>
      <trkpt lat="42.92703" lon="0.30402">
        <ele>1330.4</ele>
        <time>2021-08-05T07:45:21Z</time>
      </trkpt>
      <trkpt lat="42.92704" lon="0.30406">
        <ele>1330.4</ele>
        <time>2021-08-05T07:45:22Z</time>
      </trkpt>
      <trkpt lat="42.92704" lon="0.30409">
        <ele>1330.8</ele>
        <time>2021-08-05T07:45:23Z</time>
      </trkpt>
      <trkpt lat="42.92704" lon="0.30412">
        <ele>1331</ele>
        <time>2021-08-05T07:45:24Z</time>
      </trkpt>
      <trkpt lat="42.92705" lon="0.30414">
        <ele>1331.2</ele>
        <time>2021-08-05T07:45:25Z</time>
      </trkpt>
      <trkpt lat="42.92706" lon="0.30416">
        <ele>1331.2</ele>
        <time>2021-08-05T07:45:26Z</time>
      </trkpt>
      <trkpt lat="42.92707" lon="0.30418">
        <ele>1331.4</ele>
        <time>2021-08-05T07:45:27Z</time>
      </trkpt>
      <trkpt lat="42.92707" lon="0.30421">
        <ele>1331.6</ele>
        <time>2021-08-05T07:45:28Z</time>
      </trkpt>
      <trkpt lat="42.92707" lon="0.30422">
        <ele>1331.8</ele>
        <time>2021-08-05T07:45:29Z</time>
      </trkpt>
      <trkpt lat="42.92708" lon="0.30424">
        <ele>1332</ele>
        <time>2021-08-05T07:45:30Z</time>
      </trkpt>
      <trkpt lat="42.92708" lon="0.30426">
        <ele>1332</ele>
        <time>2021-08-05T07:45:31Z</time>
      </trkpt>
      <trkpt lat="42.92708" lon="0.30427">
        <ele>1332.2</ele>
        <time>2021-08-05T07:45:32Z</time>
      </trkpt>
      <trkpt lat="42.92709" lon="0.3043">
        <ele>1332.4</ele>
        <time>2021-08-05T07:45:33Z</time>
      </trkpt>
      <trkpt lat="42.9271" lon="0.30431">
        <ele>1332.6</ele>
        <time>2021-08-05T07:45:34Z</time>
      </trkpt>
      <trkpt lat="42.9271" lon="0.30433">
        <ele>1332.6</ele>
        <time>2021-08-05T07:45:35Z</time>
      </trkpt>
      <trkpt lat="42.92711" lon="0.30435">
        <ele>1333</ele>
        <time>2021-08-05T07:45:36Z</time>
      </trkpt>
      <trkpt lat="42.92712" lon="0.30437">
        <ele>1333.2</ele>
        <time>2021-08-05T07:45:37Z</time>
      </trkpt>
      <trkpt lat="42.92712" lon="0.30439">
        <ele>1333.8</ele>
        <time>2021-08-05T07:45:38Z</time>
      </trkpt>
      <trkpt lat="42.92712" lon="0.30441">
        <ele>1333.8</ele>
        <time>2021-08-05T07:45:39Z</time>
      </trkpt>
      <trkpt lat="42.92713" lon="0.30443">
        <ele>1334.2</ele>
        <time>2021-08-05T07:45:40Z</time>
      </trkpt>
      <trkpt lat="42.92713" lon="0.30445">
        <ele>1334.2</ele>
        <time>2021-08-05T07:45:41Z</time>
      </trkpt>
      <trkpt lat="42.92713" lon="0.30447">
        <ele>1334.4</ele>
        <time>2021-08-05T07:45:42Z</time>
      </trkpt>
      <trkpt lat="42.92714" lon="0.30449">
        <ele>1334.4</ele>
        <time>2021-08-05T07:45:43Z</time>
      </trkpt>
      <trkpt lat="42.92714" lon="0.30451">
        <ele>1334.6</ele>
        <time>2021-08-05T07:45:44Z</time>
      </trkpt>
      <trkpt lat="42.92714" lon="0.30453">
        <ele>1334.6</ele>
        <time>2021-08-05T07:45:45Z</time>
      </trkpt>
      <trkpt lat="42.92714" lon="0.30455">
        <ele>1334.8</ele>
        <time>2021-08-05T07:45:46Z</time>
      </trkpt>
      <trkpt lat="42.92713" lon="0.30457">
        <ele>1335</ele>
        <time>2021-08-05T07:45:47Z</time>
      </trkpt>
      <trkpt lat="42.92713" lon="0.30459">
        <ele>1335.2</ele>
        <time>2021-08-05T07:45:48Z</time>
      </trkpt>
      <trkpt lat="42.92713" lon="0.30461">
        <ele>1335.4</ele>
        <time>2021-08-05T07:45:49Z</time>
      </trkpt>
      <trkpt lat="42.92713" lon="0.30462">
        <ele>1335.4</ele>
        <time>2021-08-05T07:45:50Z</time>
      </trkpt>
      <trkpt lat="42.92712" lon="0.30462">
        <ele>1335.6</ele>
        <time>2021-08-05T07:45:51Z</time>
      </trkpt>
      <trkpt lat="42.92712" lon="0.30464">
        <ele>1335.6</ele>
        <time>2021-08-05T07:45:52Z</time>
      </trkpt>
      <trkpt lat="42.92711" lon="0.30466">
        <ele>1335.8</ele>
        <time>2021-08-05T07:45:53Z</time>
      </trkpt>
      <trkpt lat="42.92709" lon="0.30468">
        <ele>1336</ele>
        <time>2021-08-05T07:45:54Z</time>
      </trkpt>
      <trkpt lat="42.92709" lon="0.30469">
        <ele>1336.2</ele>
        <time>2021-08-05T07:45:55Z</time>
      </trkpt>
      <trkpt lat="42.92709" lon="0.30471">
        <ele>1336.4</ele>
        <time>2021-08-05T07:45:56Z</time>
      </trkpt>
      <trkpt lat="42.9271" lon="0.30473">
        <ele>1336.6</ele>
        <time>2021-08-05T07:45:57Z</time>
      </trkpt>
      <trkpt lat="42.9271" lon="0.30476">
        <ele>1336.8</ele>
        <time>2021-08-05T07:45:58Z</time>
      </trkpt>
      <trkpt lat="42.9271" lon="0.30478">
        <ele>1337</ele>
        <time>2021-08-05T07:45:59Z</time>
      </trkpt>
      <trkpt lat="42.9271" lon="0.3048">
        <ele>1337.2</ele>
        <time>2021-08-05T07:46:00Z</time>
      </trkpt>
      <trkpt lat="42.92711" lon="0.30482">
        <ele>1337.4</ele>
        <time>2021-08-05T07:46:01Z</time>
      </trkpt>
      <trkpt lat="42.92712" lon="0.30485">
        <ele>1337.6</ele>
        <time>2021-08-05T07:46:02Z</time>
      </trkpt>
      <trkpt lat="42.92713" lon="0.30489">
        <ele>1337.8</ele>
        <time>2021-08-05T07:46:03Z</time>
      </trkpt>
      <trkpt lat="42.92714" lon="0.30492">
        <ele>1338</ele>
        <time>2021-08-05T07:46:04Z</time>
      </trkpt>
      <trkpt lat="42.92713" lon="0.30493">
        <ele>1338.4</ele>
        <time>2021-08-05T07:46:05Z</time>
      </trkpt>
      <trkpt lat="42.92714" lon="0.30494">
        <ele>1338.4</ele>
        <time>2021-08-05T07:46:06Z</time>
      </trkpt>
      <trkpt lat="42.92714" lon="0.30496">
        <ele>1338.6</ele>
        <time>2021-08-05T07:46:07Z</time>
      </trkpt>
      <trkpt lat="42.92714" lon="0.30498">
        <ele>1338.8</ele>
        <time>2021-08-05T07:46:08Z</time>
      </trkpt>
      <trkpt lat="42.92715" lon="0.30501">
        <ele>1339</ele>
        <time>2021-08-05T07:46:09Z</time>
      </trkpt>
      <trkpt lat="42.92715" lon="0.30503">
        <ele>1339.2</ele>
        <time>2021-08-05T07:46:10Z</time>
      </trkpt>
      <trkpt lat="42.92717" lon="0.30506">
        <ele>1339.2</ele>
        <time>2021-08-05T07:46:11Z</time>
      </trkpt>
      <trkpt lat="42.92717" lon="0.30509">
        <ele>1339.4</ele>
        <time>2021-08-05T07:46:12Z</time>
      </trkpt>
      <trkpt lat="42.92719" lon="0.30512">
        <ele>1339.6</ele>
        <time>2021-08-05T07:46:13Z</time>
      </trkpt>
      <trkpt lat="42.92719" lon="0.30515">
        <ele>1339.8</ele>
        <time>2021-08-05T07:46:14Z</time>
      </trkpt>
      <trkpt lat="42.9272" lon="0.30518">
        <ele>1340</ele>
        <time>2021-08-05T07:46:15Z</time>
      </trkpt>
      <trkpt lat="42.9272" lon="0.3052">
        <ele>1340.2</ele>
        <time>2021-08-05T07:46:16Z</time>
      </trkpt>
      <trkpt lat="42.92719" lon="0.30522">
        <ele>1340.2</ele>
        <time>2021-08-05T07:46:17Z</time>
      </trkpt>
      <trkpt lat="42.92718" lon="0.30524">
        <ele>1340.4</ele>
        <time>2021-08-05T07:46:18Z</time>
      </trkpt>
      <trkpt lat="42.92718" lon="0.30527">
        <ele>1340.6</ele>
        <time>2021-08-05T07:46:19Z</time>
      </trkpt>
      <trkpt lat="42.92717" lon="0.30529">
        <ele>1340.8</ele>
        <time>2021-08-05T07:46:20Z</time>
      </trkpt>
      <trkpt lat="42.92717" lon="0.30531">
        <ele>1341</ele>
        <time>2021-08-05T07:46:21Z</time>
      </trkpt>
      <trkpt lat="42.92717" lon="0.30533">
        <ele>1341.2</ele>
        <time>2021-08-05T07:46:22Z</time>
      </trkpt>
      <trkpt lat="42.92717" lon="0.30535">
        <ele>1341.2</ele>
        <time>2021-08-05T07:46:23Z</time>
      </trkpt>
      <trkpt lat="42.92717" lon="0.30537">
        <ele>1341.2</ele>
        <time>2021-08-05T07:46:24Z</time>
      </trkpt>
      <trkpt lat="42.92717" lon="0.30538">
        <ele>1341.6</ele>
        <time>2021-08-05T07:46:25Z</time>
      </trkpt>
      <trkpt lat="42.92716" lon="0.3054">
        <ele>1341.8</ele>
        <time>2021-08-05T07:46:26Z</time>
      </trkpt>
      <trkpt lat="42.92715" lon="0.30542">
        <ele>1341.8</ele>
        <time>2021-08-05T07:46:27Z</time>
      </trkpt>
      <trkpt lat="42.92714" lon="0.30543">
        <ele>1342</ele>
        <time>2021-08-05T07:46:28Z</time>
      </trkpt>
      <trkpt lat="42.92713" lon="0.30545">
        <ele>1342</ele>
        <time>2021-08-05T07:46:29Z</time>
      </trkpt>
      <trkpt lat="42.92712" lon="0.30547">
        <ele>1342.2</ele>
        <time>2021-08-05T07:46:30Z</time>
      </trkpt>
      <trkpt lat="42.92711" lon="0.3055">
        <ele>1342.4</ele>
        <time>2021-08-05T07:46:31Z</time>
      </trkpt>
      <trkpt lat="42.9271" lon="0.30552">
        <ele>1342.4</ele>
        <time>2021-08-05T07:46:32Z</time>
      </trkpt>
      <trkpt lat="42.9271" lon="0.30553">
        <ele>1342.8</ele>
        <time>2021-08-05T07:46:33Z</time>
      </trkpt>
      <trkpt lat="42.92709" lon="0.30555">
        <ele>1342.8</ele>
        <time>2021-08-05T07:46:34Z</time>
      </trkpt>
      <trkpt lat="42.92709" lon="0.30557">
        <ele>1343</ele>
        <time>2021-08-05T07:46:35Z</time>
      </trkpt>
      <trkpt lat="42.92708" lon="0.30558">
        <ele>1343.2</ele>
        <time>2021-08-05T07:46:36Z</time>
      </trkpt>
      <trkpt lat="42.92708" lon="0.30559">
        <ele>1343.6</ele>
        <time>2021-08-05T07:46:37Z</time>
      </trkpt>
      <trkpt lat="42.92707" lon="0.3056">
        <ele>1343.8</ele>
        <time>2021-08-05T07:46:38Z</time>
      </trkpt>
      <trkpt lat="42.92707" lon="0.3056">
        <ele>1344</ele>
        <time>2021-08-05T07:46:39Z</time>
      </trkpt>
      <trkpt lat="42.92706" lon="0.30562">
        <ele>1344</ele>
        <time>2021-08-05T07:46:40Z</time>
      </trkpt>
      <trkpt lat="42.92706" lon="0.30562">
        <ele>1344.2</ele>
        <time>2021-08-05T07:46:41Z</time>
      </trkpt>
      <trkpt lat="42.92705" lon="0.30564">
        <ele>1344.4</ele>
        <time>2021-08-05T07:46:42Z</time>
      </trkpt>
      <trkpt lat="42.92704" lon="0.30566">
        <ele>1344.6</ele>
        <time>2021-08-05T07:46:43Z</time>
      </trkpt>
      <trkpt lat="42.92703" lon="0.30567">
        <ele>1344.8</ele>
        <time>2021-08-05T07:46:44Z</time>
      </trkpt>
      <trkpt lat="42.92701" lon="0.30569">
        <ele>1345</ele>
        <time>2021-08-05T07:46:45Z</time>
      </trkpt>
      <trkpt lat="42.92699" lon="0.30572">
        <ele>1345.2</ele>
        <time>2021-08-05T07:46:46Z</time>
      </trkpt>
      <trkpt lat="42.92697" lon="0.30575">
        <ele>1345.4</ele>
        <time>2021-08-05T07:46:47Z</time>
      </trkpt>
      <trkpt lat="42.92694" lon="0.30578">
        <ele>1345.6</ele>
        <time>2021-08-05T07:46:48Z</time>
      </trkpt>
      <trkpt lat="42.92694" lon="0.30578">
        <ele>1345.6</ele>
        <time>2021-08-05T07:46:49Z</time>
      </trkpt>
      <trkpt lat="42.92693" lon="0.30579">
        <ele>1346</ele>
        <time>2021-08-05T07:46:50Z</time>
      </trkpt>
      <trkpt lat="42.92692" lon="0.30581">
        <ele>1346.2</ele>
        <time>2021-08-05T07:46:51Z</time>
      </trkpt>
      <trkpt lat="42.9269" lon="0.30583">
        <ele>1346.4</ele>
        <time>2021-08-05T07:46:52Z</time>
      </trkpt>
      <trkpt lat="42.92689" lon="0.30586">
        <ele>1346.6</ele>
        <time>2021-08-05T07:46:53Z</time>
      </trkpt>
      <trkpt lat="42.92689" lon="0.30589">
        <ele>1346.8</ele>
        <time>2021-08-05T07:46:54Z</time>
      </trkpt>
      <trkpt lat="42.92689" lon="0.3059">
        <ele>1346.8</ele>
        <time>2021-08-05T07:46:55Z</time>
      </trkpt>
      <trkpt lat="42.92689" lon="0.3059">
        <ele>1347</ele>
        <time>2021-08-05T07:46:56Z</time>
      </trkpt>
      <trkpt lat="42.92687" lon="0.30592">
        <ele>1347.2</ele>
        <time>2021-08-05T07:46:57Z</time>
      </trkpt>
      <trkpt lat="42.92685" lon="0.30593">
        <ele>1347.4</ele>
        <time>2021-08-05T07:46:58Z</time>
      </trkpt>
      <trkpt lat="42.92683" lon="0.30596">
        <ele>1347.6</ele>
        <time>2021-08-05T07:46:59Z</time>
      </trkpt>
      <trkpt lat="42.92682" lon="0.30598">
        <ele>1347.8</ele>
        <time>2021-08-05T07:47:00Z</time>
      </trkpt>
      <trkpt lat="42.9268" lon="0.306">
        <ele>1348</ele>
        <time>2021-08-05T07:47:01Z</time>
      </trkpt>
      <trkpt lat="42.92678" lon="0.30603">
        <ele>1348.2</ele>
        <time>2021-08-05T07:47:02Z</time>
      </trkpt>
      <trkpt lat="42.92676" lon="0.30604">
        <ele>1348.4</ele>
        <time>2021-08-05T07:47:03Z</time>
      </trkpt>
      <trkpt lat="42.92674" lon="0.30605">
        <ele>1348.6</ele>
        <time>2021-08-05T07:47:04Z</time>
      </trkpt>
      <trkpt lat="42.92673" lon="0.30608">
        <ele>1348.8</ele>
        <time>2021-08-05T07:47:05Z</time>
      </trkpt>
      <trkpt lat="42.92672" lon="0.30609">
        <ele>1349</ele>
        <time>2021-08-05T07:47:06Z</time>
      </trkpt>
      <trkpt lat="42.9267" lon="0.30611">
        <ele>1349</ele>
        <time>2021-08-05T07:47:07Z</time>
      </trkpt>
      <trkpt lat="42.92668" lon="0.30611">
        <ele>1349.2</ele>
        <time>2021-08-05T07:47:08Z</time>
      </trkpt>
      <trkpt lat="42.92666" lon="0.30612">
        <ele>1349.2</ele>
        <time>2021-08-05T07:47:09Z</time>
      </trkpt>
      <trkpt lat="42.92665" lon="0.30613">
        <ele>1349.4</ele>
        <time>2021-08-05T07:47:10Z</time>
      </trkpt>
      <trkpt lat="42.92664" lon="0.30614">
        <ele>1349.6</ele>
        <time>2021-08-05T07:47:11Z</time>
      </trkpt>
      <trkpt lat="42.92664" lon="0.30616">
        <ele>1349.8</ele>
        <time>2021-08-05T07:47:12Z</time>
      </trkpt>
      <trkpt lat="42.92664" lon="0.30616">
        <ele>1350.2</ele>
        <time>2021-08-05T07:47:13Z</time>
      </trkpt>
      <trkpt lat="42.92664" lon="0.30616">
        <ele>1350.4</ele>
        <time>2021-08-05T07:47:14Z</time>
      </trkpt>
      <trkpt lat="42.92664" lon="0.30617">
        <ele>1350.8</ele>
        <time>2021-08-05T07:47:15Z</time>
      </trkpt>
      <trkpt lat="42.92663" lon="0.30619">
        <ele>1350.8</ele>
        <time>2021-08-05T07:47:16Z</time>
      </trkpt>
      <trkpt lat="42.92662" lon="0.30619">
        <ele>1351</ele>
        <time>2021-08-05T07:47:17Z</time>
      </trkpt>
      <trkpt lat="42.92662" lon="0.30619">
        <ele>1351.2</ele>
        <time>2021-08-05T07:47:18Z</time>
      </trkpt>
      <trkpt lat="42.92662" lon="0.3062">
        <ele>1351.4</ele>
        <time>2021-08-05T07:47:19Z</time>
      </trkpt>
      <trkpt lat="42.92661" lon="0.30621">
        <ele>1351.6</ele>
        <time>2021-08-05T07:47:20Z</time>
      </trkpt>
      <trkpt lat="42.9266" lon="0.30623">
        <ele>1351.8</ele>
        <time>2021-08-05T07:47:21Z</time>
      </trkpt>
      <trkpt lat="42.92659" lon="0.30624">
        <ele>1352</ele>
        <time>2021-08-05T07:47:22Z</time>
      </trkpt>
      <trkpt lat="42.92658" lon="0.30627">
        <ele>1352</ele>
        <time>2021-08-05T07:47:23Z</time>
      </trkpt>
      <trkpt lat="42.92656" lon="0.30628">
        <ele>1352.6</ele>
        <time>2021-08-05T07:47:24Z</time>
      </trkpt>
      <trkpt lat="42.92655" lon="0.30629">
        <ele>1352.8</ele>
        <time>2021-08-05T07:47:25Z</time>
      </trkpt>
      <trkpt lat="42.92654" lon="0.30631">
        <ele>1353</ele>
        <time>2021-08-05T07:47:26Z</time>
      </trkpt>
      <trkpt lat="42.92653" lon="0.30633">
        <ele>1353</ele>
        <time>2021-08-05T07:47:27Z</time>
      </trkpt>
      <trkpt lat="42.92651" lon="0.30635">
        <ele>1353.2</ele>
        <time>2021-08-05T07:47:28Z</time>
      </trkpt>
      <trkpt lat="42.92651" lon="0.30637">
        <ele>1353.2</ele>
        <time>2021-08-05T07:47:29Z</time>
      </trkpt>
      <trkpt lat="42.92651" lon="0.30639">
        <ele>1353.4</ele>
        <time>2021-08-05T07:47:30Z</time>
      </trkpt>
      <trkpt lat="42.92651" lon="0.30641">
        <ele>1353.4</ele>
        <time>2021-08-05T07:47:31Z</time>
      </trkpt>
      <trkpt lat="42.92651" lon="0.30643">
        <ele>1353.6</ele>
        <time>2021-08-05T07:47:32Z</time>
      </trkpt>
      <trkpt lat="42.9265" lon="0.30645">
        <ele>1353.8</ele>
        <time>2021-08-05T07:47:33Z</time>
      </trkpt>
      <trkpt lat="42.9265" lon="0.30646">
        <ele>1354</ele>
        <time>2021-08-05T07:47:34Z</time>
      </trkpt>
      <trkpt lat="42.92651" lon="0.30648">
        <ele>1354.2</ele>
        <time>2021-08-05T07:47:35Z</time>
      </trkpt>
      <trkpt lat="42.9265" lon="0.3065">
        <ele>1354.4</ele>
        <time>2021-08-05T07:47:36Z</time>
      </trkpt>
      <trkpt lat="42.9265" lon="0.30652">
        <ele>1354.6</ele>
        <time>2021-08-05T07:47:37Z</time>
      </trkpt>
      <trkpt lat="42.92649" lon="0.30653">
        <ele>1355</ele>
        <time>2021-08-05T07:47:38Z</time>
      </trkpt>
      <trkpt lat="42.92649" lon="0.30654">
        <ele>1355</ele>
        <time>2021-08-05T07:47:39Z</time>
      </trkpt>
      <trkpt lat="42.92648" lon="0.30655">
        <ele>1355.2</ele>
        <time>2021-08-05T07:47:40Z</time>
      </trkpt>
      <trkpt lat="42.92646" lon="0.30657">
        <ele>1355.4</ele>
        <time>2021-08-05T07:47:41Z</time>
      </trkpt>
      <trkpt lat="42.92644" lon="0.3066">
        <ele>1355.8</ele>
        <time>2021-08-05T07:47:42Z</time>
      </trkpt>
      <trkpt lat="42.92642" lon="0.30661">
        <ele>1355.6</ele>
        <time>2021-08-05T07:47:43Z</time>
      </trkpt>
      <trkpt lat="42.92641" lon="0.30662">
        <ele>1355.8</ele>
        <time>2021-08-05T07:47:44Z</time>
      </trkpt>
      <trkpt lat="42.92639" lon="0.30663">
        <ele>1356</ele>
        <time>2021-08-05T07:47:45Z</time>
      </trkpt>
      <trkpt lat="42.92637" lon="0.30666">
        <ele>1356</ele>
        <time>2021-08-05T07:47:46Z</time>
      </trkpt>
      <trkpt lat="42.92635" lon="0.30668">
        <ele>1356.2</ele>
        <time>2021-08-05T07:47:47Z</time>
      </trkpt>
      <trkpt lat="42.92633" lon="0.3067">
        <ele>1356.4</ele>
        <time>2021-08-05T07:47:48Z</time>
      </trkpt>
      <trkpt lat="42.92632" lon="0.30672">
        <ele>1356.6</ele>
        <time>2021-08-05T07:47:49Z</time>
      </trkpt>
      <trkpt lat="42.92631" lon="0.30674">
        <ele>1356.6</ele>
        <time>2021-08-05T07:47:50Z</time>
      </trkpt>
      <trkpt lat="42.92629" lon="0.30675">
        <ele>1357</ele>
        <time>2021-08-05T07:47:51Z</time>
      </trkpt>
      <trkpt lat="42.92627" lon="0.3068">
        <ele>1357</ele>
        <time>2021-08-05T07:47:52Z</time>
      </trkpt>
      <trkpt lat="42.92626" lon="0.30683">
        <ele>1357.2</ele>
        <time>2021-08-05T07:47:53Z</time>
      </trkpt>
      <trkpt lat="42.92626" lon="0.30685">
        <ele>1357.4</ele>
        <time>2021-08-05T07:47:54Z</time>
      </trkpt>
      <trkpt lat="42.92626" lon="0.30687">
        <ele>1357.4</ele>
        <time>2021-08-05T07:47:55Z</time>
      </trkpt>
      <trkpt lat="42.92626" lon="0.30688">
        <ele>1357.6</ele>
        <time>2021-08-05T07:47:56Z</time>
      </trkpt>
      <trkpt lat="42.92625" lon="0.30688">
        <ele>1357.8</ele>
        <time>2021-08-05T07:47:57Z</time>
      </trkpt>
      <trkpt lat="42.92625" lon="0.30687">
        <ele>1357.8</ele>
        <time>2021-08-05T07:47:58Z</time>
      </trkpt>
      <trkpt lat="42.92624" lon="0.30688">
        <ele>1358</ele>
        <time>2021-08-05T07:47:59Z</time>
      </trkpt>
      <trkpt lat="42.92624" lon="0.30689">
        <ele>1358.2</ele>
        <time>2021-08-05T07:48:00Z</time>
      </trkpt>
      <trkpt lat="42.92623" lon="0.3069">
        <ele>1358.4</ele>
        <time>2021-08-05T07:48:01Z</time>
      </trkpt>
      <trkpt lat="42.92623" lon="0.3069">
        <ele>1358.6</ele>
        <time>2021-08-05T07:48:02Z</time>
      </trkpt>
      <trkpt lat="42.92623" lon="0.30691">
        <ele>1358.8</ele>
        <time>2021-08-05T07:48:03Z</time>
      </trkpt>
      <trkpt lat="42.92623" lon="0.30693">
        <ele>1358.8</ele>
        <time>2021-08-05T07:48:04Z</time>
      </trkpt>
      <trkpt lat="42.92621" lon="0.30695">
        <ele>1359</ele>
        <time>2021-08-05T07:48:05Z</time>
      </trkpt>
      <trkpt lat="42.92621" lon="0.30696">
        <ele>1359.2</ele>
        <time>2021-08-05T07:48:06Z</time>
      </trkpt>
      <trkpt lat="42.9262" lon="0.30697">
        <ele>1359.4</ele>
        <time>2021-08-05T07:48:07Z</time>
      </trkpt>
      <trkpt lat="42.9262" lon="0.30697">
        <ele>1359.4</ele>
        <time>2021-08-05T07:48:08Z</time>
      </trkpt>
      <trkpt lat="42.92619" lon="0.30698">
        <ele>1359.4</ele>
        <time>2021-08-05T07:48:09Z</time>
      </trkpt>
      <trkpt lat="42.92618" lon="0.307">
        <ele>1359.4</ele>
        <time>2021-08-05T07:48:10Z</time>
      </trkpt>
      <trkpt lat="42.92618" lon="0.30701">
        <ele>1359.6</ele>
        <time>2021-08-05T07:48:11Z</time>
      </trkpt>
      <trkpt lat="42.92617" lon="0.30702">
        <ele>1359.6</ele>
        <time>2021-08-05T07:48:12Z</time>
      </trkpt>
      <trkpt lat="42.92617" lon="0.30703">
        <ele>1359.8</ele>
        <time>2021-08-05T07:48:13Z</time>
      </trkpt>
      <trkpt lat="42.92615" lon="0.30704">
        <ele>1360</ele>
        <time>2021-08-05T07:48:14Z</time>
      </trkpt>
      <trkpt lat="42.92614" lon="0.30705">
        <ele>1360.4</ele>
        <time>2021-08-05T07:48:16Z</time>
      </trkpt>
      <trkpt lat="42.92613" lon="0.30707">
        <ele>1360.4</ele>
        <time>2021-08-05T07:48:17Z</time>
      </trkpt>
      <trkpt lat="42.92612" lon="0.30709">
        <ele>1360.6</ele>
        <time>2021-08-05T07:48:18Z</time>
      </trkpt>
      <trkpt lat="42.9261" lon="0.3071">
        <ele>1360.8</ele>
        <time>2021-08-05T07:48:19Z</time>
      </trkpt>
      <trkpt lat="42.9261" lon="0.3071">
        <ele>1361</ele>
        <time>2021-08-05T07:48:20Z</time>
      </trkpt>
      <trkpt lat="42.9261" lon="0.3071">
        <ele>1361.2</ele>
        <time>2021-08-05T07:48:21Z</time>
      </trkpt>
      <trkpt lat="42.9261" lon="0.3071">
        <ele>1361.4</ele>
        <time>2021-08-05T07:48:22Z</time>
      </trkpt>
      <trkpt lat="42.9261" lon="0.3071">
        <ele>1361.8</ele>
        <time>2021-08-05T07:48:26Z</time>
      </trkpt>
      <trkpt lat="42.9261" lon="0.3071">
        <ele>1362</ele>
        <time>2021-08-05T07:48:35Z</time>
      </trkpt>
      <trkpt lat="42.9261" lon="0.3071">
        <ele>1362.2</ele>
        <time>2021-08-05T07:50:14Z</time>
      </trkpt>
      <trkpt lat="42.92608" lon="0.30712">
        <ele>1362.2</ele>
        <time>2021-08-05T07:50:15Z</time>
      </trkpt>
      <trkpt lat="42.92604" lon="0.30716">
        <ele>1362.4</ele>
        <time>2021-08-05T07:50:17Z</time>
      </trkpt>
      <trkpt lat="42.92603" lon="0.30718">
        <ele>1362.4</ele>
        <time>2021-08-05T07:50:18Z</time>
      </trkpt>
      <trkpt lat="42.92598" lon="0.3072">
        <ele>1362.4</ele>
        <time>2021-08-05T07:50:20Z</time>
      </trkpt>
      <trkpt lat="42.92597" lon="0.30721">
        <ele>1362.8</ele>
        <time>2021-08-05T07:50:21Z</time>
      </trkpt>
      <trkpt lat="42.92594" lon="0.30724">
        <ele>1362.8</ele>
        <time>2021-08-05T07:50:22Z</time>
      </trkpt>
      <trkpt lat="42.92592" lon="0.30727">
        <ele>1363</ele>
        <time>2021-08-05T07:50:23Z</time>
      </trkpt>
      <trkpt lat="42.9259" lon="0.30729">
        <ele>1363.2</ele>
        <time>2021-08-05T07:50:24Z</time>
      </trkpt>
      <trkpt lat="42.92588" lon="0.3073">
        <ele>1363.4</ele>
        <time>2021-08-05T07:50:25Z</time>
      </trkpt>
      <trkpt lat="42.92585" lon="0.3073">
        <ele>1363.4</ele>
        <time>2021-08-05T07:50:26Z</time>
      </trkpt>
      <trkpt lat="42.92583" lon="0.30731">
        <ele>1363.8</ele>
        <time>2021-08-05T07:50:27Z</time>
      </trkpt>
      <trkpt lat="42.92582" lon="0.30732">
        <ele>1364</ele>
        <time>2021-08-05T07:50:28Z</time>
      </trkpt>
      <trkpt lat="42.9258" lon="0.30733">
        <ele>1364.4</ele>
        <time>2021-08-05T07:50:29Z</time>
      </trkpt>
      <trkpt lat="42.92576" lon="0.30736">
        <ele>1364.8</ele>
        <time>2021-08-05T07:50:31Z</time>
      </trkpt>
      <trkpt lat="42.92574" lon="0.30738">
        <ele>1364.8</ele>
        <time>2021-08-05T07:50:32Z</time>
      </trkpt>
      <trkpt lat="42.92573" lon="0.30739">
        <ele>1365</ele>
        <time>2021-08-05T07:50:33Z</time>
      </trkpt>
      <trkpt lat="42.92572" lon="0.30741">
        <ele>1365.4</ele>
        <time>2021-08-05T07:50:34Z</time>
      </trkpt>
      <trkpt lat="42.9257" lon="0.30742">
        <ele>1365.6</ele>
        <time>2021-08-05T07:50:35Z</time>
      </trkpt>
      <trkpt lat="42.92569" lon="0.30743">
        <ele>1366</ele>
        <time>2021-08-05T07:50:36Z</time>
      </trkpt>
      <trkpt lat="42.92567" lon="0.30743">
        <ele>1366.2</ele>
        <time>2021-08-05T07:50:37Z</time>
      </trkpt>
      <trkpt lat="42.92565" lon="0.30743">
        <ele>1366.4</ele>
        <time>2021-08-05T07:50:38Z</time>
      </trkpt>
      <trkpt lat="42.92561" lon="0.30743">
        <ele>1366.6</ele>
        <time>2021-08-05T07:50:39Z</time>
      </trkpt>
      <trkpt lat="42.9256" lon="0.30745">
        <ele>1366.8</ele>
        <time>2021-08-05T07:50:40Z</time>
      </trkpt>
      <trkpt lat="42.92562" lon="0.3075">
        <ele>1366.8</ele>
        <time>2021-08-05T07:50:41Z</time>
      </trkpt>
      <trkpt lat="42.9256" lon="0.30752">
        <ele>1367.2</ele>
        <time>2021-08-05T07:50:42Z</time>
      </trkpt>
      <trkpt lat="42.92558" lon="0.30753">
        <ele>1367.2</ele>
        <time>2021-08-05T07:50:43Z</time>
      </trkpt>
      <trkpt lat="42.92556" lon="0.30754">
        <ele>1367.4</ele>
        <time>2021-08-05T07:50:44Z</time>
      </trkpt>
      <trkpt lat="42.92553" lon="0.30754">
        <ele>1367.4</ele>
        <time>2021-08-05T07:50:45Z</time>
      </trkpt>
      <trkpt lat="42.92551" lon="0.30754">
        <ele>1368</ele>
        <time>2021-08-05T07:50:46Z</time>
      </trkpt>
      <trkpt lat="42.92549" lon="0.30756">
        <ele>1368.2</ele>
        <time>2021-08-05T07:50:47Z</time>
      </trkpt>
      <trkpt lat="42.92547" lon="0.30756">
        <ele>1368.4</ele>
        <time>2021-08-05T07:50:48Z</time>
      </trkpt>
      <trkpt lat="42.92545" lon="0.30756">
        <ele>1368.4</ele>
        <time>2021-08-05T07:50:49Z</time>
      </trkpt>
      <trkpt lat="42.92544" lon="0.30753">
        <ele>1368.8</ele>
        <time>2021-08-05T07:50:50Z</time>
      </trkpt>
      <trkpt lat="42.92543" lon="0.30753">
        <ele>1368.8</ele>
        <time>2021-08-05T07:50:51Z</time>
      </trkpt>
      <trkpt lat="42.92539" lon="0.30756">
        <ele>1369</ele>
        <time>2021-08-05T07:50:52Z</time>
      </trkpt>
      <trkpt lat="42.92537" lon="0.30758">
        <ele>1369.2</ele>
        <time>2021-08-05T07:50:53Z</time>
      </trkpt>
      <trkpt lat="42.92535" lon="0.30759">
        <ele>1369.2</ele>
        <time>2021-08-05T07:50:54Z</time>
      </trkpt>
      <trkpt lat="42.92534" lon="0.30759">
        <ele>1369.6</ele>
        <time>2021-08-05T07:50:55Z</time>
      </trkpt>
      <trkpt lat="42.92532" lon="0.30759">
        <ele>1369.6</ele>
        <time>2021-08-05T07:50:56Z</time>
      </trkpt>
      <trkpt lat="42.92531" lon="0.30761">
        <ele>1370</ele>
        <time>2021-08-05T07:50:57Z</time>
      </trkpt>
      <trkpt lat="42.92529" lon="0.30762">
        <ele>1370</ele>
        <time>2021-08-05T07:50:58Z</time>
      </trkpt>
      <trkpt lat="42.92528" lon="0.30763">
        <ele>1370.4</ele>
        <time>2021-08-05T07:50:59Z</time>
      </trkpt>
      <trkpt lat="42.92527" lon="0.30764">
        <ele>1370.4</ele>
        <time>2021-08-05T07:51:00Z</time>
      </trkpt>
      <trkpt lat="42.92525" lon="0.30765">
        <ele>1370.8</ele>
        <time>2021-08-05T07:51:01Z</time>
      </trkpt>
      <trkpt lat="42.92523" lon="0.30763">
        <ele>1370.8</ele>
        <time>2021-08-05T07:51:02Z</time>
      </trkpt>
      <trkpt lat="42.92522" lon="0.30763">
        <ele>1371</ele>
        <time>2021-08-05T07:51:03Z</time>
      </trkpt>
      <trkpt lat="42.9252" lon="0.30765">
        <ele>1371.2</ele>
        <time>2021-08-05T07:51:04Z</time>
      </trkpt>
      <trkpt lat="42.92518" lon="0.30766">
        <ele>1371.4</ele>
        <time>2021-08-05T07:51:05Z</time>
      </trkpt>
      <trkpt lat="42.92516" lon="0.30768">
        <ele>1371.6</ele>
        <time>2021-08-05T07:51:06Z</time>
      </trkpt>
      <trkpt lat="42.92515" lon="0.30769">
        <ele>1371.8</ele>
        <time>2021-08-05T07:51:07Z</time>
      </trkpt>
      <trkpt lat="42.92514" lon="0.30769">
        <ele>1372</ele>
        <time>2021-08-05T07:51:08Z</time>
      </trkpt>
      <trkpt lat="42.92512" lon="0.30769">
        <ele>1372.2</ele>
        <time>2021-08-05T07:51:09Z</time>
      </trkpt>
      <trkpt lat="42.92511" lon="0.3077">
        <ele>1372.4</ele>
        <time>2021-08-05T07:51:10Z</time>
      </trkpt>
      <trkpt lat="42.92509" lon="0.30771">
        <ele>1372.6</ele>
        <time>2021-08-05T07:51:11Z</time>
      </trkpt>
      <trkpt lat="42.92507" lon="0.30773">
        <ele>1372.6</ele>
        <time>2021-08-05T07:51:12Z</time>
      </trkpt>
      <trkpt lat="42.92506" lon="0.30774">
        <ele>1372.8</ele>
        <time>2021-08-05T07:51:13Z</time>
      </trkpt>
      <trkpt lat="42.92505" lon="0.30775">
        <ele>1373</ele>
        <time>2021-08-05T07:51:14Z</time>
      </trkpt>
      <trkpt lat="42.92504" lon="0.30776">
        <ele>1373.2</ele>
        <time>2021-08-05T07:51:15Z</time>
      </trkpt>
      <trkpt lat="42.92502" lon="0.30779">
        <ele>1373.6</ele>
        <time>2021-08-05T07:51:16Z</time>
      </trkpt>
      <trkpt lat="42.92502" lon="0.30781">
        <ele>1373.6</ele>
        <time>2021-08-05T07:51:17Z</time>
      </trkpt>
      <trkpt lat="42.92501" lon="0.30781">
        <ele>1374</ele>
        <time>2021-08-05T07:51:18Z</time>
      </trkpt>
      <trkpt lat="42.925" lon="0.30782">
        <ele>1374.2</ele>
        <time>2021-08-05T07:51:19Z</time>
      </trkpt>
      <trkpt lat="42.92499" lon="0.30783">
        <ele>1374.4</ele>
        <time>2021-08-05T07:51:20Z</time>
      </trkpt>
      <trkpt lat="42.92498" lon="0.30784">
        <ele>1374.4</ele>
        <time>2021-08-05T07:51:21Z</time>
      </trkpt>
      <trkpt lat="42.92497" lon="0.30786">
        <ele>1374.8</ele>
        <time>2021-08-05T07:51:22Z</time>
      </trkpt>
      <trkpt lat="42.92496" lon="0.30787">
        <ele>1374.8</ele>
        <time>2021-08-05T07:51:23Z</time>
      </trkpt>
      <trkpt lat="42.92495" lon="0.30788">
        <ele>1375.2</ele>
        <time>2021-08-05T07:51:24Z</time>
      </trkpt>
      <trkpt lat="42.92495" lon="0.30789">
        <ele>1375.4</ele>
        <time>2021-08-05T07:51:25Z</time>
      </trkpt>
      <trkpt lat="42.92494" lon="0.30791">
        <ele>1375.4</ele>
        <time>2021-08-05T07:51:26Z</time>
      </trkpt>
      <trkpt lat="42.92494" lon="0.30792">
        <ele>1375.6</ele>
        <time>2021-08-05T07:51:27Z</time>
      </trkpt>
      <trkpt lat="42.92495" lon="0.30794">
        <ele>1375.8</ele>
        <time>2021-08-05T07:51:28Z</time>
      </trkpt>
      <trkpt lat="42.92495" lon="0.30796">
        <ele>1376</ele>
        <time>2021-08-05T07:51:29Z</time>
      </trkpt>
      <trkpt lat="42.92495" lon="0.30798">
        <ele>1376.2</ele>
        <time>2021-08-05T07:51:30Z</time>
      </trkpt>
      <trkpt lat="42.92495" lon="0.30799">
        <ele>1376.2</ele>
        <time>2021-08-05T07:51:31Z</time>
      </trkpt>
      <trkpt lat="42.92495" lon="0.308">
        <ele>1376.2</ele>
        <time>2021-08-05T07:51:32Z</time>
      </trkpt>
      <trkpt lat="42.92495" lon="0.30801">
        <ele>1376.4</ele>
        <time>2021-08-05T07:51:33Z</time>
      </trkpt>
      <trkpt lat="42.92496" lon="0.30801">
        <ele>1376.6</ele>
        <time>2021-08-05T07:51:34Z</time>
      </trkpt>
      <trkpt lat="42.92497" lon="0.30803">
        <ele>1376.6</ele>
        <time>2021-08-05T07:51:35Z</time>
      </trkpt>
      <trkpt lat="42.92498" lon="0.30805">
        <ele>1376.8</ele>
        <time>2021-08-05T07:51:36Z</time>
      </trkpt>
      <trkpt lat="42.925" lon="0.30806">
        <ele>1377.4</ele>
        <time>2021-08-05T07:51:37Z</time>
      </trkpt>
      <trkpt lat="42.925" lon="0.30807">
        <ele>1377.6</ele>
        <time>2021-08-05T07:51:38Z</time>
      </trkpt>
      <trkpt lat="42.92502" lon="0.30809">
        <ele>1377.8</ele>
        <time>2021-08-05T07:51:39Z</time>
      </trkpt>
      <trkpt lat="42.92502" lon="0.3081">
        <ele>1378</ele>
        <time>2021-08-05T07:51:40Z</time>
      </trkpt>
      <trkpt lat="42.92504" lon="0.30812">
        <ele>1378</ele>
        <time>2021-08-05T07:51:41Z</time>
      </trkpt>
      <trkpt lat="42.92504" lon="0.30813">
        <ele>1378</ele>
        <time>2021-08-05T07:51:42Z</time>
      </trkpt>
      <trkpt lat="42.92506" lon="0.30815">
        <ele>1378</ele>
        <time>2021-08-05T07:51:43Z</time>
      </trkpt>
      <trkpt lat="42.92507" lon="0.30816">
        <ele>1378.2</ele>
        <time>2021-08-05T07:51:44Z</time>
      </trkpt>
      <trkpt lat="42.92507" lon="0.30817">
        <ele>1378.2</ele>
        <time>2021-08-05T07:51:45Z</time>
      </trkpt>
      <trkpt lat="42.92509" lon="0.30818">
        <ele>1378.4</ele>
        <time>2021-08-05T07:51:46Z</time>
      </trkpt>
      <trkpt lat="42.9251" lon="0.3082">
        <ele>1378.8</ele>
        <time>2021-08-05T07:51:47Z</time>
      </trkpt>
      <trkpt lat="42.92511" lon="0.30822">
        <ele>1379</ele>
        <time>2021-08-05T07:51:48Z</time>
      </trkpt>
      <trkpt lat="42.92513" lon="0.30824">
        <ele>1379.2</ele>
        <time>2021-08-05T07:51:49Z</time>
      </trkpt>
      <trkpt lat="42.92515" lon="0.30825">
        <ele>1379.4</ele>
        <time>2021-08-05T07:51:50Z</time>
      </trkpt>
      <trkpt lat="42.92516" lon="0.30827">
        <ele>1379.4</ele>
        <time>2021-08-05T07:51:51Z</time>
      </trkpt>
      <trkpt lat="42.92518" lon="0.30827">
        <ele>1379.6</ele>
        <time>2021-08-05T07:51:52Z</time>
      </trkpt>
      <trkpt lat="42.92518" lon="0.30828">
        <ele>1379.6</ele>
        <time>2021-08-05T07:51:53Z</time>
      </trkpt>
      <trkpt lat="42.92519" lon="0.3083">
        <ele>1380</ele>
        <time>2021-08-05T07:51:54Z</time>
      </trkpt>
      <trkpt lat="42.92519" lon="0.30831">
        <ele>1380</ele>
        <time>2021-08-05T07:51:55Z</time>
      </trkpt>
      <trkpt lat="42.9252" lon="0.30832">
        <ele>1380.2</ele>
        <time>2021-08-05T07:51:56Z</time>
      </trkpt>
      <trkpt lat="42.92521" lon="0.30833">
        <ele>1380.2</ele>
        <time>2021-08-05T07:51:57Z</time>
      </trkpt>
      <trkpt lat="42.92521" lon="0.30834">
        <ele>1380.6</ele>
        <time>2021-08-05T07:51:58Z</time>
      </trkpt>
      <trkpt lat="42.9252" lon="0.30836">
        <ele>1380.8</ele>
        <time>2021-08-05T07:51:59Z</time>
      </trkpt>
      <trkpt lat="42.92519" lon="0.30837">
        <ele>1381</ele>
        <time>2021-08-05T07:52:00Z</time>
      </trkpt>
      <trkpt lat="42.92519" lon="0.30838">
        <ele>1381</ele>
        <time>2021-08-05T07:52:01Z</time>
      </trkpt>
      <trkpt lat="42.92519" lon="0.3084">
        <ele>1381.2</ele>
        <time>2021-08-05T07:52:02Z</time>
      </trkpt>
      <trkpt lat="42.92519" lon="0.30841">
        <ele>1381.4</ele>
        <time>2021-08-05T07:52:03Z</time>
      </trkpt>
      <trkpt lat="42.92519" lon="0.30843">
        <ele>1381.8</ele>
        <time>2021-08-05T07:52:04Z</time>
      </trkpt>
      <trkpt lat="42.9252" lon="0.30844">
        <ele>1381.8</ele>
        <time>2021-08-05T07:52:05Z</time>
      </trkpt>
      <trkpt lat="42.9252" lon="0.30845">
        <ele>1382</ele>
        <time>2021-08-05T07:52:06Z</time>
      </trkpt>
      <trkpt lat="42.9252" lon="0.30846">
        <ele>1382</ele>
        <time>2021-08-05T07:52:07Z</time>
      </trkpt>
      <trkpt lat="42.92521" lon="0.30847">
        <ele>1382.2</ele>
        <time>2021-08-05T07:52:08Z</time>
      </trkpt>
      <trkpt lat="42.92521" lon="0.30848">
        <ele>1382.2</ele>
        <time>2021-08-05T07:52:09Z</time>
      </trkpt>
      <trkpt lat="42.92521" lon="0.3085">
        <ele>1382.2</ele>
        <time>2021-08-05T07:52:10Z</time>
      </trkpt>
      <trkpt lat="42.92521" lon="0.30851">
        <ele>1382.6</ele>
        <time>2021-08-05T07:52:11Z</time>
      </trkpt>
      <trkpt lat="42.9252" lon="0.30853">
        <ele>1382.6</ele>
        <time>2021-08-05T07:52:12Z</time>
      </trkpt>
      <trkpt lat="42.92519" lon="0.30854">
        <ele>1382.8</ele>
        <time>2021-08-05T07:52:13Z</time>
      </trkpt>
      <trkpt lat="42.92519" lon="0.30857">
        <ele>1382.8</ele>
        <time>2021-08-05T07:52:14Z</time>
      </trkpt>
      <trkpt lat="42.9252" lon="0.30859">
        <ele>1383.2</ele>
        <time>2021-08-05T07:52:15Z</time>
      </trkpt>
      <trkpt lat="42.92521" lon="0.30861">
        <ele>1383.2</ele>
        <time>2021-08-05T07:52:16Z</time>
      </trkpt>
      <trkpt lat="42.92523" lon="0.30864">
        <ele>1383.4</ele>
        <time>2021-08-05T07:52:17Z</time>
      </trkpt>
      <trkpt lat="42.92523" lon="0.30865">
        <ele>1383.6</ele>
        <time>2021-08-05T07:52:18Z</time>
      </trkpt>
      <trkpt lat="42.92523" lon="0.30867">
        <ele>1383.8</ele>
        <time>2021-08-05T07:52:19Z</time>
      </trkpt>
      <trkpt lat="42.92524" lon="0.30869">
        <ele>1383.8</ele>
        <time>2021-08-05T07:52:20Z</time>
      </trkpt>
      <trkpt lat="42.92525" lon="0.3087">
        <ele>1384.2</ele>
        <time>2021-08-05T07:52:21Z</time>
      </trkpt>
      <trkpt lat="42.92526" lon="0.30872">
        <ele>1384.2</ele>
        <time>2021-08-05T07:52:22Z</time>
      </trkpt>
      <trkpt lat="42.92526" lon="0.30874">
        <ele>1384.6</ele>
        <time>2021-08-05T07:52:23Z</time>
      </trkpt>
      <trkpt lat="42.92526" lon="0.30876">
        <ele>1384.8</ele>
        <time>2021-08-05T07:52:24Z</time>
      </trkpt>
      <trkpt lat="42.92526" lon="0.30878">
        <ele>1385</ele>
        <time>2021-08-05T07:52:25Z</time>
      </trkpt>
      <trkpt lat="42.92526" lon="0.30882">
        <ele>1385</ele>
        <time>2021-08-05T07:52:26Z</time>
      </trkpt>
      <trkpt lat="42.92528" lon="0.30885">
        <ele>1385.2</ele>
        <time>2021-08-05T07:52:27Z</time>
      </trkpt>
      <trkpt lat="42.92528" lon="0.30887">
        <ele>1385.4</ele>
        <time>2021-08-05T07:52:28Z</time>
      </trkpt>
      <trkpt lat="42.92529" lon="0.3089">
        <ele>1385.4</ele>
        <time>2021-08-05T07:52:29Z</time>
      </trkpt>
      <trkpt lat="42.92529" lon="0.30892">
        <ele>1385.6</ele>
        <time>2021-08-05T07:52:30Z</time>
      </trkpt>
      <trkpt lat="42.9253" lon="0.30894">
        <ele>1385.6</ele>
        <time>2021-08-05T07:52:31Z</time>
      </trkpt>
      <trkpt lat="42.9253" lon="0.30895">
        <ele>1385.8</ele>
        <time>2021-08-05T07:52:32Z</time>
      </trkpt>
      <trkpt lat="42.92531" lon="0.30897">
        <ele>1386</ele>
        <time>2021-08-05T07:52:33Z</time>
      </trkpt>
      <trkpt lat="42.92531" lon="0.30898">
        <ele>1386</ele>
        <time>2021-08-05T07:52:34Z</time>
      </trkpt>
      <trkpt lat="42.92534" lon="0.30901">
        <ele>1386.2</ele>
        <time>2021-08-05T07:52:35Z</time>
      </trkpt>
      <trkpt lat="42.92534" lon="0.30902">
        <ele>1386.2</ele>
        <time>2021-08-05T07:52:36Z</time>
      </trkpt>
      <trkpt lat="42.92533" lon="0.30904">
        <ele>1386.4</ele>
        <time>2021-08-05T07:52:37Z</time>
      </trkpt>
      <trkpt lat="42.92535" lon="0.30906">
        <ele>1386.8</ele>
        <time>2021-08-05T07:52:38Z</time>
      </trkpt>
      <trkpt lat="42.92534" lon="0.30908">
        <ele>1387</ele>
        <time>2021-08-05T07:52:39Z</time>
      </trkpt>
      <trkpt lat="42.92533" lon="0.3091">
        <ele>1387.2</ele>
        <time>2021-08-05T07:52:40Z</time>
      </trkpt>
      <trkpt lat="42.92535" lon="0.30914">
        <ele>1387.4</ele>
        <time>2021-08-05T07:52:41Z</time>
      </trkpt>
      <trkpt lat="42.92536" lon="0.30916">
        <ele>1387.6</ele>
        <time>2021-08-05T07:52:42Z</time>
      </trkpt>
      <trkpt lat="42.92538" lon="0.30918">
        <ele>1387.6</ele>
        <time>2021-08-05T07:52:43Z</time>
      </trkpt>
      <trkpt lat="42.92539" lon="0.3092">
        <ele>1388</ele>
        <time>2021-08-05T07:52:44Z</time>
      </trkpt>
      <trkpt lat="42.92539" lon="0.3092">
        <ele>1388</ele>
        <time>2021-08-05T07:52:45Z</time>
      </trkpt>
      <trkpt lat="42.92539" lon="0.3092">
        <ele>1388.2</ele>
        <time>2021-08-05T07:52:46Z</time>
      </trkpt>
      <trkpt lat="42.92539" lon="0.30924">
        <ele>1388.4</ele>
        <time>2021-08-05T07:52:47Z</time>
      </trkpt>
      <trkpt lat="42.9254" lon="0.30927">
        <ele>1388.6</ele>
        <time>2021-08-05T07:52:48Z</time>
      </trkpt>
      <trkpt lat="42.9254" lon="0.30928">
        <ele>1388.8</ele>
        <time>2021-08-05T07:52:49Z</time>
      </trkpt>
      <trkpt lat="42.92542" lon="0.3093">
        <ele>1388.8</ele>
        <time>2021-08-05T07:52:50Z</time>
      </trkpt>
      <trkpt lat="42.92542" lon="0.30931">
        <ele>1389</ele>
        <time>2021-08-05T07:52:51Z</time>
      </trkpt>
      <trkpt lat="42.92542" lon="0.30933">
        <ele>1389</ele>
        <time>2021-08-05T07:52:52Z</time>
      </trkpt>
      <trkpt lat="42.92543" lon="0.30936">
        <ele>1389.4</ele>
        <time>2021-08-05T07:52:53Z</time>
      </trkpt>
      <trkpt lat="42.92542" lon="0.30938">
        <ele>1389.6</ele>
        <time>2021-08-05T07:52:54Z</time>
      </trkpt>
      <trkpt lat="42.92543" lon="0.3094">
        <ele>1390</ele>
        <time>2021-08-05T07:52:55Z</time>
      </trkpt>
      <trkpt lat="42.92544" lon="0.30942">
        <ele>1390.2</ele>
        <time>2021-08-05T07:52:56Z</time>
      </trkpt>
      <trkpt lat="42.92545" lon="0.30943">
        <ele>1390.4</ele>
        <time>2021-08-05T07:52:57Z</time>
      </trkpt>
      <trkpt lat="42.92545" lon="0.30945">
        <ele>1390.6</ele>
        <time>2021-08-05T07:52:58Z</time>
      </trkpt>
      <trkpt lat="42.92546" lon="0.30946">
        <ele>1390.6</ele>
        <time>2021-08-05T07:52:59Z</time>
      </trkpt>
      <trkpt lat="42.92546" lon="0.30948">
        <ele>1390.8</ele>
        <time>2021-08-05T07:53:00Z</time>
      </trkpt>
      <trkpt lat="42.92546" lon="0.30949">
        <ele>1391</ele>
        <time>2021-08-05T07:53:01Z</time>
      </trkpt>
      <trkpt lat="42.92548" lon="0.3095">
        <ele>1391.2</ele>
        <time>2021-08-05T07:53:02Z</time>
      </trkpt>
      <trkpt lat="42.92549" lon="0.30952">
        <ele>1391.2</ele>
        <time>2021-08-05T07:53:03Z</time>
      </trkpt>
      <trkpt lat="42.9255" lon="0.30954">
        <ele>1391.4</ele>
        <time>2021-08-05T07:53:04Z</time>
      </trkpt>
      <trkpt lat="42.9255" lon="0.30955">
        <ele>1391.6</ele>
        <time>2021-08-05T07:53:05Z</time>
      </trkpt>
      <trkpt lat="42.92551" lon="0.30956">
        <ele>1391.8</ele>
        <time>2021-08-05T07:53:06Z</time>
      </trkpt>
      <trkpt lat="42.92552" lon="0.30958">
        <ele>1392</ele>
        <time>2021-08-05T07:53:07Z</time>
      </trkpt>
      <trkpt lat="42.92552" lon="0.3096">
        <ele>1392.2</ele>
        <time>2021-08-05T07:53:08Z</time>
      </trkpt>
      <trkpt lat="42.92555" lon="0.30961">
        <ele>1392.4</ele>
        <time>2021-08-05T07:53:09Z</time>
      </trkpt>
      <trkpt lat="42.92557" lon="0.30963">
        <ele>1392.6</ele>
        <time>2021-08-05T07:53:10Z</time>
      </trkpt>
      <trkpt lat="42.92557" lon="0.30965">
        <ele>1392.8</ele>
        <time>2021-08-05T07:53:11Z</time>
      </trkpt>
      <trkpt lat="42.92558" lon="0.30965">
        <ele>1393</ele>
        <time>2021-08-05T07:53:12Z</time>
      </trkpt>
      <trkpt lat="42.92558" lon="0.30966">
        <ele>1393.2</ele>
        <time>2021-08-05T07:53:13Z</time>
      </trkpt>
      <trkpt lat="42.92558" lon="0.30968">
        <ele>1393.4</ele>
        <time>2021-08-05T07:53:14Z</time>
      </trkpt>
      <trkpt lat="42.92558" lon="0.3097">
        <ele>1393.6</ele>
        <time>2021-08-05T07:53:15Z</time>
      </trkpt>
      <trkpt lat="42.92559" lon="0.30971">
        <ele>1394</ele>
        <time>2021-08-05T07:53:16Z</time>
      </trkpt>
      <trkpt lat="42.92559" lon="0.30973">
        <ele>1394.2</ele>
        <time>2021-08-05T07:53:17Z</time>
      </trkpt>
      <trkpt lat="42.9256" lon="0.30975">
        <ele>1394.4</ele>
        <time>2021-08-05T07:53:18Z</time>
      </trkpt>
      <trkpt lat="42.9256" lon="0.30978">
        <ele>1394.4</ele>
        <time>2021-08-05T07:53:19Z</time>
      </trkpt>
      <trkpt lat="42.92559" lon="0.3098">
        <ele>1394.6</ele>
        <time>2021-08-05T07:53:20Z</time>
      </trkpt>
      <trkpt lat="42.92559" lon="0.30983">
        <ele>1394.8</ele>
        <time>2021-08-05T07:53:21Z</time>
      </trkpt>
      <trkpt lat="42.9256" lon="0.30984">
        <ele>1395</ele>
        <time>2021-08-05T07:53:22Z</time>
      </trkpt>
      <trkpt lat="42.92561" lon="0.30985">
        <ele>1395.2</ele>
        <time>2021-08-05T07:53:23Z</time>
      </trkpt>
      <trkpt lat="42.92562" lon="0.30987">
        <ele>1395.4</ele>
        <time>2021-08-05T07:53:24Z</time>
      </trkpt>
      <trkpt lat="42.92562" lon="0.30988">
        <ele>1395.4</ele>
        <time>2021-08-05T07:53:25Z</time>
      </trkpt>
      <trkpt lat="42.92564" lon="0.30989">
        <ele>1395.6</ele>
        <time>2021-08-05T07:53:26Z</time>
      </trkpt>
      <trkpt lat="42.92565" lon="0.3099">
        <ele>1395.8</ele>
        <time>2021-08-05T07:53:27Z</time>
      </trkpt>
      <trkpt lat="42.92565" lon="0.3099">
        <ele>1396</ele>
        <time>2021-08-05T07:53:28Z</time>
      </trkpt>
      <trkpt lat="42.92565" lon="0.3099">
        <ele>1396.2</ele>
        <time>2021-08-05T07:53:29Z</time>
      </trkpt>
      <trkpt lat="42.92566" lon="0.3099">
        <ele>1396.4</ele>
        <time>2021-08-05T07:53:30Z</time>
      </trkpt>
      <trkpt lat="42.92567" lon="0.30991">
        <ele>1396.4</ele>
        <time>2021-08-05T07:53:31Z</time>
      </trkpt>
      <trkpt lat="42.92568" lon="0.30991">
        <ele>1396.4</ele>
        <time>2021-08-05T07:53:32Z</time>
      </trkpt>
      <trkpt lat="42.92569" lon="0.30991">
        <ele>1396.6</ele>
        <time>2021-08-05T07:53:33Z</time>
      </trkpt>
      <trkpt lat="42.9257" lon="0.30992">
        <ele>1396.8</ele>
        <time>2021-08-05T07:53:34Z</time>
      </trkpt>
      <trkpt lat="42.92571" lon="0.30992">
        <ele>1397</ele>
        <time>2021-08-05T07:53:35Z</time>
      </trkpt>
      <trkpt lat="42.92572" lon="0.30993">
        <ele>1397</ele>
        <time>2021-08-05T07:53:36Z</time>
      </trkpt>
      <trkpt lat="42.92573" lon="0.30993">
        <ele>1397.2</ele>
        <time>2021-08-05T07:53:37Z</time>
      </trkpt>
      <trkpt lat="42.92574" lon="0.30994">
        <ele>1397.4</ele>
        <time>2021-08-05T07:53:38Z</time>
      </trkpt>
      <trkpt lat="42.92574" lon="0.30995">
        <ele>1397.6</ele>
        <time>2021-08-05T07:53:39Z</time>
      </trkpt>
      <trkpt lat="42.92575" lon="0.30995">
        <ele>1397.6</ele>
        <time>2021-08-05T07:53:40Z</time>
      </trkpt>
      <trkpt lat="42.92576" lon="0.30996">
        <ele>1397.8</ele>
        <time>2021-08-05T07:53:41Z</time>
      </trkpt>
      <trkpt lat="42.92576" lon="0.30996">
        <ele>1397.8</ele>
        <time>2021-08-05T07:53:42Z</time>
      </trkpt>
      <trkpt lat="42.92577" lon="0.30997">
        <ele>1398</ele>
        <time>2021-08-05T07:53:43Z</time>
      </trkpt>
      <trkpt lat="42.92578" lon="0.30998">
        <ele>1398</ele>
        <time>2021-08-05T07:53:44Z</time>
      </trkpt>
      <trkpt lat="42.92579" lon="0.30999">
        <ele>1398.2</ele>
        <time>2021-08-05T07:53:45Z</time>
      </trkpt>
      <trkpt lat="42.92581" lon="0.31001">
        <ele>1398.4</ele>
        <time>2021-08-05T07:53:46Z</time>
      </trkpt>
      <trkpt lat="42.92583" lon="0.31003">
        <ele>1398.4</ele>
        <time>2021-08-05T07:53:47Z</time>
      </trkpt>
      <trkpt lat="42.92585" lon="0.31004">
        <ele>1398.6</ele>
        <time>2021-08-05T07:53:48Z</time>
      </trkpt>
      <trkpt lat="42.92585" lon="0.31005">
        <ele>1398.6</ele>
        <time>2021-08-05T07:53:49Z</time>
      </trkpt>
      <trkpt lat="42.92586" lon="0.31005">
        <ele>1398.8</ele>
        <time>2021-08-05T07:53:50Z</time>
      </trkpt>
      <trkpt lat="42.92588" lon="0.31007">
        <ele>1398.8</ele>
        <time>2021-08-05T07:53:51Z</time>
      </trkpt>
      <trkpt lat="42.9259" lon="0.31009">
        <ele>1398.8</ele>
        <time>2021-08-05T07:53:52Z</time>
      </trkpt>
      <trkpt lat="42.92592" lon="0.31011">
        <ele>1398.8</ele>
        <time>2021-08-05T07:53:53Z</time>
      </trkpt>
      <trkpt lat="42.92594" lon="0.31013">
        <ele>1399.2</ele>
        <time>2021-08-05T07:53:54Z</time>
      </trkpt>
      <trkpt lat="42.92596" lon="0.31014">
        <ele>1399.2</ele>
        <time>2021-08-05T07:53:55Z</time>
      </trkpt>
      <trkpt lat="42.92598" lon="0.31015">
        <ele>1399.4</ele>
        <time>2021-08-05T07:53:56Z</time>
      </trkpt>
      <trkpt lat="42.926" lon="0.31016">
        <ele>1399.6</ele>
        <time>2021-08-05T07:53:57Z</time>
      </trkpt>
      <trkpt lat="42.92601" lon="0.31018">
        <ele>1399.8</ele>
        <time>2021-08-05T07:53:58Z</time>
      </trkpt>
      <trkpt lat="42.92603" lon="0.3102">
        <ele>1399.8</ele>
        <time>2021-08-05T07:53:59Z</time>
      </trkpt>
      <trkpt lat="42.92604" lon="0.31021">
        <ele>1400</ele>
        <time>2021-08-05T07:54:00Z</time>
      </trkpt>
      <trkpt lat="42.92606" lon="0.31022">
        <ele>1400.2</ele>
        <time>2021-08-05T07:54:01Z</time>
      </trkpt>
      <trkpt lat="42.92607" lon="0.31022">
        <ele>1400.2</ele>
        <time>2021-08-05T07:54:02Z</time>
      </trkpt>
      <trkpt lat="42.9261" lon="0.31022">
        <ele>1400.2</ele>
        <time>2021-08-05T07:54:03Z</time>
      </trkpt>
      <trkpt lat="42.92613" lon="0.31023">
        <ele>1400.4</ele>
        <time>2021-08-05T07:54:04Z</time>
      </trkpt>
      <trkpt lat="42.92614" lon="0.31025">
        <ele>1400.4</ele>
        <time>2021-08-05T07:54:05Z</time>
      </trkpt>
      <trkpt lat="42.92614" lon="0.31025">
        <ele>1400.4</ele>
        <time>2021-08-05T07:54:06Z</time>
      </trkpt>
      <trkpt lat="42.92614" lon="0.31025">
        <ele>1400.6</ele>
        <time>2021-08-05T07:54:07Z</time>
      </trkpt>
      <trkpt lat="42.92614" lon="0.31026">
        <ele>1400.6</ele>
        <time>2021-08-05T07:54:08Z</time>
      </trkpt>
      <trkpt lat="42.92614" lon="0.31027">
        <ele>1400.6</ele>
        <time>2021-08-05T07:54:09Z</time>
      </trkpt>
      <trkpt lat="42.92614" lon="0.31027">
        <ele>1400.6</ele>
        <time>2021-08-05T07:54:10Z</time>
      </trkpt>
      <trkpt lat="42.92614" lon="0.31027">
        <ele>1400.6</ele>
        <time>2021-08-05T07:54:11Z</time>
      </trkpt>
      <trkpt lat="42.92614" lon="0.31027">
        <ele>1400.6</ele>
        <time>2021-08-05T07:54:28Z</time>
      </trkpt>
      <trkpt lat="42.92614" lon="0.31027">
        <ele>1400</ele>
        <time>2021-08-05T07:55:14Z</time>
      </trkpt>
      <trkpt lat="42.92621" lon="0.3103">
        <ele>1400</ele>
        <time>2021-08-05T07:55:18Z</time>
      </trkpt>
      <trkpt lat="42.92622" lon="0.31032">
        <ele>1400</ele>
        <time>2021-08-05T07:55:19Z</time>
      </trkpt>
      <trkpt lat="42.92623" lon="0.31033">
        <ele>1400</ele>
        <time>2021-08-05T07:55:20Z</time>
      </trkpt>
      <trkpt lat="42.92626" lon="0.31035">
        <ele>1400</ele>
        <time>2021-08-05T07:55:22Z</time>
      </trkpt>
      <trkpt lat="42.92628" lon="0.31038">
        <ele>1400.2</ele>
        <time>2021-08-05T07:55:25Z</time>
      </trkpt>
      <trkpt lat="42.92631" lon="0.3104">
        <ele>1400.2</ele>
        <time>2021-08-05T07:55:26Z</time>
      </trkpt>
      <trkpt lat="42.92635" lon="0.31043">
        <ele>1400.2</ele>
        <time>2021-08-05T07:55:29Z</time>
      </trkpt>
      <trkpt lat="42.92637" lon="0.31044">
        <ele>1400.4</ele>
        <time>2021-08-05T07:55:31Z</time>
      </trkpt>
      <trkpt lat="42.9264" lon="0.31045">
        <ele>1400.6</ele>
        <time>2021-08-05T07:55:33Z</time>
      </trkpt>
      <trkpt lat="42.92641" lon="0.31047">
        <ele>1400.6</ele>
        <time>2021-08-05T07:55:34Z</time>
      </trkpt>
      <trkpt lat="42.92641" lon="0.31048">
        <ele>1400.8</ele>
        <time>2021-08-05T07:55:35Z</time>
      </trkpt>
      <trkpt lat="42.92642" lon="0.31049">
        <ele>1401</ele>
        <time>2021-08-05T07:55:36Z</time>
      </trkpt>
      <trkpt lat="42.92644" lon="0.3105">
        <ele>1401</ele>
        <time>2021-08-05T07:55:37Z</time>
      </trkpt>
      <trkpt lat="42.92645" lon="0.31052">
        <ele>1401.2</ele>
        <time>2021-08-05T07:55:38Z</time>
      </trkpt>
      <trkpt lat="42.92647" lon="0.31053">
        <ele>1401.2</ele>
        <time>2021-08-05T07:55:39Z</time>
      </trkpt>
      <trkpt lat="42.92648" lon="0.31054">
        <ele>1401.2</ele>
        <time>2021-08-05T07:55:40Z</time>
      </trkpt>
      <trkpt lat="42.92649" lon="0.31055">
        <ele>1401.4</ele>
        <time>2021-08-05T07:55:41Z</time>
      </trkpt>
      <trkpt lat="42.92651" lon="0.31056">
        <ele>1401.6</ele>
        <time>2021-08-05T07:55:42Z</time>
      </trkpt>
      <trkpt lat="42.92652" lon="0.31057">
        <ele>1401.6</ele>
        <time>2021-08-05T07:55:43Z</time>
      </trkpt>
      <trkpt lat="42.92654" lon="0.31058">
        <ele>1401.8</ele>
        <time>2021-08-05T07:55:44Z</time>
      </trkpt>
      <trkpt lat="42.92664" lon="0.31063">
        <ele>1402.4</ele>
        <time>2021-08-05T07:55:50Z</time>
      </trkpt>
      <trkpt lat="42.92667" lon="0.31064">
        <ele>1402.8</ele>
        <time>2021-08-05T07:55:52Z</time>
      </trkpt>
      <trkpt lat="42.9267" lon="0.31067">
        <ele>1403.4</ele>
        <time>2021-08-05T07:55:55Z</time>
      </trkpt>
      <trkpt lat="42.92671" lon="0.31068">
        <ele>1403.6</ele>
        <time>2021-08-05T07:55:56Z</time>
      </trkpt>
      <trkpt lat="42.92673" lon="0.31069">
        <ele>1403.6</ele>
        <time>2021-08-05T07:55:57Z</time>
      </trkpt>
      <trkpt lat="42.92674" lon="0.3107">
        <ele>1403.8</ele>
        <time>2021-08-05T07:55:58Z</time>
      </trkpt>
      <trkpt lat="42.92676" lon="0.3107">
        <ele>1404</ele>
        <time>2021-08-05T07:55:59Z</time>
      </trkpt>
      <trkpt lat="42.92677" lon="0.31071">
        <ele>1404</ele>
        <time>2021-08-05T07:56:00Z</time>
      </trkpt>
      <trkpt lat="42.92679" lon="0.31072">
        <ele>1404</ele>
        <time>2021-08-05T07:56:01Z</time>
      </trkpt>
      <trkpt lat="42.92681" lon="0.31073">
        <ele>1404</ele>
        <time>2021-08-05T07:56:02Z</time>
      </trkpt>
      <trkpt lat="42.92682" lon="0.31074">
        <ele>1404</ele>
        <time>2021-08-05T07:56:03Z</time>
      </trkpt>
      <trkpt lat="42.92682" lon="0.31075">
        <ele>1404</ele>
        <time>2021-08-05T07:56:04Z</time>
      </trkpt>
      <trkpt lat="42.92683" lon="0.31075">
        <ele>1404.4</ele>
        <time>2021-08-05T07:56:05Z</time>
      </trkpt>
      <trkpt lat="42.92685" lon="0.31077">
        <ele>1404.4</ele>
        <time>2021-08-05T07:56:06Z</time>
      </trkpt>
      <trkpt lat="42.92687" lon="0.31079">
        <ele>1404.6</ele>
        <time>2021-08-05T07:56:07Z</time>
      </trkpt>
      <trkpt lat="42.9269" lon="0.31081">
        <ele>1404.8</ele>
        <time>2021-08-05T07:56:08Z</time>
      </trkpt>
      <trkpt lat="42.92692" lon="0.31083">
        <ele>1405</ele>
        <time>2021-08-05T07:56:09Z</time>
      </trkpt>
      <trkpt lat="42.92694" lon="0.31084">
        <ele>1405</ele>
        <time>2021-08-05T07:56:10Z</time>
      </trkpt>
      <trkpt lat="42.92695" lon="0.31085">
        <ele>1405.2</ele>
        <time>2021-08-05T07:56:11Z</time>
      </trkpt>
      <trkpt lat="42.92696" lon="0.31086">
        <ele>1405.4</ele>
        <time>2021-08-05T07:56:12Z</time>
      </trkpt>
      <trkpt lat="42.92698" lon="0.31088">
        <ele>1405.6</ele>
        <time>2021-08-05T07:56:13Z</time>
      </trkpt>
      <trkpt lat="42.92701" lon="0.3109">
        <ele>1405.6</ele>
        <time>2021-08-05T07:56:14Z</time>
      </trkpt>
      <trkpt lat="42.92703" lon="0.31093">
        <ele>1405.8</ele>
        <time>2021-08-05T07:56:15Z</time>
      </trkpt>
      <trkpt lat="42.92704" lon="0.31096">
        <ele>1405.8</ele>
        <time>2021-08-05T07:56:16Z</time>
      </trkpt>
      <trkpt lat="42.92705" lon="0.31098">
        <ele>1406</ele>
        <time>2021-08-05T07:56:17Z</time>
      </trkpt>
      <trkpt lat="42.92707" lon="0.311">
        <ele>1406.2</ele>
        <time>2021-08-05T07:56:18Z</time>
      </trkpt>
      <trkpt lat="42.92708" lon="0.31102">
        <ele>1406.2</ele>
        <time>2021-08-05T07:56:19Z</time>
      </trkpt>
      <trkpt lat="42.9271" lon="0.31103">
        <ele>1406.4</ele>
        <time>2021-08-05T07:56:20Z</time>
      </trkpt>
      <trkpt lat="42.92711" lon="0.31103">
        <ele>1406.6</ele>
        <time>2021-08-05T07:56:21Z</time>
      </trkpt>
      <trkpt lat="42.92713" lon="0.31105">
        <ele>1406.8</ele>
        <time>2021-08-05T07:56:22Z</time>
      </trkpt>
      <trkpt lat="42.92716" lon="0.31108">
        <ele>1406.8</ele>
        <time>2021-08-05T07:56:23Z</time>
      </trkpt>
      <trkpt lat="42.92716" lon="0.31109">
        <ele>1406.8</ele>
        <time>2021-08-05T07:56:24Z</time>
      </trkpt>
      <trkpt lat="42.92717" lon="0.31109">
        <ele>1407</ele>
        <time>2021-08-05T07:56:25Z</time>
      </trkpt>
      <trkpt lat="42.92717" lon="0.31109">
        <ele>1407</ele>
        <time>2021-08-05T07:56:26Z</time>
      </trkpt>
      <trkpt lat="42.92718" lon="0.31111">
        <ele>1407.2</ele>
        <time>2021-08-05T07:56:27Z</time>
      </trkpt>
      <trkpt lat="42.92719" lon="0.31112">
        <ele>1407.2</ele>
        <time>2021-08-05T07:56:28Z</time>
      </trkpt>
      <trkpt lat="42.92721" lon="0.31113">
        <ele>1407.2</ele>
        <time>2021-08-05T07:56:29Z</time>
      </trkpt>
      <trkpt lat="42.92722" lon="0.31115">
        <ele>1407.4</ele>
        <time>2021-08-05T07:56:30Z</time>
      </trkpt>
      <trkpt lat="42.92723" lon="0.31116">
        <ele>1407.6</ele>
        <time>2021-08-05T07:56:31Z</time>
      </trkpt>
      <trkpt lat="42.92724" lon="0.31118">
        <ele>1408</ele>
        <time>2021-08-05T07:56:32Z</time>
      </trkpt>
      <trkpt lat="42.92724" lon="0.3112">
        <ele>1408</ele>
        <time>2021-08-05T07:56:33Z</time>
      </trkpt>
      <trkpt lat="42.92725" lon="0.31121">
        <ele>1408.2</ele>
        <time>2021-08-05T07:56:34Z</time>
      </trkpt>
      <trkpt lat="42.92725" lon="0.31122">
        <ele>1408.4</ele>
        <time>2021-08-05T07:56:35Z</time>
      </trkpt>
      <trkpt lat="42.92726" lon="0.31123">
        <ele>1408.4</ele>
        <time>2021-08-05T07:56:36Z</time>
      </trkpt>
      <trkpt lat="42.92727" lon="0.31125">
        <ele>1408.6</ele>
        <time>2021-08-05T07:56:37Z</time>
      </trkpt>
      <trkpt lat="42.92727" lon="0.31127">
        <ele>1408.6</ele>
        <time>2021-08-05T07:56:38Z</time>
      </trkpt>
      <trkpt lat="42.92728" lon="0.31129">
        <ele>1409</ele>
        <time>2021-08-05T07:56:39Z</time>
      </trkpt>
      <trkpt lat="42.92729" lon="0.31131">
        <ele>1409</ele>
        <time>2021-08-05T07:56:40Z</time>
      </trkpt>
      <trkpt lat="42.92729" lon="0.31132">
        <ele>1409.2</ele>
        <time>2021-08-05T07:56:41Z</time>
      </trkpt>
      <trkpt lat="42.92729" lon="0.31134">
        <ele>1409.4</ele>
        <time>2021-08-05T07:56:42Z</time>
      </trkpt>
      <trkpt lat="42.92729" lon="0.31136">
        <ele>1409.4</ele>
        <time>2021-08-05T07:56:43Z</time>
      </trkpt>
      <trkpt lat="42.92729" lon="0.31138">
        <ele>1409.6</ele>
        <time>2021-08-05T07:56:44Z</time>
      </trkpt>
      <trkpt lat="42.9273" lon="0.31139">
        <ele>1409.8</ele>
        <time>2021-08-05T07:56:45Z</time>
      </trkpt>
      <trkpt lat="42.92729" lon="0.31141">
        <ele>1410</ele>
        <time>2021-08-05T07:56:46Z</time>
      </trkpt>
      <trkpt lat="42.9273" lon="0.31143">
        <ele>1410.2</ele>
        <time>2021-08-05T07:56:47Z</time>
      </trkpt>
      <trkpt lat="42.9273" lon="0.31144">
        <ele>1410.2</ele>
        <time>2021-08-05T07:56:48Z</time>
      </trkpt>
      <trkpt lat="42.9273" lon="0.31145">
        <ele>1410.2</ele>
        <time>2021-08-05T07:56:49Z</time>
      </trkpt>
      <trkpt lat="42.9273" lon="0.31145">
        <ele>1410.4</ele>
        <time>2021-08-05T07:56:50Z</time>
      </trkpt>
      <trkpt lat="42.9273" lon="0.31145">
        <ele>1410.8</ele>
        <time>2021-08-05T07:56:53Z</time>
      </trkpt>
      <trkpt lat="42.9273" lon="0.31145">
        <ele>1411</ele>
        <time>2021-08-05T07:56:54Z</time>
      </trkpt>
      <trkpt lat="42.9273" lon="0.31146">
        <ele>1411.2</ele>
        <time>2021-08-05T07:56:55Z</time>
      </trkpt>
      <trkpt lat="42.9273" lon="0.31147">
        <ele>1411.4</ele>
        <time>2021-08-05T07:56:56Z</time>
      </trkpt>
      <trkpt lat="42.9273" lon="0.31148">
        <ele>1411.4</ele>
        <time>2021-08-05T07:56:57Z</time>
      </trkpt>
      <trkpt lat="42.9273" lon="0.31149">
        <ele>1411.6</ele>
        <time>2021-08-05T07:56:58Z</time>
      </trkpt>
      <trkpt lat="42.92729" lon="0.3115">
        <ele>1411.6</ele>
        <time>2021-08-05T07:56:59Z</time>
      </trkpt>
      <trkpt lat="42.92729" lon="0.31151">
        <ele>1411.8</ele>
        <time>2021-08-05T07:57:00Z</time>
      </trkpt>
      <trkpt lat="42.92729" lon="0.31153">
        <ele>1411.8</ele>
        <time>2021-08-05T07:57:01Z</time>
      </trkpt>
      <trkpt lat="42.92729" lon="0.31156">
        <ele>1412.2</ele>
        <time>2021-08-05T07:57:02Z</time>
      </trkpt>
      <trkpt lat="42.9273" lon="0.31158">
        <ele>1412.2</ele>
        <time>2021-08-05T07:57:03Z</time>
      </trkpt>
      <trkpt lat="42.9273" lon="0.31161">
        <ele>1412.2</ele>
        <time>2021-08-05T07:57:04Z</time>
      </trkpt>
      <trkpt lat="42.9273" lon="0.31161">
        <ele>1412.4</ele>
        <time>2021-08-05T07:57:05Z</time>
      </trkpt>
      <trkpt lat="42.9273" lon="0.31163">
        <ele>1412.4</ele>
        <time>2021-08-05T07:57:06Z</time>
      </trkpt>
      <trkpt lat="42.9273" lon="0.31163">
        <ele>1412.6</ele>
        <time>2021-08-05T07:57:07Z</time>
      </trkpt>
      <trkpt lat="42.9273" lon="0.31167">
        <ele>1413</ele>
        <time>2021-08-05T07:57:08Z</time>
      </trkpt>
      <trkpt lat="42.9273" lon="0.3117">
        <ele>1413.2</ele>
        <time>2021-08-05T07:57:09Z</time>
      </trkpt>
      <trkpt lat="42.92731" lon="0.31174">
        <ele>1413.4</ele>
        <time>2021-08-05T07:57:10Z</time>
      </trkpt>
      <trkpt lat="42.92731" lon="0.31176">
        <ele>1413.4</ele>
        <time>2021-08-05T07:57:11Z</time>
      </trkpt>
      <trkpt lat="42.92731" lon="0.31177">
        <ele>1413.8</ele>
        <time>2021-08-05T07:57:12Z</time>
      </trkpt>
      <trkpt lat="42.92731" lon="0.31177">
        <ele>1414</ele>
        <time>2021-08-05T07:57:13Z</time>
      </trkpt>
      <trkpt lat="42.92731" lon="0.3118">
        <ele>1414</ele>
        <time>2021-08-05T07:57:14Z</time>
      </trkpt>
      <trkpt lat="42.92732" lon="0.31184">
        <ele>1414.4</ele>
        <time>2021-08-05T07:57:15Z</time>
      </trkpt>
      <trkpt lat="42.92734" lon="0.31187">
        <ele>1414.6</ele>
        <time>2021-08-05T07:57:16Z</time>
      </trkpt>
      <trkpt lat="42.92735" lon="0.3119">
        <ele>1414.8</ele>
        <time>2021-08-05T07:57:17Z</time>
      </trkpt>
      <trkpt lat="42.92736" lon="0.31193">
        <ele>1414.8</ele>
        <time>2021-08-05T07:57:18Z</time>
      </trkpt>
      <trkpt lat="42.92735" lon="0.31199">
        <ele>1415</ele>
        <time>2021-08-05T07:57:19Z</time>
      </trkpt>
      <trkpt lat="42.92735" lon="0.31203">
        <ele>1415.2</ele>
        <time>2021-08-05T07:57:20Z</time>
      </trkpt>
      <trkpt lat="42.92735" lon="0.31204">
        <ele>1415.6</ele>
        <time>2021-08-05T07:57:21Z</time>
      </trkpt>
      <trkpt lat="42.92735" lon="0.31204">
        <ele>1415.6</ele>
        <time>2021-08-05T07:57:22Z</time>
      </trkpt>
      <trkpt lat="42.92735" lon="0.31206">
        <ele>1415.8</ele>
        <time>2021-08-05T07:57:23Z</time>
      </trkpt>
      <trkpt lat="42.92735" lon="0.31209">
        <ele>1415.8</ele>
        <time>2021-08-05T07:57:24Z</time>
      </trkpt>
      <trkpt lat="42.92736" lon="0.31212">
        <ele>1416</ele>
        <time>2021-08-05T07:57:25Z</time>
      </trkpt>
      <trkpt lat="42.92737" lon="0.31215">
        <ele>1416</ele>
        <time>2021-08-05T07:57:26Z</time>
      </trkpt>
      <trkpt lat="42.92738" lon="0.31218">
        <ele>1416.2</ele>
        <time>2021-08-05T07:57:27Z</time>
      </trkpt>
      <trkpt lat="42.92739" lon="0.31222">
        <ele>1416.2</ele>
        <time>2021-08-05T07:57:28Z</time>
      </trkpt>
      <trkpt lat="42.92739" lon="0.31225">
        <ele>1416.4</ele>
        <time>2021-08-05T07:57:29Z</time>
      </trkpt>
      <trkpt lat="42.92741" lon="0.31228">
        <ele>1416.4</ele>
        <time>2021-08-05T07:57:30Z</time>
      </trkpt>
      <trkpt lat="42.92741" lon="0.3123">
        <ele>1416.6</ele>
        <time>2021-08-05T07:57:31Z</time>
      </trkpt>
      <trkpt lat="42.92741" lon="0.31231">
        <ele>1416.8</ele>
        <time>2021-08-05T07:57:32Z</time>
      </trkpt>
      <trkpt lat="42.92742" lon="0.31233">
        <ele>1416.8</ele>
        <time>2021-08-05T07:57:33Z</time>
      </trkpt>
      <trkpt lat="42.92741" lon="0.31236">
        <ele>1417</ele>
        <time>2021-08-05T07:57:34Z</time>
      </trkpt>
      <trkpt lat="42.9274" lon="0.31237">
        <ele>1417</ele>
        <time>2021-08-05T07:57:35Z</time>
      </trkpt>
      <trkpt lat="42.9274" lon="0.31239">
        <ele>1417.2</ele>
        <time>2021-08-05T07:57:36Z</time>
      </trkpt>
      <trkpt lat="42.9274" lon="0.3124">
        <ele>1417.2</ele>
        <time>2021-08-05T07:57:37Z</time>
      </trkpt>
      <trkpt lat="42.92741" lon="0.31243">
        <ele>1417.4</ele>
        <time>2021-08-05T07:57:38Z</time>
      </trkpt>
      <trkpt lat="42.92742" lon="0.31245">
        <ele>1417.4</ele>
        <time>2021-08-05T07:57:39Z</time>
      </trkpt>
      <trkpt lat="42.92743" lon="0.31247">
        <ele>1417.6</ele>
        <time>2021-08-05T07:57:40Z</time>
      </trkpt>
      <trkpt lat="42.92743" lon="0.31249">
        <ele>1417.6</ele>
        <time>2021-08-05T07:57:41Z</time>
      </trkpt>
      <trkpt lat="42.92743" lon="0.31251">
        <ele>1417.8</ele>
        <time>2021-08-05T07:57:42Z</time>
      </trkpt>
      <trkpt lat="42.92744" lon="0.31252">
        <ele>1417.8</ele>
        <time>2021-08-05T07:57:43Z</time>
      </trkpt>
      <trkpt lat="42.92745" lon="0.31254">
        <ele>1417.8</ele>
        <time>2021-08-05T07:57:44Z</time>
      </trkpt>
      <trkpt lat="42.92746" lon="0.31255">
        <ele>1417.8</ele>
        <time>2021-08-05T07:57:45Z</time>
      </trkpt>
      <trkpt lat="42.92747" lon="0.31257">
        <ele>1418</ele>
        <time>2021-08-05T07:57:46Z</time>
      </trkpt>
      <trkpt lat="42.92748" lon="0.31259">
        <ele>1418</ele>
        <time>2021-08-05T07:57:47Z</time>
      </trkpt>
      <trkpt lat="42.92747" lon="0.31261">
        <ele>1418</ele>
        <time>2021-08-05T07:57:48Z</time>
      </trkpt>
      <trkpt lat="42.92747" lon="0.31262">
        <ele>1418.2</ele>
        <time>2021-08-05T07:57:49Z</time>
      </trkpt>
      <trkpt lat="42.92748" lon="0.31263">
        <ele>1418.2</ele>
        <time>2021-08-05T07:57:50Z</time>
      </trkpt>
      <trkpt lat="42.92749" lon="0.31265">
        <ele>1418.2</ele>
        <time>2021-08-05T07:57:51Z</time>
      </trkpt>
      <trkpt lat="42.9275" lon="0.31266">
        <ele>1418.2</ele>
        <time>2021-08-05T07:57:52Z</time>
      </trkpt>
      <trkpt lat="42.92751" lon="0.31267">
        <ele>1418.4</ele>
        <time>2021-08-05T07:57:53Z</time>
      </trkpt>
      <trkpt lat="42.92752" lon="0.31268">
        <ele>1418.4</ele>
        <time>2021-08-05T07:57:54Z</time>
      </trkpt>
      <trkpt lat="42.92752" lon="0.31269">
        <ele>1418.4</ele>
        <time>2021-08-05T07:57:55Z</time>
      </trkpt>
      <trkpt lat="42.92752" lon="0.3127">
        <ele>1418.4</ele>
        <time>2021-08-05T07:57:56Z</time>
      </trkpt>
      <trkpt lat="42.92753" lon="0.31271">
        <ele>1418.4</ele>
        <time>2021-08-05T07:57:57Z</time>
      </trkpt>
      <trkpt lat="42.92755" lon="0.31272">
        <ele>1418.6</ele>
        <time>2021-08-05T07:57:58Z</time>
      </trkpt>
      <trkpt lat="42.92756" lon="0.31272">
        <ele>1418.6</ele>
        <time>2021-08-05T07:57:59Z</time>
      </trkpt>
      <trkpt lat="42.92757" lon="0.31273">
        <ele>1418.6</ele>
        <time>2021-08-05T07:58:00Z</time>
      </trkpt>
      <trkpt lat="42.92758" lon="0.31275">
        <ele>1418.6</ele>
        <time>2021-08-05T07:58:01Z</time>
      </trkpt>
      <trkpt lat="42.92759" lon="0.31275">
        <ele>1418.8</ele>
        <time>2021-08-05T07:58:02Z</time>
      </trkpt>
      <trkpt lat="42.92759" lon="0.31277">
        <ele>1418.8</ele>
        <time>2021-08-05T07:58:03Z</time>
      </trkpt>
      <trkpt lat="42.92763" lon="0.31284">
        <ele>1418.8</ele>
        <time>2021-08-05T07:58:07Z</time>
      </trkpt>
      <trkpt lat="42.92766" lon="0.31285">
        <ele>1418.8</ele>
        <time>2021-08-05T07:58:08Z</time>
      </trkpt>
      <trkpt lat="42.92767" lon="0.31287">
        <ele>1418.8</ele>
        <time>2021-08-05T07:58:09Z</time>
      </trkpt>
      <trkpt lat="42.92774" lon="0.31295">
        <ele>1418.8</ele>
        <time>2021-08-05T07:58:14Z</time>
      </trkpt>
      <trkpt lat="42.92776" lon="0.31298">
        <ele>1418.8</ele>
        <time>2021-08-05T07:58:16Z</time>
      </trkpt>
      <trkpt lat="42.92783" lon="0.31305">
        <ele>1419</ele>
        <time>2021-08-05T07:58:21Z</time>
      </trkpt>
      <trkpt lat="42.92786" lon="0.31307">
        <ele>1419</ele>
        <time>2021-08-05T07:58:23Z</time>
      </trkpt>
      <trkpt lat="42.92787" lon="0.31307">
        <ele>1419</ele>
        <time>2021-08-05T07:58:24Z</time>
      </trkpt>
      <trkpt lat="42.92793" lon="0.3131">
        <ele>1419</ele>
        <time>2021-08-05T07:58:28Z</time>
      </trkpt>
      <trkpt lat="42.92794" lon="0.31311">
        <ele>1419</ele>
        <time>2021-08-05T07:58:29Z</time>
      </trkpt>
      <trkpt lat="42.92795" lon="0.31313">
        <ele>1419</ele>
        <time>2021-08-05T07:58:30Z</time>
      </trkpt>
      <trkpt lat="42.92797" lon="0.31314">
        <ele>1419.2</ele>
        <time>2021-08-05T07:58:31Z</time>
      </trkpt>
      <trkpt lat="42.92799" lon="0.31315">
        <ele>1419.2</ele>
        <time>2021-08-05T07:58:32Z</time>
      </trkpt>
      <trkpt lat="42.928" lon="0.31316">
        <ele>1419.2</ele>
        <time>2021-08-05T07:58:33Z</time>
      </trkpt>
      <trkpt lat="42.92802" lon="0.31317">
        <ele>1419</ele>
        <time>2021-08-05T07:58:34Z</time>
      </trkpt>
      <trkpt lat="42.92804" lon="0.31318">
        <ele>1419</ele>
        <time>2021-08-05T07:58:35Z</time>
      </trkpt>
      <trkpt lat="42.92805" lon="0.31319">
        <ele>1419</ele>
        <time>2021-08-05T07:58:36Z</time>
      </trkpt>
      <trkpt lat="42.92813" lon="0.31326">
        <ele>1419.2</ele>
        <time>2021-08-05T07:58:40Z</time>
      </trkpt>
      <trkpt lat="42.92815" lon="0.31328">
        <ele>1419.4</ele>
        <time>2021-08-05T07:58:41Z</time>
      </trkpt>
      <trkpt lat="42.92817" lon="0.3133">
        <ele>1419.4</ele>
        <time>2021-08-05T07:58:42Z</time>
      </trkpt>
      <trkpt lat="42.92824" lon="0.31335">
        <ele>1419.4</ele>
        <time>2021-08-05T07:58:46Z</time>
      </trkpt>
      <trkpt lat="42.92826" lon="0.31337">
        <ele>1419.4</ele>
        <time>2021-08-05T07:58:47Z</time>
      </trkpt>
      <trkpt lat="42.92828" lon="0.3134">
        <ele>1419.6</ele>
        <time>2021-08-05T07:58:48Z</time>
      </trkpt>
      <trkpt lat="42.92829" lon="0.31341">
        <ele>1419.6</ele>
        <time>2021-08-05T07:58:49Z</time>
      </trkpt>
      <trkpt lat="42.9283" lon="0.31343">
        <ele>1419.6</ele>
        <time>2021-08-05T07:58:50Z</time>
      </trkpt>
      <trkpt lat="42.92832" lon="0.31345">
        <ele>1419.6</ele>
        <time>2021-08-05T07:58:51Z</time>
      </trkpt>
      <trkpt lat="42.92834" lon="0.31348">
        <ele>1419.6</ele>
        <time>2021-08-05T07:58:52Z</time>
      </trkpt>
      <trkpt lat="42.92836" lon="0.31349">
        <ele>1419.6</ele>
        <time>2021-08-05T07:58:53Z</time>
      </trkpt>
      <trkpt lat="42.92838" lon="0.3135">
        <ele>1419.6</ele>
        <time>2021-08-05T07:58:54Z</time>
      </trkpt>
      <trkpt lat="42.9284" lon="0.31351">
        <ele>1419.6</ele>
        <time>2021-08-05T07:58:55Z</time>
      </trkpt>
      <trkpt lat="42.92842" lon="0.31353">
        <ele>1419.6</ele>
        <time>2021-08-05T07:58:56Z</time>
      </trkpt>
      <trkpt lat="42.92843" lon="0.31355">
        <ele>1419.6</ele>
        <time>2021-08-05T07:58:57Z</time>
      </trkpt>
      <trkpt lat="42.92845" lon="0.31358">
        <ele>1419.6</ele>
        <time>2021-08-05T07:58:58Z</time>
      </trkpt>
      <trkpt lat="42.92852" lon="0.31364">
        <ele>1419.8</ele>
        <time>2021-08-05T07:59:01Z</time>
      </trkpt>
      <trkpt lat="42.92853" lon="0.31364">
        <ele>1419.8</ele>
        <time>2021-08-05T07:59:02Z</time>
      </trkpt>
      <trkpt lat="42.92856" lon="0.31367">
        <ele>1419.8</ele>
        <time>2021-08-05T07:59:03Z</time>
      </trkpt>
      <trkpt lat="42.92862" lon="0.31373">
        <ele>1420</ele>
        <time>2021-08-05T07:59:06Z</time>
      </trkpt>
      <trkpt lat="42.92864" lon="0.31373">
        <ele>1420</ele>
        <time>2021-08-05T07:59:07Z</time>
      </trkpt>
      <trkpt lat="42.92867" lon="0.31373">
        <ele>1420</ele>
        <time>2021-08-05T07:59:08Z</time>
      </trkpt>
      <trkpt lat="42.92868" lon="0.31373">
        <ele>1420</ele>
        <time>2021-08-05T07:59:09Z</time>
      </trkpt>
      <trkpt lat="42.92872" lon="0.31372">
        <ele>1420</ele>
        <time>2021-08-05T07:59:10Z</time>
      </trkpt>
      <trkpt lat="42.92876" lon="0.31373">
        <ele>1420</ele>
        <time>2021-08-05T07:59:12Z</time>
      </trkpt>
      <trkpt lat="42.92876" lon="0.31372">
        <ele>1420.2</ele>
        <time>2021-08-05T07:59:13Z</time>
      </trkpt>
      <trkpt lat="42.92888" lon="0.31372">
        <ele>1420.6</ele>
        <time>2021-08-05T07:59:20Z</time>
      </trkpt>
      <trkpt lat="42.92893" lon="0.31374">
        <ele>1420.8</ele>
        <time>2021-08-05T07:59:22Z</time>
      </trkpt>
      <trkpt lat="42.92896" lon="0.31374">
        <ele>1420.8</ele>
        <time>2021-08-05T07:59:23Z</time>
      </trkpt>
      <trkpt lat="42.92904" lon="0.31374">
        <ele>1420.8</ele>
        <time>2021-08-05T07:59:26Z</time>
      </trkpt>
      <trkpt lat="42.92906" lon="0.31376">
        <ele>1421</ele>
        <time>2021-08-05T07:59:27Z</time>
      </trkpt>
      <trkpt lat="42.92908" lon="0.31377">
        <ele>1421</ele>
        <time>2021-08-05T07:59:28Z</time>
      </trkpt>
      <trkpt lat="42.92914" lon="0.31377">
        <ele>1421.2</ele>
        <time>2021-08-05T07:59:31Z</time>
      </trkpt>
      <trkpt lat="42.92916" lon="0.31377">
        <ele>1421.2</ele>
        <time>2021-08-05T07:59:32Z</time>
      </trkpt>
      <trkpt lat="42.92919" lon="0.31376">
        <ele>1421.2</ele>
        <time>2021-08-05T07:59:33Z</time>
      </trkpt>
      <trkpt lat="42.92921" lon="0.31376">
        <ele>1421.2</ele>
        <time>2021-08-05T07:59:34Z</time>
      </trkpt>
      <trkpt lat="42.92924" lon="0.31377">
        <ele>1421.2</ele>
        <time>2021-08-05T07:59:35Z</time>
      </trkpt>
      <trkpt lat="42.92926" lon="0.31376">
        <ele>1421</ele>
        <time>2021-08-05T07:59:36Z</time>
      </trkpt>
      <trkpt lat="42.92928" lon="0.31376">
        <ele>1421</ele>
        <time>2021-08-05T07:59:37Z</time>
      </trkpt>
      <trkpt lat="42.92931" lon="0.31376">
        <ele>1421.2</ele>
        <time>2021-08-05T07:59:38Z</time>
      </trkpt>
      <trkpt lat="42.92952" lon="0.31388">
        <ele>1421.2</ele>
        <time>2021-08-05T07:59:45Z</time>
      </trkpt>
      <trkpt lat="42.9297" lon="0.31393">
        <ele>1421</ele>
        <time>2021-08-05T07:59:50Z</time>
      </trkpt>
      <trkpt lat="42.92974" lon="0.31395">
        <ele>1420.6</ele>
        <time>2021-08-05T07:59:51Z</time>
      </trkpt>
      <trkpt lat="42.92985" lon="0.31405">
        <ele>1420</ele>
        <time>2021-08-05T07:59:54Z</time>
      </trkpt>
      <trkpt lat="42.92989" lon="0.3141">
        <ele>1419.8</ele>
        <time>2021-08-05T07:59:55Z</time>
      </trkpt>
      <trkpt lat="42.92992" lon="0.31414">
        <ele>1419.6</ele>
        <time>2021-08-05T07:59:56Z</time>
      </trkpt>
      <trkpt lat="42.93002" lon="0.31425">
        <ele>1419</ele>
        <time>2021-08-05T07:59:59Z</time>
      </trkpt>
      <trkpt lat="42.93006" lon="0.31428">
        <ele>1418.8</ele>
        <time>2021-08-05T08:00:00Z</time>
      </trkpt>
      <trkpt lat="42.93012" lon="0.31431">
        <ele>1418.4</ele>
        <time>2021-08-05T08:00:01Z</time>
      </trkpt>
      <trkpt lat="42.93018" lon="0.31436">
        <ele>1418.4</ele>
        <time>2021-08-05T08:00:02Z</time>
      </trkpt>
      <trkpt lat="42.93036" lon="0.31445">
        <ele>1417.4</ele>
        <time>2021-08-05T08:00:05Z</time>
      </trkpt>
      <trkpt lat="42.9305" lon="0.31457">
        <ele>1416.8</ele>
        <time>2021-08-05T08:00:07Z</time>
      </trkpt>
      <trkpt lat="42.93056" lon="0.31462">
        <ele>1416.2</ele>
        <time>2021-08-05T08:00:08Z</time>
      </trkpt>
      <trkpt lat="42.93062" lon="0.31467">
        <ele>1416</ele>
        <time>2021-08-05T08:00:09Z</time>
      </trkpt>
      <trkpt lat="42.93067" lon="0.3147">
        <ele>1415.8</ele>
        <time>2021-08-05T08:00:10Z</time>
      </trkpt>
      <trkpt lat="42.93073" lon="0.31472">
        <ele>1415.6</ele>
        <time>2021-08-05T08:00:11Z</time>
      </trkpt>
      <trkpt lat="42.93081" lon="0.31472">
        <ele>1415.4</ele>
        <time>2021-08-05T08:00:12Z</time>
      </trkpt>
      <trkpt lat="42.93089" lon="0.31474">
        <ele>1415.2</ele>
        <time>2021-08-05T08:00:13Z</time>
      </trkpt>
      <trkpt lat="42.93094" lon="0.3147">
        <ele>1414.8</ele>
        <time>2021-08-05T08:00:14Z</time>
      </trkpt>
      <trkpt lat="42.93099" lon="0.31466">
        <ele>1414.4</ele>
        <time>2021-08-05T08:00:15Z</time>
      </trkpt>
      <trkpt lat="42.93104" lon="0.3146">
        <ele>1413.8</ele>
        <time>2021-08-05T08:00:16Z</time>
      </trkpt>
      <trkpt lat="42.93108" lon="0.31454">
        <ele>1413.6</ele>
        <time>2021-08-05T08:00:17Z</time>
      </trkpt>
      <trkpt lat="42.93112" lon="0.31447">
        <ele>1413.2</ele>
        <time>2021-08-05T08:00:18Z</time>
      </trkpt>
      <trkpt lat="42.93116" lon="0.31438">
        <ele>1413</ele>
        <time>2021-08-05T08:00:19Z</time>
      </trkpt>
      <trkpt lat="42.93119" lon="0.31429">
        <ele>1412.8</ele>
        <time>2021-08-05T08:00:20Z</time>
      </trkpt>
      <trkpt lat="42.93123" lon="0.31423">
        <ele>1412.8</ele>
        <time>2021-08-05T08:00:21Z</time>
      </trkpt>
      <trkpt lat="42.93126" lon="0.31419">
        <ele>1412.8</ele>
        <time>2021-08-05T08:00:22Z</time>
      </trkpt>
      <trkpt lat="42.93129" lon="0.31415">
        <ele>1412.6</ele>
        <time>2021-08-05T08:00:23Z</time>
      </trkpt>
      <trkpt lat="42.93134" lon="0.31402">
        <ele>1412.4</ele>
        <time>2021-08-05T08:00:25Z</time>
      </trkpt>
      <trkpt lat="42.93136" lon="0.31395">
        <ele>1412.4</ele>
        <time>2021-08-05T08:00:26Z</time>
      </trkpt>
      <trkpt lat="42.93137" lon="0.31387">
        <ele>1412.2</ele>
        <time>2021-08-05T08:00:27Z</time>
      </trkpt>
      <trkpt lat="42.93138" lon="0.31379">
        <ele>1412.2</ele>
        <time>2021-08-05T08:00:28Z</time>
      </trkpt>
      <trkpt lat="42.93141" lon="0.31372">
        <ele>1411.6</ele>
        <time>2021-08-05T08:00:29Z</time>
      </trkpt>
      <trkpt lat="42.93147" lon="0.3136">
        <ele>1410.8</ele>
        <time>2021-08-05T08:00:31Z</time>
      </trkpt>
      <trkpt lat="42.93151" lon="0.31355">
        <ele>1410.6</ele>
        <time>2021-08-05T08:00:32Z</time>
      </trkpt>
      <trkpt lat="42.93156" lon="0.3135">
        <ele>1410</ele>
        <time>2021-08-05T08:00:33Z</time>
      </trkpt>
      <trkpt lat="42.93168" lon="0.31341">
        <ele>1409.2</ele>
        <time>2021-08-05T08:00:35Z</time>
      </trkpt>
      <trkpt lat="42.93175" lon="0.31336">
        <ele>1408.6</ele>
        <time>2021-08-05T08:00:36Z</time>
      </trkpt>
      <trkpt lat="42.93192" lon="0.31321">
        <ele>1407.4</ele>
        <time>2021-08-05T08:00:38Z</time>
      </trkpt>
      <trkpt lat="42.93208" lon="0.31306">
        <ele>1406</ele>
        <time>2021-08-05T08:00:40Z</time>
      </trkpt>
      <trkpt lat="42.93228" lon="0.3129">
        <ele>1404.2</ele>
        <time>2021-08-05T08:00:42Z</time>
      </trkpt>
      <trkpt lat="42.93238" lon="0.31282">
        <ele>1403.8</ele>
        <time>2021-08-05T08:00:43Z</time>
      </trkpt>
      <trkpt lat="42.93247" lon="0.31274">
        <ele>1403.2</ele>
        <time>2021-08-05T08:00:44Z</time>
      </trkpt>
      <trkpt lat="42.93256" lon="0.31265">
        <ele>1402.6</ele>
        <time>2021-08-05T08:00:45Z</time>
      </trkpt>
      <trkpt lat="42.93265" lon="0.31256">
        <ele>1401</ele>
        <time>2021-08-05T08:00:46Z</time>
      </trkpt>
      <trkpt lat="42.93285" lon="0.31236">
        <ele>1399</ele>
        <time>2021-08-05T08:00:48Z</time>
      </trkpt>
      <trkpt lat="42.93295" lon="0.31226">
        <ele>1398.6</ele>
        <time>2021-08-05T08:00:49Z</time>
      </trkpt>
      <trkpt lat="42.93304" lon="0.31216">
        <ele>1397.6</ele>
        <time>2021-08-05T08:00:50Z</time>
      </trkpt>
      <trkpt lat="42.9332" lon="0.31195">
        <ele>1396</ele>
        <time>2021-08-05T08:00:52Z</time>
      </trkpt>
      <trkpt lat="42.93325" lon="0.31188">
        <ele>1395.8</ele>
        <time>2021-08-05T08:00:53Z</time>
      </trkpt>
      <trkpt lat="42.9333" lon="0.31179">
        <ele>1394.2</ele>
        <time>2021-08-05T08:00:54Z</time>
      </trkpt>
      <trkpt lat="42.93332" lon="0.3117">
        <ele>1393.6</ele>
        <time>2021-08-05T08:00:55Z</time>
      </trkpt>
      <trkpt lat="42.93333" lon="0.31162">
        <ele>1393</ele>
        <time>2021-08-05T08:00:56Z</time>
      </trkpt>
      <trkpt lat="42.93333" lon="0.31155">
        <ele>1392.8</ele>
        <time>2021-08-05T08:00:57Z</time>
      </trkpt>
      <trkpt lat="42.93334" lon="0.31147">
        <ele>1392.6</ele>
        <time>2021-08-05T08:00:58Z</time>
      </trkpt>
      <trkpt lat="42.93335" lon="0.31141">
        <ele>1392.6</ele>
        <time>2021-08-05T08:00:59Z</time>
      </trkpt>
      <trkpt lat="42.93337" lon="0.31136">
        <ele>1392.6</ele>
        <time>2021-08-05T08:01:00Z</time>
      </trkpt>
      <trkpt lat="42.93339" lon="0.31132">
        <ele>1392.6</ele>
        <time>2021-08-05T08:01:01Z</time>
      </trkpt>
      <trkpt lat="42.93339" lon="0.31128">
        <ele>1392.6</ele>
        <time>2021-08-05T08:01:02Z</time>
      </trkpt>
      <trkpt lat="42.93338" lon="0.31123">
        <ele>1392.8</ele>
        <time>2021-08-05T08:01:03Z</time>
      </trkpt>
      <trkpt lat="42.93338" lon="0.31119">
        <ele>1393</ele>
        <time>2021-08-05T08:01:04Z</time>
      </trkpt>
      <trkpt lat="42.93337" lon="0.31115">
        <ele>1392.8</ele>
        <time>2021-08-05T08:01:05Z</time>
      </trkpt>
      <trkpt lat="42.93337" lon="0.31111">
        <ele>1393</ele>
        <time>2021-08-05T08:01:06Z</time>
      </trkpt>
      <trkpt lat="42.93337" lon="0.31107">
        <ele>1393.2</ele>
        <time>2021-08-05T08:01:07Z</time>
      </trkpt>
      <trkpt lat="42.93336" lon="0.31105">
        <ele>1393.2</ele>
        <time>2021-08-05T08:01:08Z</time>
      </trkpt>
      <trkpt lat="42.93337" lon="0.31102">
        <ele>1393.4</ele>
        <time>2021-08-05T08:01:09Z</time>
      </trkpt>
      <trkpt lat="42.93338" lon="0.31094">
        <ele>1393.8</ele>
        <time>2021-08-05T08:01:11Z</time>
      </trkpt>
      <trkpt lat="42.93339" lon="0.31091">
        <ele>1393.8</ele>
        <time>2021-08-05T08:01:12Z</time>
      </trkpt>
      <trkpt lat="42.9334" lon="0.31088">
        <ele>1394</ele>
        <time>2021-08-05T08:01:13Z</time>
      </trkpt>
      <trkpt lat="42.93339" lon="0.31086">
        <ele>1394.2</ele>
        <time>2021-08-05T08:01:14Z</time>
      </trkpt>
      <trkpt lat="42.9334" lon="0.31084">
        <ele>1394.4</ele>
        <time>2021-08-05T08:01:15Z</time>
      </trkpt>
      <trkpt lat="42.93341" lon="0.31083">
        <ele>1394.4</ele>
        <time>2021-08-05T08:01:16Z</time>
      </trkpt>
      <trkpt lat="42.93343" lon="0.31081">
        <ele>1395</ele>
        <time>2021-08-05T08:01:17Z</time>
      </trkpt>
      <trkpt lat="42.93344" lon="0.3108">
        <ele>1395.2</ele>
        <time>2021-08-05T08:01:18Z</time>
      </trkpt>
      <trkpt lat="42.93345" lon="0.31079">
        <ele>1395.4</ele>
        <time>2021-08-05T08:01:19Z</time>
      </trkpt>
      <trkpt lat="42.93346" lon="0.31078">
        <ele>1395.6</ele>
        <time>2021-08-05T08:01:20Z</time>
      </trkpt>
      <trkpt lat="42.93347" lon="0.31077">
        <ele>1396</ele>
        <time>2021-08-05T08:01:21Z</time>
      </trkpt>
      <trkpt lat="42.93347" lon="0.31077">
        <ele>1396.2</ele>
        <time>2021-08-05T08:01:23Z</time>
      </trkpt>
      <trkpt lat="42.93347" lon="0.31077">
        <ele>1396.4</ele>
        <time>2021-08-05T08:01:25Z</time>
      </trkpt>
      <trkpt lat="42.93347" lon="0.31077">
        <ele>1396.8</ele>
        <time>2021-08-05T08:01:37Z</time>
      </trkpt>
      <trkpt lat="42.93349" lon="0.31077">
        <ele>1396.6</ele>
        <time>2021-08-05T08:01:56Z</time>
      </trkpt>
      <trkpt lat="42.93353" lon="0.31078">
        <ele>1396.8</ele>
        <time>2021-08-05T08:01:58Z</time>
      </trkpt>
      <trkpt lat="42.93357" lon="0.31078">
        <ele>1397</ele>
        <time>2021-08-05T08:02:00Z</time>
      </trkpt>
      <trkpt lat="42.93358" lon="0.31077">
        <ele>1397</ele>
        <time>2021-08-05T08:02:01Z</time>
      </trkpt>
      <trkpt lat="42.93364" lon="0.31077">
        <ele>1397.4</ele>
        <time>2021-08-05T08:02:04Z</time>
      </trkpt>
      <trkpt lat="42.93366" lon="0.31078">
        <ele>1397.4</ele>
        <time>2021-08-05T08:02:05Z</time>
      </trkpt>
      <trkpt lat="42.93367" lon="0.31078">
        <ele>1397.6</ele>
        <time>2021-08-05T08:02:06Z</time>
      </trkpt>
      <trkpt lat="42.93368" lon="0.3108">
        <ele>1397.6</ele>
        <time>2021-08-05T08:02:07Z</time>
      </trkpt>
      <trkpt lat="42.9337" lon="0.3108">
        <ele>1397.8</ele>
        <time>2021-08-05T08:02:08Z</time>
      </trkpt>
      <trkpt lat="42.93378" lon="0.31087">
        <ele>1398.2</ele>
        <time>2021-08-05T08:02:13Z</time>
      </trkpt>
      <trkpt lat="42.93382" lon="0.31092">
        <ele>1398.4</ele>
        <time>2021-08-05T08:02:16Z</time>
      </trkpt>
      <trkpt lat="42.93386" lon="0.31099">
        <ele>1399</ele>
        <time>2021-08-05T08:02:20Z</time>
      </trkpt>
      <trkpt lat="42.93388" lon="0.31102">
        <ele>1399.6</ele>
        <time>2021-08-05T08:02:22Z</time>
      </trkpt>
      <trkpt lat="42.93389" lon="0.31105">
        <ele>1399.8</ele>
        <time>2021-08-05T08:02:24Z</time>
      </trkpt>
      <trkpt lat="42.93389" lon="0.31106">
        <ele>1400</ele>
        <time>2021-08-05T08:02:25Z</time>
      </trkpt>
      <trkpt lat="42.93389" lon="0.31107">
        <ele>1400.2</ele>
        <time>2021-08-05T08:02:26Z</time>
      </trkpt>
      <trkpt lat="42.9339" lon="0.31109">
        <ele>1400.6</ele>
        <time>2021-08-05T08:02:27Z</time>
      </trkpt>
      <trkpt lat="42.93391" lon="0.31112">
        <ele>1400.6</ele>
        <time>2021-08-05T08:02:28Z</time>
      </trkpt>
      <trkpt lat="42.93393" lon="0.31114">
        <ele>1400.8</ele>
        <time>2021-08-05T08:02:29Z</time>
      </trkpt>
      <trkpt lat="42.93394" lon="0.31117">
        <ele>1400.8</ele>
        <time>2021-08-05T08:02:30Z</time>
      </trkpt>
      <trkpt lat="42.93395" lon="0.3112">
        <ele>1401</ele>
        <time>2021-08-05T08:02:31Z</time>
      </trkpt>
      <trkpt lat="42.93396" lon="0.31123">
        <ele>1401</ele>
        <time>2021-08-05T08:02:32Z</time>
      </trkpt>
      <trkpt lat="42.93397" lon="0.31126">
        <ele>1401.2</ele>
        <time>2021-08-05T08:02:33Z</time>
      </trkpt>
      <trkpt lat="42.93398" lon="0.31128">
        <ele>1401.4</ele>
        <time>2021-08-05T08:02:34Z</time>
      </trkpt>
      <trkpt lat="42.93399" lon="0.3113">
        <ele>1401.4</ele>
        <time>2021-08-05T08:02:35Z</time>
      </trkpt>
      <trkpt lat="42.93399" lon="0.31132">
        <ele>1401.6</ele>
        <time>2021-08-05T08:02:36Z</time>
      </trkpt>
      <trkpt lat="42.93399" lon="0.31134">
        <ele>1402</ele>
        <time>2021-08-05T08:02:37Z</time>
      </trkpt>
      <trkpt lat="42.934" lon="0.31136">
        <ele>1402.2</ele>
        <time>2021-08-05T08:02:38Z</time>
      </trkpt>
      <trkpt lat="42.934" lon="0.31138">
        <ele>1402.6</ele>
        <time>2021-08-05T08:02:39Z</time>
      </trkpt>
      <trkpt lat="42.93401" lon="0.3114">
        <ele>1402.8</ele>
        <time>2021-08-05T08:02:40Z</time>
      </trkpt>
      <trkpt lat="42.93401" lon="0.31142">
        <ele>1402.8</ele>
        <time>2021-08-05T08:02:41Z</time>
      </trkpt>
      <trkpt lat="42.93401" lon="0.31144">
        <ele>1403</ele>
        <time>2021-08-05T08:02:42Z</time>
      </trkpt>
      <trkpt lat="42.93402" lon="0.31146">
        <ele>1403</ele>
        <time>2021-08-05T08:02:43Z</time>
      </trkpt>
      <trkpt lat="42.93402" lon="0.31148">
        <ele>1403.2</ele>
        <time>2021-08-05T08:02:44Z</time>
      </trkpt>
      <trkpt lat="42.93404" lon="0.31151">
        <ele>1403.2</ele>
        <time>2021-08-05T08:02:45Z</time>
      </trkpt>
      <trkpt lat="42.93405" lon="0.31154">
        <ele>1403.4</ele>
        <time>2021-08-05T08:02:46Z</time>
      </trkpt>
      <trkpt lat="42.93406" lon="0.31156">
        <ele>1403.4</ele>
        <time>2021-08-05T08:02:47Z</time>
      </trkpt>
      <trkpt lat="42.93406" lon="0.31158">
        <ele>1403.8</ele>
        <time>2021-08-05T08:02:48Z</time>
      </trkpt>
      <trkpt lat="42.93407" lon="0.3116">
        <ele>1403.8</ele>
        <time>2021-08-05T08:02:49Z</time>
      </trkpt>
      <trkpt lat="42.93407" lon="0.31162">
        <ele>1403.8</ele>
        <time>2021-08-05T08:02:50Z</time>
      </trkpt>
      <trkpt lat="42.93407" lon="0.31164">
        <ele>1404</ele>
        <time>2021-08-05T08:02:51Z</time>
      </trkpt>
      <trkpt lat="42.93408" lon="0.31165">
        <ele>1404.2</ele>
        <time>2021-08-05T08:02:52Z</time>
      </trkpt>
      <trkpt lat="42.93408" lon="0.31166">
        <ele>1404.2</ele>
        <time>2021-08-05T08:02:53Z</time>
      </trkpt>
      <trkpt lat="42.93408" lon="0.31167">
        <ele>1404.6</ele>
        <time>2021-08-05T08:02:54Z</time>
      </trkpt>
      <trkpt lat="42.93409" lon="0.3117">
        <ele>1404.6</ele>
        <time>2021-08-05T08:02:55Z</time>
      </trkpt>
      <trkpt lat="42.9341" lon="0.31172">
        <ele>1405</ele>
        <time>2021-08-05T08:02:56Z</time>
      </trkpt>
      <trkpt lat="42.93411" lon="0.31175">
        <ele>1405.2</ele>
        <time>2021-08-05T08:02:57Z</time>
      </trkpt>
      <trkpt lat="42.93411" lon="0.31178">
        <ele>1405.4</ele>
        <time>2021-08-05T08:02:58Z</time>
      </trkpt>
      <trkpt lat="42.93412" lon="0.3118">
        <ele>1405.6</ele>
        <time>2021-08-05T08:02:59Z</time>
      </trkpt>
      <trkpt lat="42.93412" lon="0.31182">
        <ele>1405.8</ele>
        <time>2021-08-05T08:03:00Z</time>
      </trkpt>
      <trkpt lat="42.93413" lon="0.31184">
        <ele>1406</ele>
        <time>2021-08-05T08:03:01Z</time>
      </trkpt>
      <trkpt lat="42.93414" lon="0.31186">
        <ele>1406</ele>
        <time>2021-08-05T08:03:02Z</time>
      </trkpt>
      <trkpt lat="42.93414" lon="0.31189">
        <ele>1406.2</ele>
        <time>2021-08-05T08:03:03Z</time>
      </trkpt>
      <trkpt lat="42.93415" lon="0.31192">
        <ele>1406.4</ele>
        <time>2021-08-05T08:03:04Z</time>
      </trkpt>
      <trkpt lat="42.93416" lon="0.31195">
        <ele>1406.4</ele>
        <time>2021-08-05T08:03:05Z</time>
      </trkpt>
      <trkpt lat="42.93418" lon="0.31199">
        <ele>1406.6</ele>
        <time>2021-08-05T08:03:06Z</time>
      </trkpt>
      <trkpt lat="42.93419" lon="0.31202">
        <ele>1406.8</ele>
        <time>2021-08-05T08:03:07Z</time>
      </trkpt>
      <trkpt lat="42.9342" lon="0.31205">
        <ele>1407</ele>
        <time>2021-08-05T08:03:08Z</time>
      </trkpt>
      <trkpt lat="42.93422" lon="0.31209">
        <ele>1407.2</ele>
        <time>2021-08-05T08:03:09Z</time>
      </trkpt>
      <trkpt lat="42.93423" lon="0.31212">
        <ele>1407.4</ele>
        <time>2021-08-05T08:03:10Z</time>
      </trkpt>
      <trkpt lat="42.93425" lon="0.31214">
        <ele>1407.4</ele>
        <time>2021-08-05T08:03:11Z</time>
      </trkpt>
      <trkpt lat="42.93427" lon="0.31217">
        <ele>1407.4</ele>
        <time>2021-08-05T08:03:12Z</time>
      </trkpt>
      <trkpt lat="42.93428" lon="0.31219">
        <ele>1407.8</ele>
        <time>2021-08-05T08:03:13Z</time>
      </trkpt>
      <trkpt lat="42.93429" lon="0.31222">
        <ele>1408</ele>
        <time>2021-08-05T08:03:14Z</time>
      </trkpt>
      <trkpt lat="42.9343" lon="0.31225">
        <ele>1408.2</ele>
        <time>2021-08-05T08:03:15Z</time>
      </trkpt>
      <trkpt lat="42.93431" lon="0.31228">
        <ele>1408.2</ele>
        <time>2021-08-05T08:03:16Z</time>
      </trkpt>
      <trkpt lat="42.93432" lon="0.3123">
        <ele>1408.4</ele>
        <time>2021-08-05T08:03:17Z</time>
      </trkpt>
      <trkpt lat="42.93434" lon="0.31233">
        <ele>1408.6</ele>
        <time>2021-08-05T08:03:18Z</time>
      </trkpt>
      <trkpt lat="42.93436" lon="0.31234">
        <ele>1408.8</ele>
        <time>2021-08-05T08:03:19Z</time>
      </trkpt>
      <trkpt lat="42.93436" lon="0.31237">
        <ele>1409.2</ele>
        <time>2021-08-05T08:03:20Z</time>
      </trkpt>
      <trkpt lat="42.93437" lon="0.3124">
        <ele>1409.2</ele>
        <time>2021-08-05T08:03:21Z</time>
      </trkpt>
      <trkpt lat="42.93438" lon="0.31242">
        <ele>1409.6</ele>
        <time>2021-08-05T08:03:22Z</time>
      </trkpt>
      <trkpt lat="42.93438" lon="0.31245">
        <ele>1409.6</ele>
        <time>2021-08-05T08:03:23Z</time>
      </trkpt>
      <trkpt lat="42.93438" lon="0.31247">
        <ele>1409.8</ele>
        <time>2021-08-05T08:03:24Z</time>
      </trkpt>
      <trkpt lat="42.93439" lon="0.31249">
        <ele>1409.8</ele>
        <time>2021-08-05T08:03:25Z</time>
      </trkpt>
      <trkpt lat="42.9344" lon="0.31251">
        <ele>1410</ele>
        <time>2021-08-05T08:03:26Z</time>
      </trkpt>
      <trkpt lat="42.93441" lon="0.31254">
        <ele>1410</ele>
        <time>2021-08-05T08:03:27Z</time>
      </trkpt>
      <trkpt lat="42.93443" lon="0.31255">
        <ele>1410.6</ele>
        <time>2021-08-05T08:03:28Z</time>
      </trkpt>
      <trkpt lat="42.93443" lon="0.31257">
        <ele>1410.6</ele>
        <time>2021-08-05T08:03:29Z</time>
      </trkpt>
      <trkpt lat="42.93443" lon="0.3126">
        <ele>1410.8</ele>
        <time>2021-08-05T08:03:30Z</time>
      </trkpt>
      <trkpt lat="42.93444" lon="0.31262">
        <ele>1411</ele>
        <time>2021-08-05T08:03:31Z</time>
      </trkpt>
      <trkpt lat="42.93445" lon="0.31263">
        <ele>1411.2</ele>
        <time>2021-08-05T08:03:32Z</time>
      </trkpt>
      <trkpt lat="42.93446" lon="0.31265">
        <ele>1411.4</ele>
        <time>2021-08-05T08:03:33Z</time>
      </trkpt>
      <trkpt lat="42.93447" lon="0.31267">
        <ele>1411.8</ele>
        <time>2021-08-05T08:03:34Z</time>
      </trkpt>
      <trkpt lat="42.93448" lon="0.31268">
        <ele>1411.8</ele>
        <time>2021-08-05T08:03:35Z</time>
      </trkpt>
      <trkpt lat="42.93449" lon="0.31269">
        <ele>1412.2</ele>
        <time>2021-08-05T08:03:36Z</time>
      </trkpt>
      <trkpt lat="42.9345" lon="0.3127">
        <ele>1412.4</ele>
        <time>2021-08-05T08:03:37Z</time>
      </trkpt>
      <trkpt lat="42.93452" lon="0.31272">
        <ele>1412.6</ele>
        <time>2021-08-05T08:03:38Z</time>
      </trkpt>
      <trkpt lat="42.93453" lon="0.31273">
        <ele>1412.8</ele>
        <time>2021-08-05T08:03:39Z</time>
      </trkpt>
      <trkpt lat="42.93453" lon="0.31273">
        <ele>1412.8</ele>
        <time>2021-08-05T08:03:40Z</time>
      </trkpt>
      <trkpt lat="42.93454" lon="0.31274">
        <ele>1413</ele>
        <time>2021-08-05T08:03:41Z</time>
      </trkpt>
      <trkpt lat="42.93454" lon="0.31276">
        <ele>1413.2</ele>
        <time>2021-08-05T08:03:42Z</time>
      </trkpt>
      <trkpt lat="42.93456" lon="0.31277">
        <ele>1413.2</ele>
        <time>2021-08-05T08:03:43Z</time>
      </trkpt>
      <trkpt lat="42.93457" lon="0.31279">
        <ele>1413.4</ele>
        <time>2021-08-05T08:03:44Z</time>
      </trkpt>
      <trkpt lat="42.93459" lon="0.31281">
        <ele>1413.6</ele>
        <time>2021-08-05T08:03:45Z</time>
      </trkpt>
      <trkpt lat="42.9346" lon="0.31283">
        <ele>1413.6</ele>
        <time>2021-08-05T08:03:46Z</time>
      </trkpt>
      <trkpt lat="42.93461" lon="0.31284">
        <ele>1414</ele>
        <time>2021-08-05T08:03:47Z</time>
      </trkpt>
      <trkpt lat="42.93462" lon="0.31286">
        <ele>1414</ele>
        <time>2021-08-05T08:03:48Z</time>
      </trkpt>
      <trkpt lat="42.93463" lon="0.31288">
        <ele>1414.2</ele>
        <time>2021-08-05T08:03:49Z</time>
      </trkpt>
      <trkpt lat="42.93464" lon="0.3129">
        <ele>1414.2</ele>
        <time>2021-08-05T08:03:50Z</time>
      </trkpt>
      <trkpt lat="42.93465" lon="0.31292">
        <ele>1414.4</ele>
        <time>2021-08-05T08:03:51Z</time>
      </trkpt>
      <trkpt lat="42.93466" lon="0.31293">
        <ele>1414.4</ele>
        <time>2021-08-05T08:03:52Z</time>
      </trkpt>
      <trkpt lat="42.93467" lon="0.31295">
        <ele>1414.6</ele>
        <time>2021-08-05T08:03:53Z</time>
      </trkpt>
      <trkpt lat="42.93468" lon="0.31298">
        <ele>1414.6</ele>
        <time>2021-08-05T08:03:54Z</time>
      </trkpt>
      <trkpt lat="42.9347" lon="0.31301">
        <ele>1414.8</ele>
        <time>2021-08-05T08:03:55Z</time>
      </trkpt>
      <trkpt lat="42.93471" lon="0.31304">
        <ele>1415</ele>
        <time>2021-08-05T08:03:56Z</time>
      </trkpt>
      <trkpt lat="42.93472" lon="0.31307">
        <ele>1415.2</ele>
        <time>2021-08-05T08:03:57Z</time>
      </trkpt>
      <trkpt lat="42.93473" lon="0.31309">
        <ele>1415.2</ele>
        <time>2021-08-05T08:03:58Z</time>
      </trkpt>
      <trkpt lat="42.93473" lon="0.31312">
        <ele>1415.2</ele>
        <time>2021-08-05T08:03:59Z</time>
      </trkpt>
      <trkpt lat="42.93474" lon="0.31313">
        <ele>1415.6</ele>
        <time>2021-08-05T08:04:00Z</time>
      </trkpt>
      <trkpt lat="42.93474" lon="0.31315">
        <ele>1415.8</ele>
        <time>2021-08-05T08:04:01Z</time>
      </trkpt>
      <trkpt lat="42.93475" lon="0.31317">
        <ele>1416</ele>
        <time>2021-08-05T08:04:02Z</time>
      </trkpt>
      <trkpt lat="42.93477" lon="0.31319">
        <ele>1416</ele>
        <time>2021-08-05T08:04:03Z</time>
      </trkpt>
      <trkpt lat="42.93477" lon="0.31322">
        <ele>1416.2</ele>
        <time>2021-08-05T08:04:04Z</time>
      </trkpt>
      <trkpt lat="42.93478" lon="0.31324">
        <ele>1416.4</ele>
        <time>2021-08-05T08:04:05Z</time>
      </trkpt>
      <trkpt lat="42.93479" lon="0.31327">
        <ele>1416.6</ele>
        <time>2021-08-05T08:04:06Z</time>
      </trkpt>
      <trkpt lat="42.9348" lon="0.3133">
        <ele>1416.6</ele>
        <time>2021-08-05T08:04:07Z</time>
      </trkpt>
      <trkpt lat="42.93479" lon="0.31333">
        <ele>1416.8</ele>
        <time>2021-08-05T08:04:08Z</time>
      </trkpt>
      <trkpt lat="42.9348" lon="0.31336">
        <ele>1417</ele>
        <time>2021-08-05T08:04:09Z</time>
      </trkpt>
      <trkpt lat="42.9348" lon="0.31339">
        <ele>1417</ele>
        <time>2021-08-05T08:04:10Z</time>
      </trkpt>
      <trkpt lat="42.9348" lon="0.31341">
        <ele>1417.2</ele>
        <time>2021-08-05T08:04:11Z</time>
      </trkpt>
      <trkpt lat="42.9348" lon="0.31344">
        <ele>1417.4</ele>
        <time>2021-08-05T08:04:12Z</time>
      </trkpt>
      <trkpt lat="42.93481" lon="0.31346">
        <ele>1417.4</ele>
        <time>2021-08-05T08:04:13Z</time>
      </trkpt>
      <trkpt lat="42.93481" lon="0.31349">
        <ele>1417.8</ele>
        <time>2021-08-05T08:04:14Z</time>
      </trkpt>
      <trkpt lat="42.93481" lon="0.31351">
        <ele>1418</ele>
        <time>2021-08-05T08:04:15Z</time>
      </trkpt>
      <trkpt lat="42.93481" lon="0.31354">
        <ele>1418</ele>
        <time>2021-08-05T08:04:16Z</time>
      </trkpt>
      <trkpt lat="42.93481" lon="0.31357">
        <ele>1418.2</ele>
        <time>2021-08-05T08:04:17Z</time>
      </trkpt>
      <trkpt lat="42.93481" lon="0.3136">
        <ele>1418.2</ele>
        <time>2021-08-05T08:04:18Z</time>
      </trkpt>
      <trkpt lat="42.93482" lon="0.31362">
        <ele>1418.6</ele>
        <time>2021-08-05T08:04:19Z</time>
      </trkpt>
      <trkpt lat="42.93482" lon="0.31364">
        <ele>1418.8</ele>
        <time>2021-08-05T08:04:20Z</time>
      </trkpt>
      <trkpt lat="42.93481" lon="0.31367">
        <ele>1419</ele>
        <time>2021-08-05T08:04:21Z</time>
      </trkpt>
      <trkpt lat="42.93481" lon="0.31369">
        <ele>1419.2</ele>
        <time>2021-08-05T08:04:22Z</time>
      </trkpt>
      <trkpt lat="42.93481" lon="0.31371">
        <ele>1419.4</ele>
        <time>2021-08-05T08:04:23Z</time>
      </trkpt>
      <trkpt lat="42.93481" lon="0.31374">
        <ele>1419.4</ele>
        <time>2021-08-05T08:04:24Z</time>
      </trkpt>
      <trkpt lat="42.93481" lon="0.31376">
        <ele>1419.4</ele>
        <time>2021-08-05T08:04:25Z</time>
      </trkpt>
      <trkpt lat="42.93481" lon="0.31379">
        <ele>1419.4</ele>
        <time>2021-08-05T08:04:26Z</time>
      </trkpt>
      <trkpt lat="42.93481" lon="0.31381">
        <ele>1419.6</ele>
        <time>2021-08-05T08:04:27Z</time>
      </trkpt>
      <trkpt lat="42.9348" lon="0.31384">
        <ele>1419.6</ele>
        <time>2021-08-05T08:04:28Z</time>
      </trkpt>
      <trkpt lat="42.9348" lon="0.31386">
        <ele>1420</ele>
        <time>2021-08-05T08:04:29Z</time>
      </trkpt>
      <trkpt lat="42.9348" lon="0.31389">
        <ele>1420</ele>
        <time>2021-08-05T08:04:30Z</time>
      </trkpt>
      <trkpt lat="42.9348" lon="0.31391">
        <ele>1420.4</ele>
        <time>2021-08-05T08:04:31Z</time>
      </trkpt>
      <trkpt lat="42.9348" lon="0.31395">
        <ele>1420.4</ele>
        <time>2021-08-05T08:04:32Z</time>
      </trkpt>
      <trkpt lat="42.9348" lon="0.31397">
        <ele>1420.4</ele>
        <time>2021-08-05T08:04:33Z</time>
      </trkpt>
      <trkpt lat="42.9348" lon="0.314">
        <ele>1420.8</ele>
        <time>2021-08-05T08:04:34Z</time>
      </trkpt>
      <trkpt lat="42.9348" lon="0.31403">
        <ele>1420.8</ele>
        <time>2021-08-05T08:04:35Z</time>
      </trkpt>
      <trkpt lat="42.93481" lon="0.31406">
        <ele>1421.2</ele>
        <time>2021-08-05T08:04:36Z</time>
      </trkpt>
      <trkpt lat="42.9348" lon="0.31408">
        <ele>1421.4</ele>
        <time>2021-08-05T08:04:37Z</time>
      </trkpt>
      <trkpt lat="42.9348" lon="0.3141">
        <ele>1421.6</ele>
        <time>2021-08-05T08:04:38Z</time>
      </trkpt>
      <trkpt lat="42.9348" lon="0.31413">
        <ele>1421.8</ele>
        <time>2021-08-05T08:04:39Z</time>
      </trkpt>
      <trkpt lat="42.9348" lon="0.31416">
        <ele>1422</ele>
        <time>2021-08-05T08:04:40Z</time>
      </trkpt>
      <trkpt lat="42.93479" lon="0.31418">
        <ele>1422.2</ele>
        <time>2021-08-05T08:04:41Z</time>
      </trkpt>
      <trkpt lat="42.93478" lon="0.3142">
        <ele>1422.4</ele>
        <time>2021-08-05T08:04:42Z</time>
      </trkpt>
      <trkpt lat="42.93478" lon="0.31422">
        <ele>1422.6</ele>
        <time>2021-08-05T08:04:43Z</time>
      </trkpt>
      <trkpt lat="42.93478" lon="0.31424">
        <ele>1422.8</ele>
        <time>2021-08-05T08:04:44Z</time>
      </trkpt>
      <trkpt lat="42.93478" lon="0.31427">
        <ele>1423</ele>
        <time>2021-08-05T08:04:45Z</time>
      </trkpt>
      <trkpt lat="42.93477" lon="0.31429">
        <ele>1423.2</ele>
        <time>2021-08-05T08:04:46Z</time>
      </trkpt>
      <trkpt lat="42.93477" lon="0.31432">
        <ele>1423.2</ele>
        <time>2021-08-05T08:04:47Z</time>
      </trkpt>
      <trkpt lat="42.93477" lon="0.31434">
        <ele>1423.6</ele>
        <time>2021-08-05T08:04:48Z</time>
      </trkpt>
      <trkpt lat="42.93477" lon="0.31436">
        <ele>1423.6</ele>
        <time>2021-08-05T08:04:49Z</time>
      </trkpt>
      <trkpt lat="42.93477" lon="0.31438">
        <ele>1423.8</ele>
        <time>2021-08-05T08:04:50Z</time>
      </trkpt>
      <trkpt lat="42.93477" lon="0.31441">
        <ele>1423.8</ele>
        <time>2021-08-05T08:04:51Z</time>
      </trkpt>
      <trkpt lat="42.93477" lon="0.31443">
        <ele>1424</ele>
        <time>2021-08-05T08:04:52Z</time>
      </trkpt>
      <trkpt lat="42.93477" lon="0.31446">
        <ele>1424</ele>
        <time>2021-08-05T08:04:53Z</time>
      </trkpt>
      <trkpt lat="42.93477" lon="0.31448">
        <ele>1424.4</ele>
        <time>2021-08-05T08:04:54Z</time>
      </trkpt>
      <trkpt lat="42.93477" lon="0.31451">
        <ele>1424.6</ele>
        <time>2021-08-05T08:04:55Z</time>
      </trkpt>
      <trkpt lat="42.93476" lon="0.31453">
        <ele>1424.6</ele>
        <time>2021-08-05T08:04:56Z</time>
      </trkpt>
      <trkpt lat="42.93476" lon="0.31456">
        <ele>1425</ele>
        <time>2021-08-05T08:04:57Z</time>
      </trkpt>
      <trkpt lat="42.93475" lon="0.31458">
        <ele>1425.2</ele>
        <time>2021-08-05T08:04:58Z</time>
      </trkpt>
      <trkpt lat="42.93475" lon="0.3146">
        <ele>1425.4</ele>
        <time>2021-08-05T08:04:59Z</time>
      </trkpt>
      <trkpt lat="42.93474" lon="0.31463">
        <ele>1425.4</ele>
        <time>2021-08-05T08:05:00Z</time>
      </trkpt>
      <trkpt lat="42.93473" lon="0.31465">
        <ele>1425.8</ele>
        <time>2021-08-05T08:05:01Z</time>
      </trkpt>
      <trkpt lat="42.93472" lon="0.31467">
        <ele>1425.8</ele>
        <time>2021-08-05T08:05:02Z</time>
      </trkpt>
      <trkpt lat="42.93471" lon="0.31469">
        <ele>1426</ele>
        <time>2021-08-05T08:05:03Z</time>
      </trkpt>
      <trkpt lat="42.93471" lon="0.31471">
        <ele>1426.2</ele>
        <time>2021-08-05T08:05:04Z</time>
      </trkpt>
      <trkpt lat="42.9347" lon="0.31473">
        <ele>1426.4</ele>
        <time>2021-08-05T08:05:05Z</time>
      </trkpt>
      <trkpt lat="42.9347" lon="0.31476">
        <ele>1426.6</ele>
        <time>2021-08-05T08:05:06Z</time>
      </trkpt>
      <trkpt lat="42.93469" lon="0.31478">
        <ele>1426.8</ele>
        <time>2021-08-05T08:05:07Z</time>
      </trkpt>
      <trkpt lat="42.93468" lon="0.3148">
        <ele>1427</ele>
        <time>2021-08-05T08:05:08Z</time>
      </trkpt>
      <trkpt lat="42.93469" lon="0.31483">
        <ele>1427.2</ele>
        <time>2021-08-05T08:05:09Z</time>
      </trkpt>
      <trkpt lat="42.9347" lon="0.31486">
        <ele>1427.2</ele>
        <time>2021-08-05T08:05:10Z</time>
      </trkpt>
      <trkpt lat="42.9347" lon="0.31488">
        <ele>1427.4</ele>
        <time>2021-08-05T08:05:11Z</time>
      </trkpt>
      <trkpt lat="42.9347" lon="0.3149">
        <ele>1427.6</ele>
        <time>2021-08-05T08:05:12Z</time>
      </trkpt>
      <trkpt lat="42.93469" lon="0.31492">
        <ele>1427.6</ele>
        <time>2021-08-05T08:05:13Z</time>
      </trkpt>
      <trkpt lat="42.93469" lon="0.31494">
        <ele>1428</ele>
        <time>2021-08-05T08:05:14Z</time>
      </trkpt>
      <trkpt lat="42.9347" lon="0.31497">
        <ele>1428.2</ele>
        <time>2021-08-05T08:05:15Z</time>
      </trkpt>
      <trkpt lat="42.9347" lon="0.31499">
        <ele>1428.6</ele>
        <time>2021-08-05T08:05:16Z</time>
      </trkpt>
      <trkpt lat="42.9347" lon="0.31501">
        <ele>1428.8</ele>
        <time>2021-08-05T08:05:17Z</time>
      </trkpt>
      <trkpt lat="42.9347" lon="0.31504">
        <ele>1429</ele>
        <time>2021-08-05T08:05:18Z</time>
      </trkpt>
      <trkpt lat="42.9347" lon="0.31507">
        <ele>1429</ele>
        <time>2021-08-05T08:05:19Z</time>
      </trkpt>
      <trkpt lat="42.93471" lon="0.3151">
        <ele>1429.2</ele>
        <time>2021-08-05T08:05:20Z</time>
      </trkpt>
      <trkpt lat="42.93471" lon="0.31513">
        <ele>1429.4</ele>
        <time>2021-08-05T08:05:21Z</time>
      </trkpt>
      <trkpt lat="42.9347" lon="0.31515">
        <ele>1429.4</ele>
        <time>2021-08-05T08:05:22Z</time>
      </trkpt>
      <trkpt lat="42.9347" lon="0.31518">
        <ele>1429.6</ele>
        <time>2021-08-05T08:05:23Z</time>
      </trkpt>
      <trkpt lat="42.9347" lon="0.3152">
        <ele>1429.8</ele>
        <time>2021-08-05T08:05:24Z</time>
      </trkpt>
      <trkpt lat="42.93469" lon="0.31522">
        <ele>1429.6</ele>
        <time>2021-08-05T08:05:25Z</time>
      </trkpt>
      <trkpt lat="42.93468" lon="0.31525">
        <ele>1429.6</ele>
        <time>2021-08-05T08:05:26Z</time>
      </trkpt>
      <trkpt lat="42.93468" lon="0.31527">
        <ele>1429.8</ele>
        <time>2021-08-05T08:05:27Z</time>
      </trkpt>
      <trkpt lat="42.93467" lon="0.31529">
        <ele>1429.8</ele>
        <time>2021-08-05T08:05:28Z</time>
      </trkpt>
      <trkpt lat="42.93467" lon="0.31532">
        <ele>1430</ele>
        <time>2021-08-05T08:05:29Z</time>
      </trkpt>
      <trkpt lat="42.93467" lon="0.31534">
        <ele>1430.2</ele>
        <time>2021-08-05T08:05:30Z</time>
      </trkpt>
      <trkpt lat="42.93466" lon="0.31537">
        <ele>1430.6</ele>
        <time>2021-08-05T08:05:31Z</time>
      </trkpt>
      <trkpt lat="42.93466" lon="0.31539">
        <ele>1430.6</ele>
        <time>2021-08-05T08:05:32Z</time>
      </trkpt>
      <trkpt lat="42.93465" lon="0.3154">
        <ele>1430.8</ele>
        <time>2021-08-05T08:05:33Z</time>
      </trkpt>
      <trkpt lat="42.93465" lon="0.31543">
        <ele>1430.8</ele>
        <time>2021-08-05T08:05:34Z</time>
      </trkpt>
      <trkpt lat="42.93466" lon="0.31547">
        <ele>1431</ele>
        <time>2021-08-05T08:05:35Z</time>
      </trkpt>
      <trkpt lat="42.93466" lon="0.3155">
        <ele>1431.2</ele>
        <time>2021-08-05T08:05:36Z</time>
      </trkpt>
      <trkpt lat="42.93466" lon="0.31553">
        <ele>1431.4</ele>
        <time>2021-08-05T08:05:37Z</time>
      </trkpt>
      <trkpt lat="42.93467" lon="0.31556">
        <ele>1431.6</ele>
        <time>2021-08-05T08:05:38Z</time>
      </trkpt>
      <trkpt lat="42.93469" lon="0.31559">
        <ele>1431.8</ele>
        <time>2021-08-05T08:05:39Z</time>
      </trkpt>
      <trkpt lat="42.93471" lon="0.31562">
        <ele>1431.8</ele>
        <time>2021-08-05T08:05:40Z</time>
      </trkpt>
      <trkpt lat="42.93472" lon="0.31566">
        <ele>1432</ele>
        <time>2021-08-05T08:05:41Z</time>
      </trkpt>
      <trkpt lat="42.93471" lon="0.31568">
        <ele>1432.2</ele>
        <time>2021-08-05T08:05:42Z</time>
      </trkpt>
      <trkpt lat="42.93471" lon="0.31571">
        <ele>1432.4</ele>
        <time>2021-08-05T08:05:43Z</time>
      </trkpt>
      <trkpt lat="42.93471" lon="0.31574">
        <ele>1432.4</ele>
        <time>2021-08-05T08:05:44Z</time>
      </trkpt>
      <trkpt lat="42.93472" lon="0.31577">
        <ele>1432.6</ele>
        <time>2021-08-05T08:05:45Z</time>
      </trkpt>
      <trkpt lat="42.93471" lon="0.3158">
        <ele>1432.8</ele>
        <time>2021-08-05T08:05:46Z</time>
      </trkpt>
      <trkpt lat="42.9347" lon="0.31582">
        <ele>1433</ele>
        <time>2021-08-05T08:05:47Z</time>
      </trkpt>
      <trkpt lat="42.9347" lon="0.31584">
        <ele>1433.2</ele>
        <time>2021-08-05T08:05:48Z</time>
      </trkpt>
      <trkpt lat="42.9347" lon="0.31586">
        <ele>1433.2</ele>
        <time>2021-08-05T08:05:49Z</time>
      </trkpt>
      <trkpt lat="42.9347" lon="0.31588">
        <ele>1433.4</ele>
        <time>2021-08-05T08:05:50Z</time>
      </trkpt>
      <trkpt lat="42.9347" lon="0.31591">
        <ele>1433.6</ele>
        <time>2021-08-05T08:05:51Z</time>
      </trkpt>
      <trkpt lat="42.9347" lon="0.31593">
        <ele>1433.6</ele>
        <time>2021-08-05T08:05:52Z</time>
      </trkpt>
      <trkpt lat="42.93469" lon="0.31596">
        <ele>1433.8</ele>
        <time>2021-08-05T08:05:53Z</time>
      </trkpt>
      <trkpt lat="42.93469" lon="0.31598">
        <ele>1434</ele>
        <time>2021-08-05T08:05:54Z</time>
      </trkpt>
      <trkpt lat="42.93469" lon="0.31601">
        <ele>1434</ele>
        <time>2021-08-05T08:05:55Z</time>
      </trkpt>
      <trkpt lat="42.93469" lon="0.31602">
        <ele>1434.2</ele>
        <time>2021-08-05T08:05:56Z</time>
      </trkpt>
      <trkpt lat="42.93468" lon="0.31604">
        <ele>1434.4</ele>
        <time>2021-08-05T08:05:57Z</time>
      </trkpt>
      <trkpt lat="42.93468" lon="0.31605">
        <ele>1434.4</ele>
        <time>2021-08-05T08:05:58Z</time>
      </trkpt>
      <trkpt lat="42.93468" lon="0.31607">
        <ele>1434.6</ele>
        <time>2021-08-05T08:05:59Z</time>
      </trkpt>
      <trkpt lat="42.93467" lon="0.31609">
        <ele>1434.6</ele>
        <time>2021-08-05T08:06:00Z</time>
      </trkpt>
      <trkpt lat="42.93466" lon="0.31611">
        <ele>1434.8</ele>
        <time>2021-08-05T08:06:01Z</time>
      </trkpt>
      <trkpt lat="42.93465" lon="0.31613">
        <ele>1435</ele>
        <time>2021-08-05T08:06:02Z</time>
      </trkpt>
      <trkpt lat="42.93465" lon="0.31615">
        <ele>1435</ele>
        <time>2021-08-05T08:06:03Z</time>
      </trkpt>
      <trkpt lat="42.93465" lon="0.31617">
        <ele>1435.4</ele>
        <time>2021-08-05T08:06:04Z</time>
      </trkpt>
      <trkpt lat="42.93465" lon="0.31619">
        <ele>1435.4</ele>
        <time>2021-08-05T08:06:05Z</time>
      </trkpt>
      <trkpt lat="42.93465" lon="0.31622">
        <ele>1435.6</ele>
        <time>2021-08-05T08:06:06Z</time>
      </trkpt>
      <trkpt lat="42.93465" lon="0.31624">
        <ele>1435.8</ele>
        <time>2021-08-05T08:06:07Z</time>
      </trkpt>
      <trkpt lat="42.93464" lon="0.31627">
        <ele>1436</ele>
        <time>2021-08-05T08:06:08Z</time>
      </trkpt>
      <trkpt lat="42.93464" lon="0.31629">
        <ele>1436.2</ele>
        <time>2021-08-05T08:06:09Z</time>
      </trkpt>
      <trkpt lat="42.93464" lon="0.31632">
        <ele>1436.4</ele>
        <time>2021-08-05T08:06:10Z</time>
      </trkpt>
      <trkpt lat="42.93465" lon="0.31635">
        <ele>1436.4</ele>
        <time>2021-08-05T08:06:11Z</time>
      </trkpt>
      <trkpt lat="42.93465" lon="0.31637">
        <ele>1436.6</ele>
        <time>2021-08-05T08:06:12Z</time>
      </trkpt>
      <trkpt lat="42.93465" lon="0.3164">
        <ele>1436.8</ele>
        <time>2021-08-05T08:06:13Z</time>
      </trkpt>
      <trkpt lat="42.93464" lon="0.31643">
        <ele>1437</ele>
        <time>2021-08-05T08:06:14Z</time>
      </trkpt>
      <trkpt lat="42.93464" lon="0.31645">
        <ele>1437</ele>
        <time>2021-08-05T08:06:15Z</time>
      </trkpt>
      <trkpt lat="42.93463" lon="0.31648">
        <ele>1437.2</ele>
        <time>2021-08-05T08:06:16Z</time>
      </trkpt>
      <trkpt lat="42.93463" lon="0.3165">
        <ele>1437.4</ele>
        <time>2021-08-05T08:06:17Z</time>
      </trkpt>
      <trkpt lat="42.93462" lon="0.31653">
        <ele>1437.4</ele>
        <time>2021-08-05T08:06:18Z</time>
      </trkpt>
      <trkpt lat="42.93461" lon="0.31655">
        <ele>1437.8</ele>
        <time>2021-08-05T08:06:19Z</time>
      </trkpt>
      <trkpt lat="42.93461" lon="0.31657">
        <ele>1438</ele>
        <time>2021-08-05T08:06:20Z</time>
      </trkpt>
      <trkpt lat="42.93461" lon="0.31659">
        <ele>1438.2</ele>
        <time>2021-08-05T08:06:21Z</time>
      </trkpt>
      <trkpt lat="42.9346" lon="0.31662">
        <ele>1438.2</ele>
        <time>2021-08-05T08:06:22Z</time>
      </trkpt>
      <trkpt lat="42.93459" lon="0.31664">
        <ele>1438.6</ele>
        <time>2021-08-05T08:06:23Z</time>
      </trkpt>
      <trkpt lat="42.93458" lon="0.31666">
        <ele>1438.8</ele>
        <time>2021-08-05T08:06:24Z</time>
      </trkpt>
      <trkpt lat="42.93457" lon="0.31669">
        <ele>1439</ele>
        <time>2021-08-05T08:06:25Z</time>
      </trkpt>
      <trkpt lat="42.93456" lon="0.31671">
        <ele>1439.4</ele>
        <time>2021-08-05T08:06:26Z</time>
      </trkpt>
      <trkpt lat="42.93454" lon="0.31673">
        <ele>1439.4</ele>
        <time>2021-08-05T08:06:27Z</time>
      </trkpt>
      <trkpt lat="42.93453" lon="0.31674">
        <ele>1439.6</ele>
        <time>2021-08-05T08:06:28Z</time>
      </trkpt>
      <trkpt lat="42.93452" lon="0.31676">
        <ele>1439.6</ele>
        <time>2021-08-05T08:06:29Z</time>
      </trkpt>
      <trkpt lat="42.9345" lon="0.31678">
        <ele>1439.8</ele>
        <time>2021-08-05T08:06:30Z</time>
      </trkpt>
      <trkpt lat="42.9345" lon="0.31681">
        <ele>1440</ele>
        <time>2021-08-05T08:06:31Z</time>
      </trkpt>
      <trkpt lat="42.93449" lon="0.31683">
        <ele>1440.2</ele>
        <time>2021-08-05T08:06:32Z</time>
      </trkpt>
      <trkpt lat="42.93449" lon="0.31685">
        <ele>1440.4</ele>
        <time>2021-08-05T08:06:33Z</time>
      </trkpt>
      <trkpt lat="42.93448" lon="0.31687">
        <ele>1440.6</ele>
        <time>2021-08-05T08:06:34Z</time>
      </trkpt>
      <trkpt lat="42.93448" lon="0.31688">
        <ele>1440.6</ele>
        <time>2021-08-05T08:06:35Z</time>
      </trkpt>
      <trkpt lat="42.93448" lon="0.3169">
        <ele>1440.8</ele>
        <time>2021-08-05T08:06:36Z</time>
      </trkpt>
      <trkpt lat="42.93448" lon="0.31692">
        <ele>1441</ele>
        <time>2021-08-05T08:06:37Z</time>
      </trkpt>
      <trkpt lat="42.93449" lon="0.31694">
        <ele>1441.4</ele>
        <time>2021-08-05T08:06:38Z</time>
      </trkpt>
      <trkpt lat="42.93449" lon="0.31697">
        <ele>1441.6</ele>
        <time>2021-08-05T08:06:39Z</time>
      </trkpt>
      <trkpt lat="42.93449" lon="0.31699">
        <ele>1441.6</ele>
        <time>2021-08-05T08:06:40Z</time>
      </trkpt>
      <trkpt lat="42.9345" lon="0.31701">
        <ele>1442</ele>
        <time>2021-08-05T08:06:41Z</time>
      </trkpt>
      <trkpt lat="42.93451" lon="0.31702">
        <ele>1442</ele>
        <time>2021-08-05T08:06:42Z</time>
      </trkpt>
      <trkpt lat="42.93451" lon="0.31703">
        <ele>1442.2</ele>
        <time>2021-08-05T08:06:43Z</time>
      </trkpt>
      <trkpt lat="42.93451" lon="0.31705">
        <ele>1442.4</ele>
        <time>2021-08-05T08:06:44Z</time>
      </trkpt>
      <trkpt lat="42.93452" lon="0.31707">
        <ele>1442.6</ele>
        <time>2021-08-05T08:06:45Z</time>
      </trkpt>
      <trkpt lat="42.93453" lon="0.31711">
        <ele>1442.8</ele>
        <time>2021-08-05T08:06:46Z</time>
      </trkpt>
      <trkpt lat="42.93452" lon="0.31714">
        <ele>1443</ele>
        <time>2021-08-05T08:06:47Z</time>
      </trkpt>
      <trkpt lat="42.93453" lon="0.31717">
        <ele>1443</ele>
        <time>2021-08-05T08:06:48Z</time>
      </trkpt>
      <trkpt lat="42.93455" lon="0.31721">
        <ele>1443.2</ele>
        <time>2021-08-05T08:06:49Z</time>
      </trkpt>
      <trkpt lat="42.93456" lon="0.31723">
        <ele>1443.4</ele>
        <time>2021-08-05T08:06:50Z</time>
      </trkpt>
      <trkpt lat="42.93457" lon="0.31726">
        <ele>1443.6</ele>
        <time>2021-08-05T08:06:51Z</time>
      </trkpt>
      <trkpt lat="42.93458" lon="0.31729">
        <ele>1443.8</ele>
        <time>2021-08-05T08:06:52Z</time>
      </trkpt>
      <trkpt lat="42.93458" lon="0.31731">
        <ele>1444.2</ele>
        <time>2021-08-05T08:06:53Z</time>
      </trkpt>
      <trkpt lat="42.93458" lon="0.31733">
        <ele>1444.2</ele>
        <time>2021-08-05T08:06:54Z</time>
      </trkpt>
      <trkpt lat="42.93458" lon="0.31736">
        <ele>1444.4</ele>
        <time>2021-08-05T08:06:55Z</time>
      </trkpt>
      <trkpt lat="42.93459" lon="0.31739">
        <ele>1444.6</ele>
        <time>2021-08-05T08:06:56Z</time>
      </trkpt>
      <trkpt lat="42.93459" lon="0.31742">
        <ele>1444.8</ele>
        <time>2021-08-05T08:06:57Z</time>
      </trkpt>
      <trkpt lat="42.93459" lon="0.31744">
        <ele>1445</ele>
        <time>2021-08-05T08:06:58Z</time>
      </trkpt>
      <trkpt lat="42.93459" lon="0.31747">
        <ele>1445.2</ele>
        <time>2021-08-05T08:06:59Z</time>
      </trkpt>
      <trkpt lat="42.93459" lon="0.31749">
        <ele>1445.2</ele>
        <time>2021-08-05T08:07:00Z</time>
      </trkpt>
      <trkpt lat="42.93459" lon="0.31751">
        <ele>1445.4</ele>
        <time>2021-08-05T08:07:01Z</time>
      </trkpt>
      <trkpt lat="42.93459" lon="0.31754">
        <ele>1445.4</ele>
        <time>2021-08-05T08:07:02Z</time>
      </trkpt>
      <trkpt lat="42.93458" lon="0.31756">
        <ele>1445.6</ele>
        <time>2021-08-05T08:07:03Z</time>
      </trkpt>
      <trkpt lat="42.93458" lon="0.31759">
        <ele>1446</ele>
        <time>2021-08-05T08:07:04Z</time>
      </trkpt>
      <trkpt lat="42.9346" lon="0.31761">
        <ele>1446</ele>
        <time>2021-08-05T08:07:05Z</time>
      </trkpt>
      <trkpt lat="42.9346" lon="0.31764">
        <ele>1446.2</ele>
        <time>2021-08-05T08:07:06Z</time>
      </trkpt>
      <trkpt lat="42.9346" lon="0.31766">
        <ele>1446.2</ele>
        <time>2021-08-05T08:07:07Z</time>
      </trkpt>
      <trkpt lat="42.93461" lon="0.31768">
        <ele>1446.4</ele>
        <time>2021-08-05T08:07:08Z</time>
      </trkpt>
      <trkpt lat="42.93461" lon="0.3177">
        <ele>1446.4</ele>
        <time>2021-08-05T08:07:09Z</time>
      </trkpt>
      <trkpt lat="42.93461" lon="0.31773">
        <ele>1446.6</ele>
        <time>2021-08-05T08:07:10Z</time>
      </trkpt>
      <trkpt lat="42.93462" lon="0.31775">
        <ele>1446.6</ele>
        <time>2021-08-05T08:07:11Z</time>
      </trkpt>
      <trkpt lat="42.93463" lon="0.31777">
        <ele>1446.8</ele>
        <time>2021-08-05T08:07:12Z</time>
      </trkpt>
      <trkpt lat="42.93464" lon="0.3178">
        <ele>1447</ele>
        <time>2021-08-05T08:07:13Z</time>
      </trkpt>
      <trkpt lat="42.93466" lon="0.31782">
        <ele>1447</ele>
        <time>2021-08-05T08:07:14Z</time>
      </trkpt>
      <trkpt lat="42.93467" lon="0.31785">
        <ele>1447.2</ele>
        <time>2021-08-05T08:07:15Z</time>
      </trkpt>
      <trkpt lat="42.93468" lon="0.31787">
        <ele>1447.4</ele>
        <time>2021-08-05T08:07:16Z</time>
      </trkpt>
      <trkpt lat="42.93468" lon="0.31789">
        <ele>1447.4</ele>
        <time>2021-08-05T08:07:17Z</time>
      </trkpt>
      <trkpt lat="42.9347" lon="0.3179">
        <ele>1447.6</ele>
        <time>2021-08-05T08:07:18Z</time>
      </trkpt>
      <trkpt lat="42.9347" lon="0.31792">
        <ele>1447.6</ele>
        <time>2021-08-05T08:07:19Z</time>
      </trkpt>
      <trkpt lat="42.93471" lon="0.31795">
        <ele>1447.8</ele>
        <time>2021-08-05T08:07:20Z</time>
      </trkpt>
      <trkpt lat="42.93473" lon="0.31798">
        <ele>1448</ele>
        <time>2021-08-05T08:07:21Z</time>
      </trkpt>
      <trkpt lat="42.93474" lon="0.318">
        <ele>1448</ele>
        <time>2021-08-05T08:07:22Z</time>
      </trkpt>
      <trkpt lat="42.93474" lon="0.31803">
        <ele>1448.2</ele>
        <time>2021-08-05T08:07:23Z</time>
      </trkpt>
      <trkpt lat="42.93474" lon="0.31806">
        <ele>1448.4</ele>
        <time>2021-08-05T08:07:24Z</time>
      </trkpt>
      <trkpt lat="42.93475" lon="0.31808">
        <ele>1448.4</ele>
        <time>2021-08-05T08:07:25Z</time>
      </trkpt>
      <trkpt lat="42.93477" lon="0.31811">
        <ele>1448.4</ele>
        <time>2021-08-05T08:07:26Z</time>
      </trkpt>
      <trkpt lat="42.93477" lon="0.31812">
        <ele>1448.6</ele>
        <time>2021-08-05T08:07:27Z</time>
      </trkpt>
      <trkpt lat="42.93479" lon="0.31814">
        <ele>1448.6</ele>
        <time>2021-08-05T08:07:28Z</time>
      </trkpt>
      <trkpt lat="42.9348" lon="0.31817">
        <ele>1448.8</ele>
        <time>2021-08-05T08:07:29Z</time>
      </trkpt>
      <trkpt lat="42.9348" lon="0.31818">
        <ele>1448.8</ele>
        <time>2021-08-05T08:07:30Z</time>
      </trkpt>
      <trkpt lat="42.93481" lon="0.3182">
        <ele>1448.8</ele>
        <time>2021-08-05T08:07:31Z</time>
      </trkpt>
      <trkpt lat="42.93483" lon="0.31823">
        <ele>1449</ele>
        <time>2021-08-05T08:07:32Z</time>
      </trkpt>
      <trkpt lat="42.93484" lon="0.31825">
        <ele>1449.2</ele>
        <time>2021-08-05T08:07:33Z</time>
      </trkpt>
      <trkpt lat="42.93486" lon="0.31827">
        <ele>1449.2</ele>
        <time>2021-08-05T08:07:34Z</time>
      </trkpt>
      <trkpt lat="42.93487" lon="0.31828">
        <ele>1449.6</ele>
        <time>2021-08-05T08:07:35Z</time>
      </trkpt>
      <trkpt lat="42.93488" lon="0.31829">
        <ele>1449.6</ele>
        <time>2021-08-05T08:07:36Z</time>
      </trkpt>
      <trkpt lat="42.9349" lon="0.31831">
        <ele>1450</ele>
        <time>2021-08-05T08:07:37Z</time>
      </trkpt>
      <trkpt lat="42.93491" lon="0.31833">
        <ele>1450</ele>
        <time>2021-08-05T08:07:38Z</time>
      </trkpt>
      <trkpt lat="42.93492" lon="0.31835">
        <ele>1450.4</ele>
        <time>2021-08-05T08:07:39Z</time>
      </trkpt>
      <trkpt lat="42.93493" lon="0.31836">
        <ele>1450.8</ele>
        <time>2021-08-05T08:07:40Z</time>
      </trkpt>
      <trkpt lat="42.93495" lon="0.31838">
        <ele>1450.8</ele>
        <time>2021-08-05T08:07:41Z</time>
      </trkpt>
      <trkpt lat="42.93496" lon="0.31839">
        <ele>1451.2</ele>
        <time>2021-08-05T08:07:42Z</time>
      </trkpt>
      <trkpt lat="42.93497" lon="0.31841">
        <ele>1451.2</ele>
        <time>2021-08-05T08:07:43Z</time>
      </trkpt>
      <trkpt lat="42.93499" lon="0.31843">
        <ele>1451.6</ele>
        <time>2021-08-05T08:07:44Z</time>
      </trkpt>
      <trkpt lat="42.935" lon="0.31844">
        <ele>1451.6</ele>
        <time>2021-08-05T08:07:45Z</time>
      </trkpt>
      <trkpt lat="42.93503" lon="0.31845">
        <ele>1451.8</ele>
        <time>2021-08-05T08:07:46Z</time>
      </trkpt>
      <trkpt lat="42.93505" lon="0.31847">
        <ele>1452</ele>
        <time>2021-08-05T08:07:47Z</time>
      </trkpt>
      <trkpt lat="42.93506" lon="0.3185">
        <ele>1452.2</ele>
        <time>2021-08-05T08:07:48Z</time>
      </trkpt>
      <trkpt lat="42.93507" lon="0.31851">
        <ele>1452.2</ele>
        <time>2021-08-05T08:07:49Z</time>
      </trkpt>
      <trkpt lat="42.93508" lon="0.31852">
        <ele>1452.6</ele>
        <time>2021-08-05T08:07:50Z</time>
      </trkpt>
      <trkpt lat="42.93509" lon="0.31854">
        <ele>1452.6</ele>
        <time>2021-08-05T08:07:51Z</time>
      </trkpt>
      <trkpt lat="42.93511" lon="0.31855">
        <ele>1452.8</ele>
        <time>2021-08-05T08:07:52Z</time>
      </trkpt>
      <trkpt lat="42.93512" lon="0.31856">
        <ele>1452.8</ele>
        <time>2021-08-05T08:07:53Z</time>
      </trkpt>
      <trkpt lat="42.93514" lon="0.31858">
        <ele>1453</ele>
        <time>2021-08-05T08:07:54Z</time>
      </trkpt>
      <trkpt lat="42.93514" lon="0.31859">
        <ele>1453.2</ele>
        <time>2021-08-05T08:07:55Z</time>
      </trkpt>
      <trkpt lat="42.93515" lon="0.31861">
        <ele>1453.4</ele>
        <time>2021-08-05T08:07:56Z</time>
      </trkpt>
      <trkpt lat="42.93517" lon="0.31863">
        <ele>1453.6</ele>
        <time>2021-08-05T08:07:57Z</time>
      </trkpt>
      <trkpt lat="42.9352" lon="0.31866">
        <ele>1453.6</ele>
        <time>2021-08-05T08:07:58Z</time>
      </trkpt>
      <trkpt lat="42.93523" lon="0.31869">
        <ele>1453.8</ele>
        <time>2021-08-05T08:07:59Z</time>
      </trkpt>
      <trkpt lat="42.93524" lon="0.3187">
        <ele>1454</ele>
        <time>2021-08-05T08:08:00Z</time>
      </trkpt>
      <trkpt lat="42.93525" lon="0.31872">
        <ele>1454.2</ele>
        <time>2021-08-05T08:08:01Z</time>
      </trkpt>
      <trkpt lat="42.93525" lon="0.31875">
        <ele>1454.2</ele>
        <time>2021-08-05T08:08:02Z</time>
      </trkpt>
      <trkpt lat="42.93526" lon="0.31877">
        <ele>1454.4</ele>
        <time>2021-08-05T08:08:03Z</time>
      </trkpt>
      <trkpt lat="42.93527" lon="0.31879">
        <ele>1454.6</ele>
        <time>2021-08-05T08:08:04Z</time>
      </trkpt>
      <trkpt lat="42.93528" lon="0.31881">
        <ele>1454.8</ele>
        <time>2021-08-05T08:08:05Z</time>
      </trkpt>
      <trkpt lat="42.93529" lon="0.31884">
        <ele>1455</ele>
        <time>2021-08-05T08:08:06Z</time>
      </trkpt>
      <trkpt lat="42.9353" lon="0.31886">
        <ele>1455</ele>
        <time>2021-08-05T08:08:07Z</time>
      </trkpt>
      <trkpt lat="42.93531" lon="0.31888">
        <ele>1455.2</ele>
        <time>2021-08-05T08:08:08Z</time>
      </trkpt>
      <trkpt lat="42.93532" lon="0.3189">
        <ele>1455.2</ele>
        <time>2021-08-05T08:08:09Z</time>
      </trkpt>
      <trkpt lat="42.93533" lon="0.31893">
        <ele>1455.4</ele>
        <time>2021-08-05T08:08:10Z</time>
      </trkpt>
      <trkpt lat="42.93533" lon="0.31895">
        <ele>1455.4</ele>
        <time>2021-08-05T08:08:11Z</time>
      </trkpt>
      <trkpt lat="42.93533" lon="0.31897">
        <ele>1455.6</ele>
        <time>2021-08-05T08:08:12Z</time>
      </trkpt>
      <trkpt lat="42.93534" lon="0.31899">
        <ele>1455.6</ele>
        <time>2021-08-05T08:08:13Z</time>
      </trkpt>
      <trkpt lat="42.93534" lon="0.31902">
        <ele>1455.8</ele>
        <time>2021-08-05T08:08:14Z</time>
      </trkpt>
      <trkpt lat="42.93535" lon="0.31904">
        <ele>1455.8</ele>
        <time>2021-08-05T08:08:15Z</time>
      </trkpt>
      <trkpt lat="42.93536" lon="0.31907">
        <ele>1456</ele>
        <time>2021-08-05T08:08:16Z</time>
      </trkpt>
      <trkpt lat="42.93537" lon="0.31909">
        <ele>1456.2</ele>
        <time>2021-08-05T08:08:17Z</time>
      </trkpt>
      <trkpt lat="42.93539" lon="0.31911">
        <ele>1456.4</ele>
        <time>2021-08-05T08:08:18Z</time>
      </trkpt>
      <trkpt lat="42.9354" lon="0.31913">
        <ele>1456.4</ele>
        <time>2021-08-05T08:08:19Z</time>
      </trkpt>
      <trkpt lat="42.93541" lon="0.31915">
        <ele>1456.6</ele>
        <time>2021-08-05T08:08:20Z</time>
      </trkpt>
      <trkpt lat="42.93542" lon="0.31918">
        <ele>1456.6</ele>
        <time>2021-08-05T08:08:21Z</time>
      </trkpt>
      <trkpt lat="42.93542" lon="0.3192">
        <ele>1456.8</ele>
        <time>2021-08-05T08:08:22Z</time>
      </trkpt>
      <trkpt lat="42.93543" lon="0.31922">
        <ele>1456.8</ele>
        <time>2021-08-05T08:08:23Z</time>
      </trkpt>
      <trkpt lat="42.93544" lon="0.31924">
        <ele>1457</ele>
        <time>2021-08-05T08:08:24Z</time>
      </trkpt>
      <trkpt lat="42.93545" lon="0.31926">
        <ele>1457.2</ele>
        <time>2021-08-05T08:08:25Z</time>
      </trkpt>
      <trkpt lat="42.93546" lon="0.31928">
        <ele>1457.4</ele>
        <time>2021-08-05T08:08:26Z</time>
      </trkpt>
      <trkpt lat="42.93547" lon="0.3193">
        <ele>1457.4</ele>
        <time>2021-08-05T08:08:27Z</time>
      </trkpt>
      <trkpt lat="42.93548" lon="0.31931">
        <ele>1457.6</ele>
        <time>2021-08-05T08:08:28Z</time>
      </trkpt>
      <trkpt lat="42.9355" lon="0.31933">
        <ele>1457.6</ele>
        <time>2021-08-05T08:08:29Z</time>
      </trkpt>
      <trkpt lat="42.93551" lon="0.31935">
        <ele>1457.6</ele>
        <time>2021-08-05T08:08:30Z</time>
      </trkpt>
      <trkpt lat="42.93552" lon="0.31937">
        <ele>1457.8</ele>
        <time>2021-08-05T08:08:31Z</time>
      </trkpt>
      <trkpt lat="42.93554" lon="0.3194">
        <ele>1457.8</ele>
        <time>2021-08-05T08:08:32Z</time>
      </trkpt>
      <trkpt lat="42.93554" lon="0.31942">
        <ele>1457.8</ele>
        <time>2021-08-05T08:08:33Z</time>
      </trkpt>
      <trkpt lat="42.93555" lon="0.31945">
        <ele>1457.8</ele>
        <time>2021-08-05T08:08:34Z</time>
      </trkpt>
      <trkpt lat="42.93556" lon="0.31948">
        <ele>1457.8</ele>
        <time>2021-08-05T08:08:35Z</time>
      </trkpt>
      <trkpt lat="42.93556" lon="0.3195">
        <ele>1458</ele>
        <time>2021-08-05T08:08:36Z</time>
      </trkpt>
      <trkpt lat="42.93557" lon="0.31951">
        <ele>1458</ele>
        <time>2021-08-05T08:08:37Z</time>
      </trkpt>
      <trkpt lat="42.93558" lon="0.31953">
        <ele>1458</ele>
        <time>2021-08-05T08:08:38Z</time>
      </trkpt>
      <trkpt lat="42.93561" lon="0.31955">
        <ele>1458</ele>
        <time>2021-08-05T08:08:39Z</time>
      </trkpt>
      <trkpt lat="42.93564" lon="0.31957">
        <ele>1458</ele>
        <time>2021-08-05T08:08:40Z</time>
      </trkpt>
      <trkpt lat="42.93565" lon="0.31958">
        <ele>1458.2</ele>
        <time>2021-08-05T08:08:41Z</time>
      </trkpt>
      <trkpt lat="42.93566" lon="0.31958">
        <ele>1458.4</ele>
        <time>2021-08-05T08:08:42Z</time>
      </trkpt>
      <trkpt lat="42.93568" lon="0.3196">
        <ele>1458.4</ele>
        <time>2021-08-05T08:08:43Z</time>
      </trkpt>
      <trkpt lat="42.93574" lon="0.31965">
        <ele>1458.4</ele>
        <time>2021-08-05T08:08:44Z</time>
      </trkpt>
      <trkpt lat="42.93578" lon="0.31974">
        <ele>1458.6</ele>
        <time>2021-08-05T08:08:51Z</time>
      </trkpt>
      <trkpt lat="42.93578" lon="0.31975">
        <ele>1458.6</ele>
        <time>2021-08-05T08:08:52Z</time>
      </trkpt>
      <trkpt lat="42.93579" lon="0.31976">
        <ele>1458.6</ele>
        <time>2021-08-05T08:08:54Z</time>
      </trkpt>
      <trkpt lat="42.9358" lon="0.31976">
        <ele>1458.6</ele>
        <time>2021-08-05T08:08:55Z</time>
      </trkpt>
      <trkpt lat="42.9358" lon="0.31977">
        <ele>1458.6</ele>
        <time>2021-08-05T08:08:56Z</time>
      </trkpt>
      <trkpt lat="42.93581" lon="0.31977">
        <ele>1458.6</ele>
        <time>2021-08-05T08:08:57Z</time>
      </trkpt>
      <trkpt lat="42.93582" lon="0.31978">
        <ele>1458.8</ele>
        <time>2021-08-05T08:08:58Z</time>
      </trkpt>
      <trkpt lat="42.93583" lon="0.31979">
        <ele>1458.8</ele>
        <time>2021-08-05T08:08:59Z</time>
      </trkpt>
      <trkpt lat="42.93584" lon="0.3198">
        <ele>1458.8</ele>
        <time>2021-08-05T08:09:00Z</time>
      </trkpt>
      <trkpt lat="42.93585" lon="0.31981">
        <ele>1459</ele>
        <time>2021-08-05T08:09:01Z</time>
      </trkpt>
      <trkpt lat="42.93587" lon="0.31982">
        <ele>1459</ele>
        <time>2021-08-05T08:09:02Z</time>
      </trkpt>
      <trkpt lat="42.93588" lon="0.31982">
        <ele>1459</ele>
        <time>2021-08-05T08:09:03Z</time>
      </trkpt>
      <trkpt lat="42.93592" lon="0.31987">
        <ele>1459.2</ele>
        <time>2021-08-05T08:09:08Z</time>
      </trkpt>
      <trkpt lat="42.93593" lon="0.31988">
        <ele>1459.2</ele>
        <time>2021-08-05T08:09:09Z</time>
      </trkpt>
      <trkpt lat="42.93593" lon="0.31989">
        <ele>1459.2</ele>
        <time>2021-08-05T08:09:10Z</time>
      </trkpt>
      <trkpt lat="42.93595" lon="0.3199">
        <ele>1459.2</ele>
        <time>2021-08-05T08:09:11Z</time>
      </trkpt>
      <trkpt lat="42.93596" lon="0.31991">
        <ele>1459.2</ele>
        <time>2021-08-05T08:09:12Z</time>
      </trkpt>
      <trkpt lat="42.93603" lon="0.31998">
        <ele>1459.4</ele>
        <time>2021-08-05T08:09:18Z</time>
      </trkpt>
      <trkpt lat="42.93612" lon="0.32002">
        <ele>1459.6</ele>
        <time>2021-08-05T08:09:24Z</time>
      </trkpt>
      <trkpt lat="42.93616" lon="0.32004">
        <ele>1460</ele>
        <time>2021-08-05T08:09:27Z</time>
      </trkpt>
      <trkpt lat="42.93617" lon="0.32005">
        <ele>1460</ele>
        <time>2021-08-05T08:09:28Z</time>
      </trkpt>
      <trkpt lat="42.93618" lon="0.32005">
        <ele>1460</ele>
        <time>2021-08-05T08:09:29Z</time>
      </trkpt>
      <trkpt lat="42.93618" lon="0.32006">
        <ele>1460</ele>
        <time>2021-08-05T08:09:30Z</time>
      </trkpt>
      <trkpt lat="42.93619" lon="0.32007">
        <ele>1460</ele>
        <time>2021-08-05T08:09:31Z</time>
      </trkpt>
      <trkpt lat="42.9362" lon="0.32007">
        <ele>1460.2</ele>
        <time>2021-08-05T08:09:32Z</time>
      </trkpt>
      <trkpt lat="42.93621" lon="0.32008">
        <ele>1460.2</ele>
        <time>2021-08-05T08:09:33Z</time>
      </trkpt>
      <trkpt lat="42.93621" lon="0.32008">
        <ele>1460.2</ele>
        <time>2021-08-05T08:09:34Z</time>
      </trkpt>
      <trkpt lat="42.93622" lon="0.32009">
        <ele>1460.2</ele>
        <time>2021-08-05T08:09:35Z</time>
      </trkpt>
      <trkpt lat="42.93623" lon="0.3201">
        <ele>1460</ele>
        <time>2021-08-05T08:09:36Z</time>
      </trkpt>
      <trkpt lat="42.93624" lon="0.32012">
        <ele>1460.2</ele>
        <time>2021-08-05T08:09:37Z</time>
      </trkpt>
      <trkpt lat="42.93627" lon="0.32016">
        <ele>1460.2</ele>
        <time>2021-08-05T08:09:40Z</time>
      </trkpt>
      <trkpt lat="42.93628" lon="0.32017">
        <ele>1460.2</ele>
        <time>2021-08-05T08:09:41Z</time>
      </trkpt>
      <trkpt lat="42.93629" lon="0.32018">
        <ele>1460.4</ele>
        <time>2021-08-05T08:09:42Z</time>
      </trkpt>
      <trkpt lat="42.93632" lon="0.3202">
        <ele>1460.6</ele>
        <time>2021-08-05T08:09:44Z</time>
      </trkpt>
      <trkpt lat="42.93633" lon="0.3202">
        <ele>1460.8</ele>
        <time>2021-08-05T08:09:45Z</time>
      </trkpt>
      <trkpt lat="42.93633" lon="0.3202">
        <ele>1461</ele>
        <time>2021-08-05T08:09:46Z</time>
      </trkpt>
      <trkpt lat="42.93635" lon="0.3202">
        <ele>1461.2</ele>
        <time>2021-08-05T08:09:48Z</time>
      </trkpt>
      <trkpt lat="42.93636" lon="0.32018">
        <ele>1461.2</ele>
        <time>2021-08-05T08:09:49Z</time>
      </trkpt>
      <trkpt lat="42.93636" lon="0.32018">
        <ele>1461.2</ele>
        <time>2021-08-05T08:09:50Z</time>
      </trkpt>
      <trkpt lat="42.93637" lon="0.32017">
        <ele>1461.2</ele>
        <time>2021-08-05T08:09:51Z</time>
      </trkpt>
      <trkpt lat="42.93638" lon="0.32016">
        <ele>1461.2</ele>
        <time>2021-08-05T08:09:52Z</time>
      </trkpt>
      <trkpt lat="42.93639" lon="0.32015">
        <ele>1461.4</ele>
        <time>2021-08-05T08:09:53Z</time>
      </trkpt>
      <trkpt lat="42.93641" lon="0.32018">
        <ele>1461.4</ele>
        <time>2021-08-05T08:09:54Z</time>
      </trkpt>
      <trkpt lat="42.93646" lon="0.32018">
        <ele>1461.6</ele>
        <time>2021-08-05T08:09:57Z</time>
      </trkpt>
      <trkpt lat="42.93646" lon="0.32018">
        <ele>1461.6</ele>
        <time>2021-08-05T08:09:58Z</time>
      </trkpt>
      <trkpt lat="42.93648" lon="0.32018">
        <ele>1461.6</ele>
        <time>2021-08-05T08:09:59Z</time>
      </trkpt>
      <trkpt lat="42.9365" lon="0.32018">
        <ele>1461.8</ele>
        <time>2021-08-05T08:10:00Z</time>
      </trkpt>
      <trkpt lat="42.93655" lon="0.32017">
        <ele>1462</ele>
        <time>2021-08-05T08:10:03Z</time>
      </trkpt>
      <trkpt lat="42.93656" lon="0.32016">
        <ele>1462</ele>
        <time>2021-08-05T08:10:04Z</time>
      </trkpt>
      <trkpt lat="42.93658" lon="0.32016">
        <ele>1462</ele>
        <time>2021-08-05T08:10:05Z</time>
      </trkpt>
      <trkpt lat="42.93663" lon="0.32014">
        <ele>1462.2</ele>
        <time>2021-08-05T08:10:08Z</time>
      </trkpt>
      <trkpt lat="42.93664" lon="0.32014">
        <ele>1462.2</ele>
        <time>2021-08-05T08:10:09Z</time>
      </trkpt>
      <trkpt lat="42.93666" lon="0.32014">
        <ele>1462.4</ele>
        <time>2021-08-05T08:10:11Z</time>
      </trkpt>
      <trkpt lat="42.93668" lon="0.32015">
        <ele>1462.4</ele>
        <time>2021-08-05T08:10:12Z</time>
      </trkpt>
      <trkpt lat="42.9367" lon="0.32013">
        <ele>1462.4</ele>
        <time>2021-08-05T08:10:13Z</time>
      </trkpt>
      <trkpt lat="42.93671" lon="0.32013">
        <ele>1462.6</ele>
        <time>2021-08-05T08:10:14Z</time>
      </trkpt>
      <trkpt lat="42.93671" lon="0.32013">
        <ele>1462.6</ele>
        <time>2021-08-05T08:10:15Z</time>
      </trkpt>
      <trkpt lat="42.93674" lon="0.32014">
        <ele>1462.8</ele>
        <time>2021-08-05T08:10:16Z</time>
      </trkpt>
      <trkpt lat="42.93675" lon="0.32014">
        <ele>1463</ele>
        <time>2021-08-05T08:10:18Z</time>
      </trkpt>
      <trkpt lat="42.93678" lon="0.32013">
        <ele>1462.8</ele>
        <time>2021-08-05T08:10:19Z</time>
      </trkpt>
      <trkpt lat="42.9368" lon="0.32012">
        <ele>1463</ele>
        <time>2021-08-05T08:10:21Z</time>
      </trkpt>
      <trkpt lat="42.93683" lon="0.32011">
        <ele>1463</ele>
        <time>2021-08-05T08:10:22Z</time>
      </trkpt>
      <trkpt lat="42.93684" lon="0.3201">
        <ele>1463</ele>
        <time>2021-08-05T08:10:23Z</time>
      </trkpt>
      <trkpt lat="42.93684" lon="0.32009">
        <ele>1463</ele>
        <time>2021-08-05T08:10:24Z</time>
      </trkpt>
      <trkpt lat="42.93684" lon="0.32009">
        <ele>1463</ele>
        <time>2021-08-05T08:10:25Z</time>
      </trkpt>
      <trkpt lat="42.93687" lon="0.32009">
        <ele>1463.2</ele>
        <time>2021-08-05T08:10:26Z</time>
      </trkpt>
      <trkpt lat="42.9369" lon="0.32008">
        <ele>1463.2</ele>
        <time>2021-08-05T08:10:27Z</time>
      </trkpt>
      <trkpt lat="42.93692" lon="0.32008">
        <ele>1463.2</ele>
        <time>2021-08-05T08:10:28Z</time>
      </trkpt>
      <trkpt lat="42.93692" lon="0.32008">
        <ele>1463.4</ele>
        <time>2021-08-05T08:10:29Z</time>
      </trkpt>
      <trkpt lat="42.93695" lon="0.32003">
        <ele>1463.4</ele>
        <time>2021-08-05T08:10:30Z</time>
      </trkpt>
      <trkpt lat="42.93695" lon="0.32003">
        <ele>1463.4</ele>
        <time>2021-08-05T08:10:31Z</time>
      </trkpt>
      <trkpt lat="42.93698" lon="0.32005">
        <ele>1463.6</ele>
        <time>2021-08-05T08:10:32Z</time>
      </trkpt>
      <trkpt lat="42.937" lon="0.32006">
        <ele>1463.6</ele>
        <time>2021-08-05T08:10:33Z</time>
      </trkpt>
      <trkpt lat="42.93701" lon="0.32005">
        <ele>1463.8</ele>
        <time>2021-08-05T08:10:34Z</time>
      </trkpt>
      <trkpt lat="42.93703" lon="0.32004">
        <ele>1463.8</ele>
        <time>2021-08-05T08:10:35Z</time>
      </trkpt>
      <trkpt lat="42.93705" lon="0.32003">
        <ele>1464</ele>
        <time>2021-08-05T08:10:36Z</time>
      </trkpt>
      <trkpt lat="42.93705" lon="0.32003">
        <ele>1464</ele>
        <time>2021-08-05T08:10:37Z</time>
      </trkpt>
      <trkpt lat="42.93707" lon="0.32003">
        <ele>1464.2</ele>
        <time>2021-08-05T08:10:38Z</time>
      </trkpt>
      <trkpt lat="42.93711" lon="0.32002">
        <ele>1464.4</ele>
        <time>2021-08-05T08:10:39Z</time>
      </trkpt>
      <trkpt lat="42.93713" lon="0.32002">
        <ele>1464.4</ele>
        <time>2021-08-05T08:10:40Z</time>
      </trkpt>
      <trkpt lat="42.93713" lon="0.32002">
        <ele>1464.4</ele>
        <time>2021-08-05T08:10:41Z</time>
      </trkpt>
      <trkpt lat="42.93716" lon="0.32001">
        <ele>1464.6</ele>
        <time>2021-08-05T08:10:42Z</time>
      </trkpt>
      <trkpt lat="42.93717" lon="0.32001">
        <ele>1464.6</ele>
        <time>2021-08-05T08:10:43Z</time>
      </trkpt>
      <trkpt lat="42.93718" lon="0.31998">
        <ele>1464.8</ele>
        <time>2021-08-05T08:10:44Z</time>
      </trkpt>
      <trkpt lat="42.9372" lon="0.31997">
        <ele>1464.8</ele>
        <time>2021-08-05T08:10:45Z</time>
      </trkpt>
      <trkpt lat="42.93722" lon="0.31996">
        <ele>1464.8</ele>
        <time>2021-08-05T08:10:46Z</time>
      </trkpt>
      <trkpt lat="42.93724" lon="0.31995">
        <ele>1465</ele>
        <time>2021-08-05T08:10:47Z</time>
      </trkpt>
      <trkpt lat="42.93725" lon="0.31993">
        <ele>1465</ele>
        <time>2021-08-05T08:10:48Z</time>
      </trkpt>
      <trkpt lat="42.93726" lon="0.31993">
        <ele>1465</ele>
        <time>2021-08-05T08:10:49Z</time>
      </trkpt>
      <trkpt lat="42.93728" lon="0.31992">
        <ele>1465.2</ele>
        <time>2021-08-05T08:10:50Z</time>
      </trkpt>
      <trkpt lat="42.93729" lon="0.31991">
        <ele>1465.2</ele>
        <time>2021-08-05T08:10:51Z</time>
      </trkpt>
      <trkpt lat="42.93737" lon="0.31989">
        <ele>1465.4</ele>
        <time>2021-08-05T08:10:56Z</time>
      </trkpt>
      <trkpt lat="42.93738" lon="0.31989">
        <ele>1465.6</ele>
        <time>2021-08-05T08:10:57Z</time>
      </trkpt>
      <trkpt lat="42.93739" lon="0.31989">
        <ele>1465.6</ele>
        <time>2021-08-05T08:10:58Z</time>
      </trkpt>
      <trkpt lat="42.93741" lon="0.31989">
        <ele>1465.8</ele>
        <time>2021-08-05T08:10:59Z</time>
      </trkpt>
      <trkpt lat="42.93745" lon="0.3199">
        <ele>1466</ele>
        <time>2021-08-05T08:11:02Z</time>
      </trkpt>
      <trkpt lat="42.93746" lon="0.3199">
        <ele>1466</ele>
        <time>2021-08-05T08:11:03Z</time>
      </trkpt>
      <trkpt lat="42.93748" lon="0.31989">
        <ele>1466.2</ele>
        <time>2021-08-05T08:11:04Z</time>
      </trkpt>
      <trkpt lat="42.93749" lon="0.3199">
        <ele>1466.2</ele>
        <time>2021-08-05T08:11:05Z</time>
      </trkpt>
      <trkpt lat="42.93749" lon="0.3199">
        <ele>1466.2</ele>
        <time>2021-08-05T08:11:06Z</time>
      </trkpt>
      <trkpt lat="42.93749" lon="0.3199">
        <ele>1466.4</ele>
        <time>2021-08-05T08:11:07Z</time>
      </trkpt>
      <trkpt lat="42.9375" lon="0.3199">
        <ele>1466.6</ele>
        <time>2021-08-05T08:11:08Z</time>
      </trkpt>
      <trkpt lat="42.93751" lon="0.31991">
        <ele>1466.6</ele>
        <time>2021-08-05T08:11:09Z</time>
      </trkpt>
      <trkpt lat="42.93753" lon="0.31992">
        <ele>1466.6</ele>
        <time>2021-08-05T08:11:10Z</time>
      </trkpt>
      <trkpt lat="42.93754" lon="0.31991">
        <ele>1466.8</ele>
        <time>2021-08-05T08:11:11Z</time>
      </trkpt>
      <trkpt lat="42.93757" lon="0.31991">
        <ele>1466.8</ele>
        <time>2021-08-05T08:11:12Z</time>
      </trkpt>
      <trkpt lat="42.93758" lon="0.3199">
        <ele>1467</ele>
        <time>2021-08-05T08:11:13Z</time>
      </trkpt>
      <trkpt lat="42.9376" lon="0.31989">
        <ele>1467.2</ele>
        <time>2021-08-05T08:11:15Z</time>
      </trkpt>
      <trkpt lat="42.93762" lon="0.31989">
        <ele>1467.2</ele>
        <time>2021-08-05T08:11:16Z</time>
      </trkpt>
      <trkpt lat="42.93763" lon="0.3199">
        <ele>1467.2</ele>
        <time>2021-08-05T08:11:17Z</time>
      </trkpt>
      <trkpt lat="42.93765" lon="0.3199">
        <ele>1467.6</ele>
        <time>2021-08-05T08:11:19Z</time>
      </trkpt>
      <trkpt lat="42.93768" lon="0.3199">
        <ele>1467.8</ele>
        <time>2021-08-05T08:11:21Z</time>
      </trkpt>
      <trkpt lat="42.9377" lon="0.31989">
        <ele>1468</ele>
        <time>2021-08-05T08:11:22Z</time>
      </trkpt>
      <trkpt lat="42.93772" lon="0.31988">
        <ele>1468</ele>
        <time>2021-08-05T08:11:23Z</time>
      </trkpt>
      <trkpt lat="42.93774" lon="0.31989">
        <ele>1468.2</ele>
        <time>2021-08-05T08:11:24Z</time>
      </trkpt>
      <trkpt lat="42.93774" lon="0.31989">
        <ele>1468.2</ele>
        <time>2021-08-05T08:11:25Z</time>
      </trkpt>
      <trkpt lat="42.93777" lon="0.3199">
        <ele>1468.4</ele>
        <time>2021-08-05T08:11:26Z</time>
      </trkpt>
      <trkpt lat="42.93778" lon="0.31991">
        <ele>1468.4</ele>
        <time>2021-08-05T08:11:27Z</time>
      </trkpt>
      <trkpt lat="42.93779" lon="0.31992">
        <ele>1468.6</ele>
        <time>2021-08-05T08:11:28Z</time>
      </trkpt>
      <trkpt lat="42.9378" lon="0.31993">
        <ele>1468.6</ele>
        <time>2021-08-05T08:11:29Z</time>
      </trkpt>
      <trkpt lat="42.93783" lon="0.31995">
        <ele>1468.8</ele>
        <time>2021-08-05T08:11:31Z</time>
      </trkpt>
      <trkpt lat="42.93785" lon="0.31996">
        <ele>1469</ele>
        <time>2021-08-05T08:11:32Z</time>
      </trkpt>
      <trkpt lat="42.93787" lon="0.31998">
        <ele>1469</ele>
        <time>2021-08-05T08:11:33Z</time>
      </trkpt>
      <trkpt lat="42.93791" lon="0.31999">
        <ele>1469.2</ele>
        <time>2021-08-05T08:11:34Z</time>
      </trkpt>
      <trkpt lat="42.93794" lon="0.32">
        <ele>1469.2</ele>
        <time>2021-08-05T08:11:35Z</time>
      </trkpt>
      <trkpt lat="42.93795" lon="0.32">
        <ele>1469.4</ele>
        <time>2021-08-05T08:11:36Z</time>
      </trkpt>
      <trkpt lat="42.93796" lon="0.32">
        <ele>1469.4</ele>
        <time>2021-08-05T08:11:37Z</time>
      </trkpt>
      <trkpt lat="42.93799" lon="0.32">
        <ele>1469.6</ele>
        <time>2021-08-05T08:11:38Z</time>
      </trkpt>
      <trkpt lat="42.93801" lon="0.32003">
        <ele>1469.6</ele>
        <time>2021-08-05T08:11:39Z</time>
      </trkpt>
      <trkpt lat="42.93804" lon="0.32006">
        <ele>1469.8</ele>
        <time>2021-08-05T08:11:40Z</time>
      </trkpt>
      <trkpt lat="42.93806" lon="0.32008">
        <ele>1470</ele>
        <time>2021-08-05T08:11:41Z</time>
      </trkpt>
      <trkpt lat="42.93809" lon="0.3201">
        <ele>1470.2</ele>
        <time>2021-08-05T08:11:42Z</time>
      </trkpt>
      <trkpt lat="42.9381" lon="0.32011">
        <ele>1470.2</ele>
        <time>2021-08-05T08:11:43Z</time>
      </trkpt>
      <trkpt lat="42.9381" lon="0.32011">
        <ele>1470.4</ele>
        <time>2021-08-05T08:11:44Z</time>
      </trkpt>
      <trkpt lat="42.93814" lon="0.32015">
        <ele>1470.4</ele>
        <time>2021-08-05T08:11:45Z</time>
      </trkpt>
      <trkpt lat="42.93817" lon="0.32015">
        <ele>1470.6</ele>
        <time>2021-08-05T08:11:46Z</time>
      </trkpt>
      <trkpt lat="42.9382" lon="0.32016">
        <ele>1470.6</ele>
        <time>2021-08-05T08:11:47Z</time>
      </trkpt>
      <trkpt lat="42.93823" lon="0.32017">
        <ele>1470.8</ele>
        <time>2021-08-05T08:11:48Z</time>
      </trkpt>
      <trkpt lat="42.93825" lon="0.3202">
        <ele>1471</ele>
        <time>2021-08-05T08:11:49Z</time>
      </trkpt>
      <trkpt lat="42.93827" lon="0.32022">
        <ele>1471</ele>
        <time>2021-08-05T08:11:50Z</time>
      </trkpt>
      <trkpt lat="42.93829" lon="0.32025">
        <ele>1471.2</ele>
        <time>2021-08-05T08:11:51Z</time>
      </trkpt>
      <trkpt lat="42.9383" lon="0.32028">
        <ele>1471.2</ele>
        <time>2021-08-05T08:11:52Z</time>
      </trkpt>
      <trkpt lat="42.9383" lon="0.32028">
        <ele>1471.4</ele>
        <time>2021-08-05T08:11:53Z</time>
      </trkpt>
      <trkpt lat="42.93834" lon="0.3203">
        <ele>1471.6</ele>
        <time>2021-08-05T08:11:54Z</time>
      </trkpt>
      <trkpt lat="42.93836" lon="0.32033">
        <ele>1471.8</ele>
        <time>2021-08-05T08:11:55Z</time>
      </trkpt>
      <trkpt lat="42.93837" lon="0.32035">
        <ele>1472</ele>
        <time>2021-08-05T08:11:56Z</time>
      </trkpt>
      <trkpt lat="42.93839" lon="0.32037">
        <ele>1472.2</ele>
        <time>2021-08-05T08:11:57Z</time>
      </trkpt>
      <trkpt lat="42.9384" lon="0.32038">
        <ele>1472.2</ele>
        <time>2021-08-05T08:11:58Z</time>
      </trkpt>
      <trkpt lat="42.93841" lon="0.3204">
        <ele>1472.4</ele>
        <time>2021-08-05T08:11:59Z</time>
      </trkpt>
      <trkpt lat="42.93843" lon="0.32042">
        <ele>1472.4</ele>
        <time>2021-08-05T08:12:00Z</time>
      </trkpt>
      <trkpt lat="42.93845" lon="0.32044">
        <ele>1472.6</ele>
        <time>2021-08-05T08:12:01Z</time>
      </trkpt>
      <trkpt lat="42.93845" lon="0.32044">
        <ele>1472.8</ele>
        <time>2021-08-05T08:12:02Z</time>
      </trkpt>
      <trkpt lat="42.93849" lon="0.32048">
        <ele>1472.8</ele>
        <time>2021-08-05T08:12:03Z</time>
      </trkpt>
      <trkpt lat="42.93851" lon="0.32051">
        <ele>1473.2</ele>
        <time>2021-08-05T08:12:04Z</time>
      </trkpt>
      <trkpt lat="42.93852" lon="0.32053">
        <ele>1473.4</ele>
        <time>2021-08-05T08:12:05Z</time>
      </trkpt>
      <trkpt lat="42.93854" lon="0.32056">
        <ele>1473.6</ele>
        <time>2021-08-05T08:12:06Z</time>
      </trkpt>
      <trkpt lat="42.93855" lon="0.32058">
        <ele>1473.8</ele>
        <time>2021-08-05T08:12:07Z</time>
      </trkpt>
      <trkpt lat="42.93857" lon="0.3206">
        <ele>1474</ele>
        <time>2021-08-05T08:12:08Z</time>
      </trkpt>
      <trkpt lat="42.93858" lon="0.32063">
        <ele>1474</ele>
        <time>2021-08-05T08:12:09Z</time>
      </trkpt>
      <trkpt lat="42.93859" lon="0.32065">
        <ele>1474.2</ele>
        <time>2021-08-05T08:12:10Z</time>
      </trkpt>
      <trkpt lat="42.93859" lon="0.32065">
        <ele>1474.4</ele>
        <time>2021-08-05T08:12:11Z</time>
      </trkpt>
      <trkpt lat="42.93862" lon="0.32071">
        <ele>1474.8</ele>
        <time>2021-08-05T08:12:12Z</time>
      </trkpt>
      <trkpt lat="42.93864" lon="0.32073">
        <ele>1475</ele>
        <time>2021-08-05T08:12:13Z</time>
      </trkpt>
      <trkpt lat="42.93866" lon="0.32076">
        <ele>1475</ele>
        <time>2021-08-05T08:12:14Z</time>
      </trkpt>
      <trkpt lat="42.93868" lon="0.32079">
        <ele>1475.2</ele>
        <time>2021-08-05T08:12:15Z</time>
      </trkpt>
      <trkpt lat="42.93869" lon="0.32082">
        <ele>1475.2</ele>
        <time>2021-08-05T08:12:16Z</time>
      </trkpt>
      <trkpt lat="42.93871" lon="0.32085">
        <ele>1475.4</ele>
        <time>2021-08-05T08:12:17Z</time>
      </trkpt>
      <trkpt lat="42.93873" lon="0.32088">
        <ele>1475.4</ele>
        <time>2021-08-05T08:12:18Z</time>
      </trkpt>
      <trkpt lat="42.93875" lon="0.3209">
        <ele>1475.6</ele>
        <time>2021-08-05T08:12:19Z</time>
      </trkpt>
      <trkpt lat="42.93877" lon="0.32094">
        <ele>1475.6</ele>
        <time>2021-08-05T08:12:20Z</time>
      </trkpt>
      <trkpt lat="42.93879" lon="0.32097">
        <ele>1475.8</ele>
        <time>2021-08-05T08:12:21Z</time>
      </trkpt>
      <trkpt lat="42.9388" lon="0.32099">
        <ele>1475.8</ele>
        <time>2021-08-05T08:12:22Z</time>
      </trkpt>
      <trkpt lat="42.93882" lon="0.32102">
        <ele>1476</ele>
        <time>2021-08-05T08:12:23Z</time>
      </trkpt>
      <trkpt lat="42.93884" lon="0.32104">
        <ele>1476</ele>
        <time>2021-08-05T08:12:24Z</time>
      </trkpt>
      <trkpt lat="42.93885" lon="0.32106">
        <ele>1476</ele>
        <time>2021-08-05T08:12:25Z</time>
      </trkpt>
      <trkpt lat="42.93886" lon="0.32108">
        <ele>1476.2</ele>
        <time>2021-08-05T08:12:26Z</time>
      </trkpt>
      <trkpt lat="42.93888" lon="0.32111">
        <ele>1476.2</ele>
        <time>2021-08-05T08:12:27Z</time>
      </trkpt>
      <trkpt lat="42.9389" lon="0.32114">
        <ele>1476.2</ele>
        <time>2021-08-05T08:12:28Z</time>
      </trkpt>
      <trkpt lat="42.93891" lon="0.32116">
        <ele>1476.4</ele>
        <time>2021-08-05T08:12:29Z</time>
      </trkpt>
      <trkpt lat="42.93893" lon="0.32118">
        <ele>1476.4</ele>
        <time>2021-08-05T08:12:30Z</time>
      </trkpt>
      <trkpt lat="42.93895" lon="0.3212">
        <ele>1476.4</ele>
        <time>2021-08-05T08:12:31Z</time>
      </trkpt>
      <trkpt lat="42.93898" lon="0.32122">
        <ele>1476.6</ele>
        <time>2021-08-05T08:12:32Z</time>
      </trkpt>
      <trkpt lat="42.939" lon="0.32124">
        <ele>1476.6</ele>
        <time>2021-08-05T08:12:33Z</time>
      </trkpt>
      <trkpt lat="42.93902" lon="0.32126">
        <ele>1476.6</ele>
        <time>2021-08-05T08:12:34Z</time>
      </trkpt>
      <trkpt lat="42.93904" lon="0.32128">
        <ele>1476.8</ele>
        <time>2021-08-05T08:12:35Z</time>
      </trkpt>
      <trkpt lat="42.93905" lon="0.3213">
        <ele>1476.8</ele>
        <time>2021-08-05T08:12:36Z</time>
      </trkpt>
      <trkpt lat="42.93906" lon="0.32132">
        <ele>1477</ele>
        <time>2021-08-05T08:12:37Z</time>
      </trkpt>
      <trkpt lat="42.93908" lon="0.32134">
        <ele>1477</ele>
        <time>2021-08-05T08:12:38Z</time>
      </trkpt>
      <trkpt lat="42.9391" lon="0.32137">
        <ele>1477.2</ele>
        <time>2021-08-05T08:12:39Z</time>
      </trkpt>
      <trkpt lat="42.93912" lon="0.32139">
        <ele>1477.2</ele>
        <time>2021-08-05T08:12:40Z</time>
      </trkpt>
      <trkpt lat="42.93915" lon="0.32141">
        <ele>1477.4</ele>
        <time>2021-08-05T08:12:41Z</time>
      </trkpt>
      <trkpt lat="42.93916" lon="0.32143">
        <ele>1477.4</ele>
        <time>2021-08-05T08:12:42Z</time>
      </trkpt>
      <trkpt lat="42.93917" lon="0.32146">
        <ele>1477.4</ele>
        <time>2021-08-05T08:12:43Z</time>
      </trkpt>
      <trkpt lat="42.93923" lon="0.32153">
        <ele>1477.8</ele>
        <time>2021-08-05T08:12:47Z</time>
      </trkpt>
      <trkpt lat="42.93924" lon="0.32155">
        <ele>1478</ele>
        <time>2021-08-05T08:12:48Z</time>
      </trkpt>
      <trkpt lat="42.93925" lon="0.32157">
        <ele>1478</ele>
        <time>2021-08-05T08:12:49Z</time>
      </trkpt>
      <trkpt lat="42.93927" lon="0.32159">
        <ele>1478.4</ele>
        <time>2021-08-05T08:12:50Z</time>
      </trkpt>
      <trkpt lat="42.93928" lon="0.32161">
        <ele>1478.4</ele>
        <time>2021-08-05T08:12:51Z</time>
      </trkpt>
      <trkpt lat="42.93929" lon="0.32162">
        <ele>1478.8</ele>
        <time>2021-08-05T08:12:53Z</time>
      </trkpt>
      <trkpt lat="42.93929" lon="0.32162">
        <ele>1478.8</ele>
        <time>2021-08-05T08:12:54Z</time>
      </trkpt>
      <trkpt lat="42.9393" lon="0.32162">
        <ele>1479</ele>
        <time>2021-08-05T08:12:55Z</time>
      </trkpt>
      <trkpt lat="42.9393" lon="0.32162">
        <ele>1479</ele>
        <time>2021-08-05T08:12:56Z</time>
      </trkpt>
      <trkpt lat="42.93931" lon="0.32161">
        <ele>1479.2</ele>
        <time>2021-08-05T08:12:57Z</time>
      </trkpt>
      <trkpt lat="42.93932" lon="0.32162">
        <ele>1479.2</ele>
        <time>2021-08-05T08:12:58Z</time>
      </trkpt>
      <trkpt lat="42.93932" lon="0.32162">
        <ele>1479.4</ele>
        <time>2021-08-05T08:12:59Z</time>
      </trkpt>
      <trkpt lat="42.93932" lon="0.32162">
        <ele>1479.4</ele>
        <time>2021-08-05T08:13:00Z</time>
      </trkpt>
      <trkpt lat="42.93932" lon="0.32161">
        <ele>1479.6</ele>
        <time>2021-08-05T08:13:01Z</time>
      </trkpt>
      <trkpt lat="42.93934" lon="0.32161">
        <ele>1479.8</ele>
        <time>2021-08-05T08:13:02Z</time>
      </trkpt>
      <trkpt lat="42.93936" lon="0.32161">
        <ele>1480</ele>
        <time>2021-08-05T08:13:03Z</time>
      </trkpt>
      <trkpt lat="42.93938" lon="0.32162">
        <ele>1480</ele>
        <time>2021-08-05T08:13:04Z</time>
      </trkpt>
      <trkpt lat="42.9394" lon="0.32163">
        <ele>1480</ele>
        <time>2021-08-05T08:13:05Z</time>
      </trkpt>
      <trkpt lat="42.93943" lon="0.32163">
        <ele>1480.2</ele>
        <time>2021-08-05T08:13:06Z</time>
      </trkpt>
      <trkpt lat="42.93945" lon="0.32163">
        <ele>1480.6</ele>
        <time>2021-08-05T08:13:07Z</time>
      </trkpt>
      <trkpt lat="42.93948" lon="0.32164">
        <ele>1480.8</ele>
        <time>2021-08-05T08:13:08Z</time>
      </trkpt>
      <trkpt lat="42.93951" lon="0.32164">
        <ele>1481</ele>
        <time>2021-08-05T08:13:09Z</time>
      </trkpt>
      <trkpt lat="42.93954" lon="0.32166">
        <ele>1481.2</ele>
        <time>2021-08-05T08:13:10Z</time>
      </trkpt>
      <trkpt lat="42.93957" lon="0.32168">
        <ele>1481.2</ele>
        <time>2021-08-05T08:13:11Z</time>
      </trkpt>
      <trkpt lat="42.9396" lon="0.32169">
        <ele>1481.4</ele>
        <time>2021-08-05T08:13:12Z</time>
      </trkpt>
      <trkpt lat="42.93963" lon="0.32169">
        <ele>1481.6</ele>
        <time>2021-08-05T08:13:13Z</time>
      </trkpt>
      <trkpt lat="42.93965" lon="0.32168">
        <ele>1481.6</ele>
        <time>2021-08-05T08:13:14Z</time>
      </trkpt>
      <trkpt lat="42.93967" lon="0.32168">
        <ele>1482</ele>
        <time>2021-08-05T08:13:15Z</time>
      </trkpt>
      <trkpt lat="42.9397" lon="0.32168">
        <ele>1482.4</ele>
        <time>2021-08-05T08:13:16Z</time>
      </trkpt>
      <trkpt lat="42.93972" lon="0.32167">
        <ele>1482.4</ele>
        <time>2021-08-05T08:13:17Z</time>
      </trkpt>
      <trkpt lat="42.93974" lon="0.32166">
        <ele>1482.6</ele>
        <time>2021-08-05T08:13:18Z</time>
      </trkpt>
      <trkpt lat="42.93976" lon="0.32165">
        <ele>1482.8</ele>
        <time>2021-08-05T08:13:19Z</time>
      </trkpt>
      <trkpt lat="42.93976" lon="0.32165">
        <ele>1482.8</ele>
        <time>2021-08-05T08:13:20Z</time>
      </trkpt>
      <trkpt lat="42.93979" lon="0.32165">
        <ele>1483</ele>
        <time>2021-08-05T08:13:21Z</time>
      </trkpt>
      <trkpt lat="42.93982" lon="0.32166">
        <ele>1483.2</ele>
        <time>2021-08-05T08:13:22Z</time>
      </trkpt>
      <trkpt lat="42.93985" lon="0.32169">
        <ele>1483.2</ele>
        <time>2021-08-05T08:13:23Z</time>
      </trkpt>
      <trkpt lat="42.93987" lon="0.32172">
        <ele>1483.4</ele>
        <time>2021-08-05T08:13:24Z</time>
      </trkpt>
      <trkpt lat="42.93988" lon="0.32171">
        <ele>1483.4</ele>
        <time>2021-08-05T08:13:25Z</time>
      </trkpt>
      <trkpt lat="42.9399" lon="0.32172">
        <ele>1483.6</ele>
        <time>2021-08-05T08:13:26Z</time>
      </trkpt>
      <trkpt lat="42.93992" lon="0.32172">
        <ele>1483.8</ele>
        <time>2021-08-05T08:13:27Z</time>
      </trkpt>
      <trkpt lat="42.93994" lon="0.32171">
        <ele>1484</ele>
        <time>2021-08-05T08:13:28Z</time>
      </trkpt>
      <trkpt lat="42.93996" lon="0.32171">
        <ele>1484.2</ele>
        <time>2021-08-05T08:13:29Z</time>
      </trkpt>
      <trkpt lat="42.93998" lon="0.3217">
        <ele>1484.4</ele>
        <time>2021-08-05T08:13:30Z</time>
      </trkpt>
      <trkpt lat="42.94" lon="0.3217">
        <ele>1484.4</ele>
        <time>2021-08-05T08:13:31Z</time>
      </trkpt>
      <trkpt lat="42.94003" lon="0.32169">
        <ele>1484.6</ele>
        <time>2021-08-05T08:13:32Z</time>
      </trkpt>
      <trkpt lat="42.94005" lon="0.32169">
        <ele>1484.6</ele>
        <time>2021-08-05T08:13:33Z</time>
      </trkpt>
      <trkpt lat="42.94005" lon="0.32169">
        <ele>1484.8</ele>
        <time>2021-08-05T08:13:34Z</time>
      </trkpt>
      <trkpt lat="42.9401" lon="0.32168">
        <ele>1485</ele>
        <time>2021-08-05T08:13:35Z</time>
      </trkpt>
      <trkpt lat="42.94013" lon="0.32167">
        <ele>1485</ele>
        <time>2021-08-05T08:13:36Z</time>
      </trkpt>
      <trkpt lat="42.94016" lon="0.32167">
        <ele>1485.2</ele>
        <time>2021-08-05T08:13:37Z</time>
      </trkpt>
      <trkpt lat="42.94018" lon="0.32166">
        <ele>1485.4</ele>
        <time>2021-08-05T08:13:38Z</time>
      </trkpt>
      <trkpt lat="42.94021" lon="0.32166">
        <ele>1485.4</ele>
        <time>2021-08-05T08:13:39Z</time>
      </trkpt>
      <trkpt lat="42.94023" lon="0.32166">
        <ele>1485.6</ele>
        <time>2021-08-05T08:13:40Z</time>
      </trkpt>
      <trkpt lat="42.94025" lon="0.32166">
        <ele>1485.8</ele>
        <time>2021-08-05T08:13:41Z</time>
      </trkpt>
      <trkpt lat="42.94028" lon="0.32167">
        <ele>1485.8</ele>
        <time>2021-08-05T08:13:42Z</time>
      </trkpt>
      <trkpt lat="42.9403" lon="0.32167">
        <ele>1486</ele>
        <time>2021-08-05T08:13:43Z</time>
      </trkpt>
      <trkpt lat="42.94031" lon="0.32167">
        <ele>1486.2</ele>
        <time>2021-08-05T08:13:44Z</time>
      </trkpt>
      <trkpt lat="42.94033" lon="0.32167">
        <ele>1486.6</ele>
        <time>2021-08-05T08:13:45Z</time>
      </trkpt>
      <trkpt lat="42.94034" lon="0.32166">
        <ele>1486.6</ele>
        <time>2021-08-05T08:13:46Z</time>
      </trkpt>
      <trkpt lat="42.94036" lon="0.32166">
        <ele>1487</ele>
        <time>2021-08-05T08:13:47Z</time>
      </trkpt>
      <trkpt lat="42.94039" lon="0.32166">
        <ele>1487</ele>
        <time>2021-08-05T08:13:48Z</time>
      </trkpt>
      <trkpt lat="42.94042" lon="0.32166">
        <ele>1487.2</ele>
        <time>2021-08-05T08:13:49Z</time>
      </trkpt>
      <trkpt lat="42.94044" lon="0.32166">
        <ele>1487.4</ele>
        <time>2021-08-05T08:13:50Z</time>
      </trkpt>
      <trkpt lat="42.94046" lon="0.32166">
        <ele>1487.6</ele>
        <time>2021-08-05T08:13:51Z</time>
      </trkpt>
      <trkpt lat="42.94049" lon="0.32165">
        <ele>1487.6</ele>
        <time>2021-08-05T08:13:52Z</time>
      </trkpt>
      <trkpt lat="42.94051" lon="0.32164">
        <ele>1487.8</ele>
        <time>2021-08-05T08:13:53Z</time>
      </trkpt>
      <trkpt lat="42.94053" lon="0.32164">
        <ele>1488</ele>
        <time>2021-08-05T08:13:54Z</time>
      </trkpt>
      <trkpt lat="42.94055" lon="0.32164">
        <ele>1488</ele>
        <time>2021-08-05T08:13:55Z</time>
      </trkpt>
      <trkpt lat="42.94057" lon="0.32164">
        <ele>1488.2</ele>
        <time>2021-08-05T08:13:56Z</time>
      </trkpt>
      <trkpt lat="42.94059" lon="0.32164">
        <ele>1488.2</ele>
        <time>2021-08-05T08:13:57Z</time>
      </trkpt>
      <trkpt lat="42.94061" lon="0.32165">
        <ele>1488.4</ele>
        <time>2021-08-05T08:13:58Z</time>
      </trkpt>
      <trkpt lat="42.94063" lon="0.32166">
        <ele>1488.6</ele>
        <time>2021-08-05T08:13:59Z</time>
      </trkpt>
      <trkpt lat="42.94065" lon="0.32166">
        <ele>1488.6</ele>
        <time>2021-08-05T08:14:00Z</time>
      </trkpt>
      <trkpt lat="42.94065" lon="0.32166">
        <ele>1488.8</ele>
        <time>2021-08-05T08:14:01Z</time>
      </trkpt>
      <trkpt lat="42.94069" lon="0.32168">
        <ele>1488.8</ele>
        <time>2021-08-05T08:14:02Z</time>
      </trkpt>
      <trkpt lat="42.94071" lon="0.32169">
        <ele>1489</ele>
        <time>2021-08-05T08:14:03Z</time>
      </trkpt>
      <trkpt lat="42.94073" lon="0.3217">
        <ele>1489</ele>
        <time>2021-08-05T08:14:04Z</time>
      </trkpt>
      <trkpt lat="42.94076" lon="0.32171">
        <ele>1489</ele>
        <time>2021-08-05T08:14:05Z</time>
      </trkpt>
      <trkpt lat="42.94078" lon="0.32172">
        <ele>1489.2</ele>
        <time>2021-08-05T08:14:06Z</time>
      </trkpt>
      <trkpt lat="42.9408" lon="0.32173">
        <ele>1489.2</ele>
        <time>2021-08-05T08:14:07Z</time>
      </trkpt>
      <trkpt lat="42.94081" lon="0.32174">
        <ele>1489.2</ele>
        <time>2021-08-05T08:14:08Z</time>
      </trkpt>
      <trkpt lat="42.94083" lon="0.32175">
        <ele>1489.4</ele>
        <time>2021-08-05T08:14:09Z</time>
      </trkpt>
      <trkpt lat="42.94085" lon="0.32177">
        <ele>1489.4</ele>
        <time>2021-08-05T08:14:10Z</time>
      </trkpt>
      <trkpt lat="42.94087" lon="0.32178">
        <ele>1489.4</ele>
        <time>2021-08-05T08:14:11Z</time>
      </trkpt>
      <trkpt lat="42.94088" lon="0.32179">
        <ele>1489.4</ele>
        <time>2021-08-05T08:14:12Z</time>
      </trkpt>
      <trkpt lat="42.9409" lon="0.32181">
        <ele>1489.4</ele>
        <time>2021-08-05T08:14:13Z</time>
      </trkpt>
      <trkpt lat="42.94092" lon="0.32182">
        <ele>1489.4</ele>
        <time>2021-08-05T08:14:14Z</time>
      </trkpt>
      <trkpt lat="42.94093" lon="0.32183">
        <ele>1489.4</ele>
        <time>2021-08-05T08:14:15Z</time>
      </trkpt>
      <trkpt lat="42.94095" lon="0.32185">
        <ele>1489.4</ele>
        <time>2021-08-05T08:14:16Z</time>
      </trkpt>
      <trkpt lat="42.94097" lon="0.32186">
        <ele>1489.4</ele>
        <time>2021-08-05T08:14:17Z</time>
      </trkpt>
      <trkpt lat="42.94105" lon="0.32196">
        <ele>1489.2</ele>
        <time>2021-08-05T08:14:22Z</time>
      </trkpt>
      <trkpt lat="42.94106" lon="0.32197">
        <ele>1489</ele>
        <time>2021-08-05T08:14:23Z</time>
      </trkpt>
      <trkpt lat="42.94106" lon="0.32197">
        <ele>1489</ele>
        <time>2021-08-05T08:14:24Z</time>
      </trkpt>
      <trkpt lat="42.94106" lon="0.32197">
        <ele>1488.2</ele>
        <time>2021-08-05T08:14:34Z</time>
      </trkpt>
      <trkpt lat="42.94108" lon="0.32203">
        <ele>1488</ele>
        <time>2021-08-05T08:15:40Z</time>
      </trkpt>
      <trkpt lat="42.94108" lon="0.32207">
        <ele>1488</ele>
        <time>2021-08-05T08:15:41Z</time>
      </trkpt>
      <trkpt lat="42.94113" lon="0.32232">
        <ele>1488</ele>
        <time>2021-08-05T08:15:47Z</time>
      </trkpt>
      <trkpt lat="42.94113" lon="0.32232">
        <ele>1488</ele>
        <time>2021-08-05T08:15:48Z</time>
      </trkpt>
      <trkpt lat="42.94119" lon="0.32259">
        <ele>1487.8</ele>
        <time>2021-08-05T08:15:52Z</time>
      </trkpt>
      <trkpt lat="42.94122" lon="0.32272">
        <ele>1487.6</ele>
        <time>2021-08-05T08:15:54Z</time>
      </trkpt>
      <trkpt lat="42.94125" lon="0.32285">
        <ele>1487.4</ele>
        <time>2021-08-05T08:15:56Z</time>
      </trkpt>
      <trkpt lat="42.94127" lon="0.32298">
        <ele>1487</ele>
        <time>2021-08-05T08:15:58Z</time>
      </trkpt>
      <trkpt lat="42.94128" lon="0.32304">
        <ele>1487</ele>
        <time>2021-08-05T08:15:59Z</time>
      </trkpt>
      <trkpt lat="42.9413" lon="0.32311">
        <ele>1486.6</ele>
        <time>2021-08-05T08:16:00Z</time>
      </trkpt>
      <trkpt lat="42.94131" lon="0.32319">
        <ele>1486.6</ele>
        <time>2021-08-05T08:16:01Z</time>
      </trkpt>
      <trkpt lat="42.94134" lon="0.32335">
        <ele>1486.4</ele>
        <time>2021-08-05T08:16:03Z</time>
      </trkpt>
      <trkpt lat="42.94135" lon="0.3235">
        <ele>1486.4</ele>
        <time>2021-08-05T08:16:05Z</time>
      </trkpt>
      <trkpt lat="42.94137" lon="0.32357">
        <ele>1486.2</ele>
        <time>2021-08-05T08:16:06Z</time>
      </trkpt>
      <trkpt lat="42.94138" lon="0.32365">
        <ele>1486</ele>
        <time>2021-08-05T08:16:07Z</time>
      </trkpt>
      <trkpt lat="42.9414" lon="0.32378">
        <ele>1485.8</ele>
        <time>2021-08-05T08:16:09Z</time>
      </trkpt>
      <trkpt lat="42.94141" lon="0.32386">
        <ele>1485.8</ele>
        <time>2021-08-05T08:16:10Z</time>
      </trkpt>
      <trkpt lat="42.94142" lon="0.32402">
        <ele>1485.6</ele>
        <time>2021-08-05T08:16:12Z</time>
      </trkpt>
      <trkpt lat="42.94142" lon="0.3241">
        <ele>1485.6</ele>
        <time>2021-08-05T08:16:13Z</time>
      </trkpt>
      <trkpt lat="42.94146" lon="0.32436">
        <ele>1485.4</ele>
        <time>2021-08-05T08:16:16Z</time>
      </trkpt>
      <trkpt lat="42.9415" lon="0.32462">
        <ele>1484.8</ele>
        <time>2021-08-05T08:16:19Z</time>
      </trkpt>
      <trkpt lat="42.94154" lon="0.32487">
        <ele>1484.4</ele>
        <time>2021-08-05T08:16:22Z</time>
      </trkpt>
      <trkpt lat="42.94159" lon="0.32512">
        <ele>1484</ele>
        <time>2021-08-05T08:16:25Z</time>
      </trkpt>
      <trkpt lat="42.94168" lon="0.32553">
        <ele>1483.4</ele>
        <time>2021-08-05T08:16:30Z</time>
      </trkpt>
      <trkpt lat="42.94171" lon="0.32569">
        <ele>1483.2</ele>
        <time>2021-08-05T08:16:32Z</time>
      </trkpt>
      <trkpt lat="42.94174" lon="0.32584">
        <ele>1483</ele>
        <time>2021-08-05T08:16:34Z</time>
      </trkpt>
      <trkpt lat="42.94175" lon="0.32591">
        <ele>1483</ele>
        <time>2021-08-05T08:16:35Z</time>
      </trkpt>
      <trkpt lat="42.94177" lon="0.32607">
        <ele>1482.8</ele>
        <time>2021-08-05T08:16:37Z</time>
      </trkpt>
      <trkpt lat="42.94183" lon="0.32638">
        <ele>1482.6</ele>
        <time>2021-08-05T08:16:41Z</time>
      </trkpt>
      <trkpt lat="42.94185" lon="0.32644">
        <ele>1482.4</ele>
        <time>2021-08-05T08:16:42Z</time>
      </trkpt>
      <trkpt lat="42.94187" lon="0.3265">
        <ele>1482.4</ele>
        <time>2021-08-05T08:16:43Z</time>
      </trkpt>
      <trkpt lat="42.94189" lon="0.32657">
        <ele>1482.2</ele>
        <time>2021-08-05T08:16:44Z</time>
      </trkpt>
      <trkpt lat="42.94193" lon="0.32669">
        <ele>1481.8</ele>
        <time>2021-08-05T08:16:46Z</time>
      </trkpt>
      <trkpt lat="42.94195" lon="0.32676">
        <ele>1481.8</ele>
        <time>2021-08-05T08:16:47Z</time>
      </trkpt>
      <trkpt lat="42.94197" lon="0.32682">
        <ele>1481.6</ele>
        <time>2021-08-05T08:16:48Z</time>
      </trkpt>
      <trkpt lat="42.94199" lon="0.32688">
        <ele>1481.6</ele>
        <time>2021-08-05T08:16:49Z</time>
      </trkpt>
      <trkpt lat="42.942" lon="0.32695">
        <ele>1481.6</ele>
        <time>2021-08-05T08:16:50Z</time>
      </trkpt>
      <trkpt lat="42.94201" lon="0.32702">
        <ele>1481.6</ele>
        <time>2021-08-05T08:16:51Z</time>
      </trkpt>
      <trkpt lat="42.94202" lon="0.32708">
        <ele>1481.6</ele>
        <time>2021-08-05T08:16:52Z</time>
      </trkpt>
      <trkpt lat="42.94203" lon="0.32714">
        <ele>1481.6</ele>
        <time>2021-08-05T08:16:53Z</time>
      </trkpt>
      <trkpt lat="42.94204" lon="0.3272">
        <ele>1481.6</ele>
        <time>2021-08-05T08:16:54Z</time>
      </trkpt>
      <trkpt lat="42.94204" lon="0.3272">
        <ele>1481.4</ele>
        <time>2021-08-05T08:16:55Z</time>
      </trkpt>
      <trkpt lat="42.9421" lon="0.3273">
        <ele>1481.4</ele>
        <time>2021-08-05T08:16:56Z</time>
      </trkpt>
      <trkpt lat="42.94213" lon="0.32734">
        <ele>1481.2</ele>
        <time>2021-08-05T08:16:57Z</time>
      </trkpt>
      <trkpt lat="42.94216" lon="0.32737">
        <ele>1481.2</ele>
        <time>2021-08-05T08:16:58Z</time>
      </trkpt>
      <trkpt lat="42.94219" lon="0.32739">
        <ele>1481</ele>
        <time>2021-08-05T08:16:59Z</time>
      </trkpt>
      <trkpt lat="42.94222" lon="0.3274">
        <ele>1481</ele>
        <time>2021-08-05T08:17:00Z</time>
      </trkpt>
      <trkpt lat="42.94226" lon="0.32741">
        <ele>1480.4</ele>
        <time>2021-08-05T08:17:01Z</time>
      </trkpt>
      <trkpt lat="42.94228" lon="0.32742">
        <ele>1480.2</ele>
        <time>2021-08-05T08:17:02Z</time>
      </trkpt>
      <trkpt lat="42.9423" lon="0.32742">
        <ele>1480</ele>
        <time>2021-08-05T08:17:03Z</time>
      </trkpt>
      <trkpt lat="42.94232" lon="0.32743">
        <ele>1479.6</ele>
        <time>2021-08-05T08:17:04Z</time>
      </trkpt>
      <trkpt lat="42.94234" lon="0.32743">
        <ele>1479.4</ele>
        <time>2021-08-05T08:17:05Z</time>
      </trkpt>
      <trkpt lat="42.94235" lon="0.32743">
        <ele>1479.4</ele>
        <time>2021-08-05T08:17:06Z</time>
      </trkpt>
      <trkpt lat="42.94237" lon="0.32743">
        <ele>1479.2</ele>
        <time>2021-08-05T08:17:07Z</time>
      </trkpt>
      <trkpt lat="42.94238" lon="0.32742">
        <ele>1479.2</ele>
        <time>2021-08-05T08:17:08Z</time>
      </trkpt>
      <trkpt lat="42.94238" lon="0.32742">
        <ele>1479.2</ele>
        <time>2021-08-05T08:17:09Z</time>
      </trkpt>
      <trkpt lat="42.94238" lon="0.32742">
        <ele>1479</ele>
        <time>2021-08-05T08:17:10Z</time>
      </trkpt>
      <trkpt lat="42.94238" lon="0.32742">
        <ele>1479.2</ele>
        <time>2021-08-05T08:17:27Z</time>
      </trkpt>
      <trkpt lat="42.94238" lon="0.32742">
        <ele>1479</ele>
        <time>2021-08-05T08:17:36Z</time>
      </trkpt>
      <trkpt lat="42.9424" lon="0.32739">
        <ele>1479</ele>
        <time>2021-08-05T08:17:40Z</time>
      </trkpt>
      <trkpt lat="42.9424" lon="0.32739">
        <ele>1479</ele>
        <time>2021-08-05T08:17:43Z</time>
      </trkpt>
      <trkpt lat="42.94241" lon="0.32739">
        <ele>1478.8</ele>
        <time>2021-08-05T08:17:54Z</time>
      </trkpt>
      <trkpt lat="42.94241" lon="0.32738">
        <ele>1478.8</ele>
        <time>2021-08-05T08:18:07Z</time>
      </trkpt>
      <trkpt lat="42.94241" lon="0.32737">
        <ele>1478.8</ele>
        <time>2021-08-05T08:18:10Z</time>
      </trkpt>
      <trkpt lat="42.94241" lon="0.32738">
        <ele>1479</ele>
        <time>2021-08-05T08:18:20Z</time>
      </trkpt>
      <trkpt lat="42.9424" lon="0.3274">
        <ele>1479</ele>
        <time>2021-08-05T08:18:22Z</time>
      </trkpt>
      <trkpt lat="42.94239" lon="0.32743">
        <ele>1479</ele>
        <time>2021-08-05T08:18:25Z</time>
      </trkpt>
      <trkpt lat="42.94239" lon="0.32743">
        <ele>1479</ele>
        <time>2021-08-05T08:18:26Z</time>
      </trkpt>
      <trkpt lat="42.94239" lon="0.32743">
        <ele>1479.2</ele>
        <time>2021-08-05T08:18:29Z</time>
      </trkpt>
      <trkpt lat="42.94239" lon="0.32743">
        <ele>1479</ele>
        <time>2021-08-05T08:18:31Z</time>
      </trkpt>
      <trkpt lat="42.94239" lon="0.32744">
        <ele>1479.2</ele>
        <time>2021-08-05T08:18:45Z</time>
      </trkpt>
      <trkpt lat="42.94239" lon="0.32744">
        <ele>1479.2</ele>
        <time>2021-08-05T08:19:12Z</time>
      </trkpt>
      <trkpt lat="42.94238" lon="0.32744">
        <ele>1479.4</ele>
        <time>2021-08-05T08:19:51Z</time>
      </trkpt>
      <trkpt lat="42.94238" lon="0.32744">
        <ele>1479.2</ele>
        <time>2021-08-05T08:20:31Z</time>
      </trkpt>
      <trkpt lat="42.94238" lon="0.32744">
        <ele>1479.2</ele>
        <time>2021-08-05T08:21:06Z</time>
      </trkpt>
      <trkpt lat="42.94238" lon="0.32744">
        <ele>1479.2</ele>
        <time>2021-08-05T08:21:35Z</time>
      </trkpt>
      <trkpt lat="42.94238" lon="0.32744">
        <ele>1479</ele>
        <time>2021-08-05T08:21:49Z</time>
      </trkpt>
      <trkpt lat="42.94241" lon="0.32735">
        <ele>1479</ele>
        <time>2021-08-05T08:21:55Z</time>
      </trkpt>
      <trkpt lat="42.94256" lon="0.32713">
        <ele>1479</ele>
        <time>2021-08-05T08:22:00Z</time>
      </trkpt>
      <trkpt lat="42.94278" lon="0.32687">
        <ele>1478.8</ele>
        <time>2021-08-05T08:22:05Z</time>
      </trkpt>
      <trkpt lat="42.94299" lon="0.32659">
        <ele>1478.2</ele>
        <time>2021-08-05T08:22:09Z</time>
      </trkpt>
      <trkpt lat="42.94304" lon="0.3265">
        <ele>1478</ele>
        <time>2021-08-05T08:22:10Z</time>
      </trkpt>
      <trkpt lat="42.94309" lon="0.32641">
        <ele>1477.6</ele>
        <time>2021-08-05T08:22:11Z</time>
      </trkpt>
      <trkpt lat="42.94318" lon="0.32621">
        <ele>1476.8</ele>
        <time>2021-08-05T08:22:13Z</time>
      </trkpt>
      <trkpt lat="42.94323" lon="0.32609">
        <ele>1476.6</ele>
        <time>2021-08-05T08:22:14Z</time>
      </trkpt>
      <trkpt lat="42.94329" lon="0.32585">
        <ele>1475.8</ele>
        <time>2021-08-05T08:22:16Z</time>
      </trkpt>
      <trkpt lat="42.94335" lon="0.32559">
        <ele>1474.6</ele>
        <time>2021-08-05T08:22:18Z</time>
      </trkpt>
      <trkpt lat="42.94337" lon="0.32545">
        <ele>1474</ele>
        <time>2021-08-05T08:22:19Z</time>
      </trkpt>
      <trkpt lat="42.94341" lon="0.32516">
        <ele>1473.4</ele>
        <time>2021-08-05T08:22:21Z</time>
      </trkpt>
      <trkpt lat="42.94345" lon="0.32487">
        <ele>1472</ele>
        <time>2021-08-05T08:22:23Z</time>
      </trkpt>
      <trkpt lat="42.94348" lon="0.32472">
        <ele>1470.8</ele>
        <time>2021-08-05T08:22:24Z</time>
      </trkpt>
      <trkpt lat="42.94351" lon="0.32457">
        <ele>1470.4</ele>
        <time>2021-08-05T08:22:25Z</time>
      </trkpt>
      <trkpt lat="42.94355" lon="0.32442">
        <ele>1469.2</ele>
        <time>2021-08-05T08:22:26Z</time>
      </trkpt>
      <trkpt lat="42.94358" lon="0.32426">
        <ele>1468.8</ele>
        <time>2021-08-05T08:22:27Z</time>
      </trkpt>
      <trkpt lat="42.9436" lon="0.3241">
        <ele>1468</ele>
        <time>2021-08-05T08:22:28Z</time>
      </trkpt>
      <trkpt lat="42.94362" lon="0.32393">
        <ele>1467.8</ele>
        <time>2021-08-05T08:22:29Z</time>
      </trkpt>
      <trkpt lat="42.94363" lon="0.32377">
        <ele>1466.4</ele>
        <time>2021-08-05T08:22:30Z</time>
      </trkpt>
      <trkpt lat="42.94365" lon="0.32343">
        <ele>1464.6</ele>
        <time>2021-08-05T08:22:32Z</time>
      </trkpt>
      <trkpt lat="42.94367" lon="0.32326">
        <ele>1464.2</ele>
        <time>2021-08-05T08:22:33Z</time>
      </trkpt>
      <trkpt lat="42.94371" lon="0.32311">
        <ele>1463</ele>
        <time>2021-08-05T08:22:34Z</time>
      </trkpt>
      <trkpt lat="42.94377" lon="0.32296">
        <ele>1462.6</ele>
        <time>2021-08-05T08:22:35Z</time>
      </trkpt>
      <trkpt lat="42.94384" lon="0.32282">
        <ele>1461</ele>
        <time>2021-08-05T08:22:36Z</time>
      </trkpt>
      <trkpt lat="42.94391" lon="0.32269">
        <ele>1460.4</ele>
        <time>2021-08-05T08:22:37Z</time>
      </trkpt>
      <trkpt lat="42.94399" lon="0.32256">
        <ele>1459.4</ele>
        <time>2021-08-05T08:22:38Z</time>
      </trkpt>
      <trkpt lat="42.94406" lon="0.32242">
        <ele>1458</ele>
        <time>2021-08-05T08:22:39Z</time>
      </trkpt>
      <trkpt lat="42.94419" lon="0.32212">
        <ele>1456.4</ele>
        <time>2021-08-05T08:22:41Z</time>
      </trkpt>
      <trkpt lat="42.94425" lon="0.32196">
        <ele>1455.8</ele>
        <time>2021-08-05T08:22:42Z</time>
      </trkpt>
      <trkpt lat="42.94431" lon="0.32181">
        <ele>1454.6</ele>
        <time>2021-08-05T08:22:43Z</time>
      </trkpt>
      <trkpt lat="42.94443" lon="0.32152">
        <ele>1453</ele>
        <time>2021-08-05T08:22:45Z</time>
      </trkpt>
      <trkpt lat="42.94447" lon="0.3214">
        <ele>1452.4</ele>
        <time>2021-08-05T08:22:46Z</time>
      </trkpt>
      <trkpt lat="42.94451" lon="0.3213">
        <ele>1451.2</ele>
        <time>2021-08-05T08:22:47Z</time>
      </trkpt>
      <trkpt lat="42.94455" lon="0.32122">
        <ele>1450.8</ele>
        <time>2021-08-05T08:22:48Z</time>
      </trkpt>
      <trkpt lat="42.94458" lon="0.32114">
        <ele>1449.4</ele>
        <time>2021-08-05T08:22:49Z</time>
      </trkpt>
      <trkpt lat="42.9446" lon="0.32108">
        <ele>1449</ele>
        <time>2021-08-05T08:22:50Z</time>
      </trkpt>
      <trkpt lat="42.94462" lon="0.32105">
        <ele>1447.6</ele>
        <time>2021-08-05T08:22:51Z</time>
      </trkpt>
      <trkpt lat="42.94463" lon="0.32102">
        <ele>1447</ele>
        <time>2021-08-05T08:22:52Z</time>
      </trkpt>
      <trkpt lat="42.94464" lon="0.32101">
        <ele>1446.2</ele>
        <time>2021-08-05T08:22:53Z</time>
      </trkpt>
      <trkpt lat="42.94464" lon="0.32102">
        <ele>1445.6</ele>
        <time>2021-08-05T08:22:54Z</time>
      </trkpt>
      <trkpt lat="42.94464" lon="0.32102">
        <ele>1444.6</ele>
        <time>2021-08-05T08:22:55Z</time>
      </trkpt>
      <trkpt lat="42.94464" lon="0.32102">
        <ele>1443.8</ele>
        <time>2021-08-05T08:22:56Z</time>
      </trkpt>
      <trkpt lat="42.94464" lon="0.32102">
        <ele>1443.6</ele>
        <time>2021-08-05T08:22:57Z</time>
      </trkpt>
      <trkpt lat="42.94464" lon="0.32102">
        <ele>1443.2</ele>
        <time>2021-08-05T08:22:58Z</time>
      </trkpt>
      <trkpt lat="42.94464" lon="0.32102">
        <ele>1442</ele>
        <time>2021-08-05T08:23:06Z</time>
      </trkpt>
      <trkpt lat="42.94464" lon="0.32102">
        <ele>1441.6</ele>
        <time>2021-08-05T08:23:34Z</time>
      </trkpt>
      <trkpt lat="42.94465" lon="0.32102">
        <ele>1441.4</ele>
        <time>2021-08-05T08:24:02Z</time>
      </trkpt>
      <trkpt lat="42.94465" lon="0.32102">
        <ele>1441.6</ele>
        <time>2021-08-05T08:24:04Z</time>
      </trkpt>
      <trkpt lat="42.94465" lon="0.32102">
        <ele>1442.2</ele>
        <time>2021-08-05T08:24:25Z</time>
      </trkpt>
      <trkpt lat="42.94469" lon="0.32096">
        <ele>1442.4</ele>
        <time>2021-08-05T08:24:28Z</time>
      </trkpt>
      <trkpt lat="42.9447" lon="0.32094">
        <ele>1442.4</ele>
        <time>2021-08-05T08:24:29Z</time>
      </trkpt>
      <trkpt lat="42.94471" lon="0.32092">
        <ele>1442.4</ele>
        <time>2021-08-05T08:24:30Z</time>
      </trkpt>
      <trkpt lat="42.94474" lon="0.32088">
        <ele>1442.6</ele>
        <time>2021-08-05T08:24:32Z</time>
      </trkpt>
      <trkpt lat="42.94476" lon="0.32086">
        <ele>1442.8</ele>
        <time>2021-08-05T08:24:33Z</time>
      </trkpt>
      <trkpt lat="42.94477" lon="0.32084">
        <ele>1442.8</ele>
        <time>2021-08-05T08:24:34Z</time>
      </trkpt>
      <trkpt lat="42.94479" lon="0.3208">
        <ele>1443.8</ele>
        <time>2021-08-05T08:24:36Z</time>
      </trkpt>
      <trkpt lat="42.9448" lon="0.32077">
        <ele>1444.2</ele>
        <time>2021-08-05T08:24:37Z</time>
      </trkpt>
      <trkpt lat="42.94481" lon="0.32075">
        <ele>1444.6</ele>
        <time>2021-08-05T08:24:38Z</time>
      </trkpt>
      <trkpt lat="42.94483" lon="0.32074">
        <ele>1444.6</ele>
        <time>2021-08-05T08:24:39Z</time>
      </trkpt>
      <trkpt lat="42.94487" lon="0.32072">
        <ele>1445.2</ele>
        <time>2021-08-05T08:24:41Z</time>
      </trkpt>
      <trkpt lat="42.94488" lon="0.3207">
        <ele>1445.4</ele>
        <time>2021-08-05T08:24:42Z</time>
      </trkpt>
      <trkpt lat="42.94488" lon="0.32068">
        <ele>1445.6</ele>
        <time>2021-08-05T08:24:43Z</time>
      </trkpt>
      <trkpt lat="42.94489" lon="0.32066">
        <ele>1445.8</ele>
        <time>2021-08-05T08:24:44Z</time>
      </trkpt>
      <trkpt lat="42.94491" lon="0.32065">
        <ele>1445.8</ele>
        <time>2021-08-05T08:24:45Z</time>
      </trkpt>
      <trkpt lat="42.94492" lon="0.32063">
        <ele>1446</ele>
        <time>2021-08-05T08:24:46Z</time>
      </trkpt>
      <trkpt lat="42.94493" lon="0.3206">
        <ele>1446</ele>
        <time>2021-08-05T08:24:47Z</time>
      </trkpt>
      <trkpt lat="42.94494" lon="0.32059">
        <ele>1446.2</ele>
        <time>2021-08-05T08:24:48Z</time>
      </trkpt>
      <trkpt lat="42.94496" lon="0.32057">
        <ele>1446.2</ele>
        <time>2021-08-05T08:24:49Z</time>
      </trkpt>
      <trkpt lat="42.94497" lon="0.32055">
        <ele>1446.2</ele>
        <time>2021-08-05T08:24:50Z</time>
      </trkpt>
      <trkpt lat="42.94498" lon="0.32054">
        <ele>1446.4</ele>
        <time>2021-08-05T08:24:51Z</time>
      </trkpt>
      <trkpt lat="42.945" lon="0.32052">
        <ele>1446.6</ele>
        <time>2021-08-05T08:24:52Z</time>
      </trkpt>
      <trkpt lat="42.94501" lon="0.3205">
        <ele>1446.6</ele>
        <time>2021-08-05T08:24:53Z</time>
      </trkpt>
      <trkpt lat="42.94502" lon="0.32048">
        <ele>1446.6</ele>
        <time>2021-08-05T08:24:54Z</time>
      </trkpt>
      <trkpt lat="42.94503" lon="0.32046">
        <ele>1446.6</ele>
        <time>2021-08-05T08:24:55Z</time>
      </trkpt>
      <trkpt lat="42.94505" lon="0.32045">
        <ele>1446.6</ele>
        <time>2021-08-05T08:24:56Z</time>
      </trkpt>
      <trkpt lat="42.94507" lon="0.32043">
        <ele>1446.6</ele>
        <time>2021-08-05T08:24:57Z</time>
      </trkpt>
      <trkpt lat="42.9451" lon="0.32042">
        <ele>1446.6</ele>
        <time>2021-08-05T08:24:58Z</time>
      </trkpt>
      <trkpt lat="42.94512" lon="0.3204">
        <ele>1446.8</ele>
        <time>2021-08-05T08:24:59Z</time>
      </trkpt>
      <trkpt lat="42.94514" lon="0.32039">
        <ele>1446.8</ele>
        <time>2021-08-05T08:25:00Z</time>
      </trkpt>
      <trkpt lat="42.94514" lon="0.32039">
        <ele>1446.8</ele>
        <time>2021-08-05T08:25:01Z</time>
      </trkpt>
      <trkpt lat="42.94515" lon="0.32037">
        <ele>1446.8</ele>
        <time>2021-08-05T08:25:02Z</time>
      </trkpt>
      <trkpt lat="42.94515" lon="0.32034">
        <ele>1446.6</ele>
        <time>2021-08-05T08:25:03Z</time>
      </trkpt>
      <trkpt lat="42.94517" lon="0.32032">
        <ele>1446.8</ele>
        <time>2021-08-05T08:25:04Z</time>
      </trkpt>
      <trkpt lat="42.94518" lon="0.3203">
        <ele>1446.6</ele>
        <time>2021-08-05T08:25:05Z</time>
      </trkpt>
      <trkpt lat="42.94519" lon="0.32027">
        <ele>1446.6</ele>
        <time>2021-08-05T08:25:06Z</time>
      </trkpt>
      <trkpt lat="42.9452" lon="0.32024">
        <ele>1446.6</ele>
        <time>2021-08-05T08:25:07Z</time>
      </trkpt>
      <trkpt lat="42.94522" lon="0.32022">
        <ele>1446.6</ele>
        <time>2021-08-05T08:25:08Z</time>
      </trkpt>
      <trkpt lat="42.94523" lon="0.32019">
        <ele>1446.6</ele>
        <time>2021-08-05T08:25:09Z</time>
      </trkpt>
      <trkpt lat="42.94526" lon="0.32016">
        <ele>1446.6</ele>
        <time>2021-08-05T08:25:10Z</time>
      </trkpt>
      <trkpt lat="42.94537" lon="0.32009">
        <ele>1446.4</ele>
        <time>2021-08-05T08:25:15Z</time>
      </trkpt>
      <trkpt lat="42.94539" lon="0.32008">
        <ele>1446.4</ele>
        <time>2021-08-05T08:25:16Z</time>
      </trkpt>
      <trkpt lat="42.94542" lon="0.32">
        <ele>1446.4</ele>
        <time>2021-08-05T08:25:19Z</time>
      </trkpt>
      <trkpt lat="42.94546" lon="0.31993">
        <ele>1446.6</ele>
        <time>2021-08-05T08:25:22Z</time>
      </trkpt>
      <trkpt lat="42.94547" lon="0.31992">
        <ele>1446.6</ele>
        <time>2021-08-05T08:25:23Z</time>
      </trkpt>
      <trkpt lat="42.94549" lon="0.31991">
        <ele>1446.6</ele>
        <time>2021-08-05T08:25:24Z</time>
      </trkpt>
      <trkpt lat="42.94551" lon="0.31989">
        <ele>1446.6</ele>
        <time>2021-08-05T08:25:25Z</time>
      </trkpt>
      <trkpt lat="42.94552" lon="0.31988">
        <ele>1446.8</ele>
        <time>2021-08-05T08:25:26Z</time>
      </trkpt>
      <trkpt lat="42.94555" lon="0.31984">
        <ele>1446.8</ele>
        <time>2021-08-05T08:25:28Z</time>
      </trkpt>
      <trkpt lat="42.94556" lon="0.31982">
        <ele>1447</ele>
        <time>2021-08-05T08:25:29Z</time>
      </trkpt>
      <trkpt lat="42.94559" lon="0.31978">
        <ele>1447.2</ele>
        <time>2021-08-05T08:25:31Z</time>
      </trkpt>
      <trkpt lat="42.94561" lon="0.31976">
        <ele>1447.2</ele>
        <time>2021-08-05T08:25:32Z</time>
      </trkpt>
      <trkpt lat="42.94568" lon="0.31965">
        <ele>1447.4</ele>
        <time>2021-08-05T08:25:37Z</time>
      </trkpt>
      <trkpt lat="42.94569" lon="0.31962">
        <ele>1447.4</ele>
        <time>2021-08-05T08:25:38Z</time>
      </trkpt>
      <trkpt lat="42.94575" lon="0.31956">
        <ele>1447.4</ele>
        <time>2021-08-05T08:25:41Z</time>
      </trkpt>
      <trkpt lat="42.94576" lon="0.31955">
        <ele>1447.2</ele>
        <time>2021-08-05T08:25:42Z</time>
      </trkpt>
      <trkpt lat="42.94577" lon="0.31953">
        <ele>1447</ele>
        <time>2021-08-05T08:25:43Z</time>
      </trkpt>
      <trkpt lat="42.94577" lon="0.31953">
        <ele>1446.8</ele>
        <time>2021-08-05T08:25:44Z</time>
      </trkpt>
      <trkpt lat="42.94577" lon="0.31953">
        <ele>1446.8</ele>
        <time>2021-08-05T08:25:45Z</time>
      </trkpt>
      <trkpt lat="42.94577" lon="0.31953">
        <ele>1446.8</ele>
        <time>2021-08-05T08:25:46Z</time>
      </trkpt>
      <trkpt lat="42.94577" lon="0.31953">
        <ele>1446.2</ele>
        <time>2021-08-05T08:25:56Z</time>
      </trkpt>
      <trkpt lat="42.9458" lon="0.31947">
        <ele>1446</ele>
        <time>2021-08-05T08:26:00Z</time>
      </trkpt>
      <trkpt lat="42.94582" lon="0.31944">
        <ele>1446</ele>
        <time>2021-08-05T08:26:01Z</time>
      </trkpt>
      <trkpt lat="42.94583" lon="0.31938">
        <ele>1446</ele>
        <time>2021-08-05T08:26:03Z</time>
      </trkpt>
      <trkpt lat="42.94584" lon="0.31934">
        <ele>1446</ele>
        <time>2021-08-05T08:26:04Z</time>
      </trkpt>
      <trkpt lat="42.94588" lon="0.31923">
        <ele>1446</ele>
        <time>2021-08-05T08:26:07Z</time>
      </trkpt>
      <trkpt lat="42.94589" lon="0.3192">
        <ele>1446</ele>
        <time>2021-08-05T08:26:08Z</time>
      </trkpt>
      <trkpt lat="42.94591" lon="0.31917">
        <ele>1445.8</ele>
        <time>2021-08-05T08:26:09Z</time>
      </trkpt>
      <trkpt lat="42.94593" lon="0.31915">
        <ele>1445.8</ele>
        <time>2021-08-05T08:26:10Z</time>
      </trkpt>
      <trkpt lat="42.94594" lon="0.31913">
        <ele>1445.8</ele>
        <time>2021-08-05T08:26:11Z</time>
      </trkpt>
      <trkpt lat="42.94595" lon="0.31911">
        <ele>1446</ele>
        <time>2021-08-05T08:26:12Z</time>
      </trkpt>
      <trkpt lat="42.94597" lon="0.3191">
        <ele>1446.2</ele>
        <time>2021-08-05T08:26:13Z</time>
      </trkpt>
      <trkpt lat="42.94599" lon="0.31908">
        <ele>1446.2</ele>
        <time>2021-08-05T08:26:14Z</time>
      </trkpt>
      <trkpt lat="42.946" lon="0.31907">
        <ele>1446.2</ele>
        <time>2021-08-05T08:26:15Z</time>
      </trkpt>
      <trkpt lat="42.94601" lon="0.31905">
        <ele>1446.4</ele>
        <time>2021-08-05T08:26:16Z</time>
      </trkpt>
      <trkpt lat="42.94602" lon="0.31903">
        <ele>1446.4</ele>
        <time>2021-08-05T08:26:17Z</time>
      </trkpt>
      <trkpt lat="42.94603" lon="0.31902">
        <ele>1446.8</ele>
        <time>2021-08-05T08:26:18Z</time>
      </trkpt>
      <trkpt lat="42.94604" lon="0.31901">
        <ele>1446.8</ele>
        <time>2021-08-05T08:26:19Z</time>
      </trkpt>
      <trkpt lat="42.94604" lon="0.31901">
        <ele>1447.2</ele>
        <time>2021-08-05T08:26:20Z</time>
      </trkpt>
      <trkpt lat="42.94604" lon="0.31901">
        <ele>1447.4</ele>
        <time>2021-08-05T08:26:22Z</time>
      </trkpt>
      <trkpt lat="42.94607" lon="0.31894">
        <ele>1447.6</ele>
        <time>2021-08-05T08:26:40Z</time>
      </trkpt>
      <trkpt lat="42.9461" lon="0.31888">
        <ele>1447.6</ele>
        <time>2021-08-05T08:26:43Z</time>
      </trkpt>
      <trkpt lat="42.94611" lon="0.31886">
        <ele>1447.6</ele>
        <time>2021-08-05T08:26:44Z</time>
      </trkpt>
      <trkpt lat="42.94613" lon="0.31881">
        <ele>1447.4</ele>
        <time>2021-08-05T08:26:46Z</time>
      </trkpt>
      <trkpt lat="42.94617" lon="0.31877">
        <ele>1447.4</ele>
        <time>2021-08-05T08:26:49Z</time>
      </trkpt>
      <trkpt lat="42.94618" lon="0.31875">
        <ele>1447.6</ele>
        <time>2021-08-05T08:26:50Z</time>
      </trkpt>
      <trkpt lat="42.94619" lon="0.31874">
        <ele>1447.6</ele>
        <time>2021-08-05T08:26:51Z</time>
      </trkpt>
      <trkpt lat="42.9462" lon="0.31872">
        <ele>1447.8</ele>
        <time>2021-08-05T08:26:52Z</time>
      </trkpt>
      <trkpt lat="42.94622" lon="0.31871">
        <ele>1447.8</ele>
        <time>2021-08-05T08:26:53Z</time>
      </trkpt>
      <trkpt lat="42.94631" lon="0.3186">
        <ele>1448.2</ele>
        <time>2021-08-05T08:27:00Z</time>
      </trkpt>
      <trkpt lat="42.9464" lon="0.31845">
        <ele>1448.2</ele>
        <time>2021-08-05T08:27:07Z</time>
      </trkpt>
      <trkpt lat="42.94643" lon="0.31841">
        <ele>1448.2</ele>
        <time>2021-08-05T08:27:09Z</time>
      </trkpt>
      <trkpt lat="42.94644" lon="0.3184">
        <ele>1448.2</ele>
        <time>2021-08-05T08:27:10Z</time>
      </trkpt>
      <trkpt lat="42.94645" lon="0.31838">
        <ele>1448.2</ele>
        <time>2021-08-05T08:27:11Z</time>
      </trkpt>
      <trkpt lat="42.94646" lon="0.31836">
        <ele>1448.2</ele>
        <time>2021-08-05T08:27:12Z</time>
      </trkpt>
      <trkpt lat="42.94648" lon="0.31834">
        <ele>1448.2</ele>
        <time>2021-08-05T08:27:13Z</time>
      </trkpt>
      <trkpt lat="42.9465" lon="0.31831">
        <ele>1448</ele>
        <time>2021-08-05T08:27:15Z</time>
      </trkpt>
      <trkpt lat="42.94652" lon="0.31829">
        <ele>1448</ele>
        <time>2021-08-05T08:27:16Z</time>
      </trkpt>
      <trkpt lat="42.94653" lon="0.31828">
        <ele>1448</ele>
        <time>2021-08-05T08:27:17Z</time>
      </trkpt>
      <trkpt lat="42.94655" lon="0.31826">
        <ele>1448</ele>
        <time>2021-08-05T08:27:18Z</time>
      </trkpt>
      <trkpt lat="42.94656" lon="0.31824">
        <ele>1448</ele>
        <time>2021-08-05T08:27:19Z</time>
      </trkpt>
      <trkpt lat="42.94658" lon="0.31823">
        <ele>1448</ele>
        <time>2021-08-05T08:27:20Z</time>
      </trkpt>
      <trkpt lat="42.94665" lon="0.31816">
        <ele>1448</ele>
        <time>2021-08-05T08:27:25Z</time>
      </trkpt>
      <trkpt lat="42.94667" lon="0.31815">
        <ele>1448.2</ele>
        <time>2021-08-05T08:27:26Z</time>
      </trkpt>
      <trkpt lat="42.94668" lon="0.31815">
        <ele>1448.2</ele>
        <time>2021-08-05T08:27:27Z</time>
      </trkpt>
      <trkpt lat="42.94672" lon="0.31814">
        <ele>1448.2</ele>
        <time>2021-08-05T08:27:29Z</time>
      </trkpt>
      <trkpt lat="42.94687" lon="0.31809">
        <ele>1448.2</ele>
        <time>2021-08-05T08:27:35Z</time>
      </trkpt>
      <trkpt lat="42.94689" lon="0.31808">
        <ele>1448.2</ele>
        <time>2021-08-05T08:27:36Z</time>
      </trkpt>
      <trkpt lat="42.9469" lon="0.31807">
        <ele>1448.2</ele>
        <time>2021-08-05T08:27:37Z</time>
      </trkpt>
      <trkpt lat="42.94691" lon="0.31805">
        <ele>1448.2</ele>
        <time>2021-08-05T08:27:38Z</time>
      </trkpt>
      <trkpt lat="42.94691" lon="0.31804">
        <ele>1448</ele>
        <time>2021-08-05T08:27:39Z</time>
      </trkpt>
      <trkpt lat="42.94691" lon="0.318">
        <ele>1447.8</ele>
        <time>2021-08-05T08:27:41Z</time>
      </trkpt>
      <trkpt lat="42.94691" lon="0.31799">
        <ele>1447.6</ele>
        <time>2021-08-05T08:27:42Z</time>
      </trkpt>
      <trkpt lat="42.94692" lon="0.31797">
        <ele>1447.4</ele>
        <time>2021-08-05T08:27:43Z</time>
      </trkpt>
      <trkpt lat="42.94692" lon="0.31795">
        <ele>1447.4</ele>
        <time>2021-08-05T08:27:44Z</time>
      </trkpt>
      <trkpt lat="42.94692" lon="0.31793">
        <ele>1447.4</ele>
        <time>2021-08-05T08:27:45Z</time>
      </trkpt>
      <trkpt lat="42.94693" lon="0.31792">
        <ele>1447.4</ele>
        <time>2021-08-05T08:27:46Z</time>
      </trkpt>
      <trkpt lat="42.94693" lon="0.3179">
        <ele>1447.4</ele>
        <time>2021-08-05T08:27:47Z</time>
      </trkpt>
      <trkpt lat="42.94693" lon="0.31788">
        <ele>1447.2</ele>
        <time>2021-08-05T08:27:48Z</time>
      </trkpt>
      <trkpt lat="42.94693" lon="0.31786">
        <ele>1447.2</ele>
        <time>2021-08-05T08:27:49Z</time>
      </trkpt>
      <trkpt lat="42.94693" lon="0.31784">
        <ele>1447.2</ele>
        <time>2021-08-05T08:27:50Z</time>
      </trkpt>
      <trkpt lat="42.94693" lon="0.31783">
        <ele>1447.2</ele>
        <time>2021-08-05T08:27:51Z</time>
      </trkpt>
      <trkpt lat="42.94693" lon="0.31781">
        <ele>1447.2</ele>
        <time>2021-08-05T08:27:52Z</time>
      </trkpt>
      <trkpt lat="42.94693" lon="0.3178">
        <ele>1447</ele>
        <time>2021-08-05T08:27:53Z</time>
      </trkpt>
      <trkpt lat="42.94693" lon="0.31778">
        <ele>1447</ele>
        <time>2021-08-05T08:27:54Z</time>
      </trkpt>
      <trkpt lat="42.94692" lon="0.31775">
        <ele>1447</ele>
        <time>2021-08-05T08:27:55Z</time>
      </trkpt>
      <trkpt lat="42.94692" lon="0.31773">
        <ele>1447</ele>
        <time>2021-08-05T08:27:56Z</time>
      </trkpt>
      <trkpt lat="42.94693" lon="0.3177">
        <ele>1446.8</ele>
        <time>2021-08-05T08:27:57Z</time>
      </trkpt>
      <trkpt lat="42.94693" lon="0.31768">
        <ele>1446.8</ele>
        <time>2021-08-05T08:27:58Z</time>
      </trkpt>
      <trkpt lat="42.94694" lon="0.31767">
        <ele>1446.8</ele>
        <time>2021-08-05T08:27:59Z</time>
      </trkpt>
      <trkpt lat="42.94694" lon="0.31765">
        <ele>1446.6</ele>
        <time>2021-08-05T08:28:00Z</time>
      </trkpt>
      <trkpt lat="42.94695" lon="0.31763">
        <ele>1446.6</ele>
        <time>2021-08-05T08:28:01Z</time>
      </trkpt>
      <trkpt lat="42.94695" lon="0.31761">
        <ele>1446.6</ele>
        <time>2021-08-05T08:28:02Z</time>
      </trkpt>
      <trkpt lat="42.94694" lon="0.31758">
        <ele>1446.6</ele>
        <time>2021-08-05T08:28:03Z</time>
      </trkpt>
      <trkpt lat="42.94693" lon="0.31755">
        <ele>1446.6</ele>
        <time>2021-08-05T08:28:04Z</time>
      </trkpt>
      <trkpt lat="42.94693" lon="0.31752">
        <ele>1446.6</ele>
        <time>2021-08-05T08:28:05Z</time>
      </trkpt>
      <trkpt lat="42.94692" lon="0.31749">
        <ele>1446.4</ele>
        <time>2021-08-05T08:28:06Z</time>
      </trkpt>
      <trkpt lat="42.94691" lon="0.3174">
        <ele>1445.8</ele>
        <time>2021-08-05T08:28:10Z</time>
      </trkpt>
      <trkpt lat="42.94691" lon="0.31737">
        <ele>1445.8</ele>
        <time>2021-08-05T08:28:11Z</time>
      </trkpt>
      <trkpt lat="42.9469" lon="0.31732">
        <ele>1445.6</ele>
        <time>2021-08-05T08:28:12Z</time>
      </trkpt>
      <trkpt lat="42.94691" lon="0.31725">
        <ele>1445.4</ele>
        <time>2021-08-05T08:28:13Z</time>
      </trkpt>
      <trkpt lat="42.94696" lon="0.31719">
        <ele>1445</ele>
        <time>2021-08-05T08:28:15Z</time>
      </trkpt>
      <trkpt lat="42.94698" lon="0.31714">
        <ele>1444.8</ele>
        <time>2021-08-05T08:28:17Z</time>
      </trkpt>
      <trkpt lat="42.947" lon="0.31712">
        <ele>1444.8</ele>
        <time>2021-08-05T08:28:18Z</time>
      </trkpt>
      <trkpt lat="42.94702" lon="0.31711">
        <ele>1444.4</ele>
        <time>2021-08-05T08:28:19Z</time>
      </trkpt>
      <trkpt lat="42.94702" lon="0.31708">
        <ele>1444.4</ele>
        <time>2021-08-05T08:28:20Z</time>
      </trkpt>
      <trkpt lat="42.94702" lon="0.31704">
        <ele>1444</ele>
        <time>2021-08-05T08:28:21Z</time>
      </trkpt>
      <trkpt lat="42.94702" lon="0.31701">
        <ele>1444</ele>
        <time>2021-08-05T08:28:22Z</time>
      </trkpt>
      <trkpt lat="42.94702" lon="0.31697">
        <ele>1443.8</ele>
        <time>2021-08-05T08:28:23Z</time>
      </trkpt>
      <trkpt lat="42.94703" lon="0.31696">
        <ele>1443.8</ele>
        <time>2021-08-05T08:28:24Z</time>
      </trkpt>
      <trkpt lat="42.94703" lon="0.31694">
        <ele>1443.6</ele>
        <time>2021-08-05T08:28:25Z</time>
      </trkpt>
      <trkpt lat="42.94702" lon="0.31691">
        <ele>1443.6</ele>
        <time>2021-08-05T08:28:26Z</time>
      </trkpt>
      <trkpt lat="42.94701" lon="0.31687">
        <ele>1443.6</ele>
        <time>2021-08-05T08:28:29Z</time>
      </trkpt>
      <trkpt lat="42.947" lon="0.31686">
        <ele>1443.6</ele>
        <time>2021-08-05T08:28:30Z</time>
      </trkpt>
      <trkpt lat="42.94698" lon="0.31685">
        <ele>1443.6</ele>
        <time>2021-08-05T08:28:31Z</time>
      </trkpt>
      <trkpt lat="42.94697" lon="0.31683">
        <ele>1443.6</ele>
        <time>2021-08-05T08:28:32Z</time>
      </trkpt>
      <trkpt lat="42.94695" lon="0.31681">
        <ele>1443.6</ele>
        <time>2021-08-05T08:28:33Z</time>
      </trkpt>
      <trkpt lat="42.94694" lon="0.3168">
        <ele>1443.8</ele>
        <time>2021-08-05T08:28:34Z</time>
      </trkpt>
      <trkpt lat="42.9469" lon="0.31674">
        <ele>1444</ele>
        <time>2021-08-05T08:28:37Z</time>
      </trkpt>
      <trkpt lat="42.94689" lon="0.31671">
        <ele>1444</ele>
        <time>2021-08-05T08:28:38Z</time>
      </trkpt>
      <trkpt lat="42.94688" lon="0.3167">
        <ele>1444</ele>
        <time>2021-08-05T08:28:39Z</time>
      </trkpt>
      <trkpt lat="42.94688" lon="0.31668">
        <ele>1444.2</ele>
        <time>2021-08-05T08:28:40Z</time>
      </trkpt>
      <trkpt lat="42.94688" lon="0.31663">
        <ele>1444.2</ele>
        <time>2021-08-05T08:28:42Z</time>
      </trkpt>
      <trkpt lat="42.94688" lon="0.31661">
        <ele>1444.2</ele>
        <time>2021-08-05T08:28:43Z</time>
      </trkpt>
      <trkpt lat="42.94688" lon="0.31659">
        <ele>1444.6</ele>
        <time>2021-08-05T08:28:44Z</time>
      </trkpt>
      <trkpt lat="42.94687" lon="0.31657">
        <ele>1444.8</ele>
        <time>2021-08-05T08:28:45Z</time>
      </trkpt>
      <trkpt lat="42.94687" lon="0.31655">
        <ele>1445</ele>
        <time>2021-08-05T08:28:46Z</time>
      </trkpt>
      <trkpt lat="42.94687" lon="0.31653">
        <ele>1445.2</ele>
        <time>2021-08-05T08:28:47Z</time>
      </trkpt>
      <trkpt lat="42.94686" lon="0.31651">
        <ele>1445.4</ele>
        <time>2021-08-05T08:28:48Z</time>
      </trkpt>
      <trkpt lat="42.94685" lon="0.31649">
        <ele>1445.6</ele>
        <time>2021-08-05T08:28:49Z</time>
      </trkpt>
      <trkpt lat="42.94684" lon="0.31647">
        <ele>1445.8</ele>
        <time>2021-08-05T08:28:50Z</time>
      </trkpt>
      <trkpt lat="42.94684" lon="0.31645">
        <ele>1446.2</ele>
        <time>2021-08-05T08:28:51Z</time>
      </trkpt>
      <trkpt lat="42.94684" lon="0.31645">
        <ele>1446.2</ele>
        <time>2021-08-05T08:28:52Z</time>
      </trkpt>
      <trkpt lat="42.94684" lon="0.31645">
        <ele>1446.4</ele>
        <time>2021-08-05T08:28:53Z</time>
      </trkpt>
      <trkpt lat="42.94684" lon="0.31644">
        <ele>1446.4</ele>
        <time>2021-08-05T08:28:54Z</time>
      </trkpt>
      <trkpt lat="42.94685" lon="0.31642">
        <ele>1446.4</ele>
        <time>2021-08-05T08:28:55Z</time>
      </trkpt>
      <trkpt lat="42.94684" lon="0.31638">
        <ele>1446.6</ele>
        <time>2021-08-05T08:28:57Z</time>
      </trkpt>
      <trkpt lat="42.94684" lon="0.31636">
        <ele>1446.6</ele>
        <time>2021-08-05T08:28:58Z</time>
      </trkpt>
      <trkpt lat="42.94685" lon="0.31635">
        <ele>1446.8</ele>
        <time>2021-08-05T08:28:59Z</time>
      </trkpt>
      <trkpt lat="42.94685" lon="0.31634">
        <ele>1446.8</ele>
        <time>2021-08-05T08:29:00Z</time>
      </trkpt>
      <trkpt lat="42.94685" lon="0.31632">
        <ele>1446.8</ele>
        <time>2021-08-05T08:29:01Z</time>
      </trkpt>
      <trkpt lat="42.94685" lon="0.3163">
        <ele>1446.8</ele>
        <time>2021-08-05T08:29:02Z</time>
      </trkpt>
      <trkpt lat="42.94685" lon="0.31628">
        <ele>1446.8</ele>
        <time>2021-08-05T08:29:03Z</time>
      </trkpt>
      <trkpt lat="42.94685" lon="0.31627">
        <ele>1447</ele>
        <time>2021-08-05T08:29:04Z</time>
      </trkpt>
      <trkpt lat="42.94685" lon="0.31625">
        <ele>1447</ele>
        <time>2021-08-05T08:29:05Z</time>
      </trkpt>
      <trkpt lat="42.94685" lon="0.31623">
        <ele>1447</ele>
        <time>2021-08-05T08:29:06Z</time>
      </trkpt>
      <trkpt lat="42.94684" lon="0.31622">
        <ele>1447</ele>
        <time>2021-08-05T08:29:07Z</time>
      </trkpt>
      <trkpt lat="42.94684" lon="0.3162">
        <ele>1447</ele>
        <time>2021-08-05T08:29:08Z</time>
      </trkpt>
      <trkpt lat="42.94682" lon="0.31618">
        <ele>1447</ele>
        <time>2021-08-05T08:29:09Z</time>
      </trkpt>
      <trkpt lat="42.94682" lon="0.31616">
        <ele>1447</ele>
        <time>2021-08-05T08:29:10Z</time>
      </trkpt>
      <trkpt lat="42.94681" lon="0.31612">
        <ele>1447</ele>
        <time>2021-08-05T08:29:12Z</time>
      </trkpt>
      <trkpt lat="42.94681" lon="0.31608">
        <ele>1447.2</ele>
        <time>2021-08-05T08:29:14Z</time>
      </trkpt>
      <trkpt lat="42.94679" lon="0.31603">
        <ele>1447.2</ele>
        <time>2021-08-05T08:29:17Z</time>
      </trkpt>
      <trkpt lat="42.94679" lon="0.31603">
        <ele>1447.2</ele>
        <time>2021-08-05T08:29:18Z</time>
      </trkpt>
      <trkpt lat="42.94679" lon="0.31603">
        <ele>1447.4</ele>
        <time>2021-08-05T08:29:24Z</time>
      </trkpt>
      <trkpt lat="42.94679" lon="0.31603">
        <ele>1447</ele>
        <time>2021-08-05T08:29:48Z</time>
      </trkpt>
      <trkpt lat="42.94677" lon="0.31599">
        <ele>1446.8</ele>
        <time>2021-08-05T08:30:03Z</time>
      </trkpt>
      <trkpt lat="42.94677" lon="0.31599">
        <ele>1446.8</ele>
        <time>2021-08-05T08:30:04Z</time>
      </trkpt>
      <trkpt lat="42.94677" lon="0.31599">
        <ele>1446.8</ele>
        <time>2021-08-05T08:30:05Z</time>
      </trkpt>
      <trkpt lat="42.94677" lon="0.31599">
        <ele>1446.8</ele>
        <time>2021-08-05T08:30:06Z</time>
      </trkpt>
      <trkpt lat="42.94676" lon="0.31598">
        <ele>1446.6</ele>
        <time>2021-08-05T08:32:12Z</time>
      </trkpt>
      <trkpt lat="42.94676" lon="0.31597">
        <ele>1446.4</ele>
        <time>2021-08-05T08:32:34Z</time>
      </trkpt>
      <trkpt lat="42.94675" lon="0.31596">
        <ele>1446.4</ele>
        <time>2021-08-05T08:32:35Z</time>
      </trkpt>
      <trkpt lat="42.94673" lon="0.31591">
        <ele>1446.6</ele>
        <time>2021-08-05T08:32:37Z</time>
      </trkpt>
      <trkpt lat="42.94672" lon="0.31588">
        <ele>1446.4</ele>
        <time>2021-08-05T08:32:39Z</time>
      </trkpt>
      <trkpt lat="42.9467" lon="0.31586">
        <ele>1446.4</ele>
        <time>2021-08-05T08:32:40Z</time>
      </trkpt>
      <trkpt lat="42.94667" lon="0.31583">
        <ele>1446.4</ele>
        <time>2021-08-05T08:32:42Z</time>
      </trkpt>
      <trkpt lat="42.94666" lon="0.3158">
        <ele>1446.4</ele>
        <time>2021-08-05T08:32:43Z</time>
      </trkpt>
      <trkpt lat="42.94665" lon="0.31579">
        <ele>1446.6</ele>
        <time>2021-08-05T08:32:44Z</time>
      </trkpt>
      <trkpt lat="42.94653" lon="0.31566">
        <ele>1447.4</ele>
        <time>2021-08-05T08:32:52Z</time>
      </trkpt>
      <trkpt lat="42.94651" lon="0.31565">
        <ele>1447.6</ele>
        <time>2021-08-05T08:32:53Z</time>
      </trkpt>
      <trkpt lat="42.94649" lon="0.31561">
        <ele>1447.6</ele>
        <time>2021-08-05T08:32:55Z</time>
      </trkpt>
      <trkpt lat="42.94648" lon="0.3156">
        <ele>1447.8</ele>
        <time>2021-08-05T08:32:56Z</time>
      </trkpt>
      <trkpt lat="42.94647" lon="0.31558">
        <ele>1447.8</ele>
        <time>2021-08-05T08:32:57Z</time>
      </trkpt>
      <trkpt lat="42.94645" lon="0.31554">
        <ele>1447.8</ele>
        <time>2021-08-05T08:32:59Z</time>
      </trkpt>
      <trkpt lat="42.94644" lon="0.31552">
        <ele>1448</ele>
        <time>2021-08-05T08:33:00Z</time>
      </trkpt>
      <trkpt lat="42.94643" lon="0.3155">
        <ele>1448</ele>
        <time>2021-08-05T08:33:01Z</time>
      </trkpt>
      <trkpt lat="42.94638" lon="0.31539">
        <ele>1448.8</ele>
        <time>2021-08-05T08:33:06Z</time>
      </trkpt>
      <trkpt lat="42.94637" lon="0.31537">
        <ele>1449</ele>
        <time>2021-08-05T08:33:07Z</time>
      </trkpt>
      <trkpt lat="42.94629" lon="0.31522">
        <ele>1450</ele>
        <time>2021-08-05T08:33:13Z</time>
      </trkpt>
      <trkpt lat="42.94628" lon="0.3152">
        <ele>1450</ele>
        <time>2021-08-05T08:33:14Z</time>
      </trkpt>
      <trkpt lat="42.94627" lon="0.31517">
        <ele>1450</ele>
        <time>2021-08-05T08:33:15Z</time>
      </trkpt>
      <trkpt lat="42.94626" lon="0.31515">
        <ele>1450.2</ele>
        <time>2021-08-05T08:33:16Z</time>
      </trkpt>
      <trkpt lat="42.94624" lon="0.31512">
        <ele>1450.2</ele>
        <time>2021-08-05T08:33:17Z</time>
      </trkpt>
      <trkpt lat="42.94623" lon="0.3151">
        <ele>1450.2</ele>
        <time>2021-08-05T08:33:18Z</time>
      </trkpt>
      <trkpt lat="42.94622" lon="0.31507">
        <ele>1450.2</ele>
        <time>2021-08-05T08:33:19Z</time>
      </trkpt>
      <trkpt lat="42.94621" lon="0.31504">
        <ele>1450.2</ele>
        <time>2021-08-05T08:33:20Z</time>
      </trkpt>
      <trkpt lat="42.9462" lon="0.31501">
        <ele>1450.2</ele>
        <time>2021-08-05T08:33:21Z</time>
      </trkpt>
      <trkpt lat="42.94619" lon="0.31499">
        <ele>1450.4</ele>
        <time>2021-08-05T08:33:22Z</time>
      </trkpt>
      <trkpt lat="42.94616" lon="0.31494">
        <ele>1450.4</ele>
        <time>2021-08-05T08:33:24Z</time>
      </trkpt>
      <trkpt lat="42.94611" lon="0.31486">
        <ele>1450.8</ele>
        <time>2021-08-05T08:33:28Z</time>
      </trkpt>
      <trkpt lat="42.9461" lon="0.31483">
        <ele>1450.8</ele>
        <time>2021-08-05T08:33:29Z</time>
      </trkpt>
      <trkpt lat="42.94609" lon="0.31481">
        <ele>1450.8</ele>
        <time>2021-08-05T08:33:30Z</time>
      </trkpt>
      <trkpt lat="42.94608" lon="0.31479">
        <ele>1450.8</ele>
        <time>2021-08-05T08:33:31Z</time>
      </trkpt>
      <trkpt lat="42.94607" lon="0.31478">
        <ele>1451</ele>
        <time>2021-08-05T08:33:32Z</time>
      </trkpt>
      <trkpt lat="42.94606" lon="0.31477">
        <ele>1451</ele>
        <time>2021-08-05T08:33:33Z</time>
      </trkpt>
      <trkpt lat="42.94606" lon="0.31476">
        <ele>1451</ele>
        <time>2021-08-05T08:33:34Z</time>
      </trkpt>
      <trkpt lat="42.94605" lon="0.31475">
        <ele>1451</ele>
        <time>2021-08-05T08:33:35Z</time>
      </trkpt>
      <trkpt lat="42.94604" lon="0.31474">
        <ele>1451.2</ele>
        <time>2021-08-05T08:33:36Z</time>
      </trkpt>
      <trkpt lat="42.94603" lon="0.31473">
        <ele>1451.2</ele>
        <time>2021-08-05T08:33:37Z</time>
      </trkpt>
      <trkpt lat="42.94603" lon="0.31472">
        <ele>1451.2</ele>
        <time>2021-08-05T08:33:38Z</time>
      </trkpt>
      <trkpt lat="42.94603" lon="0.31472">
        <ele>1451.2</ele>
        <time>2021-08-05T08:33:39Z</time>
      </trkpt>
      <trkpt lat="42.94603" lon="0.31472">
        <ele>1451.4</ele>
        <time>2021-08-05T08:33:40Z</time>
      </trkpt>
      <trkpt lat="42.94603" lon="0.31472">
        <ele>1451.4</ele>
        <time>2021-08-05T08:33:41Z</time>
      </trkpt>
      <trkpt lat="42.94602" lon="0.3147">
        <ele>1451.2</ele>
        <time>2021-08-05T08:33:52Z</time>
      </trkpt>
      <trkpt lat="42.946" lon="0.31463">
        <ele>1451</ele>
        <time>2021-08-05T08:34:31Z</time>
      </trkpt>
      <trkpt lat="42.94598" lon="0.31455">
        <ele>1451</ele>
        <time>2021-08-05T08:34:34Z</time>
      </trkpt>
      <trkpt lat="42.94596" lon="0.31446">
        <ele>1451.4</ele>
        <time>2021-08-05T08:34:38Z</time>
      </trkpt>
      <trkpt lat="42.94594" lon="0.31436">
        <ele>1452.2</ele>
        <time>2021-08-05T08:34:43Z</time>
      </trkpt>
      <trkpt lat="42.94594" lon="0.31434">
        <ele>1452.2</ele>
        <time>2021-08-05T08:34:44Z</time>
      </trkpt>
      <trkpt lat="42.94594" lon="0.31432">
        <ele>1452.4</ele>
        <time>2021-08-05T08:34:45Z</time>
      </trkpt>
      <trkpt lat="42.94594" lon="0.31431">
        <ele>1452.6</ele>
        <time>2021-08-05T08:34:46Z</time>
      </trkpt>
      <trkpt lat="42.94594" lon="0.3143">
        <ele>1452.6</ele>
        <time>2021-08-05T08:34:47Z</time>
      </trkpt>
      <trkpt lat="42.94594" lon="0.3143">
        <ele>1452.8</ele>
        <time>2021-08-05T08:34:49Z</time>
      </trkpt>
      <trkpt lat="42.94594" lon="0.3143">
        <ele>1453.4</ele>
        <time>2021-08-05T08:34:54Z</time>
      </trkpt>
      <trkpt lat="42.94592" lon="0.31423">
        <ele>1453.6</ele>
        <time>2021-08-05T08:35:23Z</time>
      </trkpt>
      <trkpt lat="42.94591" lon="0.31413">
        <ele>1453.6</ele>
        <time>2021-08-05T08:35:27Z</time>
      </trkpt>
      <trkpt lat="42.9459" lon="0.31406">
        <ele>1453.8</ele>
        <time>2021-08-05T08:35:30Z</time>
      </trkpt>
      <trkpt lat="42.94589" lon="0.31392">
        <ele>1454.4</ele>
        <time>2021-08-05T08:35:36Z</time>
      </trkpt>
      <trkpt lat="42.94588" lon="0.3139">
        <ele>1454.6</ele>
        <time>2021-08-05T08:35:37Z</time>
      </trkpt>
      <trkpt lat="42.94588" lon="0.31387">
        <ele>1454.6</ele>
        <time>2021-08-05T08:35:38Z</time>
      </trkpt>
      <trkpt lat="42.94588" lon="0.31381">
        <ele>1454.8</ele>
        <time>2021-08-05T08:35:41Z</time>
      </trkpt>
      <trkpt lat="42.94587" lon="0.31379">
        <ele>1455</ele>
        <time>2021-08-05T08:35:42Z</time>
      </trkpt>
      <trkpt lat="42.94587" lon="0.31378">
        <ele>1455</ele>
        <time>2021-08-05T08:35:43Z</time>
      </trkpt>
      <trkpt lat="42.94587" lon="0.31376">
        <ele>1455</ele>
        <time>2021-08-05T08:35:44Z</time>
      </trkpt>
      <trkpt lat="42.94586" lon="0.31374">
        <ele>1455.2</ele>
        <time>2021-08-05T08:35:45Z</time>
      </trkpt>
      <trkpt lat="42.94586" lon="0.31372">
        <ele>1455.2</ele>
        <time>2021-08-05T08:35:46Z</time>
      </trkpt>
      <trkpt lat="42.94586" lon="0.3137">
        <ele>1455.2</ele>
        <time>2021-08-05T08:35:47Z</time>
      </trkpt>
      <trkpt lat="42.94586" lon="0.31361">
        <ele>1455.4</ele>
        <time>2021-08-05T08:35:51Z</time>
      </trkpt>
      <trkpt lat="42.94585" lon="0.31359">
        <ele>1455.4</ele>
        <time>2021-08-05T08:35:52Z</time>
      </trkpt>
      <trkpt lat="42.94584" lon="0.31355">
        <ele>1455.6</ele>
        <time>2021-08-05T08:35:54Z</time>
      </trkpt>
      <trkpt lat="42.94584" lon="0.31352">
        <ele>1455.6</ele>
        <time>2021-08-05T08:35:55Z</time>
      </trkpt>
      <trkpt lat="42.94584" lon="0.3135">
        <ele>1455.8</ele>
        <time>2021-08-05T08:35:56Z</time>
      </trkpt>
      <trkpt lat="42.94582" lon="0.31334">
        <ele>1455.8</ele>
        <time>2021-08-05T08:36:01Z</time>
      </trkpt>
      <trkpt lat="42.94581" lon="0.31329">
        <ele>1455.8</ele>
        <time>2021-08-05T08:36:03Z</time>
      </trkpt>
      <trkpt lat="42.94581" lon="0.31327">
        <ele>1455.8</ele>
        <time>2021-08-05T08:36:04Z</time>
      </trkpt>
      <trkpt lat="42.94581" lon="0.31325">
        <ele>1455.8</ele>
        <time>2021-08-05T08:36:05Z</time>
      </trkpt>
      <trkpt lat="42.9458" lon="0.31322">
        <ele>1455.6</ele>
        <time>2021-08-05T08:36:06Z</time>
      </trkpt>
      <trkpt lat="42.94579" lon="0.31317">
        <ele>1455.6</ele>
        <time>2021-08-05T08:36:08Z</time>
      </trkpt>
      <trkpt lat="42.94574" lon="0.31292">
        <ele>1455.6</ele>
        <time>2021-08-05T08:36:17Z</time>
      </trkpt>
      <trkpt lat="42.94566" lon="0.31274">
        <ele>1455.6</ele>
        <time>2021-08-05T08:36:24Z</time>
      </trkpt>
      <trkpt lat="42.94565" lon="0.31272">
        <ele>1455.8</ele>
        <time>2021-08-05T08:36:25Z</time>
      </trkpt>
      <trkpt lat="42.94564" lon="0.3127">
        <ele>1455.8</ele>
        <time>2021-08-05T08:36:26Z</time>
      </trkpt>
      <trkpt lat="42.94563" lon="0.31268">
        <ele>1456</ele>
        <time>2021-08-05T08:36:27Z</time>
      </trkpt>
      <trkpt lat="42.94563" lon="0.31266">
        <ele>1456</ele>
        <time>2021-08-05T08:36:28Z</time>
      </trkpt>
      <trkpt lat="42.94562" lon="0.31265">
        <ele>1456</ele>
        <time>2021-08-05T08:36:29Z</time>
      </trkpt>
      <trkpt lat="42.94561" lon="0.31263">
        <ele>1456</ele>
        <time>2021-08-05T08:36:30Z</time>
      </trkpt>
      <trkpt lat="42.9456" lon="0.31261">
        <ele>1456.2</ele>
        <time>2021-08-05T08:36:31Z</time>
      </trkpt>
      <trkpt lat="42.9456" lon="0.31259">
        <ele>1456.4</ele>
        <time>2021-08-05T08:36:32Z</time>
      </trkpt>
      <trkpt lat="42.94559" lon="0.31257">
        <ele>1456.6</ele>
        <time>2021-08-05T08:36:33Z</time>
      </trkpt>
      <trkpt lat="42.94559" lon="0.31255">
        <ele>1456.6</ele>
        <time>2021-08-05T08:36:34Z</time>
      </trkpt>
      <trkpt lat="42.94558" lon="0.31254">
        <ele>1456.8</ele>
        <time>2021-08-05T08:36:35Z</time>
      </trkpt>
      <trkpt lat="42.94558" lon="0.31252">
        <ele>1456.8</ele>
        <time>2021-08-05T08:36:36Z</time>
      </trkpt>
      <trkpt lat="42.94557" lon="0.3125">
        <ele>1457.2</ele>
        <time>2021-08-05T08:36:37Z</time>
      </trkpt>
      <trkpt lat="42.94557" lon="0.31249">
        <ele>1457.4</ele>
        <time>2021-08-05T08:36:38Z</time>
      </trkpt>
      <trkpt lat="42.94557" lon="0.31248">
        <ele>1457.8</ele>
        <time>2021-08-05T08:36:39Z</time>
      </trkpt>
      <trkpt lat="42.94557" lon="0.31246">
        <ele>1458</ele>
        <time>2021-08-05T08:36:40Z</time>
      </trkpt>
      <trkpt lat="42.94556" lon="0.31244">
        <ele>1458.2</ele>
        <time>2021-08-05T08:36:41Z</time>
      </trkpt>
      <trkpt lat="42.94555" lon="0.31242">
        <ele>1458.2</ele>
        <time>2021-08-05T08:36:42Z</time>
      </trkpt>
      <trkpt lat="42.94555" lon="0.3124">
        <ele>1458.4</ele>
        <time>2021-08-05T08:36:43Z</time>
      </trkpt>
      <trkpt lat="42.94554" lon="0.31236">
        <ele>1458.6</ele>
        <time>2021-08-05T08:36:45Z</time>
      </trkpt>
      <trkpt lat="42.94553" lon="0.31234">
        <ele>1458.6</ele>
        <time>2021-08-05T08:36:46Z</time>
      </trkpt>
      <trkpt lat="42.94553" lon="0.31232">
        <ele>1458.8</ele>
        <time>2021-08-05T08:36:47Z</time>
      </trkpt>
      <trkpt lat="42.94552" lon="0.3123">
        <ele>1458.8</ele>
        <time>2021-08-05T08:36:48Z</time>
      </trkpt>
      <trkpt lat="42.94552" lon="0.31228">
        <ele>1458.8</ele>
        <time>2021-08-05T08:36:49Z</time>
      </trkpt>
      <trkpt lat="42.94551" lon="0.31226">
        <ele>1459</ele>
        <time>2021-08-05T08:36:50Z</time>
      </trkpt>
      <trkpt lat="42.9455" lon="0.31224">
        <ele>1459</ele>
        <time>2021-08-05T08:36:51Z</time>
      </trkpt>
      <trkpt lat="42.9455" lon="0.31222">
        <ele>1459.2</ele>
        <time>2021-08-05T08:36:52Z</time>
      </trkpt>
      <trkpt lat="42.9455" lon="0.3122">
        <ele>1459.2</ele>
        <time>2021-08-05T08:36:53Z</time>
      </trkpt>
      <trkpt lat="42.94549" lon="0.31218">
        <ele>1459.4</ele>
        <time>2021-08-05T08:36:54Z</time>
      </trkpt>
      <trkpt lat="42.94549" lon="0.31216">
        <ele>1459.4</ele>
        <time>2021-08-05T08:36:55Z</time>
      </trkpt>
      <trkpt lat="42.94549" lon="0.31215">
        <ele>1459.6</ele>
        <time>2021-08-05T08:36:56Z</time>
      </trkpt>
      <trkpt lat="42.94548" lon="0.31213">
        <ele>1459.6</ele>
        <time>2021-08-05T08:36:57Z</time>
      </trkpt>
      <trkpt lat="42.94548" lon="0.31212">
        <ele>1459.8</ele>
        <time>2021-08-05T08:36:58Z</time>
      </trkpt>
      <trkpt lat="42.94547" lon="0.3121">
        <ele>1459.8</ele>
        <time>2021-08-05T08:36:59Z</time>
      </trkpt>
      <trkpt lat="42.94547" lon="0.31208">
        <ele>1460</ele>
        <time>2021-08-05T08:37:00Z</time>
      </trkpt>
      <trkpt lat="42.94547" lon="0.31207">
        <ele>1460</ele>
        <time>2021-08-05T08:37:01Z</time>
      </trkpt>
      <trkpt lat="42.94547" lon="0.31205">
        <ele>1460.2</ele>
        <time>2021-08-05T08:37:02Z</time>
      </trkpt>
      <trkpt lat="42.94547" lon="0.31204">
        <ele>1460.2</ele>
        <time>2021-08-05T08:37:03Z</time>
      </trkpt>
      <trkpt lat="42.94546" lon="0.31202">
        <ele>1460.2</ele>
        <time>2021-08-05T08:37:04Z</time>
      </trkpt>
      <trkpt lat="42.94546" lon="0.312">
        <ele>1460.4</ele>
        <time>2021-08-05T08:37:05Z</time>
      </trkpt>
      <trkpt lat="42.94545" lon="0.31199">
        <ele>1460.4</ele>
        <time>2021-08-05T08:37:06Z</time>
      </trkpt>
      <trkpt lat="42.94545" lon="0.31197">
        <ele>1460.4</ele>
        <time>2021-08-05T08:37:07Z</time>
      </trkpt>
      <trkpt lat="42.94545" lon="0.31196">
        <ele>1460.6</ele>
        <time>2021-08-05T08:37:08Z</time>
      </trkpt>
      <trkpt lat="42.94544" lon="0.31194">
        <ele>1460.6</ele>
        <time>2021-08-05T08:37:09Z</time>
      </trkpt>
      <trkpt lat="42.94544" lon="0.31192">
        <ele>1460.6</ele>
        <time>2021-08-05T08:37:10Z</time>
      </trkpt>
      <trkpt lat="42.94544" lon="0.31191">
        <ele>1460.8</ele>
        <time>2021-08-05T08:37:11Z</time>
      </trkpt>
      <trkpt lat="42.94544" lon="0.31189">
        <ele>1460.8</ele>
        <time>2021-08-05T08:37:12Z</time>
      </trkpt>
      <trkpt lat="42.94544" lon="0.31188">
        <ele>1461</ele>
        <time>2021-08-05T08:37:13Z</time>
      </trkpt>
      <trkpt lat="42.94544" lon="0.31187">
        <ele>1461</ele>
        <time>2021-08-05T08:37:14Z</time>
      </trkpt>
      <trkpt lat="42.94544" lon="0.31187">
        <ele>1461.6</ele>
        <time>2021-08-05T08:37:29Z</time>
      </trkpt>
      <trkpt lat="42.94544" lon="0.31182">
        <ele>1461.6</ele>
        <time>2021-08-05T08:37:31Z</time>
      </trkpt>
      <trkpt lat="42.94542" lon="0.31173">
        <ele>1461.8</ele>
        <time>2021-08-05T08:37:35Z</time>
      </trkpt>
      <trkpt lat="42.94541" lon="0.31171">
        <ele>1461.8</ele>
        <time>2021-08-05T08:37:36Z</time>
      </trkpt>
      <trkpt lat="42.94541" lon="0.31169">
        <ele>1462</ele>
        <time>2021-08-05T08:37:37Z</time>
      </trkpt>
      <trkpt lat="42.9454" lon="0.31167">
        <ele>1462</ele>
        <time>2021-08-05T08:37:38Z</time>
      </trkpt>
      <trkpt lat="42.94541" lon="0.31159">
        <ele>1462.2</ele>
        <time>2021-08-05T08:37:42Z</time>
      </trkpt>
      <trkpt lat="42.94541" lon="0.31157">
        <ele>1462.4</ele>
        <time>2021-08-05T08:37:43Z</time>
      </trkpt>
      <trkpt lat="42.94541" lon="0.31153">
        <ele>1462.8</ele>
        <time>2021-08-05T08:37:45Z</time>
      </trkpt>
      <trkpt lat="42.94541" lon="0.31151">
        <ele>1462.8</ele>
        <time>2021-08-05T08:37:46Z</time>
      </trkpt>
      <trkpt lat="42.94541" lon="0.31149">
        <ele>1463</ele>
        <time>2021-08-05T08:37:47Z</time>
      </trkpt>
      <trkpt lat="42.9454" lon="0.31147">
        <ele>1463</ele>
        <time>2021-08-05T08:37:48Z</time>
      </trkpt>
      <trkpt lat="42.9454" lon="0.31145">
        <ele>1463.2</ele>
        <time>2021-08-05T08:37:49Z</time>
      </trkpt>
      <trkpt lat="42.9454" lon="0.31143">
        <ele>1463.2</ele>
        <time>2021-08-05T08:37:50Z</time>
      </trkpt>
      <trkpt lat="42.94539" lon="0.31141">
        <ele>1463.4</ele>
        <time>2021-08-05T08:37:51Z</time>
      </trkpt>
      <trkpt lat="42.94539" lon="0.3114">
        <ele>1463.6</ele>
        <time>2021-08-05T08:37:52Z</time>
      </trkpt>
      <trkpt lat="42.94539" lon="0.31136">
        <ele>1464</ele>
        <time>2021-08-05T08:37:54Z</time>
      </trkpt>
      <trkpt lat="42.94539" lon="0.31134">
        <ele>1464</ele>
        <time>2021-08-05T08:37:55Z</time>
      </trkpt>
      <trkpt lat="42.94538" lon="0.31131">
        <ele>1464.4</ele>
        <time>2021-08-05T08:37:57Z</time>
      </trkpt>
      <trkpt lat="42.94538" lon="0.3113">
        <ele>1464.6</ele>
        <time>2021-08-05T08:37:58Z</time>
      </trkpt>
      <trkpt lat="42.94538" lon="0.31128">
        <ele>1464.8</ele>
        <time>2021-08-05T08:37:59Z</time>
      </trkpt>
      <trkpt lat="42.94538" lon="0.31127">
        <ele>1465</ele>
        <time>2021-08-05T08:38:00Z</time>
      </trkpt>
      <trkpt lat="42.94538" lon="0.31125">
        <ele>1465.2</ele>
        <time>2021-08-05T08:38:01Z</time>
      </trkpt>
      <trkpt lat="42.94538" lon="0.31124">
        <ele>1465.4</ele>
        <time>2021-08-05T08:38:02Z</time>
      </trkpt>
      <trkpt lat="42.94537" lon="0.31122">
        <ele>1465.4</ele>
        <time>2021-08-05T08:38:03Z</time>
      </trkpt>
      <trkpt lat="42.94537" lon="0.3112">
        <ele>1465.6</ele>
        <time>2021-08-05T08:38:04Z</time>
      </trkpt>
      <trkpt lat="42.94536" lon="0.31117">
        <ele>1465.6</ele>
        <time>2021-08-05T08:38:05Z</time>
      </trkpt>
      <trkpt lat="42.94536" lon="0.31115">
        <ele>1465.8</ele>
        <time>2021-08-05T08:38:06Z</time>
      </trkpt>
      <trkpt lat="42.94536" lon="0.31112">
        <ele>1465.8</ele>
        <time>2021-08-05T08:38:07Z</time>
      </trkpt>
      <trkpt lat="42.94535" lon="0.3111">
        <ele>1465.8</ele>
        <time>2021-08-05T08:38:08Z</time>
      </trkpt>
      <trkpt lat="42.94535" lon="0.31108">
        <ele>1466</ele>
        <time>2021-08-05T08:38:09Z</time>
      </trkpt>
      <trkpt lat="42.94534" lon="0.31105">
        <ele>1466</ele>
        <time>2021-08-05T08:38:10Z</time>
      </trkpt>
      <trkpt lat="42.94534" lon="0.31103">
        <ele>1466.2</ele>
        <time>2021-08-05T08:38:11Z</time>
      </trkpt>
      <trkpt lat="42.94534" lon="0.311">
        <ele>1466.4</ele>
        <time>2021-08-05T08:38:12Z</time>
      </trkpt>
      <trkpt lat="42.94534" lon="0.31097">
        <ele>1466.6</ele>
        <time>2021-08-05T08:38:13Z</time>
      </trkpt>
      <trkpt lat="42.94534" lon="0.31095">
        <ele>1466.8</ele>
        <time>2021-08-05T08:38:14Z</time>
      </trkpt>
      <trkpt lat="42.94534" lon="0.31092">
        <ele>1467.2</ele>
        <time>2021-08-05T08:38:15Z</time>
      </trkpt>
      <trkpt lat="42.94535" lon="0.3109">
        <ele>1467.2</ele>
        <time>2021-08-05T08:38:16Z</time>
      </trkpt>
      <trkpt lat="42.94535" lon="0.31088">
        <ele>1467.6</ele>
        <time>2021-08-05T08:38:17Z</time>
      </trkpt>
      <trkpt lat="42.94535" lon="0.31087">
        <ele>1468</ele>
        <time>2021-08-05T08:38:18Z</time>
      </trkpt>
      <trkpt lat="42.94536" lon="0.31084">
        <ele>1468.2</ele>
        <time>2021-08-05T08:38:19Z</time>
      </trkpt>
      <trkpt lat="42.94536" lon="0.31082">
        <ele>1468.2</ele>
        <time>2021-08-05T08:38:20Z</time>
      </trkpt>
      <trkpt lat="42.94536" lon="0.3108">
        <ele>1468.4</ele>
        <time>2021-08-05T08:38:21Z</time>
      </trkpt>
      <trkpt lat="42.94536" lon="0.31078">
        <ele>1468.6</ele>
        <time>2021-08-05T08:38:22Z</time>
      </trkpt>
      <trkpt lat="42.94536" lon="0.31076">
        <ele>1469</ele>
        <time>2021-08-05T08:38:23Z</time>
      </trkpt>
      <trkpt lat="42.94536" lon="0.31074">
        <ele>1469</ele>
        <time>2021-08-05T08:38:24Z</time>
      </trkpt>
      <trkpt lat="42.94536" lon="0.31072">
        <ele>1469.6</ele>
        <time>2021-08-05T08:38:25Z</time>
      </trkpt>
      <trkpt lat="42.94536" lon="0.3107">
        <ele>1470</ele>
        <time>2021-08-05T08:38:26Z</time>
      </trkpt>
      <trkpt lat="42.94536" lon="0.31067">
        <ele>1470.2</ele>
        <time>2021-08-05T08:38:27Z</time>
      </trkpt>
      <trkpt lat="42.94537" lon="0.31065">
        <ele>1470.4</ele>
        <time>2021-08-05T08:38:28Z</time>
      </trkpt>
      <trkpt lat="42.94538" lon="0.31063">
        <ele>1470.6</ele>
        <time>2021-08-05T08:38:29Z</time>
      </trkpt>
      <trkpt lat="42.94538" lon="0.31062">
        <ele>1470.8</ele>
        <time>2021-08-05T08:38:30Z</time>
      </trkpt>
      <trkpt lat="42.94539" lon="0.3106">
        <ele>1471</ele>
        <time>2021-08-05T08:38:31Z</time>
      </trkpt>
      <trkpt lat="42.94539" lon="0.31058">
        <ele>1471.4</ele>
        <time>2021-08-05T08:38:32Z</time>
      </trkpt>
      <trkpt lat="42.9454" lon="0.31056">
        <ele>1471.6</ele>
        <time>2021-08-05T08:38:33Z</time>
      </trkpt>
      <trkpt lat="42.94541" lon="0.31054">
        <ele>1471.8</ele>
        <time>2021-08-05T08:38:34Z</time>
      </trkpt>
      <trkpt lat="42.94541" lon="0.31052">
        <ele>1471.8</ele>
        <time>2021-08-05T08:38:35Z</time>
      </trkpt>
      <trkpt lat="42.94542" lon="0.3105">
        <ele>1472</ele>
        <time>2021-08-05T08:38:36Z</time>
      </trkpt>
      <trkpt lat="42.94542" lon="0.31048">
        <ele>1472</ele>
        <time>2021-08-05T08:38:37Z</time>
      </trkpt>
      <trkpt lat="42.94543" lon="0.31046">
        <ele>1472.4</ele>
        <time>2021-08-05T08:38:38Z</time>
      </trkpt>
      <trkpt lat="42.94543" lon="0.31044">
        <ele>1472.6</ele>
        <time>2021-08-05T08:38:39Z</time>
      </trkpt>
      <trkpt lat="42.94544" lon="0.31041">
        <ele>1472.8</ele>
        <time>2021-08-05T08:38:40Z</time>
      </trkpt>
      <trkpt lat="42.94545" lon="0.31039">
        <ele>1473</ele>
        <time>2021-08-05T08:38:41Z</time>
      </trkpt>
      <trkpt lat="42.94545" lon="0.31038">
        <ele>1473.2</ele>
        <time>2021-08-05T08:38:42Z</time>
      </trkpt>
      <trkpt lat="42.94546" lon="0.31036">
        <ele>1473.8</ele>
        <time>2021-08-05T08:38:43Z</time>
      </trkpt>
      <trkpt lat="42.94546" lon="0.31035">
        <ele>1474</ele>
        <time>2021-08-05T08:38:44Z</time>
      </trkpt>
      <trkpt lat="42.94547" lon="0.31033">
        <ele>1474.2</ele>
        <time>2021-08-05T08:38:45Z</time>
      </trkpt>
      <trkpt lat="42.94548" lon="0.31031">
        <ele>1474.4</ele>
        <time>2021-08-05T08:38:46Z</time>
      </trkpt>
      <trkpt lat="42.94548" lon="0.31029">
        <ele>1474.6</ele>
        <time>2021-08-05T08:38:47Z</time>
      </trkpt>
      <trkpt lat="42.94549" lon="0.31028">
        <ele>1474.8</ele>
        <time>2021-08-05T08:38:48Z</time>
      </trkpt>
      <trkpt lat="42.9455" lon="0.31026">
        <ele>1475</ele>
        <time>2021-08-05T08:38:49Z</time>
      </trkpt>
      <trkpt lat="42.9455" lon="0.31024">
        <ele>1475.2</ele>
        <time>2021-08-05T08:38:50Z</time>
      </trkpt>
      <trkpt lat="42.94551" lon="0.31022">
        <ele>1475.4</ele>
        <time>2021-08-05T08:38:51Z</time>
      </trkpt>
      <trkpt lat="42.94552" lon="0.3102">
        <ele>1475.4</ele>
        <time>2021-08-05T08:38:52Z</time>
      </trkpt>
      <trkpt lat="42.94552" lon="0.31018">
        <ele>1475.8</ele>
        <time>2021-08-05T08:38:53Z</time>
      </trkpt>
      <trkpt lat="42.94553" lon="0.31016">
        <ele>1476</ele>
        <time>2021-08-05T08:38:54Z</time>
      </trkpt>
      <trkpt lat="42.94554" lon="0.31015">
        <ele>1476.2</ele>
        <time>2021-08-05T08:38:55Z</time>
      </trkpt>
      <trkpt lat="42.94555" lon="0.31013">
        <ele>1476.4</ele>
        <time>2021-08-05T08:38:56Z</time>
      </trkpt>
      <trkpt lat="42.94555" lon="0.31012">
        <ele>1476.6</ele>
        <time>2021-08-05T08:38:57Z</time>
      </trkpt>
      <trkpt lat="42.94556" lon="0.3101">
        <ele>1476.8</ele>
        <time>2021-08-05T08:38:58Z</time>
      </trkpt>
      <trkpt lat="42.94557" lon="0.31008">
        <ele>1477</ele>
        <time>2021-08-05T08:38:59Z</time>
      </trkpt>
      <trkpt lat="42.94557" lon="0.31007">
        <ele>1477.2</ele>
        <time>2021-08-05T08:39:00Z</time>
      </trkpt>
      <trkpt lat="42.94558" lon="0.31005">
        <ele>1477.4</ele>
        <time>2021-08-05T08:39:01Z</time>
      </trkpt>
      <trkpt lat="42.94559" lon="0.31003">
        <ele>1477.6</ele>
        <time>2021-08-05T08:39:02Z</time>
      </trkpt>
      <trkpt lat="42.94559" lon="0.31001">
        <ele>1477.8</ele>
        <time>2021-08-05T08:39:03Z</time>
      </trkpt>
      <trkpt lat="42.9456" lon="0.30999">
        <ele>1477.8</ele>
        <time>2021-08-05T08:39:04Z</time>
      </trkpt>
      <trkpt lat="42.94561" lon="0.30998">
        <ele>1478</ele>
        <time>2021-08-05T08:39:05Z</time>
      </trkpt>
      <trkpt lat="42.94561" lon="0.30996">
        <ele>1478</ele>
        <time>2021-08-05T08:39:06Z</time>
      </trkpt>
      <trkpt lat="42.94562" lon="0.30995">
        <ele>1478.2</ele>
        <time>2021-08-05T08:39:07Z</time>
      </trkpt>
      <trkpt lat="42.94563" lon="0.30993">
        <ele>1478.6</ele>
        <time>2021-08-05T08:39:08Z</time>
      </trkpt>
      <trkpt lat="42.94563" lon="0.30991">
        <ele>1478.6</ele>
        <time>2021-08-05T08:39:09Z</time>
      </trkpt>
      <trkpt lat="42.94564" lon="0.30989">
        <ele>1478.8</ele>
        <time>2021-08-05T08:39:10Z</time>
      </trkpt>
      <trkpt lat="42.94565" lon="0.30988">
        <ele>1479</ele>
        <time>2021-08-05T08:39:11Z</time>
      </trkpt>
      <trkpt lat="42.94565" lon="0.30987">
        <ele>1479.2</ele>
        <time>2021-08-05T08:39:12Z</time>
      </trkpt>
      <trkpt lat="42.94567" lon="0.30986">
        <ele>1479.2</ele>
        <time>2021-08-05T08:39:13Z</time>
      </trkpt>
      <trkpt lat="42.94568" lon="0.30985">
        <ele>1479.4</ele>
        <time>2021-08-05T08:39:14Z</time>
      </trkpt>
      <trkpt lat="42.94568" lon="0.30984">
        <ele>1479.4</ele>
        <time>2021-08-05T08:39:15Z</time>
      </trkpt>
      <trkpt lat="42.94568" lon="0.30985">
        <ele>1479.6</ele>
        <time>2021-08-05T08:39:16Z</time>
      </trkpt>
      <trkpt lat="42.94568" lon="0.30985">
        <ele>1479.6</ele>
        <time>2021-08-05T08:39:17Z</time>
      </trkpt>
      <trkpt lat="42.94568" lon="0.30985">
        <ele>1479.8</ele>
        <time>2021-08-05T08:39:24Z</time>
      </trkpt>
      <trkpt lat="42.94567" lon="0.30984">
        <ele>1479.4</ele>
        <time>2021-08-05T08:40:54Z</time>
      </trkpt>
      <trkpt lat="42.94567" lon="0.30984">
        <ele>1479.4</ele>
        <time>2021-08-05T08:40:56Z</time>
      </trkpt>
      <trkpt lat="42.94567" lon="0.30985">
        <ele>1479.2</ele>
        <time>2021-08-05T08:41:16Z</time>
      </trkpt>
      <trkpt lat="42.94568" lon="0.30985">
        <ele>1478.8</ele>
        <time>2021-08-05T08:41:54Z</time>
      </trkpt>
      <trkpt lat="42.94568" lon="0.30985">
        <ele>1479.2</ele>
        <time>2021-08-05T08:42:20Z</time>
      </trkpt>
      <trkpt lat="42.94571" lon="0.30979">
        <ele>1479.4</ele>
        <time>2021-08-05T08:42:23Z</time>
      </trkpt>
      <trkpt lat="42.94573" lon="0.30968">
        <ele>1479.8</ele>
        <time>2021-08-05T08:42:27Z</time>
      </trkpt>
      <trkpt lat="42.94576" lon="0.30961">
        <ele>1480</ele>
        <time>2021-08-05T08:42:30Z</time>
      </trkpt>
      <trkpt lat="42.94577" lon="0.3096">
        <ele>1480.2</ele>
        <time>2021-08-05T08:42:31Z</time>
      </trkpt>
      <trkpt lat="42.94579" lon="0.30953">
        <ele>1480.6</ele>
        <time>2021-08-05T08:42:34Z</time>
      </trkpt>
      <trkpt lat="42.9458" lon="0.30951">
        <ele>1480.8</ele>
        <time>2021-08-05T08:42:35Z</time>
      </trkpt>
      <trkpt lat="42.9458" lon="0.30949">
        <ele>1481</ele>
        <time>2021-08-05T08:42:36Z</time>
      </trkpt>
      <trkpt lat="42.94581" lon="0.30947">
        <ele>1481</ele>
        <time>2021-08-05T08:42:37Z</time>
      </trkpt>
      <trkpt lat="42.94583" lon="0.30942">
        <ele>1481.2</ele>
        <time>2021-08-05T08:42:40Z</time>
      </trkpt>
      <trkpt lat="42.94584" lon="0.3094">
        <ele>1481.4</ele>
        <time>2021-08-05T08:42:41Z</time>
      </trkpt>
      <trkpt lat="42.94585" lon="0.30938">
        <ele>1481.4</ele>
        <time>2021-08-05T08:42:42Z</time>
      </trkpt>
      <trkpt lat="42.94585" lon="0.30936">
        <ele>1481.6</ele>
        <time>2021-08-05T08:42:43Z</time>
      </trkpt>
      <trkpt lat="42.94586" lon="0.30934">
        <ele>1481.8</ele>
        <time>2021-08-05T08:42:44Z</time>
      </trkpt>
      <trkpt lat="42.94586" lon="0.30932">
        <ele>1482</ele>
        <time>2021-08-05T08:42:45Z</time>
      </trkpt>
      <trkpt lat="42.94591" lon="0.30922">
        <ele>1482.8</ele>
        <time>2021-08-05T08:42:50Z</time>
      </trkpt>
      <trkpt lat="42.94592" lon="0.3092">
        <ele>1482.8</ele>
        <time>2021-08-05T08:42:51Z</time>
      </trkpt>
      <trkpt lat="42.94592" lon="0.30919">
        <ele>1483</ele>
        <time>2021-08-05T08:42:52Z</time>
      </trkpt>
      <trkpt lat="42.94593" lon="0.30917">
        <ele>1483</ele>
        <time>2021-08-05T08:42:53Z</time>
      </trkpt>
      <trkpt lat="42.94594" lon="0.30915">
        <ele>1483.2</ele>
        <time>2021-08-05T08:42:54Z</time>
      </trkpt>
      <trkpt lat="42.94595" lon="0.30914">
        <ele>1483.2</ele>
        <time>2021-08-05T08:42:55Z</time>
      </trkpt>
      <trkpt lat="42.94596" lon="0.30912">
        <ele>1483.6</ele>
        <time>2021-08-05T08:42:56Z</time>
      </trkpt>
      <trkpt lat="42.94598" lon="0.3091">
        <ele>1483.8</ele>
        <time>2021-08-05T08:42:57Z</time>
      </trkpt>
      <trkpt lat="42.94599" lon="0.30908">
        <ele>1483.8</ele>
        <time>2021-08-05T08:42:58Z</time>
      </trkpt>
      <trkpt lat="42.946" lon="0.30907">
        <ele>1484</ele>
        <time>2021-08-05T08:42:59Z</time>
      </trkpt>
      <trkpt lat="42.94601" lon="0.30905">
        <ele>1484</ele>
        <time>2021-08-05T08:43:00Z</time>
      </trkpt>
      <trkpt lat="42.94602" lon="0.30903">
        <ele>1484.2</ele>
        <time>2021-08-05T08:43:01Z</time>
      </trkpt>
      <trkpt lat="42.94603" lon="0.30901">
        <ele>1484.2</ele>
        <time>2021-08-05T08:43:02Z</time>
      </trkpt>
      <trkpt lat="42.94604" lon="0.30899">
        <ele>1484.2</ele>
        <time>2021-08-05T08:43:03Z</time>
      </trkpt>
      <trkpt lat="42.94605" lon="0.30898">
        <ele>1484.4</ele>
        <time>2021-08-05T08:43:04Z</time>
      </trkpt>
      <trkpt lat="42.94605" lon="0.30896">
        <ele>1484.4</ele>
        <time>2021-08-05T08:43:05Z</time>
      </trkpt>
      <trkpt lat="42.94606" lon="0.30894">
        <ele>1484.6</ele>
        <time>2021-08-05T08:43:06Z</time>
      </trkpt>
      <trkpt lat="42.94607" lon="0.30892">
        <ele>1484.6</ele>
        <time>2021-08-05T08:43:07Z</time>
      </trkpt>
      <trkpt lat="42.94608" lon="0.30891">
        <ele>1484.8</ele>
        <time>2021-08-05T08:43:08Z</time>
      </trkpt>
      <trkpt lat="42.9461" lon="0.3089">
        <ele>1485.2</ele>
        <time>2021-08-05T08:43:09Z</time>
      </trkpt>
      <trkpt lat="42.94611" lon="0.30888">
        <ele>1485.2</ele>
        <time>2021-08-05T08:43:10Z</time>
      </trkpt>
      <trkpt lat="42.94612" lon="0.30886">
        <ele>1485.4</ele>
        <time>2021-08-05T08:43:11Z</time>
      </trkpt>
      <trkpt lat="42.94613" lon="0.30884">
        <ele>1485.4</ele>
        <time>2021-08-05T08:43:12Z</time>
      </trkpt>
      <trkpt lat="42.94614" lon="0.30882">
        <ele>1485.4</ele>
        <time>2021-08-05T08:43:13Z</time>
      </trkpt>
      <trkpt lat="42.94615" lon="0.3088">
        <ele>1485.8</ele>
        <time>2021-08-05T08:43:14Z</time>
      </trkpt>
      <trkpt lat="42.94616" lon="0.30879">
        <ele>1486</ele>
        <time>2021-08-05T08:43:15Z</time>
      </trkpt>
      <trkpt lat="42.94617" lon="0.30877">
        <ele>1486.2</ele>
        <time>2021-08-05T08:43:16Z</time>
      </trkpt>
      <trkpt lat="42.94618" lon="0.30875">
        <ele>1486.2</ele>
        <time>2021-08-05T08:43:17Z</time>
      </trkpt>
      <trkpt lat="42.94619" lon="0.30873">
        <ele>1486.4</ele>
        <time>2021-08-05T08:43:18Z</time>
      </trkpt>
      <trkpt lat="42.9462" lon="0.30872">
        <ele>1486.4</ele>
        <time>2021-08-05T08:43:19Z</time>
      </trkpt>
      <trkpt lat="42.94621" lon="0.3087">
        <ele>1486.6</ele>
        <time>2021-08-05T08:43:20Z</time>
      </trkpt>
      <trkpt lat="42.94622" lon="0.30868">
        <ele>1486.6</ele>
        <time>2021-08-05T08:43:21Z</time>
      </trkpt>
      <trkpt lat="42.94623" lon="0.30867">
        <ele>1486.6</ele>
        <time>2021-08-05T08:43:22Z</time>
      </trkpt>
      <trkpt lat="42.94624" lon="0.30865">
        <ele>1486.6</ele>
        <time>2021-08-05T08:43:23Z</time>
      </trkpt>
      <trkpt lat="42.94625" lon="0.30864">
        <ele>1486.8</ele>
        <time>2021-08-05T08:43:24Z</time>
      </trkpt>
      <trkpt lat="42.94626" lon="0.30862">
        <ele>1486.8</ele>
        <time>2021-08-05T08:43:25Z</time>
      </trkpt>
      <trkpt lat="42.94626" lon="0.30861">
        <ele>1487</ele>
        <time>2021-08-05T08:43:26Z</time>
      </trkpt>
      <trkpt lat="42.94627" lon="0.30859">
        <ele>1487.2</ele>
        <time>2021-08-05T08:43:27Z</time>
      </trkpt>
      <trkpt lat="42.94628" lon="0.30857">
        <ele>1487.4</ele>
        <time>2021-08-05T08:43:28Z</time>
      </trkpt>
      <trkpt lat="42.94629" lon="0.30856">
        <ele>1487.6</ele>
        <time>2021-08-05T08:43:29Z</time>
      </trkpt>
      <trkpt lat="42.9463" lon="0.30854">
        <ele>1487.6</ele>
        <time>2021-08-05T08:43:30Z</time>
      </trkpt>
      <trkpt lat="42.94631" lon="0.30852">
        <ele>1487.8</ele>
        <time>2021-08-05T08:43:31Z</time>
      </trkpt>
      <trkpt lat="42.94631" lon="0.3085">
        <ele>1487.8</ele>
        <time>2021-08-05T08:43:32Z</time>
      </trkpt>
      <trkpt lat="42.94632" lon="0.30848">
        <ele>1488</ele>
        <time>2021-08-05T08:43:33Z</time>
      </trkpt>
      <trkpt lat="42.94633" lon="0.30847">
        <ele>1488</ele>
        <time>2021-08-05T08:43:34Z</time>
      </trkpt>
      <trkpt lat="42.94634" lon="0.30845">
        <ele>1488.2</ele>
        <time>2021-08-05T08:43:35Z</time>
      </trkpt>
      <trkpt lat="42.94635" lon="0.30843">
        <ele>1488.4</ele>
        <time>2021-08-05T08:43:36Z</time>
      </trkpt>
      <trkpt lat="42.94635" lon="0.30841">
        <ele>1488.6</ele>
        <time>2021-08-05T08:43:37Z</time>
      </trkpt>
      <trkpt lat="42.94636" lon="0.3084">
        <ele>1488.6</ele>
        <time>2021-08-05T08:43:38Z</time>
      </trkpt>
      <trkpt lat="42.94637" lon="0.30838">
        <ele>1488.8</ele>
        <time>2021-08-05T08:43:39Z</time>
      </trkpt>
      <trkpt lat="42.94638" lon="0.30836">
        <ele>1488.8</ele>
        <time>2021-08-05T08:43:40Z</time>
      </trkpt>
      <trkpt lat="42.94638" lon="0.30834">
        <ele>1488.8</ele>
        <time>2021-08-05T08:43:41Z</time>
      </trkpt>
      <trkpt lat="42.94639" lon="0.30832">
        <ele>1489</ele>
        <time>2021-08-05T08:43:42Z</time>
      </trkpt>
      <trkpt lat="42.9464" lon="0.30831">
        <ele>1489</ele>
        <time>2021-08-05T08:43:43Z</time>
      </trkpt>
      <trkpt lat="42.94641" lon="0.30829">
        <ele>1489.2</ele>
        <time>2021-08-05T08:43:44Z</time>
      </trkpt>
      <trkpt lat="42.94642" lon="0.30828">
        <ele>1489.2</ele>
        <time>2021-08-05T08:43:45Z</time>
      </trkpt>
      <trkpt lat="42.94642" lon="0.30826">
        <ele>1489.4</ele>
        <time>2021-08-05T08:43:46Z</time>
      </trkpt>
      <trkpt lat="42.94643" lon="0.30824">
        <ele>1489.4</ele>
        <time>2021-08-05T08:43:47Z</time>
      </trkpt>
      <trkpt lat="42.94644" lon="0.30823">
        <ele>1489.6</ele>
        <time>2021-08-05T08:43:48Z</time>
      </trkpt>
      <trkpt lat="42.94645" lon="0.30821">
        <ele>1489.8</ele>
        <time>2021-08-05T08:43:49Z</time>
      </trkpt>
      <trkpt lat="42.94647" lon="0.3082">
        <ele>1490</ele>
        <time>2021-08-05T08:43:50Z</time>
      </trkpt>
      <trkpt lat="42.94648" lon="0.30819">
        <ele>1490.2</ele>
        <time>2021-08-05T08:43:51Z</time>
      </trkpt>
      <trkpt lat="42.94649" lon="0.30818">
        <ele>1490.4</ele>
        <time>2021-08-05T08:43:52Z</time>
      </trkpt>
      <trkpt lat="42.9465" lon="0.30817">
        <ele>1490.6</ele>
        <time>2021-08-05T08:43:53Z</time>
      </trkpt>
      <trkpt lat="42.94651" lon="0.30816">
        <ele>1490.8</ele>
        <time>2021-08-05T08:43:54Z</time>
      </trkpt>
      <trkpt lat="42.94652" lon="0.30814">
        <ele>1490.8</ele>
        <time>2021-08-05T08:43:55Z</time>
      </trkpt>
      <trkpt lat="42.94652" lon="0.30813">
        <ele>1491.2</ele>
        <time>2021-08-05T08:43:56Z</time>
      </trkpt>
      <trkpt lat="42.94654" lon="0.30811">
        <ele>1491.4</ele>
        <time>2021-08-05T08:43:57Z</time>
      </trkpt>
      <trkpt lat="42.94655" lon="0.30809">
        <ele>1491.4</ele>
        <time>2021-08-05T08:43:58Z</time>
      </trkpt>
      <trkpt lat="42.94656" lon="0.30808">
        <ele>1491.4</ele>
        <time>2021-08-05T08:43:59Z</time>
      </trkpt>
      <trkpt lat="42.94657" lon="0.30806">
        <ele>1491.6</ele>
        <time>2021-08-05T08:44:00Z</time>
      </trkpt>
      <trkpt lat="42.94658" lon="0.30805">
        <ele>1491.6</ele>
        <time>2021-08-05T08:44:01Z</time>
      </trkpt>
      <trkpt lat="42.94659" lon="0.30804">
        <ele>1491.8</ele>
        <time>2021-08-05T08:44:02Z</time>
      </trkpt>
      <trkpt lat="42.94661" lon="0.30803">
        <ele>1492</ele>
        <time>2021-08-05T08:44:03Z</time>
      </trkpt>
      <trkpt lat="42.94662" lon="0.30803">
        <ele>1492</ele>
        <time>2021-08-05T08:44:04Z</time>
      </trkpt>
      <trkpt lat="42.94663" lon="0.30802">
        <ele>1492.2</ele>
        <time>2021-08-05T08:44:05Z</time>
      </trkpt>
      <trkpt lat="42.94663" lon="0.30802">
        <ele>1492.2</ele>
        <time>2021-08-05T08:44:06Z</time>
      </trkpt>
      <trkpt lat="42.94664" lon="0.30801">
        <ele>1492.4</ele>
        <time>2021-08-05T08:44:07Z</time>
      </trkpt>
      <trkpt lat="42.94664" lon="0.30801">
        <ele>1492.6</ele>
        <time>2021-08-05T08:44:08Z</time>
      </trkpt>
      <trkpt lat="42.94664" lon="0.30801">
        <ele>1492.8</ele>
        <time>2021-08-05T08:44:09Z</time>
      </trkpt>
      <trkpt lat="42.94664" lon="0.30801">
        <ele>1492.8</ele>
        <time>2021-08-05T08:44:10Z</time>
      </trkpt>
      <trkpt lat="42.94665" lon="0.30801">
        <ele>1493.2</ele>
        <time>2021-08-05T08:44:19Z</time>
      </trkpt>
      <trkpt lat="42.94666" lon="0.30799">
        <ele>1493.2</ele>
        <time>2021-08-05T08:44:20Z</time>
      </trkpt>
      <trkpt lat="42.94667" lon="0.30798">
        <ele>1493</ele>
        <time>2021-08-05T08:44:21Z</time>
      </trkpt>
      <trkpt lat="42.94668" lon="0.30797">
        <ele>1493</ele>
        <time>2021-08-05T08:44:22Z</time>
      </trkpt>
      <trkpt lat="42.94669" lon="0.30796">
        <ele>1493</ele>
        <time>2021-08-05T08:44:23Z</time>
      </trkpt>
      <trkpt lat="42.94671" lon="0.30793">
        <ele>1493.2</ele>
        <time>2021-08-05T08:44:25Z</time>
      </trkpt>
      <trkpt lat="42.94671" lon="0.30792">
        <ele>1493.2</ele>
        <time>2021-08-05T08:44:26Z</time>
      </trkpt>
      <trkpt lat="42.94674" lon="0.30788">
        <ele>1493.2</ele>
        <time>2021-08-05T08:44:29Z</time>
      </trkpt>
      <trkpt lat="42.94677" lon="0.30786">
        <ele>1493.4</ele>
        <time>2021-08-05T08:44:31Z</time>
      </trkpt>
      <trkpt lat="42.94679" lon="0.30785">
        <ele>1493.4</ele>
        <time>2021-08-05T08:44:32Z</time>
      </trkpt>
      <trkpt lat="42.94686" lon="0.3078">
        <ele>1493.6</ele>
        <time>2021-08-05T08:44:37Z</time>
      </trkpt>
      <trkpt lat="42.94694" lon="0.30775">
        <ele>1493.8</ele>
        <time>2021-08-05T08:44:43Z</time>
      </trkpt>
      <trkpt lat="42.94695" lon="0.30775">
        <ele>1493.8</ele>
        <time>2021-08-05T08:44:44Z</time>
      </trkpt>
      <trkpt lat="42.94696" lon="0.30774">
        <ele>1493.8</ele>
        <time>2021-08-05T08:44:45Z</time>
      </trkpt>
      <trkpt lat="42.94698" lon="0.30773">
        <ele>1493.8</ele>
        <time>2021-08-05T08:44:46Z</time>
      </trkpt>
      <trkpt lat="42.94706" lon="0.3077">
        <ele>1493.6</ele>
        <time>2021-08-05T08:44:52Z</time>
      </trkpt>
      <trkpt lat="42.94708" lon="0.30769">
        <ele>1493.6</ele>
        <time>2021-08-05T08:44:53Z</time>
      </trkpt>
      <trkpt lat="42.94722" lon="0.30763">
        <ele>1493.2</ele>
        <time>2021-08-05T08:45:02Z</time>
      </trkpt>
      <trkpt lat="42.94723" lon="0.30763">
        <ele>1493.2</ele>
        <time>2021-08-05T08:45:03Z</time>
      </trkpt>
      <trkpt lat="42.94733" lon="0.30761">
        <ele>1493</ele>
        <time>2021-08-05T08:45:09Z</time>
      </trkpt>
      <trkpt lat="42.94735" lon="0.3076">
        <ele>1493</ele>
        <time>2021-08-05T08:45:10Z</time>
      </trkpt>
      <trkpt lat="42.94736" lon="0.30761">
        <ele>1493.2</ele>
        <time>2021-08-05T08:45:11Z</time>
      </trkpt>
      <trkpt lat="42.94738" lon="0.30761">
        <ele>1493.2</ele>
        <time>2021-08-05T08:45:12Z</time>
      </trkpt>
      <trkpt lat="42.94739" lon="0.30761">
        <ele>1493.2</ele>
        <time>2021-08-05T08:45:13Z</time>
      </trkpt>
      <trkpt lat="42.94742" lon="0.3076">
        <ele>1493.2</ele>
        <time>2021-08-05T08:45:15Z</time>
      </trkpt>
      <trkpt lat="42.94743" lon="0.3076">
        <ele>1493.2</ele>
        <time>2021-08-05T08:45:16Z</time>
      </trkpt>
      <trkpt lat="42.94745" lon="0.3076">
        <ele>1493.2</ele>
        <time>2021-08-05T08:45:17Z</time>
      </trkpt>
      <trkpt lat="42.94746" lon="0.3076">
        <ele>1493.2</ele>
        <time>2021-08-05T08:45:18Z</time>
      </trkpt>
      <trkpt lat="42.94748" lon="0.30759">
        <ele>1493.4</ele>
        <time>2021-08-05T08:45:19Z</time>
      </trkpt>
      <trkpt lat="42.94749" lon="0.30759">
        <ele>1493.4</ele>
        <time>2021-08-05T08:45:20Z</time>
      </trkpt>
      <trkpt lat="42.94752" lon="0.30758">
        <ele>1493.6</ele>
        <time>2021-08-05T08:45:22Z</time>
      </trkpt>
      <trkpt lat="42.94753" lon="0.30758">
        <ele>1493.6</ele>
        <time>2021-08-05T08:45:23Z</time>
      </trkpt>
      <trkpt lat="42.94757" lon="0.30758">
        <ele>1493.8</ele>
        <time>2021-08-05T08:45:26Z</time>
      </trkpt>
      <trkpt lat="42.9476" lon="0.30758">
        <ele>1493.8</ele>
        <time>2021-08-05T08:45:28Z</time>
      </trkpt>
      <trkpt lat="42.94761" lon="0.30757">
        <ele>1494</ele>
        <time>2021-08-05T08:45:29Z</time>
      </trkpt>
      <trkpt lat="42.94764" lon="0.30757">
        <ele>1494</ele>
        <time>2021-08-05T08:45:32Z</time>
      </trkpt>
      <trkpt lat="42.94764" lon="0.30757">
        <ele>1494</ele>
        <time>2021-08-05T08:45:33Z</time>
      </trkpt>
      <trkpt lat="42.94764" lon="0.30757">
        <ele>1494</ele>
        <time>2021-08-05T08:45:39Z</time>
      </trkpt>
      <trkpt lat="42.94764" lon="0.30757">
        <ele>1494</ele>
        <time>2021-08-05T08:45:41Z</time>
      </trkpt>
      <trkpt lat="42.94764" lon="0.30757">
        <ele>1494</ele>
        <time>2021-08-05T08:45:52Z</time>
      </trkpt>
      <trkpt lat="42.94767" lon="0.30757">
        <ele>1494</ele>
        <time>2021-08-05T08:45:54Z</time>
      </trkpt>
      <trkpt lat="42.94778" lon="0.30758">
        <ele>1494.4</ele>
        <time>2021-08-05T08:46:01Z</time>
      </trkpt>
      <trkpt lat="42.9478" lon="0.30758">
        <ele>1494.4</ele>
        <time>2021-08-05T08:46:02Z</time>
      </trkpt>
      <trkpt lat="42.94783" lon="0.30756">
        <ele>1494.6</ele>
        <time>2021-08-05T08:46:04Z</time>
      </trkpt>
      <trkpt lat="42.94788" lon="0.30756">
        <ele>1494.8</ele>
        <time>2021-08-05T08:46:07Z</time>
      </trkpt>
      <trkpt lat="42.9479" lon="0.30757">
        <ele>1494.8</ele>
        <time>2021-08-05T08:46:08Z</time>
      </trkpt>
      <trkpt lat="42.94791" lon="0.30758">
        <ele>1495</ele>
        <time>2021-08-05T08:46:09Z</time>
      </trkpt>
      <trkpt lat="42.94794" lon="0.30758">
        <ele>1495</ele>
        <time>2021-08-05T08:46:10Z</time>
      </trkpt>
      <trkpt lat="42.94798" lon="0.30757">
        <ele>1495.4</ele>
        <time>2021-08-05T08:46:12Z</time>
      </trkpt>
      <trkpt lat="42.94799" lon="0.30756">
        <ele>1495.4</ele>
        <time>2021-08-05T08:46:13Z</time>
      </trkpt>
      <trkpt lat="42.948" lon="0.30756">
        <ele>1495.4</ele>
        <time>2021-08-05T08:46:14Z</time>
      </trkpt>
      <trkpt lat="42.94802" lon="0.30756">
        <ele>1495.4</ele>
        <time>2021-08-05T08:46:15Z</time>
      </trkpt>
      <trkpt lat="42.94803" lon="0.30757">
        <ele>1495.6</ele>
        <time>2021-08-05T08:46:16Z</time>
      </trkpt>
      <trkpt lat="42.94805" lon="0.30757">
        <ele>1495.6</ele>
        <time>2021-08-05T08:46:17Z</time>
      </trkpt>
      <trkpt lat="42.94805" lon="0.30757">
        <ele>1495.6</ele>
        <time>2021-08-05T08:46:18Z</time>
      </trkpt>
      <trkpt lat="42.94807" lon="0.30757">
        <ele>1495.6</ele>
        <time>2021-08-05T08:46:19Z</time>
      </trkpt>
      <trkpt lat="42.94808" lon="0.30757">
        <ele>1495.6</ele>
        <time>2021-08-05T08:46:20Z</time>
      </trkpt>
      <trkpt lat="42.94809" lon="0.30755">
        <ele>1495.6</ele>
        <time>2021-08-05T08:46:21Z</time>
      </trkpt>
      <trkpt lat="42.94809" lon="0.30755">
        <ele>1495.6</ele>
        <time>2021-08-05T08:46:22Z</time>
      </trkpt>
      <trkpt lat="42.94809" lon="0.30755">
        <ele>1495.4</ele>
        <time>2021-08-05T08:46:23Z</time>
      </trkpt>
      <trkpt lat="42.94809" lon="0.30755">
        <ele>1495.4</ele>
        <time>2021-08-05T08:46:24Z</time>
      </trkpt>
      <trkpt lat="42.94809" lon="0.30755">
        <ele>1495.4</ele>
        <time>2021-08-05T08:46:27Z</time>
      </trkpt>
      <trkpt lat="42.9481" lon="0.30756">
        <ele>1495.2</ele>
        <time>2021-08-05T08:46:31Z</time>
      </trkpt>
      <trkpt lat="42.94812" lon="0.30756">
        <ele>1495.2</ele>
        <time>2021-08-05T08:46:36Z</time>
      </trkpt>
      <trkpt lat="42.94814" lon="0.30755">
        <ele>1495.2</ele>
        <time>2021-08-05T08:46:37Z</time>
      </trkpt>
      <trkpt lat="42.94821" lon="0.30754">
        <ele>1495.2</ele>
        <time>2021-08-05T08:46:41Z</time>
      </trkpt>
      <trkpt lat="42.94823" lon="0.30755">
        <ele>1495.2</ele>
        <time>2021-08-05T08:46:42Z</time>
      </trkpt>
      <trkpt lat="42.94825" lon="0.30755">
        <ele>1495</ele>
        <time>2021-08-05T08:46:43Z</time>
      </trkpt>
      <trkpt lat="42.94827" lon="0.30755">
        <ele>1495</ele>
        <time>2021-08-05T08:46:44Z</time>
      </trkpt>
      <trkpt lat="42.94837" lon="0.30757">
        <ele>1495</ele>
        <time>2021-08-05T08:46:49Z</time>
      </trkpt>
      <trkpt lat="42.94842" lon="0.30759">
        <ele>1494.8</ele>
        <time>2021-08-05T08:46:51Z</time>
      </trkpt>
      <trkpt lat="42.94844" lon="0.30759">
        <ele>1494.8</ele>
        <time>2021-08-05T08:46:52Z</time>
      </trkpt>
      <trkpt lat="42.9485" lon="0.30761">
        <ele>1494.8</ele>
        <time>2021-08-05T08:46:55Z</time>
      </trkpt>
      <trkpt lat="42.94853" lon="0.30761">
        <ele>1494.6</ele>
        <time>2021-08-05T08:46:56Z</time>
      </trkpt>
      <trkpt lat="42.9486" lon="0.30764">
        <ele>1494.4</ele>
        <time>2021-08-05T08:47:00Z</time>
      </trkpt>
      <trkpt lat="42.94862" lon="0.30765">
        <ele>1494.4</ele>
        <time>2021-08-05T08:47:01Z</time>
      </trkpt>
      <trkpt lat="42.94864" lon="0.30765">
        <ele>1494.4</ele>
        <time>2021-08-05T08:47:02Z</time>
      </trkpt>
      <trkpt lat="42.94865" lon="0.30765">
        <ele>1494.4</ele>
        <time>2021-08-05T08:47:03Z</time>
      </trkpt>
      <trkpt lat="42.94867" lon="0.30765">
        <ele>1494.4</ele>
        <time>2021-08-05T08:47:04Z</time>
      </trkpt>
      <trkpt lat="42.94869" lon="0.30766">
        <ele>1494.4</ele>
        <time>2021-08-05T08:47:05Z</time>
      </trkpt>
      <trkpt lat="42.94871" lon="0.30767">
        <ele>1494.4</ele>
        <time>2021-08-05T08:47:06Z</time>
      </trkpt>
      <trkpt lat="42.94872" lon="0.30768">
        <ele>1494.2</ele>
        <time>2021-08-05T08:47:07Z</time>
      </trkpt>
      <trkpt lat="42.94873" lon="0.30768">
        <ele>1494.4</ele>
        <time>2021-08-05T08:47:08Z</time>
      </trkpt>
      <trkpt lat="42.94875" lon="0.30769">
        <ele>1494.4</ele>
        <time>2021-08-05T08:47:09Z</time>
      </trkpt>
      <trkpt lat="42.94876" lon="0.30769">
        <ele>1494.4</ele>
        <time>2021-08-05T08:47:10Z</time>
      </trkpt>
      <trkpt lat="42.94878" lon="0.3077">
        <ele>1494.4</ele>
        <time>2021-08-05T08:47:11Z</time>
      </trkpt>
      <trkpt lat="42.9488" lon="0.30771">
        <ele>1494.4</ele>
        <time>2021-08-05T08:47:12Z</time>
      </trkpt>
      <trkpt lat="42.94881" lon="0.30772">
        <ele>1494.6</ele>
        <time>2021-08-05T08:47:13Z</time>
      </trkpt>
      <trkpt lat="42.94888" lon="0.30775">
        <ele>1494.4</ele>
        <time>2021-08-05T08:47:17Z</time>
      </trkpt>
      <trkpt lat="42.9489" lon="0.30775">
        <ele>1494.4</ele>
        <time>2021-08-05T08:47:18Z</time>
      </trkpt>
      <trkpt lat="42.94892" lon="0.30775">
        <ele>1494.4</ele>
        <time>2021-08-05T08:47:19Z</time>
      </trkpt>
      <trkpt lat="42.94894" lon="0.30775">
        <ele>1494.4</ele>
        <time>2021-08-05T08:47:20Z</time>
      </trkpt>
      <trkpt lat="42.94895" lon="0.30775">
        <ele>1494.4</ele>
        <time>2021-08-05T08:47:21Z</time>
      </trkpt>
      <trkpt lat="42.94896" lon="0.30775">
        <ele>1494.4</ele>
        <time>2021-08-05T08:47:22Z</time>
      </trkpt>
      <trkpt lat="42.94897" lon="0.30776">
        <ele>1494.4</ele>
        <time>2021-08-05T08:47:23Z</time>
      </trkpt>
      <trkpt lat="42.94897" lon="0.30776">
        <ele>1494.4</ele>
        <time>2021-08-05T08:47:24Z</time>
      </trkpt>
      <trkpt lat="42.94899" lon="0.30778">
        <ele>1494.4</ele>
        <time>2021-08-05T08:47:25Z</time>
      </trkpt>
      <trkpt lat="42.94902" lon="0.3078">
        <ele>1494.4</ele>
        <time>2021-08-05T08:47:26Z</time>
      </trkpt>
      <trkpt lat="42.94905" lon="0.30783">
        <ele>1494.4</ele>
        <time>2021-08-05T08:47:27Z</time>
      </trkpt>
      <trkpt lat="42.94909" lon="0.30786">
        <ele>1494.4</ele>
        <time>2021-08-05T08:47:28Z</time>
      </trkpt>
      <trkpt lat="42.94914" lon="0.30789">
        <ele>1494.4</ele>
        <time>2021-08-05T08:47:30Z</time>
      </trkpt>
      <trkpt lat="42.94917" lon="0.30791">
        <ele>1494.4</ele>
        <time>2021-08-05T08:47:31Z</time>
      </trkpt>
      <trkpt lat="42.94919" lon="0.30792">
        <ele>1494.4</ele>
        <time>2021-08-05T08:47:32Z</time>
      </trkpt>
      <trkpt lat="42.94928" lon="0.30797">
        <ele>1494.2</ele>
        <time>2021-08-05T08:47:35Z</time>
      </trkpt>
      <trkpt lat="42.94932" lon="0.30799">
        <ele>1494.2</ele>
        <time>2021-08-05T08:47:36Z</time>
      </trkpt>
      <trkpt lat="42.94947" lon="0.30809">
        <ele>1494</ele>
        <time>2021-08-05T08:47:39Z</time>
      </trkpt>
      <trkpt lat="42.94953" lon="0.30812">
        <ele>1494</ele>
        <time>2021-08-05T08:47:40Z</time>
      </trkpt>
      <trkpt lat="42.94961" lon="0.3082">
        <ele>1493.4</ele>
        <time>2021-08-05T08:47:43Z</time>
      </trkpt>
      <trkpt lat="42.94962" lon="0.30821">
        <ele>1493.4</ele>
        <time>2021-08-05T08:47:44Z</time>
      </trkpt>
      <trkpt lat="42.94963" lon="0.30822">
        <ele>1492.6</ele>
        <time>2021-08-05T08:47:45Z</time>
      </trkpt>
      <trkpt lat="42.94965" lon="0.30823">
        <ele>1492.2</ele>
        <time>2021-08-05T08:47:46Z</time>
      </trkpt>
      <trkpt lat="42.94967" lon="0.30825">
        <ele>1492</ele>
        <time>2021-08-05T08:47:47Z</time>
      </trkpt>
      <trkpt lat="42.94969" lon="0.30826">
        <ele>1491.8</ele>
        <time>2021-08-05T08:47:48Z</time>
      </trkpt>
      <trkpt lat="42.9497" lon="0.30828">
        <ele>1491.6</ele>
        <time>2021-08-05T08:47:49Z</time>
      </trkpt>
      <trkpt lat="42.94972" lon="0.30829">
        <ele>1491.6</ele>
        <time>2021-08-05T08:47:50Z</time>
      </trkpt>
      <trkpt lat="42.94973" lon="0.3083">
        <ele>1491.4</ele>
        <time>2021-08-05T08:47:51Z</time>
      </trkpt>
      <trkpt lat="42.94974" lon="0.3083">
        <ele>1491.4</ele>
        <time>2021-08-05T08:47:52Z</time>
      </trkpt>
      <trkpt lat="42.94975" lon="0.30831">
        <ele>1491.4</ele>
        <time>2021-08-05T08:47:53Z</time>
      </trkpt>
      <trkpt lat="42.94977" lon="0.30832">
        <ele>1491.4</ele>
        <time>2021-08-05T08:47:54Z</time>
      </trkpt>
      <trkpt lat="42.94978" lon="0.30833">
        <ele>1491.2</ele>
        <time>2021-08-05T08:47:55Z</time>
      </trkpt>
      <trkpt lat="42.94986" lon="0.30842">
        <ele>1491.4</ele>
        <time>2021-08-05T08:48:01Z</time>
      </trkpt>
      <trkpt lat="42.94993" lon="0.3085">
        <ele>1491.2</ele>
        <time>2021-08-05T08:48:04Z</time>
      </trkpt>
      <trkpt lat="42.94999" lon="0.30856">
        <ele>1491</ele>
        <time>2021-08-05T08:48:08Z</time>
      </trkpt>
      <trkpt lat="42.95" lon="0.30858">
        <ele>1490.8</ele>
        <time>2021-08-05T08:48:09Z</time>
      </trkpt>
      <trkpt lat="42.95001" lon="0.3086">
        <ele>1490.6</ele>
        <time>2021-08-05T08:48:10Z</time>
      </trkpt>
      <trkpt lat="42.95001" lon="0.30861">
        <ele>1490.2</ele>
        <time>2021-08-05T08:48:11Z</time>
      </trkpt>
      <trkpt lat="42.95001" lon="0.30861">
        <ele>1490.2</ele>
        <time>2021-08-05T08:48:12Z</time>
      </trkpt>
      <trkpt lat="42.95001" lon="0.30862">
        <ele>1490</ele>
        <time>2021-08-05T08:48:13Z</time>
      </trkpt>
      <trkpt lat="42.95002" lon="0.30864">
        <ele>1490</ele>
        <time>2021-08-05T08:48:14Z</time>
      </trkpt>
      <trkpt lat="42.95006" lon="0.30871">
        <ele>1490</ele>
        <time>2021-08-05T08:48:17Z</time>
      </trkpt>
      <trkpt lat="42.95012" lon="0.30879">
        <ele>1489.8</ele>
        <time>2021-08-05T08:48:20Z</time>
      </trkpt>
      <trkpt lat="42.95015" lon="0.30883">
        <ele>1489.8</ele>
        <time>2021-08-05T08:48:22Z</time>
      </trkpt>
      <trkpt lat="42.95017" lon="0.30883">
        <ele>1489.6</ele>
        <time>2021-08-05T08:48:23Z</time>
      </trkpt>
      <trkpt lat="42.9502" lon="0.30886">
        <ele>1489.6</ele>
        <time>2021-08-05T08:48:24Z</time>
      </trkpt>
      <trkpt lat="42.95023" lon="0.30888">
        <ele>1489.6</ele>
        <time>2021-08-05T08:48:25Z</time>
      </trkpt>
      <trkpt lat="42.95029" lon="0.3089">
        <ele>1489.4</ele>
        <time>2021-08-05T08:48:28Z</time>
      </trkpt>
      <trkpt lat="42.95032" lon="0.3089">
        <ele>1489.4</ele>
        <time>2021-08-05T08:48:29Z</time>
      </trkpt>
      <trkpt lat="42.95036" lon="0.30892">
        <ele>1489.2</ele>
        <time>2021-08-05T08:48:32Z</time>
      </trkpt>
      <trkpt lat="42.95037" lon="0.30891">
        <ele>1489.2</ele>
        <time>2021-08-05T08:48:33Z</time>
      </trkpt>
      <trkpt lat="42.95038" lon="0.30892">
        <ele>1489.2</ele>
        <time>2021-08-05T08:48:34Z</time>
      </trkpt>
      <trkpt lat="42.95039" lon="0.30892">
        <ele>1489.2</ele>
        <time>2021-08-05T08:48:35Z</time>
      </trkpt>
      <trkpt lat="42.9504" lon="0.30892">
        <ele>1489.2</ele>
        <time>2021-08-05T08:48:36Z</time>
      </trkpt>
      <trkpt lat="42.95042" lon="0.30892">
        <ele>1489.2</ele>
        <time>2021-08-05T08:48:37Z</time>
      </trkpt>
      <trkpt lat="42.95042" lon="0.30892">
        <ele>1489.2</ele>
        <time>2021-08-05T08:48:38Z</time>
      </trkpt>
      <trkpt lat="42.95042" lon="0.30892">
        <ele>1489.2</ele>
        <time>2021-08-05T08:48:39Z</time>
      </trkpt>
      <trkpt lat="42.95046" lon="0.30891">
        <ele>1489.4</ele>
        <time>2021-08-05T08:48:42Z</time>
      </trkpt>
      <trkpt lat="42.95047" lon="0.30891">
        <ele>1489.6</ele>
        <time>2021-08-05T08:48:45Z</time>
      </trkpt>
      <trkpt lat="42.95047" lon="0.30891">
        <ele>1489.8</ele>
        <time>2021-08-05T08:48:46Z</time>
      </trkpt>
      <trkpt lat="42.95047" lon="0.30891">
        <ele>1490.2</ele>
        <time>2021-08-05T08:48:47Z</time>
      </trkpt>
      <trkpt lat="42.95049" lon="0.30893">
        <ele>1490.4</ele>
        <time>2021-08-05T08:48:48Z</time>
      </trkpt>
      <trkpt lat="42.95058" lon="0.30898">
        <ele>1490.6</ele>
        <time>2021-08-05T08:48:50Z</time>
      </trkpt>
      <trkpt lat="42.95063" lon="0.30898">
        <ele>1491</ele>
        <time>2021-08-05T08:48:52Z</time>
      </trkpt>
      <trkpt lat="42.95066" lon="0.30898">
        <ele>1491.2</ele>
        <time>2021-08-05T08:48:53Z</time>
      </trkpt>
      <trkpt lat="42.95068" lon="0.30898">
        <ele>1491.6</ele>
        <time>2021-08-05T08:48:54Z</time>
      </trkpt>
      <trkpt lat="42.95069" lon="0.30897">
        <ele>1491.6</ele>
        <time>2021-08-05T08:48:55Z</time>
      </trkpt>
      <trkpt lat="42.95072" lon="0.30896">
        <ele>1492</ele>
        <time>2021-08-05T08:48:56Z</time>
      </trkpt>
      <trkpt lat="42.95074" lon="0.30895">
        <ele>1492</ele>
        <time>2021-08-05T08:48:57Z</time>
      </trkpt>
      <trkpt lat="42.95076" lon="0.30894">
        <ele>1492.2</ele>
        <time>2021-08-05T08:48:58Z</time>
      </trkpt>
      <trkpt lat="42.95078" lon="0.30892">
        <ele>1492.4</ele>
        <time>2021-08-05T08:48:59Z</time>
      </trkpt>
      <trkpt lat="42.95079" lon="0.3089">
        <ele>1492.6</ele>
        <time>2021-08-05T08:49:00Z</time>
      </trkpt>
      <trkpt lat="42.95081" lon="0.30889">
        <ele>1492.8</ele>
        <time>2021-08-05T08:49:01Z</time>
      </trkpt>
      <trkpt lat="42.95082" lon="0.30887">
        <ele>1493</ele>
        <time>2021-08-05T08:49:02Z</time>
      </trkpt>
      <trkpt lat="42.95083" lon="0.30886">
        <ele>1493.2</ele>
        <time>2021-08-05T08:49:03Z</time>
      </trkpt>
      <trkpt lat="42.95085" lon="0.30884">
        <ele>1493.4</ele>
        <time>2021-08-05T08:49:04Z</time>
      </trkpt>
      <trkpt lat="42.95086" lon="0.30884">
        <ele>1493.4</ele>
        <time>2021-08-05T08:49:05Z</time>
      </trkpt>
      <trkpt lat="42.95088" lon="0.30882">
        <ele>1493.6</ele>
        <time>2021-08-05T08:49:06Z</time>
      </trkpt>
      <trkpt lat="42.9509" lon="0.30879">
        <ele>1494</ele>
        <time>2021-08-05T08:49:07Z</time>
      </trkpt>
      <trkpt lat="42.95092" lon="0.30877">
        <ele>1494</ele>
        <time>2021-08-05T08:49:08Z</time>
      </trkpt>
      <trkpt lat="42.95093" lon="0.30876">
        <ele>1494.2</ele>
        <time>2021-08-05T08:49:09Z</time>
      </trkpt>
      <trkpt lat="42.95095" lon="0.30874">
        <ele>1494.2</ele>
        <time>2021-08-05T08:49:10Z</time>
      </trkpt>
      <trkpt lat="42.95097" lon="0.30871">
        <ele>1494.4</ele>
        <time>2021-08-05T08:49:11Z</time>
      </trkpt>
      <trkpt lat="42.95097" lon="0.30869">
        <ele>1494.4</ele>
        <time>2021-08-05T08:49:12Z</time>
      </trkpt>
      <trkpt lat="42.95098" lon="0.30868">
        <ele>1494.6</ele>
        <time>2021-08-05T08:49:13Z</time>
      </trkpt>
      <trkpt lat="42.95098" lon="0.30866">
        <ele>1494.6</ele>
        <time>2021-08-05T08:49:14Z</time>
      </trkpt>
      <trkpt lat="42.95099" lon="0.30865">
        <ele>1494.8</ele>
        <time>2021-08-05T08:49:15Z</time>
      </trkpt>
      <trkpt lat="42.95101" lon="0.30864">
        <ele>1494.8</ele>
        <time>2021-08-05T08:49:16Z</time>
      </trkpt>
      <trkpt lat="42.95103" lon="0.30862">
        <ele>1495</ele>
        <time>2021-08-05T08:49:17Z</time>
      </trkpt>
      <trkpt lat="42.95104" lon="0.30862">
        <ele>1495</ele>
        <time>2021-08-05T08:49:18Z</time>
      </trkpt>
      <trkpt lat="42.95105" lon="0.30861">
        <ele>1495</ele>
        <time>2021-08-05T08:49:19Z</time>
      </trkpt>
      <trkpt lat="42.95106" lon="0.3086">
        <ele>1495</ele>
        <time>2021-08-05T08:49:20Z</time>
      </trkpt>
      <trkpt lat="42.95107" lon="0.30858">
        <ele>1495</ele>
        <time>2021-08-05T08:49:21Z</time>
      </trkpt>
      <trkpt lat="42.95108" lon="0.30858">
        <ele>1495</ele>
        <time>2021-08-05T08:49:22Z</time>
      </trkpt>
      <trkpt lat="42.95109" lon="0.30857">
        <ele>1495.2</ele>
        <time>2021-08-05T08:49:23Z</time>
      </trkpt>
      <trkpt lat="42.9511" lon="0.30856">
        <ele>1495.4</ele>
        <time>2021-08-05T08:49:24Z</time>
      </trkpt>
      <trkpt lat="42.95111" lon="0.30855">
        <ele>1495.4</ele>
        <time>2021-08-05T08:49:25Z</time>
      </trkpt>
      <trkpt lat="42.95113" lon="0.30855">
        <ele>1495.6</ele>
        <time>2021-08-05T08:49:26Z</time>
      </trkpt>
      <trkpt lat="42.95114" lon="0.30854">
        <ele>1495.6</ele>
        <time>2021-08-05T08:49:27Z</time>
      </trkpt>
      <trkpt lat="42.95115" lon="0.30854">
        <ele>1495.8</ele>
        <time>2021-08-05T08:49:28Z</time>
      </trkpt>
      <trkpt lat="42.95117" lon="0.30853">
        <ele>1495.8</ele>
        <time>2021-08-05T08:49:29Z</time>
      </trkpt>
      <trkpt lat="42.95118" lon="0.30852">
        <ele>1496</ele>
        <time>2021-08-05T08:49:30Z</time>
      </trkpt>
      <trkpt lat="42.95119" lon="0.30851">
        <ele>1496</ele>
        <time>2021-08-05T08:49:31Z</time>
      </trkpt>
      <trkpt lat="42.9512" lon="0.30851">
        <ele>1496.2</ele>
        <time>2021-08-05T08:49:32Z</time>
      </trkpt>
      <trkpt lat="42.95121" lon="0.3085">
        <ele>1496.4</ele>
        <time>2021-08-05T08:49:33Z</time>
      </trkpt>
      <trkpt lat="42.95122" lon="0.30849">
        <ele>1496.4</ele>
        <time>2021-08-05T08:49:34Z</time>
      </trkpt>
      <trkpt lat="42.95124" lon="0.30848">
        <ele>1496.6</ele>
        <time>2021-08-05T08:49:35Z</time>
      </trkpt>
      <trkpt lat="42.95126" lon="0.30848">
        <ele>1496.6</ele>
        <time>2021-08-05T08:49:36Z</time>
      </trkpt>
      <trkpt lat="42.95127" lon="0.30848">
        <ele>1496.8</ele>
        <time>2021-08-05T08:49:37Z</time>
      </trkpt>
      <trkpt lat="42.95129" lon="0.30847">
        <ele>1497</ele>
        <time>2021-08-05T08:49:38Z</time>
      </trkpt>
      <trkpt lat="42.95131" lon="0.30846">
        <ele>1497.2</ele>
        <time>2021-08-05T08:49:39Z</time>
      </trkpt>
      <trkpt lat="42.95132" lon="0.30844">
        <ele>1497.4</ele>
        <time>2021-08-05T08:49:40Z</time>
      </trkpt>
      <trkpt lat="42.95133" lon="0.30843">
        <ele>1497.4</ele>
        <time>2021-08-05T08:49:41Z</time>
      </trkpt>
      <trkpt lat="42.95134" lon="0.30842">
        <ele>1497.4</ele>
        <time>2021-08-05T08:49:42Z</time>
      </trkpt>
      <trkpt lat="42.95135" lon="0.3084">
        <ele>1498</ele>
        <time>2021-08-05T08:49:43Z</time>
      </trkpt>
      <trkpt lat="42.95136" lon="0.30839">
        <ele>1498.2</ele>
        <time>2021-08-05T08:49:44Z</time>
      </trkpt>
      <trkpt lat="42.95137" lon="0.30839">
        <ele>1498.6</ele>
        <time>2021-08-05T08:49:45Z</time>
      </trkpt>
      <trkpt lat="42.9514" lon="0.30839">
        <ele>1498.6</ele>
        <time>2021-08-05T08:49:46Z</time>
      </trkpt>
      <trkpt lat="42.95142" lon="0.30839">
        <ele>1499</ele>
        <time>2021-08-05T08:49:47Z</time>
      </trkpt>
      <trkpt lat="42.95143" lon="0.30838">
        <ele>1499</ele>
        <time>2021-08-05T08:49:48Z</time>
      </trkpt>
      <trkpt lat="42.95145" lon="0.30839">
        <ele>1499.2</ele>
        <time>2021-08-05T08:49:49Z</time>
      </trkpt>
      <trkpt lat="42.95146" lon="0.30839">
        <ele>1499.4</ele>
        <time>2021-08-05T08:49:50Z</time>
      </trkpt>
      <trkpt lat="42.95148" lon="0.30837">
        <ele>1499.8</ele>
        <time>2021-08-05T08:49:51Z</time>
      </trkpt>
      <trkpt lat="42.95149" lon="0.30836">
        <ele>1499.8</ele>
        <time>2021-08-05T08:49:52Z</time>
      </trkpt>
      <trkpt lat="42.95151" lon="0.30834">
        <ele>1500</ele>
        <time>2021-08-05T08:49:53Z</time>
      </trkpt>
      <trkpt lat="42.95153" lon="0.30834">
        <ele>1500.2</ele>
        <time>2021-08-05T08:49:54Z</time>
      </trkpt>
      <trkpt lat="42.95155" lon="0.30832">
        <ele>1500.6</ele>
        <time>2021-08-05T08:49:55Z</time>
      </trkpt>
      <trkpt lat="42.95155" lon="0.30832">
        <ele>1500.8</ele>
        <time>2021-08-05T08:49:56Z</time>
      </trkpt>
      <trkpt lat="42.95156" lon="0.30831">
        <ele>1500.8</ele>
        <time>2021-08-05T08:49:57Z</time>
      </trkpt>
      <trkpt lat="42.95158" lon="0.30831">
        <ele>1500.8</ele>
        <time>2021-08-05T08:49:58Z</time>
      </trkpt>
      <trkpt lat="42.95159" lon="0.30831">
        <ele>1501</ele>
        <time>2021-08-05T08:49:59Z</time>
      </trkpt>
      <trkpt lat="42.95161" lon="0.30833">
        <ele>1501</ele>
        <time>2021-08-05T08:50:00Z</time>
      </trkpt>
      <trkpt lat="42.95162" lon="0.30833">
        <ele>1501</ele>
        <time>2021-08-05T08:50:01Z</time>
      </trkpt>
      <trkpt lat="42.95163" lon="0.30833">
        <ele>1501</ele>
        <time>2021-08-05T08:50:02Z</time>
      </trkpt>
      <trkpt lat="42.95165" lon="0.30834">
        <ele>1501.2</ele>
        <time>2021-08-05T08:50:03Z</time>
      </trkpt>
      <trkpt lat="42.95166" lon="0.30834">
        <ele>1501.4</ele>
        <time>2021-08-05T08:50:04Z</time>
      </trkpt>
      <trkpt lat="42.95166" lon="0.30834">
        <ele>1501.6</ele>
        <time>2021-08-05T08:50:05Z</time>
      </trkpt>
      <trkpt lat="42.95167" lon="0.30833">
        <ele>1502</ele>
        <time>2021-08-05T08:50:06Z</time>
      </trkpt>
      <trkpt lat="42.95167" lon="0.30833">
        <ele>1502</ele>
        <time>2021-08-05T08:50:07Z</time>
      </trkpt>
      <trkpt lat="42.95168" lon="0.30832">
        <ele>1502.2</ele>
        <time>2021-08-05T08:50:08Z</time>
      </trkpt>
      <trkpt lat="42.95168" lon="0.30832">
        <ele>1502.4</ele>
        <time>2021-08-05T08:50:09Z</time>
      </trkpt>
      <trkpt lat="42.95169" lon="0.30831">
        <ele>1502.4</ele>
        <time>2021-08-05T08:50:10Z</time>
      </trkpt>
      <trkpt lat="42.95171" lon="0.3083">
        <ele>1502.4</ele>
        <time>2021-08-05T08:50:11Z</time>
      </trkpt>
      <trkpt lat="42.95173" lon="0.3083">
        <ele>1502.6</ele>
        <time>2021-08-05T08:50:12Z</time>
      </trkpt>
      <trkpt lat="42.95176" lon="0.30829">
        <ele>1502.6</ele>
        <time>2021-08-05T08:50:13Z</time>
      </trkpt>
      <trkpt lat="42.95178" lon="0.30829">
        <ele>1502.6</ele>
        <time>2021-08-05T08:50:14Z</time>
      </trkpt>
      <trkpt lat="42.9518" lon="0.30828">
        <ele>1502.8</ele>
        <time>2021-08-05T08:50:15Z</time>
      </trkpt>
      <trkpt lat="42.95182" lon="0.30828">
        <ele>1502.8</ele>
        <time>2021-08-05T08:50:16Z</time>
      </trkpt>
      <trkpt lat="42.95183" lon="0.30827">
        <ele>1502.8</ele>
        <time>2021-08-05T08:50:17Z</time>
      </trkpt>
      <trkpt lat="42.95185" lon="0.30827">
        <ele>1502.8</ele>
        <time>2021-08-05T08:50:18Z</time>
      </trkpt>
      <trkpt lat="42.95187" lon="0.30826">
        <ele>1502.8</ele>
        <time>2021-08-05T08:50:19Z</time>
      </trkpt>
      <trkpt lat="42.95189" lon="0.30825">
        <ele>1502.8</ele>
        <time>2021-08-05T08:50:20Z</time>
      </trkpt>
      <trkpt lat="42.95191" lon="0.30824">
        <ele>1502.8</ele>
        <time>2021-08-05T08:50:21Z</time>
      </trkpt>
      <trkpt lat="42.95193" lon="0.30823">
        <ele>1503</ele>
        <time>2021-08-05T08:50:22Z</time>
      </trkpt>
      <trkpt lat="42.95194" lon="0.30822">
        <ele>1503</ele>
        <time>2021-08-05T08:50:23Z</time>
      </trkpt>
      <trkpt lat="42.95196" lon="0.30822">
        <ele>1503</ele>
        <time>2021-08-05T08:50:24Z</time>
      </trkpt>
      <trkpt lat="42.95197" lon="0.30822">
        <ele>1503</ele>
        <time>2021-08-05T08:50:25Z</time>
      </trkpt>
      <trkpt lat="42.95198" lon="0.30823">
        <ele>1503</ele>
        <time>2021-08-05T08:50:26Z</time>
      </trkpt>
      <trkpt lat="42.95199" lon="0.30822">
        <ele>1503</ele>
        <time>2021-08-05T08:50:27Z</time>
      </trkpt>
      <trkpt lat="42.95201" lon="0.30822">
        <ele>1503.2</ele>
        <time>2021-08-05T08:50:28Z</time>
      </trkpt>
      <trkpt lat="42.95203" lon="0.30823">
        <ele>1503.2</ele>
        <time>2021-08-05T08:50:29Z</time>
      </trkpt>
      <trkpt lat="42.95204" lon="0.30824">
        <ele>1503.2</ele>
        <time>2021-08-05T08:50:30Z</time>
      </trkpt>
      <trkpt lat="42.95204" lon="0.30824">
        <ele>1503.2</ele>
        <time>2021-08-05T08:50:31Z</time>
      </trkpt>
      <trkpt lat="42.95204" lon="0.30824">
        <ele>1503.2</ele>
        <time>2021-08-05T08:50:32Z</time>
      </trkpt>
      <trkpt lat="42.95204" lon="0.30824">
        <ele>1503.2</ele>
        <time>2021-08-05T08:50:33Z</time>
      </trkpt>
      <trkpt lat="42.95204" lon="0.30824">
        <ele>1503.2</ele>
        <time>2021-08-05T08:50:34Z</time>
      </trkpt>
      <trkpt lat="42.95204" lon="0.30824">
        <ele>1503.2</ele>
        <time>2021-08-05T08:50:36Z</time>
      </trkpt>
      <trkpt lat="42.95204" lon="0.30824">
        <ele>1503.2</ele>
        <time>2021-08-05T08:51:05Z</time>
      </trkpt>
      <trkpt lat="42.95209" lon="0.30824">
        <ele>1502.8</ele>
        <time>2021-08-05T08:53:38Z</time>
      </trkpt>
      <trkpt lat="42.95211" lon="0.30825">
        <ele>1502.8</ele>
        <time>2021-08-05T08:53:40Z</time>
      </trkpt>
      <trkpt lat="42.95212" lon="0.30825">
        <ele>1502.8</ele>
        <time>2021-08-05T08:53:41Z</time>
      </trkpt>
      <trkpt lat="42.95216" lon="0.30826">
        <ele>1502.6</ele>
        <time>2021-08-05T08:53:45Z</time>
      </trkpt>
      <trkpt lat="42.95217" lon="0.30827">
        <ele>1502.6</ele>
        <time>2021-08-05T08:53:47Z</time>
      </trkpt>
      <trkpt lat="42.95217" lon="0.30827">
        <ele>1502.6</ele>
        <time>2021-08-05T08:53:48Z</time>
      </trkpt>
      <trkpt lat="42.95219" lon="0.30827">
        <ele>1502.6</ele>
        <time>2021-08-05T08:53:50Z</time>
      </trkpt>
      <trkpt lat="42.9522" lon="0.30827">
        <ele>1502.6</ele>
        <time>2021-08-05T08:53:51Z</time>
      </trkpt>
      <trkpt lat="42.95221" lon="0.30827">
        <ele>1502.6</ele>
        <time>2021-08-05T08:53:52Z</time>
      </trkpt>
      <trkpt lat="42.95222" lon="0.30827">
        <ele>1502.6</ele>
        <time>2021-08-05T08:53:53Z</time>
      </trkpt>
      <trkpt lat="42.95223" lon="0.30827">
        <ele>1502.6</ele>
        <time>2021-08-05T08:53:54Z</time>
      </trkpt>
      <trkpt lat="42.95223" lon="0.30827">
        <ele>1502.6</ele>
        <time>2021-08-05T08:53:55Z</time>
      </trkpt>
      <trkpt lat="42.95223" lon="0.30827">
        <ele>1502.6</ele>
        <time>2021-08-05T08:53:56Z</time>
      </trkpt>
      <trkpt lat="42.95224" lon="0.30828">
        <ele>1502.6</ele>
        <time>2021-08-05T08:53:57Z</time>
      </trkpt>
      <trkpt lat="42.95224" lon="0.30828">
        <ele>1502.8</ele>
        <time>2021-08-05T08:53:58Z</time>
      </trkpt>
      <trkpt lat="42.95228" lon="0.30831">
        <ele>1502.6</ele>
        <time>2021-08-05T08:54:03Z</time>
      </trkpt>
      <trkpt lat="42.95229" lon="0.30833">
        <ele>1502.4</ele>
        <time>2021-08-05T08:54:05Z</time>
      </trkpt>
      <trkpt lat="42.9523" lon="0.30833">
        <ele>1502.4</ele>
        <time>2021-08-05T08:54:06Z</time>
      </trkpt>
      <trkpt lat="42.95233" lon="0.30835">
        <ele>1502.4</ele>
        <time>2021-08-05T08:54:08Z</time>
      </trkpt>
      <trkpt lat="42.95233" lon="0.30835">
        <ele>1502.4</ele>
        <time>2021-08-05T08:54:09Z</time>
      </trkpt>
      <trkpt lat="42.95237" lon="0.30837">
        <ele>1502.6</ele>
        <time>2021-08-05T08:54:12Z</time>
      </trkpt>
      <trkpt lat="42.95245" lon="0.30842">
        <ele>1502.8</ele>
        <time>2021-08-05T08:54:16Z</time>
      </trkpt>
      <trkpt lat="42.95251" lon="0.30844">
        <ele>1503</ele>
        <time>2021-08-05T08:54:20Z</time>
      </trkpt>
      <trkpt lat="42.95253" lon="0.30844">
        <ele>1503.2</ele>
        <time>2021-08-05T08:54:22Z</time>
      </trkpt>
      <trkpt lat="42.95255" lon="0.30844">
        <ele>1503.2</ele>
        <time>2021-08-05T08:54:23Z</time>
      </trkpt>
      <trkpt lat="42.95257" lon="0.30844">
        <ele>1503.2</ele>
        <time>2021-08-05T08:54:24Z</time>
      </trkpt>
      <trkpt lat="42.95259" lon="0.30844">
        <ele>1503.4</ele>
        <time>2021-08-05T08:54:25Z</time>
      </trkpt>
      <trkpt lat="42.95271" lon="0.30845">
        <ele>1503.8</ele>
        <time>2021-08-05T08:54:31Z</time>
      </trkpt>
      <trkpt lat="42.95274" lon="0.30846">
        <ele>1503.8</ele>
        <time>2021-08-05T08:54:33Z</time>
      </trkpt>
      <trkpt lat="42.95279" lon="0.30848">
        <ele>1504.2</ele>
        <time>2021-08-05T08:54:36Z</time>
      </trkpt>
      <trkpt lat="42.95281" lon="0.30849">
        <ele>1504.4</ele>
        <time>2021-08-05T08:54:37Z</time>
      </trkpt>
      <trkpt lat="42.95283" lon="0.30851">
        <ele>1504.4</ele>
        <time>2021-08-05T08:54:38Z</time>
      </trkpt>
      <trkpt lat="42.95285" lon="0.30852">
        <ele>1504.4</ele>
        <time>2021-08-05T08:54:39Z</time>
      </trkpt>
      <trkpt lat="42.95287" lon="0.30853">
        <ele>1504.4</ele>
        <time>2021-08-05T08:54:40Z</time>
      </trkpt>
      <trkpt lat="42.9529" lon="0.30854">
        <ele>1504.4</ele>
        <time>2021-08-05T08:54:42Z</time>
      </trkpt>
      <trkpt lat="42.95291" lon="0.30855">
        <ele>1504.4</ele>
        <time>2021-08-05T08:54:43Z</time>
      </trkpt>
      <trkpt lat="42.95291" lon="0.30855">
        <ele>1504.4</ele>
        <time>2021-08-05T08:54:44Z</time>
      </trkpt>
      <trkpt lat="42.95291" lon="0.30855">
        <ele>1504.4</ele>
        <time>2021-08-05T08:54:45Z</time>
      </trkpt>
      <trkpt lat="42.95295" lon="0.3086">
        <ele>1504.6</ele>
        <time>2021-08-05T08:54:51Z</time>
      </trkpt>
      <trkpt lat="42.95295" lon="0.3086">
        <ele>1504.8</ele>
        <time>2021-08-05T08:54:52Z</time>
      </trkpt>
      <trkpt lat="42.95298" lon="0.30865">
        <ele>1504.8</ele>
        <time>2021-08-05T08:54:59Z</time>
      </trkpt>
      <trkpt lat="42.95299" lon="0.30866">
        <ele>1504.8</ele>
        <time>2021-08-05T08:55:00Z</time>
      </trkpt>
      <trkpt lat="42.95299" lon="0.30867">
        <ele>1504.8</ele>
        <time>2021-08-05T08:55:01Z</time>
      </trkpt>
      <trkpt lat="42.953" lon="0.30868">
        <ele>1504.6</ele>
        <time>2021-08-05T08:55:05Z</time>
      </trkpt>
      <trkpt lat="42.953" lon="0.30868">
        <ele>1504.8</ele>
        <time>2021-08-05T08:55:13Z</time>
      </trkpt>
      <trkpt lat="42.95302" lon="0.3087">
        <ele>1505</ele>
        <time>2021-08-05T08:55:19Z</time>
      </trkpt>
      <trkpt lat="42.95304" lon="0.30872">
        <ele>1505</ele>
        <time>2021-08-05T08:55:21Z</time>
      </trkpt>
      <trkpt lat="42.95305" lon="0.30873">
        <ele>1505</ele>
        <time>2021-08-05T08:55:22Z</time>
      </trkpt>
      <trkpt lat="42.95307" lon="0.30875">
        <ele>1505</ele>
        <time>2021-08-05T08:55:23Z</time>
      </trkpt>
      <trkpt lat="42.95309" lon="0.30877">
        <ele>1505</ele>
        <time>2021-08-05T08:55:25Z</time>
      </trkpt>
      <trkpt lat="42.95311" lon="0.30878">
        <ele>1505</ele>
        <time>2021-08-05T08:55:26Z</time>
      </trkpt>
      <trkpt lat="42.95312" lon="0.30879">
        <ele>1505</ele>
        <time>2021-08-05T08:55:27Z</time>
      </trkpt>
      <trkpt lat="42.95313" lon="0.30881">
        <ele>1505</ele>
        <time>2021-08-05T08:55:28Z</time>
      </trkpt>
      <trkpt lat="42.95315" lon="0.30884">
        <ele>1505</ele>
        <time>2021-08-05T08:55:30Z</time>
      </trkpt>
      <trkpt lat="42.95316" lon="0.30885">
        <ele>1505</ele>
        <time>2021-08-05T08:55:31Z</time>
      </trkpt>
      <trkpt lat="42.95318" lon="0.30886">
        <ele>1505</ele>
        <time>2021-08-05T08:55:32Z</time>
      </trkpt>
      <trkpt lat="42.95319" lon="0.30888">
        <ele>1505</ele>
        <time>2021-08-05T08:55:33Z</time>
      </trkpt>
      <trkpt lat="42.95331" lon="0.30905">
        <ele>1505.4</ele>
        <time>2021-08-05T08:55:39Z</time>
      </trkpt>
      <trkpt lat="42.95342" lon="0.30924">
        <ele>1505.2</ele>
        <time>2021-08-05T08:55:45Z</time>
      </trkpt>
      <trkpt lat="42.95344" lon="0.30927">
        <ele>1505.2</ele>
        <time>2021-08-05T08:55:46Z</time>
      </trkpt>
      <trkpt lat="42.95345" lon="0.30931">
        <ele>1505.2</ele>
        <time>2021-08-05T08:55:48Z</time>
      </trkpt>
      <trkpt lat="42.95347" lon="0.30933">
        <ele>1505</ele>
        <time>2021-08-05T08:55:49Z</time>
      </trkpt>
      <trkpt lat="42.95347" lon="0.30933">
        <ele>1505</ele>
        <time>2021-08-05T08:55:50Z</time>
      </trkpt>
      <trkpt lat="42.95349" lon="0.30935">
        <ele>1505</ele>
        <time>2021-08-05T08:55:51Z</time>
      </trkpt>
      <trkpt lat="42.95351" lon="0.30941">
        <ele>1505</ele>
        <time>2021-08-05T08:55:53Z</time>
      </trkpt>
      <trkpt lat="42.95352" lon="0.30943">
        <ele>1505</ele>
        <time>2021-08-05T08:55:54Z</time>
      </trkpt>
      <trkpt lat="42.95353" lon="0.30947">
        <ele>1505</ele>
        <time>2021-08-05T08:55:55Z</time>
      </trkpt>
      <trkpt lat="42.95365" lon="0.30974">
        <ele>1504.6</ele>
        <time>2021-08-05T08:56:01Z</time>
      </trkpt>
      <trkpt lat="42.95373" lon="0.30994">
        <ele>1504</ele>
        <time>2021-08-05T08:56:05Z</time>
      </trkpt>
      <trkpt lat="42.95378" lon="0.31004">
        <ele>1503.8</ele>
        <time>2021-08-05T08:56:07Z</time>
      </trkpt>
      <trkpt lat="42.95383" lon="0.31014">
        <ele>1503</ele>
        <time>2021-08-05T08:56:09Z</time>
      </trkpt>
      <trkpt lat="42.9539" lon="0.31031">
        <ele>1502.4</ele>
        <time>2021-08-05T08:56:12Z</time>
      </trkpt>
      <trkpt lat="42.95392" lon="0.31041">
        <ele>1502</ele>
        <time>2021-08-05T08:56:14Z</time>
      </trkpt>
      <trkpt lat="42.95392" lon="0.31046">
        <ele>1501.4</ele>
        <time>2021-08-05T08:56:15Z</time>
      </trkpt>
      <trkpt lat="42.95393" lon="0.31049">
        <ele>1501</ele>
        <time>2021-08-05T08:56:16Z</time>
      </trkpt>
      <trkpt lat="42.95395" lon="0.31053">
        <ele>1500.8</ele>
        <time>2021-08-05T08:56:17Z</time>
      </trkpt>
      <trkpt lat="42.95396" lon="0.31058">
        <ele>1500.6</ele>
        <time>2021-08-05T08:56:18Z</time>
      </trkpt>
      <trkpt lat="42.95397" lon="0.31062">
        <ele>1500.4</ele>
        <time>2021-08-05T08:56:19Z</time>
      </trkpt>
      <trkpt lat="42.95398" lon="0.31066">
        <ele>1499.8</ele>
        <time>2021-08-05T08:56:21Z</time>
      </trkpt>
      <trkpt lat="42.95399" lon="0.31067">
        <ele>1499.6</ele>
        <time>2021-08-05T08:56:22Z</time>
      </trkpt>
      <trkpt lat="42.95402" lon="0.31068">
        <ele>1499.4</ele>
        <time>2021-08-05T08:56:23Z</time>
      </trkpt>
      <trkpt lat="42.95405" lon="0.3107">
        <ele>1499.2</ele>
        <time>2021-08-05T08:56:24Z</time>
      </trkpt>
      <trkpt lat="42.95413" lon="0.31076">
        <ele>1499</ele>
        <time>2021-08-05T08:56:27Z</time>
      </trkpt>
      <trkpt lat="42.95417" lon="0.31078">
        <ele>1499</ele>
        <time>2021-08-05T08:56:28Z</time>
      </trkpt>
      <trkpt lat="42.9543" lon="0.3109">
        <ele>1499</ele>
        <time>2021-08-05T08:56:32Z</time>
      </trkpt>
      <trkpt lat="42.95441" lon="0.31101">
        <ele>1498.8</ele>
        <time>2021-08-05T08:56:35Z</time>
      </trkpt>
      <trkpt lat="42.95443" lon="0.31105">
        <ele>1498.8</ele>
        <time>2021-08-05T08:56:36Z</time>
      </trkpt>
      <trkpt lat="42.95446" lon="0.31107">
        <ele>1498.6</ele>
        <time>2021-08-05T08:56:37Z</time>
      </trkpt>
      <trkpt lat="42.95447" lon="0.3111">
        <ele>1498.6</ele>
        <time>2021-08-05T08:56:38Z</time>
      </trkpt>
      <trkpt lat="42.95448" lon="0.31111">
        <ele>1498.6</ele>
        <time>2021-08-05T08:56:39Z</time>
      </trkpt>
      <trkpt lat="42.9545" lon="0.31113">
        <ele>1498.6</ele>
        <time>2021-08-05T08:56:40Z</time>
      </trkpt>
      <trkpt lat="42.95451" lon="0.31115">
        <ele>1498.4</ele>
        <time>2021-08-05T08:56:41Z</time>
      </trkpt>
      <trkpt lat="42.95453" lon="0.31117">
        <ele>1498.2</ele>
        <time>2021-08-05T08:56:42Z</time>
      </trkpt>
      <trkpt lat="42.95455" lon="0.31121">
        <ele>1498.2</ele>
        <time>2021-08-05T08:56:43Z</time>
      </trkpt>
      <trkpt lat="42.9547" lon="0.31142">
        <ele>1498.2</ele>
        <time>2021-08-05T08:56:48Z</time>
      </trkpt>
      <trkpt lat="42.95475" lon="0.3115">
        <ele>1498.2</ele>
        <time>2021-08-05T08:56:50Z</time>
      </trkpt>
      <trkpt lat="42.95477" lon="0.31154">
        <ele>1498.2</ele>
        <time>2021-08-05T08:56:51Z</time>
      </trkpt>
      <trkpt lat="42.95479" lon="0.31157">
        <ele>1498</ele>
        <time>2021-08-05T08:56:52Z</time>
      </trkpt>
      <trkpt lat="42.95481" lon="0.3116">
        <ele>1497.8</ele>
        <time>2021-08-05T08:56:53Z</time>
      </trkpt>
      <trkpt lat="42.95484" lon="0.31165">
        <ele>1497.8</ele>
        <time>2021-08-05T08:56:54Z</time>
      </trkpt>
      <trkpt lat="42.95492" lon="0.31183">
        <ele>1497.4</ele>
        <time>2021-08-05T08:56:58Z</time>
      </trkpt>
      <trkpt lat="42.95493" lon="0.31187">
        <ele>1497.4</ele>
        <time>2021-08-05T08:56:59Z</time>
      </trkpt>
      <trkpt lat="42.95496" lon="0.312">
        <ele>1497.4</ele>
        <time>2021-08-05T08:57:02Z</time>
      </trkpt>
      <trkpt lat="42.95497" lon="0.31204">
        <ele>1497.4</ele>
        <time>2021-08-05T08:57:03Z</time>
      </trkpt>
      <trkpt lat="42.95498" lon="0.31207">
        <ele>1497.6</ele>
        <time>2021-08-05T08:57:04Z</time>
      </trkpt>
      <trkpt lat="42.95499" lon="0.3121">
        <ele>1497.8</ele>
        <time>2021-08-05T08:57:05Z</time>
      </trkpt>
      <trkpt lat="42.95499" lon="0.31212">
        <ele>1497.8</ele>
        <time>2021-08-05T08:57:06Z</time>
      </trkpt>
      <trkpt lat="42.95499" lon="0.31215">
        <ele>1498.2</ele>
        <time>2021-08-05T08:57:07Z</time>
      </trkpt>
      <trkpt lat="42.955" lon="0.31218">
        <ele>1498.2</ele>
        <time>2021-08-05T08:57:08Z</time>
      </trkpt>
      <trkpt lat="42.955" lon="0.31221">
        <ele>1498.4</ele>
        <time>2021-08-05T08:57:09Z</time>
      </trkpt>
      <trkpt lat="42.95502" lon="0.31222">
        <ele>1498.6</ele>
        <time>2021-08-05T08:57:10Z</time>
      </trkpt>
      <trkpt lat="42.95505" lon="0.31224">
        <ele>1499</ele>
        <time>2021-08-05T08:57:12Z</time>
      </trkpt>
      <trkpt lat="42.95507" lon="0.31224">
        <ele>1499.4</ele>
        <time>2021-08-05T08:57:13Z</time>
      </trkpt>
      <trkpt lat="42.95508" lon="0.31225">
        <ele>1499.4</ele>
        <time>2021-08-05T08:57:14Z</time>
      </trkpt>
      <trkpt lat="42.9551" lon="0.31225">
        <ele>1499.8</ele>
        <time>2021-08-05T08:57:15Z</time>
      </trkpt>
      <trkpt lat="42.95513" lon="0.31225">
        <ele>1500.2</ele>
        <time>2021-08-05T08:57:17Z</time>
      </trkpt>
      <trkpt lat="42.95514" lon="0.31225">
        <ele>1500.2</ele>
        <time>2021-08-05T08:57:18Z</time>
      </trkpt>
      <trkpt lat="42.95516" lon="0.31225">
        <ele>1500.6</ele>
        <time>2021-08-05T08:57:19Z</time>
      </trkpt>
      <trkpt lat="42.95517" lon="0.31224">
        <ele>1500.6</ele>
        <time>2021-08-05T08:57:20Z</time>
      </trkpt>
      <trkpt lat="42.95519" lon="0.31224">
        <ele>1500.6</ele>
        <time>2021-08-05T08:57:21Z</time>
      </trkpt>
      <trkpt lat="42.95521" lon="0.31224">
        <ele>1500.6</ele>
        <time>2021-08-05T08:57:22Z</time>
      </trkpt>
      <trkpt lat="42.95523" lon="0.31223">
        <ele>1500.6</ele>
        <time>2021-08-05T08:57:23Z</time>
      </trkpt>
      <trkpt lat="42.95524" lon="0.31221">
        <ele>1500.8</ele>
        <time>2021-08-05T08:57:24Z</time>
      </trkpt>
      <trkpt lat="42.95526" lon="0.3122">
        <ele>1500.8</ele>
        <time>2021-08-05T08:57:25Z</time>
      </trkpt>
      <trkpt lat="42.95527" lon="0.31219">
        <ele>1500.8</ele>
        <time>2021-08-05T08:57:26Z</time>
      </trkpt>
      <trkpt lat="42.95528" lon="0.31217">
        <ele>1500.8</ele>
        <time>2021-08-05T08:57:27Z</time>
      </trkpt>
      <trkpt lat="42.9553" lon="0.31216">
        <ele>1500.6</ele>
        <time>2021-08-05T08:57:28Z</time>
      </trkpt>
      <trkpt lat="42.95531" lon="0.31215">
        <ele>1500.6</ele>
        <time>2021-08-05T08:57:29Z</time>
      </trkpt>
      <trkpt lat="42.95532" lon="0.31213">
        <ele>1500.6</ele>
        <time>2021-08-05T08:57:30Z</time>
      </trkpt>
      <trkpt lat="42.95532" lon="0.3121">
        <ele>1500.4</ele>
        <time>2021-08-05T08:57:31Z</time>
      </trkpt>
      <trkpt lat="42.95532" lon="0.31207">
        <ele>1500.4</ele>
        <time>2021-08-05T08:57:32Z</time>
      </trkpt>
      <trkpt lat="42.95532" lon="0.31204">
        <ele>1500.2</ele>
        <time>2021-08-05T08:57:33Z</time>
      </trkpt>
      <trkpt lat="42.95533" lon="0.31202">
        <ele>1500</ele>
        <time>2021-08-05T08:57:34Z</time>
      </trkpt>
      <trkpt lat="42.95534" lon="0.312">
        <ele>1500</ele>
        <time>2021-08-05T08:57:35Z</time>
      </trkpt>
      <trkpt lat="42.95535" lon="0.31199">
        <ele>1499.6</ele>
        <time>2021-08-05T08:57:36Z</time>
      </trkpt>
      <trkpt lat="42.95536" lon="0.31196">
        <ele>1499.2</ele>
        <time>2021-08-05T08:57:37Z</time>
      </trkpt>
      <trkpt lat="42.95536" lon="0.31192">
        <ele>1498.4</ele>
        <time>2021-08-05T08:57:38Z</time>
      </trkpt>
      <trkpt lat="42.95537" lon="0.31189">
        <ele>1497.8</ele>
        <time>2021-08-05T08:57:39Z</time>
      </trkpt>
      <trkpt lat="42.95538" lon="0.31185">
        <ele>1497.2</ele>
        <time>2021-08-05T08:57:40Z</time>
      </trkpt>
      <trkpt lat="42.95538" lon="0.31181">
        <ele>1496.6</ele>
        <time>2021-08-05T08:57:41Z</time>
      </trkpt>
      <trkpt lat="42.95539" lon="0.31175">
        <ele>1495.2</ele>
        <time>2021-08-05T08:57:43Z</time>
      </trkpt>
      <trkpt lat="42.95539" lon="0.31167">
        <ele>1494.2</ele>
        <time>2021-08-05T08:57:45Z</time>
      </trkpt>
      <trkpt lat="42.95539" lon="0.3116">
        <ele>1492.6</ele>
        <time>2021-08-05T08:57:47Z</time>
      </trkpt>
      <trkpt lat="42.95538" lon="0.31156">
        <ele>1491.2</ele>
        <time>2021-08-05T08:57:49Z</time>
      </trkpt>
      <trkpt lat="42.95539" lon="0.31156">
        <ele>1490.8</ele>
        <time>2021-08-05T08:57:50Z</time>
      </trkpt>
      <trkpt lat="42.95539" lon="0.31156">
        <ele>1490.2</ele>
        <time>2021-08-05T08:57:51Z</time>
      </trkpt>
      <trkpt lat="42.95539" lon="0.31156">
        <ele>1488.8</ele>
        <time>2021-08-05T08:57:55Z</time>
      </trkpt>
      <trkpt lat="42.95539" lon="0.31156">
        <ele>1487.8</ele>
        <time>2021-08-05T08:58:07Z</time>
      </trkpt>
      <trkpt lat="42.95541" lon="0.31149">
        <ele>1487.6</ele>
        <time>2021-08-05T08:59:01Z</time>
      </trkpt>
      <trkpt lat="42.95542" lon="0.31148">
        <ele>1487.6</ele>
        <time>2021-08-05T08:59:02Z</time>
      </trkpt>
      <trkpt lat="42.9555" lon="0.31132">
        <ele>1487.2</ele>
        <time>2021-08-05T08:59:06Z</time>
      </trkpt>
      <trkpt lat="42.95553" lon="0.31128">
        <ele>1486.8</ele>
        <time>2021-08-05T08:59:07Z</time>
      </trkpt>
      <trkpt lat="42.95559" lon="0.31119">
        <ele>1486.2</ele>
        <time>2021-08-05T08:59:09Z</time>
      </trkpt>
      <trkpt lat="42.95564" lon="0.3111">
        <ele>1485.4</ele>
        <time>2021-08-05T08:59:11Z</time>
      </trkpt>
      <trkpt lat="42.95567" lon="0.31105">
        <ele>1484.8</ele>
        <time>2021-08-05T08:59:12Z</time>
      </trkpt>
      <trkpt lat="42.9557" lon="0.3109">
        <ele>1484</ele>
        <time>2021-08-05T08:59:14Z</time>
      </trkpt>
      <trkpt lat="42.95573" lon="0.31081">
        <ele>1483.6</ele>
        <time>2021-08-05T08:59:15Z</time>
      </trkpt>
      <trkpt lat="42.95575" lon="0.31073">
        <ele>1483.2</ele>
        <time>2021-08-05T08:59:16Z</time>
      </trkpt>
      <trkpt lat="42.95581" lon="0.31058">
        <ele>1482.4</ele>
        <time>2021-08-05T08:59:18Z</time>
      </trkpt>
      <trkpt lat="42.95586" lon="0.31044">
        <ele>1481.8</ele>
        <time>2021-08-05T08:59:20Z</time>
      </trkpt>
      <trkpt lat="42.95589" lon="0.31037">
        <ele>1481.4</ele>
        <time>2021-08-05T08:59:21Z</time>
      </trkpt>
      <trkpt lat="42.95591" lon="0.31029">
        <ele>1481</ele>
        <time>2021-08-05T08:59:22Z</time>
      </trkpt>
      <trkpt lat="42.95598" lon="0.31009">
        <ele>1480.4</ele>
        <time>2021-08-05T08:59:25Z</time>
      </trkpt>
      <trkpt lat="42.95601" lon="0.31003">
        <ele>1479.8</ele>
        <time>2021-08-05T08:59:26Z</time>
      </trkpt>
      <trkpt lat="42.95604" lon="0.30998">
        <ele>1479.8</ele>
        <time>2021-08-05T08:59:27Z</time>
      </trkpt>
      <trkpt lat="42.95607" lon="0.30992">
        <ele>1479.4</ele>
        <time>2021-08-05T08:59:28Z</time>
      </trkpt>
      <trkpt lat="42.9561" lon="0.30979">
        <ele>1479</ele>
        <time>2021-08-05T08:59:30Z</time>
      </trkpt>
      <trkpt lat="42.95612" lon="0.30973">
        <ele>1478.8</ele>
        <time>2021-08-05T08:59:31Z</time>
      </trkpt>
      <trkpt lat="42.95616" lon="0.30961">
        <ele>1478.4</ele>
        <time>2021-08-05T08:59:33Z</time>
      </trkpt>
      <trkpt lat="42.95619" lon="0.30956">
        <ele>1478.4</ele>
        <time>2021-08-05T08:59:34Z</time>
      </trkpt>
      <trkpt lat="42.95621" lon="0.3095">
        <ele>1478.2</ele>
        <time>2021-08-05T08:59:35Z</time>
      </trkpt>
      <trkpt lat="42.95623" lon="0.30945">
        <ele>1478.2</ele>
        <time>2021-08-05T08:59:36Z</time>
      </trkpt>
      <trkpt lat="42.95625" lon="0.3094">
        <ele>1478.2</ele>
        <time>2021-08-05T08:59:37Z</time>
      </trkpt>
      <trkpt lat="42.95627" lon="0.30936">
        <ele>1478.2</ele>
        <time>2021-08-05T08:59:38Z</time>
      </trkpt>
      <trkpt lat="42.95629" lon="0.30931">
        <ele>1478</ele>
        <time>2021-08-05T08:59:39Z</time>
      </trkpt>
      <trkpt lat="42.95631" lon="0.30926">
        <ele>1478</ele>
        <time>2021-08-05T08:59:40Z</time>
      </trkpt>
      <trkpt lat="42.95632" lon="0.30921">
        <ele>1477.6</ele>
        <time>2021-08-05T08:59:41Z</time>
      </trkpt>
      <trkpt lat="42.95634" lon="0.30916">
        <ele>1477.6</ele>
        <time>2021-08-05T08:59:42Z</time>
      </trkpt>
      <trkpt lat="42.95635" lon="0.30912">
        <ele>1477.6</ele>
        <time>2021-08-05T08:59:43Z</time>
      </trkpt>
      <trkpt lat="42.95637" lon="0.30908">
        <ele>1477.6</ele>
        <time>2021-08-05T08:59:44Z</time>
      </trkpt>
      <trkpt lat="42.95639" lon="0.30904">
        <ele>1477.6</ele>
        <time>2021-08-05T08:59:45Z</time>
      </trkpt>
      <trkpt lat="42.95641" lon="0.309">
        <ele>1477.6</ele>
        <time>2021-08-05T08:59:46Z</time>
      </trkpt>
      <trkpt lat="42.95644" lon="0.30896">
        <ele>1477.4</ele>
        <time>2021-08-05T08:59:47Z</time>
      </trkpt>
      <trkpt lat="42.95649" lon="0.30889">
        <ele>1477.4</ele>
        <time>2021-08-05T08:59:49Z</time>
      </trkpt>
      <trkpt lat="42.95651" lon="0.30886">
        <ele>1477.4</ele>
        <time>2021-08-05T08:59:50Z</time>
      </trkpt>
      <trkpt lat="42.95655" lon="0.30879">
        <ele>1477.4</ele>
        <time>2021-08-05T08:59:52Z</time>
      </trkpt>
      <trkpt lat="42.9566" lon="0.30873">
        <ele>1477.4</ele>
        <time>2021-08-05T08:59:54Z</time>
      </trkpt>
      <trkpt lat="42.95663" lon="0.3087">
        <ele>1477.4</ele>
        <time>2021-08-05T08:59:55Z</time>
      </trkpt>
      <trkpt lat="42.95665" lon="0.30866">
        <ele>1477.4</ele>
        <time>2021-08-05T08:59:56Z</time>
      </trkpt>
      <trkpt lat="42.95667" lon="0.30863">
        <ele>1477.2</ele>
        <time>2021-08-05T08:59:57Z</time>
      </trkpt>
      <trkpt lat="42.9567" lon="0.30858">
        <ele>1477.2</ele>
        <time>2021-08-05T08:59:58Z</time>
      </trkpt>
      <trkpt lat="42.95673" lon="0.30852">
        <ele>1477</ele>
        <time>2021-08-05T08:59:59Z</time>
      </trkpt>
      <trkpt lat="42.95678" lon="0.30843">
        <ele>1477</ele>
        <time>2021-08-05T09:00:01Z</time>
      </trkpt>
      <trkpt lat="42.95683" lon="0.30832">
        <ele>1476.8</ele>
        <time>2021-08-05T09:00:03Z</time>
      </trkpt>
      <trkpt lat="42.95689" lon="0.30819">
        <ele>1476.2</ele>
        <time>2021-08-05T09:00:05Z</time>
      </trkpt>
      <trkpt lat="42.95693" lon="0.30805">
        <ele>1476</ele>
        <time>2021-08-05T09:00:07Z</time>
      </trkpt>
      <trkpt lat="42.95694" lon="0.308">
        <ele>1475.8</ele>
        <time>2021-08-05T09:00:08Z</time>
      </trkpt>
      <trkpt lat="42.95697" lon="0.30796">
        <ele>1475.8</ele>
        <time>2021-08-05T09:00:09Z</time>
      </trkpt>
      <trkpt lat="42.95699" lon="0.30792">
        <ele>1475.8</ele>
        <time>2021-08-05T09:00:10Z</time>
      </trkpt>
      <trkpt lat="42.957" lon="0.30788">
        <ele>1475.8</ele>
        <time>2021-08-05T09:00:11Z</time>
      </trkpt>
      <trkpt lat="42.95702" lon="0.30784">
        <ele>1475.8</ele>
        <time>2021-08-05T09:00:12Z</time>
      </trkpt>
      <trkpt lat="42.95705" lon="0.3078">
        <ele>1475.6</ele>
        <time>2021-08-05T09:00:13Z</time>
      </trkpt>
      <trkpt lat="42.95707" lon="0.30768">
        <ele>1475.4</ele>
        <time>2021-08-05T09:00:16Z</time>
      </trkpt>
      <trkpt lat="42.95708" lon="0.30764">
        <ele>1475.6</ele>
        <time>2021-08-05T09:00:17Z</time>
      </trkpt>
      <trkpt lat="42.95709" lon="0.30759">
        <ele>1475.6</ele>
        <time>2021-08-05T09:00:18Z</time>
      </trkpt>
      <trkpt lat="42.95709" lon="0.30735">
        <ele>1475.8</ele>
        <time>2021-08-05T09:00:23Z</time>
      </trkpt>
      <trkpt lat="42.95708" lon="0.30722">
        <ele>1475.8</ele>
        <time>2021-08-05T09:00:26Z</time>
      </trkpt>
      <trkpt lat="42.95708" lon="0.30718">
        <ele>1475.8</ele>
        <time>2021-08-05T09:00:27Z</time>
      </trkpt>
      <trkpt lat="42.95708" lon="0.30714">
        <ele>1476</ele>
        <time>2021-08-05T09:00:28Z</time>
      </trkpt>
      <trkpt lat="42.95706" lon="0.30698">
        <ele>1476</ele>
        <time>2021-08-05T09:00:32Z</time>
      </trkpt>
      <trkpt lat="42.95706" lon="0.30694">
        <ele>1476</ele>
        <time>2021-08-05T09:00:33Z</time>
      </trkpt>
      <trkpt lat="42.95707" lon="0.30691">
        <ele>1476</ele>
        <time>2021-08-05T09:00:34Z</time>
      </trkpt>
      <trkpt lat="42.95707" lon="0.30687">
        <ele>1476</ele>
        <time>2021-08-05T09:00:35Z</time>
      </trkpt>
      <trkpt lat="42.95708" lon="0.30681">
        <ele>1476</ele>
        <time>2021-08-05T09:00:37Z</time>
      </trkpt>
      <trkpt lat="42.95708" lon="0.30678">
        <ele>1476.2</ele>
        <time>2021-08-05T09:00:38Z</time>
      </trkpt>
      <trkpt lat="42.95708" lon="0.30675">
        <ele>1476.2</ele>
        <time>2021-08-05T09:00:39Z</time>
      </trkpt>
      <trkpt lat="42.95708" lon="0.30671">
        <ele>1476.2</ele>
        <time>2021-08-05T09:00:40Z</time>
      </trkpt>
      <trkpt lat="42.9571" lon="0.30657">
        <ele>1476.2</ele>
        <time>2021-08-05T09:00:44Z</time>
      </trkpt>
      <trkpt lat="42.95714" lon="0.3064">
        <ele>1476.6</ele>
        <time>2021-08-05T09:00:49Z</time>
      </trkpt>
      <trkpt lat="42.95715" lon="0.30636">
        <ele>1476.8</ele>
        <time>2021-08-05T09:00:50Z</time>
      </trkpt>
      <trkpt lat="42.95718" lon="0.30629">
        <ele>1477</ele>
        <time>2021-08-05T09:00:54Z</time>
      </trkpt>
      <trkpt lat="42.95718" lon="0.30628">
        <ele>1477.2</ele>
        <time>2021-08-05T09:00:55Z</time>
      </trkpt>
      <trkpt lat="42.95718" lon="0.30627">
        <ele>1477.2</ele>
        <time>2021-08-05T09:00:56Z</time>
      </trkpt>
      <trkpt lat="42.95718" lon="0.30625">
        <ele>1477.2</ele>
        <time>2021-08-05T09:00:57Z</time>
      </trkpt>
      <trkpt lat="42.95719" lon="0.30622">
        <ele>1477.2</ele>
        <time>2021-08-05T09:00:58Z</time>
      </trkpt>
      <trkpt lat="42.95719" lon="0.30619">
        <ele>1477.2</ele>
        <time>2021-08-05T09:00:59Z</time>
      </trkpt>
      <trkpt lat="42.95722" lon="0.30606">
        <ele>1477.2</ele>
        <time>2021-08-05T09:01:03Z</time>
      </trkpt>
      <trkpt lat="42.95727" lon="0.30592">
        <ele>1477</ele>
        <time>2021-08-05T09:01:07Z</time>
      </trkpt>
      <trkpt lat="42.95728" lon="0.30588">
        <ele>1477</ele>
        <time>2021-08-05T09:01:08Z</time>
      </trkpt>
      <trkpt lat="42.95733" lon="0.30579">
        <ele>1476.8</ele>
        <time>2021-08-05T09:01:11Z</time>
      </trkpt>
      <trkpt lat="42.95739" lon="0.30573">
        <ele>1476.6</ele>
        <time>2021-08-05T09:01:14Z</time>
      </trkpt>
      <trkpt lat="42.95741" lon="0.30567">
        <ele>1476.8</ele>
        <time>2021-08-05T09:01:16Z</time>
      </trkpt>
      <trkpt lat="42.95742" lon="0.30564">
        <ele>1476.8</ele>
        <time>2021-08-05T09:01:17Z</time>
      </trkpt>
      <trkpt lat="42.95743" lon="0.3056">
        <ele>1477</ele>
        <time>2021-08-05T09:01:18Z</time>
      </trkpt>
      <trkpt lat="42.95744" lon="0.30557">
        <ele>1477</ele>
        <time>2021-08-05T09:01:19Z</time>
      </trkpt>
      <trkpt lat="42.95746" lon="0.30554">
        <ele>1477</ele>
        <time>2021-08-05T09:01:20Z</time>
      </trkpt>
      <trkpt lat="42.95747" lon="0.30551">
        <ele>1476.8</ele>
        <time>2021-08-05T09:01:21Z</time>
      </trkpt>
      <trkpt lat="42.95749" lon="0.30548">
        <ele>1476.8</ele>
        <time>2021-08-05T09:01:22Z</time>
      </trkpt>
      <trkpt lat="42.9575" lon="0.30545">
        <ele>1476.6</ele>
        <time>2021-08-05T09:01:23Z</time>
      </trkpt>
      <trkpt lat="42.95752" lon="0.30542">
        <ele>1476.6</ele>
        <time>2021-08-05T09:01:24Z</time>
      </trkpt>
      <trkpt lat="42.95754" lon="0.30539">
        <ele>1476.6</ele>
        <time>2021-08-05T09:01:25Z</time>
      </trkpt>
      <trkpt lat="42.95756" lon="0.30535">
        <ele>1476.6</ele>
        <time>2021-08-05T09:01:26Z</time>
      </trkpt>
      <trkpt lat="42.9576" lon="0.30529">
        <ele>1476.4</ele>
        <time>2021-08-05T09:01:28Z</time>
      </trkpt>
      <trkpt lat="42.95764" lon="0.30524">
        <ele>1476.4</ele>
        <time>2021-08-05T09:01:30Z</time>
      </trkpt>
      <trkpt lat="42.9577" lon="0.30517">
        <ele>1476.2</ele>
        <time>2021-08-05T09:01:33Z</time>
      </trkpt>
      <trkpt lat="42.95771" lon="0.30514">
        <ele>1476.2</ele>
        <time>2021-08-05T09:01:34Z</time>
      </trkpt>
      <trkpt lat="42.95773" lon="0.3051">
        <ele>1476</ele>
        <time>2021-08-05T09:01:35Z</time>
      </trkpt>
      <trkpt lat="42.95773" lon="0.30508">
        <ele>1476.2</ele>
        <time>2021-08-05T09:01:36Z</time>
      </trkpt>
      <trkpt lat="42.95775" lon="0.30506">
        <ele>1476.2</ele>
        <time>2021-08-05T09:01:37Z</time>
      </trkpt>
      <trkpt lat="42.95776" lon="0.30504">
        <ele>1476.2</ele>
        <time>2021-08-05T09:01:38Z</time>
      </trkpt>
      <trkpt lat="42.95778" lon="0.30502">
        <ele>1476.2</ele>
        <time>2021-08-05T09:01:39Z</time>
      </trkpt>
      <trkpt lat="42.9578" lon="0.305">
        <ele>1476.2</ele>
        <time>2021-08-05T09:01:40Z</time>
      </trkpt>
      <trkpt lat="42.95782" lon="0.30498">
        <ele>1476.2</ele>
        <time>2021-08-05T09:01:41Z</time>
      </trkpt>
      <trkpt lat="42.95793" lon="0.30487">
        <ele>1475.8</ele>
        <time>2021-08-05T09:01:46Z</time>
      </trkpt>
      <trkpt lat="42.95794" lon="0.30486">
        <ele>1475.6</ele>
        <time>2021-08-05T09:01:48Z</time>
      </trkpt>
      <trkpt lat="42.95794" lon="0.30485">
        <ele>1475.4</ele>
        <time>2021-08-05T09:01:49Z</time>
      </trkpt>
      <trkpt lat="42.95795" lon="0.30485">
        <ele>1475.4</ele>
        <time>2021-08-05T09:01:50Z</time>
      </trkpt>
      <trkpt lat="42.95796" lon="0.30484">
        <ele>1475.4</ele>
        <time>2021-08-05T09:01:51Z</time>
      </trkpt>
      <trkpt lat="42.95797" lon="0.30483">
        <ele>1475.4</ele>
        <time>2021-08-05T09:01:52Z</time>
      </trkpt>
      <trkpt lat="42.95798" lon="0.30482">
        <ele>1475.4</ele>
        <time>2021-08-05T09:01:53Z</time>
      </trkpt>
      <trkpt lat="42.95803" lon="0.30478">
        <ele>1475.6</ele>
        <time>2021-08-05T09:01:56Z</time>
      </trkpt>
      <trkpt lat="42.95804" lon="0.30477">
        <ele>1475.4</ele>
        <time>2021-08-05T09:01:57Z</time>
      </trkpt>
      <trkpt lat="42.95805" lon="0.30476">
        <ele>1475.6</ele>
        <time>2021-08-05T09:01:58Z</time>
      </trkpt>
      <trkpt lat="42.95808" lon="0.30474">
        <ele>1475.6</ele>
        <time>2021-08-05T09:02:02Z</time>
      </trkpt>
      <trkpt lat="42.95808" lon="0.30474">
        <ele>1475.6</ele>
        <time>2021-08-05T09:02:03Z</time>
      </trkpt>
      <trkpt lat="42.95808" lon="0.30474">
        <ele>1475.2</ele>
        <time>2021-08-05T09:02:17Z</time>
      </trkpt>
      <trkpt lat="42.95815" lon="0.30474">
        <ele>1475.2</ele>
        <time>2021-08-05T09:02:27Z</time>
      </trkpt>
      <trkpt lat="42.95822" lon="0.30474">
        <ele>1474.8</ele>
        <time>2021-08-05T09:02:29Z</time>
      </trkpt>
      <trkpt lat="42.95825" lon="0.30475">
        <ele>1474.8</ele>
        <time>2021-08-05T09:02:30Z</time>
      </trkpt>
      <trkpt lat="42.95833" lon="0.30476">
        <ele>1474.2</ele>
        <time>2021-08-05T09:02:33Z</time>
      </trkpt>
      <trkpt lat="42.95835" lon="0.30476">
        <ele>1474</ele>
        <time>2021-08-05T09:02:34Z</time>
      </trkpt>
      <trkpt lat="42.95836" lon="0.30476">
        <ele>1473.4</ele>
        <time>2021-08-05T09:02:35Z</time>
      </trkpt>
      <trkpt lat="42.95837" lon="0.30475">
        <ele>1473.2</ele>
        <time>2021-08-05T09:02:36Z</time>
      </trkpt>
      <trkpt lat="42.95838" lon="0.30475">
        <ele>1472.8</ele>
        <time>2021-08-05T09:02:37Z</time>
      </trkpt>
      <trkpt lat="42.95839" lon="0.30475">
        <ele>1472.6</ele>
        <time>2021-08-05T09:02:38Z</time>
      </trkpt>
      <trkpt lat="42.9584" lon="0.30475">
        <ele>1472.2</ele>
        <time>2021-08-05T09:02:39Z</time>
      </trkpt>
      <trkpt lat="42.95842" lon="0.30477">
        <ele>1471.6</ele>
        <time>2021-08-05T09:02:40Z</time>
      </trkpt>
      <trkpt lat="42.95846" lon="0.3048">
        <ele>1471</ele>
        <time>2021-08-05T09:02:42Z</time>
      </trkpt>
      <trkpt lat="42.95848" lon="0.3048">
        <ele>1471</ele>
        <time>2021-08-05T09:02:43Z</time>
      </trkpt>
      <trkpt lat="42.95852" lon="0.30482">
        <ele>1470.6</ele>
        <time>2021-08-05T09:02:45Z</time>
      </trkpt>
      <trkpt lat="42.95854" lon="0.30483">
        <ele>1470.2</ele>
        <time>2021-08-05T09:02:46Z</time>
      </trkpt>
      <trkpt lat="42.95857" lon="0.30485">
        <ele>1470</ele>
        <time>2021-08-05T09:02:47Z</time>
      </trkpt>
      <trkpt lat="42.95859" lon="0.30485">
        <ele>1469.6</ele>
        <time>2021-08-05T09:02:48Z</time>
      </trkpt>
      <trkpt lat="42.9586" lon="0.30485">
        <ele>1468.2</ele>
        <time>2021-08-05T09:02:50Z</time>
      </trkpt>
      <trkpt lat="42.9586" lon="0.30485">
        <ele>1466.8</ele>
        <time>2021-08-05T09:02:54Z</time>
      </trkpt>
      <trkpt lat="42.9586" lon="0.30485">
        <ele>1466</ele>
        <time>2021-08-05T09:03:02Z</time>
      </trkpt>
      <trkpt lat="42.95869" lon="0.30493">
        <ele>1465.6</ele>
        <time>2021-08-05T09:04:38Z</time>
      </trkpt>
      <trkpt lat="42.95872" lon="0.30496">
        <ele>1465.6</ele>
        <time>2021-08-05T09:04:39Z</time>
      </trkpt>
      <trkpt lat="42.95877" lon="0.305">
        <ele>1465.2</ele>
        <time>2021-08-05T09:04:40Z</time>
      </trkpt>
      <trkpt lat="42.95882" lon="0.30505">
        <ele>1465</ele>
        <time>2021-08-05T09:04:41Z</time>
      </trkpt>
      <trkpt lat="42.95887" lon="0.30509">
        <ele>1464.6</ele>
        <time>2021-08-05T09:04:42Z</time>
      </trkpt>
      <trkpt lat="42.95901" lon="0.30522">
        <ele>1462.8</ele>
        <time>2021-08-05T09:04:45Z</time>
      </trkpt>
      <trkpt lat="42.95906" lon="0.30526">
        <ele>1462.2</ele>
        <time>2021-08-05T09:04:46Z</time>
      </trkpt>
      <trkpt lat="42.95911" lon="0.30531">
        <ele>1461.2</ele>
        <time>2021-08-05T09:04:47Z</time>
      </trkpt>
      <trkpt lat="42.95915" lon="0.30534">
        <ele>1460.6</ele>
        <time>2021-08-05T09:04:48Z</time>
      </trkpt>
      <trkpt lat="42.95919" lon="0.30537">
        <ele>1460</ele>
        <time>2021-08-05T09:04:49Z</time>
      </trkpt>
      <trkpt lat="42.95923" lon="0.30541">
        <ele>1459.6</ele>
        <time>2021-08-05T09:04:50Z</time>
      </trkpt>
      <trkpt lat="42.95927" lon="0.30544">
        <ele>1458.8</ele>
        <time>2021-08-05T09:04:51Z</time>
      </trkpt>
      <trkpt lat="42.9593" lon="0.30547">
        <ele>1458.6</ele>
        <time>2021-08-05T09:04:52Z</time>
      </trkpt>
      <trkpt lat="42.95933" lon="0.30549">
        <ele>1457.4</ele>
        <time>2021-08-05T09:04:53Z</time>
      </trkpt>
      <trkpt lat="42.95943" lon="0.30557">
        <ele>1455.8</ele>
        <time>2021-08-05T09:04:55Z</time>
      </trkpt>
      <trkpt lat="42.9595" lon="0.30562">
        <ele>1454.6</ele>
        <time>2021-08-05T09:04:57Z</time>
      </trkpt>
      <trkpt lat="42.95955" lon="0.30565">
        <ele>1454</ele>
        <time>2021-08-05T09:04:58Z</time>
      </trkpt>
      <trkpt lat="42.95961" lon="0.30569">
        <ele>1452.6</ele>
        <time>2021-08-05T09:04:59Z</time>
      </trkpt>
      <trkpt lat="42.95976" lon="0.30578">
        <ele>1450.8</ele>
        <time>2021-08-05T09:05:01Z</time>
      </trkpt>
      <trkpt lat="42.95991" lon="0.30589">
        <ele>1449.6</ele>
        <time>2021-08-05T09:05:03Z</time>
      </trkpt>
      <trkpt lat="42.95999" lon="0.30594">
        <ele>1448.4</ele>
        <time>2021-08-05T09:05:04Z</time>
      </trkpt>
      <trkpt lat="42.9601" lon="0.30606">
        <ele>1447</ele>
        <time>2021-08-05T09:05:06Z</time>
      </trkpt>
      <trkpt lat="42.96018" lon="0.30613">
        <ele>1446</ele>
        <time>2021-08-05T09:05:07Z</time>
      </trkpt>
      <trkpt lat="42.96024" lon="0.3062">
        <ele>1444.2</ele>
        <time>2021-08-05T09:05:08Z</time>
      </trkpt>
      <trkpt lat="42.9603" lon="0.30627">
        <ele>1442.6</ele>
        <time>2021-08-05T09:05:09Z</time>
      </trkpt>
      <trkpt lat="42.96036" lon="0.30633">
        <ele>1440.8</ele>
        <time>2021-08-05T09:05:10Z</time>
      </trkpt>
      <trkpt lat="42.96046" lon="0.30646">
        <ele>1438.8</ele>
        <time>2021-08-05T09:05:12Z</time>
      </trkpt>
      <trkpt lat="42.9605" lon="0.3065">
        <ele>1438</ele>
        <time>2021-08-05T09:05:13Z</time>
      </trkpt>
      <trkpt lat="42.96053" lon="0.30655">
        <ele>1436.6</ele>
        <time>2021-08-05T09:05:14Z</time>
      </trkpt>
      <trkpt lat="42.96056" lon="0.30659">
        <ele>1436.2</ele>
        <time>2021-08-05T09:05:15Z</time>
      </trkpt>
      <trkpt lat="42.96059" lon="0.30663">
        <ele>1435.2</ele>
        <time>2021-08-05T09:05:16Z</time>
      </trkpt>
      <trkpt lat="42.96062" lon="0.30666">
        <ele>1434.4</ele>
        <time>2021-08-05T09:05:17Z</time>
      </trkpt>
      <trkpt lat="42.96066" lon="0.3067">
        <ele>1433.4</ele>
        <time>2021-08-05T09:05:18Z</time>
      </trkpt>
      <trkpt lat="42.96077" lon="0.30683">
        <ele>1431.8</ele>
        <time>2021-08-05T09:05:21Z</time>
      </trkpt>
      <trkpt lat="42.96082" lon="0.30688">
        <ele>1431</ele>
        <time>2021-08-05T09:05:22Z</time>
      </trkpt>
      <trkpt lat="42.96087" lon="0.30694">
        <ele>1430.2</ele>
        <time>2021-08-05T09:05:23Z</time>
      </trkpt>
      <trkpt lat="42.96094" lon="0.30704">
        <ele>1428.6</ele>
        <time>2021-08-05T09:05:25Z</time>
      </trkpt>
      <trkpt lat="42.96098" lon="0.30709">
        <ele>1428.2</ele>
        <time>2021-08-05T09:05:26Z</time>
      </trkpt>
      <trkpt lat="42.96101" lon="0.30712">
        <ele>1427.4</ele>
        <time>2021-08-05T09:05:27Z</time>
      </trkpt>
      <trkpt lat="42.96104" lon="0.30716">
        <ele>1427</ele>
        <time>2021-08-05T09:05:28Z</time>
      </trkpt>
      <trkpt lat="42.96107" lon="0.30719">
        <ele>1426.4</ele>
        <time>2021-08-05T09:05:29Z</time>
      </trkpt>
      <trkpt lat="42.9611" lon="0.30722">
        <ele>1426.2</ele>
        <time>2021-08-05T09:05:30Z</time>
      </trkpt>
      <trkpt lat="42.96112" lon="0.30725">
        <ele>1425.2</ele>
        <time>2021-08-05T09:05:31Z</time>
      </trkpt>
      <trkpt lat="42.96115" lon="0.30728">
        <ele>1424.6</ele>
        <time>2021-08-05T09:05:32Z</time>
      </trkpt>
      <trkpt lat="42.96117" lon="0.30731">
        <ele>1423.8</ele>
        <time>2021-08-05T09:05:33Z</time>
      </trkpt>
      <trkpt lat="42.9612" lon="0.30735">
        <ele>1423.2</ele>
        <time>2021-08-05T09:05:34Z</time>
      </trkpt>
      <trkpt lat="42.96123" lon="0.30739">
        <ele>1422.4</ele>
        <time>2021-08-05T09:05:35Z</time>
      </trkpt>
      <trkpt lat="42.96127" lon="0.30744">
        <ele>1422</ele>
        <time>2021-08-05T09:05:36Z</time>
      </trkpt>
      <trkpt lat="42.96133" lon="0.30754">
        <ele>1420.8</ele>
        <time>2021-08-05T09:05:38Z</time>
      </trkpt>
      <trkpt lat="42.96135" lon="0.30758">
        <ele>1420.4</ele>
        <time>2021-08-05T09:05:39Z</time>
      </trkpt>
      <trkpt lat="42.96138" lon="0.30762">
        <ele>1420</ele>
        <time>2021-08-05T09:05:40Z</time>
      </trkpt>
      <trkpt lat="42.9614" lon="0.30767">
        <ele>1419.6</ele>
        <time>2021-08-05T09:05:41Z</time>
      </trkpt>
      <trkpt lat="42.96143" lon="0.30772">
        <ele>1419.2</ele>
        <time>2021-08-05T09:05:42Z</time>
      </trkpt>
      <trkpt lat="42.96151" lon="0.30787">
        <ele>1418.4</ele>
        <time>2021-08-05T09:05:45Z</time>
      </trkpt>
      <trkpt lat="42.96153" lon="0.30792">
        <ele>1417.8</ele>
        <time>2021-08-05T09:05:46Z</time>
      </trkpt>
      <trkpt lat="42.96157" lon="0.30798">
        <ele>1417.4</ele>
        <time>2021-08-05T09:05:47Z</time>
      </trkpt>
      <trkpt lat="42.96165" lon="0.30809">
        <ele>1416.6</ele>
        <time>2021-08-05T09:05:49Z</time>
      </trkpt>
      <trkpt lat="42.96174" lon="0.3082">
        <ele>1416.4</ele>
        <time>2021-08-05T09:05:51Z</time>
      </trkpt>
      <trkpt lat="42.96178" lon="0.30825">
        <ele>1416.2</ele>
        <time>2021-08-05T09:05:52Z</time>
      </trkpt>
      <trkpt lat="42.96183" lon="0.3083">
        <ele>1415.8</ele>
        <time>2021-08-05T09:05:53Z</time>
      </trkpt>
      <trkpt lat="42.96193" lon="0.30838">
        <ele>1414.8</ele>
        <time>2021-08-05T09:05:55Z</time>
      </trkpt>
      <trkpt lat="42.96198" lon="0.30841">
        <ele>1414.4</ele>
        <time>2021-08-05T09:05:56Z</time>
      </trkpt>
      <trkpt lat="42.96204" lon="0.30843">
        <ele>1414</ele>
        <time>2021-08-05T09:05:57Z</time>
      </trkpt>
      <trkpt lat="42.96216" lon="0.30845">
        <ele>1413.6</ele>
        <time>2021-08-05T09:05:59Z</time>
      </trkpt>
      <trkpt lat="42.96222" lon="0.30844">
        <ele>1413.6</ele>
        <time>2021-08-05T09:06:00Z</time>
      </trkpt>
      <trkpt lat="42.96228" lon="0.30845">
        <ele>1413</ele>
        <time>2021-08-05T09:06:01Z</time>
      </trkpt>
      <trkpt lat="42.96238" lon="0.30853">
        <ele>1412.2</ele>
        <time>2021-08-05T09:06:03Z</time>
      </trkpt>
      <trkpt lat="42.96242" lon="0.30857">
        <ele>1412</ele>
        <time>2021-08-05T09:06:04Z</time>
      </trkpt>
      <trkpt lat="42.96247" lon="0.30861">
        <ele>1411.6</ele>
        <time>2021-08-05T09:06:05Z</time>
      </trkpt>
      <trkpt lat="42.96251" lon="0.30866">
        <ele>1411</ele>
        <time>2021-08-05T09:06:06Z</time>
      </trkpt>
      <trkpt lat="42.96255" lon="0.30869">
        <ele>1410.6</ele>
        <time>2021-08-05T09:06:07Z</time>
      </trkpt>
      <trkpt lat="42.96264" lon="0.30878">
        <ele>1410</ele>
        <time>2021-08-05T09:06:09Z</time>
      </trkpt>
      <trkpt lat="42.96268" lon="0.30882">
        <ele>1410</ele>
        <time>2021-08-05T09:06:10Z</time>
      </trkpt>
      <trkpt lat="42.96272" lon="0.30885">
        <ele>1409.8</ele>
        <time>2021-08-05T09:06:11Z</time>
      </trkpt>
      <trkpt lat="42.96276" lon="0.30888">
        <ele>1409.6</ele>
        <time>2021-08-05T09:06:12Z</time>
      </trkpt>
      <trkpt lat="42.96279" lon="0.30891">
        <ele>1409.4</ele>
        <time>2021-08-05T09:06:13Z</time>
      </trkpt>
      <trkpt lat="42.96282" lon="0.30892">
        <ele>1409.4</ele>
        <time>2021-08-05T09:06:14Z</time>
      </trkpt>
      <trkpt lat="42.96284" lon="0.30894">
        <ele>1409.4</ele>
        <time>2021-08-05T09:06:15Z</time>
      </trkpt>
      <trkpt lat="42.96286" lon="0.30895">
        <ele>1409.2</ele>
        <time>2021-08-05T09:06:16Z</time>
      </trkpt>
      <trkpt lat="42.96287" lon="0.30895">
        <ele>1409.2</ele>
        <time>2021-08-05T09:06:17Z</time>
      </trkpt>
      <trkpt lat="42.96289" lon="0.30896">
        <ele>1409</ele>
        <time>2021-08-05T09:06:18Z</time>
      </trkpt>
      <trkpt lat="42.9629" lon="0.30896">
        <ele>1409</ele>
        <time>2021-08-05T09:06:19Z</time>
      </trkpt>
      <trkpt lat="42.9629" lon="0.30896">
        <ele>1409</ele>
        <time>2021-08-05T09:06:20Z</time>
      </trkpt>
      <trkpt lat="42.9629" lon="0.30896">
        <ele>1408.8</ele>
        <time>2021-08-05T09:06:23Z</time>
      </trkpt>
      <trkpt lat="42.9629" lon="0.30896">
        <ele>1408.8</ele>
        <time>2021-08-05T09:06:39Z</time>
      </trkpt>
      <trkpt lat="42.96291" lon="0.30901">
        <ele>1408.8</ele>
        <time>2021-08-05T09:06:43Z</time>
      </trkpt>
      <trkpt lat="42.96297" lon="0.30918">
        <ele>1408.8</ele>
        <time>2021-08-05T09:06:48Z</time>
      </trkpt>
      <trkpt lat="42.96298" lon="0.30931">
        <ele>1408.8</ele>
        <time>2021-08-05T09:06:51Z</time>
      </trkpt>
      <trkpt lat="42.96297" lon="0.30935">
        <ele>1409</ele>
        <time>2021-08-05T09:06:52Z</time>
      </trkpt>
      <trkpt lat="42.96298" lon="0.30939">
        <ele>1409</ele>
        <time>2021-08-05T09:06:53Z</time>
      </trkpt>
      <trkpt lat="42.96299" lon="0.30946">
        <ele>1409.2</ele>
        <time>2021-08-05T09:06:55Z</time>
      </trkpt>
      <trkpt lat="42.96299" lon="0.30948">
        <ele>1409.6</ele>
        <time>2021-08-05T09:06:56Z</time>
      </trkpt>
      <trkpt lat="42.96299" lon="0.3095">
        <ele>1409.6</ele>
        <time>2021-08-05T09:06:57Z</time>
      </trkpt>
      <trkpt lat="42.963" lon="0.30951">
        <ele>1409.6</ele>
        <time>2021-08-05T09:06:58Z</time>
      </trkpt>
      <trkpt lat="42.963" lon="0.30951">
        <ele>1409.8</ele>
        <time>2021-08-05T09:06:59Z</time>
      </trkpt>
      <trkpt lat="42.963" lon="0.30951">
        <ele>1410</ele>
        <time>2021-08-05T09:07:01Z</time>
      </trkpt>
      <trkpt lat="42.96299" lon="0.30951">
        <ele>1410.4</ele>
        <time>2021-08-05T09:07:03Z</time>
      </trkpt>
      <trkpt lat="42.96299" lon="0.30951">
        <ele>1410.8</ele>
        <time>2021-08-05T09:07:07Z</time>
      </trkpt>
      <trkpt lat="42.963" lon="0.3095">
        <ele>1411</ele>
        <time>2021-08-05T09:07:14Z</time>
      </trkpt>
      <trkpt lat="42.96301" lon="0.30949">
        <ele>1411</ele>
        <time>2021-08-05T09:07:20Z</time>
      </trkpt>
      <trkpt lat="42.96301" lon="0.30949">
        <ele>1411</ele>
        <time>2021-08-05T09:07:22Z</time>
      </trkpt>
      <trkpt lat="42.96302" lon="0.30946">
        <ele>1411.8</ele>
        <time>2021-08-05T09:07:58Z</time>
      </trkpt>
      <trkpt lat="42.96302" lon="0.30946">
        <ele>1411.6</ele>
        <time>2021-08-05T09:08:00Z</time>
      </trkpt>
      <trkpt lat="42.963" lon="0.30945">
        <ele>1411.6</ele>
        <time>2021-08-05T09:08:05Z</time>
      </trkpt>
      <trkpt lat="42.963" lon="0.30945">
        <ele>1411.2</ele>
        <time>2021-08-05T09:08:13Z</time>
      </trkpt>
      <trkpt lat="42.963" lon="0.30945">
        <ele>1411</ele>
        <time>2021-08-05T09:08:25Z</time>
      </trkpt>
      <trkpt lat="42.963" lon="0.30945">
        <ele>1411</ele>
        <time>2021-08-05T09:09:02Z</time>
      </trkpt>
      <trkpt lat="42.96299" lon="0.30945">
        <ele>1411.2</ele>
        <time>2021-08-05T09:09:28Z</time>
      </trkpt>
      <trkpt lat="42.96299" lon="0.30942">
        <ele>1411.2</ele>
        <time>2021-08-05T09:09:29Z</time>
      </trkpt>
      <trkpt lat="42.96298" lon="0.30936">
        <ele>1411.2</ele>
        <time>2021-08-05T09:09:31Z</time>
      </trkpt>
      <trkpt lat="42.96298" lon="0.30934">
        <ele>1411.2</ele>
        <time>2021-08-05T09:09:32Z</time>
      </trkpt>
      <trkpt lat="42.96298" lon="0.30931">
        <ele>1411.2</ele>
        <time>2021-08-05T09:09:33Z</time>
      </trkpt>
      <trkpt lat="42.96297" lon="0.30928">
        <ele>1411.2</ele>
        <time>2021-08-05T09:09:34Z</time>
      </trkpt>
      <trkpt lat="42.96294" lon="0.30915">
        <ele>1411</ele>
        <time>2021-08-05T09:09:38Z</time>
      </trkpt>
      <trkpt lat="42.96288" lon="0.30892">
        <ele>1410.6</ele>
        <time>2021-08-05T09:09:43Z</time>
      </trkpt>
      <trkpt lat="42.96289" lon="0.30881">
        <ele>1410.4</ele>
        <time>2021-08-05T09:09:45Z</time>
      </trkpt>
      <trkpt lat="42.9629" lon="0.30876">
        <ele>1410.2</ele>
        <time>2021-08-05T09:09:46Z</time>
      </trkpt>
      <trkpt lat="42.96292" lon="0.30871">
        <ele>1410.2</ele>
        <time>2021-08-05T09:09:47Z</time>
      </trkpt>
      <trkpt lat="42.96295" lon="0.30866">
        <ele>1410</ele>
        <time>2021-08-05T09:09:48Z</time>
      </trkpt>
      <trkpt lat="42.96297" lon="0.30861">
        <ele>1410</ele>
        <time>2021-08-05T09:09:49Z</time>
      </trkpt>
      <trkpt lat="42.96311" lon="0.30836">
        <ele>1409.4</ele>
        <time>2021-08-05T09:09:54Z</time>
      </trkpt>
      <trkpt lat="42.96322" lon="0.3082">
        <ele>1409</ele>
        <time>2021-08-05T09:09:57Z</time>
      </trkpt>
      <trkpt lat="42.96332" lon="0.3081">
        <ele>1409</ele>
        <time>2021-08-05T09:09:59Z</time>
      </trkpt>
      <trkpt lat="42.96364" lon="0.30787">
        <ele>1408.4</ele>
        <time>2021-08-05T09:10:04Z</time>
      </trkpt>
      <trkpt lat="42.96372" lon="0.30783">
        <ele>1407.8</ele>
        <time>2021-08-05T09:10:05Z</time>
      </trkpt>
      <trkpt lat="42.96394" lon="0.3077">
        <ele>1406.8</ele>
        <time>2021-08-05T09:10:08Z</time>
      </trkpt>
      <trkpt lat="42.96401" lon="0.30764">
        <ele>1406.6</ele>
        <time>2021-08-05T09:10:09Z</time>
      </trkpt>
      <trkpt lat="42.96411" lon="0.30748">
        <ele>1406.2</ele>
        <time>2021-08-05T09:10:11Z</time>
      </trkpt>
      <trkpt lat="42.96414" lon="0.30738">
        <ele>1405.6</ele>
        <time>2021-08-05T09:10:12Z</time>
      </trkpt>
      <trkpt lat="42.96415" lon="0.30727">
        <ele>1405.4</ele>
        <time>2021-08-05T09:10:13Z</time>
      </trkpt>
      <trkpt lat="42.96415" lon="0.30715">
        <ele>1405</ele>
        <time>2021-08-05T09:10:14Z</time>
      </trkpt>
      <trkpt lat="42.96415" lon="0.30702">
        <ele>1405</ele>
        <time>2021-08-05T09:10:15Z</time>
      </trkpt>
      <trkpt lat="42.96414" lon="0.3069">
        <ele>1404.8</ele>
        <time>2021-08-05T09:10:16Z</time>
      </trkpt>
      <trkpt lat="42.96414" lon="0.30677">
        <ele>1404.6</ele>
        <time>2021-08-05T09:10:17Z</time>
      </trkpt>
      <trkpt lat="42.96416" lon="0.30664">
        <ele>1404.2</ele>
        <time>2021-08-05T09:10:18Z</time>
      </trkpt>
      <trkpt lat="42.96418" lon="0.30651">
        <ele>1403.8</ele>
        <time>2021-08-05T09:10:19Z</time>
      </trkpt>
      <trkpt lat="42.96425" lon="0.30625">
        <ele>1403</ele>
        <time>2021-08-05T09:10:21Z</time>
      </trkpt>
      <trkpt lat="42.96426" lon="0.30596">
        <ele>1401.8</ele>
        <time>2021-08-05T09:10:23Z</time>
      </trkpt>
      <trkpt lat="42.96424" lon="0.30582">
        <ele>1401.2</ele>
        <time>2021-08-05T09:10:24Z</time>
      </trkpt>
      <trkpt lat="42.96423" lon="0.30567">
        <ele>1400.8</ele>
        <time>2021-08-05T09:10:25Z</time>
      </trkpt>
      <trkpt lat="42.96422" lon="0.30552">
        <ele>1400</ele>
        <time>2021-08-05T09:10:26Z</time>
      </trkpt>
      <trkpt lat="42.96422" lon="0.30537">
        <ele>1399.4</ele>
        <time>2021-08-05T09:10:27Z</time>
      </trkpt>
      <trkpt lat="42.96422" lon="0.30521">
        <ele>1399</ele>
        <time>2021-08-05T09:10:28Z</time>
      </trkpt>
      <trkpt lat="42.9642" lon="0.30505">
        <ele>1398</ele>
        <time>2021-08-05T09:10:29Z</time>
      </trkpt>
      <trkpt lat="42.96416" lon="0.30489">
        <ele>1397.6</ele>
        <time>2021-08-05T09:10:30Z</time>
      </trkpt>
      <trkpt lat="42.96412" lon="0.30474">
        <ele>1396.6</ele>
        <time>2021-08-05T09:10:31Z</time>
      </trkpt>
      <trkpt lat="42.96408" lon="0.3046">
        <ele>1395.8</ele>
        <time>2021-08-05T09:10:32Z</time>
      </trkpt>
      <trkpt lat="42.96407" lon="0.30446">
        <ele>1394.4</ele>
        <time>2021-08-05T09:10:33Z</time>
      </trkpt>
      <trkpt lat="42.96406" lon="0.30433">
        <ele>1393.8</ele>
        <time>2021-08-05T09:10:34Z</time>
      </trkpt>
      <trkpt lat="42.96408" lon="0.30419">
        <ele>1392.6</ele>
        <time>2021-08-05T09:10:35Z</time>
      </trkpt>
      <trkpt lat="42.96411" lon="0.30406">
        <ele>1391.8</ele>
        <time>2021-08-05T09:10:36Z</time>
      </trkpt>
      <trkpt lat="42.96415" lon="0.30393">
        <ele>1390.8</ele>
        <time>2021-08-05T09:10:37Z</time>
      </trkpt>
      <trkpt lat="42.96419" lon="0.3038">
        <ele>1390.2</ele>
        <time>2021-08-05T09:10:38Z</time>
      </trkpt>
      <trkpt lat="42.96421" lon="0.30368">
        <ele>1389.6</ele>
        <time>2021-08-05T09:10:39Z</time>
      </trkpt>
      <trkpt lat="42.96422" lon="0.30356">
        <ele>1389</ele>
        <time>2021-08-05T09:10:40Z</time>
      </trkpt>
      <trkpt lat="42.96424" lon="0.30347">
        <ele>1387.8</ele>
        <time>2021-08-05T09:10:41Z</time>
      </trkpt>
      <trkpt lat="42.96428" lon="0.3034">
        <ele>1387.2</ele>
        <time>2021-08-05T09:10:42Z</time>
      </trkpt>
      <trkpt lat="42.96433" lon="0.30335">
        <ele>1386</ele>
        <time>2021-08-05T09:10:43Z</time>
      </trkpt>
      <trkpt lat="42.96437" lon="0.3033">
        <ele>1384.6</ele>
        <time>2021-08-05T09:10:44Z</time>
      </trkpt>
      <trkpt lat="42.9644" lon="0.30324">
        <ele>1384.2</ele>
        <time>2021-08-05T09:10:45Z</time>
      </trkpt>
      <trkpt lat="42.96441" lon="0.30317">
        <ele>1383.2</ele>
        <time>2021-08-05T09:10:46Z</time>
      </trkpt>
      <trkpt lat="42.96441" lon="0.30312">
        <ele>1383</ele>
        <time>2021-08-05T09:10:47Z</time>
      </trkpt>
      <trkpt lat="42.9644" lon="0.30308">
        <ele>1382.8</ele>
        <time>2021-08-05T09:10:48Z</time>
      </trkpt>
      <trkpt lat="42.9644" lon="0.30304">
        <ele>1382.8</ele>
        <time>2021-08-05T09:10:49Z</time>
      </trkpt>
      <trkpt lat="42.9644" lon="0.30301">
        <ele>1382.6</ele>
        <time>2021-08-05T09:10:50Z</time>
      </trkpt>
      <trkpt lat="42.9644" lon="0.30298">
        <ele>1382.6</ele>
        <time>2021-08-05T09:10:51Z</time>
      </trkpt>
      <trkpt lat="42.9644" lon="0.30296">
        <ele>1382.6</ele>
        <time>2021-08-05T09:10:52Z</time>
      </trkpt>
      <trkpt lat="42.9644" lon="0.30293">
        <ele>1382.8</ele>
        <time>2021-08-05T09:10:53Z</time>
      </trkpt>
      <trkpt lat="42.9644" lon="0.30291">
        <ele>1383.2</ele>
        <time>2021-08-05T09:10:54Z</time>
      </trkpt>
      <trkpt lat="42.96441" lon="0.30288">
        <ele>1383.4</ele>
        <time>2021-08-05T09:10:55Z</time>
      </trkpt>
      <trkpt lat="42.96441" lon="0.30286">
        <ele>1383.6</ele>
        <time>2021-08-05T09:10:56Z</time>
      </trkpt>
      <trkpt lat="42.96442" lon="0.30283">
        <ele>1383.8</ele>
        <time>2021-08-05T09:10:57Z</time>
      </trkpt>
      <trkpt lat="42.96442" lon="0.3028">
        <ele>1384</ele>
        <time>2021-08-05T09:10:58Z</time>
      </trkpt>
      <trkpt lat="42.96442" lon="0.30275">
        <ele>1384.6</ele>
        <time>2021-08-05T09:11:00Z</time>
      </trkpt>
      <trkpt lat="42.96442" lon="0.30272">
        <ele>1384.8</ele>
        <time>2021-08-05T09:11:01Z</time>
      </trkpt>
      <trkpt lat="42.96442" lon="0.30262">
        <ele>1385.2</ele>
        <time>2021-08-05T09:11:05Z</time>
      </trkpt>
      <trkpt lat="42.96443" lon="0.30257">
        <ele>1386</ele>
        <time>2021-08-05T09:11:07Z</time>
      </trkpt>
      <trkpt lat="42.96443" lon="0.30254">
        <ele>1386</ele>
        <time>2021-08-05T09:11:08Z</time>
      </trkpt>
      <trkpt lat="42.96444" lon="0.30243">
        <ele>1386.6</ele>
        <time>2021-08-05T09:11:12Z</time>
      </trkpt>
      <trkpt lat="42.96444" lon="0.30241">
        <ele>1387</ele>
        <time>2021-08-05T09:11:13Z</time>
      </trkpt>
      <trkpt lat="42.96442" lon="0.3023">
        <ele>1387.8</ele>
        <time>2021-08-05T09:11:17Z</time>
      </trkpt>
      <trkpt lat="42.96442" lon="0.30227">
        <ele>1388</ele>
        <time>2021-08-05T09:11:18Z</time>
      </trkpt>
      <trkpt lat="42.96441" lon="0.30225">
        <ele>1388</ele>
        <time>2021-08-05T09:11:19Z</time>
      </trkpt>
      <trkpt lat="42.9644" lon="0.3022">
        <ele>1388.4</ele>
        <time>2021-08-05T09:11:21Z</time>
      </trkpt>
      <trkpt lat="42.96439" lon="0.30218">
        <ele>1388.6</ele>
        <time>2021-08-05T09:11:22Z</time>
      </trkpt>
      <trkpt lat="42.96439" lon="0.30215">
        <ele>1388.8</ele>
        <time>2021-08-05T09:11:23Z</time>
      </trkpt>
      <trkpt lat="42.96438" lon="0.30213">
        <ele>1389.2</ele>
        <time>2021-08-05T09:11:24Z</time>
      </trkpt>
      <trkpt lat="42.96437" lon="0.3021">
        <ele>1389.2</ele>
        <time>2021-08-05T09:11:25Z</time>
      </trkpt>
      <trkpt lat="42.96437" lon="0.30208">
        <ele>1389.4</ele>
        <time>2021-08-05T09:11:26Z</time>
      </trkpt>
      <trkpt lat="42.96436" lon="0.30205">
        <ele>1389.4</ele>
        <time>2021-08-05T09:11:27Z</time>
      </trkpt>
      <trkpt lat="42.96436" lon="0.30203">
        <ele>1389.6</ele>
        <time>2021-08-05T09:11:28Z</time>
      </trkpt>
      <trkpt lat="42.96435" lon="0.302">
        <ele>1389.6</ele>
        <time>2021-08-05T09:11:29Z</time>
      </trkpt>
      <trkpt lat="42.96434" lon="0.30198">
        <ele>1390</ele>
        <time>2021-08-05T09:11:30Z</time>
      </trkpt>
      <trkpt lat="42.96433" lon="0.30195">
        <ele>1390.2</ele>
        <time>2021-08-05T09:11:31Z</time>
      </trkpt>
      <trkpt lat="42.96432" lon="0.30192">
        <ele>1390.4</ele>
        <time>2021-08-05T09:11:32Z</time>
      </trkpt>
      <trkpt lat="42.96431" lon="0.3019">
        <ele>1390.4</ele>
        <time>2021-08-05T09:11:33Z</time>
      </trkpt>
      <trkpt lat="42.96431" lon="0.30187">
        <ele>1390.6</ele>
        <time>2021-08-05T09:11:34Z</time>
      </trkpt>
      <trkpt lat="42.9643" lon="0.30185">
        <ele>1390.8</ele>
        <time>2021-08-05T09:11:35Z</time>
      </trkpt>
      <trkpt lat="42.96429" lon="0.30182">
        <ele>1391</ele>
        <time>2021-08-05T09:11:36Z</time>
      </trkpt>
      <trkpt lat="42.96428" lon="0.30179">
        <ele>1391</ele>
        <time>2021-08-05T09:11:37Z</time>
      </trkpt>
      <trkpt lat="42.96427" lon="0.30177">
        <ele>1391.2</ele>
        <time>2021-08-05T09:11:38Z</time>
      </trkpt>
      <trkpt lat="42.96427" lon="0.30175">
        <ele>1391.4</ele>
        <time>2021-08-05T09:11:39Z</time>
      </trkpt>
      <trkpt lat="42.96426" lon="0.30173">
        <ele>1391.6</ele>
        <time>2021-08-05T09:11:40Z</time>
      </trkpt>
      <trkpt lat="42.96425" lon="0.3017">
        <ele>1391.8</ele>
        <time>2021-08-05T09:11:41Z</time>
      </trkpt>
      <trkpt lat="42.96425" lon="0.30168">
        <ele>1391.8</ele>
        <time>2021-08-05T09:11:42Z</time>
      </trkpt>
      <trkpt lat="42.96424" lon="0.30165">
        <ele>1392</ele>
        <time>2021-08-05T09:11:43Z</time>
      </trkpt>
      <trkpt lat="42.96424" lon="0.30163">
        <ele>1392.4</ele>
        <time>2021-08-05T09:11:44Z</time>
      </trkpt>
      <trkpt lat="42.96423" lon="0.3016">
        <ele>1392.6</ele>
        <time>2021-08-05T09:11:45Z</time>
      </trkpt>
      <trkpt lat="42.96423" lon="0.30157">
        <ele>1392.6</ele>
        <time>2021-08-05T09:11:46Z</time>
      </trkpt>
      <trkpt lat="42.96423" lon="0.30155">
        <ele>1392.8</ele>
        <time>2021-08-05T09:11:47Z</time>
      </trkpt>
      <trkpt lat="42.96422" lon="0.30152">
        <ele>1392.8</ele>
        <time>2021-08-05T09:11:48Z</time>
      </trkpt>
      <trkpt lat="42.96422" lon="0.3015">
        <ele>1393</ele>
        <time>2021-08-05T09:11:49Z</time>
      </trkpt>
      <trkpt lat="42.96422" lon="0.30147">
        <ele>1393.2</ele>
        <time>2021-08-05T09:11:50Z</time>
      </trkpt>
      <trkpt lat="42.96422" lon="0.30145">
        <ele>1393.4</ele>
        <time>2021-08-05T09:11:51Z</time>
      </trkpt>
      <trkpt lat="42.96423" lon="0.30142">
        <ele>1393.6</ele>
        <time>2021-08-05T09:11:52Z</time>
      </trkpt>
      <trkpt lat="42.96423" lon="0.3014">
        <ele>1393.8</ele>
        <time>2021-08-05T09:11:53Z</time>
      </trkpt>
      <trkpt lat="42.96423" lon="0.30138">
        <ele>1394.2</ele>
        <time>2021-08-05T09:11:54Z</time>
      </trkpt>
      <trkpt lat="42.96422" lon="0.30137">
        <ele>1394.2</ele>
        <time>2021-08-05T09:11:55Z</time>
      </trkpt>
      <trkpt lat="42.96421" lon="0.30135">
        <ele>1394.4</ele>
        <time>2021-08-05T09:11:56Z</time>
      </trkpt>
      <trkpt lat="42.96421" lon="0.30132">
        <ele>1394.6</ele>
        <time>2021-08-05T09:11:57Z</time>
      </trkpt>
      <trkpt lat="42.96421" lon="0.30129">
        <ele>1394.8</ele>
        <time>2021-08-05T09:11:58Z</time>
      </trkpt>
      <trkpt lat="42.96421" lon="0.30127">
        <ele>1395</ele>
        <time>2021-08-05T09:11:59Z</time>
      </trkpt>
      <trkpt lat="42.96421" lon="0.30124">
        <ele>1395.2</ele>
        <time>2021-08-05T09:12:00Z</time>
      </trkpt>
      <trkpt lat="42.96421" lon="0.30122">
        <ele>1395.4</ele>
        <time>2021-08-05T09:12:01Z</time>
      </trkpt>
      <trkpt lat="42.96421" lon="0.3012">
        <ele>1395.6</ele>
        <time>2021-08-05T09:12:02Z</time>
      </trkpt>
      <trkpt lat="42.96421" lon="0.30118">
        <ele>1395.8</ele>
        <time>2021-08-05T09:12:03Z</time>
      </trkpt>
      <trkpt lat="42.96421" lon="0.30116">
        <ele>1396.2</ele>
        <time>2021-08-05T09:12:04Z</time>
      </trkpt>
      <trkpt lat="42.96421" lon="0.30115">
        <ele>1396.2</ele>
        <time>2021-08-05T09:12:05Z</time>
      </trkpt>
      <trkpt lat="42.96422" lon="0.30113">
        <ele>1396.6</ele>
        <time>2021-08-05T09:12:06Z</time>
      </trkpt>
      <trkpt lat="42.96422" lon="0.30111">
        <ele>1396.8</ele>
        <time>2021-08-05T09:12:07Z</time>
      </trkpt>
      <trkpt lat="42.96422" lon="0.30109">
        <ele>1397</ele>
        <time>2021-08-05T09:12:08Z</time>
      </trkpt>
      <trkpt lat="42.96422" lon="0.30108">
        <ele>1397.4</ele>
        <time>2021-08-05T09:12:09Z</time>
      </trkpt>
      <trkpt lat="42.96421" lon="0.30105">
        <ele>1397.4</ele>
        <time>2021-08-05T09:12:10Z</time>
      </trkpt>
      <trkpt lat="42.96421" lon="0.30103">
        <ele>1397.6</ele>
        <time>2021-08-05T09:12:11Z</time>
      </trkpt>
      <trkpt lat="42.9642" lon="0.301">
        <ele>1397.6</ele>
        <time>2021-08-05T09:12:12Z</time>
      </trkpt>
      <trkpt lat="42.9642" lon="0.30097">
        <ele>1397.8</ele>
        <time>2021-08-05T09:12:13Z</time>
      </trkpt>
      <trkpt lat="42.9642" lon="0.30095">
        <ele>1398</ele>
        <time>2021-08-05T09:12:14Z</time>
      </trkpt>
      <trkpt lat="42.96419" lon="0.30091">
        <ele>1398.2</ele>
        <time>2021-08-05T09:12:15Z</time>
      </trkpt>
      <trkpt lat="42.96419" lon="0.30088">
        <ele>1398.4</ele>
        <time>2021-08-05T09:12:16Z</time>
      </trkpt>
      <trkpt lat="42.9642" lon="0.30084">
        <ele>1398.6</ele>
        <time>2021-08-05T09:12:17Z</time>
      </trkpt>
      <trkpt lat="42.9642" lon="0.30081">
        <ele>1398.6</ele>
        <time>2021-08-05T09:12:18Z</time>
      </trkpt>
      <trkpt lat="42.9642" lon="0.30078">
        <ele>1399</ele>
        <time>2021-08-05T09:12:19Z</time>
      </trkpt>
      <trkpt lat="42.9642" lon="0.30075">
        <ele>1399</ele>
        <time>2021-08-05T09:12:20Z</time>
      </trkpt>
      <trkpt lat="42.9642" lon="0.30072">
        <ele>1399.2</ele>
        <time>2021-08-05T09:12:21Z</time>
      </trkpt>
      <trkpt lat="42.9642" lon="0.30069">
        <ele>1399.4</ele>
        <time>2021-08-05T09:12:22Z</time>
      </trkpt>
      <trkpt lat="42.96421" lon="0.30067">
        <ele>1399.8</ele>
        <time>2021-08-05T09:12:23Z</time>
      </trkpt>
      <trkpt lat="42.96421" lon="0.30065">
        <ele>1399.8</ele>
        <time>2021-08-05T09:12:24Z</time>
      </trkpt>
      <trkpt lat="42.96421" lon="0.30062">
        <ele>1400</ele>
        <time>2021-08-05T09:12:25Z</time>
      </trkpt>
      <trkpt lat="42.96422" lon="0.3006">
        <ele>1400</ele>
        <time>2021-08-05T09:12:26Z</time>
      </trkpt>
      <trkpt lat="42.96422" lon="0.30058">
        <ele>1400.4</ele>
        <time>2021-08-05T09:12:27Z</time>
      </trkpt>
      <trkpt lat="42.96421" lon="0.30056">
        <ele>1400.6</ele>
        <time>2021-08-05T09:12:28Z</time>
      </trkpt>
      <trkpt lat="42.96421" lon="0.30053">
        <ele>1400.6</ele>
        <time>2021-08-05T09:12:29Z</time>
      </trkpt>
      <trkpt lat="42.9642" lon="0.3005">
        <ele>1400.8</ele>
        <time>2021-08-05T09:12:30Z</time>
      </trkpt>
      <trkpt lat="42.96419" lon="0.30047">
        <ele>1401</ele>
        <time>2021-08-05T09:12:31Z</time>
      </trkpt>
      <trkpt lat="42.96419" lon="0.30045">
        <ele>1401.4</ele>
        <time>2021-08-05T09:12:32Z</time>
      </trkpt>
      <trkpt lat="42.96418" lon="0.30042">
        <ele>1401.4</ele>
        <time>2021-08-05T09:12:33Z</time>
      </trkpt>
      <trkpt lat="42.96417" lon="0.3004">
        <ele>1402</ele>
        <time>2021-08-05T09:12:34Z</time>
      </trkpt>
      <trkpt lat="42.96416" lon="0.30036">
        <ele>1402.2</ele>
        <time>2021-08-05T09:12:35Z</time>
      </trkpt>
      <trkpt lat="42.96416" lon="0.30032">
        <ele>1402.4</ele>
        <time>2021-08-05T09:12:36Z</time>
      </trkpt>
      <trkpt lat="42.96415" lon="0.30029">
        <ele>1402.4</ele>
        <time>2021-08-05T09:12:37Z</time>
      </trkpt>
      <trkpt lat="42.96415" lon="0.30026">
        <ele>1402.4</ele>
        <time>2021-08-05T09:12:38Z</time>
      </trkpt>
      <trkpt lat="42.96415" lon="0.30023">
        <ele>1402.6</ele>
        <time>2021-08-05T09:12:39Z</time>
      </trkpt>
      <trkpt lat="42.96414" lon="0.3002">
        <ele>1402.6</ele>
        <time>2021-08-05T09:12:40Z</time>
      </trkpt>
      <trkpt lat="42.96414" lon="0.30017">
        <ele>1402.8</ele>
        <time>2021-08-05T09:12:41Z</time>
      </trkpt>
      <trkpt lat="42.96413" lon="0.30014">
        <ele>1402.8</ele>
        <time>2021-08-05T09:12:42Z</time>
      </trkpt>
      <trkpt lat="42.96412" lon="0.30011">
        <ele>1403</ele>
        <time>2021-08-05T09:12:43Z</time>
      </trkpt>
      <trkpt lat="42.96411" lon="0.30008">
        <ele>1403.2</ele>
        <time>2021-08-05T09:12:44Z</time>
      </trkpt>
      <trkpt lat="42.9641" lon="0.30003">
        <ele>1403.2</ele>
        <time>2021-08-05T09:12:45Z</time>
      </trkpt>
      <trkpt lat="42.96408" lon="0.3">
        <ele>1403.4</ele>
        <time>2021-08-05T09:12:46Z</time>
      </trkpt>
      <trkpt lat="42.96408" lon="0.29997">
        <ele>1403.4</ele>
        <time>2021-08-05T09:12:47Z</time>
      </trkpt>
      <trkpt lat="42.96408" lon="0.29995">
        <ele>1403.6</ele>
        <time>2021-08-05T09:12:48Z</time>
      </trkpt>
      <trkpt lat="42.96407" lon="0.29993">
        <ele>1403.8</ele>
        <time>2021-08-05T09:12:49Z</time>
      </trkpt>
      <trkpt lat="42.96407" lon="0.29993">
        <ele>1404</ele>
        <time>2021-08-05T09:12:50Z</time>
      </trkpt>
      <trkpt lat="42.96406" lon="0.29991">
        <ele>1404.2</ele>
        <time>2021-08-05T09:12:51Z</time>
      </trkpt>
      <trkpt lat="42.96405" lon="0.29989">
        <ele>1404.2</ele>
        <time>2021-08-05T09:12:52Z</time>
      </trkpt>
      <trkpt lat="42.96404" lon="0.29987">
        <ele>1404.4</ele>
        <time>2021-08-05T09:12:53Z</time>
      </trkpt>
      <trkpt lat="42.96402" lon="0.29984">
        <ele>1404.6</ele>
        <time>2021-08-05T09:12:54Z</time>
      </trkpt>
      <trkpt lat="42.96401" lon="0.29982">
        <ele>1405</ele>
        <time>2021-08-05T09:12:55Z</time>
      </trkpt>
      <trkpt lat="42.964" lon="0.29979">
        <ele>1405</ele>
        <time>2021-08-05T09:12:56Z</time>
      </trkpt>
      <trkpt lat="42.964" lon="0.29976">
        <ele>1405.2</ele>
        <time>2021-08-05T09:12:57Z</time>
      </trkpt>
      <trkpt lat="42.964" lon="0.29974">
        <ele>1405.4</ele>
        <time>2021-08-05T09:12:58Z</time>
      </trkpt>
      <trkpt lat="42.96399" lon="0.29971">
        <ele>1405.4</ele>
        <time>2021-08-05T09:12:59Z</time>
      </trkpt>
      <trkpt lat="42.96398" lon="0.29968">
        <ele>1405.6</ele>
        <time>2021-08-05T09:13:00Z</time>
      </trkpt>
      <trkpt lat="42.96396" lon="0.29965">
        <ele>1406</ele>
        <time>2021-08-05T09:13:01Z</time>
      </trkpt>
      <trkpt lat="42.96395" lon="0.29963">
        <ele>1406.4</ele>
        <time>2021-08-05T09:13:02Z</time>
      </trkpt>
      <trkpt lat="42.96395" lon="0.2996">
        <ele>1406.4</ele>
        <time>2021-08-05T09:13:03Z</time>
      </trkpt>
      <trkpt lat="42.96394" lon="0.29957">
        <ele>1406.8</ele>
        <time>2021-08-05T09:13:04Z</time>
      </trkpt>
      <trkpt lat="42.96394" lon="0.29955">
        <ele>1406.8</ele>
        <time>2021-08-05T09:13:05Z</time>
      </trkpt>
      <trkpt lat="42.96394" lon="0.29953">
        <ele>1407</ele>
        <time>2021-08-05T09:13:06Z</time>
      </trkpt>
      <trkpt lat="42.96392" lon="0.29951">
        <ele>1407</ele>
        <time>2021-08-05T09:13:07Z</time>
      </trkpt>
      <trkpt lat="42.96391" lon="0.29948">
        <ele>1407.4</ele>
        <time>2021-08-05T09:13:08Z</time>
      </trkpt>
      <trkpt lat="42.9639" lon="0.29944">
        <ele>1407.6</ele>
        <time>2021-08-05T09:13:09Z</time>
      </trkpt>
      <trkpt lat="42.9639" lon="0.29941">
        <ele>1407.8</ele>
        <time>2021-08-05T09:13:10Z</time>
      </trkpt>
      <trkpt lat="42.96389" lon="0.29938">
        <ele>1408</ele>
        <time>2021-08-05T09:13:11Z</time>
      </trkpt>
      <trkpt lat="42.96389" lon="0.29936">
        <ele>1408.2</ele>
        <time>2021-08-05T09:13:12Z</time>
      </trkpt>
      <trkpt lat="42.9639" lon="0.29933">
        <ele>1408.4</ele>
        <time>2021-08-05T09:13:13Z</time>
      </trkpt>
      <trkpt lat="42.9639" lon="0.29929">
        <ele>1408.6</ele>
        <time>2021-08-05T09:13:14Z</time>
      </trkpt>
      <trkpt lat="42.9639" lon="0.29926">
        <ele>1408.6</ele>
        <time>2021-08-05T09:13:15Z</time>
      </trkpt>
      <trkpt lat="42.9639" lon="0.29922">
        <ele>1409</ele>
        <time>2021-08-05T09:13:16Z</time>
      </trkpt>
      <trkpt lat="42.9639" lon="0.29919">
        <ele>1408.8</ele>
        <time>2021-08-05T09:13:17Z</time>
      </trkpt>
      <trkpt lat="42.9639" lon="0.29917">
        <ele>1409</ele>
        <time>2021-08-05T09:13:18Z</time>
      </trkpt>
      <trkpt lat="42.9639" lon="0.29914">
        <ele>1409.2</ele>
        <time>2021-08-05T09:13:19Z</time>
      </trkpt>
      <trkpt lat="42.9639" lon="0.29911">
        <ele>1409.2</ele>
        <time>2021-08-05T09:13:20Z</time>
      </trkpt>
      <trkpt lat="42.96391" lon="0.29908">
        <ele>1409.6</ele>
        <time>2021-08-05T09:13:21Z</time>
      </trkpt>
      <trkpt lat="42.96391" lon="0.29905">
        <ele>1409.8</ele>
        <time>2021-08-05T09:13:22Z</time>
      </trkpt>
      <trkpt lat="42.96391" lon="0.29903">
        <ele>1409.8</ele>
        <time>2021-08-05T09:13:23Z</time>
      </trkpt>
      <trkpt lat="42.96392" lon="0.299">
        <ele>1410</ele>
        <time>2021-08-05T09:13:24Z</time>
      </trkpt>
      <trkpt lat="42.96393" lon="0.29897">
        <ele>1410</ele>
        <time>2021-08-05T09:13:25Z</time>
      </trkpt>
      <trkpt lat="42.96392" lon="0.29894">
        <ele>1410</ele>
        <time>2021-08-05T09:13:26Z</time>
      </trkpt>
      <trkpt lat="42.96392" lon="0.29891">
        <ele>1410.4</ele>
        <time>2021-08-05T09:13:27Z</time>
      </trkpt>
      <trkpt lat="42.96392" lon="0.29887">
        <ele>1410.4</ele>
        <time>2021-08-05T09:13:28Z</time>
      </trkpt>
      <trkpt lat="42.96393" lon="0.29884">
        <ele>1410.8</ele>
        <time>2021-08-05T09:13:29Z</time>
      </trkpt>
      <trkpt lat="42.96393" lon="0.2988">
        <ele>1410.8</ele>
        <time>2021-08-05T09:13:30Z</time>
      </trkpt>
      <trkpt lat="42.96393" lon="0.29877">
        <ele>1411</ele>
        <time>2021-08-05T09:13:31Z</time>
      </trkpt>
      <trkpt lat="42.96393" lon="0.29874">
        <ele>1411</ele>
        <time>2021-08-05T09:13:32Z</time>
      </trkpt>
      <trkpt lat="42.96394" lon="0.29871">
        <ele>1411.2</ele>
        <time>2021-08-05T09:13:33Z</time>
      </trkpt>
      <trkpt lat="42.96394" lon="0.29867">
        <ele>1411.2</ele>
        <time>2021-08-05T09:13:34Z</time>
      </trkpt>
      <trkpt lat="42.96394" lon="0.29864">
        <ele>1411.4</ele>
        <time>2021-08-05T09:13:35Z</time>
      </trkpt>
      <trkpt lat="42.96394" lon="0.29861">
        <ele>1411.6</ele>
        <time>2021-08-05T09:13:36Z</time>
      </trkpt>
      <trkpt lat="42.96394" lon="0.29858">
        <ele>1411.8</ele>
        <time>2021-08-05T09:13:37Z</time>
      </trkpt>
      <trkpt lat="42.96394" lon="0.29855">
        <ele>1411.8</ele>
        <time>2021-08-05T09:13:38Z</time>
      </trkpt>
      <trkpt lat="42.96394" lon="0.29852">
        <ele>1412</ele>
        <time>2021-08-05T09:13:39Z</time>
      </trkpt>
      <trkpt lat="42.96394" lon="0.29849">
        <ele>1412.2</ele>
        <time>2021-08-05T09:13:40Z</time>
      </trkpt>
      <trkpt lat="42.96395" lon="0.29846">
        <ele>1412.2</ele>
        <time>2021-08-05T09:13:41Z</time>
      </trkpt>
      <trkpt lat="42.96395" lon="0.29843">
        <ele>1412.4</ele>
        <time>2021-08-05T09:13:42Z</time>
      </trkpt>
      <trkpt lat="42.96395" lon="0.2984">
        <ele>1412.4</ele>
        <time>2021-08-05T09:13:43Z</time>
      </trkpt>
      <trkpt lat="42.96395" lon="0.29838">
        <ele>1412.6</ele>
        <time>2021-08-05T09:13:44Z</time>
      </trkpt>
      <trkpt lat="42.96396" lon="0.29835">
        <ele>1412.8</ele>
        <time>2021-08-05T09:13:45Z</time>
      </trkpt>
      <trkpt lat="42.96396" lon="0.29833">
        <ele>1413</ele>
        <time>2021-08-05T09:13:46Z</time>
      </trkpt>
      <trkpt lat="42.96396" lon="0.29829">
        <ele>1413.2</ele>
        <time>2021-08-05T09:13:47Z</time>
      </trkpt>
      <trkpt lat="42.96397" lon="0.29826">
        <ele>1413.4</ele>
        <time>2021-08-05T09:13:48Z</time>
      </trkpt>
      <trkpt lat="42.96398" lon="0.29823">
        <ele>1413.4</ele>
        <time>2021-08-05T09:13:49Z</time>
      </trkpt>
      <trkpt lat="42.96398" lon="0.29821">
        <ele>1413.6</ele>
        <time>2021-08-05T09:13:50Z</time>
      </trkpt>
      <trkpt lat="42.96399" lon="0.29817">
        <ele>1413.6</ele>
        <time>2021-08-05T09:13:51Z</time>
      </trkpt>
      <trkpt lat="42.96399" lon="0.29813">
        <ele>1413.8</ele>
        <time>2021-08-05T09:13:52Z</time>
      </trkpt>
      <trkpt lat="42.96399" lon="0.2981">
        <ele>1413.8</ele>
        <time>2021-08-05T09:13:53Z</time>
      </trkpt>
      <trkpt lat="42.96399" lon="0.29807">
        <ele>1414</ele>
        <time>2021-08-05T09:13:54Z</time>
      </trkpt>
      <trkpt lat="42.964" lon="0.29803">
        <ele>1414.2</ele>
        <time>2021-08-05T09:13:55Z</time>
      </trkpt>
      <trkpt lat="42.964" lon="0.298">
        <ele>1414.4</ele>
        <time>2021-08-05T09:13:56Z</time>
      </trkpt>
      <trkpt lat="42.964" lon="0.29796">
        <ele>1414.4</ele>
        <time>2021-08-05T09:13:57Z</time>
      </trkpt>
      <trkpt lat="42.964" lon="0.29792">
        <ele>1414.6</ele>
        <time>2021-08-05T09:13:58Z</time>
      </trkpt>
      <trkpt lat="42.96401" lon="0.29789">
        <ele>1414.8</ele>
        <time>2021-08-05T09:13:59Z</time>
      </trkpt>
      <trkpt lat="42.96401" lon="0.29785">
        <ele>1415</ele>
        <time>2021-08-05T09:14:00Z</time>
      </trkpt>
      <trkpt lat="42.96401" lon="0.29781">
        <ele>1415.2</ele>
        <time>2021-08-05T09:14:01Z</time>
      </trkpt>
      <trkpt lat="42.96401" lon="0.29779">
        <ele>1415.2</ele>
        <time>2021-08-05T09:14:02Z</time>
      </trkpt>
      <trkpt lat="42.96401" lon="0.29776">
        <ele>1415.4</ele>
        <time>2021-08-05T09:14:03Z</time>
      </trkpt>
      <trkpt lat="42.96401" lon="0.29773">
        <ele>1415.4</ele>
        <time>2021-08-05T09:14:04Z</time>
      </trkpt>
      <trkpt lat="42.96402" lon="0.2977">
        <ele>1415.6</ele>
        <time>2021-08-05T09:14:05Z</time>
      </trkpt>
      <trkpt lat="42.96402" lon="0.29767">
        <ele>1415.6</ele>
        <time>2021-08-05T09:14:06Z</time>
      </trkpt>
      <trkpt lat="42.96402" lon="0.29763">
        <ele>1415.8</ele>
        <time>2021-08-05T09:14:07Z</time>
      </trkpt>
      <trkpt lat="42.96403" lon="0.29759">
        <ele>1415.8</ele>
        <time>2021-08-05T09:14:08Z</time>
      </trkpt>
      <trkpt lat="42.96403" lon="0.29755">
        <ele>1416</ele>
        <time>2021-08-05T09:14:09Z</time>
      </trkpt>
      <trkpt lat="42.96404" lon="0.29752">
        <ele>1416</ele>
        <time>2021-08-05T09:14:10Z</time>
      </trkpt>
      <trkpt lat="42.96405" lon="0.29749">
        <ele>1416.2</ele>
        <time>2021-08-05T09:14:11Z</time>
      </trkpt>
      <trkpt lat="42.96406" lon="0.29746">
        <ele>1416.2</ele>
        <time>2021-08-05T09:14:12Z</time>
      </trkpt>
      <trkpt lat="42.96406" lon="0.29742">
        <ele>1416.4</ele>
        <time>2021-08-05T09:14:13Z</time>
      </trkpt>
      <trkpt lat="42.96407" lon="0.29738">
        <ele>1416.6</ele>
        <time>2021-08-05T09:14:14Z</time>
      </trkpt>
      <trkpt lat="42.96407" lon="0.29735">
        <ele>1416.6</ele>
        <time>2021-08-05T09:14:15Z</time>
      </trkpt>
      <trkpt lat="42.96408" lon="0.29732">
        <ele>1416.6</ele>
        <time>2021-08-05T09:14:16Z</time>
      </trkpt>
      <trkpt lat="42.96408" lon="0.29728">
        <ele>1416.8</ele>
        <time>2021-08-05T09:14:17Z</time>
      </trkpt>
      <trkpt lat="42.96409" lon="0.29725">
        <ele>1416.8</ele>
        <time>2021-08-05T09:14:18Z</time>
      </trkpt>
      <trkpt lat="42.96409" lon="0.29722">
        <ele>1416.8</ele>
        <time>2021-08-05T09:14:19Z</time>
      </trkpt>
      <trkpt lat="42.96409" lon="0.29719">
        <ele>1417</ele>
        <time>2021-08-05T09:14:20Z</time>
      </trkpt>
      <trkpt lat="42.9641" lon="0.29715">
        <ele>1417</ele>
        <time>2021-08-05T09:14:21Z</time>
      </trkpt>
      <trkpt lat="42.9641" lon="0.29712">
        <ele>1417.2</ele>
        <time>2021-08-05T09:14:22Z</time>
      </trkpt>
      <trkpt lat="42.9641" lon="0.29709">
        <ele>1417.2</ele>
        <time>2021-08-05T09:14:23Z</time>
      </trkpt>
      <trkpt lat="42.9641" lon="0.29705">
        <ele>1417.6</ele>
        <time>2021-08-05T09:14:24Z</time>
      </trkpt>
      <trkpt lat="42.96411" lon="0.29702">
        <ele>1417.6</ele>
        <time>2021-08-05T09:14:25Z</time>
      </trkpt>
      <trkpt lat="42.96411" lon="0.29698">
        <ele>1417.8</ele>
        <time>2021-08-05T09:14:26Z</time>
      </trkpt>
      <trkpt lat="42.96411" lon="0.29695">
        <ele>1417.8</ele>
        <time>2021-08-05T09:14:27Z</time>
      </trkpt>
      <trkpt lat="42.96412" lon="0.29692">
        <ele>1418</ele>
        <time>2021-08-05T09:14:28Z</time>
      </trkpt>
      <trkpt lat="42.96412" lon="0.29689">
        <ele>1418.2</ele>
        <time>2021-08-05T09:14:29Z</time>
      </trkpt>
      <trkpt lat="42.96413" lon="0.29685">
        <ele>1418</ele>
        <time>2021-08-05T09:14:30Z</time>
      </trkpt>
      <trkpt lat="42.96413" lon="0.29682">
        <ele>1418.4</ele>
        <time>2021-08-05T09:14:31Z</time>
      </trkpt>
      <trkpt lat="42.96414" lon="0.29679">
        <ele>1418.4</ele>
        <time>2021-08-05T09:14:32Z</time>
      </trkpt>
      <trkpt lat="42.96415" lon="0.29676">
        <ele>1418.4</ele>
        <time>2021-08-05T09:14:33Z</time>
      </trkpt>
      <trkpt lat="42.96415" lon="0.29673">
        <ele>1418.6</ele>
        <time>2021-08-05T09:14:34Z</time>
      </trkpt>
      <trkpt lat="42.96416" lon="0.2967">
        <ele>1418.8</ele>
        <time>2021-08-05T09:14:35Z</time>
      </trkpt>
      <trkpt lat="42.96417" lon="0.29667">
        <ele>1418.8</ele>
        <time>2021-08-05T09:14:36Z</time>
      </trkpt>
      <trkpt lat="42.96418" lon="0.29664">
        <ele>1419</ele>
        <time>2021-08-05T09:14:37Z</time>
      </trkpt>
      <trkpt lat="42.96419" lon="0.29661">
        <ele>1419.2</ele>
        <time>2021-08-05T09:14:38Z</time>
      </trkpt>
      <trkpt lat="42.96421" lon="0.29658">
        <ele>1419.6</ele>
        <time>2021-08-05T09:14:39Z</time>
      </trkpt>
      <trkpt lat="42.96422" lon="0.29655">
        <ele>1419.8</ele>
        <time>2021-08-05T09:14:40Z</time>
      </trkpt>
      <trkpt lat="42.96423" lon="0.29652">
        <ele>1419.8</ele>
        <time>2021-08-05T09:14:41Z</time>
      </trkpt>
      <trkpt lat="42.96424" lon="0.2965">
        <ele>1420</ele>
        <time>2021-08-05T09:14:42Z</time>
      </trkpt>
      <trkpt lat="42.96426" lon="0.29648">
        <ele>1420.2</ele>
        <time>2021-08-05T09:14:43Z</time>
      </trkpt>
      <trkpt lat="42.96428" lon="0.29645">
        <ele>1420.2</ele>
        <time>2021-08-05T09:14:44Z</time>
      </trkpt>
      <trkpt lat="42.96429" lon="0.29643">
        <ele>1420.4</ele>
        <time>2021-08-05T09:14:45Z</time>
      </trkpt>
      <trkpt lat="42.96431" lon="0.29641">
        <ele>1420.6</ele>
        <time>2021-08-05T09:14:46Z</time>
      </trkpt>
      <trkpt lat="42.96433" lon="0.29639">
        <ele>1420.8</ele>
        <time>2021-08-05T09:14:47Z</time>
      </trkpt>
      <trkpt lat="42.96434" lon="0.29637">
        <ele>1421</ele>
        <time>2021-08-05T09:14:48Z</time>
      </trkpt>
      <trkpt lat="42.96436" lon="0.29634">
        <ele>1421</ele>
        <time>2021-08-05T09:14:49Z</time>
      </trkpt>
      <trkpt lat="42.96437" lon="0.29632">
        <ele>1421.2</ele>
        <time>2021-08-05T09:14:50Z</time>
      </trkpt>
      <trkpt lat="42.96439" lon="0.2963">
        <ele>1421.2</ele>
        <time>2021-08-05T09:14:51Z</time>
      </trkpt>
      <trkpt lat="42.9644" lon="0.29628">
        <ele>1421.4</ele>
        <time>2021-08-05T09:14:52Z</time>
      </trkpt>
      <trkpt lat="42.96442" lon="0.29626">
        <ele>1421.6</ele>
        <time>2021-08-05T09:14:53Z</time>
      </trkpt>
      <trkpt lat="42.96443" lon="0.29624">
        <ele>1421.8</ele>
        <time>2021-08-05T09:14:54Z</time>
      </trkpt>
      <trkpt lat="42.96445" lon="0.29622">
        <ele>1422</ele>
        <time>2021-08-05T09:14:55Z</time>
      </trkpt>
      <trkpt lat="42.96447" lon="0.2962">
        <ele>1422.2</ele>
        <time>2021-08-05T09:14:56Z</time>
      </trkpt>
      <trkpt lat="42.96448" lon="0.29618">
        <ele>1422.4</ele>
        <time>2021-08-05T09:14:57Z</time>
      </trkpt>
      <trkpt lat="42.9645" lon="0.29617">
        <ele>1422.6</ele>
        <time>2021-08-05T09:14:58Z</time>
      </trkpt>
      <trkpt lat="42.96451" lon="0.29615">
        <ele>1422.6</ele>
        <time>2021-08-05T09:14:59Z</time>
      </trkpt>
      <trkpt lat="42.96453" lon="0.29614">
        <ele>1422.8</ele>
        <time>2021-08-05T09:15:00Z</time>
      </trkpt>
      <trkpt lat="42.96455" lon="0.29612">
        <ele>1423</ele>
        <time>2021-08-05T09:15:01Z</time>
      </trkpt>
      <trkpt lat="42.96457" lon="0.2961">
        <ele>1423</ele>
        <time>2021-08-05T09:15:02Z</time>
      </trkpt>
      <trkpt lat="42.9646" lon="0.29609">
        <ele>1423.2</ele>
        <time>2021-08-05T09:15:03Z</time>
      </trkpt>
      <trkpt lat="42.96462" lon="0.29607">
        <ele>1423.4</ele>
        <time>2021-08-05T09:15:04Z</time>
      </trkpt>
      <trkpt lat="42.96464" lon="0.29605">
        <ele>1423.6</ele>
        <time>2021-08-05T09:15:05Z</time>
      </trkpt>
      <trkpt lat="42.96466" lon="0.29603">
        <ele>1423.6</ele>
        <time>2021-08-05T09:15:06Z</time>
      </trkpt>
      <trkpt lat="42.96468" lon="0.29601">
        <ele>1423.8</ele>
        <time>2021-08-05T09:15:07Z</time>
      </trkpt>
      <trkpt lat="42.96469" lon="0.29599">
        <ele>1424</ele>
        <time>2021-08-05T09:15:08Z</time>
      </trkpt>
      <trkpt lat="42.96471" lon="0.29597">
        <ele>1424</ele>
        <time>2021-08-05T09:15:09Z</time>
      </trkpt>
      <trkpt lat="42.96472" lon="0.29594">
        <ele>1424</ele>
        <time>2021-08-05T09:15:10Z</time>
      </trkpt>
      <trkpt lat="42.96473" lon="0.29592">
        <ele>1424.2</ele>
        <time>2021-08-05T09:15:11Z</time>
      </trkpt>
      <trkpt lat="42.96474" lon="0.29589">
        <ele>1424.4</ele>
        <time>2021-08-05T09:15:12Z</time>
      </trkpt>
      <trkpt lat="42.96474" lon="0.29587">
        <ele>1424.6</ele>
        <time>2021-08-05T09:15:13Z</time>
      </trkpt>
      <trkpt lat="42.96474" lon="0.29584">
        <ele>1424.6</ele>
        <time>2021-08-05T09:15:14Z</time>
      </trkpt>
      <trkpt lat="42.96474" lon="0.29581">
        <ele>1425</ele>
        <time>2021-08-05T09:15:15Z</time>
      </trkpt>
      <trkpt lat="42.96474" lon="0.29577">
        <ele>1425</ele>
        <time>2021-08-05T09:15:16Z</time>
      </trkpt>
      <trkpt lat="42.96475" lon="0.29574">
        <ele>1425.4</ele>
        <time>2021-08-05T09:15:17Z</time>
      </trkpt>
      <trkpt lat="42.96475" lon="0.2957">
        <ele>1425.4</ele>
        <time>2021-08-05T09:15:18Z</time>
      </trkpt>
      <trkpt lat="42.96474" lon="0.29567">
        <ele>1425.6</ele>
        <time>2021-08-05T09:15:19Z</time>
      </trkpt>
      <trkpt lat="42.96474" lon="0.29564">
        <ele>1425.8</ele>
        <time>2021-08-05T09:15:20Z</time>
      </trkpt>
      <trkpt lat="42.96473" lon="0.29561">
        <ele>1425.8</ele>
        <time>2021-08-05T09:15:21Z</time>
      </trkpt>
      <trkpt lat="42.96472" lon="0.29558">
        <ele>1426.2</ele>
        <time>2021-08-05T09:15:22Z</time>
      </trkpt>
      <trkpt lat="42.96472" lon="0.29555">
        <ele>1426.4</ele>
        <time>2021-08-05T09:15:23Z</time>
      </trkpt>
      <trkpt lat="42.96471" lon="0.29552">
        <ele>1426.6</ele>
        <time>2021-08-05T09:15:24Z</time>
      </trkpt>
      <trkpt lat="42.9647" lon="0.29548">
        <ele>1426.6</ele>
        <time>2021-08-05T09:15:25Z</time>
      </trkpt>
      <trkpt lat="42.96469" lon="0.29545">
        <ele>1427</ele>
        <time>2021-08-05T09:15:26Z</time>
      </trkpt>
      <trkpt lat="42.96469" lon="0.29542">
        <ele>1427</ele>
        <time>2021-08-05T09:15:27Z</time>
      </trkpt>
      <trkpt lat="42.96468" lon="0.29539">
        <ele>1427.2</ele>
        <time>2021-08-05T09:15:28Z</time>
      </trkpt>
      <trkpt lat="42.96468" lon="0.29536">
        <ele>1427.4</ele>
        <time>2021-08-05T09:15:29Z</time>
      </trkpt>
      <trkpt lat="42.96467" lon="0.29533">
        <ele>1427.6</ele>
        <time>2021-08-05T09:15:30Z</time>
      </trkpt>
      <trkpt lat="42.96466" lon="0.29531">
        <ele>1427.6</ele>
        <time>2021-08-05T09:15:31Z</time>
      </trkpt>
      <trkpt lat="42.96465" lon="0.29528">
        <ele>1428</ele>
        <time>2021-08-05T09:15:32Z</time>
      </trkpt>
      <trkpt lat="42.96465" lon="0.29525">
        <ele>1428.2</ele>
        <time>2021-08-05T09:15:33Z</time>
      </trkpt>
      <trkpt lat="42.96464" lon="0.29522">
        <ele>1428.4</ele>
        <time>2021-08-05T09:15:34Z</time>
      </trkpt>
      <trkpt lat="42.96463" lon="0.29519">
        <ele>1428.4</ele>
        <time>2021-08-05T09:15:35Z</time>
      </trkpt>
      <trkpt lat="42.96462" lon="0.29516">
        <ele>1428.6</ele>
        <time>2021-08-05T09:15:36Z</time>
      </trkpt>
      <trkpt lat="42.96462" lon="0.29513">
        <ele>1428.6</ele>
        <time>2021-08-05T09:15:37Z</time>
      </trkpt>
      <trkpt lat="42.96462" lon="0.29511">
        <ele>1429</ele>
        <time>2021-08-05T09:15:38Z</time>
      </trkpt>
      <trkpt lat="42.96462" lon="0.29508">
        <ele>1429.2</ele>
        <time>2021-08-05T09:15:39Z</time>
      </trkpt>
      <trkpt lat="42.96462" lon="0.29505">
        <ele>1429.4</ele>
        <time>2021-08-05T09:15:40Z</time>
      </trkpt>
      <trkpt lat="42.96463" lon="0.29502">
        <ele>1429.6</ele>
        <time>2021-08-05T09:15:41Z</time>
      </trkpt>
      <trkpt lat="42.96463" lon="0.29499">
        <ele>1429.8</ele>
        <time>2021-08-05T09:15:42Z</time>
      </trkpt>
      <trkpt lat="42.96464" lon="0.29497">
        <ele>1430</ele>
        <time>2021-08-05T09:15:43Z</time>
      </trkpt>
      <trkpt lat="42.96465" lon="0.29494">
        <ele>1430.2</ele>
        <time>2021-08-05T09:15:44Z</time>
      </trkpt>
      <trkpt lat="42.96466" lon="0.29492">
        <ele>1430.6</ele>
        <time>2021-08-05T09:15:45Z</time>
      </trkpt>
      <trkpt lat="42.96468" lon="0.29489">
        <ele>1430.8</ele>
        <time>2021-08-05T09:15:46Z</time>
      </trkpt>
      <trkpt lat="42.9647" lon="0.29487">
        <ele>1431.2</ele>
        <time>2021-08-05T09:15:47Z</time>
      </trkpt>
      <trkpt lat="42.96471" lon="0.29486">
        <ele>1431.4</ele>
        <time>2021-08-05T09:15:48Z</time>
      </trkpt>
      <trkpt lat="42.96473" lon="0.29484">
        <ele>1431.6</ele>
        <time>2021-08-05T09:15:49Z</time>
      </trkpt>
      <trkpt lat="42.96475" lon="0.29483">
        <ele>1431.8</ele>
        <time>2021-08-05T09:15:50Z</time>
      </trkpt>
      <trkpt lat="42.96477" lon="0.29483">
        <ele>1431.8</ele>
        <time>2021-08-05T09:15:51Z</time>
      </trkpt>
      <trkpt lat="42.96479" lon="0.29483">
        <ele>1432</ele>
        <time>2021-08-05T09:15:52Z</time>
      </trkpt>
      <trkpt lat="42.96482" lon="0.29482">
        <ele>1432.2</ele>
        <time>2021-08-05T09:15:53Z</time>
      </trkpt>
      <trkpt lat="42.96484" lon="0.29483">
        <ele>1432.4</ele>
        <time>2021-08-05T09:15:54Z</time>
      </trkpt>
      <trkpt lat="42.96486" lon="0.29484">
        <ele>1432.6</ele>
        <time>2021-08-05T09:15:55Z</time>
      </trkpt>
      <trkpt lat="42.96488" lon="0.29487">
        <ele>1432.8</ele>
        <time>2021-08-05T09:15:56Z</time>
      </trkpt>
      <trkpt lat="42.9649" lon="0.29488">
        <ele>1433</ele>
        <time>2021-08-05T09:15:57Z</time>
      </trkpt>
      <trkpt lat="42.96491" lon="0.2949">
        <ele>1433.2</ele>
        <time>2021-08-05T09:15:58Z</time>
      </trkpt>
      <trkpt lat="42.96493" lon="0.29492">
        <ele>1433.2</ele>
        <time>2021-08-05T09:15:59Z</time>
      </trkpt>
      <trkpt lat="42.96494" lon="0.29495">
        <ele>1433.6</ele>
        <time>2021-08-05T09:16:00Z</time>
      </trkpt>
      <trkpt lat="42.96495" lon="0.29497">
        <ele>1433.6</ele>
        <time>2021-08-05T09:16:01Z</time>
      </trkpt>
      <trkpt lat="42.96496" lon="0.295">
        <ele>1434</ele>
        <time>2021-08-05T09:16:02Z</time>
      </trkpt>
      <trkpt lat="42.96497" lon="0.29502">
        <ele>1434</ele>
        <time>2021-08-05T09:16:03Z</time>
      </trkpt>
      <trkpt lat="42.96498" lon="0.29505">
        <ele>1434.2</ele>
        <time>2021-08-05T09:16:04Z</time>
      </trkpt>
      <trkpt lat="42.96499" lon="0.29508">
        <ele>1434.4</ele>
        <time>2021-08-05T09:16:05Z</time>
      </trkpt>
      <trkpt lat="42.965" lon="0.29511">
        <ele>1434.6</ele>
        <time>2021-08-05T09:16:06Z</time>
      </trkpt>
      <trkpt lat="42.96501" lon="0.29514">
        <ele>1434.6</ele>
        <time>2021-08-05T09:16:07Z</time>
      </trkpt>
      <trkpt lat="42.96501" lon="0.29517">
        <ele>1434.8</ele>
        <time>2021-08-05T09:16:08Z</time>
      </trkpt>
      <trkpt lat="42.96502" lon="0.29519">
        <ele>1435</ele>
        <time>2021-08-05T09:16:09Z</time>
      </trkpt>
      <trkpt lat="42.96503" lon="0.29522">
        <ele>1435</ele>
        <time>2021-08-05T09:16:10Z</time>
      </trkpt>
      <trkpt lat="42.96503" lon="0.29524">
        <ele>1435.2</ele>
        <time>2021-08-05T09:16:11Z</time>
      </trkpt>
      <trkpt lat="42.96504" lon="0.29527">
        <ele>1435.4</ele>
        <time>2021-08-05T09:16:12Z</time>
      </trkpt>
      <trkpt lat="42.96505" lon="0.29529">
        <ele>1435.6</ele>
        <time>2021-08-05T09:16:13Z</time>
      </trkpt>
      <trkpt lat="42.96506" lon="0.29532">
        <ele>1435.6</ele>
        <time>2021-08-05T09:16:14Z</time>
      </trkpt>
      <trkpt lat="42.96506" lon="0.29534">
        <ele>1436</ele>
        <time>2021-08-05T09:16:15Z</time>
      </trkpt>
      <trkpt lat="42.96506" lon="0.29536">
        <ele>1436</ele>
        <time>2021-08-05T09:16:16Z</time>
      </trkpt>
      <trkpt lat="42.96507" lon="0.29539">
        <ele>1436.4</ele>
        <time>2021-08-05T09:16:17Z</time>
      </trkpt>
      <trkpt lat="42.96507" lon="0.29542">
        <ele>1436.4</ele>
        <time>2021-08-05T09:16:18Z</time>
      </trkpt>
      <trkpt lat="42.96508" lon="0.29544">
        <ele>1436.8</ele>
        <time>2021-08-05T09:16:19Z</time>
      </trkpt>
      <trkpt lat="42.96508" lon="0.29547">
        <ele>1436.8</ele>
        <time>2021-08-05T09:16:20Z</time>
      </trkpt>
      <trkpt lat="42.96509" lon="0.2955">
        <ele>1437</ele>
        <time>2021-08-05T09:16:21Z</time>
      </trkpt>
      <trkpt lat="42.9651" lon="0.29552">
        <ele>1437.2</ele>
        <time>2021-08-05T09:16:22Z</time>
      </trkpt>
      <trkpt lat="42.96511" lon="0.29555">
        <ele>1437.2</ele>
        <time>2021-08-05T09:16:23Z</time>
      </trkpt>
      <trkpt lat="42.96512" lon="0.29558">
        <ele>1437.2</ele>
        <time>2021-08-05T09:16:24Z</time>
      </trkpt>
      <trkpt lat="42.96513" lon="0.2956">
        <ele>1437.4</ele>
        <time>2021-08-05T09:16:25Z</time>
      </trkpt>
      <trkpt lat="42.96514" lon="0.29563">
        <ele>1437.6</ele>
        <time>2021-08-05T09:16:26Z</time>
      </trkpt>
      <trkpt lat="42.96515" lon="0.29566">
        <ele>1437.6</ele>
        <time>2021-08-05T09:16:27Z</time>
      </trkpt>
      <trkpt lat="42.96516" lon="0.29568">
        <ele>1437.8</ele>
        <time>2021-08-05T09:16:28Z</time>
      </trkpt>
      <trkpt lat="42.96517" lon="0.29571">
        <ele>1438</ele>
        <time>2021-08-05T09:16:29Z</time>
      </trkpt>
      <trkpt lat="42.96518" lon="0.29574">
        <ele>1438.2</ele>
        <time>2021-08-05T09:16:30Z</time>
      </trkpt>
      <trkpt lat="42.96519" lon="0.29577">
        <ele>1438.4</ele>
        <time>2021-08-05T09:16:31Z</time>
      </trkpt>
      <trkpt lat="42.9652" lon="0.29579">
        <ele>1438.4</ele>
        <time>2021-08-05T09:16:32Z</time>
      </trkpt>
      <trkpt lat="42.96522" lon="0.29582">
        <ele>1438.6</ele>
        <time>2021-08-05T09:16:33Z</time>
      </trkpt>
      <trkpt lat="42.96523" lon="0.29584">
        <ele>1439</ele>
        <time>2021-08-05T09:16:34Z</time>
      </trkpt>
      <trkpt lat="42.96525" lon="0.29585">
        <ele>1439.2</ele>
        <time>2021-08-05T09:16:35Z</time>
      </trkpt>
      <trkpt lat="42.96527" lon="0.29586">
        <ele>1439.4</ele>
        <time>2021-08-05T09:16:36Z</time>
      </trkpt>
      <trkpt lat="42.96529" lon="0.29586">
        <ele>1439.4</ele>
        <time>2021-08-05T09:16:37Z</time>
      </trkpt>
      <trkpt lat="42.9653" lon="0.29585">
        <ele>1439.6</ele>
        <time>2021-08-05T09:16:38Z</time>
      </trkpt>
      <trkpt lat="42.96531" lon="0.29584">
        <ele>1439.8</ele>
        <time>2021-08-05T09:16:39Z</time>
      </trkpt>
      <trkpt lat="42.96532" lon="0.29582">
        <ele>1439.8</ele>
        <time>2021-08-05T09:16:40Z</time>
      </trkpt>
      <trkpt lat="42.96533" lon="0.29579">
        <ele>1440</ele>
        <time>2021-08-05T09:16:41Z</time>
      </trkpt>
      <trkpt lat="42.96533" lon="0.29577">
        <ele>1440.2</ele>
        <time>2021-08-05T09:16:42Z</time>
      </trkpt>
      <trkpt lat="42.96533" lon="0.29574">
        <ele>1440.4</ele>
        <time>2021-08-05T09:16:43Z</time>
      </trkpt>
      <trkpt lat="42.96533" lon="0.29571">
        <ele>1440.6</ele>
        <time>2021-08-05T09:16:44Z</time>
      </trkpt>
      <trkpt lat="42.96533" lon="0.29568">
        <ele>1440.8</ele>
        <time>2021-08-05T09:16:45Z</time>
      </trkpt>
      <trkpt lat="42.96533" lon="0.29565">
        <ele>1441.2</ele>
        <time>2021-08-05T09:16:46Z</time>
      </trkpt>
      <trkpt lat="42.96532" lon="0.29562">
        <ele>1441.2</ele>
        <time>2021-08-05T09:16:47Z</time>
      </trkpt>
      <trkpt lat="42.96532" lon="0.29558">
        <ele>1441.6</ele>
        <time>2021-08-05T09:16:48Z</time>
      </trkpt>
      <trkpt lat="42.96531" lon="0.29555">
        <ele>1441.8</ele>
        <time>2021-08-05T09:16:49Z</time>
      </trkpt>
      <trkpt lat="42.9653" lon="0.29552">
        <ele>1442.2</ele>
        <time>2021-08-05T09:16:50Z</time>
      </trkpt>
      <trkpt lat="42.9653" lon="0.29549">
        <ele>1442.6</ele>
        <time>2021-08-05T09:16:51Z</time>
      </trkpt>
      <trkpt lat="42.96529" lon="0.29546">
        <ele>1442.4</ele>
        <time>2021-08-05T09:16:52Z</time>
      </trkpt>
      <trkpt lat="42.96529" lon="0.29543">
        <ele>1442.6</ele>
        <time>2021-08-05T09:16:53Z</time>
      </trkpt>
      <trkpt lat="42.96528" lon="0.2954">
        <ele>1442.6</ele>
        <time>2021-08-05T09:16:54Z</time>
      </trkpt>
      <trkpt lat="42.96528" lon="0.29537">
        <ele>1442.8</ele>
        <time>2021-08-05T09:16:55Z</time>
      </trkpt>
      <trkpt lat="42.96528" lon="0.29534">
        <ele>1443</ele>
        <time>2021-08-05T09:16:56Z</time>
      </trkpt>
      <trkpt lat="42.96528" lon="0.29531">
        <ele>1443.2</ele>
        <time>2021-08-05T09:16:57Z</time>
      </trkpt>
      <trkpt lat="42.96528" lon="0.29528">
        <ele>1443.4</ele>
        <time>2021-08-05T09:16:58Z</time>
      </trkpt>
      <trkpt lat="42.96528" lon="0.29525">
        <ele>1443.8</ele>
        <time>2021-08-05T09:16:59Z</time>
      </trkpt>
      <trkpt lat="42.96529" lon="0.29523">
        <ele>1443.8</ele>
        <time>2021-08-05T09:17:00Z</time>
      </trkpt>
      <trkpt lat="42.96529" lon="0.2952">
        <ele>1444.2</ele>
        <time>2021-08-05T09:17:01Z</time>
      </trkpt>
      <trkpt lat="42.96529" lon="0.29518">
        <ele>1444.2</ele>
        <time>2021-08-05T09:17:02Z</time>
      </trkpt>
      <trkpt lat="42.96529" lon="0.29515">
        <ele>1444.6</ele>
        <time>2021-08-05T09:17:03Z</time>
      </trkpt>
      <trkpt lat="42.96529" lon="0.29512">
        <ele>1444.8</ele>
        <time>2021-08-05T09:17:04Z</time>
      </trkpt>
      <trkpt lat="42.9653" lon="0.29509">
        <ele>1445</ele>
        <time>2021-08-05T09:17:05Z</time>
      </trkpt>
      <trkpt lat="42.9653" lon="0.29506">
        <ele>1445.2</ele>
        <time>2021-08-05T09:17:06Z</time>
      </trkpt>
      <trkpt lat="42.96531" lon="0.29503">
        <ele>1445.2</ele>
        <time>2021-08-05T09:17:07Z</time>
      </trkpt>
      <trkpt lat="42.96531" lon="0.295">
        <ele>1445.4</ele>
        <time>2021-08-05T09:17:08Z</time>
      </trkpt>
      <trkpt lat="42.96532" lon="0.29497">
        <ele>1445.6</ele>
        <time>2021-08-05T09:17:09Z</time>
      </trkpt>
      <trkpt lat="42.96533" lon="0.29494">
        <ele>1445.8</ele>
        <time>2021-08-05T09:17:10Z</time>
      </trkpt>
      <trkpt lat="42.96534" lon="0.29491">
        <ele>1446</ele>
        <time>2021-08-05T09:17:11Z</time>
      </trkpt>
      <trkpt lat="42.96534" lon="0.29489">
        <ele>1446.2</ele>
        <time>2021-08-05T09:17:12Z</time>
      </trkpt>
      <trkpt lat="42.96535" lon="0.29486">
        <ele>1446.4</ele>
        <time>2021-08-05T09:17:13Z</time>
      </trkpt>
      <trkpt lat="42.96536" lon="0.29483">
        <ele>1446.6</ele>
        <time>2021-08-05T09:17:14Z</time>
      </trkpt>
      <trkpt lat="42.96537" lon="0.29481">
        <ele>1446.6</ele>
        <time>2021-08-05T09:17:15Z</time>
      </trkpt>
      <trkpt lat="42.96538" lon="0.29479">
        <ele>1447.2</ele>
        <time>2021-08-05T09:17:16Z</time>
      </trkpt>
      <trkpt lat="42.96538" lon="0.29477">
        <ele>1447.2</ele>
        <time>2021-08-05T09:17:17Z</time>
      </trkpt>
      <trkpt lat="42.96539" lon="0.29475">
        <ele>1447.4</ele>
        <time>2021-08-05T09:17:18Z</time>
      </trkpt>
      <trkpt lat="42.96541" lon="0.29472">
        <ele>1447.6</ele>
        <time>2021-08-05T09:17:19Z</time>
      </trkpt>
      <trkpt lat="42.96542" lon="0.2947">
        <ele>1448</ele>
        <time>2021-08-05T09:17:20Z</time>
      </trkpt>
      <trkpt lat="42.96542" lon="0.29468">
        <ele>1448.2</ele>
        <time>2021-08-05T09:17:21Z</time>
      </trkpt>
      <trkpt lat="42.96543" lon="0.29466">
        <ele>1448.4</ele>
        <time>2021-08-05T09:17:22Z</time>
      </trkpt>
      <trkpt lat="42.96544" lon="0.29464">
        <ele>1448.8</ele>
        <time>2021-08-05T09:17:23Z</time>
      </trkpt>
      <trkpt lat="42.96545" lon="0.29462">
        <ele>1449</ele>
        <time>2021-08-05T09:17:24Z</time>
      </trkpt>
      <trkpt lat="42.96546" lon="0.2946">
        <ele>1449.4</ele>
        <time>2021-08-05T09:17:25Z</time>
      </trkpt>
      <trkpt lat="42.96547" lon="0.29457">
        <ele>1449.4</ele>
        <time>2021-08-05T09:17:26Z</time>
      </trkpt>
      <trkpt lat="42.96548" lon="0.29455">
        <ele>1449.6</ele>
        <time>2021-08-05T09:17:27Z</time>
      </trkpt>
      <trkpt lat="42.96548" lon="0.29452">
        <ele>1449.6</ele>
        <time>2021-08-05T09:17:28Z</time>
      </trkpt>
      <trkpt lat="42.96549" lon="0.29449">
        <ele>1449.8</ele>
        <time>2021-08-05T09:17:29Z</time>
      </trkpt>
      <trkpt lat="42.9655" lon="0.29447">
        <ele>1450</ele>
        <time>2021-08-05T09:17:30Z</time>
      </trkpt>
      <trkpt lat="42.9655" lon="0.29444">
        <ele>1450.2</ele>
        <time>2021-08-05T09:17:31Z</time>
      </trkpt>
      <trkpt lat="42.96551" lon="0.29442">
        <ele>1450.4</ele>
        <time>2021-08-05T09:17:32Z</time>
      </trkpt>
      <trkpt lat="42.96551" lon="0.29441">
        <ele>1450.6</ele>
        <time>2021-08-05T09:17:33Z</time>
      </trkpt>
      <trkpt lat="42.96552" lon="0.29439">
        <ele>1450.8</ele>
        <time>2021-08-05T09:17:34Z</time>
      </trkpt>
      <trkpt lat="42.96552" lon="0.29436">
        <ele>1451.2</ele>
        <time>2021-08-05T09:17:35Z</time>
      </trkpt>
      <trkpt lat="42.96552" lon="0.29434">
        <ele>1451.4</ele>
        <time>2021-08-05T09:17:36Z</time>
      </trkpt>
      <trkpt lat="42.96552" lon="0.29431">
        <ele>1451.6</ele>
        <time>2021-08-05T09:17:37Z</time>
      </trkpt>
      <trkpt lat="42.96551" lon="0.29429">
        <ele>1452</ele>
        <time>2021-08-05T09:17:38Z</time>
      </trkpt>
      <trkpt lat="42.96551" lon="0.29427">
        <ele>1452.2</ele>
        <time>2021-08-05T09:17:39Z</time>
      </trkpt>
      <trkpt lat="42.96551" lon="0.29424">
        <ele>1452.4</ele>
        <time>2021-08-05T09:17:40Z</time>
      </trkpt>
      <trkpt lat="42.9655" lon="0.29422">
        <ele>1452.6</ele>
        <time>2021-08-05T09:17:41Z</time>
      </trkpt>
      <trkpt lat="42.96549" lon="0.2942">
        <ele>1452.8</ele>
        <time>2021-08-05T09:17:42Z</time>
      </trkpt>
      <trkpt lat="42.96547" lon="0.29419">
        <ele>1452.8</ele>
        <time>2021-08-05T09:17:43Z</time>
      </trkpt>
      <trkpt lat="42.96546" lon="0.29418">
        <ele>1453</ele>
        <time>2021-08-05T09:17:44Z</time>
      </trkpt>
      <trkpt lat="42.96545" lon="0.29417">
        <ele>1453.2</ele>
        <time>2021-08-05T09:17:45Z</time>
      </trkpt>
      <trkpt lat="42.96543" lon="0.29415">
        <ele>1453.2</ele>
        <time>2021-08-05T09:17:46Z</time>
      </trkpt>
      <trkpt lat="42.96541" lon="0.29414">
        <ele>1453.2</ele>
        <time>2021-08-05T09:17:47Z</time>
      </trkpt>
      <trkpt lat="42.9654" lon="0.29413">
        <ele>1453.4</ele>
        <time>2021-08-05T09:17:48Z</time>
      </trkpt>
      <trkpt lat="42.96538" lon="0.29412">
        <ele>1453.4</ele>
        <time>2021-08-05T09:17:49Z</time>
      </trkpt>
      <trkpt lat="42.96536" lon="0.29411">
        <ele>1453.6</ele>
        <time>2021-08-05T09:17:50Z</time>
      </trkpt>
      <trkpt lat="42.96535" lon="0.29409">
        <ele>1453.8</ele>
        <time>2021-08-05T09:17:51Z</time>
      </trkpt>
      <trkpt lat="42.96533" lon="0.29407">
        <ele>1453.8</ele>
        <time>2021-08-05T09:17:52Z</time>
      </trkpt>
      <trkpt lat="42.96532" lon="0.29406">
        <ele>1454</ele>
        <time>2021-08-05T09:17:53Z</time>
      </trkpt>
      <trkpt lat="42.96531" lon="0.29405">
        <ele>1454.2</ele>
        <time>2021-08-05T09:17:54Z</time>
      </trkpt>
      <trkpt lat="42.96529" lon="0.29403">
        <ele>1454.2</ele>
        <time>2021-08-05T09:17:55Z</time>
      </trkpt>
      <trkpt lat="42.96528" lon="0.29402">
        <ele>1454.4</ele>
        <time>2021-08-05T09:17:56Z</time>
      </trkpt>
      <trkpt lat="42.96526" lon="0.29401">
        <ele>1454.8</ele>
        <time>2021-08-05T09:17:57Z</time>
      </trkpt>
      <trkpt lat="42.96525" lon="0.294">
        <ele>1454.8</ele>
        <time>2021-08-05T09:17:58Z</time>
      </trkpt>
      <trkpt lat="42.96523" lon="0.29399">
        <ele>1455</ele>
        <time>2021-08-05T09:17:59Z</time>
      </trkpt>
      <trkpt lat="42.96521" lon="0.29398">
        <ele>1455</ele>
        <time>2021-08-05T09:18:00Z</time>
      </trkpt>
      <trkpt lat="42.9652" lon="0.29398">
        <ele>1455.2</ele>
        <time>2021-08-05T09:18:01Z</time>
      </trkpt>
      <trkpt lat="42.96518" lon="0.29397">
        <ele>1455.4</ele>
        <time>2021-08-05T09:18:02Z</time>
      </trkpt>
      <trkpt lat="42.96516" lon="0.29397">
        <ele>1455.8</ele>
        <time>2021-08-05T09:18:03Z</time>
      </trkpt>
      <trkpt lat="42.96514" lon="0.29396">
        <ele>1455.8</ele>
        <time>2021-08-05T09:18:04Z</time>
      </trkpt>
      <trkpt lat="42.96513" lon="0.29396">
        <ele>1456.2</ele>
        <time>2021-08-05T09:18:05Z</time>
      </trkpt>
      <trkpt lat="42.96511" lon="0.29396">
        <ele>1456.4</ele>
        <time>2021-08-05T09:18:06Z</time>
      </trkpt>
      <trkpt lat="42.96509" lon="0.29395">
        <ele>1456.6</ele>
        <time>2021-08-05T09:18:07Z</time>
      </trkpt>
      <trkpt lat="42.96507" lon="0.29396">
        <ele>1456.6</ele>
        <time>2021-08-05T09:18:08Z</time>
      </trkpt>
      <trkpt lat="42.96505" lon="0.29396">
        <ele>1456.8</ele>
        <time>2021-08-05T09:18:09Z</time>
      </trkpt>
      <trkpt lat="42.96503" lon="0.29397">
        <ele>1457</ele>
        <time>2021-08-05T09:18:10Z</time>
      </trkpt>
      <trkpt lat="42.96501" lon="0.29397">
        <ele>1457.2</ele>
        <time>2021-08-05T09:18:11Z</time>
      </trkpt>
      <trkpt lat="42.96499" lon="0.29398">
        <ele>1457.4</ele>
        <time>2021-08-05T09:18:12Z</time>
      </trkpt>
      <trkpt lat="42.96497" lon="0.29398">
        <ele>1457.6</ele>
        <time>2021-08-05T09:18:13Z</time>
      </trkpt>
      <trkpt lat="42.96495" lon="0.29398">
        <ele>1457.6</ele>
        <time>2021-08-05T09:18:14Z</time>
      </trkpt>
      <trkpt lat="42.96493" lon="0.29398">
        <ele>1457.8</ele>
        <time>2021-08-05T09:18:15Z</time>
      </trkpt>
      <trkpt lat="42.96491" lon="0.29399">
        <ele>1457.8</ele>
        <time>2021-08-05T09:18:16Z</time>
      </trkpt>
      <trkpt lat="42.9649" lon="0.29399">
        <ele>1458</ele>
        <time>2021-08-05T09:18:17Z</time>
      </trkpt>
      <trkpt lat="42.96488" lon="0.29399">
        <ele>1458.6</ele>
        <time>2021-08-05T09:18:18Z</time>
      </trkpt>
      <trkpt lat="42.96486" lon="0.29398">
        <ele>1458.8</ele>
        <time>2021-08-05T09:18:19Z</time>
      </trkpt>
      <trkpt lat="42.96484" lon="0.29398">
        <ele>1459</ele>
        <time>2021-08-05T09:18:20Z</time>
      </trkpt>
      <trkpt lat="42.96482" lon="0.29398">
        <ele>1459.2</ele>
        <time>2021-08-05T09:18:21Z</time>
      </trkpt>
      <trkpt lat="42.9648" lon="0.29398">
        <ele>1459.2</ele>
        <time>2021-08-05T09:18:22Z</time>
      </trkpt>
      <trkpt lat="42.96478" lon="0.29398">
        <ele>1459.2</ele>
        <time>2021-08-05T09:18:23Z</time>
      </trkpt>
      <trkpt lat="42.96476" lon="0.29398">
        <ele>1459.4</ele>
        <time>2021-08-05T09:18:24Z</time>
      </trkpt>
      <trkpt lat="42.96475" lon="0.29398">
        <ele>1459.6</ele>
        <time>2021-08-05T09:18:25Z</time>
      </trkpt>
      <trkpt lat="42.96473" lon="0.29397">
        <ele>1459.8</ele>
        <time>2021-08-05T09:18:26Z</time>
      </trkpt>
      <trkpt lat="42.96471" lon="0.29397">
        <ele>1460</ele>
        <time>2021-08-05T09:18:27Z</time>
      </trkpt>
      <trkpt lat="42.96469" lon="0.29396">
        <ele>1460.2</ele>
        <time>2021-08-05T09:18:28Z</time>
      </trkpt>
      <trkpt lat="42.96468" lon="0.29396">
        <ele>1460.2</ele>
        <time>2021-08-05T09:18:29Z</time>
      </trkpt>
      <trkpt lat="42.96466" lon="0.29396">
        <ele>1460.2</ele>
        <time>2021-08-05T09:18:30Z</time>
      </trkpt>
      <trkpt lat="42.96464" lon="0.29396">
        <ele>1460.6</ele>
        <time>2021-08-05T09:18:31Z</time>
      </trkpt>
      <trkpt lat="42.96462" lon="0.29396">
        <ele>1460.6</ele>
        <time>2021-08-05T09:18:32Z</time>
      </trkpt>
      <trkpt lat="42.9646" lon="0.29395">
        <ele>1461.2</ele>
        <time>2021-08-05T09:18:33Z</time>
      </trkpt>
      <trkpt lat="42.96459" lon="0.29395">
        <ele>1461.4</ele>
        <time>2021-08-05T09:18:34Z</time>
      </trkpt>
      <trkpt lat="42.96457" lon="0.29395">
        <ele>1461.4</ele>
        <time>2021-08-05T09:18:35Z</time>
      </trkpt>
      <trkpt lat="42.96455" lon="0.29394">
        <ele>1461.6</ele>
        <time>2021-08-05T09:18:36Z</time>
      </trkpt>
      <trkpt lat="42.96453" lon="0.29393">
        <ele>1461.6</ele>
        <time>2021-08-05T09:18:37Z</time>
      </trkpt>
      <trkpt lat="42.96451" lon="0.29393">
        <ele>1461.8</ele>
        <time>2021-08-05T09:18:38Z</time>
      </trkpt>
      <trkpt lat="42.96449" lon="0.29392">
        <ele>1462</ele>
        <time>2021-08-05T09:18:39Z</time>
      </trkpt>
      <trkpt lat="42.96448" lon="0.29391">
        <ele>1462.2</ele>
        <time>2021-08-05T09:18:40Z</time>
      </trkpt>
      <trkpt lat="42.96446" lon="0.29389">
        <ele>1462.4</ele>
        <time>2021-08-05T09:18:41Z</time>
      </trkpt>
      <trkpt lat="42.96445" lon="0.29388">
        <ele>1462.6</ele>
        <time>2021-08-05T09:18:42Z</time>
      </trkpt>
      <trkpt lat="42.96443" lon="0.29386">
        <ele>1463</ele>
        <time>2021-08-05T09:18:43Z</time>
      </trkpt>
      <trkpt lat="42.96442" lon="0.29384">
        <ele>1463.4</ele>
        <time>2021-08-05T09:18:44Z</time>
      </trkpt>
      <trkpt lat="42.96441" lon="0.29382">
        <ele>1463.6</ele>
        <time>2021-08-05T09:18:45Z</time>
      </trkpt>
      <trkpt lat="42.9644" lon="0.2938">
        <ele>1463.8</ele>
        <time>2021-08-05T09:18:46Z</time>
      </trkpt>
      <trkpt lat="42.96439" lon="0.29378">
        <ele>1463.8</ele>
        <time>2021-08-05T09:18:47Z</time>
      </trkpt>
      <trkpt lat="42.96438" lon="0.29375">
        <ele>1464</ele>
        <time>2021-08-05T09:18:48Z</time>
      </trkpt>
      <trkpt lat="42.96438" lon="0.29373">
        <ele>1464.2</ele>
        <time>2021-08-05T09:18:49Z</time>
      </trkpt>
      <trkpt lat="42.96438" lon="0.2937">
        <ele>1464.4</ele>
        <time>2021-08-05T09:18:50Z</time>
      </trkpt>
      <trkpt lat="42.96438" lon="0.29368">
        <ele>1464.6</ele>
        <time>2021-08-05T09:18:51Z</time>
      </trkpt>
      <trkpt lat="42.96437" lon="0.29365">
        <ele>1464.8</ele>
        <time>2021-08-05T09:18:52Z</time>
      </trkpt>
      <trkpt lat="42.96437" lon="0.29363">
        <ele>1465</ele>
        <time>2021-08-05T09:18:53Z</time>
      </trkpt>
      <trkpt lat="42.96437" lon="0.2936">
        <ele>1465.2</ele>
        <time>2021-08-05T09:18:54Z</time>
      </trkpt>
      <trkpt lat="42.96437" lon="0.29358">
        <ele>1465.2</ele>
        <time>2021-08-05T09:18:55Z</time>
      </trkpt>
      <trkpt lat="42.96437" lon="0.29356">
        <ele>1466</ele>
        <time>2021-08-05T09:18:56Z</time>
      </trkpt>
      <trkpt lat="42.96438" lon="0.29353">
        <ele>1466.2</ele>
        <time>2021-08-05T09:18:57Z</time>
      </trkpt>
      <trkpt lat="42.96438" lon="0.2935">
        <ele>1466.2</ele>
        <time>2021-08-05T09:18:58Z</time>
      </trkpt>
      <trkpt lat="42.96437" lon="0.29347">
        <ele>1466.2</ele>
        <time>2021-08-05T09:18:59Z</time>
      </trkpt>
      <trkpt lat="42.96437" lon="0.29345">
        <ele>1466.6</ele>
        <time>2021-08-05T09:19:00Z</time>
      </trkpt>
      <trkpt lat="42.96438" lon="0.29342">
        <ele>1466.8</ele>
        <time>2021-08-05T09:19:01Z</time>
      </trkpt>
      <trkpt lat="42.96438" lon="0.2934">
        <ele>1466.8</ele>
        <time>2021-08-05T09:19:02Z</time>
      </trkpt>
      <trkpt lat="42.96438" lon="0.29337">
        <ele>1467.2</ele>
        <time>2021-08-05T09:19:03Z</time>
      </trkpt>
      <trkpt lat="42.96438" lon="0.29334">
        <ele>1467.4</ele>
        <time>2021-08-05T09:19:04Z</time>
      </trkpt>
      <trkpt lat="42.96438" lon="0.29332">
        <ele>1467.6</ele>
        <time>2021-08-05T09:19:05Z</time>
      </trkpt>
      <trkpt lat="42.96438" lon="0.2933">
        <ele>1467.8</ele>
        <time>2021-08-05T09:19:06Z</time>
      </trkpt>
      <trkpt lat="42.96438" lon="0.29327">
        <ele>1467.8</ele>
        <time>2021-08-05T09:19:07Z</time>
      </trkpt>
      <trkpt lat="42.96438" lon="0.29324">
        <ele>1468</ele>
        <time>2021-08-05T09:19:08Z</time>
      </trkpt>
      <trkpt lat="42.96438" lon="0.29322">
        <ele>1468.2</ele>
        <time>2021-08-05T09:19:09Z</time>
      </trkpt>
      <trkpt lat="42.96438" lon="0.29319">
        <ele>1468.4</ele>
        <time>2021-08-05T09:19:10Z</time>
      </trkpt>
      <trkpt lat="42.96438" lon="0.29316">
        <ele>1468.6</ele>
        <time>2021-08-05T09:19:11Z</time>
      </trkpt>
      <trkpt lat="42.96438" lon="0.29314">
        <ele>1468.8</ele>
        <time>2021-08-05T09:19:12Z</time>
      </trkpt>
      <trkpt lat="42.96439" lon="0.29311">
        <ele>1469</ele>
        <time>2021-08-05T09:19:13Z</time>
      </trkpt>
      <trkpt lat="42.96439" lon="0.29308">
        <ele>1469.2</ele>
        <time>2021-08-05T09:19:14Z</time>
      </trkpt>
      <trkpt lat="42.96439" lon="0.29306">
        <ele>1469.4</ele>
        <time>2021-08-05T09:19:15Z</time>
      </trkpt>
      <trkpt lat="42.9644" lon="0.29303">
        <ele>1469.8</ele>
        <time>2021-08-05T09:19:16Z</time>
      </trkpt>
      <trkpt lat="42.9644" lon="0.29301">
        <ele>1470</ele>
        <time>2021-08-05T09:19:17Z</time>
      </trkpt>
      <trkpt lat="42.9644" lon="0.29298">
        <ele>1470.2</ele>
        <time>2021-08-05T09:19:18Z</time>
      </trkpt>
      <trkpt lat="42.9644" lon="0.29296">
        <ele>1470.2</ele>
        <time>2021-08-05T09:19:19Z</time>
      </trkpt>
      <trkpt lat="42.96441" lon="0.29293">
        <ele>1470.4</ele>
        <time>2021-08-05T09:19:20Z</time>
      </trkpt>
      <trkpt lat="42.96441" lon="0.29291">
        <ele>1470.6</ele>
        <time>2021-08-05T09:19:21Z</time>
      </trkpt>
      <trkpt lat="42.96441" lon="0.29288">
        <ele>1470.8</ele>
        <time>2021-08-05T09:19:22Z</time>
      </trkpt>
      <trkpt lat="42.96442" lon="0.29286">
        <ele>1470.8</ele>
        <time>2021-08-05T09:19:23Z</time>
      </trkpt>
      <trkpt lat="42.96442" lon="0.29283">
        <ele>1471</ele>
        <time>2021-08-05T09:19:24Z</time>
      </trkpt>
      <trkpt lat="42.96442" lon="0.2928">
        <ele>1471.2</ele>
        <time>2021-08-05T09:19:25Z</time>
      </trkpt>
      <trkpt lat="42.96442" lon="0.29278">
        <ele>1471.4</ele>
        <time>2021-08-05T09:19:26Z</time>
      </trkpt>
      <trkpt lat="42.96442" lon="0.29275">
        <ele>1471.4</ele>
        <time>2021-08-05T09:19:27Z</time>
      </trkpt>
      <trkpt lat="42.96442" lon="0.29273">
        <ele>1472</ele>
        <time>2021-08-05T09:19:28Z</time>
      </trkpt>
      <trkpt lat="42.96443" lon="0.2927">
        <ele>1472</ele>
        <time>2021-08-05T09:19:29Z</time>
      </trkpt>
      <trkpt lat="42.96443" lon="0.29268">
        <ele>1472.6</ele>
        <time>2021-08-05T09:19:30Z</time>
      </trkpt>
      <trkpt lat="42.96444" lon="0.29265">
        <ele>1472.8</ele>
        <time>2021-08-05T09:19:31Z</time>
      </trkpt>
      <trkpt lat="42.96444" lon="0.29263">
        <ele>1473</ele>
        <time>2021-08-05T09:19:32Z</time>
      </trkpt>
      <trkpt lat="42.96445" lon="0.2926">
        <ele>1473.2</ele>
        <time>2021-08-05T09:19:33Z</time>
      </trkpt>
      <trkpt lat="42.96445" lon="0.29257">
        <ele>1473.4</ele>
        <time>2021-08-05T09:19:34Z</time>
      </trkpt>
      <trkpt lat="42.96446" lon="0.29254">
        <ele>1473.4</ele>
        <time>2021-08-05T09:19:35Z</time>
      </trkpt>
      <trkpt lat="42.96446" lon="0.29252">
        <ele>1473.6</ele>
        <time>2021-08-05T09:19:36Z</time>
      </trkpt>
      <trkpt lat="42.96448" lon="0.2925">
        <ele>1473.8</ele>
        <time>2021-08-05T09:19:37Z</time>
      </trkpt>
      <trkpt lat="42.96449" lon="0.29247">
        <ele>1474</ele>
        <time>2021-08-05T09:19:38Z</time>
      </trkpt>
      <trkpt lat="42.96451" lon="0.29245">
        <ele>1474.2</ele>
        <time>2021-08-05T09:19:39Z</time>
      </trkpt>
      <trkpt lat="42.96452" lon="0.29243">
        <ele>1474.4</ele>
        <time>2021-08-05T09:19:40Z</time>
      </trkpt>
      <trkpt lat="42.96454" lon="0.29242">
        <ele>1474.8</ele>
        <time>2021-08-05T09:19:41Z</time>
      </trkpt>
      <trkpt lat="42.96455" lon="0.2924">
        <ele>1474.8</ele>
        <time>2021-08-05T09:19:42Z</time>
      </trkpt>
      <trkpt lat="42.96457" lon="0.29238">
        <ele>1475.2</ele>
        <time>2021-08-05T09:19:43Z</time>
      </trkpt>
      <trkpt lat="42.96458" lon="0.29236">
        <ele>1475.2</ele>
        <time>2021-08-05T09:19:44Z</time>
      </trkpt>
      <trkpt lat="42.9646" lon="0.29235">
        <ele>1475.6</ele>
        <time>2021-08-05T09:19:45Z</time>
      </trkpt>
      <trkpt lat="42.96462" lon="0.29233">
        <ele>1475.6</ele>
        <time>2021-08-05T09:19:46Z</time>
      </trkpt>
      <trkpt lat="42.96463" lon="0.29232">
        <ele>1476</ele>
        <time>2021-08-05T09:19:47Z</time>
      </trkpt>
      <trkpt lat="42.96465" lon="0.2923">
        <ele>1476</ele>
        <time>2021-08-05T09:19:48Z</time>
      </trkpt>
      <trkpt lat="42.96467" lon="0.29229">
        <ele>1476.2</ele>
        <time>2021-08-05T09:19:49Z</time>
      </trkpt>
      <trkpt lat="42.96468" lon="0.29228">
        <ele>1476.4</ele>
        <time>2021-08-05T09:19:50Z</time>
      </trkpt>
      <trkpt lat="42.9647" lon="0.29226">
        <ele>1476.4</ele>
        <time>2021-08-05T09:19:51Z</time>
      </trkpt>
      <trkpt lat="42.96472" lon="0.29225">
        <ele>1476.6</ele>
        <time>2021-08-05T09:19:52Z</time>
      </trkpt>
      <trkpt lat="42.96474" lon="0.29223">
        <ele>1476.6</ele>
        <time>2021-08-05T09:19:53Z</time>
      </trkpt>
      <trkpt lat="42.96476" lon="0.29222">
        <ele>1476.8</ele>
        <time>2021-08-05T09:19:54Z</time>
      </trkpt>
      <trkpt lat="42.96478" lon="0.29221">
        <ele>1477</ele>
        <time>2021-08-05T09:19:55Z</time>
      </trkpt>
      <trkpt lat="42.96479" lon="0.2922">
        <ele>1477.2</ele>
        <time>2021-08-05T09:19:56Z</time>
      </trkpt>
      <trkpt lat="42.96481" lon="0.29218">
        <ele>1477.2</ele>
        <time>2021-08-05T09:19:57Z</time>
      </trkpt>
      <trkpt lat="42.96482" lon="0.29217">
        <ele>1477.4</ele>
        <time>2021-08-05T09:19:58Z</time>
      </trkpt>
      <trkpt lat="42.96484" lon="0.29216">
        <ele>1477.4</ele>
        <time>2021-08-05T09:19:59Z</time>
      </trkpt>
      <trkpt lat="42.96486" lon="0.29215">
        <ele>1477.6</ele>
        <time>2021-08-05T09:20:00Z</time>
      </trkpt>
      <trkpt lat="42.96488" lon="0.29213">
        <ele>1477.6</ele>
        <time>2021-08-05T09:20:01Z</time>
      </trkpt>
      <trkpt lat="42.9649" lon="0.29211">
        <ele>1477.8</ele>
        <time>2021-08-05T09:20:02Z</time>
      </trkpt>
      <trkpt lat="42.96492" lon="0.2921">
        <ele>1477.8</ele>
        <time>2021-08-05T09:20:03Z</time>
      </trkpt>
      <trkpt lat="42.96494" lon="0.29208">
        <ele>1478.2</ele>
        <time>2021-08-05T09:20:04Z</time>
      </trkpt>
      <trkpt lat="42.96495" lon="0.29206">
        <ele>1478.2</ele>
        <time>2021-08-05T09:20:05Z</time>
      </trkpt>
      <trkpt lat="42.96497" lon="0.29204">
        <ele>1478.4</ele>
        <time>2021-08-05T09:20:06Z</time>
      </trkpt>
      <trkpt lat="42.96499" lon="0.29203">
        <ele>1478.6</ele>
        <time>2021-08-05T09:20:07Z</time>
      </trkpt>
      <trkpt lat="42.96501" lon="0.29201">
        <ele>1478.6</ele>
        <time>2021-08-05T09:20:08Z</time>
      </trkpt>
      <trkpt lat="42.96502" lon="0.29199">
        <ele>1478.8</ele>
        <time>2021-08-05T09:20:09Z</time>
      </trkpt>
      <trkpt lat="42.96504" lon="0.29197">
        <ele>1478.8</ele>
        <time>2021-08-05T09:20:10Z</time>
      </trkpt>
      <trkpt lat="42.96506" lon="0.29195">
        <ele>1479</ele>
        <time>2021-08-05T09:20:11Z</time>
      </trkpt>
      <trkpt lat="42.96507" lon="0.29193">
        <ele>1479.2</ele>
        <time>2021-08-05T09:20:12Z</time>
      </trkpt>
      <trkpt lat="42.96509" lon="0.29191">
        <ele>1479.4</ele>
        <time>2021-08-05T09:20:13Z</time>
      </trkpt>
      <trkpt lat="42.9651" lon="0.29189">
        <ele>1479.4</ele>
        <time>2021-08-05T09:20:14Z</time>
      </trkpt>
      <trkpt lat="42.96512" lon="0.29187">
        <ele>1479.6</ele>
        <time>2021-08-05T09:20:15Z</time>
      </trkpt>
      <trkpt lat="42.96513" lon="0.29185">
        <ele>1479.6</ele>
        <time>2021-08-05T09:20:16Z</time>
      </trkpt>
      <trkpt lat="42.96514" lon="0.29182">
        <ele>1480</ele>
        <time>2021-08-05T09:20:17Z</time>
      </trkpt>
      <trkpt lat="42.96515" lon="0.2918">
        <ele>1480</ele>
        <time>2021-08-05T09:20:18Z</time>
      </trkpt>
      <trkpt lat="42.96516" lon="0.29178">
        <ele>1480.2</ele>
        <time>2021-08-05T09:20:19Z</time>
      </trkpt>
      <trkpt lat="42.96517" lon="0.29175">
        <ele>1480.2</ele>
        <time>2021-08-05T09:20:20Z</time>
      </trkpt>
      <trkpt lat="42.96517" lon="0.29172">
        <ele>1480.4</ele>
        <time>2021-08-05T09:20:21Z</time>
      </trkpt>
      <trkpt lat="42.96518" lon="0.2917">
        <ele>1480.6</ele>
        <time>2021-08-05T09:20:22Z</time>
      </trkpt>
      <trkpt lat="42.96519" lon="0.29168">
        <ele>1480.8</ele>
        <time>2021-08-05T09:20:23Z</time>
      </trkpt>
      <trkpt lat="42.96519" lon="0.29165">
        <ele>1481</ele>
        <time>2021-08-05T09:20:24Z</time>
      </trkpt>
      <trkpt lat="42.96519" lon="0.29162">
        <ele>1481</ele>
        <time>2021-08-05T09:20:25Z</time>
      </trkpt>
      <trkpt lat="42.9652" lon="0.29159">
        <ele>1481.2</ele>
        <time>2021-08-05T09:20:26Z</time>
      </trkpt>
      <trkpt lat="42.9652" lon="0.29156">
        <ele>1481.2</ele>
        <time>2021-08-05T09:20:27Z</time>
      </trkpt>
      <trkpt lat="42.9652" lon="0.29153">
        <ele>1481.4</ele>
        <time>2021-08-05T09:20:28Z</time>
      </trkpt>
      <trkpt lat="42.9652" lon="0.2915">
        <ele>1481.6</ele>
        <time>2021-08-05T09:20:29Z</time>
      </trkpt>
      <trkpt lat="42.96521" lon="0.29147">
        <ele>1481.4</ele>
        <time>2021-08-05T09:20:30Z</time>
      </trkpt>
      <trkpt lat="42.96521" lon="0.29144">
        <ele>1481.6</ele>
        <time>2021-08-05T09:20:31Z</time>
      </trkpt>
      <trkpt lat="42.96521" lon="0.29141">
        <ele>1481.8</ele>
        <time>2021-08-05T09:20:32Z</time>
      </trkpt>
      <trkpt lat="42.96521" lon="0.29138">
        <ele>1481.8</ele>
        <time>2021-08-05T09:20:33Z</time>
      </trkpt>
      <trkpt lat="42.96522" lon="0.29135">
        <ele>1481.8</ele>
        <time>2021-08-05T09:20:34Z</time>
      </trkpt>
      <trkpt lat="42.96522" lon="0.29132">
        <ele>1482</ele>
        <time>2021-08-05T09:20:35Z</time>
      </trkpt>
      <trkpt lat="42.96522" lon="0.29129">
        <ele>1482</ele>
        <time>2021-08-05T09:20:36Z</time>
      </trkpt>
      <trkpt lat="42.96522" lon="0.29126">
        <ele>1482</ele>
        <time>2021-08-05T09:20:37Z</time>
      </trkpt>
      <trkpt lat="42.96522" lon="0.29124">
        <ele>1482.2</ele>
        <time>2021-08-05T09:20:38Z</time>
      </trkpt>
      <trkpt lat="42.96522" lon="0.29121">
        <ele>1482.2</ele>
        <time>2021-08-05T09:20:39Z</time>
      </trkpt>
      <trkpt lat="42.96522" lon="0.29118">
        <ele>1482.4</ele>
        <time>2021-08-05T09:20:40Z</time>
      </trkpt>
      <trkpt lat="42.96523" lon="0.29115">
        <ele>1482.6</ele>
        <time>2021-08-05T09:20:41Z</time>
      </trkpt>
      <trkpt lat="42.96523" lon="0.29112">
        <ele>1482.6</ele>
        <time>2021-08-05T09:20:42Z</time>
      </trkpt>
      <trkpt lat="42.96524" lon="0.2911">
        <ele>1482.8</ele>
        <time>2021-08-05T09:20:43Z</time>
      </trkpt>
      <trkpt lat="42.96524" lon="0.29107">
        <ele>1482.8</ele>
        <time>2021-08-05T09:20:44Z</time>
      </trkpt>
      <trkpt lat="42.96525" lon="0.29105">
        <ele>1482.8</ele>
        <time>2021-08-05T09:20:45Z</time>
      </trkpt>
      <trkpt lat="42.96525" lon="0.29102">
        <ele>1482.8</ele>
        <time>2021-08-05T09:20:46Z</time>
      </trkpt>
      <trkpt lat="42.96525" lon="0.291">
        <ele>1483</ele>
        <time>2021-08-05T09:20:47Z</time>
      </trkpt>
      <trkpt lat="42.96525" lon="0.29098">
        <ele>1483</ele>
        <time>2021-08-05T09:20:48Z</time>
      </trkpt>
      <trkpt lat="42.96525" lon="0.29097">
        <ele>1483.2</ele>
        <time>2021-08-05T09:20:49Z</time>
      </trkpt>
      <trkpt lat="42.96525" lon="0.29097">
        <ele>1483.2</ele>
        <time>2021-08-05T09:20:52Z</time>
      </trkpt>
      <trkpt lat="42.96525" lon="0.29097">
        <ele>1483.2</ele>
        <time>2021-08-05T09:20:53Z</time>
      </trkpt>
      <trkpt lat="42.96525" lon="0.29097">
        <ele>1483.4</ele>
        <time>2021-08-05T09:21:01Z</time>
      </trkpt>
      <trkpt lat="42.96525" lon="0.29097">
        <ele>1482.8</ele>
        <time>2021-08-05T09:22:18Z</time>
      </trkpt>
      <trkpt lat="42.96525" lon="0.29097">
        <ele>1482.8</ele>
        <time>2021-08-05T09:22:29Z</time>
      </trkpt>
      <trkpt lat="42.96525" lon="0.29097">
        <ele>1482.8</ele>
        <time>2021-08-05T09:22:48Z</time>
      </trkpt>
      <trkpt lat="42.96525" lon="0.29096">
        <ele>1483</ele>
        <time>2021-08-05T09:23:04Z</time>
      </trkpt>
      <trkpt lat="42.96526" lon="0.29096">
        <ele>1483</ele>
        <time>2021-08-05T09:23:07Z</time>
      </trkpt>
      <trkpt lat="42.96527" lon="0.29089">
        <ele>1483.2</ele>
        <time>2021-08-05T09:23:12Z</time>
      </trkpt>
      <trkpt lat="42.9653" lon="0.2908">
        <ele>1483.4</ele>
        <time>2021-08-05T09:23:15Z</time>
      </trkpt>
      <trkpt lat="42.96531" lon="0.29077">
        <ele>1483.8</ele>
        <time>2021-08-05T09:23:16Z</time>
      </trkpt>
      <trkpt lat="42.96535" lon="0.29067">
        <ele>1484</ele>
        <time>2021-08-05T09:23:20Z</time>
      </trkpt>
      <trkpt lat="42.9654" lon="0.29056">
        <ele>1484</ele>
        <time>2021-08-05T09:23:25Z</time>
      </trkpt>
      <trkpt lat="42.96546" lon="0.29042">
        <ele>1484.4</ele>
        <time>2021-08-05T09:23:30Z</time>
      </trkpt>
      <trkpt lat="42.96558" lon="0.29021">
        <ele>1484.8</ele>
        <time>2021-08-05T09:23:38Z</time>
      </trkpt>
      <trkpt lat="42.96561" lon="0.29016">
        <ele>1485</ele>
        <time>2021-08-05T09:23:40Z</time>
      </trkpt>
      <trkpt lat="42.96562" lon="0.29014">
        <ele>1485.2</ele>
        <time>2021-08-05T09:23:41Z</time>
      </trkpt>
      <trkpt lat="42.96564" lon="0.29011">
        <ele>1485.2</ele>
        <time>2021-08-05T09:23:42Z</time>
      </trkpt>
      <trkpt lat="42.96567" lon="0.29006">
        <ele>1485.6</ele>
        <time>2021-08-05T09:23:44Z</time>
      </trkpt>
      <trkpt lat="42.96571" lon="0.28999">
        <ele>1485.8</ele>
        <time>2021-08-05T09:23:47Z</time>
      </trkpt>
      <trkpt lat="42.96574" lon="0.28994">
        <ele>1486</ele>
        <time>2021-08-05T09:23:49Z</time>
      </trkpt>
      <trkpt lat="42.96578" lon="0.28989">
        <ele>1486.2</ele>
        <time>2021-08-05T09:23:51Z</time>
      </trkpt>
      <trkpt lat="42.96585" lon="0.2898">
        <ele>1486.2</ele>
        <time>2021-08-05T09:23:56Z</time>
      </trkpt>
      <trkpt lat="42.96586" lon="0.28978">
        <ele>1486.2</ele>
        <time>2021-08-05T09:23:57Z</time>
      </trkpt>
      <trkpt lat="42.96587" lon="0.28977">
        <ele>1486.2</ele>
        <time>2021-08-05T09:23:58Z</time>
      </trkpt>
      <trkpt lat="42.96587" lon="0.28976">
        <ele>1486.2</ele>
        <time>2021-08-05T09:23:59Z</time>
      </trkpt>
      <trkpt lat="42.96587" lon="0.28976">
        <ele>1486.2</ele>
        <time>2021-08-05T09:24:01Z</time>
      </trkpt>
      <trkpt lat="42.96588" lon="0.28976">
        <ele>1486.2</ele>
        <time>2021-08-05T09:24:36Z</time>
      </trkpt>
      <trkpt lat="42.96589" lon="0.28976">
        <ele>1486.8</ele>
        <time>2021-08-05T09:25:41Z</time>
      </trkpt>
      <trkpt lat="42.9659" lon="0.28975">
        <ele>1487.2</ele>
        <time>2021-08-05T09:26:42Z</time>
      </trkpt>
      <trkpt lat="42.9659" lon="0.28975">
        <ele>1486.8</ele>
        <time>2021-08-05T09:27:03Z</time>
      </trkpt>
      <trkpt lat="42.96591" lon="0.28972">
        <ele>1486.8</ele>
        <time>2021-08-05T09:27:06Z</time>
      </trkpt>
      <trkpt lat="42.96596" lon="0.28964">
        <ele>1486.6</ele>
        <time>2021-08-05T09:27:18Z</time>
      </trkpt>
      <trkpt lat="42.96607" lon="0.28947">
        <ele>1486.6</ele>
        <time>2021-08-05T09:27:24Z</time>
      </trkpt>
      <trkpt lat="42.96627" lon="0.2892">
        <ele>1486</ele>
        <time>2021-08-05T09:27:33Z</time>
      </trkpt>
      <trkpt lat="42.9663" lon="0.28917">
        <ele>1485.4</ele>
        <time>2021-08-05T09:27:34Z</time>
      </trkpt>
      <trkpt lat="42.96633" lon="0.28913">
        <ele>1485.2</ele>
        <time>2021-08-05T09:27:35Z</time>
      </trkpt>
      <trkpt lat="42.96651" lon="0.28894">
        <ele>1484.4</ele>
        <time>2021-08-05T09:27:40Z</time>
      </trkpt>
      <trkpt lat="42.96668" lon="0.28877">
        <ele>1483.2</ele>
        <time>2021-08-05T09:27:44Z</time>
      </trkpt>
      <trkpt lat="42.96677" lon="0.28868">
        <ele>1482.2</ele>
        <time>2021-08-05T09:27:46Z</time>
      </trkpt>
      <trkpt lat="42.96681" lon="0.28863">
        <ele>1482.4</ele>
        <time>2021-08-05T09:27:47Z</time>
      </trkpt>
      <trkpt lat="42.96696" lon="0.28848">
        <ele>1481.2</ele>
        <time>2021-08-05T09:27:50Z</time>
      </trkpt>
      <trkpt lat="42.96708" lon="0.28835">
        <ele>1480.4</ele>
        <time>2021-08-05T09:27:52Z</time>
      </trkpt>
      <trkpt lat="42.96715" lon="0.28828">
        <ele>1480.2</ele>
        <time>2021-08-05T09:27:53Z</time>
      </trkpt>
      <trkpt lat="42.96723" lon="0.28821">
        <ele>1479.8</ele>
        <time>2021-08-05T09:27:54Z</time>
      </trkpt>
      <trkpt lat="42.96739" lon="0.28805">
        <ele>1478.8</ele>
        <time>2021-08-05T09:27:56Z</time>
      </trkpt>
      <trkpt lat="42.96747" lon="0.28797">
        <ele>1477.8</ele>
        <time>2021-08-05T09:27:57Z</time>
      </trkpt>
      <trkpt lat="42.96765" lon="0.2878">
        <ele>1476.6</ele>
        <time>2021-08-05T09:27:59Z</time>
      </trkpt>
      <trkpt lat="42.96784" lon="0.28764">
        <ele>1474.8</ele>
        <time>2021-08-05T09:28:01Z</time>
      </trkpt>
      <trkpt lat="42.96804" lon="0.28748">
        <ele>1472.4</ele>
        <time>2021-08-05T09:28:03Z</time>
      </trkpt>
      <trkpt lat="42.96824" lon="0.28733">
        <ele>1471</ele>
        <time>2021-08-05T09:28:05Z</time>
      </trkpt>
      <trkpt lat="42.96835" lon="0.28725">
        <ele>1469.8</ele>
        <time>2021-08-05T09:28:06Z</time>
      </trkpt>
      <trkpt lat="42.96846" lon="0.28717">
        <ele>1469.2</ele>
        <time>2021-08-05T09:28:07Z</time>
      </trkpt>
      <trkpt lat="42.96857" lon="0.2871">
        <ele>1467.6</ele>
        <time>2021-08-05T09:28:08Z</time>
      </trkpt>
      <trkpt lat="42.96877" lon="0.28695">
        <ele>1466</ele>
        <time>2021-08-05T09:28:10Z</time>
      </trkpt>
      <trkpt lat="42.96886" lon="0.28689">
        <ele>1465.4</ele>
        <time>2021-08-05T09:28:11Z</time>
      </trkpt>
      <trkpt lat="42.96895" lon="0.28684">
        <ele>1463.8</ele>
        <time>2021-08-05T09:28:12Z</time>
      </trkpt>
      <trkpt lat="42.96904" lon="0.28681">
        <ele>1463</ele>
        <time>2021-08-05T09:28:13Z</time>
      </trkpt>
      <trkpt lat="42.96913" lon="0.28678">
        <ele>1462.2</ele>
        <time>2021-08-05T09:28:14Z</time>
      </trkpt>
      <trkpt lat="42.96922" lon="0.28675">
        <ele>1461.6</ele>
        <time>2021-08-05T09:28:15Z</time>
      </trkpt>
      <trkpt lat="42.96931" lon="0.28674">
        <ele>1460.8</ele>
        <time>2021-08-05T09:28:16Z</time>
      </trkpt>
      <trkpt lat="42.96939" lon="0.28671">
        <ele>1460.2</ele>
        <time>2021-08-05T09:28:17Z</time>
      </trkpt>
      <trkpt lat="42.96945" lon="0.28667">
        <ele>1459</ele>
        <time>2021-08-05T09:28:18Z</time>
      </trkpt>
      <trkpt lat="42.96949" lon="0.28662">
        <ele>1458.4</ele>
        <time>2021-08-05T09:28:19Z</time>
      </trkpt>
      <trkpt lat="42.96951" lon="0.28656">
        <ele>1457.6</ele>
        <time>2021-08-05T09:28:20Z</time>
      </trkpt>
      <trkpt lat="42.96948" lon="0.28651">
        <ele>1457.4</ele>
        <time>2021-08-05T09:28:21Z</time>
      </trkpt>
      <trkpt lat="42.96944" lon="0.28648">
        <ele>1456.8</ele>
        <time>2021-08-05T09:28:22Z</time>
      </trkpt>
      <trkpt lat="42.96938" lon="0.28647">
        <ele>1456.4</ele>
        <time>2021-08-05T09:28:23Z</time>
      </trkpt>
      <trkpt lat="42.96931" lon="0.28648">
        <ele>1456</ele>
        <time>2021-08-05T09:28:24Z</time>
      </trkpt>
      <trkpt lat="42.96924" lon="0.28649">
        <ele>1454.8</ele>
        <time>2021-08-05T09:28:25Z</time>
      </trkpt>
      <trkpt lat="42.96908" lon="0.2865">
        <ele>1453.4</ele>
        <time>2021-08-05T09:28:27Z</time>
      </trkpt>
      <trkpt lat="42.96899" lon="0.28649">
        <ele>1452.8</ele>
        <time>2021-08-05T09:28:28Z</time>
      </trkpt>
      <trkpt lat="42.9689" lon="0.2865">
        <ele>1452</ele>
        <time>2021-08-05T09:28:29Z</time>
      </trkpt>
      <trkpt lat="42.9687" lon="0.28652">
        <ele>1451.2</ele>
        <time>2021-08-05T09:28:31Z</time>
      </trkpt>
      <trkpt lat="42.96859" lon="0.28653">
        <ele>1450.8</ele>
        <time>2021-08-05T09:28:32Z</time>
      </trkpt>
      <trkpt lat="42.96847" lon="0.28653">
        <ele>1449.4</ele>
        <time>2021-08-05T09:28:33Z</time>
      </trkpt>
      <trkpt lat="42.96835" lon="0.28652">
        <ele>1449</ele>
        <time>2021-08-05T09:28:34Z</time>
      </trkpt>
      <trkpt lat="42.96823" lon="0.28649">
        <ele>1447.6</ele>
        <time>2021-08-05T09:28:35Z</time>
      </trkpt>
      <trkpt lat="42.96802" lon="0.28645">
        <ele>1445.8</ele>
        <time>2021-08-05T09:28:37Z</time>
      </trkpt>
      <trkpt lat="42.96792" lon="0.28643">
        <ele>1444.6</ele>
        <time>2021-08-05T09:28:38Z</time>
      </trkpt>
      <trkpt lat="42.96783" lon="0.28643">
        <ele>1444</ele>
        <time>2021-08-05T09:28:39Z</time>
      </trkpt>
      <trkpt lat="42.96773" lon="0.28643">
        <ele>1442.4</ele>
        <time>2021-08-05T09:28:40Z</time>
      </trkpt>
      <trkpt lat="42.96763" lon="0.28645">
        <ele>1441.6</ele>
        <time>2021-08-05T09:28:41Z</time>
      </trkpt>
      <trkpt lat="42.96754" lon="0.28649">
        <ele>1440.6</ele>
        <time>2021-08-05T09:28:42Z</time>
      </trkpt>
      <trkpt lat="42.96746" lon="0.28653">
        <ele>1439.8</ele>
        <time>2021-08-05T09:28:43Z</time>
      </trkpt>
      <trkpt lat="42.96738" lon="0.28658">
        <ele>1438.8</ele>
        <time>2021-08-05T09:28:44Z</time>
      </trkpt>
      <trkpt lat="42.96732" lon="0.28662">
        <ele>1438.2</ele>
        <time>2021-08-05T09:28:45Z</time>
      </trkpt>
      <trkpt lat="42.96727" lon="0.28663">
        <ele>1436.8</ele>
        <time>2021-08-05T09:28:46Z</time>
      </trkpt>
      <trkpt lat="42.96722" lon="0.28661">
        <ele>1436.4</ele>
        <time>2021-08-05T09:28:47Z</time>
      </trkpt>
      <trkpt lat="42.96718" lon="0.28657">
        <ele>1435.2</ele>
        <time>2021-08-05T09:28:48Z</time>
      </trkpt>
      <trkpt lat="42.96715" lon="0.28654">
        <ele>1434.6</ele>
        <time>2021-08-05T09:28:49Z</time>
      </trkpt>
      <trkpt lat="42.96712" lon="0.28651">
        <ele>1433.8</ele>
        <time>2021-08-05T09:28:50Z</time>
      </trkpt>
      <trkpt lat="42.96709" lon="0.28648">
        <ele>1433.4</ele>
        <time>2021-08-05T09:28:51Z</time>
      </trkpt>
      <trkpt lat="42.96708" lon="0.28645">
        <ele>1432.2</ele>
        <time>2021-08-05T09:28:52Z</time>
      </trkpt>
      <trkpt lat="42.96708" lon="0.28642">
        <ele>1431.8</ele>
        <time>2021-08-05T09:28:53Z</time>
      </trkpt>
      <trkpt lat="42.96715" lon="0.28636">
        <ele>1431.4</ele>
        <time>2021-08-05T09:28:54Z</time>
      </trkpt>
      <trkpt lat="42.96731" lon="0.28628">
        <ele>1431</ele>
        <time>2021-08-05T09:28:55Z</time>
      </trkpt>
      <trkpt lat="42.96743" lon="0.28621">
        <ele>1430.8</ele>
        <time>2021-08-05T09:28:56Z</time>
      </trkpt>
      <trkpt lat="42.96752" lon="0.28617">
        <ele>1429.6</ele>
        <time>2021-08-05T09:28:57Z</time>
      </trkpt>
      <trkpt lat="42.96761" lon="0.28612">
        <ele>1429.2</ele>
        <time>2021-08-05T09:28:58Z</time>
      </trkpt>
      <trkpt lat="42.96768" lon="0.28608">
        <ele>1428.4</ele>
        <time>2021-08-05T09:28:59Z</time>
      </trkpt>
      <trkpt lat="42.96774" lon="0.28602">
        <ele>1428</ele>
        <time>2021-08-05T09:29:00Z</time>
      </trkpt>
      <trkpt lat="42.96777" lon="0.28597">
        <ele>1427.4</ele>
        <time>2021-08-05T09:29:01Z</time>
      </trkpt>
      <trkpt lat="42.96779" lon="0.28592">
        <ele>1427</ele>
        <time>2021-08-05T09:29:02Z</time>
      </trkpt>
      <trkpt lat="42.96779" lon="0.28589">
        <ele>1426.4</ele>
        <time>2021-08-05T09:29:03Z</time>
      </trkpt>
      <trkpt lat="42.96778" lon="0.28588">
        <ele>1426</ele>
        <time>2021-08-05T09:29:04Z</time>
      </trkpt>
      <trkpt lat="42.96778" lon="0.28588">
        <ele>1425.2</ele>
        <time>2021-08-05T09:29:05Z</time>
      </trkpt>
      <trkpt lat="42.96778" lon="0.28588">
        <ele>1424</ele>
        <time>2021-08-05T09:29:09Z</time>
      </trkpt>
      <trkpt lat="42.96778" lon="0.28588">
        <ele>1423.2</ele>
        <time>2021-08-05T09:29:14Z</time>
      </trkpt>
      <trkpt lat="42.96778" lon="0.28588">
        <ele>1423.2</ele>
        <time>2021-08-05T09:29:15Z</time>
      </trkpt>
      <trkpt lat="42.96778" lon="0.28588">
        <ele>1423</ele>
        <time>2021-08-05T09:29:17Z</time>
      </trkpt>
      <trkpt lat="42.96775" lon="0.28587">
        <ele>1422.2</ele>
        <time>2021-08-05T09:29:54Z</time>
      </trkpt>
      <trkpt lat="42.96768" lon="0.28587">
        <ele>1422.2</ele>
        <time>2021-08-05T09:29:56Z</time>
      </trkpt>
      <trkpt lat="42.96763" lon="0.28587">
        <ele>1422</ele>
        <time>2021-08-05T09:29:57Z</time>
      </trkpt>
      <trkpt lat="42.96758" lon="0.28588">
        <ele>1421.8</ele>
        <time>2021-08-05T09:29:58Z</time>
      </trkpt>
      <trkpt lat="42.96752" lon="0.2859">
        <ele>1421.8</ele>
        <time>2021-08-05T09:29:59Z</time>
      </trkpt>
      <trkpt lat="42.9673" lon="0.286">
        <ele>1421.2</ele>
        <time>2021-08-05T09:30:03Z</time>
      </trkpt>
      <trkpt lat="42.96724" lon="0.28601">
        <ele>1421</ele>
        <time>2021-08-05T09:30:04Z</time>
      </trkpt>
      <trkpt lat="42.9672" lon="0.286">
        <ele>1420.6</ele>
        <time>2021-08-05T09:30:05Z</time>
      </trkpt>
      <trkpt lat="42.96716" lon="0.28596">
        <ele>1420.4</ele>
        <time>2021-08-05T09:30:06Z</time>
      </trkpt>
      <trkpt lat="42.96714" lon="0.28589">
        <ele>1420</ele>
        <time>2021-08-05T09:30:07Z</time>
      </trkpt>
      <trkpt lat="42.96714" lon="0.28571">
        <ele>1419.2</ele>
        <time>2021-08-05T09:30:09Z</time>
      </trkpt>
      <trkpt lat="42.96713" lon="0.2855">
        <ele>1418</ele>
        <time>2021-08-05T09:30:11Z</time>
      </trkpt>
      <trkpt lat="42.96709" lon="0.28527">
        <ele>1416.8</ele>
        <time>2021-08-05T09:30:13Z</time>
      </trkpt>
      <trkpt lat="42.96703" lon="0.28504">
        <ele>1415.2</ele>
        <time>2021-08-05T09:30:15Z</time>
      </trkpt>
      <trkpt lat="42.96693" lon="0.28482">
        <ele>1413.6</ele>
        <time>2021-08-05T09:30:17Z</time>
      </trkpt>
      <trkpt lat="42.96683" lon="0.28459">
        <ele>1412.8</ele>
        <time>2021-08-05T09:30:19Z</time>
      </trkpt>
      <trkpt lat="42.96677" lon="0.28448">
        <ele>1411.2</ele>
        <time>2021-08-05T09:30:20Z</time>
      </trkpt>
      <trkpt lat="42.96671" lon="0.28437">
        <ele>1410.8</ele>
        <time>2021-08-05T09:30:21Z</time>
      </trkpt>
      <trkpt lat="42.96664" lon="0.28425">
        <ele>1409.8</ele>
        <time>2021-08-05T09:30:22Z</time>
      </trkpt>
      <trkpt lat="42.96649" lon="0.28402">
        <ele>1407.8</ele>
        <time>2021-08-05T09:30:24Z</time>
      </trkpt>
      <trkpt lat="42.96642" lon="0.2839">
        <ele>1407</ele>
        <time>2021-08-05T09:30:25Z</time>
      </trkpt>
      <trkpt lat="42.96635" lon="0.28377">
        <ele>1405.8</ele>
        <time>2021-08-05T09:30:26Z</time>
      </trkpt>
      <trkpt lat="42.96622" lon="0.28351">
        <ele>1403.4</ele>
        <time>2021-08-05T09:30:28Z</time>
      </trkpt>
      <trkpt lat="42.96615" lon="0.28339">
        <ele>1403</ele>
        <time>2021-08-05T09:30:29Z</time>
      </trkpt>
      <trkpt lat="42.96607" lon="0.28328">
        <ele>1401.4</ele>
        <time>2021-08-05T09:30:30Z</time>
      </trkpt>
      <trkpt lat="42.96599" lon="0.28315">
        <ele>1400.8</ele>
        <time>2021-08-05T09:30:31Z</time>
      </trkpt>
      <trkpt lat="42.96591" lon="0.28302">
        <ele>1399.4</ele>
        <time>2021-08-05T09:30:32Z</time>
      </trkpt>
      <trkpt lat="42.96583" lon="0.28289">
        <ele>1398.4</ele>
        <time>2021-08-05T09:30:33Z</time>
      </trkpt>
      <trkpt lat="42.96575" lon="0.28276">
        <ele>1395.8</ele>
        <time>2021-08-05T09:30:34Z</time>
      </trkpt>
      <trkpt lat="42.96565" lon="0.28262">
        <ele>1394.2</ele>
        <time>2021-08-05T09:30:35Z</time>
      </trkpt>
      <trkpt lat="42.96547" lon="0.28236">
        <ele>1392</ele>
        <time>2021-08-05T09:30:37Z</time>
      </trkpt>
      <trkpt lat="42.96539" lon="0.28224">
        <ele>1390.8</ele>
        <time>2021-08-05T09:30:38Z</time>
      </trkpt>
      <trkpt lat="42.96532" lon="0.28212">
        <ele>1388.6</ele>
        <time>2021-08-05T09:30:39Z</time>
      </trkpt>
      <trkpt lat="42.96516" lon="0.28189">
        <ele>1386.8</ele>
        <time>2021-08-05T09:30:41Z</time>
      </trkpt>
      <trkpt lat="42.96501" lon="0.28164">
        <ele>1383.8</ele>
        <time>2021-08-05T09:30:43Z</time>
      </trkpt>
      <trkpt lat="42.96493" lon="0.28151">
        <ele>1382.8</ele>
        <time>2021-08-05T09:30:44Z</time>
      </trkpt>
      <trkpt lat="42.96485" lon="0.28138">
        <ele>1381.4</ele>
        <time>2021-08-05T09:30:45Z</time>
      </trkpt>
      <trkpt lat="42.96476" lon="0.28126">
        <ele>1380.8</ele>
        <time>2021-08-05T09:30:46Z</time>
      </trkpt>
      <trkpt lat="42.96467" lon="0.28114">
        <ele>1379</ele>
        <time>2021-08-05T09:30:47Z</time>
      </trkpt>
      <trkpt lat="42.96452" lon="0.28089">
        <ele>1377.4</ele>
        <time>2021-08-05T09:30:49Z</time>
      </trkpt>
      <trkpt lat="42.96438" lon="0.28061">
        <ele>1374.8</ele>
        <time>2021-08-05T09:30:51Z</time>
      </trkpt>
      <trkpt lat="42.96431" lon="0.28048">
        <ele>1373.4</ele>
        <time>2021-08-05T09:30:52Z</time>
      </trkpt>
      <trkpt lat="42.96424" lon="0.28036">
        <ele>1372.4</ele>
        <time>2021-08-05T09:30:53Z</time>
      </trkpt>
      <trkpt lat="42.96417" lon="0.28025">
        <ele>1370.2</ele>
        <time>2021-08-05T09:30:54Z</time>
      </trkpt>
      <trkpt lat="42.96408" lon="0.28017">
        <ele>1369.6</ele>
        <time>2021-08-05T09:30:55Z</time>
      </trkpt>
      <trkpt lat="42.964" lon="0.28013">
        <ele>1367.6</ele>
        <time>2021-08-05T09:30:56Z</time>
      </trkpt>
      <trkpt lat="42.96389" lon="0.2801">
        <ele>1367</ele>
        <time>2021-08-05T09:30:57Z</time>
      </trkpt>
      <trkpt lat="42.96381" lon="0.28007">
        <ele>1365.2</ele>
        <time>2021-08-05T09:30:58Z</time>
      </trkpt>
      <trkpt lat="42.96375" lon="0.28004">
        <ele>1364.4</ele>
        <time>2021-08-05T09:30:59Z</time>
      </trkpt>
      <trkpt lat="42.96371" lon="0.27999">
        <ele>1362.8</ele>
        <time>2021-08-05T09:31:00Z</time>
      </trkpt>
      <trkpt lat="42.96369" lon="0.27995">
        <ele>1362</ele>
        <time>2021-08-05T09:31:01Z</time>
      </trkpt>
      <trkpt lat="42.96368" lon="0.27992">
        <ele>1361.2</ele>
        <time>2021-08-05T09:31:02Z</time>
      </trkpt>
      <trkpt lat="42.96368" lon="0.2799">
        <ele>1360.8</ele>
        <time>2021-08-05T09:31:03Z</time>
      </trkpt>
      <trkpt lat="42.96367" lon="0.27989">
        <ele>1360</ele>
        <time>2021-08-05T09:31:04Z</time>
      </trkpt>
      <trkpt lat="42.96366" lon="0.27989">
        <ele>1359.8</ele>
        <time>2021-08-05T09:31:05Z</time>
      </trkpt>
      <trkpt lat="42.96366" lon="0.2799">
        <ele>1359</ele>
        <time>2021-08-05T09:31:06Z</time>
      </trkpt>
      <trkpt lat="42.96365" lon="0.27991">
        <ele>1358.6</ele>
        <time>2021-08-05T09:31:07Z</time>
      </trkpt>
      <trkpt lat="42.96365" lon="0.27992">
        <ele>1357.6</ele>
        <time>2021-08-05T09:31:08Z</time>
      </trkpt>
      <trkpt lat="42.96365" lon="0.27992">
        <ele>1356.6</ele>
        <time>2021-08-05T09:31:14Z</time>
      </trkpt>
      <trkpt lat="42.96365" lon="0.27992">
        <ele>1356.4</ele>
        <time>2021-08-05T09:31:15Z</time>
      </trkpt>
      <trkpt lat="42.96365" lon="0.27992">
        <ele>1356.4</ele>
        <time>2021-08-05T09:31:17Z</time>
      </trkpt>
      <trkpt lat="42.96365" lon="0.27992">
        <ele>1355.4</ele>
        <time>2021-08-05T09:31:32Z</time>
      </trkpt>
      <trkpt lat="42.96365" lon="0.27992">
        <ele>1355.4</ele>
        <time>2021-08-05T09:31:35Z</time>
      </trkpt>
      <trkpt lat="42.96369" lon="0.27988">
        <ele>1355.4</ele>
        <time>2021-08-05T09:31:44Z</time>
      </trkpt>
      <trkpt lat="42.96369" lon="0.27988">
        <ele>1355.2</ele>
        <time>2021-08-05T09:31:48Z</time>
      </trkpt>
      <trkpt lat="42.96372" lon="0.27987">
        <ele>1354.8</ele>
        <time>2021-08-05T09:31:53Z</time>
      </trkpt>
      <trkpt lat="42.96372" lon="0.27986">
        <ele>1354.4</ele>
        <time>2021-08-05T09:32:04Z</time>
      </trkpt>
      <trkpt lat="42.96382" lon="0.27983">
        <ele>1354.2</ele>
        <time>2021-08-05T09:32:10Z</time>
      </trkpt>
      <trkpt lat="42.96386" lon="0.27982">
        <ele>1354</ele>
        <time>2021-08-05T09:32:12Z</time>
      </trkpt>
      <trkpt lat="42.96387" lon="0.27982">
        <ele>1353.8</ele>
        <time>2021-08-05T09:32:13Z</time>
      </trkpt>
      <trkpt lat="42.96387" lon="0.27982">
        <ele>1353.4</ele>
        <time>2021-08-05T09:32:15Z</time>
      </trkpt>
      <trkpt lat="42.96388" lon="0.27982">
        <ele>1353.2</ele>
        <time>2021-08-05T09:32:16Z</time>
      </trkpt>
      <trkpt lat="42.96388" lon="0.27982">
        <ele>1352.8</ele>
        <time>2021-08-05T09:32:30Z</time>
      </trkpt>
      <trkpt lat="42.96393" lon="0.27981">
        <ele>1353</ele>
        <time>2021-08-05T09:33:18Z</time>
      </trkpt>
      <trkpt lat="42.96409" lon="0.27982">
        <ele>1352.6</ele>
        <time>2021-08-05T09:33:22Z</time>
      </trkpt>
      <trkpt lat="42.96421" lon="0.27981">
        <ele>1352</ele>
        <time>2021-08-05T09:33:24Z</time>
      </trkpt>
      <trkpt lat="42.96427" lon="0.27981">
        <ele>1351.8</ele>
        <time>2021-08-05T09:33:25Z</time>
      </trkpt>
      <trkpt lat="42.96435" lon="0.27982">
        <ele>1351.4</ele>
        <time>2021-08-05T09:33:26Z</time>
      </trkpt>
      <trkpt lat="42.96443" lon="0.27982">
        <ele>1350.8</ele>
        <time>2021-08-05T09:33:27Z</time>
      </trkpt>
      <trkpt lat="42.96473" lon="0.27986">
        <ele>1349.2</ele>
        <time>2021-08-05T09:33:30Z</time>
      </trkpt>
      <trkpt lat="42.96481" lon="0.27988">
        <ele>1348.2</ele>
        <time>2021-08-05T09:33:31Z</time>
      </trkpt>
      <trkpt lat="42.96487" lon="0.2799">
        <ele>1347.6</ele>
        <time>2021-08-05T09:33:32Z</time>
      </trkpt>
      <trkpt lat="42.96493" lon="0.27991">
        <ele>1346.4</ele>
        <time>2021-08-05T09:33:33Z</time>
      </trkpt>
      <trkpt lat="42.96497" lon="0.27991">
        <ele>1345.8</ele>
        <time>2021-08-05T09:33:34Z</time>
      </trkpt>
      <trkpt lat="42.96501" lon="0.27988">
        <ele>1345</ele>
        <time>2021-08-05T09:33:35Z</time>
      </trkpt>
      <trkpt lat="42.96505" lon="0.27984">
        <ele>1344.6</ele>
        <time>2021-08-05T09:33:36Z</time>
      </trkpt>
      <trkpt lat="42.96508" lon="0.27978">
        <ele>1344.2</ele>
        <time>2021-08-05T09:33:37Z</time>
      </trkpt>
      <trkpt lat="42.96508" lon="0.27974">
        <ele>1344</ele>
        <time>2021-08-05T09:33:38Z</time>
      </trkpt>
      <trkpt lat="42.96506" lon="0.2797">
        <ele>1342.8</ele>
        <time>2021-08-05T09:33:39Z</time>
      </trkpt>
      <trkpt lat="42.96503" lon="0.27965">
        <ele>1342.4</ele>
        <time>2021-08-05T09:33:40Z</time>
      </trkpt>
      <trkpt lat="42.96496" lon="0.27958">
        <ele>1341.6</ele>
        <time>2021-08-05T09:33:42Z</time>
      </trkpt>
      <trkpt lat="42.96493" lon="0.27954">
        <ele>1341.2</ele>
        <time>2021-08-05T09:33:43Z</time>
      </trkpt>
      <trkpt lat="42.96489" lon="0.27949">
        <ele>1340.8</ele>
        <time>2021-08-05T09:33:44Z</time>
      </trkpt>
      <trkpt lat="42.96482" lon="0.27944">
        <ele>1340.4</ele>
        <time>2021-08-05T09:33:45Z</time>
      </trkpt>
      <trkpt lat="42.96473" lon="0.27936">
        <ele>1339.8</ele>
        <time>2021-08-05T09:33:46Z</time>
      </trkpt>
      <trkpt lat="42.96463" lon="0.2793">
        <ele>1339.6</ele>
        <time>2021-08-05T09:33:47Z</time>
      </trkpt>
      <trkpt lat="42.96455" lon="0.27924">
        <ele>1339.4</ele>
        <time>2021-08-05T09:33:48Z</time>
      </trkpt>
      <trkpt lat="42.96437" lon="0.27901">
        <ele>1337.6</ele>
        <time>2021-08-05T09:33:51Z</time>
      </trkpt>
      <trkpt lat="42.9642" lon="0.27892">
        <ele>1336.4</ele>
        <time>2021-08-05T09:33:53Z</time>
      </trkpt>
      <trkpt lat="42.96411" lon="0.27889">
        <ele>1335.8</ele>
        <time>2021-08-05T09:33:54Z</time>
      </trkpt>
      <trkpt lat="42.96402" lon="0.27887">
        <ele>1335.4</ele>
        <time>2021-08-05T09:33:55Z</time>
      </trkpt>
      <trkpt lat="42.96383" lon="0.27886">
        <ele>1334.2</ele>
        <time>2021-08-05T09:33:57Z</time>
      </trkpt>
      <trkpt lat="42.96373" lon="0.27887">
        <ele>1333.2</ele>
        <time>2021-08-05T09:33:58Z</time>
      </trkpt>
      <trkpt lat="42.96363" lon="0.27887">
        <ele>1332.4</ele>
        <time>2021-08-05T09:33:59Z</time>
      </trkpt>
      <trkpt lat="42.96352" lon="0.27886">
        <ele>1331.2</ele>
        <time>2021-08-05T09:34:00Z</time>
      </trkpt>
      <trkpt lat="42.96332" lon="0.27886">
        <ele>1329.2</ele>
        <time>2021-08-05T09:34:02Z</time>
      </trkpt>
      <trkpt lat="42.96323" lon="0.27887">
        <ele>1328</ele>
        <time>2021-08-05T09:34:03Z</time>
      </trkpt>
      <trkpt lat="42.96314" lon="0.27888">
        <ele>1327.4</ele>
        <time>2021-08-05T09:34:04Z</time>
      </trkpt>
      <trkpt lat="42.96305" lon="0.2789">
        <ele>1325.6</ele>
        <time>2021-08-05T09:34:05Z</time>
      </trkpt>
      <trkpt lat="42.96294" lon="0.27892">
        <ele>1324.6</ele>
        <time>2021-08-05T09:34:06Z</time>
      </trkpt>
      <trkpt lat="42.96285" lon="0.27895">
        <ele>1323</ele>
        <time>2021-08-05T09:34:07Z</time>
      </trkpt>
      <trkpt lat="42.96265" lon="0.27901">
        <ele>1321.6</ele>
        <time>2021-08-05T09:34:09Z</time>
      </trkpt>
      <trkpt lat="42.96244" lon="0.27908">
        <ele>1319.8</ele>
        <time>2021-08-05T09:34:11Z</time>
      </trkpt>
      <trkpt lat="42.96224" lon="0.27915">
        <ele>1317.8</ele>
        <time>2021-08-05T09:34:13Z</time>
      </trkpt>
      <trkpt lat="42.96204" lon="0.27918">
        <ele>1316.2</ele>
        <time>2021-08-05T09:34:15Z</time>
      </trkpt>
      <trkpt lat="42.96194" lon="0.27918">
        <ele>1315</ele>
        <time>2021-08-05T09:34:16Z</time>
      </trkpt>
      <trkpt lat="42.96184" lon="0.27917">
        <ele>1313.6</ele>
        <time>2021-08-05T09:34:17Z</time>
      </trkpt>
      <trkpt lat="42.96173" lon="0.27916">
        <ele>1312</ele>
        <time>2021-08-05T09:34:18Z</time>
      </trkpt>
      <trkpt lat="42.96153" lon="0.27915">
        <ele>1310.6</ele>
        <time>2021-08-05T09:34:20Z</time>
      </trkpt>
      <trkpt lat="42.96132" lon="0.27917">
        <ele>1309.2</ele>
        <time>2021-08-05T09:34:22Z</time>
      </trkpt>
      <trkpt lat="42.96111" lon="0.27921">
        <ele>1307.2</ele>
        <time>2021-08-05T09:34:24Z</time>
      </trkpt>
      <trkpt lat="42.96089" lon="0.27925">
        <ele>1305.4</ele>
        <time>2021-08-05T09:34:26Z</time>
      </trkpt>
      <trkpt lat="42.96077" lon="0.27927">
        <ele>1304.8</ele>
        <time>2021-08-05T09:34:27Z</time>
      </trkpt>
      <trkpt lat="42.96065" lon="0.27929">
        <ele>1302.8</ele>
        <time>2021-08-05T09:34:28Z</time>
      </trkpt>
      <trkpt lat="42.9604" lon="0.27931">
        <ele>1300.8</ele>
        <time>2021-08-05T09:34:30Z</time>
      </trkpt>
      <trkpt lat="42.96017" lon="0.27934">
        <ele>1299</ele>
        <time>2021-08-05T09:34:32Z</time>
      </trkpt>
      <trkpt lat="42.96006" lon="0.27936">
        <ele>1298.4</ele>
        <time>2021-08-05T09:34:33Z</time>
      </trkpt>
      <trkpt lat="42.95994" lon="0.27938">
        <ele>1297</ele>
        <time>2021-08-05T09:34:34Z</time>
      </trkpt>
      <trkpt lat="42.95983" lon="0.2794">
        <ele>1295.6</ele>
        <time>2021-08-05T09:34:35Z</time>
      </trkpt>
      <trkpt lat="42.95972" lon="0.27941">
        <ele>1294.6</ele>
        <time>2021-08-05T09:34:36Z</time>
      </trkpt>
      <trkpt lat="42.95961" lon="0.27943">
        <ele>1292.8</ele>
        <time>2021-08-05T09:34:37Z</time>
      </trkpt>
      <trkpt lat="42.9595" lon="0.27945">
        <ele>1292.4</ele>
        <time>2021-08-05T09:34:38Z</time>
      </trkpt>
      <trkpt lat="42.95939" lon="0.27948">
        <ele>1290.2</ele>
        <time>2021-08-05T09:34:39Z</time>
      </trkpt>
      <trkpt lat="42.95929" lon="0.2795">
        <ele>1289</ele>
        <time>2021-08-05T09:34:40Z</time>
      </trkpt>
      <trkpt lat="42.95919" lon="0.27952">
        <ele>1287.2</ele>
        <time>2021-08-05T09:34:41Z</time>
      </trkpt>
      <trkpt lat="42.95908" lon="0.27952">
        <ele>1286.4</ele>
        <time>2021-08-05T09:34:42Z</time>
      </trkpt>
      <trkpt lat="42.95898" lon="0.2795">
        <ele>1285.4</ele>
        <time>2021-08-05T09:34:43Z</time>
      </trkpt>
      <trkpt lat="42.95887" lon="0.27948">
        <ele>1285</ele>
        <time>2021-08-05T09:34:44Z</time>
      </trkpt>
      <trkpt lat="42.95878" lon="0.27946">
        <ele>1283</ele>
        <time>2021-08-05T09:34:45Z</time>
      </trkpt>
      <trkpt lat="42.95857" lon="0.27945">
        <ele>1280.6</ele>
        <time>2021-08-05T09:34:47Z</time>
      </trkpt>
      <trkpt lat="42.95836" lon="0.27947">
        <ele>1278.6</ele>
        <time>2021-08-05T09:34:49Z</time>
      </trkpt>
      <trkpt lat="42.95825" lon="0.27947">
        <ele>1278.2</ele>
        <time>2021-08-05T09:34:50Z</time>
      </trkpt>
      <trkpt lat="42.95815" lon="0.27946">
        <ele>1276.6</ele>
        <time>2021-08-05T09:34:51Z</time>
      </trkpt>
      <trkpt lat="42.95805" lon="0.27944">
        <ele>1275</ele>
        <time>2021-08-05T09:34:52Z</time>
      </trkpt>
      <trkpt lat="42.95795" lon="0.27941">
        <ele>1274.2</ele>
        <time>2021-08-05T09:34:53Z</time>
      </trkpt>
      <trkpt lat="42.95784" lon="0.27937">
        <ele>1273</ele>
        <time>2021-08-05T09:34:54Z</time>
      </trkpt>
      <trkpt lat="42.95761" lon="0.27927">
        <ele>1271.4</ele>
        <time>2021-08-05T09:34:56Z</time>
      </trkpt>
      <trkpt lat="42.95749" lon="0.27921">
        <ele>1270.8</ele>
        <time>2021-08-05T09:34:57Z</time>
      </trkpt>
      <trkpt lat="42.95736" lon="0.27916">
        <ele>1269.4</ele>
        <time>2021-08-05T09:34:58Z</time>
      </trkpt>
      <trkpt lat="42.95725" lon="0.2791">
        <ele>1268.4</ele>
        <time>2021-08-05T09:34:59Z</time>
      </trkpt>
      <trkpt lat="42.95713" lon="0.27905">
        <ele>1267</ele>
        <time>2021-08-05T09:35:00Z</time>
      </trkpt>
      <trkpt lat="42.95701" lon="0.279">
        <ele>1266.6</ele>
        <time>2021-08-05T09:35:01Z</time>
      </trkpt>
      <trkpt lat="42.9569" lon="0.27896">
        <ele>1265.6</ele>
        <time>2021-08-05T09:35:02Z</time>
      </trkpt>
      <trkpt lat="42.95679" lon="0.27892">
        <ele>1265</ele>
        <time>2021-08-05T09:35:03Z</time>
      </trkpt>
      <trkpt lat="42.95669" lon="0.27889">
        <ele>1263.2</ele>
        <time>2021-08-05T09:35:04Z</time>
      </trkpt>
      <trkpt lat="42.95659" lon="0.27886">
        <ele>1262.6</ele>
        <time>2021-08-05T09:35:05Z</time>
      </trkpt>
      <trkpt lat="42.95649" lon="0.27885">
        <ele>1261.2</ele>
        <time>2021-08-05T09:35:06Z</time>
      </trkpt>
      <trkpt lat="42.95639" lon="0.27885">
        <ele>1260.6</ele>
        <time>2021-08-05T09:35:07Z</time>
      </trkpt>
      <trkpt lat="42.95628" lon="0.27887">
        <ele>1259</ele>
        <time>2021-08-05T09:35:08Z</time>
      </trkpt>
      <trkpt lat="42.95618" lon="0.27889">
        <ele>1258</ele>
        <time>2021-08-05T09:35:09Z</time>
      </trkpt>
      <trkpt lat="42.95608" lon="0.27891">
        <ele>1257.4</ele>
        <time>2021-08-05T09:35:10Z</time>
      </trkpt>
      <trkpt lat="42.95598" lon="0.27895">
        <ele>1256</ele>
        <time>2021-08-05T09:35:11Z</time>
      </trkpt>
      <trkpt lat="42.95589" lon="0.27899">
        <ele>1255</ele>
        <time>2021-08-05T09:35:12Z</time>
      </trkpt>
      <trkpt lat="42.95582" lon="0.27903">
        <ele>1253</ele>
        <time>2021-08-05T09:35:13Z</time>
      </trkpt>
      <trkpt lat="42.95576" lon="0.27909">
        <ele>1252.4</ele>
        <time>2021-08-05T09:35:14Z</time>
      </trkpt>
      <trkpt lat="42.9557" lon="0.27916">
        <ele>1250.4</ele>
        <time>2021-08-05T09:35:15Z</time>
      </trkpt>
      <trkpt lat="42.95565" lon="0.27923">
        <ele>1249.6</ele>
        <time>2021-08-05T09:35:16Z</time>
      </trkpt>
      <trkpt lat="42.95558" lon="0.27933">
        <ele>1248</ele>
        <time>2021-08-05T09:35:17Z</time>
      </trkpt>
      <trkpt lat="42.95544" lon="0.27952">
        <ele>1246.4</ele>
        <time>2021-08-05T09:35:19Z</time>
      </trkpt>
      <trkpt lat="42.95537" lon="0.27961">
        <ele>1245.8</ele>
        <time>2021-08-05T09:35:20Z</time>
      </trkpt>
      <trkpt lat="42.95529" lon="0.2797">
        <ele>1244.4</ele>
        <time>2021-08-05T09:35:21Z</time>
      </trkpt>
      <trkpt lat="42.95521" lon="0.27979">
        <ele>1243.4</ele>
        <time>2021-08-05T09:35:22Z</time>
      </trkpt>
      <trkpt lat="42.95513" lon="0.27989">
        <ele>1242</ele>
        <time>2021-08-05T09:35:23Z</time>
      </trkpt>
      <trkpt lat="42.95507" lon="0.27998">
        <ele>1241.4</ele>
        <time>2021-08-05T09:35:24Z</time>
      </trkpt>
      <trkpt lat="42.955" lon="0.28005">
        <ele>1240.8</ele>
        <time>2021-08-05T09:35:25Z</time>
      </trkpt>
      <trkpt lat="42.95494" lon="0.28009">
        <ele>1239.8</ele>
        <time>2021-08-05T09:35:26Z</time>
      </trkpt>
      <trkpt lat="42.95489" lon="0.28009">
        <ele>1239.2</ele>
        <time>2021-08-05T09:35:27Z</time>
      </trkpt>
      <trkpt lat="42.95485" lon="0.28004">
        <ele>1238</ele>
        <time>2021-08-05T09:35:28Z</time>
      </trkpt>
      <trkpt lat="42.95482" lon="0.27997">
        <ele>1237.8</ele>
        <time>2021-08-05T09:35:29Z</time>
      </trkpt>
      <trkpt lat="42.95481" lon="0.27987">
        <ele>1237</ele>
        <time>2021-08-05T09:35:30Z</time>
      </trkpt>
      <trkpt lat="42.95479" lon="0.27978">
        <ele>1236.6</ele>
        <time>2021-08-05T09:35:31Z</time>
      </trkpt>
      <trkpt lat="42.95477" lon="0.27969">
        <ele>1235.8</ele>
        <time>2021-08-05T09:35:32Z</time>
      </trkpt>
      <trkpt lat="42.95475" lon="0.27958">
        <ele>1235.4</ele>
        <time>2021-08-05T09:35:33Z</time>
      </trkpt>
      <trkpt lat="42.9547" lon="0.27933">
        <ele>1234.6</ele>
        <time>2021-08-05T09:35:35Z</time>
      </trkpt>
      <trkpt lat="42.95462" lon="0.27896">
        <ele>1233.4</ele>
        <time>2021-08-05T09:35:38Z</time>
      </trkpt>
      <trkpt lat="42.95454" lon="0.2787">
        <ele>1232.2</ele>
        <time>2021-08-05T09:35:40Z</time>
      </trkpt>
      <trkpt lat="42.9545" lon="0.27858">
        <ele>1231.8</ele>
        <time>2021-08-05T09:35:41Z</time>
      </trkpt>
      <trkpt lat="42.95445" lon="0.27847">
        <ele>1231</ele>
        <time>2021-08-05T09:35:42Z</time>
      </trkpt>
      <trkpt lat="42.9544" lon="0.27836">
        <ele>1229.2</ele>
        <time>2021-08-05T09:35:43Z</time>
      </trkpt>
      <trkpt lat="42.95434" lon="0.27826">
        <ele>1228.6</ele>
        <time>2021-08-05T09:35:44Z</time>
      </trkpt>
      <trkpt lat="42.95428" lon="0.27815">
        <ele>1227.8</ele>
        <time>2021-08-05T09:35:45Z</time>
      </trkpt>
      <trkpt lat="42.95421" lon="0.27805">
        <ele>1227</ele>
        <time>2021-08-05T09:35:46Z</time>
      </trkpt>
      <trkpt lat="42.95413" lon="0.27796">
        <ele>1225.8</ele>
        <time>2021-08-05T09:35:47Z</time>
      </trkpt>
      <trkpt lat="42.95398" lon="0.27778">
        <ele>1224.6</ele>
        <time>2021-08-05T09:35:49Z</time>
      </trkpt>
      <trkpt lat="42.95381" lon="0.27761">
        <ele>1222</ele>
        <time>2021-08-05T09:35:51Z</time>
      </trkpt>
      <trkpt lat="42.95366" lon="0.27741">
        <ele>1219.4</ele>
        <time>2021-08-05T09:35:53Z</time>
      </trkpt>
      <trkpt lat="42.95357" lon="0.2773">
        <ele>1218.6</ele>
        <time>2021-08-05T09:35:54Z</time>
      </trkpt>
      <trkpt lat="42.95349" lon="0.27719">
        <ele>1217.4</ele>
        <time>2021-08-05T09:35:55Z</time>
      </trkpt>
      <trkpt lat="42.9533" lon="0.27699">
        <ele>1215</ele>
        <time>2021-08-05T09:35:57Z</time>
      </trkpt>
      <trkpt lat="42.95321" lon="0.27689">
        <ele>1214.4</ele>
        <time>2021-08-05T09:35:58Z</time>
      </trkpt>
      <trkpt lat="42.95312" lon="0.27679">
        <ele>1213</ele>
        <time>2021-08-05T09:35:59Z</time>
      </trkpt>
      <trkpt lat="42.95305" lon="0.27668">
        <ele>1211.6</ele>
        <time>2021-08-05T09:36:00Z</time>
      </trkpt>
      <trkpt lat="42.95297" lon="0.27657">
        <ele>1210.8</ele>
        <time>2021-08-05T09:36:01Z</time>
      </trkpt>
      <trkpt lat="42.9529" lon="0.27646">
        <ele>1209</ele>
        <time>2021-08-05T09:36:02Z</time>
      </trkpt>
      <trkpt lat="42.95284" lon="0.27634">
        <ele>1208.2</ele>
        <time>2021-08-05T09:36:03Z</time>
      </trkpt>
      <trkpt lat="42.9528" lon="0.27622">
        <ele>1207</ele>
        <time>2021-08-05T09:36:04Z</time>
      </trkpt>
      <trkpt lat="42.95276" lon="0.27609">
        <ele>1206.4</ele>
        <time>2021-08-05T09:36:05Z</time>
      </trkpt>
      <trkpt lat="42.95272" lon="0.27596">
        <ele>1205.2</ele>
        <time>2021-08-05T09:36:06Z</time>
      </trkpt>
      <trkpt lat="42.95265" lon="0.27567">
        <ele>1203.2</ele>
        <time>2021-08-05T09:36:08Z</time>
      </trkpt>
      <trkpt lat="42.95262" lon="0.27552">
        <ele>1202</ele>
        <time>2021-08-05T09:36:09Z</time>
      </trkpt>
      <trkpt lat="42.95259" lon="0.27536">
        <ele>1200.6</ele>
        <time>2021-08-05T09:36:10Z</time>
      </trkpt>
      <trkpt lat="42.95255" lon="0.27503">
        <ele>1198.6</ele>
        <time>2021-08-05T09:36:12Z</time>
      </trkpt>
      <trkpt lat="42.95254" lon="0.27486">
        <ele>1198</ele>
        <time>2021-08-05T09:36:13Z</time>
      </trkpt>
      <trkpt lat="42.95252" lon="0.2747">
        <ele>1196.2</ele>
        <time>2021-08-05T09:36:14Z</time>
      </trkpt>
      <trkpt lat="42.9525" lon="0.27455">
        <ele>1195.4</ele>
        <time>2021-08-05T09:36:15Z</time>
      </trkpt>
      <trkpt lat="42.95248" lon="0.27441">
        <ele>1194.8</ele>
        <time>2021-08-05T09:36:16Z</time>
      </trkpt>
      <trkpt lat="42.95244" lon="0.27428">
        <ele>1193.6</ele>
        <time>2021-08-05T09:36:17Z</time>
      </trkpt>
      <trkpt lat="42.9524" lon="0.27417">
        <ele>1192.6</ele>
        <time>2021-08-05T09:36:18Z</time>
      </trkpt>
      <trkpt lat="42.95235" lon="0.27406">
        <ele>1191.2</ele>
        <time>2021-08-05T09:36:19Z</time>
      </trkpt>
      <trkpt lat="42.9523" lon="0.27396">
        <ele>1190.6</ele>
        <time>2021-08-05T09:36:20Z</time>
      </trkpt>
      <trkpt lat="42.95225" lon="0.27388">
        <ele>1189.6</ele>
        <time>2021-08-05T09:36:21Z</time>
      </trkpt>
      <trkpt lat="42.95217" lon="0.27382">
        <ele>1188.8</ele>
        <time>2021-08-05T09:36:22Z</time>
      </trkpt>
      <trkpt lat="42.95208" lon="0.27378">
        <ele>1187</ele>
        <time>2021-08-05T09:36:23Z</time>
      </trkpt>
      <trkpt lat="42.95198" lon="0.27376">
        <ele>1185.8</ele>
        <time>2021-08-05T09:36:24Z</time>
      </trkpt>
      <trkpt lat="42.95189" lon="0.27375">
        <ele>1184.2</ele>
        <time>2021-08-05T09:36:25Z</time>
      </trkpt>
      <trkpt lat="42.95181" lon="0.27375">
        <ele>1183.4</ele>
        <time>2021-08-05T09:36:26Z</time>
      </trkpt>
      <trkpt lat="42.95174" lon="0.27374">
        <ele>1182.4</ele>
        <time>2021-08-05T09:36:27Z</time>
      </trkpt>
      <trkpt lat="42.95168" lon="0.27373">
        <ele>1181.8</ele>
        <time>2021-08-05T09:36:28Z</time>
      </trkpt>
      <trkpt lat="42.95163" lon="0.27371">
        <ele>1181.2</ele>
        <time>2021-08-05T09:36:29Z</time>
      </trkpt>
      <trkpt lat="42.95161" lon="0.27366">
        <ele>1180.8</ele>
        <time>2021-08-05T09:36:30Z</time>
      </trkpt>
      <trkpt lat="42.9516" lon="0.2736">
        <ele>1179.8</ele>
        <time>2021-08-05T09:36:31Z</time>
      </trkpt>
      <trkpt lat="42.9516" lon="0.27354">
        <ele>1179.4</ele>
        <time>2021-08-05T09:36:32Z</time>
      </trkpt>
      <trkpt lat="42.9516" lon="0.27348">
        <ele>1178.6</ele>
        <time>2021-08-05T09:36:33Z</time>
      </trkpt>
      <trkpt lat="42.95159" lon="0.27345">
        <ele>1178.2</ele>
        <time>2021-08-05T09:36:34Z</time>
      </trkpt>
      <trkpt lat="42.95158" lon="0.27344">
        <ele>1177.6</ele>
        <time>2021-08-05T09:36:35Z</time>
      </trkpt>
      <trkpt lat="42.95158" lon="0.27344">
        <ele>1177.2</ele>
        <time>2021-08-05T09:36:36Z</time>
      </trkpt>
      <trkpt lat="42.95158" lon="0.27344">
        <ele>1176.8</ele>
        <time>2021-08-05T09:36:37Z</time>
      </trkpt>
      <trkpt lat="42.95158" lon="0.27344">
        <ele>1176.4</ele>
        <time>2021-08-05T09:36:38Z</time>
      </trkpt>
      <trkpt lat="42.95158" lon="0.27344">
        <ele>1175.8</ele>
        <time>2021-08-05T09:36:40Z</time>
      </trkpt>
      <trkpt lat="42.95158" lon="0.27344">
        <ele>1175.2</ele>
        <time>2021-08-05T09:36:45Z</time>
      </trkpt>
      <trkpt lat="42.95159" lon="0.27344">
        <ele>1175.2</ele>
        <time>2021-08-05T09:36:53Z</time>
      </trkpt>
      <trkpt lat="42.95159" lon="0.27344">
        <ele>1175.2</ele>
        <time>2021-08-05T09:36:55Z</time>
      </trkpt>
      <trkpt lat="42.9516" lon="0.27345">
        <ele>1175.2</ele>
        <time>2021-08-05T09:38:30Z</time>
      </trkpt>
      <trkpt lat="42.95158" lon="0.27346">
        <ele>1175.2</ele>
        <time>2021-08-05T09:38:35Z</time>
      </trkpt>
      <trkpt lat="42.95155" lon="0.27348">
        <ele>1175.4</ele>
        <time>2021-08-05T09:38:39Z</time>
      </trkpt>
      <trkpt lat="42.95155" lon="0.27348">
        <ele>1175.8</ele>
        <time>2021-08-05T09:38:41Z</time>
      </trkpt>
      <trkpt lat="42.95154" lon="0.27348">
        <ele>1176.2</ele>
        <time>2021-08-05T09:38:43Z</time>
      </trkpt>
      <trkpt lat="42.95154" lon="0.27348">
        <ele>1176.4</ele>
        <time>2021-08-05T09:38:44Z</time>
      </trkpt>
      <trkpt lat="42.95152" lon="0.27349">
        <ele>1176.6</ele>
        <time>2021-08-05T09:38:45Z</time>
      </trkpt>
      <trkpt lat="42.95148" lon="0.27351">
        <ele>1177</ele>
        <time>2021-08-05T09:38:47Z</time>
      </trkpt>
      <trkpt lat="42.95143" lon="0.27352">
        <ele>1177.6</ele>
        <time>2021-08-05T09:38:49Z</time>
      </trkpt>
      <trkpt lat="42.9514" lon="0.27353">
        <ele>1177.6</ele>
        <time>2021-08-05T09:38:50Z</time>
      </trkpt>
      <trkpt lat="42.95131" lon="0.27356">
        <ele>1178.6</ele>
        <time>2021-08-05T09:38:53Z</time>
      </trkpt>
      <trkpt lat="42.95129" lon="0.27356">
        <ele>1178.6</ele>
        <time>2021-08-05T09:38:54Z</time>
      </trkpt>
      <trkpt lat="42.95128" lon="0.27356">
        <ele>1178.8</ele>
        <time>2021-08-05T09:38:55Z</time>
      </trkpt>
      <trkpt lat="42.95127" lon="0.27356">
        <ele>1178.8</ele>
        <time>2021-08-05T09:38:56Z</time>
      </trkpt>
      <trkpt lat="42.95125" lon="0.27357">
        <ele>1179</ele>
        <time>2021-08-05T09:38:57Z</time>
      </trkpt>
      <trkpt lat="42.95125" lon="0.27357">
        <ele>1179.2</ele>
        <time>2021-08-05T09:38:58Z</time>
      </trkpt>
      <trkpt lat="42.95125" lon="0.27357">
        <ele>1179.4</ele>
        <time>2021-08-05T09:38:59Z</time>
      </trkpt>
      <trkpt lat="42.95122" lon="0.27357">
        <ele>1179.6</ele>
        <time>2021-08-05T09:39:00Z</time>
      </trkpt>
      <trkpt lat="42.95119" lon="0.27357">
        <ele>1179.8</ele>
        <time>2021-08-05T09:39:01Z</time>
      </trkpt>
      <trkpt lat="42.95115" lon="0.27359">
        <ele>1180</ele>
        <time>2021-08-05T09:39:02Z</time>
      </trkpt>
      <trkpt lat="42.95112" lon="0.2736">
        <ele>1180</ele>
        <time>2021-08-05T09:39:03Z</time>
      </trkpt>
      <trkpt lat="42.95109" lon="0.27361">
        <ele>1180.2</ele>
        <time>2021-08-05T09:39:04Z</time>
      </trkpt>
      <trkpt lat="42.95106" lon="0.27361">
        <ele>1180.4</ele>
        <time>2021-08-05T09:39:05Z</time>
      </trkpt>
      <trkpt lat="42.95104" lon="0.27361">
        <ele>1180.6</ele>
        <time>2021-08-05T09:39:06Z</time>
      </trkpt>
      <trkpt lat="42.95103" lon="0.27361">
        <ele>1180.8</ele>
        <time>2021-08-05T09:39:07Z</time>
      </trkpt>
      <trkpt lat="42.95101" lon="0.27362">
        <ele>1181</ele>
        <time>2021-08-05T09:39:08Z</time>
      </trkpt>
      <trkpt lat="42.95098" lon="0.27363">
        <ele>1181</ele>
        <time>2021-08-05T09:39:09Z</time>
      </trkpt>
      <trkpt lat="42.95096" lon="0.27364">
        <ele>1181.2</ele>
        <time>2021-08-05T09:39:10Z</time>
      </trkpt>
      <trkpt lat="42.95094" lon="0.27365">
        <ele>1181.4</ele>
        <time>2021-08-05T09:39:11Z</time>
      </trkpt>
      <trkpt lat="42.95093" lon="0.27366">
        <ele>1181.6</ele>
        <time>2021-08-05T09:39:12Z</time>
      </trkpt>
      <trkpt lat="42.95092" lon="0.27368">
        <ele>1181.8</ele>
        <time>2021-08-05T09:39:13Z</time>
      </trkpt>
      <trkpt lat="42.95089" lon="0.27369">
        <ele>1182</ele>
        <time>2021-08-05T09:39:14Z</time>
      </trkpt>
      <trkpt lat="42.95085" lon="0.27371">
        <ele>1182</ele>
        <time>2021-08-05T09:39:15Z</time>
      </trkpt>
      <trkpt lat="42.95083" lon="0.27372">
        <ele>1182.2</ele>
        <time>2021-08-05T09:39:16Z</time>
      </trkpt>
      <trkpt lat="42.9508" lon="0.27374">
        <ele>1182.4</ele>
        <time>2021-08-05T09:39:17Z</time>
      </trkpt>
      <trkpt lat="42.95076" lon="0.27374">
        <ele>1182.6</ele>
        <time>2021-08-05T09:39:18Z</time>
      </trkpt>
      <trkpt lat="42.95072" lon="0.27375">
        <ele>1182.6</ele>
        <time>2021-08-05T09:39:19Z</time>
      </trkpt>
      <trkpt lat="42.95071" lon="0.27374">
        <ele>1183</ele>
        <time>2021-08-05T09:39:20Z</time>
      </trkpt>
      <trkpt lat="42.95069" lon="0.27373">
        <ele>1183.4</ele>
        <time>2021-08-05T09:39:21Z</time>
      </trkpt>
      <trkpt lat="42.95068" lon="0.27374">
        <ele>1183.4</ele>
        <time>2021-08-05T09:39:22Z</time>
      </trkpt>
      <trkpt lat="42.95067" lon="0.27375">
        <ele>1183.6</ele>
        <time>2021-08-05T09:39:23Z</time>
      </trkpt>
      <trkpt lat="42.95066" lon="0.27376">
        <ele>1183.8</ele>
        <time>2021-08-05T09:39:24Z</time>
      </trkpt>
      <trkpt lat="42.95066" lon="0.27376">
        <ele>1184.2</ele>
        <time>2021-08-05T09:39:25Z</time>
      </trkpt>
      <trkpt lat="42.95065" lon="0.27375">
        <ele>1184.2</ele>
        <time>2021-08-05T09:39:26Z</time>
      </trkpt>
      <trkpt lat="42.95064" lon="0.27375">
        <ele>1184.6</ele>
        <time>2021-08-05T09:39:27Z</time>
      </trkpt>
      <trkpt lat="42.95061" lon="0.27375">
        <ele>1184.8</ele>
        <time>2021-08-05T09:39:28Z</time>
      </trkpt>
      <trkpt lat="42.95059" lon="0.27375">
        <ele>1185.2</ele>
        <time>2021-08-05T09:39:29Z</time>
      </trkpt>
      <trkpt lat="42.95058" lon="0.27375">
        <ele>1185.2</ele>
        <time>2021-08-05T09:39:30Z</time>
      </trkpt>
      <trkpt lat="42.95056" lon="0.27374">
        <ele>1185.4</ele>
        <time>2021-08-05T09:39:31Z</time>
      </trkpt>
      <trkpt lat="42.95055" lon="0.27373">
        <ele>1185.6</ele>
        <time>2021-08-05T09:39:32Z</time>
      </trkpt>
      <trkpt lat="42.95053" lon="0.27371">
        <ele>1185.8</ele>
        <time>2021-08-05T09:39:33Z</time>
      </trkpt>
      <trkpt lat="42.95052" lon="0.2737">
        <ele>1185.8</ele>
        <time>2021-08-05T09:39:34Z</time>
      </trkpt>
      <trkpt lat="42.9505" lon="0.2737">
        <ele>1186</ele>
        <time>2021-08-05T09:39:35Z</time>
      </trkpt>
      <trkpt lat="42.95048" lon="0.2737">
        <ele>1186</ele>
        <time>2021-08-05T09:39:36Z</time>
      </trkpt>
      <trkpt lat="42.95046" lon="0.2737">
        <ele>1186.2</ele>
        <time>2021-08-05T09:39:37Z</time>
      </trkpt>
      <trkpt lat="42.95045" lon="0.2737">
        <ele>1186.2</ele>
        <time>2021-08-05T09:39:38Z</time>
      </trkpt>
      <trkpt lat="42.95043" lon="0.2737">
        <ele>1186.4</ele>
        <time>2021-08-05T09:39:39Z</time>
      </trkpt>
      <trkpt lat="42.95042" lon="0.27369">
        <ele>1186.6</ele>
        <time>2021-08-05T09:39:40Z</time>
      </trkpt>
      <trkpt lat="42.9504" lon="0.27369">
        <ele>1186.8</ele>
        <time>2021-08-05T09:39:41Z</time>
      </trkpt>
      <trkpt lat="42.95038" lon="0.27369">
        <ele>1187</ele>
        <time>2021-08-05T09:39:42Z</time>
      </trkpt>
      <trkpt lat="42.95037" lon="0.27368">
        <ele>1187</ele>
        <time>2021-08-05T09:39:43Z</time>
      </trkpt>
      <trkpt lat="42.95036" lon="0.27368">
        <ele>1187.4</ele>
        <time>2021-08-05T09:39:44Z</time>
      </trkpt>
      <trkpt lat="42.95035" lon="0.27368">
        <ele>1187.4</ele>
        <time>2021-08-05T09:39:45Z</time>
      </trkpt>
      <trkpt lat="42.95034" lon="0.27367">
        <ele>1187.6</ele>
        <time>2021-08-05T09:39:46Z</time>
      </trkpt>
      <trkpt lat="42.95032" lon="0.27366">
        <ele>1187.8</ele>
        <time>2021-08-05T09:39:47Z</time>
      </trkpt>
      <trkpt lat="42.95031" lon="0.27366">
        <ele>1188</ele>
        <time>2021-08-05T09:39:48Z</time>
      </trkpt>
      <trkpt lat="42.95029" lon="0.27365">
        <ele>1188</ele>
        <time>2021-08-05T09:39:49Z</time>
      </trkpt>
      <trkpt lat="42.95027" lon="0.27364">
        <ele>1188.2</ele>
        <time>2021-08-05T09:39:50Z</time>
      </trkpt>
      <trkpt lat="42.95026" lon="0.27364">
        <ele>1188.4</ele>
        <time>2021-08-05T09:39:51Z</time>
      </trkpt>
      <trkpt lat="42.95024" lon="0.27364">
        <ele>1188.6</ele>
        <time>2021-08-05T09:39:52Z</time>
      </trkpt>
      <trkpt lat="42.95023" lon="0.27364">
        <ele>1188.6</ele>
        <time>2021-08-05T09:39:53Z</time>
      </trkpt>
      <trkpt lat="42.95021" lon="0.27363">
        <ele>1188.8</ele>
        <time>2021-08-05T09:39:54Z</time>
      </trkpt>
      <trkpt lat="42.95019" lon="0.27363">
        <ele>1189</ele>
        <time>2021-08-05T09:39:55Z</time>
      </trkpt>
      <trkpt lat="42.95017" lon="0.27362">
        <ele>1189</ele>
        <time>2021-08-05T09:39:56Z</time>
      </trkpt>
      <trkpt lat="42.95015" lon="0.27362">
        <ele>1189.2</ele>
        <time>2021-08-05T09:39:57Z</time>
      </trkpt>
      <trkpt lat="42.95014" lon="0.27362">
        <ele>1189.4</ele>
        <time>2021-08-05T09:39:58Z</time>
      </trkpt>
      <trkpt lat="42.95012" lon="0.27362">
        <ele>1189.6</ele>
        <time>2021-08-05T09:39:59Z</time>
      </trkpt>
      <trkpt lat="42.95011" lon="0.27362">
        <ele>1189.8</ele>
        <time>2021-08-05T09:40:00Z</time>
      </trkpt>
      <trkpt lat="42.9501" lon="0.27362">
        <ele>1190</ele>
        <time>2021-08-05T09:40:01Z</time>
      </trkpt>
      <trkpt lat="42.95008" lon="0.27362">
        <ele>1190.4</ele>
        <time>2021-08-05T09:40:02Z</time>
      </trkpt>
      <trkpt lat="42.95007" lon="0.27362">
        <ele>1190.2</ele>
        <time>2021-08-05T09:40:03Z</time>
      </trkpt>
      <trkpt lat="42.95006" lon="0.27362">
        <ele>1190.2</ele>
        <time>2021-08-05T09:40:04Z</time>
      </trkpt>
      <trkpt lat="42.95004" lon="0.27363">
        <ele>1190.4</ele>
        <time>2021-08-05T09:40:05Z</time>
      </trkpt>
      <trkpt lat="42.95002" lon="0.27363">
        <ele>1190.4</ele>
        <time>2021-08-05T09:40:06Z</time>
      </trkpt>
      <trkpt lat="42.95001" lon="0.27363">
        <ele>1190.8</ele>
        <time>2021-08-05T09:40:07Z</time>
      </trkpt>
      <trkpt lat="42.95" lon="0.27362">
        <ele>1191</ele>
        <time>2021-08-05T09:40:08Z</time>
      </trkpt>
      <trkpt lat="42.94998" lon="0.27362">
        <ele>1191</ele>
        <time>2021-08-05T09:40:09Z</time>
      </trkpt>
      <trkpt lat="42.94997" lon="0.27362">
        <ele>1191</ele>
        <time>2021-08-05T09:40:10Z</time>
      </trkpt>
      <trkpt lat="42.94995" lon="0.27362">
        <ele>1191.4</ele>
        <time>2021-08-05T09:40:11Z</time>
      </trkpt>
      <trkpt lat="42.94994" lon="0.27363">
        <ele>1191.4</ele>
        <time>2021-08-05T09:40:12Z</time>
      </trkpt>
      <trkpt lat="42.94992" lon="0.27363">
        <ele>1191.8</ele>
        <time>2021-08-05T09:40:13Z</time>
      </trkpt>
      <trkpt lat="42.9499" lon="0.27363">
        <ele>1192</ele>
        <time>2021-08-05T09:40:14Z</time>
      </trkpt>
      <trkpt lat="42.94988" lon="0.27363">
        <ele>1192.2</ele>
        <time>2021-08-05T09:40:15Z</time>
      </trkpt>
      <trkpt lat="42.94986" lon="0.27363">
        <ele>1192.2</ele>
        <time>2021-08-05T09:40:16Z</time>
      </trkpt>
      <trkpt lat="42.94984" lon="0.27363">
        <ele>1192.4</ele>
        <time>2021-08-05T09:40:17Z</time>
      </trkpt>
      <trkpt lat="42.94982" lon="0.27363">
        <ele>1192.4</ele>
        <time>2021-08-05T09:40:18Z</time>
      </trkpt>
      <trkpt lat="42.94981" lon="0.27362">
        <ele>1192.6</ele>
        <time>2021-08-05T09:40:19Z</time>
      </trkpt>
      <trkpt lat="42.94979" lon="0.27362">
        <ele>1192.6</ele>
        <time>2021-08-05T09:40:20Z</time>
      </trkpt>
      <trkpt lat="42.94977" lon="0.27361">
        <ele>1193</ele>
        <time>2021-08-05T09:40:21Z</time>
      </trkpt>
      <trkpt lat="42.94975" lon="0.27361">
        <ele>1193</ele>
        <time>2021-08-05T09:40:22Z</time>
      </trkpt>
      <trkpt lat="42.94973" lon="0.2736">
        <ele>1193</ele>
        <time>2021-08-05T09:40:23Z</time>
      </trkpt>
      <trkpt lat="42.94971" lon="0.27361">
        <ele>1193.4</ele>
        <time>2021-08-05T09:40:24Z</time>
      </trkpt>
      <trkpt lat="42.9497" lon="0.2736">
        <ele>1193.4</ele>
        <time>2021-08-05T09:40:25Z</time>
      </trkpt>
      <trkpt lat="42.94968" lon="0.2736">
        <ele>1193.6</ele>
        <time>2021-08-05T09:40:26Z</time>
      </trkpt>
      <trkpt lat="42.94966" lon="0.2736">
        <ele>1193.6</ele>
        <time>2021-08-05T09:40:27Z</time>
      </trkpt>
      <trkpt lat="42.94964" lon="0.2736">
        <ele>1193.8</ele>
        <time>2021-08-05T09:40:28Z</time>
      </trkpt>
      <trkpt lat="42.94963" lon="0.27359">
        <ele>1194</ele>
        <time>2021-08-05T09:40:29Z</time>
      </trkpt>
      <trkpt lat="42.94961" lon="0.27358">
        <ele>1194.2</ele>
        <time>2021-08-05T09:40:30Z</time>
      </trkpt>
      <trkpt lat="42.94959" lon="0.27357">
        <ele>1194.2</ele>
        <time>2021-08-05T09:40:31Z</time>
      </trkpt>
      <trkpt lat="42.94958" lon="0.27356">
        <ele>1194.4</ele>
        <time>2021-08-05T09:40:32Z</time>
      </trkpt>
      <trkpt lat="42.94957" lon="0.27356">
        <ele>1194.6</ele>
        <time>2021-08-05T09:40:33Z</time>
      </trkpt>
      <trkpt lat="42.94955" lon="0.27356">
        <ele>1194.8</ele>
        <time>2021-08-05T09:40:34Z</time>
      </trkpt>
      <trkpt lat="42.94954" lon="0.27356">
        <ele>1195</ele>
        <time>2021-08-05T09:40:35Z</time>
      </trkpt>
      <trkpt lat="42.94952" lon="0.27355">
        <ele>1195</ele>
        <time>2021-08-05T09:40:36Z</time>
      </trkpt>
      <trkpt lat="42.94951" lon="0.27355">
        <ele>1195</ele>
        <time>2021-08-05T09:40:37Z</time>
      </trkpt>
      <trkpt lat="42.9495" lon="0.27355">
        <ele>1195.4</ele>
        <time>2021-08-05T09:40:38Z</time>
      </trkpt>
      <trkpt lat="42.94949" lon="0.27355">
        <ele>1195.8</ele>
        <time>2021-08-05T09:40:39Z</time>
      </trkpt>
      <trkpt lat="42.94948" lon="0.27354">
        <ele>1195.8</ele>
        <time>2021-08-05T09:40:40Z</time>
      </trkpt>
      <trkpt lat="42.94946" lon="0.27353">
        <ele>1195.8</ele>
        <time>2021-08-05T09:40:41Z</time>
      </trkpt>
      <trkpt lat="42.94944" lon="0.27352">
        <ele>1195.8</ele>
        <time>2021-08-05T09:40:42Z</time>
      </trkpt>
      <trkpt lat="42.94942" lon="0.27351">
        <ele>1196</ele>
        <time>2021-08-05T09:40:43Z</time>
      </trkpt>
      <trkpt lat="42.9494" lon="0.27351">
        <ele>1196.2</ele>
        <time>2021-08-05T09:40:44Z</time>
      </trkpt>
      <trkpt lat="42.94939" lon="0.2735">
        <ele>1196.4</ele>
        <time>2021-08-05T09:40:45Z</time>
      </trkpt>
      <trkpt lat="42.94938" lon="0.27349">
        <ele>1196.4</ele>
        <time>2021-08-05T09:40:46Z</time>
      </trkpt>
      <trkpt lat="42.94937" lon="0.27349">
        <ele>1196.6</ele>
        <time>2021-08-05T09:40:47Z</time>
      </trkpt>
      <trkpt lat="42.94935" lon="0.27348">
        <ele>1196.8</ele>
        <time>2021-08-05T09:40:48Z</time>
      </trkpt>
      <trkpt lat="42.94933" lon="0.27348">
        <ele>1196.8</ele>
        <time>2021-08-05T09:40:49Z</time>
      </trkpt>
      <trkpt lat="42.94931" lon="0.27347">
        <ele>1196.8</ele>
        <time>2021-08-05T09:40:50Z</time>
      </trkpt>
      <trkpt lat="42.94929" lon="0.27346">
        <ele>1197</ele>
        <time>2021-08-05T09:40:51Z</time>
      </trkpt>
      <trkpt lat="42.94928" lon="0.27346">
        <ele>1197</ele>
        <time>2021-08-05T09:40:52Z</time>
      </trkpt>
      <trkpt lat="42.94926" lon="0.27345">
        <ele>1197</ele>
        <time>2021-08-05T09:40:53Z</time>
      </trkpt>
      <trkpt lat="42.94924" lon="0.27345">
        <ele>1197.2</ele>
        <time>2021-08-05T09:40:54Z</time>
      </trkpt>
      <trkpt lat="42.94921" lon="0.27344">
        <ele>1197.4</ele>
        <time>2021-08-05T09:40:55Z</time>
      </trkpt>
      <trkpt lat="42.94919" lon="0.27344">
        <ele>1197.6</ele>
        <time>2021-08-05T09:40:56Z</time>
      </trkpt>
      <trkpt lat="42.94916" lon="0.27344">
        <ele>1197.6</ele>
        <time>2021-08-05T09:40:57Z</time>
      </trkpt>
      <trkpt lat="42.94914" lon="0.27344">
        <ele>1197.8</ele>
        <time>2021-08-05T09:40:58Z</time>
      </trkpt>
      <trkpt lat="42.94912" lon="0.27345">
        <ele>1197.8</ele>
        <time>2021-08-05T09:40:59Z</time>
      </trkpt>
      <trkpt lat="42.94909" lon="0.27345">
        <ele>1198</ele>
        <time>2021-08-05T09:41:00Z</time>
      </trkpt>
      <trkpt lat="42.94907" lon="0.27345">
        <ele>1198.2</ele>
        <time>2021-08-05T09:41:01Z</time>
      </trkpt>
      <trkpt lat="42.94905" lon="0.27344">
        <ele>1198.4</ele>
        <time>2021-08-05T09:41:02Z</time>
      </trkpt>
      <trkpt lat="42.94902" lon="0.27343">
        <ele>1198.6</ele>
        <time>2021-08-05T09:41:03Z</time>
      </trkpt>
      <trkpt lat="42.949" lon="0.27342">
        <ele>1198.8</ele>
        <time>2021-08-05T09:41:04Z</time>
      </trkpt>
      <trkpt lat="42.94899" lon="0.27342">
        <ele>1198.8</ele>
        <time>2021-08-05T09:41:05Z</time>
      </trkpt>
      <trkpt lat="42.94896" lon="0.27342">
        <ele>1199</ele>
        <time>2021-08-05T09:41:06Z</time>
      </trkpt>
      <trkpt lat="42.94895" lon="0.27343">
        <ele>1199</ele>
        <time>2021-08-05T09:41:07Z</time>
      </trkpt>
      <trkpt lat="42.94893" lon="0.27344">
        <ele>1199.2</ele>
        <time>2021-08-05T09:41:08Z</time>
      </trkpt>
      <trkpt lat="42.94892" lon="0.27342">
        <ele>1199.4</ele>
        <time>2021-08-05T09:41:09Z</time>
      </trkpt>
      <trkpt lat="42.94891" lon="0.27342">
        <ele>1199.6</ele>
        <time>2021-08-05T09:41:10Z</time>
      </trkpt>
      <trkpt lat="42.94889" lon="0.27342">
        <ele>1199.8</ele>
        <time>2021-08-05T09:41:11Z</time>
      </trkpt>
      <trkpt lat="42.94888" lon="0.27341">
        <ele>1199.8</ele>
        <time>2021-08-05T09:41:12Z</time>
      </trkpt>
      <trkpt lat="42.94887" lon="0.27341">
        <ele>1200.2</ele>
        <time>2021-08-05T09:41:13Z</time>
      </trkpt>
      <trkpt lat="42.94886" lon="0.2734">
        <ele>1200.2</ele>
        <time>2021-08-05T09:41:14Z</time>
      </trkpt>
      <trkpt lat="42.94885" lon="0.27339">
        <ele>1200.4</ele>
        <time>2021-08-05T09:41:15Z</time>
      </trkpt>
      <trkpt lat="42.94883" lon="0.27339">
        <ele>1200.4</ele>
        <time>2021-08-05T09:41:16Z</time>
      </trkpt>
      <trkpt lat="42.94881" lon="0.27339">
        <ele>1200.6</ele>
        <time>2021-08-05T09:41:17Z</time>
      </trkpt>
      <trkpt lat="42.9488" lon="0.27339">
        <ele>1200.8</ele>
        <time>2021-08-05T09:41:18Z</time>
      </trkpt>
      <trkpt lat="42.94878" lon="0.27339">
        <ele>1201</ele>
        <time>2021-08-05T09:41:19Z</time>
      </trkpt>
      <trkpt lat="42.94876" lon="0.27339">
        <ele>1201</ele>
        <time>2021-08-05T09:41:20Z</time>
      </trkpt>
      <trkpt lat="42.94875" lon="0.27339">
        <ele>1201.2</ele>
        <time>2021-08-05T09:41:21Z</time>
      </trkpt>
      <trkpt lat="42.94873" lon="0.2734">
        <ele>1201.2</ele>
        <time>2021-08-05T09:41:22Z</time>
      </trkpt>
      <trkpt lat="42.94871" lon="0.27341">
        <ele>1201.4</ele>
        <time>2021-08-05T09:41:23Z</time>
      </trkpt>
      <trkpt lat="42.9487" lon="0.27342">
        <ele>1201.4</ele>
        <time>2021-08-05T09:41:24Z</time>
      </trkpt>
      <trkpt lat="42.94869" lon="0.27342">
        <ele>1201.4</ele>
        <time>2021-08-05T09:41:25Z</time>
      </trkpt>
      <trkpt lat="42.94868" lon="0.27343">
        <ele>1201.6</ele>
        <time>2021-08-05T09:41:26Z</time>
      </trkpt>
      <trkpt lat="42.94866" lon="0.27343">
        <ele>1201.8</ele>
        <time>2021-08-05T09:41:27Z</time>
      </trkpt>
      <trkpt lat="42.94865" lon="0.27343">
        <ele>1202</ele>
        <time>2021-08-05T09:41:28Z</time>
      </trkpt>
      <trkpt lat="42.94865" lon="0.27343">
        <ele>1202</ele>
        <time>2021-08-05T09:41:29Z</time>
      </trkpt>
      <trkpt lat="42.94865" lon="0.27343">
        <ele>1202.2</ele>
        <time>2021-08-05T09:41:30Z</time>
      </trkpt>
      <trkpt lat="42.94864" lon="0.27344">
        <ele>1202.2</ele>
        <time>2021-08-05T09:41:31Z</time>
      </trkpt>
      <trkpt lat="42.94863" lon="0.27345">
        <ele>1202.6</ele>
        <time>2021-08-05T09:41:32Z</time>
      </trkpt>
      <trkpt lat="42.94862" lon="0.27345">
        <ele>1202.6</ele>
        <time>2021-08-05T09:41:33Z</time>
      </trkpt>
      <trkpt lat="42.9486" lon="0.27347">
        <ele>1202.8</ele>
        <time>2021-08-05T09:41:34Z</time>
      </trkpt>
      <trkpt lat="42.94857" lon="0.27347">
        <ele>1202.8</ele>
        <time>2021-08-05T09:41:35Z</time>
      </trkpt>
      <trkpt lat="42.94855" lon="0.27349">
        <ele>1203.2</ele>
        <time>2021-08-05T09:41:36Z</time>
      </trkpt>
      <trkpt lat="42.94852" lon="0.2735">
        <ele>1203.4</ele>
        <time>2021-08-05T09:41:37Z</time>
      </trkpt>
      <trkpt lat="42.9485" lon="0.27351">
        <ele>1203.6</ele>
        <time>2021-08-05T09:41:38Z</time>
      </trkpt>
      <trkpt lat="42.94849" lon="0.27351">
        <ele>1203.6</ele>
        <time>2021-08-05T09:41:39Z</time>
      </trkpt>
      <trkpt lat="42.94847" lon="0.27352">
        <ele>1203.8</ele>
        <time>2021-08-05T09:41:40Z</time>
      </trkpt>
      <trkpt lat="42.94846" lon="0.27352">
        <ele>1204</ele>
        <time>2021-08-05T09:41:41Z</time>
      </trkpt>
      <trkpt lat="42.94844" lon="0.27352">
        <ele>1204</ele>
        <time>2021-08-05T09:41:42Z</time>
      </trkpt>
      <trkpt lat="42.94841" lon="0.27353">
        <ele>1204.2</ele>
        <time>2021-08-05T09:41:43Z</time>
      </trkpt>
      <trkpt lat="42.9484" lon="0.27355">
        <ele>1204.4</ele>
        <time>2021-08-05T09:41:44Z</time>
      </trkpt>
      <trkpt lat="42.94839" lon="0.27355">
        <ele>1204.4</ele>
        <time>2021-08-05T09:41:45Z</time>
      </trkpt>
      <trkpt lat="42.94837" lon="0.27355">
        <ele>1204.6</ele>
        <time>2021-08-05T09:41:46Z</time>
      </trkpt>
      <trkpt lat="42.94834" lon="0.27358">
        <ele>1204.6</ele>
        <time>2021-08-05T09:41:47Z</time>
      </trkpt>
      <trkpt lat="42.94832" lon="0.27359">
        <ele>1204.6</ele>
        <time>2021-08-05T09:41:48Z</time>
      </trkpt>
      <trkpt lat="42.94832" lon="0.2736">
        <ele>1204.8</ele>
        <time>2021-08-05T09:41:49Z</time>
      </trkpt>
      <trkpt lat="42.94832" lon="0.2736">
        <ele>1205</ele>
        <time>2021-08-05T09:41:50Z</time>
      </trkpt>
      <trkpt lat="42.94831" lon="0.2736">
        <ele>1205</ele>
        <time>2021-08-05T09:41:51Z</time>
      </trkpt>
      <trkpt lat="42.9483" lon="0.27362">
        <ele>1205.2</ele>
        <time>2021-08-05T09:41:52Z</time>
      </trkpt>
      <trkpt lat="42.94828" lon="0.27363">
        <ele>1205.2</ele>
        <time>2021-08-05T09:41:53Z</time>
      </trkpt>
      <trkpt lat="42.94826" lon="0.27364">
        <ele>1205.2</ele>
        <time>2021-08-05T09:41:54Z</time>
      </trkpt>
      <trkpt lat="42.94825" lon="0.27365">
        <ele>1205.4</ele>
        <time>2021-08-05T09:41:55Z</time>
      </trkpt>
      <trkpt lat="42.94822" lon="0.27367">
        <ele>1205.6</ele>
        <time>2021-08-05T09:41:56Z</time>
      </trkpt>
      <trkpt lat="42.94821" lon="0.2737">
        <ele>1205.6</ele>
        <time>2021-08-05T09:41:57Z</time>
      </trkpt>
      <trkpt lat="42.94819" lon="0.27374">
        <ele>1205.8</ele>
        <time>2021-08-05T09:41:58Z</time>
      </trkpt>
      <trkpt lat="42.94817" lon="0.27377">
        <ele>1205.8</ele>
        <time>2021-08-05T09:41:59Z</time>
      </trkpt>
      <trkpt lat="42.94816" lon="0.27381">
        <ele>1205.8</ele>
        <time>2021-08-05T09:42:00Z</time>
      </trkpt>
      <trkpt lat="42.94815" lon="0.27383">
        <ele>1206</ele>
        <time>2021-08-05T09:42:01Z</time>
      </trkpt>
      <trkpt lat="42.94815" lon="0.27386">
        <ele>1206.2</ele>
        <time>2021-08-05T09:42:02Z</time>
      </trkpt>
      <trkpt lat="42.94814" lon="0.27388">
        <ele>1206.2</ele>
        <time>2021-08-05T09:42:03Z</time>
      </trkpt>
      <trkpt lat="42.94813" lon="0.2739">
        <ele>1206.2</ele>
        <time>2021-08-05T09:42:04Z</time>
      </trkpt>
      <trkpt lat="42.94812" lon="0.27393">
        <ele>1206.4</ele>
        <time>2021-08-05T09:42:05Z</time>
      </trkpt>
      <trkpt lat="42.94812" lon="0.27394">
        <ele>1206.6</ele>
        <time>2021-08-05T09:42:06Z</time>
      </trkpt>
      <trkpt lat="42.94811" lon="0.27396">
        <ele>1206.6</ele>
        <time>2021-08-05T09:42:07Z</time>
      </trkpt>
      <trkpt lat="42.94811" lon="0.27397">
        <ele>1207</ele>
        <time>2021-08-05T09:42:08Z</time>
      </trkpt>
      <trkpt lat="42.9481" lon="0.27399">
        <ele>1207.2</ele>
        <time>2021-08-05T09:42:09Z</time>
      </trkpt>
      <trkpt lat="42.94809" lon="0.274">
        <ele>1207.4</ele>
        <time>2021-08-05T09:42:10Z</time>
      </trkpt>
      <trkpt lat="42.94809" lon="0.27401">
        <ele>1207.4</ele>
        <time>2021-08-05T09:42:11Z</time>
      </trkpt>
      <trkpt lat="42.94808" lon="0.27403">
        <ele>1207.6</ele>
        <time>2021-08-05T09:42:12Z</time>
      </trkpt>
      <trkpt lat="42.94808" lon="0.27405">
        <ele>1207.6</ele>
        <time>2021-08-05T09:42:13Z</time>
      </trkpt>
      <trkpt lat="42.94808" lon="0.27406">
        <ele>1207.8</ele>
        <time>2021-08-05T09:42:14Z</time>
      </trkpt>
      <trkpt lat="42.94808" lon="0.27407">
        <ele>1207.8</ele>
        <time>2021-08-05T09:42:15Z</time>
      </trkpt>
      <trkpt lat="42.94807" lon="0.27408">
        <ele>1208</ele>
        <time>2021-08-05T09:42:16Z</time>
      </trkpt>
      <trkpt lat="42.94806" lon="0.27409">
        <ele>1208</ele>
        <time>2021-08-05T09:42:17Z</time>
      </trkpt>
      <trkpt lat="42.94805" lon="0.27411">
        <ele>1208.2</ele>
        <time>2021-08-05T09:42:18Z</time>
      </trkpt>
      <trkpt lat="42.94805" lon="0.27412">
        <ele>1208.2</ele>
        <time>2021-08-05T09:42:19Z</time>
      </trkpt>
      <trkpt lat="42.94805" lon="0.27414">
        <ele>1208.4</ele>
        <time>2021-08-05T09:42:20Z</time>
      </trkpt>
      <trkpt lat="42.94805" lon="0.27416">
        <ele>1208.6</ele>
        <time>2021-08-05T09:42:21Z</time>
      </trkpt>
      <trkpt lat="42.94805" lon="0.27417">
        <ele>1208.8</ele>
        <time>2021-08-05T09:42:22Z</time>
      </trkpt>
      <trkpt lat="42.94805" lon="0.27418">
        <ele>1209</ele>
        <time>2021-08-05T09:42:23Z</time>
      </trkpt>
      <trkpt lat="42.94804" lon="0.27419">
        <ele>1209.2</ele>
        <time>2021-08-05T09:42:24Z</time>
      </trkpt>
      <trkpt lat="42.94804" lon="0.27421">
        <ele>1209.4</ele>
        <time>2021-08-05T09:42:25Z</time>
      </trkpt>
      <trkpt lat="42.94804" lon="0.27423">
        <ele>1209.6</ele>
        <time>2021-08-05T09:42:26Z</time>
      </trkpt>
      <trkpt lat="42.94803" lon="0.27426">
        <ele>1209.6</ele>
        <time>2021-08-05T09:42:27Z</time>
      </trkpt>
      <trkpt lat="42.94803" lon="0.27429">
        <ele>1209.6</ele>
        <time>2021-08-05T09:42:28Z</time>
      </trkpt>
      <trkpt lat="42.94803" lon="0.27431">
        <ele>1209.8</ele>
        <time>2021-08-05T09:42:29Z</time>
      </trkpt>
      <trkpt lat="42.94803" lon="0.27433">
        <ele>1209.8</ele>
        <time>2021-08-05T09:42:30Z</time>
      </trkpt>
      <trkpt lat="42.94803" lon="0.27435">
        <ele>1210</ele>
        <time>2021-08-05T09:42:31Z</time>
      </trkpt>
      <trkpt lat="42.94802" lon="0.27438">
        <ele>1210.2</ele>
        <time>2021-08-05T09:42:32Z</time>
      </trkpt>
      <trkpt lat="42.94802" lon="0.27441">
        <ele>1210.4</ele>
        <time>2021-08-05T09:42:33Z</time>
      </trkpt>
      <trkpt lat="42.94802" lon="0.27443">
        <ele>1210.4</ele>
        <time>2021-08-05T09:42:34Z</time>
      </trkpt>
      <trkpt lat="42.94801" lon="0.27447">
        <ele>1210.6</ele>
        <time>2021-08-05T09:42:35Z</time>
      </trkpt>
      <trkpt lat="42.948" lon="0.27449">
        <ele>1210.6</ele>
        <time>2021-08-05T09:42:36Z</time>
      </trkpt>
      <trkpt lat="42.94801" lon="0.27452">
        <ele>1210.8</ele>
        <time>2021-08-05T09:42:37Z</time>
      </trkpt>
      <trkpt lat="42.948" lon="0.27455">
        <ele>1210.8</ele>
        <time>2021-08-05T09:42:38Z</time>
      </trkpt>
      <trkpt lat="42.948" lon="0.27457">
        <ele>1211</ele>
        <time>2021-08-05T09:42:39Z</time>
      </trkpt>
      <trkpt lat="42.948" lon="0.2746">
        <ele>1211</ele>
        <time>2021-08-05T09:42:40Z</time>
      </trkpt>
      <trkpt lat="42.94799" lon="0.27462">
        <ele>1211.2</ele>
        <time>2021-08-05T09:42:41Z</time>
      </trkpt>
      <trkpt lat="42.94799" lon="0.27465">
        <ele>1211.2</ele>
        <time>2021-08-05T09:42:42Z</time>
      </trkpt>
      <trkpt lat="42.94799" lon="0.27467">
        <ele>1211.2</ele>
        <time>2021-08-05T09:42:43Z</time>
      </trkpt>
      <trkpt lat="42.94799" lon="0.2747">
        <ele>1211.2</ele>
        <time>2021-08-05T09:42:44Z</time>
      </trkpt>
      <trkpt lat="42.94798" lon="0.27472">
        <ele>1211.2</ele>
        <time>2021-08-05T09:42:45Z</time>
      </trkpt>
      <trkpt lat="42.94798" lon="0.27474">
        <ele>1211.6</ele>
        <time>2021-08-05T09:42:46Z</time>
      </trkpt>
      <trkpt lat="42.94798" lon="0.27476">
        <ele>1211.6</ele>
        <time>2021-08-05T09:42:47Z</time>
      </trkpt>
      <trkpt lat="42.94798" lon="0.27478">
        <ele>1211.4</ele>
        <time>2021-08-05T09:42:48Z</time>
      </trkpt>
      <trkpt lat="42.94798" lon="0.27479">
        <ele>1211.4</ele>
        <time>2021-08-05T09:42:49Z</time>
      </trkpt>
      <trkpt lat="42.94798" lon="0.2748">
        <ele>1211.4</ele>
        <time>2021-08-05T09:42:50Z</time>
      </trkpt>
      <trkpt lat="42.94798" lon="0.27482">
        <ele>1211.4</ele>
        <time>2021-08-05T09:42:51Z</time>
      </trkpt>
      <trkpt lat="42.94798" lon="0.27483">
        <ele>1211.6</ele>
        <time>2021-08-05T09:42:52Z</time>
      </trkpt>
      <trkpt lat="42.94798" lon="0.27483">
        <ele>1211.6</ele>
        <time>2021-08-05T09:42:53Z</time>
      </trkpt>
      <trkpt lat="42.94798" lon="0.27483">
        <ele>1211.6</ele>
        <time>2021-08-05T09:42:54Z</time>
      </trkpt>
      <trkpt lat="42.94798" lon="0.27483">
        <ele>1211.6</ele>
        <time>2021-08-05T09:43:06Z</time>
      </trkpt>
      <trkpt lat="42.94798" lon="0.27483">
        <ele>1211.6</ele>
        <time>2021-08-05T09:43:10Z</time>
      </trkpt>
      <trkpt lat="42.94798" lon="0.27483">
        <ele>1211.4</ele>
        <time>2021-08-05T09:43:30Z</time>
      </trkpt>
      <trkpt lat="42.94798" lon="0.27483">
        <ele>1211.2</ele>
        <time>2021-08-05T09:43:50Z</time>
      </trkpt>
      <trkpt lat="42.94798" lon="0.27491">
        <ele>1211</ele>
        <time>2021-08-05T09:43:57Z</time>
      </trkpt>
      <trkpt lat="42.94803" lon="0.27508">
        <ele>1211.2</ele>
        <time>2021-08-05T09:44:02Z</time>
      </trkpt>
      <trkpt lat="42.94811" lon="0.27525">
        <ele>1210.6</ele>
        <time>2021-08-05T09:44:06Z</time>
      </trkpt>
      <trkpt lat="42.94814" lon="0.27535">
        <ele>1210.4</ele>
        <time>2021-08-05T09:44:08Z</time>
      </trkpt>
      <trkpt lat="42.94816" lon="0.2754">
        <ele>1210</ele>
        <time>2021-08-05T09:44:09Z</time>
      </trkpt>
      <trkpt lat="42.9482" lon="0.27556">
        <ele>1209.6</ele>
        <time>2021-08-05T09:44:12Z</time>
      </trkpt>
      <trkpt lat="42.94821" lon="0.27569">
        <ele>1209.2</ele>
        <time>2021-08-05T09:44:14Z</time>
      </trkpt>
      <trkpt lat="42.94821" lon="0.27585">
        <ele>1208.2</ele>
        <time>2021-08-05T09:44:17Z</time>
      </trkpt>
      <trkpt lat="42.94821" lon="0.27588">
        <ele>1208</ele>
        <time>2021-08-05T09:44:18Z</time>
      </trkpt>
      <trkpt lat="42.94821" lon="0.27591">
        <ele>1208</ele>
        <time>2021-08-05T09:44:19Z</time>
      </trkpt>
      <trkpt lat="42.94821" lon="0.27592">
        <ele>1208</ele>
        <time>2021-08-05T09:44:20Z</time>
      </trkpt>
      <trkpt lat="42.94821" lon="0.27594">
        <ele>1208</ele>
        <time>2021-08-05T09:44:21Z</time>
      </trkpt>
      <trkpt lat="42.94821" lon="0.27601">
        <ele>1208</ele>
        <time>2021-08-05T09:44:23Z</time>
      </trkpt>
      <trkpt lat="42.94822" lon="0.27604">
        <ele>1208</ele>
        <time>2021-08-05T09:44:24Z</time>
      </trkpt>
      <trkpt lat="42.94822" lon="0.27607">
        <ele>1208.2</ele>
        <time>2021-08-05T09:44:25Z</time>
      </trkpt>
      <trkpt lat="42.94822" lon="0.2761">
        <ele>1208.2</ele>
        <time>2021-08-05T09:44:26Z</time>
      </trkpt>
      <trkpt lat="42.94822" lon="0.27612">
        <ele>1208.4</ele>
        <time>2021-08-05T09:44:27Z</time>
      </trkpt>
      <trkpt lat="42.94822" lon="0.27616">
        <ele>1208.6</ele>
        <time>2021-08-05T09:44:28Z</time>
      </trkpt>
      <trkpt lat="42.94822" lon="0.27619">
        <ele>1208.6</ele>
        <time>2021-08-05T09:44:29Z</time>
      </trkpt>
      <trkpt lat="42.94823" lon="0.27622">
        <ele>1208.8</ele>
        <time>2021-08-05T09:44:30Z</time>
      </trkpt>
      <trkpt lat="42.94824" lon="0.27624">
        <ele>1209</ele>
        <time>2021-08-05T09:44:31Z</time>
      </trkpt>
      <trkpt lat="42.94824" lon="0.27627">
        <ele>1209.2</ele>
        <time>2021-08-05T09:44:32Z</time>
      </trkpt>
      <trkpt lat="42.94825" lon="0.27629">
        <ele>1209.2</ele>
        <time>2021-08-05T09:44:33Z</time>
      </trkpt>
      <trkpt lat="42.94825" lon="0.27635">
        <ele>1209.6</ele>
        <time>2021-08-05T09:44:34Z</time>
      </trkpt>
      <trkpt lat="42.94824" lon="0.2764">
        <ele>1209.6</ele>
        <time>2021-08-05T09:44:35Z</time>
      </trkpt>
      <trkpt lat="42.94822" lon="0.27646">
        <ele>1209.6</ele>
        <time>2021-08-05T09:44:36Z</time>
      </trkpt>
      <trkpt lat="42.94821" lon="0.27653">
        <ele>1209.6</ele>
        <time>2021-08-05T09:44:37Z</time>
      </trkpt>
      <trkpt lat="42.9482" lon="0.27659">
        <ele>1209.6</ele>
        <time>2021-08-05T09:44:38Z</time>
      </trkpt>
      <trkpt lat="42.94818" lon="0.27663">
        <ele>1209.4</ele>
        <time>2021-08-05T09:44:39Z</time>
      </trkpt>
      <trkpt lat="42.94814" lon="0.27665">
        <ele>1209.4</ele>
        <time>2021-08-05T09:44:40Z</time>
      </trkpt>
      <trkpt lat="42.94811" lon="0.27666">
        <ele>1209.4</ele>
        <time>2021-08-05T09:44:41Z</time>
      </trkpt>
      <trkpt lat="42.94809" lon="0.27669">
        <ele>1209.4</ele>
        <time>2021-08-05T09:44:42Z</time>
      </trkpt>
      <trkpt lat="42.94809" lon="0.27673">
        <ele>1209.4</ele>
        <time>2021-08-05T09:44:43Z</time>
      </trkpt>
      <trkpt lat="42.94808" lon="0.27677">
        <ele>1209.4</ele>
        <time>2021-08-05T09:44:44Z</time>
      </trkpt>
      <trkpt lat="42.94806" lon="0.27682">
        <ele>1209.6</ele>
        <time>2021-08-05T09:44:45Z</time>
      </trkpt>
      <trkpt lat="42.94805" lon="0.27687">
        <ele>1209.8</ele>
        <time>2021-08-05T09:44:46Z</time>
      </trkpt>
      <trkpt lat="42.94801" lon="0.27692">
        <ele>1210</ele>
        <time>2021-08-05T09:44:47Z</time>
      </trkpt>
      <trkpt lat="42.94799" lon="0.27695">
        <ele>1210</ele>
        <time>2021-08-05T09:44:48Z</time>
      </trkpt>
      <trkpt lat="42.94796" lon="0.27697">
        <ele>1210.2</ele>
        <time>2021-08-05T09:44:49Z</time>
      </trkpt>
      <trkpt lat="42.94794" lon="0.27699">
        <ele>1210.4</ele>
        <time>2021-08-05T09:44:50Z</time>
      </trkpt>
      <trkpt lat="42.94793" lon="0.27701">
        <ele>1210.8</ele>
        <time>2021-08-05T09:44:51Z</time>
      </trkpt>
      <trkpt lat="42.94793" lon="0.27705">
        <ele>1211</ele>
        <time>2021-08-05T09:44:52Z</time>
      </trkpt>
      <trkpt lat="42.94793" lon="0.27706">
        <ele>1211.4</ele>
        <time>2021-08-05T09:44:53Z</time>
      </trkpt>
      <trkpt lat="42.94793" lon="0.27706">
        <ele>1211.4</ele>
        <time>2021-08-05T09:44:54Z</time>
      </trkpt>
      <trkpt lat="42.94792" lon="0.27706">
        <ele>1211.8</ele>
        <time>2021-08-05T09:44:55Z</time>
      </trkpt>
      <trkpt lat="42.9479" lon="0.27707">
        <ele>1211.8</ele>
        <time>2021-08-05T09:44:56Z</time>
      </trkpt>
      <trkpt lat="42.94788" lon="0.2771">
        <ele>1212.2</ele>
        <time>2021-08-05T09:44:58Z</time>
      </trkpt>
      <trkpt lat="42.94788" lon="0.2771">
        <ele>1212.2</ele>
        <time>2021-08-05T09:44:59Z</time>
      </trkpt>
      <trkpt lat="42.94787" lon="0.2771">
        <ele>1212.4</ele>
        <time>2021-08-05T09:45:00Z</time>
      </trkpt>
      <trkpt lat="42.94787" lon="0.27711">
        <ele>1212.4</ele>
        <time>2021-08-05T09:45:01Z</time>
      </trkpt>
      <trkpt lat="42.94786" lon="0.27713">
        <ele>1212.6</ele>
        <time>2021-08-05T09:45:02Z</time>
      </trkpt>
      <trkpt lat="42.94785" lon="0.27715">
        <ele>1212.8</ele>
        <time>2021-08-05T09:45:03Z</time>
      </trkpt>
      <trkpt lat="42.94784" lon="0.27717">
        <ele>1213</ele>
        <time>2021-08-05T09:45:04Z</time>
      </trkpt>
      <trkpt lat="42.94783" lon="0.27719">
        <ele>1213.2</ele>
        <time>2021-08-05T09:45:05Z</time>
      </trkpt>
      <trkpt lat="42.94781" lon="0.27721">
        <ele>1213.4</ele>
        <time>2021-08-05T09:45:06Z</time>
      </trkpt>
      <trkpt lat="42.94779" lon="0.27723">
        <ele>1213.6</ele>
        <time>2021-08-05T09:45:07Z</time>
      </trkpt>
      <trkpt lat="42.94778" lon="0.27725">
        <ele>1213.6</ele>
        <time>2021-08-05T09:45:08Z</time>
      </trkpt>
      <trkpt lat="42.94777" lon="0.27728">
        <ele>1213.8</ele>
        <time>2021-08-05T09:45:09Z</time>
      </trkpt>
      <trkpt lat="42.94776" lon="0.2773">
        <ele>1214</ele>
        <time>2021-08-05T09:45:10Z</time>
      </trkpt>
      <trkpt lat="42.94774" lon="0.27733">
        <ele>1214</ele>
        <time>2021-08-05T09:45:11Z</time>
      </trkpt>
      <trkpt lat="42.94773" lon="0.27735">
        <ele>1214.2</ele>
        <time>2021-08-05T09:45:12Z</time>
      </trkpt>
      <trkpt lat="42.94771" lon="0.27737">
        <ele>1214.4</ele>
        <time>2021-08-05T09:45:13Z</time>
      </trkpt>
      <trkpt lat="42.94769" lon="0.27738">
        <ele>1214.4</ele>
        <time>2021-08-05T09:45:14Z</time>
      </trkpt>
      <trkpt lat="42.94767" lon="0.27739">
        <ele>1214.4</ele>
        <time>2021-08-05T09:45:15Z</time>
      </trkpt>
      <trkpt lat="42.94766" lon="0.2774">
        <ele>1214.8</ele>
        <time>2021-08-05T09:45:16Z</time>
      </trkpt>
      <trkpt lat="42.94764" lon="0.27742">
        <ele>1214.8</ele>
        <time>2021-08-05T09:45:17Z</time>
      </trkpt>
      <trkpt lat="42.94764" lon="0.27744">
        <ele>1215</ele>
        <time>2021-08-05T09:45:18Z</time>
      </trkpt>
      <trkpt lat="42.94762" lon="0.27746">
        <ele>1215.2</ele>
        <time>2021-08-05T09:45:19Z</time>
      </trkpt>
      <trkpt lat="42.94761" lon="0.27748">
        <ele>1215.4</ele>
        <time>2021-08-05T09:45:20Z</time>
      </trkpt>
      <trkpt lat="42.94759" lon="0.2775">
        <ele>1215.6</ele>
        <time>2021-08-05T09:45:21Z</time>
      </trkpt>
      <trkpt lat="42.94758" lon="0.27752">
        <ele>1215.8</ele>
        <time>2021-08-05T09:45:22Z</time>
      </trkpt>
      <trkpt lat="42.94758" lon="0.27753">
        <ele>1216.4</ele>
        <time>2021-08-05T09:45:23Z</time>
      </trkpt>
      <trkpt lat="42.94756" lon="0.27755">
        <ele>1216.4</ele>
        <time>2021-08-05T09:45:24Z</time>
      </trkpt>
      <trkpt lat="42.94754" lon="0.27757">
        <ele>1216.8</ele>
        <time>2021-08-05T09:45:25Z</time>
      </trkpt>
      <trkpt lat="42.94751" lon="0.27759">
        <ele>1217</ele>
        <time>2021-08-05T09:45:26Z</time>
      </trkpt>
      <trkpt lat="42.9475" lon="0.27761">
        <ele>1217.2</ele>
        <time>2021-08-05T09:45:27Z</time>
      </trkpt>
      <trkpt lat="42.94748" lon="0.27763">
        <ele>1217.4</ele>
        <time>2021-08-05T09:45:28Z</time>
      </trkpt>
      <trkpt lat="42.94747" lon="0.27766">
        <ele>1217.8</ele>
        <time>2021-08-05T09:45:29Z</time>
      </trkpt>
      <trkpt lat="42.94745" lon="0.27768">
        <ele>1217.8</ele>
        <time>2021-08-05T09:45:30Z</time>
      </trkpt>
      <trkpt lat="42.94742" lon="0.2777">
        <ele>1218</ele>
        <time>2021-08-05T09:45:31Z</time>
      </trkpt>
      <trkpt lat="42.94739" lon="0.27773">
        <ele>1218</ele>
        <time>2021-08-05T09:45:32Z</time>
      </trkpt>
      <trkpt lat="42.94737" lon="0.27775">
        <ele>1218</ele>
        <time>2021-08-05T09:45:33Z</time>
      </trkpt>
      <trkpt lat="42.94735" lon="0.27777">
        <ele>1218</ele>
        <time>2021-08-05T09:45:34Z</time>
      </trkpt>
      <trkpt lat="42.94733" lon="0.27779">
        <ele>1218.2</ele>
        <time>2021-08-05T09:45:35Z</time>
      </trkpt>
      <trkpt lat="42.94731" lon="0.27782">
        <ele>1218.2</ele>
        <time>2021-08-05T09:45:36Z</time>
      </trkpt>
      <trkpt lat="42.9473" lon="0.27784">
        <ele>1218.4</ele>
        <time>2021-08-05T09:45:37Z</time>
      </trkpt>
      <trkpt lat="42.94729" lon="0.27786">
        <ele>1218.4</ele>
        <time>2021-08-05T09:45:38Z</time>
      </trkpt>
      <trkpt lat="42.94728" lon="0.27788">
        <ele>1218.6</ele>
        <time>2021-08-05T09:45:39Z</time>
      </trkpt>
      <trkpt lat="42.94727" lon="0.2779">
        <ele>1218.8</ele>
        <time>2021-08-05T09:45:40Z</time>
      </trkpt>
      <trkpt lat="42.94725" lon="0.27792">
        <ele>1218.8</ele>
        <time>2021-08-05T09:45:41Z</time>
      </trkpt>
      <trkpt lat="42.94723" lon="0.27795">
        <ele>1219</ele>
        <time>2021-08-05T09:45:42Z</time>
      </trkpt>
      <trkpt lat="42.94722" lon="0.27797">
        <ele>1219.2</ele>
        <time>2021-08-05T09:45:43Z</time>
      </trkpt>
      <trkpt lat="42.94719" lon="0.27799">
        <ele>1219.2</ele>
        <time>2021-08-05T09:45:44Z</time>
      </trkpt>
      <trkpt lat="42.94715" lon="0.278">
        <ele>1219.2</ele>
        <time>2021-08-05T09:45:45Z</time>
      </trkpt>
      <trkpt lat="42.94712" lon="0.27803">
        <ele>1219.2</ele>
        <time>2021-08-05T09:45:46Z</time>
      </trkpt>
      <trkpt lat="42.9471" lon="0.27806">
        <ele>1219.4</ele>
        <time>2021-08-05T09:45:47Z</time>
      </trkpt>
      <trkpt lat="42.94707" lon="0.27808">
        <ele>1219.4</ele>
        <time>2021-08-05T09:45:48Z</time>
      </trkpt>
      <trkpt lat="42.94705" lon="0.27811">
        <ele>1219.4</ele>
        <time>2021-08-05T09:45:49Z</time>
      </trkpt>
      <trkpt lat="42.94699" lon="0.27814">
        <ele>1219.2</ele>
        <time>2021-08-05T09:45:50Z</time>
      </trkpt>
      <trkpt lat="42.94695" lon="0.27817">
        <ele>1219.2</ele>
        <time>2021-08-05T09:45:51Z</time>
      </trkpt>
      <trkpt lat="42.94693" lon="0.27819">
        <ele>1218.6</ele>
        <time>2021-08-05T09:45:52Z</time>
      </trkpt>
      <trkpt lat="42.9469" lon="0.27821">
        <ele>1218</ele>
        <time>2021-08-05T09:45:53Z</time>
      </trkpt>
      <trkpt lat="42.94686" lon="0.27822">
        <ele>1217.8</ele>
        <time>2021-08-05T09:45:54Z</time>
      </trkpt>
      <trkpt lat="42.94679" lon="0.27826">
        <ele>1217.2</ele>
        <time>2021-08-05T09:45:56Z</time>
      </trkpt>
      <trkpt lat="42.94676" lon="0.27826">
        <ele>1216.6</ele>
        <time>2021-08-05T09:45:57Z</time>
      </trkpt>
      <trkpt lat="42.94672" lon="0.27828">
        <ele>1216.2</ele>
        <time>2021-08-05T09:45:58Z</time>
      </trkpt>
      <trkpt lat="42.94661" lon="0.27833">
        <ele>1215.4</ele>
        <time>2021-08-05T09:46:00Z</time>
      </trkpt>
      <trkpt lat="42.94638" lon="0.27843">
        <ele>1214.4</ele>
        <time>2021-08-05T09:46:04Z</time>
      </trkpt>
      <trkpt lat="42.94614" lon="0.27852">
        <ele>1213</ele>
        <time>2021-08-05T09:46:07Z</time>
      </trkpt>
      <trkpt lat="42.94606" lon="0.27857">
        <ele>1212.6</ele>
        <time>2021-08-05T09:46:08Z</time>
      </trkpt>
      <trkpt lat="42.94598" lon="0.27862">
        <ele>1211.2</ele>
        <time>2021-08-05T09:46:09Z</time>
      </trkpt>
      <trkpt lat="42.94591" lon="0.27867">
        <ele>1210</ele>
        <time>2021-08-05T09:46:10Z</time>
      </trkpt>
      <trkpt lat="42.94583" lon="0.27878">
        <ele>1208</ele>
        <time>2021-08-05T09:46:12Z</time>
      </trkpt>
      <trkpt lat="42.94579" lon="0.27883">
        <ele>1207.2</ele>
        <time>2021-08-05T09:46:13Z</time>
      </trkpt>
      <trkpt lat="42.94577" lon="0.27888">
        <ele>1205.8</ele>
        <time>2021-08-05T09:46:14Z</time>
      </trkpt>
      <trkpt lat="42.94576" lon="0.27894">
        <ele>1205.2</ele>
        <time>2021-08-05T09:46:15Z</time>
      </trkpt>
      <trkpt lat="42.94574" lon="0.27901">
        <ele>1203.6</ele>
        <time>2021-08-05T09:46:16Z</time>
      </trkpt>
      <trkpt lat="42.94575" lon="0.27909">
        <ele>1203.2</ele>
        <time>2021-08-05T09:46:17Z</time>
      </trkpt>
      <trkpt lat="42.94577" lon="0.27914">
        <ele>1202</ele>
        <time>2021-08-05T09:46:18Z</time>
      </trkpt>
      <trkpt lat="42.94584" lon="0.27922">
        <ele>1200.6</ele>
        <time>2021-08-05T09:46:20Z</time>
      </trkpt>
      <trkpt lat="42.94589" lon="0.27929">
        <ele>1200.4</ele>
        <time>2021-08-05T09:46:21Z</time>
      </trkpt>
      <trkpt lat="42.94594" lon="0.27938">
        <ele>1199.8</ele>
        <time>2021-08-05T09:46:22Z</time>
      </trkpt>
      <trkpt lat="42.94604" lon="0.27953">
        <ele>1199.2</ele>
        <time>2021-08-05T09:46:24Z</time>
      </trkpt>
      <trkpt lat="42.94608" lon="0.27962">
        <ele>1199</ele>
        <time>2021-08-05T09:46:25Z</time>
      </trkpt>
      <trkpt lat="42.94611" lon="0.2797">
        <ele>1197.8</ele>
        <time>2021-08-05T09:46:26Z</time>
      </trkpt>
      <trkpt lat="42.94614" lon="0.27979">
        <ele>1196.2</ele>
        <time>2021-08-05T09:46:27Z</time>
      </trkpt>
      <trkpt lat="42.94617" lon="0.2799">
        <ele>1195.4</ele>
        <time>2021-08-05T09:46:28Z</time>
      </trkpt>
      <trkpt lat="42.94621" lon="0.28">
        <ele>1193.8</ele>
        <time>2021-08-05T09:46:29Z</time>
      </trkpt>
      <trkpt lat="42.94632" lon="0.28014">
        <ele>1192.2</ele>
        <time>2021-08-05T09:46:31Z</time>
      </trkpt>
      <trkpt lat="42.94637" lon="0.28021">
        <ele>1191.4</ele>
        <time>2021-08-05T09:46:32Z</time>
      </trkpt>
      <trkpt lat="42.94642" lon="0.28028">
        <ele>1189.4</ele>
        <time>2021-08-05T09:46:33Z</time>
      </trkpt>
      <trkpt lat="42.94653" lon="0.28045">
        <ele>1188</ele>
        <time>2021-08-05T09:46:35Z</time>
      </trkpt>
      <trkpt lat="42.94657" lon="0.28053">
        <ele>1187.4</ele>
        <time>2021-08-05T09:46:36Z</time>
      </trkpt>
      <trkpt lat="42.94662" lon="0.28058">
        <ele>1186.6</ele>
        <time>2021-08-05T09:46:37Z</time>
      </trkpt>
      <trkpt lat="42.94666" lon="0.28062">
        <ele>1186</ele>
        <time>2021-08-05T09:46:38Z</time>
      </trkpt>
      <trkpt lat="42.94666" lon="0.28067">
        <ele>1185</ele>
        <time>2021-08-05T09:46:39Z</time>
      </trkpt>
      <trkpt lat="42.94667" lon="0.28071">
        <ele>1184</ele>
        <time>2021-08-05T09:46:40Z</time>
      </trkpt>
      <trkpt lat="42.94668" lon="0.28073">
        <ele>1183</ele>
        <time>2021-08-05T09:46:41Z</time>
      </trkpt>
      <trkpt lat="42.9467" lon="0.28073">
        <ele>1182.4</ele>
        <time>2021-08-05T09:46:42Z</time>
      </trkpt>
      <trkpt lat="42.94671" lon="0.28074">
        <ele>1181.8</ele>
        <time>2021-08-05T09:46:43Z</time>
      </trkpt>
      <trkpt lat="42.94672" lon="0.28076">
        <ele>1181.2</ele>
        <time>2021-08-05T09:46:44Z</time>
      </trkpt>
      <trkpt lat="42.94672" lon="0.28078">
        <ele>1181</ele>
        <time>2021-08-05T09:46:45Z</time>
      </trkpt>
      <trkpt lat="42.94671" lon="0.2808">
        <ele>1180.8</ele>
        <time>2021-08-05T09:46:46Z</time>
      </trkpt>
      <trkpt lat="42.94669" lon="0.2808">
        <ele>1180.6</ele>
        <time>2021-08-05T09:46:47Z</time>
      </trkpt>
      <trkpt lat="42.94662" lon="0.28084">
        <ele>1180.4</ele>
        <time>2021-08-05T09:46:50Z</time>
      </trkpt>
      <trkpt lat="42.94661" lon="0.28086">
        <ele>1180.4</ele>
        <time>2021-08-05T09:46:51Z</time>
      </trkpt>
      <trkpt lat="42.94659" lon="0.28088">
        <ele>1180.4</ele>
        <time>2021-08-05T09:46:52Z</time>
      </trkpt>
      <trkpt lat="42.94657" lon="0.28089">
        <ele>1180.4</ele>
        <time>2021-08-05T09:46:53Z</time>
      </trkpt>
      <trkpt lat="42.94649" lon="0.28093">
        <ele>1180.6</ele>
        <time>2021-08-05T09:46:56Z</time>
      </trkpt>
      <trkpt lat="42.94647" lon="0.28095">
        <ele>1180.8</ele>
        <time>2021-08-05T09:46:57Z</time>
      </trkpt>
      <trkpt lat="42.94647" lon="0.28095">
        <ele>1181</ele>
        <time>2021-08-05T09:46:58Z</time>
      </trkpt>
      <trkpt lat="42.94646" lon="0.28096">
        <ele>1181.2</ele>
        <time>2021-08-05T09:46:59Z</time>
      </trkpt>
      <trkpt lat="42.94646" lon="0.28097">
        <ele>1181.4</ele>
        <time>2021-08-05T09:47:00Z</time>
      </trkpt>
      <trkpt lat="42.94645" lon="0.28097">
        <ele>1181.8</ele>
        <time>2021-08-05T09:47:01Z</time>
      </trkpt>
      <trkpt lat="42.94643" lon="0.28098">
        <ele>1181.8</ele>
        <time>2021-08-05T09:47:02Z</time>
      </trkpt>
      <trkpt lat="42.94643" lon="0.28099">
        <ele>1182.2</ele>
        <time>2021-08-05T09:47:03Z</time>
      </trkpt>
      <trkpt lat="42.94643" lon="0.28099">
        <ele>1182.2</ele>
        <time>2021-08-05T09:47:04Z</time>
      </trkpt>
      <trkpt lat="42.94638" lon="0.28103">
        <ele>1182.4</ele>
        <time>2021-08-05T09:47:05Z</time>
      </trkpt>
      <trkpt lat="42.94633" lon="0.28106">
        <ele>1182.4</ele>
        <time>2021-08-05T09:47:06Z</time>
      </trkpt>
      <trkpt lat="42.94629" lon="0.28107">
        <ele>1182.4</ele>
        <time>2021-08-05T09:47:07Z</time>
      </trkpt>
      <trkpt lat="42.94625" lon="0.28111">
        <ele>1182.4</ele>
        <time>2021-08-05T09:47:08Z</time>
      </trkpt>
      <trkpt lat="42.94618" lon="0.28119">
        <ele>1182.4</ele>
        <time>2021-08-05T09:47:10Z</time>
      </trkpt>
      <trkpt lat="42.94609" lon="0.28125">
        <ele>1182.4</ele>
        <time>2021-08-05T09:47:12Z</time>
      </trkpt>
      <trkpt lat="42.94603" lon="0.28128">
        <ele>1182.2</ele>
        <time>2021-08-05T09:47:13Z</time>
      </trkpt>
      <trkpt lat="42.94578" lon="0.28141">
        <ele>1181.8</ele>
        <time>2021-08-05T09:47:16Z</time>
      </trkpt>
      <trkpt lat="42.94558" lon="0.28155">
        <ele>1180.8</ele>
        <time>2021-08-05T09:47:19Z</time>
      </trkpt>
      <trkpt lat="42.94553" lon="0.28161">
        <ele>1180</ele>
        <time>2021-08-05T09:47:20Z</time>
      </trkpt>
      <trkpt lat="42.94549" lon="0.28165">
        <ele>1179.8</ele>
        <time>2021-08-05T09:47:21Z</time>
      </trkpt>
      <trkpt lat="42.94546" lon="0.2817">
        <ele>1179</ele>
        <time>2021-08-05T09:47:22Z</time>
      </trkpt>
      <trkpt lat="42.94543" lon="0.28172">
        <ele>1178.8</ele>
        <time>2021-08-05T09:47:23Z</time>
      </trkpt>
      <trkpt lat="42.9454" lon="0.28175">
        <ele>1178.2</ele>
        <time>2021-08-05T09:47:24Z</time>
      </trkpt>
      <trkpt lat="42.94538" lon="0.28176">
        <ele>1178</ele>
        <time>2021-08-05T09:47:25Z</time>
      </trkpt>
      <trkpt lat="42.94536" lon="0.28178">
        <ele>1177.6</ele>
        <time>2021-08-05T09:47:26Z</time>
      </trkpt>
      <trkpt lat="42.94532" lon="0.28181">
        <ele>1178</ele>
        <time>2021-08-05T09:47:28Z</time>
      </trkpt>
      <trkpt lat="42.9453" lon="0.28183">
        <ele>1178</ele>
        <time>2021-08-05T09:47:29Z</time>
      </trkpt>
      <trkpt lat="42.94528" lon="0.28184">
        <ele>1178</ele>
        <time>2021-08-05T09:47:30Z</time>
      </trkpt>
      <trkpt lat="42.94527" lon="0.28187">
        <ele>1178</ele>
        <time>2021-08-05T09:47:31Z</time>
      </trkpt>
      <trkpt lat="42.94525" lon="0.28189">
        <ele>1178</ele>
        <time>2021-08-05T09:47:32Z</time>
      </trkpt>
      <trkpt lat="42.94522" lon="0.28192">
        <ele>1178.2</ele>
        <time>2021-08-05T09:47:33Z</time>
      </trkpt>
      <trkpt lat="42.94518" lon="0.28197">
        <ele>1178.6</ele>
        <time>2021-08-05T09:47:35Z</time>
      </trkpt>
      <trkpt lat="42.94517" lon="0.28201">
        <ele>1178.8</ele>
        <time>2021-08-05T09:47:36Z</time>
      </trkpt>
      <trkpt lat="42.94516" lon="0.28205">
        <ele>1179.2</ele>
        <time>2021-08-05T09:47:37Z</time>
      </trkpt>
      <trkpt lat="42.94514" lon="0.28207">
        <ele>1179.2</ele>
        <time>2021-08-05T09:47:38Z</time>
      </trkpt>
      <trkpt lat="42.94508" lon="0.28216">
        <ele>1179.2</ele>
        <time>2021-08-05T09:47:41Z</time>
      </trkpt>
      <trkpt lat="42.94504" lon="0.28221">
        <ele>1179.6</ele>
        <time>2021-08-05T09:47:43Z</time>
      </trkpt>
      <trkpt lat="42.94498" lon="0.28231">
        <ele>1179.8</ele>
        <time>2021-08-05T09:47:46Z</time>
      </trkpt>
      <trkpt lat="42.94494" lon="0.28245">
        <ele>1179.8</ele>
        <time>2021-08-05T09:47:50Z</time>
      </trkpt>
      <trkpt lat="42.94493" lon="0.28247">
        <ele>1180</ele>
        <time>2021-08-05T09:47:51Z</time>
      </trkpt>
      <trkpt lat="42.94491" lon="0.28249">
        <ele>1180.2</ele>
        <time>2021-08-05T09:47:52Z</time>
      </trkpt>
      <trkpt lat="42.9449" lon="0.28251">
        <ele>1180.2</ele>
        <time>2021-08-05T09:47:53Z</time>
      </trkpt>
      <trkpt lat="42.94489" lon="0.28253">
        <ele>1180.4</ele>
        <time>2021-08-05T09:47:54Z</time>
      </trkpt>
      <trkpt lat="42.94488" lon="0.28256">
        <ele>1180.8</ele>
        <time>2021-08-05T09:47:55Z</time>
      </trkpt>
      <trkpt lat="42.94488" lon="0.28257">
        <ele>1181</ele>
        <time>2021-08-05T09:47:56Z</time>
      </trkpt>
      <trkpt lat="42.94487" lon="0.28261">
        <ele>1181</ele>
        <time>2021-08-05T09:47:57Z</time>
      </trkpt>
      <trkpt lat="42.94486" lon="0.28264">
        <ele>1181.6</ele>
        <time>2021-08-05T09:47:58Z</time>
      </trkpt>
      <trkpt lat="42.9448" lon="0.28277">
        <ele>1182.6</ele>
        <time>2021-08-05T09:48:02Z</time>
      </trkpt>
      <trkpt lat="42.94479" lon="0.28279">
        <ele>1182.6</ele>
        <time>2021-08-05T09:48:03Z</time>
      </trkpt>
      <trkpt lat="42.94477" lon="0.28282">
        <ele>1182.8</ele>
        <time>2021-08-05T09:48:04Z</time>
      </trkpt>
      <trkpt lat="42.94476" lon="0.28284">
        <ele>1182.8</ele>
        <time>2021-08-05T09:48:05Z</time>
      </trkpt>
      <trkpt lat="42.94476" lon="0.28284">
        <ele>1183</ele>
        <time>2021-08-05T09:48:06Z</time>
      </trkpt>
      <trkpt lat="42.94476" lon="0.28284">
        <ele>1183</ele>
        <time>2021-08-05T09:48:08Z</time>
      </trkpt>
      <trkpt lat="42.94476" lon="0.28284">
        <ele>1182.8</ele>
        <time>2021-08-05T09:48:17Z</time>
      </trkpt>
      <trkpt lat="42.94475" lon="0.28285">
        <ele>1182.8</ele>
        <time>2021-08-05T09:48:31Z</time>
      </trkpt>
      <trkpt lat="42.94473" lon="0.28289">
        <ele>1182.8</ele>
        <time>2021-08-05T09:48:32Z</time>
      </trkpt>
      <trkpt lat="42.94471" lon="0.28293">
        <ele>1182.6</ele>
        <time>2021-08-05T09:48:33Z</time>
      </trkpt>
      <trkpt lat="42.94467" lon="0.28299">
        <ele>1182.4</ele>
        <time>2021-08-05T09:48:34Z</time>
      </trkpt>
      <trkpt lat="42.94462" lon="0.28306">
        <ele>1182.4</ele>
        <time>2021-08-05T09:48:35Z</time>
      </trkpt>
      <trkpt lat="42.94453" lon="0.28319">
        <ele>1181.4</ele>
        <time>2021-08-05T09:48:37Z</time>
      </trkpt>
      <trkpt lat="42.94441" lon="0.28333">
        <ele>1180.4</ele>
        <time>2021-08-05T09:48:39Z</time>
      </trkpt>
      <trkpt lat="42.94435" lon="0.2834">
        <ele>1179.6</ele>
        <time>2021-08-05T09:48:40Z</time>
      </trkpt>
      <trkpt lat="42.9443" lon="0.28349">
        <ele>1179.4</ele>
        <time>2021-08-05T09:48:41Z</time>
      </trkpt>
      <trkpt lat="42.94426" lon="0.28358">
        <ele>1178.4</ele>
        <time>2021-08-05T09:48:42Z</time>
      </trkpt>
      <trkpt lat="42.9442" lon="0.28376">
        <ele>1177.2</ele>
        <time>2021-08-05T09:48:44Z</time>
      </trkpt>
      <trkpt lat="42.94419" lon="0.28385">
        <ele>1176.6</ele>
        <time>2021-08-05T09:48:45Z</time>
      </trkpt>
      <trkpt lat="42.94418" lon="0.28395">
        <ele>1176</ele>
        <time>2021-08-05T09:48:46Z</time>
      </trkpt>
      <trkpt lat="42.94415" lon="0.28407">
        <ele>1174.8</ele>
        <time>2021-08-05T09:48:47Z</time>
      </trkpt>
      <trkpt lat="42.94415" lon="0.28418">
        <ele>1174.4</ele>
        <time>2021-08-05T09:48:48Z</time>
      </trkpt>
      <trkpt lat="42.94416" lon="0.28428">
        <ele>1173.4</ele>
        <time>2021-08-05T09:48:49Z</time>
      </trkpt>
      <trkpt lat="42.94419" lon="0.28439">
        <ele>1172.6</ele>
        <time>2021-08-05T09:48:50Z</time>
      </trkpt>
      <trkpt lat="42.94422" lon="0.2845">
        <ele>1170.8</ele>
        <time>2021-08-05T09:48:51Z</time>
      </trkpt>
      <trkpt lat="42.94425" lon="0.28462">
        <ele>1170</ele>
        <time>2021-08-05T09:48:52Z</time>
      </trkpt>
      <trkpt lat="42.94428" lon="0.28476">
        <ele>1169.2</ele>
        <time>2021-08-05T09:48:53Z</time>
      </trkpt>
      <trkpt lat="42.9443" lon="0.2849">
        <ele>1169</ele>
        <time>2021-08-05T09:48:54Z</time>
      </trkpt>
      <trkpt lat="42.94433" lon="0.28502">
        <ele>1168.2</ele>
        <time>2021-08-05T09:48:55Z</time>
      </trkpt>
      <trkpt lat="42.94435" lon="0.28514">
        <ele>1167.4</ele>
        <time>2021-08-05T09:48:56Z</time>
      </trkpt>
      <trkpt lat="42.94438" lon="0.28524">
        <ele>1166.2</ele>
        <time>2021-08-05T09:48:57Z</time>
      </trkpt>
      <trkpt lat="42.94439" lon="0.28533">
        <ele>1165.6</ele>
        <time>2021-08-05T09:48:58Z</time>
      </trkpt>
      <trkpt lat="42.94441" lon="0.28541">
        <ele>1164.6</ele>
        <time>2021-08-05T09:48:59Z</time>
      </trkpt>
      <trkpt lat="42.94441" lon="0.28546">
        <ele>1164</ele>
        <time>2021-08-05T09:49:00Z</time>
      </trkpt>
      <trkpt lat="42.94444" lon="0.2855">
        <ele>1162.8</ele>
        <time>2021-08-05T09:49:01Z</time>
      </trkpt>
      <trkpt lat="42.94446" lon="0.28554">
        <ele>1161.8</ele>
        <time>2021-08-05T09:49:02Z</time>
      </trkpt>
      <trkpt lat="42.94449" lon="0.28557">
        <ele>1160.8</ele>
        <time>2021-08-05T09:49:03Z</time>
      </trkpt>
      <trkpt lat="42.94452" lon="0.28561">
        <ele>1159.4</ele>
        <time>2021-08-05T09:49:04Z</time>
      </trkpt>
      <trkpt lat="42.94456" lon="0.28566">
        <ele>1159</ele>
        <time>2021-08-05T09:49:05Z</time>
      </trkpt>
      <trkpt lat="42.94461" lon="0.28572">
        <ele>1157.8</ele>
        <time>2021-08-05T09:49:06Z</time>
      </trkpt>
      <trkpt lat="42.94471" lon="0.28587">
        <ele>1156</ele>
        <time>2021-08-05T09:49:08Z</time>
      </trkpt>
      <trkpt lat="42.94476" lon="0.28591">
        <ele>1155.8</ele>
        <time>2021-08-05T09:49:09Z</time>
      </trkpt>
      <trkpt lat="42.94482" lon="0.28594">
        <ele>1155.2</ele>
        <time>2021-08-05T09:49:10Z</time>
      </trkpt>
      <trkpt lat="42.94489" lon="0.28596">
        <ele>1154.6</ele>
        <time>2021-08-05T09:49:11Z</time>
      </trkpt>
      <trkpt lat="42.94504" lon="0.28604">
        <ele>1153.6</ele>
        <time>2021-08-05T09:49:13Z</time>
      </trkpt>
      <trkpt lat="42.9451" lon="0.28607">
        <ele>1152.6</ele>
        <time>2021-08-05T09:49:14Z</time>
      </trkpt>
      <trkpt lat="42.9452" lon="0.28614">
        <ele>1150.6</ele>
        <time>2021-08-05T09:49:16Z</time>
      </trkpt>
      <trkpt lat="42.94524" lon="0.28616">
        <ele>1150</ele>
        <time>2021-08-05T09:49:17Z</time>
      </trkpt>
      <trkpt lat="42.9453" lon="0.28619">
        <ele>1148.8</ele>
        <time>2021-08-05T09:49:18Z</time>
      </trkpt>
      <trkpt lat="42.94535" lon="0.28622">
        <ele>1146.8</ele>
        <time>2021-08-05T09:49:19Z</time>
      </trkpt>
      <trkpt lat="42.94545" lon="0.28624">
        <ele>1145.2</ele>
        <time>2021-08-05T09:49:21Z</time>
      </trkpt>
      <trkpt lat="42.94552" lon="0.28625">
        <ele>1145</ele>
        <time>2021-08-05T09:49:22Z</time>
      </trkpt>
      <trkpt lat="42.94563" lon="0.28626">
        <ele>1144</ele>
        <time>2021-08-05T09:49:23Z</time>
      </trkpt>
      <trkpt lat="42.94574" lon="0.28626">
        <ele>1143.8</ele>
        <time>2021-08-05T09:49:24Z</time>
      </trkpt>
      <trkpt lat="42.94582" lon="0.28628">
        <ele>1142.6</ele>
        <time>2021-08-05T09:49:25Z</time>
      </trkpt>
      <trkpt lat="42.94587" lon="0.28625">
        <ele>1142</ele>
        <time>2021-08-05T09:49:26Z</time>
      </trkpt>
      <trkpt lat="42.94588" lon="0.28625">
        <ele>1140.6</ele>
        <time>2021-08-05T09:49:27Z</time>
      </trkpt>
      <trkpt lat="42.94588" lon="0.28627">
        <ele>1140</ele>
        <time>2021-08-05T09:49:28Z</time>
      </trkpt>
      <trkpt lat="42.94588" lon="0.28629">
        <ele>1138.8</ele>
        <time>2021-08-05T09:49:29Z</time>
      </trkpt>
      <trkpt lat="42.94588" lon="0.28636">
        <ele>1137.6</ele>
        <time>2021-08-05T09:49:31Z</time>
      </trkpt>
      <trkpt lat="42.94587" lon="0.28644">
        <ele>1135.6</ele>
        <time>2021-08-05T09:49:33Z</time>
      </trkpt>
      <trkpt lat="42.94588" lon="0.28646">
        <ele>1135.2</ele>
        <time>2021-08-05T09:49:34Z</time>
      </trkpt>
      <trkpt lat="42.94588" lon="0.28648">
        <ele>1134.4</ele>
        <time>2021-08-05T09:49:35Z</time>
      </trkpt>
      <trkpt lat="42.94588" lon="0.28649">
        <ele>1133.8</ele>
        <time>2021-08-05T09:49:36Z</time>
      </trkpt>
      <trkpt lat="42.94588" lon="0.28649">
        <ele>1133.8</ele>
        <time>2021-08-05T09:49:37Z</time>
      </trkpt>
      <trkpt lat="42.94588" lon="0.28649">
        <ele>1133.4</ele>
        <time>2021-08-05T09:49:38Z</time>
      </trkpt>
      <trkpt lat="42.94588" lon="0.28649">
        <ele>1133.2</ele>
        <time>2021-08-05T09:49:39Z</time>
      </trkpt>
      <trkpt lat="42.94588" lon="0.28649">
        <ele>1132.4</ele>
        <time>2021-08-05T09:49:51Z</time>
      </trkpt>
      <trkpt lat="42.94588" lon="0.28649">
        <ele>1132.4</ele>
        <time>2021-08-05T09:49:58Z</time>
      </trkpt>
      <trkpt lat="42.94588" lon="0.28649">
        <ele>1132.4</ele>
        <time>2021-08-05T09:50:12Z</time>
      </trkpt>
      <trkpt lat="42.94588" lon="0.28649">
        <ele>1132</ele>
        <time>2021-08-05T09:50:33Z</time>
      </trkpt>
      <trkpt lat="42.94588" lon="0.28649">
        <ele>1132.2</ele>
        <time>2021-08-05T09:50:53Z</time>
      </trkpt>
      <trkpt lat="42.94588" lon="0.28649">
        <ele>1132.2</ele>
        <time>2021-08-05T09:51:14Z</time>
      </trkpt>
      <trkpt lat="42.94587" lon="0.28649">
        <ele>1132.2</ele>
        <time>2021-08-05T09:51:18Z</time>
      </trkpt>
      <trkpt lat="42.94579" lon="0.28658">
        <ele>1132.2</ele>
        <time>2021-08-05T09:51:20Z</time>
      </trkpt>
      <trkpt lat="42.94575" lon="0.28663">
        <ele>1132</ele>
        <time>2021-08-05T09:51:21Z</time>
      </trkpt>
      <trkpt lat="42.94571" lon="0.28669">
        <ele>1132</ele>
        <time>2021-08-05T09:51:22Z</time>
      </trkpt>
      <trkpt lat="42.94561" lon="0.28683">
        <ele>1132</ele>
        <time>2021-08-05T09:51:24Z</time>
      </trkpt>
      <trkpt lat="42.94553" lon="0.28693">
        <ele>1131.2</ele>
        <time>2021-08-05T09:51:26Z</time>
      </trkpt>
      <trkpt lat="42.94549" lon="0.28698">
        <ele>1130.8</ele>
        <time>2021-08-05T09:51:27Z</time>
      </trkpt>
      <trkpt lat="42.94546" lon="0.28701">
        <ele>1130.4</ele>
        <time>2021-08-05T09:51:28Z</time>
      </trkpt>
      <trkpt lat="42.94542" lon="0.28704">
        <ele>1130</ele>
        <time>2021-08-05T09:51:29Z</time>
      </trkpt>
      <trkpt lat="42.9454" lon="0.28708">
        <ele>1129</ele>
        <time>2021-08-05T09:51:30Z</time>
      </trkpt>
      <trkpt lat="42.94534" lon="0.28717">
        <ele>1128.2</ele>
        <time>2021-08-05T09:51:32Z</time>
      </trkpt>
      <trkpt lat="42.94531" lon="0.28722">
        <ele>1127</ele>
        <time>2021-08-05T09:51:33Z</time>
      </trkpt>
      <trkpt lat="42.94528" lon="0.28727">
        <ele>1126.6</ele>
        <time>2021-08-05T09:51:34Z</time>
      </trkpt>
      <trkpt lat="42.94527" lon="0.28733">
        <ele>1125.8</ele>
        <time>2021-08-05T09:51:35Z</time>
      </trkpt>
      <trkpt lat="42.94527" lon="0.28738">
        <ele>1125.6</ele>
        <time>2021-08-05T09:51:36Z</time>
      </trkpt>
      <trkpt lat="42.94527" lon="0.28743">
        <ele>1125.2</ele>
        <time>2021-08-05T09:51:37Z</time>
      </trkpt>
      <trkpt lat="42.94529" lon="0.2875">
        <ele>1124.8</ele>
        <time>2021-08-05T09:51:38Z</time>
      </trkpt>
      <trkpt lat="42.94532" lon="0.28756">
        <ele>1124</ele>
        <time>2021-08-05T09:51:39Z</time>
      </trkpt>
      <trkpt lat="42.94535" lon="0.28763">
        <ele>1123.8</ele>
        <time>2021-08-05T09:51:40Z</time>
      </trkpt>
      <trkpt lat="42.94538" lon="0.2877">
        <ele>1123.4</ele>
        <time>2021-08-05T09:51:41Z</time>
      </trkpt>
      <trkpt lat="42.9454" lon="0.28786">
        <ele>1123</ele>
        <time>2021-08-05T09:51:43Z</time>
      </trkpt>
      <trkpt lat="42.94539" lon="0.28793">
        <ele>1122.8</ele>
        <time>2021-08-05T09:51:44Z</time>
      </trkpt>
      <trkpt lat="42.94537" lon="0.28798">
        <ele>1121.6</ele>
        <time>2021-08-05T09:51:45Z</time>
      </trkpt>
      <trkpt lat="42.94534" lon="0.28803">
        <ele>1120.8</ele>
        <time>2021-08-05T09:51:46Z</time>
      </trkpt>
      <trkpt lat="42.9453" lon="0.28806">
        <ele>1120.2</ele>
        <time>2021-08-05T09:51:47Z</time>
      </trkpt>
      <trkpt lat="42.94521" lon="0.28811">
        <ele>1119.4</ele>
        <time>2021-08-05T09:51:49Z</time>
      </trkpt>
      <trkpt lat="42.94515" lon="0.28813">
        <ele>1118.8</ele>
        <time>2021-08-05T09:51:50Z</time>
      </trkpt>
      <trkpt lat="42.94503" lon="0.28818">
        <ele>1117.8</ele>
        <time>2021-08-05T09:51:52Z</time>
      </trkpt>
      <trkpt lat="42.9449" lon="0.2882">
        <ele>1115.8</ele>
        <time>2021-08-05T09:51:54Z</time>
      </trkpt>
      <trkpt lat="42.94477" lon="0.28818">
        <ele>1114.6</ele>
        <time>2021-08-05T09:51:56Z</time>
      </trkpt>
      <trkpt lat="42.94465" lon="0.28813">
        <ele>1113</ele>
        <time>2021-08-05T09:51:58Z</time>
      </trkpt>
      <trkpt lat="42.94453" lon="0.28806">
        <ele>1111.8</ele>
        <time>2021-08-05T09:52:00Z</time>
      </trkpt>
      <trkpt lat="42.94437" lon="0.28793">
        <ele>1110.8</ele>
        <time>2021-08-05T09:52:03Z</time>
      </trkpt>
      <trkpt lat="42.94432" lon="0.28787">
        <ele>1110.8</ele>
        <time>2021-08-05T09:52:04Z</time>
      </trkpt>
      <trkpt lat="42.9442" lon="0.28766">
        <ele>1110.2</ele>
        <time>2021-08-05T09:52:07Z</time>
      </trkpt>
      <trkpt lat="42.94412" lon="0.28752">
        <ele>1109.8</ele>
        <time>2021-08-05T09:52:09Z</time>
      </trkpt>
      <trkpt lat="42.944" lon="0.28732">
        <ele>1108.8</ele>
        <time>2021-08-05T09:52:12Z</time>
      </trkpt>
      <trkpt lat="42.94388" lon="0.28712">
        <ele>1107.6</ele>
        <time>2021-08-05T09:52:15Z</time>
      </trkpt>
      <trkpt lat="42.94358" lon="0.28665">
        <ele>1106.4</ele>
        <time>2021-08-05T09:52:22Z</time>
      </trkpt>
      <trkpt lat="42.94354" lon="0.28658">
        <ele>1106.2</ele>
        <time>2021-08-05T09:52:23Z</time>
      </trkpt>
      <trkpt lat="42.94349" lon="0.28651">
        <ele>1105.8</ele>
        <time>2021-08-05T09:52:24Z</time>
      </trkpt>
      <trkpt lat="42.9434" lon="0.28637">
        <ele>1105.6</ele>
        <time>2021-08-05T09:52:26Z</time>
      </trkpt>
      <trkpt lat="42.94335" lon="0.28631">
        <ele>1105.6</ele>
        <time>2021-08-05T09:52:27Z</time>
      </trkpt>
      <trkpt lat="42.9433" lon="0.28625">
        <ele>1105.2</ele>
        <time>2021-08-05T09:52:28Z</time>
      </trkpt>
      <trkpt lat="42.94325" lon="0.28618">
        <ele>1105.2</ele>
        <time>2021-08-05T09:52:29Z</time>
      </trkpt>
      <trkpt lat="42.94321" lon="0.28611">
        <ele>1105</ele>
        <time>2021-08-05T09:52:30Z</time>
      </trkpt>
      <trkpt lat="42.94314" lon="0.28595">
        <ele>1104.4</ele>
        <time>2021-08-05T09:52:32Z</time>
      </trkpt>
      <trkpt lat="42.94307" lon="0.2858">
        <ele>1103.8</ele>
        <time>2021-08-05T09:52:34Z</time>
      </trkpt>
      <trkpt lat="42.94299" lon="0.28566">
        <ele>1103.4</ele>
        <time>2021-08-05T09:52:36Z</time>
      </trkpt>
      <trkpt lat="42.94297" lon="0.2856">
        <ele>1103</ele>
        <time>2021-08-05T09:52:37Z</time>
      </trkpt>
      <trkpt lat="42.94294" lon="0.28554">
        <ele>1102.8</ele>
        <time>2021-08-05T09:52:38Z</time>
      </trkpt>
      <trkpt lat="42.94292" lon="0.28549">
        <ele>1102.6</ele>
        <time>2021-08-05T09:52:39Z</time>
      </trkpt>
      <trkpt lat="42.9429" lon="0.28544">
        <ele>1102.4</ele>
        <time>2021-08-05T09:52:40Z</time>
      </trkpt>
      <trkpt lat="42.94288" lon="0.28538">
        <ele>1102.2</ele>
        <time>2021-08-05T09:52:41Z</time>
      </trkpt>
      <trkpt lat="42.94285" lon="0.28526">
        <ele>1102</ele>
        <time>2021-08-05T09:52:43Z</time>
      </trkpt>
      <trkpt lat="42.94283" lon="0.2852">
        <ele>1101.8</ele>
        <time>2021-08-05T09:52:44Z</time>
      </trkpt>
      <trkpt lat="42.94281" lon="0.28516">
        <ele>1101.8</ele>
        <time>2021-08-05T09:52:45Z</time>
      </trkpt>
      <trkpt lat="42.94278" lon="0.28513">
        <ele>1101.6</ele>
        <time>2021-08-05T09:52:46Z</time>
      </trkpt>
      <trkpt lat="42.94276" lon="0.28512">
        <ele>1101.4</ele>
        <time>2021-08-05T09:52:47Z</time>
      </trkpt>
      <trkpt lat="42.94274" lon="0.28512">
        <ele>1101.2</ele>
        <time>2021-08-05T09:52:48Z</time>
      </trkpt>
      <trkpt lat="42.94273" lon="0.28513">
        <ele>1101</ele>
        <time>2021-08-05T09:52:49Z</time>
      </trkpt>
      <trkpt lat="42.94272" lon="0.28513">
        <ele>1100.8</ele>
        <time>2021-08-05T09:52:50Z</time>
      </trkpt>
      <trkpt lat="42.94271" lon="0.28513">
        <ele>1100.6</ele>
        <time>2021-08-05T09:52:53Z</time>
      </trkpt>
      <trkpt lat="42.94271" lon="0.28513">
        <ele>1100</ele>
        <time>2021-08-05T09:53:04Z</time>
      </trkpt>
      <trkpt lat="42.94271" lon="0.28513">
        <ele>1100</ele>
        <time>2021-08-05T09:53:09Z</time>
      </trkpt>
      <trkpt lat="42.94271" lon="0.28513">
        <ele>1099.4</ele>
        <time>2021-08-05T09:53:50Z</time>
      </trkpt>
      <trkpt lat="42.94271" lon="0.28513">
        <ele>1099.4</ele>
        <time>2021-08-05T09:54:15Z</time>
      </trkpt>
      <trkpt lat="42.94271" lon="0.28513">
        <ele>1100</ele>
        <time>2021-08-05T09:54:52Z</time>
      </trkpt>
      <trkpt lat="42.94271" lon="0.28513">
        <ele>1100</ele>
        <time>2021-08-05T09:55:26Z</time>
      </trkpt>
      <trkpt lat="42.94271" lon="0.28513">
        <ele>1100.6</ele>
        <time>2021-08-05T09:55:56Z</time>
      </trkpt>
      <trkpt lat="42.94271" lon="0.28513">
        <ele>1100.8</ele>
        <time>2021-08-05T09:57:13Z</time>
      </trkpt>
      <trkpt lat="42.94271" lon="0.28513">
        <ele>1101.4</ele>
        <time>2021-08-05T09:58:10Z</time>
      </trkpt>
      <trkpt lat="42.94272" lon="0.28513">
        <ele>1101.2</ele>
        <time>2021-08-05T09:58:19Z</time>
      </trkpt>
    </trkseg>
  </trk>
</gpx>